<?xml version="1.0" encoding="UTF-8" standalone="no" ?>
<gpx xmlns="http://www.topografix.com/GPX/1/1" xmlns:xsi="http://www.w3.org/2001/XMLSchema-instance" xsi:schemaLocation="http://www.topografix.com/GPX/1/1 http://www.topografix.com/GPX/1/1/gpx.xsd" version="1.1" creator="VisuGPX - https://www.visugpx.com">
  <metadata>
    <name>Balade avec le frérot avant le rond </name>
  </metadata>
  <trk>
    <name><![CDATA[Balade avec le frérot avant le rond _1]]></name>
    <trkseg>
      <trkpt lat="50.02307" lon="4.32077">
        <ele>262</ele>
        <time>2024-04-01T07:49:10Z</time>
      </trkpt>
      <trkpt lat="50.02307" lon="4.32077">
        <ele>257.8</ele>
        <time>2024-04-01T07:49:11Z</time>
      </trkpt>
      <trkpt lat="50.02289" lon="4.32108">
        <ele>260</ele>
        <time>2024-04-01T07:51:41Z</time>
      </trkpt>
      <trkpt lat="50.0229" lon="4.3211">
        <ele>260</ele>
        <time>2024-04-01T07:51:42Z</time>
      </trkpt>
      <trkpt lat="50.02291" lon="4.32113">
        <ele>259.8</ele>
        <time>2024-04-01T07:51:43Z</time>
      </trkpt>
      <trkpt lat="50.02292" lon="4.32117">
        <ele>259.8</ele>
        <time>2024-04-01T07:51:44Z</time>
      </trkpt>
      <trkpt lat="50.02294" lon="4.3212">
        <ele>259.6</ele>
        <time>2024-04-01T07:51:45Z</time>
      </trkpt>
      <trkpt lat="50.02298" lon="4.32122">
        <ele>259.2</ele>
        <time>2024-04-01T07:51:46Z</time>
      </trkpt>
      <trkpt lat="50.02302" lon="4.32123">
        <ele>259.2</ele>
        <time>2024-04-01T07:51:47Z</time>
      </trkpt>
      <trkpt lat="50.02307" lon="4.32123">
        <ele>259.2</ele>
        <time>2024-04-01T07:51:48Z</time>
      </trkpt>
      <trkpt lat="50.02312" lon="4.32122">
        <ele>258.8</ele>
        <time>2024-04-01T07:51:49Z</time>
      </trkpt>
      <trkpt lat="50.02318" lon="4.32121">
        <ele>258.8</ele>
        <time>2024-04-01T07:51:50Z</time>
      </trkpt>
      <trkpt lat="50.02324" lon="4.32119">
        <ele>258.8</ele>
        <time>2024-04-01T07:51:51Z</time>
      </trkpt>
      <trkpt lat="50.02329" lon="4.32117">
        <ele>258.6</ele>
        <time>2024-04-01T07:51:52Z</time>
      </trkpt>
      <trkpt lat="50.02335" lon="4.32115">
        <ele>258.4</ele>
        <time>2024-04-01T07:51:53Z</time>
      </trkpt>
      <trkpt lat="50.0234" lon="4.32113">
        <ele>258.4</ele>
        <time>2024-04-01T07:51:54Z</time>
      </trkpt>
      <trkpt lat="50.02345" lon="4.32111">
        <ele>258.2</ele>
        <time>2024-04-01T07:51:55Z</time>
      </trkpt>
      <trkpt lat="50.0235" lon="4.32108">
        <ele>258.2</ele>
        <time>2024-04-01T07:51:56Z</time>
      </trkpt>
      <trkpt lat="50.02355" lon="4.32106">
        <ele>258.4</ele>
        <time>2024-04-01T07:51:57Z</time>
      </trkpt>
      <trkpt lat="50.02361" lon="4.32104">
        <ele>258.4</ele>
        <time>2024-04-01T07:51:58Z</time>
      </trkpt>
      <trkpt lat="50.02366" lon="4.32101">
        <ele>258.4</ele>
        <time>2024-04-01T07:51:59Z</time>
      </trkpt>
      <trkpt lat="50.02371" lon="4.32099">
        <ele>258.2</ele>
        <time>2024-04-01T07:52:00Z</time>
      </trkpt>
      <trkpt lat="50.02376" lon="4.32098">
        <ele>258.4</ele>
        <time>2024-04-01T07:52:01Z</time>
      </trkpt>
      <trkpt lat="50.02381" lon="4.32096">
        <ele>258.4</ele>
        <time>2024-04-01T07:52:02Z</time>
      </trkpt>
      <trkpt lat="50.02386" lon="4.32094">
        <ele>258.2</ele>
        <time>2024-04-01T07:52:03Z</time>
      </trkpt>
      <trkpt lat="50.0239" lon="4.32091">
        <ele>258.4</ele>
        <time>2024-04-01T07:52:04Z</time>
      </trkpt>
      <trkpt lat="50.02395" lon="4.32089">
        <ele>258.2</ele>
        <time>2024-04-01T07:52:05Z</time>
      </trkpt>
      <trkpt lat="50.02399" lon="4.32086">
        <ele>258.2</ele>
        <time>2024-04-01T07:52:06Z</time>
      </trkpt>
      <trkpt lat="50.02402" lon="4.32082">
        <ele>258.6</ele>
        <time>2024-04-01T07:52:07Z</time>
      </trkpt>
      <trkpt lat="50.02404" lon="4.32077">
        <ele>258.6</ele>
        <time>2024-04-01T07:52:08Z</time>
      </trkpt>
      <trkpt lat="50.02406" lon="4.32072">
        <ele>258.6</ele>
        <time>2024-04-01T07:52:09Z</time>
      </trkpt>
      <trkpt lat="50.02405" lon="4.32066">
        <ele>258.6</ele>
        <time>2024-04-01T07:52:10Z</time>
      </trkpt>
      <trkpt lat="50.02404" lon="4.32061">
        <ele>258.8</ele>
        <time>2024-04-01T07:52:11Z</time>
      </trkpt>
      <trkpt lat="50.02403" lon="4.32055">
        <ele>259</ele>
        <time>2024-04-01T07:52:12Z</time>
      </trkpt>
      <trkpt lat="50.02401" lon="4.3205">
        <ele>259.4</ele>
        <time>2024-04-01T07:52:13Z</time>
      </trkpt>
      <trkpt lat="50.024" lon="4.32045">
        <ele>259.6</ele>
        <time>2024-04-01T07:52:14Z</time>
      </trkpt>
      <trkpt lat="50.02398" lon="4.3204">
        <ele>259.8</ele>
        <time>2024-04-01T07:52:15Z</time>
      </trkpt>
      <trkpt lat="50.02396" lon="4.32035">
        <ele>260</ele>
        <time>2024-04-01T07:52:16Z</time>
      </trkpt>
      <trkpt lat="50.02394" lon="4.32031">
        <ele>260.4</ele>
        <time>2024-04-01T07:52:17Z</time>
      </trkpt>
      <trkpt lat="50.02392" lon="4.32026">
        <ele>260.4</ele>
        <time>2024-04-01T07:52:18Z</time>
      </trkpt>
      <trkpt lat="50.0239" lon="4.32021">
        <ele>260.4</ele>
        <time>2024-04-01T07:52:19Z</time>
      </trkpt>
      <trkpt lat="50.02389" lon="4.32016">
        <ele>260.8</ele>
        <time>2024-04-01T07:52:20Z</time>
      </trkpt>
      <trkpt lat="50.02387" lon="4.32012">
        <ele>261</ele>
        <time>2024-04-01T07:52:21Z</time>
      </trkpt>
      <trkpt lat="50.02385" lon="4.32007">
        <ele>261.4</ele>
        <time>2024-04-01T07:52:22Z</time>
      </trkpt>
      <trkpt lat="50.02384" lon="4.32002">
        <ele>261.6</ele>
        <time>2024-04-01T07:52:23Z</time>
      </trkpt>
      <trkpt lat="50.02382" lon="4.31998">
        <ele>261.8</ele>
        <time>2024-04-01T07:52:24Z</time>
      </trkpt>
      <trkpt lat="50.0238" lon="4.31993">
        <ele>261.8</ele>
        <time>2024-04-01T07:52:25Z</time>
      </trkpt>
      <trkpt lat="50.02379" lon="4.31989">
        <ele>262</ele>
        <time>2024-04-01T07:52:26Z</time>
      </trkpt>
      <trkpt lat="50.02377" lon="4.31984">
        <ele>262.4</ele>
        <time>2024-04-01T07:52:27Z</time>
      </trkpt>
      <trkpt lat="50.02376" lon="4.3198">
        <ele>263</ele>
        <time>2024-04-01T07:52:28Z</time>
      </trkpt>
      <trkpt lat="50.02374" lon="4.31975">
        <ele>263.4</ele>
        <time>2024-04-01T07:52:29Z</time>
      </trkpt>
      <trkpt lat="50.02373" lon="4.31971">
        <ele>264</ele>
        <time>2024-04-01T07:52:30Z</time>
      </trkpt>
      <trkpt lat="50.02371" lon="4.31966">
        <ele>264.4</ele>
        <time>2024-04-01T07:52:31Z</time>
      </trkpt>
      <trkpt lat="50.0237" lon="4.31962">
        <ele>264.6</ele>
        <time>2024-04-01T07:52:32Z</time>
      </trkpt>
      <trkpt lat="50.02368" lon="4.31957">
        <ele>264.8</ele>
        <time>2024-04-01T07:52:33Z</time>
      </trkpt>
      <trkpt lat="50.02366" lon="4.31953">
        <ele>265.4</ele>
        <time>2024-04-01T07:52:34Z</time>
      </trkpt>
      <trkpt lat="50.02365" lon="4.31948">
        <ele>266</ele>
        <time>2024-04-01T07:52:35Z</time>
      </trkpt>
      <trkpt lat="50.02363" lon="4.31944">
        <ele>266</ele>
        <time>2024-04-01T07:52:36Z</time>
      </trkpt>
      <trkpt lat="50.02362" lon="4.3194">
        <ele>266.2</ele>
        <time>2024-04-01T07:52:37Z</time>
      </trkpt>
      <trkpt lat="50.0236" lon="4.31935">
        <ele>266.4</ele>
        <time>2024-04-01T07:52:38Z</time>
      </trkpt>
      <trkpt lat="50.02359" lon="4.31931">
        <ele>266.6</ele>
        <time>2024-04-01T07:52:39Z</time>
      </trkpt>
      <trkpt lat="50.02357" lon="4.31927">
        <ele>267.2</ele>
        <time>2024-04-01T07:52:40Z</time>
      </trkpt>
      <trkpt lat="50.02355" lon="4.31923">
        <ele>267.2</ele>
        <time>2024-04-01T07:52:41Z</time>
      </trkpt>
      <trkpt lat="50.02353" lon="4.31918">
        <ele>267.4</ele>
        <time>2024-04-01T07:52:42Z</time>
      </trkpt>
      <trkpt lat="50.02351" lon="4.31914">
        <ele>267.8</ele>
        <time>2024-04-01T07:52:43Z</time>
      </trkpt>
      <trkpt lat="50.02349" lon="4.3191">
        <ele>267.8</ele>
        <time>2024-04-01T07:52:44Z</time>
      </trkpt>
      <trkpt lat="50.02347" lon="4.31906">
        <ele>267.8</ele>
        <time>2024-04-01T07:52:45Z</time>
      </trkpt>
      <trkpt lat="50.02346" lon="4.31901">
        <ele>268.2</ele>
        <time>2024-04-01T07:52:46Z</time>
      </trkpt>
      <trkpt lat="50.02344" lon="4.31897">
        <ele>268.4</ele>
        <time>2024-04-01T07:52:47Z</time>
      </trkpt>
      <trkpt lat="50.02341" lon="4.31892">
        <ele>268.8</ele>
        <time>2024-04-01T07:52:48Z</time>
      </trkpt>
      <trkpt lat="50.02339" lon="4.31888">
        <ele>269.2</ele>
        <time>2024-04-01T07:52:49Z</time>
      </trkpt>
      <trkpt lat="50.02337" lon="4.31884">
        <ele>269.4</ele>
        <time>2024-04-01T07:52:50Z</time>
      </trkpt>
      <trkpt lat="50.02335" lon="4.31879">
        <ele>269.6</ele>
        <time>2024-04-01T07:52:51Z</time>
      </trkpt>
      <trkpt lat="50.02332" lon="4.31875">
        <ele>269.6</ele>
        <time>2024-04-01T07:52:52Z</time>
      </trkpt>
      <trkpt lat="50.0233" lon="4.31871">
        <ele>269.8</ele>
        <time>2024-04-01T07:52:53Z</time>
      </trkpt>
      <trkpt lat="50.02328" lon="4.31867">
        <ele>269.8</ele>
        <time>2024-04-01T07:52:54Z</time>
      </trkpt>
      <trkpt lat="50.02326" lon="4.31863">
        <ele>270</ele>
        <time>2024-04-01T07:52:55Z</time>
      </trkpt>
      <trkpt lat="50.02323" lon="4.31859">
        <ele>270.2</ele>
        <time>2024-04-01T07:52:56Z</time>
      </trkpt>
      <trkpt lat="50.02321" lon="4.31855">
        <ele>270.2</ele>
        <time>2024-04-01T07:52:57Z</time>
      </trkpt>
      <trkpt lat="50.02319" lon="4.31851">
        <ele>270.4</ele>
        <time>2024-04-01T07:52:58Z</time>
      </trkpt>
      <trkpt lat="50.02317" lon="4.31847">
        <ele>270.8</ele>
        <time>2024-04-01T07:52:59Z</time>
      </trkpt>
      <trkpt lat="50.02315" lon="4.31844">
        <ele>271</ele>
        <time>2024-04-01T07:53:00Z</time>
      </trkpt>
      <trkpt lat="50.02313" lon="4.3184">
        <ele>271</ele>
        <time>2024-04-01T07:53:01Z</time>
      </trkpt>
      <trkpt lat="50.0231" lon="4.31836">
        <ele>271.2</ele>
        <time>2024-04-01T07:53:02Z</time>
      </trkpt>
      <trkpt lat="50.02308" lon="4.31832">
        <ele>271.4</ele>
        <time>2024-04-01T07:53:03Z</time>
      </trkpt>
      <trkpt lat="50.02306" lon="4.31829">
        <ele>271.4</ele>
        <time>2024-04-01T07:53:04Z</time>
      </trkpt>
      <trkpt lat="50.02304" lon="4.31825">
        <ele>271.6</ele>
        <time>2024-04-01T07:53:05Z</time>
      </trkpt>
      <trkpt lat="50.02303" lon="4.31821">
        <ele>271.6</ele>
        <time>2024-04-01T07:53:06Z</time>
      </trkpt>
      <trkpt lat="50.02301" lon="4.31817">
        <ele>271.8</ele>
        <time>2024-04-01T07:53:07Z</time>
      </trkpt>
      <trkpt lat="50.02299" lon="4.31814">
        <ele>272</ele>
        <time>2024-04-01T07:53:08Z</time>
      </trkpt>
      <trkpt lat="50.02298" lon="4.31811">
        <ele>272</ele>
        <time>2024-04-01T07:53:09Z</time>
      </trkpt>
      <trkpt lat="50.02296" lon="4.31807">
        <ele>272.4</ele>
        <time>2024-04-01T07:53:10Z</time>
      </trkpt>
      <trkpt lat="50.02294" lon="4.31803">
        <ele>272.8</ele>
        <time>2024-04-01T07:53:11Z</time>
      </trkpt>
      <trkpt lat="50.02292" lon="4.318">
        <ele>273</ele>
        <time>2024-04-01T07:53:12Z</time>
      </trkpt>
      <trkpt lat="50.02289" lon="4.31796">
        <ele>273.2</ele>
        <time>2024-04-01T07:53:13Z</time>
      </trkpt>
      <trkpt lat="50.02287" lon="4.31792">
        <ele>273.6</ele>
        <time>2024-04-01T07:53:14Z</time>
      </trkpt>
      <trkpt lat="50.02285" lon="4.31788">
        <ele>273.8</ele>
        <time>2024-04-01T07:53:15Z</time>
      </trkpt>
      <trkpt lat="50.02283" lon="4.31785">
        <ele>274.2</ele>
        <time>2024-04-01T07:53:16Z</time>
      </trkpt>
      <trkpt lat="50.02281" lon="4.31781">
        <ele>274.2</ele>
        <time>2024-04-01T07:53:17Z</time>
      </trkpt>
      <trkpt lat="50.0228" lon="4.31778">
        <ele>274.6</ele>
        <time>2024-04-01T07:53:18Z</time>
      </trkpt>
      <trkpt lat="50.02278" lon="4.31774">
        <ele>275</ele>
        <time>2024-04-01T07:53:19Z</time>
      </trkpt>
      <trkpt lat="50.02276" lon="4.3177">
        <ele>275</ele>
        <time>2024-04-01T07:53:20Z</time>
      </trkpt>
      <trkpt lat="50.02274" lon="4.31766">
        <ele>275</ele>
        <time>2024-04-01T07:53:21Z</time>
      </trkpt>
      <trkpt lat="50.02272" lon="4.31762">
        <ele>275.2</ele>
        <time>2024-04-01T07:53:22Z</time>
      </trkpt>
      <trkpt lat="50.0227" lon="4.31758">
        <ele>275.6</ele>
        <time>2024-04-01T07:53:23Z</time>
      </trkpt>
      <trkpt lat="50.02268" lon="4.31754">
        <ele>275.8</ele>
        <time>2024-04-01T07:53:24Z</time>
      </trkpt>
      <trkpt lat="50.02266" lon="4.3175">
        <ele>276.2</ele>
        <time>2024-04-01T07:53:25Z</time>
      </trkpt>
      <trkpt lat="50.02264" lon="4.31746">
        <ele>276.4</ele>
        <time>2024-04-01T07:53:26Z</time>
      </trkpt>
      <trkpt lat="50.02262" lon="4.31742">
        <ele>276.6</ele>
        <time>2024-04-01T07:53:27Z</time>
      </trkpt>
      <trkpt lat="50.0226" lon="4.31738">
        <ele>276.8</ele>
        <time>2024-04-01T07:53:28Z</time>
      </trkpt>
      <trkpt lat="50.02259" lon="4.31734">
        <ele>277</ele>
        <time>2024-04-01T07:53:29Z</time>
      </trkpt>
      <trkpt lat="50.02257" lon="4.3173">
        <ele>277.2</ele>
        <time>2024-04-01T07:53:30Z</time>
      </trkpt>
      <trkpt lat="50.02255" lon="4.31726">
        <ele>277.4</ele>
        <time>2024-04-01T07:53:31Z</time>
      </trkpt>
      <trkpt lat="50.02253" lon="4.31722">
        <ele>277.8</ele>
        <time>2024-04-01T07:53:32Z</time>
      </trkpt>
      <trkpt lat="50.02251" lon="4.31718">
        <ele>278</ele>
        <time>2024-04-01T07:53:33Z</time>
      </trkpt>
      <trkpt lat="50.02249" lon="4.31714">
        <ele>278.2</ele>
        <time>2024-04-01T07:53:34Z</time>
      </trkpt>
      <trkpt lat="50.02247" lon="4.3171">
        <ele>278.4</ele>
        <time>2024-04-01T07:53:35Z</time>
      </trkpt>
      <trkpt lat="50.02245" lon="4.31706">
        <ele>278.6</ele>
        <time>2024-04-01T07:53:36Z</time>
      </trkpt>
      <trkpt lat="50.02244" lon="4.31701">
        <ele>278.8</ele>
        <time>2024-04-01T07:53:37Z</time>
      </trkpt>
      <trkpt lat="50.02242" lon="4.31697">
        <ele>279</ele>
        <time>2024-04-01T07:53:38Z</time>
      </trkpt>
      <trkpt lat="50.0224" lon="4.31693">
        <ele>279.2</ele>
        <time>2024-04-01T07:53:39Z</time>
      </trkpt>
      <trkpt lat="50.02238" lon="4.31689">
        <ele>279.2</ele>
        <time>2024-04-01T07:53:40Z</time>
      </trkpt>
      <trkpt lat="50.02236" lon="4.31685">
        <ele>279.2</ele>
        <time>2024-04-01T07:53:41Z</time>
      </trkpt>
      <trkpt lat="50.02234" lon="4.31681">
        <ele>279.2</ele>
        <time>2024-04-01T07:53:42Z</time>
      </trkpt>
      <trkpt lat="50.02232" lon="4.31677">
        <ele>279.2</ele>
        <time>2024-04-01T07:53:43Z</time>
      </trkpt>
      <trkpt lat="50.02231" lon="4.31673">
        <ele>279.4</ele>
        <time>2024-04-01T07:53:44Z</time>
      </trkpt>
      <trkpt lat="50.02229" lon="4.31669">
        <ele>279.8</ele>
        <time>2024-04-01T07:53:45Z</time>
      </trkpt>
      <trkpt lat="50.02227" lon="4.31665">
        <ele>279.8</ele>
        <time>2024-04-01T07:53:46Z</time>
      </trkpt>
      <trkpt lat="50.02225" lon="4.3166">
        <ele>279.8</ele>
        <time>2024-04-01T07:53:47Z</time>
      </trkpt>
      <trkpt lat="50.02224" lon="4.31656">
        <ele>280</ele>
        <time>2024-04-01T07:53:48Z</time>
      </trkpt>
      <trkpt lat="50.02222" lon="4.31652">
        <ele>280</ele>
        <time>2024-04-01T07:53:49Z</time>
      </trkpt>
      <trkpt lat="50.0222" lon="4.31648">
        <ele>280.2</ele>
        <time>2024-04-01T07:53:50Z</time>
      </trkpt>
      <trkpt lat="50.02217" lon="4.31644">
        <ele>280.4</ele>
        <time>2024-04-01T07:53:51Z</time>
      </trkpt>
      <trkpt lat="50.02215" lon="4.3164">
        <ele>280.4</ele>
        <time>2024-04-01T07:53:52Z</time>
      </trkpt>
      <trkpt lat="50.02212" lon="4.31636">
        <ele>280.4</ele>
        <time>2024-04-01T07:53:53Z</time>
      </trkpt>
      <trkpt lat="50.02209" lon="4.31632">
        <ele>281</ele>
        <time>2024-04-01T07:53:54Z</time>
      </trkpt>
      <trkpt lat="50.02207" lon="4.31629">
        <ele>281.6</ele>
        <time>2024-04-01T07:53:55Z</time>
      </trkpt>
      <trkpt lat="50.02204" lon="4.31625">
        <ele>282</ele>
        <time>2024-04-01T07:53:56Z</time>
      </trkpt>
      <trkpt lat="50.02201" lon="4.31622">
        <ele>282.4</ele>
        <time>2024-04-01T07:53:57Z</time>
      </trkpt>
      <trkpt lat="50.02198" lon="4.31619">
        <ele>282.4</ele>
        <time>2024-04-01T07:53:58Z</time>
      </trkpt>
      <trkpt lat="50.02195" lon="4.31616">
        <ele>282.4</ele>
        <time>2024-04-01T07:53:59Z</time>
      </trkpt>
      <trkpt lat="50.02192" lon="4.31613">
        <ele>282.8</ele>
        <time>2024-04-01T07:54:00Z</time>
      </trkpt>
      <trkpt lat="50.02189" lon="4.3161">
        <ele>282.8</ele>
        <time>2024-04-01T07:54:01Z</time>
      </trkpt>
      <trkpt lat="50.02186" lon="4.31608">
        <ele>283</ele>
        <time>2024-04-01T07:54:02Z</time>
      </trkpt>
      <trkpt lat="50.02182" lon="4.31605">
        <ele>283</ele>
        <time>2024-04-01T07:54:03Z</time>
      </trkpt>
      <trkpt lat="50.02179" lon="4.31603">
        <ele>283.2</ele>
        <time>2024-04-01T07:54:04Z</time>
      </trkpt>
      <trkpt lat="50.02176" lon="4.31601">
        <ele>283.4</ele>
        <time>2024-04-01T07:54:05Z</time>
      </trkpt>
      <trkpt lat="50.02172" lon="4.31599">
        <ele>283.4</ele>
        <time>2024-04-01T07:54:06Z</time>
      </trkpt>
      <trkpt lat="50.02169" lon="4.31597">
        <ele>283.6</ele>
        <time>2024-04-01T07:54:07Z</time>
      </trkpt>
      <trkpt lat="50.02166" lon="4.31595">
        <ele>283.8</ele>
        <time>2024-04-01T07:54:08Z</time>
      </trkpt>
      <trkpt lat="50.02162" lon="4.31593">
        <ele>284</ele>
        <time>2024-04-01T07:54:09Z</time>
      </trkpt>
      <trkpt lat="50.02159" lon="4.31591">
        <ele>284</ele>
        <time>2024-04-01T07:54:10Z</time>
      </trkpt>
      <trkpt lat="50.02155" lon="4.31589">
        <ele>284.2</ele>
        <time>2024-04-01T07:54:11Z</time>
      </trkpt>
      <trkpt lat="50.02152" lon="4.31588">
        <ele>284.4</ele>
        <time>2024-04-01T07:54:12Z</time>
      </trkpt>
      <trkpt lat="50.02148" lon="4.31586">
        <ele>284.4</ele>
        <time>2024-04-01T07:54:13Z</time>
      </trkpt>
      <trkpt lat="50.02145" lon="4.31585">
        <ele>284.2</ele>
        <time>2024-04-01T07:54:14Z</time>
      </trkpt>
      <trkpt lat="50.02141" lon="4.31583">
        <ele>284.4</ele>
        <time>2024-04-01T07:54:15Z</time>
      </trkpt>
      <trkpt lat="50.02138" lon="4.31582">
        <ele>284.4</ele>
        <time>2024-04-01T07:54:16Z</time>
      </trkpt>
      <trkpt lat="50.02134" lon="4.3158">
        <ele>284.6</ele>
        <time>2024-04-01T07:54:17Z</time>
      </trkpt>
      <trkpt lat="50.0213" lon="4.31578">
        <ele>284.4</ele>
        <time>2024-04-01T07:54:18Z</time>
      </trkpt>
      <trkpt lat="50.02126" lon="4.31576">
        <ele>284.4</ele>
        <time>2024-04-01T07:54:19Z</time>
      </trkpt>
      <trkpt lat="50.02123" lon="4.31575">
        <ele>284.4</ele>
        <time>2024-04-01T07:54:20Z</time>
      </trkpt>
      <trkpt lat="50.02119" lon="4.31573">
        <ele>284.6</ele>
        <time>2024-04-01T07:54:21Z</time>
      </trkpt>
      <trkpt lat="50.02115" lon="4.31571">
        <ele>284.6</ele>
        <time>2024-04-01T07:54:22Z</time>
      </trkpt>
      <trkpt lat="50.02112" lon="4.3157">
        <ele>284.8</ele>
        <time>2024-04-01T07:54:23Z</time>
      </trkpt>
      <trkpt lat="50.02108" lon="4.31568">
        <ele>284.8</ele>
        <time>2024-04-01T07:54:24Z</time>
      </trkpt>
      <trkpt lat="50.02104" lon="4.31567">
        <ele>285</ele>
        <time>2024-04-01T07:54:25Z</time>
      </trkpt>
      <trkpt lat="50.02101" lon="4.31565">
        <ele>285</ele>
        <time>2024-04-01T07:54:26Z</time>
      </trkpt>
      <trkpt lat="50.02097" lon="4.31564">
        <ele>285.6</ele>
        <time>2024-04-01T07:54:27Z</time>
      </trkpt>
      <trkpt lat="50.02094" lon="4.31562">
        <ele>286</ele>
        <time>2024-04-01T07:54:28Z</time>
      </trkpt>
      <trkpt lat="50.0209" lon="4.3156">
        <ele>286.4</ele>
        <time>2024-04-01T07:54:29Z</time>
      </trkpt>
      <trkpt lat="50.02086" lon="4.31559">
        <ele>286.6</ele>
        <time>2024-04-01T07:54:30Z</time>
      </trkpt>
      <trkpt lat="50.02083" lon="4.31558">
        <ele>286.6</ele>
        <time>2024-04-01T07:54:31Z</time>
      </trkpt>
      <trkpt lat="50.02079" lon="4.31556">
        <ele>286.8</ele>
        <time>2024-04-01T07:54:32Z</time>
      </trkpt>
      <trkpt lat="50.02075" lon="4.31555">
        <ele>287.4</ele>
        <time>2024-04-01T07:54:33Z</time>
      </trkpt>
      <trkpt lat="50.02072" lon="4.31553">
        <ele>287.6</ele>
        <time>2024-04-01T07:54:34Z</time>
      </trkpt>
      <trkpt lat="50.02068" lon="4.31552">
        <ele>287.6</ele>
        <time>2024-04-01T07:54:35Z</time>
      </trkpt>
      <trkpt lat="50.02065" lon="4.3155">
        <ele>287.6</ele>
        <time>2024-04-01T07:54:36Z</time>
      </trkpt>
      <trkpt lat="50.02061" lon="4.31548">
        <ele>287.8</ele>
        <time>2024-04-01T07:54:37Z</time>
      </trkpt>
      <trkpt lat="50.02058" lon="4.31547">
        <ele>288</ele>
        <time>2024-04-01T07:54:38Z</time>
      </trkpt>
      <trkpt lat="50.02054" lon="4.31545">
        <ele>288.2</ele>
        <time>2024-04-01T07:54:39Z</time>
      </trkpt>
      <trkpt lat="50.0205" lon="4.31543">
        <ele>288.6</ele>
        <time>2024-04-01T07:54:40Z</time>
      </trkpt>
      <trkpt lat="50.02047" lon="4.31542">
        <ele>288.6</ele>
        <time>2024-04-01T07:54:41Z</time>
      </trkpt>
      <trkpt lat="50.02043" lon="4.31541">
        <ele>288.6</ele>
        <time>2024-04-01T07:54:42Z</time>
      </trkpt>
      <trkpt lat="50.02039" lon="4.31539">
        <ele>288.8</ele>
        <time>2024-04-01T07:54:43Z</time>
      </trkpt>
      <trkpt lat="50.02036" lon="4.31538">
        <ele>288.6</ele>
        <time>2024-04-01T07:54:44Z</time>
      </trkpt>
      <trkpt lat="50.02032" lon="4.31536">
        <ele>288.6</ele>
        <time>2024-04-01T07:54:45Z</time>
      </trkpt>
      <trkpt lat="50.02028" lon="4.31535">
        <ele>288.8</ele>
        <time>2024-04-01T07:54:46Z</time>
      </trkpt>
      <trkpt lat="50.02025" lon="4.31534">
        <ele>288.6</ele>
        <time>2024-04-01T07:54:47Z</time>
      </trkpt>
      <trkpt lat="50.02021" lon="4.31532">
        <ele>288.8</ele>
        <time>2024-04-01T07:54:48Z</time>
      </trkpt>
      <trkpt lat="50.02017" lon="4.31531">
        <ele>288.8</ele>
        <time>2024-04-01T07:54:49Z</time>
      </trkpt>
      <trkpt lat="50.02014" lon="4.31529">
        <ele>288.8</ele>
        <time>2024-04-01T07:54:50Z</time>
      </trkpt>
      <trkpt lat="50.0201" lon="4.31528">
        <ele>288.8</ele>
        <time>2024-04-01T07:54:51Z</time>
      </trkpt>
      <trkpt lat="50.02006" lon="4.31526">
        <ele>288.8</ele>
        <time>2024-04-01T07:54:52Z</time>
      </trkpt>
      <trkpt lat="50.02003" lon="4.31525">
        <ele>289</ele>
        <time>2024-04-01T07:54:53Z</time>
      </trkpt>
      <trkpt lat="50.01999" lon="4.31523">
        <ele>289</ele>
        <time>2024-04-01T07:54:54Z</time>
      </trkpt>
      <trkpt lat="50.01995" lon="4.31522">
        <ele>289</ele>
        <time>2024-04-01T07:54:55Z</time>
      </trkpt>
      <trkpt lat="50.01991" lon="4.31521">
        <ele>289</ele>
        <time>2024-04-01T07:54:56Z</time>
      </trkpt>
      <trkpt lat="50.01988" lon="4.31519">
        <ele>289</ele>
        <time>2024-04-01T07:54:57Z</time>
      </trkpt>
      <trkpt lat="50.01984" lon="4.31517">
        <ele>289</ele>
        <time>2024-04-01T07:54:58Z</time>
      </trkpt>
      <trkpt lat="50.0198" lon="4.31516">
        <ele>289.2</ele>
        <time>2024-04-01T07:54:59Z</time>
      </trkpt>
      <trkpt lat="50.01977" lon="4.31515">
        <ele>289.6</ele>
        <time>2024-04-01T07:55:00Z</time>
      </trkpt>
      <trkpt lat="50.01973" lon="4.31513">
        <ele>290.4</ele>
        <time>2024-04-01T07:55:01Z</time>
      </trkpt>
      <trkpt lat="50.01969" lon="4.31512">
        <ele>290.6</ele>
        <time>2024-04-01T07:55:02Z</time>
      </trkpt>
      <trkpt lat="50.01965" lon="4.3151">
        <ele>290.8</ele>
        <time>2024-04-01T07:55:03Z</time>
      </trkpt>
      <trkpt lat="50.01961" lon="4.31509">
        <ele>290.8</ele>
        <time>2024-04-01T07:55:04Z</time>
      </trkpt>
      <trkpt lat="50.01957" lon="4.31508">
        <ele>290.8</ele>
        <time>2024-04-01T07:55:05Z</time>
      </trkpt>
      <trkpt lat="50.01953" lon="4.31506">
        <ele>291</ele>
        <time>2024-04-01T07:55:06Z</time>
      </trkpt>
      <trkpt lat="50.0195" lon="4.31505">
        <ele>291</ele>
        <time>2024-04-01T07:55:07Z</time>
      </trkpt>
      <trkpt lat="50.01946" lon="4.31503">
        <ele>291.2</ele>
        <time>2024-04-01T07:55:08Z</time>
      </trkpt>
      <trkpt lat="50.01942" lon="4.31502">
        <ele>291.2</ele>
        <time>2024-04-01T07:55:09Z</time>
      </trkpt>
      <trkpt lat="50.01938" lon="4.31501">
        <ele>291.2</ele>
        <time>2024-04-01T07:55:10Z</time>
      </trkpt>
      <trkpt lat="50.01934" lon="4.315">
        <ele>291.4</ele>
        <time>2024-04-01T07:55:11Z</time>
      </trkpt>
      <trkpt lat="50.01931" lon="4.31498">
        <ele>291.8</ele>
        <time>2024-04-01T07:55:12Z</time>
      </trkpt>
      <trkpt lat="50.01927" lon="4.31497">
        <ele>292</ele>
        <time>2024-04-01T07:55:13Z</time>
      </trkpt>
      <trkpt lat="50.01923" lon="4.31496">
        <ele>292.2</ele>
        <time>2024-04-01T07:55:14Z</time>
      </trkpt>
      <trkpt lat="50.01919" lon="4.31495">
        <ele>292</ele>
        <time>2024-04-01T07:55:15Z</time>
      </trkpt>
      <trkpt lat="50.01915" lon="4.31494">
        <ele>292.2</ele>
        <time>2024-04-01T07:55:16Z</time>
      </trkpt>
      <trkpt lat="50.01911" lon="4.31492">
        <ele>292.2</ele>
        <time>2024-04-01T07:55:17Z</time>
      </trkpt>
      <trkpt lat="50.01907" lon="4.31491">
        <ele>292.2</ele>
        <time>2024-04-01T07:55:18Z</time>
      </trkpt>
      <trkpt lat="50.01903" lon="4.3149">
        <ele>292.4</ele>
        <time>2024-04-01T07:55:19Z</time>
      </trkpt>
      <trkpt lat="50.01899" lon="4.31488">
        <ele>292.4</ele>
        <time>2024-04-01T07:55:20Z</time>
      </trkpt>
      <trkpt lat="50.01895" lon="4.31487">
        <ele>292.6</ele>
        <time>2024-04-01T07:55:21Z</time>
      </trkpt>
      <trkpt lat="50.01891" lon="4.31486">
        <ele>292.6</ele>
        <time>2024-04-01T07:55:22Z</time>
      </trkpt>
      <trkpt lat="50.01887" lon="4.31484">
        <ele>292.6</ele>
        <time>2024-04-01T07:55:23Z</time>
      </trkpt>
      <trkpt lat="50.01883" lon="4.31483">
        <ele>292.8</ele>
        <time>2024-04-01T07:55:24Z</time>
      </trkpt>
      <trkpt lat="50.01879" lon="4.31481">
        <ele>292.8</ele>
        <time>2024-04-01T07:55:25Z</time>
      </trkpt>
      <trkpt lat="50.01875" lon="4.31479">
        <ele>293</ele>
        <time>2024-04-01T07:55:26Z</time>
      </trkpt>
      <trkpt lat="50.01871" lon="4.31477">
        <ele>293</ele>
        <time>2024-04-01T07:55:27Z</time>
      </trkpt>
      <trkpt lat="50.01867" lon="4.31476">
        <ele>293.2</ele>
        <time>2024-04-01T07:55:28Z</time>
      </trkpt>
      <trkpt lat="50.01863" lon="4.31474">
        <ele>293.2</ele>
        <time>2024-04-01T07:55:29Z</time>
      </trkpt>
      <trkpt lat="50.01859" lon="4.31472">
        <ele>293.4</ele>
        <time>2024-04-01T07:55:30Z</time>
      </trkpt>
      <trkpt lat="50.01855" lon="4.31471">
        <ele>293.4</ele>
        <time>2024-04-01T07:55:31Z</time>
      </trkpt>
      <trkpt lat="50.01851" lon="4.31469">
        <ele>293.6</ele>
        <time>2024-04-01T07:55:32Z</time>
      </trkpt>
      <trkpt lat="50.01847" lon="4.31467">
        <ele>293.8</ele>
        <time>2024-04-01T07:55:33Z</time>
      </trkpt>
      <trkpt lat="50.01843" lon="4.31465">
        <ele>294</ele>
        <time>2024-04-01T07:55:34Z</time>
      </trkpt>
      <trkpt lat="50.0184" lon="4.31463">
        <ele>294.2</ele>
        <time>2024-04-01T07:55:35Z</time>
      </trkpt>
      <trkpt lat="50.01836" lon="4.31461">
        <ele>294.2</ele>
        <time>2024-04-01T07:55:36Z</time>
      </trkpt>
      <trkpt lat="50.01832" lon="4.31459">
        <ele>294.2</ele>
        <time>2024-04-01T07:55:37Z</time>
      </trkpt>
      <trkpt lat="50.01828" lon="4.31457">
        <ele>294.4</ele>
        <time>2024-04-01T07:55:38Z</time>
      </trkpt>
      <trkpt lat="50.01825" lon="4.31456">
        <ele>294.4</ele>
        <time>2024-04-01T07:55:39Z</time>
      </trkpt>
      <trkpt lat="50.01821" lon="4.31454">
        <ele>294.4</ele>
        <time>2024-04-01T07:55:40Z</time>
      </trkpt>
      <trkpt lat="50.01817" lon="4.31452">
        <ele>294.6</ele>
        <time>2024-04-01T07:55:41Z</time>
      </trkpt>
      <trkpt lat="50.01814" lon="4.3145">
        <ele>294.6</ele>
        <time>2024-04-01T07:55:42Z</time>
      </trkpt>
      <trkpt lat="50.0181" lon="4.31448">
        <ele>295</ele>
        <time>2024-04-01T07:55:43Z</time>
      </trkpt>
      <trkpt lat="50.01806" lon="4.31446">
        <ele>295.2</ele>
        <time>2024-04-01T07:55:44Z</time>
      </trkpt>
      <trkpt lat="50.01803" lon="4.31444">
        <ele>295.2</ele>
        <time>2024-04-01T07:55:45Z</time>
      </trkpt>
      <trkpt lat="50.01799" lon="4.31442">
        <ele>295.2</ele>
        <time>2024-04-01T07:55:46Z</time>
      </trkpt>
      <trkpt lat="50.01795" lon="4.3144">
        <ele>295.2</ele>
        <time>2024-04-01T07:55:47Z</time>
      </trkpt>
      <trkpt lat="50.01792" lon="4.31438">
        <ele>295.2</ele>
        <time>2024-04-01T07:55:48Z</time>
      </trkpt>
      <trkpt lat="50.01788" lon="4.31436">
        <ele>295.4</ele>
        <time>2024-04-01T07:55:49Z</time>
      </trkpt>
      <trkpt lat="50.01784" lon="4.31434">
        <ele>295.6</ele>
        <time>2024-04-01T07:55:50Z</time>
      </trkpt>
      <trkpt lat="50.01781" lon="4.31431">
        <ele>295.6</ele>
        <time>2024-04-01T07:55:51Z</time>
      </trkpt>
      <trkpt lat="50.01777" lon="4.31429">
        <ele>295.8</ele>
        <time>2024-04-01T07:55:52Z</time>
      </trkpt>
      <trkpt lat="50.01774" lon="4.31426">
        <ele>295.8</ele>
        <time>2024-04-01T07:55:53Z</time>
      </trkpt>
      <trkpt lat="50.0177" lon="4.31423">
        <ele>295.8</ele>
        <time>2024-04-01T07:55:54Z</time>
      </trkpt>
      <trkpt lat="50.01767" lon="4.3142">
        <ele>296</ele>
        <time>2024-04-01T07:55:55Z</time>
      </trkpt>
      <trkpt lat="50.01763" lon="4.31417">
        <ele>296.4</ele>
        <time>2024-04-01T07:55:56Z</time>
      </trkpt>
      <trkpt lat="50.0176" lon="4.31414">
        <ele>296.4</ele>
        <time>2024-04-01T07:55:57Z</time>
      </trkpt>
      <trkpt lat="50.01756" lon="4.31411">
        <ele>296.6</ele>
        <time>2024-04-01T07:55:58Z</time>
      </trkpt>
      <trkpt lat="50.01753" lon="4.31408">
        <ele>296.8</ele>
        <time>2024-04-01T07:55:59Z</time>
      </trkpt>
      <trkpt lat="50.01749" lon="4.31405">
        <ele>296.8</ele>
        <time>2024-04-01T07:56:00Z</time>
      </trkpt>
      <trkpt lat="50.01745" lon="4.31402">
        <ele>297</ele>
        <time>2024-04-01T07:56:01Z</time>
      </trkpt>
      <trkpt lat="50.01742" lon="4.31399">
        <ele>297.2</ele>
        <time>2024-04-01T07:56:02Z</time>
      </trkpt>
      <trkpt lat="50.01738" lon="4.31395">
        <ele>297.2</ele>
        <time>2024-04-01T07:56:03Z</time>
      </trkpt>
      <trkpt lat="50.01734" lon="4.31392">
        <ele>297.4</ele>
        <time>2024-04-01T07:56:04Z</time>
      </trkpt>
      <trkpt lat="50.01731" lon="4.31389">
        <ele>297.4</ele>
        <time>2024-04-01T07:56:05Z</time>
      </trkpt>
      <trkpt lat="50.01727" lon="4.31387">
        <ele>297.4</ele>
        <time>2024-04-01T07:56:06Z</time>
      </trkpt>
      <trkpt lat="50.01723" lon="4.31384">
        <ele>297.6</ele>
        <time>2024-04-01T07:56:07Z</time>
      </trkpt>
      <trkpt lat="50.01719" lon="4.31382">
        <ele>297.6</ele>
        <time>2024-04-01T07:56:08Z</time>
      </trkpt>
      <trkpt lat="50.01715" lon="4.31379">
        <ele>297.8</ele>
        <time>2024-04-01T07:56:09Z</time>
      </trkpt>
      <trkpt lat="50.01711" lon="4.31376">
        <ele>297.8</ele>
        <time>2024-04-01T07:56:10Z</time>
      </trkpt>
      <trkpt lat="50.01707" lon="4.31374">
        <ele>297.8</ele>
        <time>2024-04-01T07:56:11Z</time>
      </trkpt>
      <trkpt lat="50.01703" lon="4.31371">
        <ele>298.2</ele>
        <time>2024-04-01T07:56:12Z</time>
      </trkpt>
      <trkpt lat="50.01699" lon="4.31369">
        <ele>298.2</ele>
        <time>2024-04-01T07:56:13Z</time>
      </trkpt>
      <trkpt lat="50.01695" lon="4.31367">
        <ele>298.4</ele>
        <time>2024-04-01T07:56:14Z</time>
      </trkpt>
      <trkpt lat="50.01691" lon="4.31365">
        <ele>298.6</ele>
        <time>2024-04-01T07:56:15Z</time>
      </trkpt>
      <trkpt lat="50.01687" lon="4.31363">
        <ele>298.8</ele>
        <time>2024-04-01T07:56:16Z</time>
      </trkpt>
      <trkpt lat="50.01683" lon="4.31362">
        <ele>299</ele>
        <time>2024-04-01T07:56:17Z</time>
      </trkpt>
      <trkpt lat="50.01679" lon="4.3136">
        <ele>299</ele>
        <time>2024-04-01T07:56:18Z</time>
      </trkpt>
      <trkpt lat="50.01675" lon="4.31358">
        <ele>299.2</ele>
        <time>2024-04-01T07:56:19Z</time>
      </trkpt>
      <trkpt lat="50.01671" lon="4.31356">
        <ele>299</ele>
        <time>2024-04-01T07:56:20Z</time>
      </trkpt>
      <trkpt lat="50.01667" lon="4.31354">
        <ele>299.2</ele>
        <time>2024-04-01T07:56:21Z</time>
      </trkpt>
      <trkpt lat="50.01663" lon="4.31352">
        <ele>299.4</ele>
        <time>2024-04-01T07:56:22Z</time>
      </trkpt>
      <trkpt lat="50.01659" lon="4.31349">
        <ele>299.4</ele>
        <time>2024-04-01T07:56:23Z</time>
      </trkpt>
      <trkpt lat="50.01656" lon="4.31346">
        <ele>299.4</ele>
        <time>2024-04-01T07:56:24Z</time>
      </trkpt>
      <trkpt lat="50.01652" lon="4.31343">
        <ele>299.6</ele>
        <time>2024-04-01T07:56:25Z</time>
      </trkpt>
      <trkpt lat="50.01648" lon="4.3134">
        <ele>299.4</ele>
        <time>2024-04-01T07:56:26Z</time>
      </trkpt>
      <trkpt lat="50.01644" lon="4.31337">
        <ele>299.6</ele>
        <time>2024-04-01T07:56:27Z</time>
      </trkpt>
      <trkpt lat="50.01641" lon="4.31334">
        <ele>299.8</ele>
        <time>2024-04-01T07:56:28Z</time>
      </trkpt>
      <trkpt lat="50.01637" lon="4.31331">
        <ele>300</ele>
        <time>2024-04-01T07:56:29Z</time>
      </trkpt>
      <trkpt lat="50.01633" lon="4.31327">
        <ele>300.2</ele>
        <time>2024-04-01T07:56:30Z</time>
      </trkpt>
      <trkpt lat="50.0163" lon="4.31324">
        <ele>300.4</ele>
        <time>2024-04-01T07:56:31Z</time>
      </trkpt>
      <trkpt lat="50.01626" lon="4.3132">
        <ele>300.8</ele>
        <time>2024-04-01T07:56:32Z</time>
      </trkpt>
      <trkpt lat="50.01622" lon="4.31317">
        <ele>300.8</ele>
        <time>2024-04-01T07:56:33Z</time>
      </trkpt>
      <trkpt lat="50.01619" lon="4.31313">
        <ele>301</ele>
        <time>2024-04-01T07:56:34Z</time>
      </trkpt>
      <trkpt lat="50.01615" lon="4.31309">
        <ele>301.2</ele>
        <time>2024-04-01T07:56:35Z</time>
      </trkpt>
      <trkpt lat="50.01612" lon="4.31306">
        <ele>301.4</ele>
        <time>2024-04-01T07:56:36Z</time>
      </trkpt>
      <trkpt lat="50.01608" lon="4.31302">
        <ele>301.4</ele>
        <time>2024-04-01T07:56:37Z</time>
      </trkpt>
      <trkpt lat="50.01605" lon="4.31298">
        <ele>301.6</ele>
        <time>2024-04-01T07:56:38Z</time>
      </trkpt>
      <trkpt lat="50.01602" lon="4.31295">
        <ele>301.8</ele>
        <time>2024-04-01T07:56:39Z</time>
      </trkpt>
      <trkpt lat="50.01598" lon="4.31291">
        <ele>301.8</ele>
        <time>2024-04-01T07:56:40Z</time>
      </trkpt>
      <trkpt lat="50.01595" lon="4.31288">
        <ele>301.8</ele>
        <time>2024-04-01T07:56:41Z</time>
      </trkpt>
      <trkpt lat="50.01592" lon="4.31284">
        <ele>301.8</ele>
        <time>2024-04-01T07:56:42Z</time>
      </trkpt>
      <trkpt lat="50.01589" lon="4.31279">
        <ele>302</ele>
        <time>2024-04-01T07:56:43Z</time>
      </trkpt>
      <trkpt lat="50.01588" lon="4.31273">
        <ele>302</ele>
        <time>2024-04-01T07:56:44Z</time>
      </trkpt>
      <trkpt lat="50.01587" lon="4.31267">
        <ele>302.4</ele>
        <time>2024-04-01T07:56:45Z</time>
      </trkpt>
      <trkpt lat="50.01587" lon="4.31261">
        <ele>302.6</ele>
        <time>2024-04-01T07:56:46Z</time>
      </trkpt>
      <trkpt lat="50.01588" lon="4.31254">
        <ele>302.6</ele>
        <time>2024-04-01T07:56:47Z</time>
      </trkpt>
      <trkpt lat="50.01588" lon="4.31247">
        <ele>303</ele>
        <time>2024-04-01T07:56:48Z</time>
      </trkpt>
      <trkpt lat="50.01589" lon="4.3124">
        <ele>303.2</ele>
        <time>2024-04-01T07:56:49Z</time>
      </trkpt>
      <trkpt lat="50.0159" lon="4.31232">
        <ele>303.4</ele>
        <time>2024-04-01T07:56:50Z</time>
      </trkpt>
      <trkpt lat="50.01591" lon="4.31225">
        <ele>303.4</ele>
        <time>2024-04-01T07:56:51Z</time>
      </trkpt>
      <trkpt lat="50.01592" lon="4.31217">
        <ele>303.6</ele>
        <time>2024-04-01T07:56:52Z</time>
      </trkpt>
      <trkpt lat="50.01593" lon="4.3121">
        <ele>303.4</ele>
        <time>2024-04-01T07:56:53Z</time>
      </trkpt>
      <trkpt lat="50.01595" lon="4.31202">
        <ele>303.6</ele>
        <time>2024-04-01T07:56:54Z</time>
      </trkpt>
      <trkpt lat="50.01596" lon="4.31195">
        <ele>303.8</ele>
        <time>2024-04-01T07:56:55Z</time>
      </trkpt>
      <trkpt lat="50.01598" lon="4.31187">
        <ele>303.6</ele>
        <time>2024-04-01T07:56:56Z</time>
      </trkpt>
      <trkpt lat="50.01599" lon="4.31179">
        <ele>303.6</ele>
        <time>2024-04-01T07:56:57Z</time>
      </trkpt>
      <trkpt lat="50.01601" lon="4.31172">
        <ele>303.6</ele>
        <time>2024-04-01T07:56:58Z</time>
      </trkpt>
      <trkpt lat="50.01603" lon="4.31164">
        <ele>303.6</ele>
        <time>2024-04-01T07:56:59Z</time>
      </trkpt>
      <trkpt lat="50.01605" lon="4.31155">
        <ele>303.6</ele>
        <time>2024-04-01T07:57:00Z</time>
      </trkpt>
      <trkpt lat="50.01607" lon="4.31147">
        <ele>303.6</ele>
        <time>2024-04-01T07:57:01Z</time>
      </trkpt>
      <trkpt lat="50.01609" lon="4.31139">
        <ele>303.6</ele>
        <time>2024-04-01T07:57:02Z</time>
      </trkpt>
      <trkpt lat="50.01611" lon="4.31131">
        <ele>303.6</ele>
        <time>2024-04-01T07:57:03Z</time>
      </trkpt>
      <trkpt lat="50.01613" lon="4.31122">
        <ele>303.6</ele>
        <time>2024-04-01T07:57:04Z</time>
      </trkpt>
      <trkpt lat="50.01615" lon="4.31113">
        <ele>303.4</ele>
        <time>2024-04-01T07:57:05Z</time>
      </trkpt>
      <trkpt lat="50.01617" lon="4.31104">
        <ele>303.2</ele>
        <time>2024-04-01T07:57:06Z</time>
      </trkpt>
      <trkpt lat="50.01619" lon="4.31095">
        <ele>303.2</ele>
        <time>2024-04-01T07:57:07Z</time>
      </trkpt>
      <trkpt lat="50.01621" lon="4.31086">
        <ele>303</ele>
        <time>2024-04-01T07:57:08Z</time>
      </trkpt>
      <trkpt lat="50.01623" lon="4.31076">
        <ele>303</ele>
        <time>2024-04-01T07:57:09Z</time>
      </trkpt>
      <trkpt lat="50.01626" lon="4.31067">
        <ele>302.8</ele>
        <time>2024-04-01T07:57:10Z</time>
      </trkpt>
      <trkpt lat="50.01628" lon="4.31057">
        <ele>302.6</ele>
        <time>2024-04-01T07:57:11Z</time>
      </trkpt>
      <trkpt lat="50.01631" lon="4.31047">
        <ele>302.6</ele>
        <time>2024-04-01T07:57:12Z</time>
      </trkpt>
      <trkpt lat="50.01633" lon="4.31037">
        <ele>302</ele>
        <time>2024-04-01T07:57:13Z</time>
      </trkpt>
      <trkpt lat="50.01635" lon="4.31027">
        <ele>302</ele>
        <time>2024-04-01T07:57:14Z</time>
      </trkpt>
      <trkpt lat="50.01637" lon="4.31016">
        <ele>301.4</ele>
        <time>2024-04-01T07:57:15Z</time>
      </trkpt>
      <trkpt lat="50.0164" lon="4.31006">
        <ele>301.4</ele>
        <time>2024-04-01T07:57:16Z</time>
      </trkpt>
      <trkpt lat="50.01642" lon="4.30995">
        <ele>301.4</ele>
        <time>2024-04-01T07:57:17Z</time>
      </trkpt>
      <trkpt lat="50.01645" lon="4.30984">
        <ele>301.2</ele>
        <time>2024-04-01T07:57:18Z</time>
      </trkpt>
      <trkpt lat="50.01647" lon="4.30973">
        <ele>301.2</ele>
        <time>2024-04-01T07:57:19Z</time>
      </trkpt>
      <trkpt lat="50.01649" lon="4.30962">
        <ele>300.6</ele>
        <time>2024-04-01T07:57:20Z</time>
      </trkpt>
      <trkpt lat="50.01652" lon="4.30951">
        <ele>300</ele>
        <time>2024-04-01T07:57:21Z</time>
      </trkpt>
      <trkpt lat="50.01654" lon="4.30941">
        <ele>299.6</ele>
        <time>2024-04-01T07:57:22Z</time>
      </trkpt>
      <trkpt lat="50.01656" lon="4.30929">
        <ele>299.2</ele>
        <time>2024-04-01T07:57:23Z</time>
      </trkpt>
      <trkpt lat="50.01658" lon="4.30918">
        <ele>299.2</ele>
        <time>2024-04-01T07:57:24Z</time>
      </trkpt>
      <trkpt lat="50.0166" lon="4.30907">
        <ele>298.8</ele>
        <time>2024-04-01T07:57:25Z</time>
      </trkpt>
      <trkpt lat="50.01663" lon="4.30897">
        <ele>298.8</ele>
        <time>2024-04-01T07:57:26Z</time>
      </trkpt>
      <trkpt lat="50.01665" lon="4.30885">
        <ele>298.6</ele>
        <time>2024-04-01T07:57:27Z</time>
      </trkpt>
      <trkpt lat="50.01667" lon="4.30874">
        <ele>298.6</ele>
        <time>2024-04-01T07:57:28Z</time>
      </trkpt>
      <trkpt lat="50.0167" lon="4.30863">
        <ele>298.2</ele>
        <time>2024-04-01T07:57:29Z</time>
      </trkpt>
      <trkpt lat="50.01672" lon="4.30852">
        <ele>298.2</ele>
        <time>2024-04-01T07:57:30Z</time>
      </trkpt>
      <trkpt lat="50.01675" lon="4.30841">
        <ele>297.8</ele>
        <time>2024-04-01T07:57:31Z</time>
      </trkpt>
      <trkpt lat="50.01677" lon="4.3083">
        <ele>297.8</ele>
        <time>2024-04-01T07:57:32Z</time>
      </trkpt>
      <trkpt lat="50.0168" lon="4.30819">
        <ele>297.4</ele>
        <time>2024-04-01T07:57:33Z</time>
      </trkpt>
      <trkpt lat="50.01682" lon="4.30808">
        <ele>297</ele>
        <time>2024-04-01T07:57:34Z</time>
      </trkpt>
      <trkpt lat="50.01685" lon="4.30797">
        <ele>296.8</ele>
        <time>2024-04-01T07:57:35Z</time>
      </trkpt>
      <trkpt lat="50.01687" lon="4.30787">
        <ele>296.8</ele>
        <time>2024-04-01T07:57:36Z</time>
      </trkpt>
      <trkpt lat="50.01689" lon="4.30776">
        <ele>296.8</ele>
        <time>2024-04-01T07:57:37Z</time>
      </trkpt>
      <trkpt lat="50.01692" lon="4.30766">
        <ele>296.6</ele>
        <time>2024-04-01T07:57:38Z</time>
      </trkpt>
      <trkpt lat="50.01694" lon="4.30756">
        <ele>296.6</ele>
        <time>2024-04-01T07:57:39Z</time>
      </trkpt>
      <trkpt lat="50.01696" lon="4.30745">
        <ele>296.6</ele>
        <time>2024-04-01T07:57:40Z</time>
      </trkpt>
      <trkpt lat="50.01698" lon="4.30735">
        <ele>296.6</ele>
        <time>2024-04-01T07:57:41Z</time>
      </trkpt>
      <trkpt lat="50.017" lon="4.30726">
        <ele>296.8</ele>
        <time>2024-04-01T07:57:42Z</time>
      </trkpt>
      <trkpt lat="50.01702" lon="4.30716">
        <ele>296.6</ele>
        <time>2024-04-01T07:57:43Z</time>
      </trkpt>
      <trkpt lat="50.01704" lon="4.30706">
        <ele>296.6</ele>
        <time>2024-04-01T07:57:44Z</time>
      </trkpt>
      <trkpt lat="50.01706" lon="4.30697">
        <ele>296.6</ele>
        <time>2024-04-01T07:57:45Z</time>
      </trkpt>
      <trkpt lat="50.01708" lon="4.30687">
        <ele>296.8</ele>
        <time>2024-04-01T07:57:46Z</time>
      </trkpt>
      <trkpt lat="50.01709" lon="4.30678">
        <ele>297</ele>
        <time>2024-04-01T07:57:47Z</time>
      </trkpt>
      <trkpt lat="50.01711" lon="4.30669">
        <ele>297</ele>
        <time>2024-04-01T07:57:48Z</time>
      </trkpt>
      <trkpt lat="50.01713" lon="4.3066">
        <ele>297</ele>
        <time>2024-04-01T07:57:49Z</time>
      </trkpt>
      <trkpt lat="50.01715" lon="4.30651">
        <ele>297</ele>
        <time>2024-04-01T07:57:50Z</time>
      </trkpt>
      <trkpt lat="50.01717" lon="4.30641">
        <ele>297.2</ele>
        <time>2024-04-01T07:57:51Z</time>
      </trkpt>
      <trkpt lat="50.01718" lon="4.30632">
        <ele>297.6</ele>
        <time>2024-04-01T07:57:52Z</time>
      </trkpt>
      <trkpt lat="50.0172" lon="4.30623">
        <ele>297.6</ele>
        <time>2024-04-01T07:57:53Z</time>
      </trkpt>
      <trkpt lat="50.01723" lon="4.30615">
        <ele>297.8</ele>
        <time>2024-04-01T07:57:54Z</time>
      </trkpt>
      <trkpt lat="50.01724" lon="4.30606">
        <ele>297.8</ele>
        <time>2024-04-01T07:57:55Z</time>
      </trkpt>
      <trkpt lat="50.01726" lon="4.30597">
        <ele>297.8</ele>
        <time>2024-04-01T07:57:56Z</time>
      </trkpt>
      <trkpt lat="50.01728" lon="4.30589">
        <ele>297.8</ele>
        <time>2024-04-01T07:57:57Z</time>
      </trkpt>
      <trkpt lat="50.0173" lon="4.3058">
        <ele>298</ele>
        <time>2024-04-01T07:57:58Z</time>
      </trkpt>
      <trkpt lat="50.01732" lon="4.30572">
        <ele>298.2</ele>
        <time>2024-04-01T07:57:59Z</time>
      </trkpt>
      <trkpt lat="50.01734" lon="4.30564">
        <ele>298.4</ele>
        <time>2024-04-01T07:58:00Z</time>
      </trkpt>
      <trkpt lat="50.01735" lon="4.30556">
        <ele>298.6</ele>
        <time>2024-04-01T07:58:01Z</time>
      </trkpt>
      <trkpt lat="50.01737" lon="4.30547">
        <ele>298.6</ele>
        <time>2024-04-01T07:58:02Z</time>
      </trkpt>
      <trkpt lat="50.01739" lon="4.30539">
        <ele>298.8</ele>
        <time>2024-04-01T07:58:03Z</time>
      </trkpt>
      <trkpt lat="50.01741" lon="4.30531">
        <ele>298.8</ele>
        <time>2024-04-01T07:58:04Z</time>
      </trkpt>
      <trkpt lat="50.01743" lon="4.30523">
        <ele>299</ele>
        <time>2024-04-01T07:58:05Z</time>
      </trkpt>
      <trkpt lat="50.01745" lon="4.30515">
        <ele>299.4</ele>
        <time>2024-04-01T07:58:06Z</time>
      </trkpt>
      <trkpt lat="50.01746" lon="4.30507">
        <ele>299.4</ele>
        <time>2024-04-01T07:58:07Z</time>
      </trkpt>
      <trkpt lat="50.01748" lon="4.30499">
        <ele>299.4</ele>
        <time>2024-04-01T07:58:08Z</time>
      </trkpt>
      <trkpt lat="50.01749" lon="4.30491">
        <ele>299.6</ele>
        <time>2024-04-01T07:58:09Z</time>
      </trkpt>
      <trkpt lat="50.01751" lon="4.30483">
        <ele>299.4</ele>
        <time>2024-04-01T07:58:10Z</time>
      </trkpt>
      <trkpt lat="50.01753" lon="4.30475">
        <ele>299.6</ele>
        <time>2024-04-01T07:58:11Z</time>
      </trkpt>
      <trkpt lat="50.01754" lon="4.30467">
        <ele>299.8</ele>
        <time>2024-04-01T07:58:12Z</time>
      </trkpt>
      <trkpt lat="50.01756" lon="4.30459">
        <ele>300</ele>
        <time>2024-04-01T07:58:13Z</time>
      </trkpt>
      <trkpt lat="50.01758" lon="4.30451">
        <ele>300</ele>
        <time>2024-04-01T07:58:14Z</time>
      </trkpt>
      <trkpt lat="50.0176" lon="4.30443">
        <ele>300.2</ele>
        <time>2024-04-01T07:58:15Z</time>
      </trkpt>
      <trkpt lat="50.01761" lon="4.30435">
        <ele>300.4</ele>
        <time>2024-04-01T07:58:16Z</time>
      </trkpt>
      <trkpt lat="50.01763" lon="4.30427">
        <ele>300.6</ele>
        <time>2024-04-01T07:58:17Z</time>
      </trkpt>
      <trkpt lat="50.01764" lon="4.30419">
        <ele>300.6</ele>
        <time>2024-04-01T07:58:18Z</time>
      </trkpt>
      <trkpt lat="50.01765" lon="4.30411">
        <ele>300.6</ele>
        <time>2024-04-01T07:58:19Z</time>
      </trkpt>
      <trkpt lat="50.01765" lon="4.30402">
        <ele>300.8</ele>
        <time>2024-04-01T07:58:20Z</time>
      </trkpt>
      <trkpt lat="50.01765" lon="4.30394">
        <ele>300.8</ele>
        <time>2024-04-01T07:58:21Z</time>
      </trkpt>
      <trkpt lat="50.01764" lon="4.30386">
        <ele>300.8</ele>
        <time>2024-04-01T07:58:22Z</time>
      </trkpt>
      <trkpt lat="50.01762" lon="4.30378">
        <ele>301</ele>
        <time>2024-04-01T07:58:23Z</time>
      </trkpt>
      <trkpt lat="50.0176" lon="4.3037">
        <ele>301</ele>
        <time>2024-04-01T07:58:24Z</time>
      </trkpt>
      <trkpt lat="50.01758" lon="4.30362">
        <ele>301.2</ele>
        <time>2024-04-01T07:58:25Z</time>
      </trkpt>
      <trkpt lat="50.01756" lon="4.30354">
        <ele>301.2</ele>
        <time>2024-04-01T07:58:26Z</time>
      </trkpt>
      <trkpt lat="50.01754" lon="4.30346">
        <ele>301.2</ele>
        <time>2024-04-01T07:58:27Z</time>
      </trkpt>
      <trkpt lat="50.01751" lon="4.30338">
        <ele>301.2</ele>
        <time>2024-04-01T07:58:28Z</time>
      </trkpt>
      <trkpt lat="50.01749" lon="4.3033">
        <ele>301.4</ele>
        <time>2024-04-01T07:58:29Z</time>
      </trkpt>
      <trkpt lat="50.01747" lon="4.30323">
        <ele>301.6</ele>
        <time>2024-04-01T07:58:30Z</time>
      </trkpt>
      <trkpt lat="50.01745" lon="4.30315">
        <ele>301.8</ele>
        <time>2024-04-01T07:58:31Z</time>
      </trkpt>
      <trkpt lat="50.01743" lon="4.30306">
        <ele>302</ele>
        <time>2024-04-01T07:58:32Z</time>
      </trkpt>
      <trkpt lat="50.01741" lon="4.30298">
        <ele>302</ele>
        <time>2024-04-01T07:58:33Z</time>
      </trkpt>
      <trkpt lat="50.0174" lon="4.3029">
        <ele>302.2</ele>
        <time>2024-04-01T07:58:34Z</time>
      </trkpt>
      <trkpt lat="50.01738" lon="4.30282">
        <ele>302.4</ele>
        <time>2024-04-01T07:58:35Z</time>
      </trkpt>
      <trkpt lat="50.01737" lon="4.30274">
        <ele>302.6</ele>
        <time>2024-04-01T07:58:36Z</time>
      </trkpt>
      <trkpt lat="50.01735" lon="4.30266">
        <ele>302.6</ele>
        <time>2024-04-01T07:58:37Z</time>
      </trkpt>
      <trkpt lat="50.01734" lon="4.30258">
        <ele>302.4</ele>
        <time>2024-04-01T07:58:38Z</time>
      </trkpt>
      <trkpt lat="50.01733" lon="4.3025">
        <ele>302.6</ele>
        <time>2024-04-01T07:58:39Z</time>
      </trkpt>
      <trkpt lat="50.01731" lon="4.30243">
        <ele>302.8</ele>
        <time>2024-04-01T07:58:40Z</time>
      </trkpt>
      <trkpt lat="50.01729" lon="4.30234">
        <ele>302.8</ele>
        <time>2024-04-01T07:58:41Z</time>
      </trkpt>
      <trkpt lat="50.01727" lon="4.30226">
        <ele>303</ele>
        <time>2024-04-01T07:58:42Z</time>
      </trkpt>
      <trkpt lat="50.01725" lon="4.30218">
        <ele>303</ele>
        <time>2024-04-01T07:58:43Z</time>
      </trkpt>
      <trkpt lat="50.01723" lon="4.3021">
        <ele>303</ele>
        <time>2024-04-01T07:58:44Z</time>
      </trkpt>
      <trkpt lat="50.01721" lon="4.30202">
        <ele>303</ele>
        <time>2024-04-01T07:58:45Z</time>
      </trkpt>
      <trkpt lat="50.01719" lon="4.30193">
        <ele>303</ele>
        <time>2024-04-01T07:58:46Z</time>
      </trkpt>
      <trkpt lat="50.01717" lon="4.30185">
        <ele>303.2</ele>
        <time>2024-04-01T07:58:47Z</time>
      </trkpt>
      <trkpt lat="50.01715" lon="4.30177">
        <ele>303.2</ele>
        <time>2024-04-01T07:58:48Z</time>
      </trkpt>
      <trkpt lat="50.01714" lon="4.30168">
        <ele>303</ele>
        <time>2024-04-01T07:58:49Z</time>
      </trkpt>
      <trkpt lat="50.01712" lon="4.3016">
        <ele>303</ele>
        <time>2024-04-01T07:58:50Z</time>
      </trkpt>
      <trkpt lat="50.0171" lon="4.30151">
        <ele>303</ele>
        <time>2024-04-01T07:58:51Z</time>
      </trkpt>
      <trkpt lat="50.01708" lon="4.30143">
        <ele>303</ele>
        <time>2024-04-01T07:58:52Z</time>
      </trkpt>
      <trkpt lat="50.01707" lon="4.30134">
        <ele>303.2</ele>
        <time>2024-04-01T07:58:53Z</time>
      </trkpt>
      <trkpt lat="50.01705" lon="4.30125">
        <ele>303.2</ele>
        <time>2024-04-01T07:58:54Z</time>
      </trkpt>
      <trkpt lat="50.01703" lon="4.30117">
        <ele>303</ele>
        <time>2024-04-01T07:58:55Z</time>
      </trkpt>
      <trkpt lat="50.01702" lon="4.30108">
        <ele>303.2</ele>
        <time>2024-04-01T07:58:56Z</time>
      </trkpt>
      <trkpt lat="50.017" lon="4.30099">
        <ele>303</ele>
        <time>2024-04-01T07:58:57Z</time>
      </trkpt>
      <trkpt lat="50.01699" lon="4.30091">
        <ele>303</ele>
        <time>2024-04-01T07:58:58Z</time>
      </trkpt>
      <trkpt lat="50.01697" lon="4.30082">
        <ele>303</ele>
        <time>2024-04-01T07:58:59Z</time>
      </trkpt>
      <trkpt lat="50.01696" lon="4.30073">
        <ele>303</ele>
        <time>2024-04-01T07:59:00Z</time>
      </trkpt>
      <trkpt lat="50.01694" lon="4.30064">
        <ele>303</ele>
        <time>2024-04-01T07:59:01Z</time>
      </trkpt>
      <trkpt lat="50.01693" lon="4.30056">
        <ele>303</ele>
        <time>2024-04-01T07:59:02Z</time>
      </trkpt>
      <trkpt lat="50.01691" lon="4.30048">
        <ele>302.8</ele>
        <time>2024-04-01T07:59:03Z</time>
      </trkpt>
      <trkpt lat="50.01689" lon="4.30039">
        <ele>303</ele>
        <time>2024-04-01T07:59:04Z</time>
      </trkpt>
      <trkpt lat="50.01687" lon="4.30031">
        <ele>303</ele>
        <time>2024-04-01T07:59:05Z</time>
      </trkpt>
      <trkpt lat="50.01685" lon="4.30022">
        <ele>303</ele>
        <time>2024-04-01T07:59:06Z</time>
      </trkpt>
      <trkpt lat="50.01683" lon="4.30014">
        <ele>303</ele>
        <time>2024-04-01T07:59:07Z</time>
      </trkpt>
      <trkpt lat="50.01681" lon="4.30005">
        <ele>303</ele>
        <time>2024-04-01T07:59:08Z</time>
      </trkpt>
      <trkpt lat="50.01679" lon="4.29997">
        <ele>302.8</ele>
        <time>2024-04-01T07:59:09Z</time>
      </trkpt>
      <trkpt lat="50.01677" lon="4.29988">
        <ele>302.8</ele>
        <time>2024-04-01T07:59:10Z</time>
      </trkpt>
      <trkpt lat="50.01675" lon="4.29979">
        <ele>302.8</ele>
        <time>2024-04-01T07:59:11Z</time>
      </trkpt>
      <trkpt lat="50.01673" lon="4.2997">
        <ele>302.8</ele>
        <time>2024-04-01T07:59:12Z</time>
      </trkpt>
      <trkpt lat="50.01671" lon="4.29961">
        <ele>302.8</ele>
        <time>2024-04-01T07:59:13Z</time>
      </trkpt>
      <trkpt lat="50.01669" lon="4.29951">
        <ele>302.4</ele>
        <time>2024-04-01T07:59:14Z</time>
      </trkpt>
      <trkpt lat="50.01667" lon="4.29942">
        <ele>302.6</ele>
        <time>2024-04-01T07:59:15Z</time>
      </trkpt>
      <trkpt lat="50.01665" lon="4.29933">
        <ele>302.6</ele>
        <time>2024-04-01T07:59:16Z</time>
      </trkpt>
      <trkpt lat="50.01663" lon="4.29924">
        <ele>302.6</ele>
        <time>2024-04-01T07:59:17Z</time>
      </trkpt>
      <trkpt lat="50.0166" lon="4.29914">
        <ele>302.6</ele>
        <time>2024-04-01T07:59:18Z</time>
      </trkpt>
      <trkpt lat="50.01658" lon="4.29905">
        <ele>302.4</ele>
        <time>2024-04-01T07:59:19Z</time>
      </trkpt>
      <trkpt lat="50.01656" lon="4.29895">
        <ele>302.4</ele>
        <time>2024-04-01T07:59:20Z</time>
      </trkpt>
      <trkpt lat="50.01654" lon="4.29886">
        <ele>302.4</ele>
        <time>2024-04-01T07:59:21Z</time>
      </trkpt>
      <trkpt lat="50.01653" lon="4.29877">
        <ele>302.4</ele>
        <time>2024-04-01T07:59:22Z</time>
      </trkpt>
      <trkpt lat="50.0165" lon="4.29867">
        <ele>302.2</ele>
        <time>2024-04-01T07:59:23Z</time>
      </trkpt>
      <trkpt lat="50.01649" lon="4.29857">
        <ele>302.2</ele>
        <time>2024-04-01T07:59:24Z</time>
      </trkpt>
      <trkpt lat="50.01646" lon="4.29847">
        <ele>302.2</ele>
        <time>2024-04-01T07:59:25Z</time>
      </trkpt>
      <trkpt lat="50.01644" lon="4.29837">
        <ele>302</ele>
        <time>2024-04-01T07:59:26Z</time>
      </trkpt>
      <trkpt lat="50.01642" lon="4.29828">
        <ele>301.8</ele>
        <time>2024-04-01T07:59:27Z</time>
      </trkpt>
      <trkpt lat="50.0164" lon="4.29818">
        <ele>301.8</ele>
        <time>2024-04-01T07:59:28Z</time>
      </trkpt>
      <trkpt lat="50.01638" lon="4.29808">
        <ele>301.6</ele>
        <time>2024-04-01T07:59:29Z</time>
      </trkpt>
      <trkpt lat="50.01636" lon="4.29798">
        <ele>301.4</ele>
        <time>2024-04-01T07:59:30Z</time>
      </trkpt>
      <trkpt lat="50.01634" lon="4.29788">
        <ele>301.4</ele>
        <time>2024-04-01T07:59:31Z</time>
      </trkpt>
      <trkpt lat="50.01631" lon="4.29779">
        <ele>301.2</ele>
        <time>2024-04-01T07:59:32Z</time>
      </trkpt>
      <trkpt lat="50.01629" lon="4.29769">
        <ele>301.2</ele>
        <time>2024-04-01T07:59:33Z</time>
      </trkpt>
      <trkpt lat="50.01627" lon="4.29759">
        <ele>301.2</ele>
        <time>2024-04-01T07:59:34Z</time>
      </trkpt>
      <trkpt lat="50.01625" lon="4.2975">
        <ele>301.2</ele>
        <time>2024-04-01T07:59:35Z</time>
      </trkpt>
      <trkpt lat="50.01623" lon="4.2974">
        <ele>301.2</ele>
        <time>2024-04-01T07:59:36Z</time>
      </trkpt>
      <trkpt lat="50.0162" lon="4.2973">
        <ele>301.2</ele>
        <time>2024-04-01T07:59:37Z</time>
      </trkpt>
      <trkpt lat="50.01618" lon="4.2972">
        <ele>301</ele>
        <time>2024-04-01T07:59:38Z</time>
      </trkpt>
      <trkpt lat="50.01616" lon="4.2971">
        <ele>301</ele>
        <time>2024-04-01T07:59:39Z</time>
      </trkpt>
      <trkpt lat="50.01614" lon="4.29701">
        <ele>301</ele>
        <time>2024-04-01T07:59:40Z</time>
      </trkpt>
      <trkpt lat="50.01611" lon="4.29691">
        <ele>301</ele>
        <time>2024-04-01T07:59:41Z</time>
      </trkpt>
      <trkpt lat="50.01609" lon="4.29681">
        <ele>301.2</ele>
        <time>2024-04-01T07:59:42Z</time>
      </trkpt>
      <trkpt lat="50.01607" lon="4.29671">
        <ele>301.2</ele>
        <time>2024-04-01T07:59:43Z</time>
      </trkpt>
      <trkpt lat="50.01605" lon="4.29661">
        <ele>301</ele>
        <time>2024-04-01T07:59:44Z</time>
      </trkpt>
      <trkpt lat="50.01602" lon="4.29652">
        <ele>301</ele>
        <time>2024-04-01T07:59:45Z</time>
      </trkpt>
      <trkpt lat="50.016" lon="4.29642">
        <ele>301</ele>
        <time>2024-04-01T07:59:46Z</time>
      </trkpt>
      <trkpt lat="50.01599" lon="4.29632">
        <ele>300.8</ele>
        <time>2024-04-01T07:59:47Z</time>
      </trkpt>
      <trkpt lat="50.01597" lon="4.29622">
        <ele>300.8</ele>
        <time>2024-04-01T07:59:48Z</time>
      </trkpt>
      <trkpt lat="50.01595" lon="4.29613">
        <ele>300.6</ele>
        <time>2024-04-01T07:59:49Z</time>
      </trkpt>
      <trkpt lat="50.01593" lon="4.29602">
        <ele>300.8</ele>
        <time>2024-04-01T07:59:50Z</time>
      </trkpt>
      <trkpt lat="50.01591" lon="4.29592">
        <ele>300.6</ele>
        <time>2024-04-01T07:59:51Z</time>
      </trkpt>
      <trkpt lat="50.01589" lon="4.29581">
        <ele>300.6</ele>
        <time>2024-04-01T07:59:52Z</time>
      </trkpt>
      <trkpt lat="50.01587" lon="4.29571">
        <ele>300.6</ele>
        <time>2024-04-01T07:59:53Z</time>
      </trkpt>
      <trkpt lat="50.01585" lon="4.2956">
        <ele>300.6</ele>
        <time>2024-04-01T07:59:54Z</time>
      </trkpt>
      <trkpt lat="50.01582" lon="4.2955">
        <ele>300.6</ele>
        <time>2024-04-01T07:59:55Z</time>
      </trkpt>
      <trkpt lat="50.0158" lon="4.29539">
        <ele>300.8</ele>
        <time>2024-04-01T07:59:56Z</time>
      </trkpt>
      <trkpt lat="50.01578" lon="4.29529">
        <ele>300.6</ele>
        <time>2024-04-01T07:59:57Z</time>
      </trkpt>
      <trkpt lat="50.01576" lon="4.29518">
        <ele>300.6</ele>
        <time>2024-04-01T07:59:58Z</time>
      </trkpt>
      <trkpt lat="50.01574" lon="4.29508">
        <ele>300.6</ele>
        <time>2024-04-01T07:59:59Z</time>
      </trkpt>
      <trkpt lat="50.01572" lon="4.29497">
        <ele>300.6</ele>
        <time>2024-04-01T08:00:00Z</time>
      </trkpt>
      <trkpt lat="50.0157" lon="4.29487">
        <ele>300.6</ele>
        <time>2024-04-01T08:00:01Z</time>
      </trkpt>
      <trkpt lat="50.01568" lon="4.29477">
        <ele>300.6</ele>
        <time>2024-04-01T08:00:02Z</time>
      </trkpt>
      <trkpt lat="50.01566" lon="4.29466">
        <ele>300.6</ele>
        <time>2024-04-01T08:00:03Z</time>
      </trkpt>
      <trkpt lat="50.01564" lon="4.29456">
        <ele>300.6</ele>
        <time>2024-04-01T08:00:04Z</time>
      </trkpt>
      <trkpt lat="50.01562" lon="4.29446">
        <ele>300.4</ele>
        <time>2024-04-01T08:00:05Z</time>
      </trkpt>
      <trkpt lat="50.01559" lon="4.29436">
        <ele>300.4</ele>
        <time>2024-04-01T08:00:06Z</time>
      </trkpt>
      <trkpt lat="50.01557" lon="4.29426">
        <ele>300.2</ele>
        <time>2024-04-01T08:00:07Z</time>
      </trkpt>
      <trkpt lat="50.01554" lon="4.29415">
        <ele>300.2</ele>
        <time>2024-04-01T08:00:08Z</time>
      </trkpt>
      <trkpt lat="50.01551" lon="4.29405">
        <ele>300.2</ele>
        <time>2024-04-01T08:00:09Z</time>
      </trkpt>
      <trkpt lat="50.01549" lon="4.29395">
        <ele>300.2</ele>
        <time>2024-04-01T08:00:10Z</time>
      </trkpt>
      <trkpt lat="50.01547" lon="4.29385">
        <ele>300.2</ele>
        <time>2024-04-01T08:00:11Z</time>
      </trkpt>
      <trkpt lat="50.01544" lon="4.29375">
        <ele>300.2</ele>
        <time>2024-04-01T08:00:12Z</time>
      </trkpt>
      <trkpt lat="50.01542" lon="4.29365">
        <ele>299.6</ele>
        <time>2024-04-01T08:00:13Z</time>
      </trkpt>
      <trkpt lat="50.0154" lon="4.29355">
        <ele>299.8</ele>
        <time>2024-04-01T08:00:14Z</time>
      </trkpt>
      <trkpt lat="50.01538" lon="4.29345">
        <ele>299.4</ele>
        <time>2024-04-01T08:00:15Z</time>
      </trkpt>
      <trkpt lat="50.01537" lon="4.29335">
        <ele>299.6</ele>
        <time>2024-04-01T08:00:16Z</time>
      </trkpt>
      <trkpt lat="50.01535" lon="4.29325">
        <ele>299.4</ele>
        <time>2024-04-01T08:00:17Z</time>
      </trkpt>
      <trkpt lat="50.01533" lon="4.29315">
        <ele>299.6</ele>
        <time>2024-04-01T08:00:18Z</time>
      </trkpt>
      <trkpt lat="50.01531" lon="4.29305">
        <ele>299.4</ele>
        <time>2024-04-01T08:00:19Z</time>
      </trkpt>
      <trkpt lat="50.01529" lon="4.29295">
        <ele>299.2</ele>
        <time>2024-04-01T08:00:20Z</time>
      </trkpt>
      <trkpt lat="50.01527" lon="4.29284">
        <ele>299.2</ele>
        <time>2024-04-01T08:00:21Z</time>
      </trkpt>
      <trkpt lat="50.01525" lon="4.29274">
        <ele>299</ele>
        <time>2024-04-01T08:00:22Z</time>
      </trkpt>
      <trkpt lat="50.01522" lon="4.29264">
        <ele>299</ele>
        <time>2024-04-01T08:00:23Z</time>
      </trkpt>
      <trkpt lat="50.0152" lon="4.29254">
        <ele>299</ele>
        <time>2024-04-01T08:00:24Z</time>
      </trkpt>
      <trkpt lat="50.01518" lon="4.29244">
        <ele>299</ele>
        <time>2024-04-01T08:00:25Z</time>
      </trkpt>
      <trkpt lat="50.01516" lon="4.29234">
        <ele>299</ele>
        <time>2024-04-01T08:00:26Z</time>
      </trkpt>
      <trkpt lat="50.01514" lon="4.29223">
        <ele>298.8</ele>
        <time>2024-04-01T08:00:27Z</time>
      </trkpt>
      <trkpt lat="50.01512" lon="4.29213">
        <ele>298.8</ele>
        <time>2024-04-01T08:00:28Z</time>
      </trkpt>
      <trkpt lat="50.0151" lon="4.29203">
        <ele>298.6</ele>
        <time>2024-04-01T08:00:29Z</time>
      </trkpt>
      <trkpt lat="50.01508" lon="4.29193">
        <ele>298.8</ele>
        <time>2024-04-01T08:00:30Z</time>
      </trkpt>
      <trkpt lat="50.01506" lon="4.29183">
        <ele>298.6</ele>
        <time>2024-04-01T08:00:31Z</time>
      </trkpt>
      <trkpt lat="50.01504" lon="4.29173">
        <ele>298.6</ele>
        <time>2024-04-01T08:00:32Z</time>
      </trkpt>
      <trkpt lat="50.01502" lon="4.29163">
        <ele>298.6</ele>
        <time>2024-04-01T08:00:33Z</time>
      </trkpt>
      <trkpt lat="50.015" lon="4.29153">
        <ele>298.8</ele>
        <time>2024-04-01T08:00:34Z</time>
      </trkpt>
      <trkpt lat="50.01499" lon="4.29143">
        <ele>298.6</ele>
        <time>2024-04-01T08:00:35Z</time>
      </trkpt>
      <trkpt lat="50.01496" lon="4.29133">
        <ele>298.6</ele>
        <time>2024-04-01T08:00:36Z</time>
      </trkpt>
      <trkpt lat="50.01494" lon="4.29123">
        <ele>298.6</ele>
        <time>2024-04-01T08:00:37Z</time>
      </trkpt>
      <trkpt lat="50.01491" lon="4.29113">
        <ele>298.4</ele>
        <time>2024-04-01T08:00:38Z</time>
      </trkpt>
      <trkpt lat="50.01489" lon="4.29103">
        <ele>298.4</ele>
        <time>2024-04-01T08:00:39Z</time>
      </trkpt>
      <trkpt lat="50.01487" lon="4.29093">
        <ele>298.4</ele>
        <time>2024-04-01T08:00:40Z</time>
      </trkpt>
      <trkpt lat="50.01485" lon="4.29083">
        <ele>298.4</ele>
        <time>2024-04-01T08:00:41Z</time>
      </trkpt>
      <trkpt lat="50.01482" lon="4.29073">
        <ele>298.4</ele>
        <time>2024-04-01T08:00:42Z</time>
      </trkpt>
      <trkpt lat="50.0148" lon="4.29063">
        <ele>298.2</ele>
        <time>2024-04-01T08:00:43Z</time>
      </trkpt>
      <trkpt lat="50.01478" lon="4.29053">
        <ele>298</ele>
        <time>2024-04-01T08:00:44Z</time>
      </trkpt>
      <trkpt lat="50.01476" lon="4.29043">
        <ele>297.8</ele>
        <time>2024-04-01T08:00:45Z</time>
      </trkpt>
      <trkpt lat="50.01473" lon="4.29033">
        <ele>297.4</ele>
        <time>2024-04-01T08:00:46Z</time>
      </trkpt>
      <trkpt lat="50.01471" lon="4.29023">
        <ele>296.6</ele>
        <time>2024-04-01T08:00:47Z</time>
      </trkpt>
      <trkpt lat="50.01469" lon="4.29013">
        <ele>296.2</ele>
        <time>2024-04-01T08:00:48Z</time>
      </trkpt>
      <trkpt lat="50.01467" lon="4.29004">
        <ele>296.2</ele>
        <time>2024-04-01T08:00:49Z</time>
      </trkpt>
      <trkpt lat="50.01466" lon="4.28994">
        <ele>296</ele>
        <time>2024-04-01T08:00:50Z</time>
      </trkpt>
      <trkpt lat="50.01463" lon="4.28984">
        <ele>296</ele>
        <time>2024-04-01T08:00:51Z</time>
      </trkpt>
      <trkpt lat="50.01461" lon="4.28974">
        <ele>295.8</ele>
        <time>2024-04-01T08:00:52Z</time>
      </trkpt>
      <trkpt lat="50.01459" lon="4.28964">
        <ele>295.8</ele>
        <time>2024-04-01T08:00:53Z</time>
      </trkpt>
      <trkpt lat="50.01457" lon="4.28954">
        <ele>295.8</ele>
        <time>2024-04-01T08:00:54Z</time>
      </trkpt>
      <trkpt lat="50.01455" lon="4.28944">
        <ele>296</ele>
        <time>2024-04-01T08:00:55Z</time>
      </trkpt>
      <trkpt lat="50.01453" lon="4.28934">
        <ele>296</ele>
        <time>2024-04-01T08:00:56Z</time>
      </trkpt>
      <trkpt lat="50.01451" lon="4.28924">
        <ele>296</ele>
        <time>2024-04-01T08:00:57Z</time>
      </trkpt>
      <trkpt lat="50.01448" lon="4.28914">
        <ele>296</ele>
        <time>2024-04-01T08:00:58Z</time>
      </trkpt>
      <trkpt lat="50.01447" lon="4.28904">
        <ele>296</ele>
        <time>2024-04-01T08:00:59Z</time>
      </trkpt>
      <trkpt lat="50.01445" lon="4.28894">
        <ele>296.2</ele>
        <time>2024-04-01T08:01:00Z</time>
      </trkpt>
      <trkpt lat="50.01443" lon="4.28884">
        <ele>296.2</ele>
        <time>2024-04-01T08:01:01Z</time>
      </trkpt>
      <trkpt lat="50.0144" lon="4.28874">
        <ele>296.4</ele>
        <time>2024-04-01T08:01:02Z</time>
      </trkpt>
      <trkpt lat="50.01438" lon="4.28864">
        <ele>296.2</ele>
        <time>2024-04-01T08:01:03Z</time>
      </trkpt>
      <trkpt lat="50.01436" lon="4.28854">
        <ele>296.4</ele>
        <time>2024-04-01T08:01:04Z</time>
      </trkpt>
      <trkpt lat="50.01433" lon="4.28844">
        <ele>296.4</ele>
        <time>2024-04-01T08:01:05Z</time>
      </trkpt>
      <trkpt lat="50.01431" lon="4.28834">
        <ele>296.4</ele>
        <time>2024-04-01T08:01:06Z</time>
      </trkpt>
      <trkpt lat="50.01429" lon="4.28825">
        <ele>296.4</ele>
        <time>2024-04-01T08:01:07Z</time>
      </trkpt>
      <trkpt lat="50.01427" lon="4.28815">
        <ele>296.4</ele>
        <time>2024-04-01T08:01:08Z</time>
      </trkpt>
      <trkpt lat="50.01425" lon="4.28805">
        <ele>296.6</ele>
        <time>2024-04-01T08:01:09Z</time>
      </trkpt>
      <trkpt lat="50.01423" lon="4.28795">
        <ele>296.6</ele>
        <time>2024-04-01T08:01:10Z</time>
      </trkpt>
      <trkpt lat="50.0142" lon="4.28785">
        <ele>296.6</ele>
        <time>2024-04-01T08:01:11Z</time>
      </trkpt>
      <trkpt lat="50.01418" lon="4.28775">
        <ele>296.4</ele>
        <time>2024-04-01T08:01:12Z</time>
      </trkpt>
      <trkpt lat="50.01415" lon="4.28766">
        <ele>296.4</ele>
        <time>2024-04-01T08:01:13Z</time>
      </trkpt>
      <trkpt lat="50.01413" lon="4.28756">
        <ele>296.4</ele>
        <time>2024-04-01T08:01:14Z</time>
      </trkpt>
      <trkpt lat="50.01411" lon="4.28746">
        <ele>296.4</ele>
        <time>2024-04-01T08:01:15Z</time>
      </trkpt>
      <trkpt lat="50.01409" lon="4.28737">
        <ele>296.4</ele>
        <time>2024-04-01T08:01:16Z</time>
      </trkpt>
      <trkpt lat="50.01407" lon="4.28728">
        <ele>296.6</ele>
        <time>2024-04-01T08:01:17Z</time>
      </trkpt>
      <trkpt lat="50.01405" lon="4.28718">
        <ele>296.6</ele>
        <time>2024-04-01T08:01:18Z</time>
      </trkpt>
      <trkpt lat="50.01403" lon="4.28708">
        <ele>296.4</ele>
        <time>2024-04-01T08:01:19Z</time>
      </trkpt>
      <trkpt lat="50.01401" lon="4.28698">
        <ele>296.4</ele>
        <time>2024-04-01T08:01:20Z</time>
      </trkpt>
      <trkpt lat="50.01398" lon="4.28688">
        <ele>296.4</ele>
        <time>2024-04-01T08:01:21Z</time>
      </trkpt>
      <trkpt lat="50.01396" lon="4.28678">
        <ele>296.4</ele>
        <time>2024-04-01T08:01:22Z</time>
      </trkpt>
      <trkpt lat="50.01394" lon="4.28668">
        <ele>296.4</ele>
        <time>2024-04-01T08:01:23Z</time>
      </trkpt>
      <trkpt lat="50.01392" lon="4.28658">
        <ele>296.2</ele>
        <time>2024-04-01T08:01:24Z</time>
      </trkpt>
      <trkpt lat="50.0139" lon="4.28647">
        <ele>296.2</ele>
        <time>2024-04-01T08:01:25Z</time>
      </trkpt>
      <trkpt lat="50.01387" lon="4.28636">
        <ele>296.2</ele>
        <time>2024-04-01T08:01:26Z</time>
      </trkpt>
      <trkpt lat="50.01385" lon="4.28625">
        <ele>296</ele>
        <time>2024-04-01T08:01:27Z</time>
      </trkpt>
      <trkpt lat="50.01383" lon="4.28614">
        <ele>296</ele>
        <time>2024-04-01T08:01:28Z</time>
      </trkpt>
      <trkpt lat="50.01381" lon="4.28603">
        <ele>295.8</ele>
        <time>2024-04-01T08:01:29Z</time>
      </trkpt>
      <trkpt lat="50.01379" lon="4.28591">
        <ele>295.6</ele>
        <time>2024-04-01T08:01:30Z</time>
      </trkpt>
      <trkpt lat="50.01376" lon="4.2858">
        <ele>295.4</ele>
        <time>2024-04-01T08:01:31Z</time>
      </trkpt>
      <trkpt lat="50.01374" lon="4.28569">
        <ele>295.4</ele>
        <time>2024-04-01T08:01:32Z</time>
      </trkpt>
      <trkpt lat="50.01372" lon="4.28557">
        <ele>295.4</ele>
        <time>2024-04-01T08:01:33Z</time>
      </trkpt>
      <trkpt lat="50.0137" lon="4.28545">
        <ele>295.2</ele>
        <time>2024-04-01T08:01:34Z</time>
      </trkpt>
      <trkpt lat="50.01367" lon="4.28534">
        <ele>294.8</ele>
        <time>2024-04-01T08:01:35Z</time>
      </trkpt>
      <trkpt lat="50.01364" lon="4.28522">
        <ele>294.2</ele>
        <time>2024-04-01T08:01:36Z</time>
      </trkpt>
      <trkpt lat="50.01361" lon="4.2851">
        <ele>293.8</ele>
        <time>2024-04-01T08:01:37Z</time>
      </trkpt>
      <trkpt lat="50.01359" lon="4.28498">
        <ele>293.6</ele>
        <time>2024-04-01T08:01:38Z</time>
      </trkpt>
      <trkpt lat="50.01356" lon="4.28486">
        <ele>293</ele>
        <time>2024-04-01T08:01:39Z</time>
      </trkpt>
      <trkpt lat="50.01354" lon="4.28473">
        <ele>292</ele>
        <time>2024-04-01T08:01:40Z</time>
      </trkpt>
      <trkpt lat="50.01351" lon="4.28461">
        <ele>290.8</ele>
        <time>2024-04-01T08:01:41Z</time>
      </trkpt>
      <trkpt lat="50.01348" lon="4.28449">
        <ele>290</ele>
        <time>2024-04-01T08:01:42Z</time>
      </trkpt>
      <trkpt lat="50.01346" lon="4.28437">
        <ele>289.8</ele>
        <time>2024-04-01T08:01:43Z</time>
      </trkpt>
      <trkpt lat="50.01343" lon="4.28425">
        <ele>289.4</ele>
        <time>2024-04-01T08:01:44Z</time>
      </trkpt>
      <trkpt lat="50.0134" lon="4.28413">
        <ele>289</ele>
        <time>2024-04-01T08:01:45Z</time>
      </trkpt>
      <trkpt lat="50.01338" lon="4.284">
        <ele>288.6</ele>
        <time>2024-04-01T08:01:46Z</time>
      </trkpt>
      <trkpt lat="50.01336" lon="4.28389">
        <ele>288</ele>
        <time>2024-04-01T08:01:47Z</time>
      </trkpt>
      <trkpt lat="50.01333" lon="4.28376">
        <ele>287.8</ele>
        <time>2024-04-01T08:01:48Z</time>
      </trkpt>
      <trkpt lat="50.01331" lon="4.28364">
        <ele>287.8</ele>
        <time>2024-04-01T08:01:49Z</time>
      </trkpt>
      <trkpt lat="50.01329" lon="4.28351">
        <ele>287.4</ele>
        <time>2024-04-01T08:01:50Z</time>
      </trkpt>
      <trkpt lat="50.01326" lon="4.28339">
        <ele>287</ele>
        <time>2024-04-01T08:01:51Z</time>
      </trkpt>
      <trkpt lat="50.01323" lon="4.28326">
        <ele>286.8</ele>
        <time>2024-04-01T08:01:52Z</time>
      </trkpt>
      <trkpt lat="50.0132" lon="4.28313">
        <ele>286.6</ele>
        <time>2024-04-01T08:01:53Z</time>
      </trkpt>
      <trkpt lat="50.01317" lon="4.283">
        <ele>285.8</ele>
        <time>2024-04-01T08:01:54Z</time>
      </trkpt>
      <trkpt lat="50.01314" lon="4.28287">
        <ele>285.6</ele>
        <time>2024-04-01T08:01:55Z</time>
      </trkpt>
      <trkpt lat="50.01312" lon="4.28274">
        <ele>285.4</ele>
        <time>2024-04-01T08:01:56Z</time>
      </trkpt>
      <trkpt lat="50.01308" lon="4.28261">
        <ele>285</ele>
        <time>2024-04-01T08:01:57Z</time>
      </trkpt>
      <trkpt lat="50.01305" lon="4.28248">
        <ele>285</ele>
        <time>2024-04-01T08:01:58Z</time>
      </trkpt>
      <trkpt lat="50.01301" lon="4.28234">
        <ele>284.8</ele>
        <time>2024-04-01T08:01:59Z</time>
      </trkpt>
      <trkpt lat="50.01299" lon="4.28221">
        <ele>284.6</ele>
        <time>2024-04-01T08:02:00Z</time>
      </trkpt>
      <trkpt lat="50.01296" lon="4.28208">
        <ele>284.4</ele>
        <time>2024-04-01T08:02:01Z</time>
      </trkpt>
      <trkpt lat="50.01293" lon="4.28194">
        <ele>284.2</ele>
        <time>2024-04-01T08:02:02Z</time>
      </trkpt>
      <trkpt lat="50.0129" lon="4.28182">
        <ele>283.8</ele>
        <time>2024-04-01T08:02:03Z</time>
      </trkpt>
      <trkpt lat="50.01288" lon="4.28169">
        <ele>283.6</ele>
        <time>2024-04-01T08:02:04Z</time>
      </trkpt>
      <trkpt lat="50.01285" lon="4.28155">
        <ele>283.2</ele>
        <time>2024-04-01T08:02:05Z</time>
      </trkpt>
      <trkpt lat="50.01283" lon="4.28142">
        <ele>283.2</ele>
        <time>2024-04-01T08:02:06Z</time>
      </trkpt>
      <trkpt lat="50.0128" lon="4.28129">
        <ele>282.8</ele>
        <time>2024-04-01T08:02:07Z</time>
      </trkpt>
      <trkpt lat="50.01277" lon="4.28117">
        <ele>282.2</ele>
        <time>2024-04-01T08:02:08Z</time>
      </trkpt>
      <trkpt lat="50.01275" lon="4.28105">
        <ele>281.8</ele>
        <time>2024-04-01T08:02:09Z</time>
      </trkpt>
      <trkpt lat="50.01273" lon="4.28093">
        <ele>281.4</ele>
        <time>2024-04-01T08:02:10Z</time>
      </trkpt>
      <trkpt lat="50.0127" lon="4.28081">
        <ele>281.2</ele>
        <time>2024-04-01T08:02:11Z</time>
      </trkpt>
      <trkpt lat="50.01268" lon="4.2807">
        <ele>281</ele>
        <time>2024-04-01T08:02:12Z</time>
      </trkpt>
      <trkpt lat="50.01266" lon="4.28058">
        <ele>281.2</ele>
        <time>2024-04-01T08:02:13Z</time>
      </trkpt>
      <trkpt lat="50.01264" lon="4.28048">
        <ele>281.2</ele>
        <time>2024-04-01T08:02:14Z</time>
      </trkpt>
      <trkpt lat="50.01261" lon="4.28037">
        <ele>281.2</ele>
        <time>2024-04-01T08:02:15Z</time>
      </trkpt>
      <trkpt lat="50.01259" lon="4.28026">
        <ele>281</ele>
        <time>2024-04-01T08:02:16Z</time>
      </trkpt>
      <trkpt lat="50.01257" lon="4.28015">
        <ele>281</ele>
        <time>2024-04-01T08:02:17Z</time>
      </trkpt>
      <trkpt lat="50.01254" lon="4.28005">
        <ele>281.2</ele>
        <time>2024-04-01T08:02:18Z</time>
      </trkpt>
      <trkpt lat="50.01252" lon="4.27994">
        <ele>281</ele>
        <time>2024-04-01T08:02:19Z</time>
      </trkpt>
      <trkpt lat="50.01249" lon="4.27983">
        <ele>281</ele>
        <time>2024-04-01T08:02:20Z</time>
      </trkpt>
      <trkpt lat="50.01247" lon="4.27972">
        <ele>281</ele>
        <time>2024-04-01T08:02:21Z</time>
      </trkpt>
      <trkpt lat="50.01244" lon="4.27961">
        <ele>281.2</ele>
        <time>2024-04-01T08:02:22Z</time>
      </trkpt>
      <trkpt lat="50.01242" lon="4.27951">
        <ele>281.2</ele>
        <time>2024-04-01T08:02:23Z</time>
      </trkpt>
      <trkpt lat="50.0124" lon="4.2794">
        <ele>281.2</ele>
        <time>2024-04-01T08:02:24Z</time>
      </trkpt>
      <trkpt lat="50.01237" lon="4.2793">
        <ele>281.4</ele>
        <time>2024-04-01T08:02:25Z</time>
      </trkpt>
      <trkpt lat="50.01235" lon="4.2792">
        <ele>281.6</ele>
        <time>2024-04-01T08:02:26Z</time>
      </trkpt>
      <trkpt lat="50.01232" lon="4.2791">
        <ele>282.2</ele>
        <time>2024-04-01T08:02:27Z</time>
      </trkpt>
      <trkpt lat="50.0123" lon="4.27899">
        <ele>282.4</ele>
        <time>2024-04-01T08:02:28Z</time>
      </trkpt>
      <trkpt lat="50.01228" lon="4.27889">
        <ele>282.6</ele>
        <time>2024-04-01T08:02:29Z</time>
      </trkpt>
      <trkpt lat="50.01225" lon="4.27879">
        <ele>282.6</ele>
        <time>2024-04-01T08:02:30Z</time>
      </trkpt>
      <trkpt lat="50.01223" lon="4.27869">
        <ele>282.8</ele>
        <time>2024-04-01T08:02:31Z</time>
      </trkpt>
      <trkpt lat="50.01221" lon="4.27859">
        <ele>282.6</ele>
        <time>2024-04-01T08:02:32Z</time>
      </trkpt>
      <trkpt lat="50.01219" lon="4.27849">
        <ele>282.8</ele>
        <time>2024-04-01T08:02:33Z</time>
      </trkpt>
      <trkpt lat="50.01217" lon="4.27838">
        <ele>282.8</ele>
        <time>2024-04-01T08:02:34Z</time>
      </trkpt>
      <trkpt lat="50.01215" lon="4.27828">
        <ele>282.8</ele>
        <time>2024-04-01T08:02:35Z</time>
      </trkpt>
      <trkpt lat="50.01212" lon="4.27818">
        <ele>282.8</ele>
        <time>2024-04-01T08:02:36Z</time>
      </trkpt>
      <trkpt lat="50.0121" lon="4.27808">
        <ele>282.8</ele>
        <time>2024-04-01T08:02:37Z</time>
      </trkpt>
      <trkpt lat="50.01208" lon="4.27797">
        <ele>283</ele>
        <time>2024-04-01T08:02:38Z</time>
      </trkpt>
      <trkpt lat="50.01206" lon="4.27787">
        <ele>282.8</ele>
        <time>2024-04-01T08:02:39Z</time>
      </trkpt>
      <trkpt lat="50.01203" lon="4.27777">
        <ele>282.8</ele>
        <time>2024-04-01T08:02:40Z</time>
      </trkpt>
      <trkpt lat="50.01201" lon="4.27766">
        <ele>282.8</ele>
        <time>2024-04-01T08:02:41Z</time>
      </trkpt>
      <trkpt lat="50.012" lon="4.27756">
        <ele>283</ele>
        <time>2024-04-01T08:02:42Z</time>
      </trkpt>
      <trkpt lat="50.01197" lon="4.27745">
        <ele>283</ele>
        <time>2024-04-01T08:02:43Z</time>
      </trkpt>
      <trkpt lat="50.01195" lon="4.27735">
        <ele>283</ele>
        <time>2024-04-01T08:02:44Z</time>
      </trkpt>
      <trkpt lat="50.01192" lon="4.27725">
        <ele>283</ele>
        <time>2024-04-01T08:02:45Z</time>
      </trkpt>
      <trkpt lat="50.0119" lon="4.27714">
        <ele>283</ele>
        <time>2024-04-01T08:02:46Z</time>
      </trkpt>
      <trkpt lat="50.01187" lon="4.27704">
        <ele>283</ele>
        <time>2024-04-01T08:02:47Z</time>
      </trkpt>
      <trkpt lat="50.01185" lon="4.27694">
        <ele>283</ele>
        <time>2024-04-01T08:02:48Z</time>
      </trkpt>
      <trkpt lat="50.01183" lon="4.27683">
        <ele>282.8</ele>
        <time>2024-04-01T08:02:49Z</time>
      </trkpt>
      <trkpt lat="50.01181" lon="4.27673">
        <ele>283</ele>
        <time>2024-04-01T08:02:50Z</time>
      </trkpt>
      <trkpt lat="50.01179" lon="4.27663">
        <ele>283</ele>
        <time>2024-04-01T08:02:51Z</time>
      </trkpt>
      <trkpt lat="50.01177" lon="4.27653">
        <ele>283</ele>
        <time>2024-04-01T08:02:52Z</time>
      </trkpt>
      <trkpt lat="50.01175" lon="4.27643">
        <ele>283</ele>
        <time>2024-04-01T08:02:53Z</time>
      </trkpt>
      <trkpt lat="50.01173" lon="4.27633">
        <ele>283</ele>
        <time>2024-04-01T08:02:54Z</time>
      </trkpt>
      <trkpt lat="50.01171" lon="4.27623">
        <ele>283</ele>
        <time>2024-04-01T08:02:55Z</time>
      </trkpt>
      <trkpt lat="50.01169" lon="4.27613">
        <ele>282.8</ele>
        <time>2024-04-01T08:02:56Z</time>
      </trkpt>
      <trkpt lat="50.01167" lon="4.27604">
        <ele>282.8</ele>
        <time>2024-04-01T08:02:57Z</time>
      </trkpt>
      <trkpt lat="50.01165" lon="4.27594">
        <ele>282.8</ele>
        <time>2024-04-01T08:02:58Z</time>
      </trkpt>
      <trkpt lat="50.01163" lon="4.27585">
        <ele>282.8</ele>
        <time>2024-04-01T08:02:59Z</time>
      </trkpt>
      <trkpt lat="50.01161" lon="4.27576">
        <ele>282.8</ele>
        <time>2024-04-01T08:03:00Z</time>
      </trkpt>
      <trkpt lat="50.01159" lon="4.27566">
        <ele>282.8</ele>
        <time>2024-04-01T08:03:01Z</time>
      </trkpt>
      <trkpt lat="50.01157" lon="4.27557">
        <ele>282.8</ele>
        <time>2024-04-01T08:03:02Z</time>
      </trkpt>
      <trkpt lat="50.01155" lon="4.27547">
        <ele>282.8</ele>
        <time>2024-04-01T08:03:03Z</time>
      </trkpt>
      <trkpt lat="50.01153" lon="4.27538">
        <ele>282.8</ele>
        <time>2024-04-01T08:03:04Z</time>
      </trkpt>
      <trkpt lat="50.0115" lon="4.27529">
        <ele>282.2</ele>
        <time>2024-04-01T08:03:05Z</time>
      </trkpt>
      <trkpt lat="50.01148" lon="4.27519">
        <ele>282.2</ele>
        <time>2024-04-01T08:03:06Z</time>
      </trkpt>
      <trkpt lat="50.01146" lon="4.2751">
        <ele>282</ele>
        <time>2024-04-01T08:03:07Z</time>
      </trkpt>
      <trkpt lat="50.01144" lon="4.275">
        <ele>282</ele>
        <time>2024-04-01T08:03:08Z</time>
      </trkpt>
      <trkpt lat="50.01141" lon="4.27491">
        <ele>281.8</ele>
        <time>2024-04-01T08:03:09Z</time>
      </trkpt>
      <trkpt lat="50.01139" lon="4.27481">
        <ele>282</ele>
        <time>2024-04-01T08:03:10Z</time>
      </trkpt>
      <trkpt lat="50.01137" lon="4.27471">
        <ele>281.8</ele>
        <time>2024-04-01T08:03:11Z</time>
      </trkpt>
      <trkpt lat="50.01136" lon="4.27461">
        <ele>281.8</ele>
        <time>2024-04-01T08:03:12Z</time>
      </trkpt>
      <trkpt lat="50.01134" lon="4.27451">
        <ele>282</ele>
        <time>2024-04-01T08:03:13Z</time>
      </trkpt>
      <trkpt lat="50.01132" lon="4.27441">
        <ele>281.8</ele>
        <time>2024-04-01T08:03:14Z</time>
      </trkpt>
      <trkpt lat="50.0113" lon="4.27431">
        <ele>282</ele>
        <time>2024-04-01T08:03:15Z</time>
      </trkpt>
      <trkpt lat="50.01128" lon="4.27421">
        <ele>282</ele>
        <time>2024-04-01T08:03:16Z</time>
      </trkpt>
      <trkpt lat="50.01126" lon="4.27411">
        <ele>282</ele>
        <time>2024-04-01T08:03:17Z</time>
      </trkpt>
      <trkpt lat="50.01124" lon="4.274">
        <ele>282.2</ele>
        <time>2024-04-01T08:03:18Z</time>
      </trkpt>
      <trkpt lat="50.01123" lon="4.2739">
        <ele>282.6</ele>
        <time>2024-04-01T08:03:19Z</time>
      </trkpt>
      <trkpt lat="50.01121" lon="4.2738">
        <ele>282.6</ele>
        <time>2024-04-01T08:03:20Z</time>
      </trkpt>
      <trkpt lat="50.01119" lon="4.2737">
        <ele>282.8</ele>
        <time>2024-04-01T08:03:21Z</time>
      </trkpt>
      <trkpt lat="50.01117" lon="4.2736">
        <ele>283</ele>
        <time>2024-04-01T08:03:22Z</time>
      </trkpt>
      <trkpt lat="50.01114" lon="4.2735">
        <ele>283</ele>
        <time>2024-04-01T08:03:23Z</time>
      </trkpt>
      <trkpt lat="50.01112" lon="4.2734">
        <ele>283.2</ele>
        <time>2024-04-01T08:03:24Z</time>
      </trkpt>
      <trkpt lat="50.01111" lon="4.2733">
        <ele>283</ele>
        <time>2024-04-01T08:03:25Z</time>
      </trkpt>
      <trkpt lat="50.01109" lon="4.27321">
        <ele>283.2</ele>
        <time>2024-04-01T08:03:26Z</time>
      </trkpt>
      <trkpt lat="50.01107" lon="4.27311">
        <ele>283.2</ele>
        <time>2024-04-01T08:03:27Z</time>
      </trkpt>
      <trkpt lat="50.01105" lon="4.27302">
        <ele>283.2</ele>
        <time>2024-04-01T08:03:28Z</time>
      </trkpt>
      <trkpt lat="50.01103" lon="4.27293">
        <ele>283.4</ele>
        <time>2024-04-01T08:03:29Z</time>
      </trkpt>
      <trkpt lat="50.01101" lon="4.27285">
        <ele>283.4</ele>
        <time>2024-04-01T08:03:30Z</time>
      </trkpt>
      <trkpt lat="50.01099" lon="4.27276">
        <ele>283.6</ele>
        <time>2024-04-01T08:03:31Z</time>
      </trkpt>
      <trkpt lat="50.01098" lon="4.27268">
        <ele>283.6</ele>
        <time>2024-04-01T08:03:32Z</time>
      </trkpt>
      <trkpt lat="50.01096" lon="4.27261">
        <ele>283.6</ele>
        <time>2024-04-01T08:03:33Z</time>
      </trkpt>
      <trkpt lat="50.01094" lon="4.27253">
        <ele>283.6</ele>
        <time>2024-04-01T08:03:34Z</time>
      </trkpt>
      <trkpt lat="50.01092" lon="4.27245">
        <ele>283.8</ele>
        <time>2024-04-01T08:03:35Z</time>
      </trkpt>
      <trkpt lat="50.01091" lon="4.27238">
        <ele>284</ele>
        <time>2024-04-01T08:03:36Z</time>
      </trkpt>
      <trkpt lat="50.01089" lon="4.2723">
        <ele>284</ele>
        <time>2024-04-01T08:03:37Z</time>
      </trkpt>
      <trkpt lat="50.01087" lon="4.27223">
        <ele>284.2</ele>
        <time>2024-04-01T08:03:38Z</time>
      </trkpt>
      <trkpt lat="50.01087" lon="4.27215">
        <ele>284.6</ele>
        <time>2024-04-01T08:03:39Z</time>
      </trkpt>
      <trkpt lat="50.01086" lon="4.27207">
        <ele>285</ele>
        <time>2024-04-01T08:03:40Z</time>
      </trkpt>
      <trkpt lat="50.01085" lon="4.272">
        <ele>285.4</ele>
        <time>2024-04-01T08:03:41Z</time>
      </trkpt>
      <trkpt lat="50.01083" lon="4.27193">
        <ele>285.6</ele>
        <time>2024-04-01T08:03:42Z</time>
      </trkpt>
      <trkpt lat="50.01082" lon="4.27185">
        <ele>285.8</ele>
        <time>2024-04-01T08:03:43Z</time>
      </trkpt>
      <trkpt lat="50.01082" lon="4.27178">
        <ele>286</ele>
        <time>2024-04-01T08:03:44Z</time>
      </trkpt>
      <trkpt lat="50.01081" lon="4.2717">
        <ele>286.4</ele>
        <time>2024-04-01T08:03:45Z</time>
      </trkpt>
      <trkpt lat="50.0108" lon="4.27162">
        <ele>286.6</ele>
        <time>2024-04-01T08:03:46Z</time>
      </trkpt>
      <trkpt lat="50.0108" lon="4.27155">
        <ele>286.8</ele>
        <time>2024-04-01T08:03:47Z</time>
      </trkpt>
      <trkpt lat="50.0108" lon="4.27148">
        <ele>287</ele>
        <time>2024-04-01T08:03:48Z</time>
      </trkpt>
      <trkpt lat="50.0108" lon="4.2714">
        <ele>287</ele>
        <time>2024-04-01T08:03:49Z</time>
      </trkpt>
      <trkpt lat="50.0108" lon="4.27133">
        <ele>287.4</ele>
        <time>2024-04-01T08:03:50Z</time>
      </trkpt>
      <trkpt lat="50.0108" lon="4.27125">
        <ele>287.4</ele>
        <time>2024-04-01T08:03:51Z</time>
      </trkpt>
      <trkpt lat="50.0108" lon="4.27118">
        <ele>287.6</ele>
        <time>2024-04-01T08:03:52Z</time>
      </trkpt>
      <trkpt lat="50.01081" lon="4.2711">
        <ele>287.6</ele>
        <time>2024-04-01T08:03:53Z</time>
      </trkpt>
      <trkpt lat="50.01081" lon="4.27103">
        <ele>287.8</ele>
        <time>2024-04-01T08:03:54Z</time>
      </trkpt>
      <trkpt lat="50.01082" lon="4.27095">
        <ele>288.2</ele>
        <time>2024-04-01T08:03:55Z</time>
      </trkpt>
      <trkpt lat="50.01083" lon="4.27088">
        <ele>288.4</ele>
        <time>2024-04-01T08:03:56Z</time>
      </trkpt>
      <trkpt lat="50.01084" lon="4.2708">
        <ele>288.8</ele>
        <time>2024-04-01T08:03:57Z</time>
      </trkpt>
      <trkpt lat="50.01085" lon="4.27073">
        <ele>289.2</ele>
        <time>2024-04-01T08:03:58Z</time>
      </trkpt>
      <trkpt lat="50.01087" lon="4.27065">
        <ele>289.2</ele>
        <time>2024-04-01T08:03:59Z</time>
      </trkpt>
      <trkpt lat="50.01088" lon="4.27058">
        <ele>289.6</ele>
        <time>2024-04-01T08:04:00Z</time>
      </trkpt>
      <trkpt lat="50.0109" lon="4.27051">
        <ele>290</ele>
        <time>2024-04-01T08:04:01Z</time>
      </trkpt>
      <trkpt lat="50.01091" lon="4.27043">
        <ele>290</ele>
        <time>2024-04-01T08:04:02Z</time>
      </trkpt>
      <trkpt lat="50.01092" lon="4.27036">
        <ele>290.2</ele>
        <time>2024-04-01T08:04:03Z</time>
      </trkpt>
      <trkpt lat="50.01093" lon="4.27029">
        <ele>290.4</ele>
        <time>2024-04-01T08:04:04Z</time>
      </trkpt>
      <trkpt lat="50.01093" lon="4.27021">
        <ele>290.6</ele>
        <time>2024-04-01T08:04:05Z</time>
      </trkpt>
      <trkpt lat="50.01092" lon="4.27014">
        <ele>290.6</ele>
        <time>2024-04-01T08:04:06Z</time>
      </trkpt>
      <trkpt lat="50.0109" lon="4.27007">
        <ele>290.8</ele>
        <time>2024-04-01T08:04:07Z</time>
      </trkpt>
      <trkpt lat="50.01088" lon="4.27001">
        <ele>290.8</ele>
        <time>2024-04-01T08:04:08Z</time>
      </trkpt>
      <trkpt lat="50.01085" lon="4.26994">
        <ele>291</ele>
        <time>2024-04-01T08:04:09Z</time>
      </trkpt>
      <trkpt lat="50.01082" lon="4.26988">
        <ele>291</ele>
        <time>2024-04-01T08:04:10Z</time>
      </trkpt>
      <trkpt lat="50.01078" lon="4.26982">
        <ele>290.8</ele>
        <time>2024-04-01T08:04:11Z</time>
      </trkpt>
      <trkpt lat="50.01075" lon="4.26976">
        <ele>290.8</ele>
        <time>2024-04-01T08:04:12Z</time>
      </trkpt>
      <trkpt lat="50.01071" lon="4.2697">
        <ele>291</ele>
        <time>2024-04-01T08:04:13Z</time>
      </trkpt>
      <trkpt lat="50.01067" lon="4.26964">
        <ele>290.8</ele>
        <time>2024-04-01T08:04:14Z</time>
      </trkpt>
      <trkpt lat="50.01063" lon="4.26958">
        <ele>290.8</ele>
        <time>2024-04-01T08:04:15Z</time>
      </trkpt>
      <trkpt lat="50.0106" lon="4.26953">
        <ele>291</ele>
        <time>2024-04-01T08:04:16Z</time>
      </trkpt>
      <trkpt lat="50.01056" lon="4.26947">
        <ele>291</ele>
        <time>2024-04-01T08:04:17Z</time>
      </trkpt>
      <trkpt lat="50.01052" lon="4.26942">
        <ele>290.4</ele>
        <time>2024-04-01T08:04:18Z</time>
      </trkpt>
      <trkpt lat="50.01048" lon="4.26936">
        <ele>290.4</ele>
        <time>2024-04-01T08:04:19Z</time>
      </trkpt>
      <trkpt lat="50.01044" lon="4.2693">
        <ele>290.4</ele>
        <time>2024-04-01T08:04:20Z</time>
      </trkpt>
      <trkpt lat="50.0104" lon="4.26925">
        <ele>290.2</ele>
        <time>2024-04-01T08:04:21Z</time>
      </trkpt>
      <trkpt lat="50.01036" lon="4.26919">
        <ele>290</ele>
        <time>2024-04-01T08:04:22Z</time>
      </trkpt>
      <trkpt lat="50.01032" lon="4.26914">
        <ele>290</ele>
        <time>2024-04-01T08:04:23Z</time>
      </trkpt>
      <trkpt lat="50.01028" lon="4.26908">
        <ele>290</ele>
        <time>2024-04-01T08:04:24Z</time>
      </trkpt>
      <trkpt lat="50.01024" lon="4.26902">
        <ele>289.8</ele>
        <time>2024-04-01T08:04:25Z</time>
      </trkpt>
      <trkpt lat="50.0102" lon="4.26896">
        <ele>290</ele>
        <time>2024-04-01T08:04:26Z</time>
      </trkpt>
      <trkpt lat="50.01016" lon="4.2689">
        <ele>290</ele>
        <time>2024-04-01T08:04:27Z</time>
      </trkpt>
      <trkpt lat="50.01011" lon="4.26884">
        <ele>289.8</ele>
        <time>2024-04-01T08:04:28Z</time>
      </trkpt>
      <trkpt lat="50.01007" lon="4.26879">
        <ele>289.8</ele>
        <time>2024-04-01T08:04:29Z</time>
      </trkpt>
      <trkpt lat="50.01003" lon="4.26873">
        <ele>289.8</ele>
        <time>2024-04-01T08:04:30Z</time>
      </trkpt>
      <trkpt lat="50.00999" lon="4.26867">
        <ele>289.8</ele>
        <time>2024-04-01T08:04:31Z</time>
      </trkpt>
      <trkpt lat="50.00995" lon="4.26861">
        <ele>289.8</ele>
        <time>2024-04-01T08:04:32Z</time>
      </trkpt>
      <trkpt lat="50.00991" lon="4.26856">
        <ele>290</ele>
        <time>2024-04-01T08:04:33Z</time>
      </trkpt>
      <trkpt lat="50.00987" lon="4.2685">
        <ele>290</ele>
        <time>2024-04-01T08:04:34Z</time>
      </trkpt>
      <trkpt lat="50.00983" lon="4.26844">
        <ele>289.8</ele>
        <time>2024-04-01T08:04:35Z</time>
      </trkpt>
      <trkpt lat="50.00979" lon="4.26838">
        <ele>290</ele>
        <time>2024-04-01T08:04:36Z</time>
      </trkpt>
      <trkpt lat="50.00975" lon="4.26832">
        <ele>290</ele>
        <time>2024-04-01T08:04:37Z</time>
      </trkpt>
      <trkpt lat="50.00971" lon="4.26826">
        <ele>290.2</ele>
        <time>2024-04-01T08:04:38Z</time>
      </trkpt>
      <trkpt lat="50.00967" lon="4.26821">
        <ele>290.6</ele>
        <time>2024-04-01T08:04:39Z</time>
      </trkpt>
      <trkpt lat="50.00963" lon="4.26815">
        <ele>290.8</ele>
        <time>2024-04-01T08:04:40Z</time>
      </trkpt>
      <trkpt lat="50.00959" lon="4.26809">
        <ele>291</ele>
        <time>2024-04-01T08:04:41Z</time>
      </trkpt>
      <trkpt lat="50.00955" lon="4.26804">
        <ele>291.2</ele>
        <time>2024-04-01T08:04:42Z</time>
      </trkpt>
      <trkpt lat="50.00951" lon="4.26798">
        <ele>291.2</ele>
        <time>2024-04-01T08:04:43Z</time>
      </trkpt>
      <trkpt lat="50.00947" lon="4.26793">
        <ele>291.2</ele>
        <time>2024-04-01T08:04:44Z</time>
      </trkpt>
      <trkpt lat="50.00944" lon="4.26787">
        <ele>291.4</ele>
        <time>2024-04-01T08:04:45Z</time>
      </trkpt>
      <trkpt lat="50.0094" lon="4.26781">
        <ele>291.4</ele>
        <time>2024-04-01T08:04:46Z</time>
      </trkpt>
      <trkpt lat="50.00936" lon="4.26776">
        <ele>291.6</ele>
        <time>2024-04-01T08:04:47Z</time>
      </trkpt>
      <trkpt lat="50.00932" lon="4.2677">
        <ele>291.4</ele>
        <time>2024-04-01T08:04:48Z</time>
      </trkpt>
      <trkpt lat="50.00929" lon="4.26765">
        <ele>291.4</ele>
        <time>2024-04-01T08:04:49Z</time>
      </trkpt>
      <trkpt lat="50.00925" lon="4.2676">
        <ele>291.6</ele>
        <time>2024-04-01T08:04:50Z</time>
      </trkpt>
      <trkpt lat="50.00921" lon="4.26754">
        <ele>291.6</ele>
        <time>2024-04-01T08:04:51Z</time>
      </trkpt>
      <trkpt lat="50.00917" lon="4.26749">
        <ele>291.6</ele>
        <time>2024-04-01T08:04:52Z</time>
      </trkpt>
      <trkpt lat="50.00913" lon="4.26744">
        <ele>291.8</ele>
        <time>2024-04-01T08:04:53Z</time>
      </trkpt>
      <trkpt lat="50.0091" lon="4.26738">
        <ele>291.8</ele>
        <time>2024-04-01T08:04:54Z</time>
      </trkpt>
      <trkpt lat="50.00906" lon="4.26733">
        <ele>291.8</ele>
        <time>2024-04-01T08:04:55Z</time>
      </trkpt>
      <trkpt lat="50.00902" lon="4.26727">
        <ele>291.8</ele>
        <time>2024-04-01T08:04:56Z</time>
      </trkpt>
      <trkpt lat="50.00898" lon="4.26722">
        <ele>292</ele>
        <time>2024-04-01T08:04:57Z</time>
      </trkpt>
      <trkpt lat="50.00894" lon="4.26716">
        <ele>291.8</ele>
        <time>2024-04-01T08:04:58Z</time>
      </trkpt>
      <trkpt lat="50.00891" lon="4.26711">
        <ele>292</ele>
        <time>2024-04-01T08:04:59Z</time>
      </trkpt>
      <trkpt lat="50.00887" lon="4.26705">
        <ele>292</ele>
        <time>2024-04-01T08:05:00Z</time>
      </trkpt>
      <trkpt lat="50.00883" lon="4.26699">
        <ele>292</ele>
        <time>2024-04-01T08:05:01Z</time>
      </trkpt>
      <trkpt lat="50.00879" lon="4.26694">
        <ele>292.2</ele>
        <time>2024-04-01T08:05:02Z</time>
      </trkpt>
      <trkpt lat="50.00875" lon="4.26688">
        <ele>292.4</ele>
        <time>2024-04-01T08:05:03Z</time>
      </trkpt>
      <trkpt lat="50.00871" lon="4.26683">
        <ele>292.4</ele>
        <time>2024-04-01T08:05:04Z</time>
      </trkpt>
      <trkpt lat="50.00866" lon="4.26678">
        <ele>292.6</ele>
        <time>2024-04-01T08:05:05Z</time>
      </trkpt>
      <trkpt lat="50.00862" lon="4.26673">
        <ele>292.4</ele>
        <time>2024-04-01T08:05:06Z</time>
      </trkpt>
      <trkpt lat="50.00858" lon="4.26668">
        <ele>292.6</ele>
        <time>2024-04-01T08:05:07Z</time>
      </trkpt>
      <trkpt lat="50.00853" lon="4.26664">
        <ele>292.6</ele>
        <time>2024-04-01T08:05:08Z</time>
      </trkpt>
      <trkpt lat="50.00848" lon="4.2666">
        <ele>292.6</ele>
        <time>2024-04-01T08:05:09Z</time>
      </trkpt>
      <trkpt lat="50.00843" lon="4.26656">
        <ele>292.6</ele>
        <time>2024-04-01T08:05:10Z</time>
      </trkpt>
      <trkpt lat="50.00839" lon="4.26652">
        <ele>292.6</ele>
        <time>2024-04-01T08:05:11Z</time>
      </trkpt>
      <trkpt lat="50.00834" lon="4.26649">
        <ele>292.8</ele>
        <time>2024-04-01T08:05:12Z</time>
      </trkpt>
      <trkpt lat="50.00829" lon="4.26646">
        <ele>292.8</ele>
        <time>2024-04-01T08:05:13Z</time>
      </trkpt>
      <trkpt lat="50.00824" lon="4.26643">
        <ele>292.6</ele>
        <time>2024-04-01T08:05:14Z</time>
      </trkpt>
      <trkpt lat="50.00819" lon="4.2664">
        <ele>292.8</ele>
        <time>2024-04-01T08:05:15Z</time>
      </trkpt>
      <trkpt lat="50.00814" lon="4.26637">
        <ele>292.6</ele>
        <time>2024-04-01T08:05:16Z</time>
      </trkpt>
      <trkpt lat="50.00809" lon="4.26633">
        <ele>292.6</ele>
        <time>2024-04-01T08:05:17Z</time>
      </trkpt>
      <trkpt lat="50.00804" lon="4.2663">
        <ele>292.6</ele>
        <time>2024-04-01T08:05:18Z</time>
      </trkpt>
      <trkpt lat="50.00799" lon="4.26627">
        <ele>292.4</ele>
        <time>2024-04-01T08:05:19Z</time>
      </trkpt>
      <trkpt lat="50.00794" lon="4.26623">
        <ele>292.6</ele>
        <time>2024-04-01T08:05:20Z</time>
      </trkpt>
      <trkpt lat="50.00789" lon="4.2662">
        <ele>292.4</ele>
        <time>2024-04-01T08:05:21Z</time>
      </trkpt>
      <trkpt lat="50.00784" lon="4.26617">
        <ele>292.4</ele>
        <time>2024-04-01T08:05:22Z</time>
      </trkpt>
      <trkpt lat="50.0078" lon="4.26613">
        <ele>292.6</ele>
        <time>2024-04-01T08:05:23Z</time>
      </trkpt>
      <trkpt lat="50.00775" lon="4.26608">
        <ele>292.6</ele>
        <time>2024-04-01T08:05:24Z</time>
      </trkpt>
      <trkpt lat="50.0077" lon="4.26604">
        <ele>292.6</ele>
        <time>2024-04-01T08:05:25Z</time>
      </trkpt>
      <trkpt lat="50.00766" lon="4.26599">
        <ele>292.4</ele>
        <time>2024-04-01T08:05:26Z</time>
      </trkpt>
      <trkpt lat="50.00761" lon="4.26595">
        <ele>292.6</ele>
        <time>2024-04-01T08:05:27Z</time>
      </trkpt>
      <trkpt lat="50.00757" lon="4.2659">
        <ele>292.6</ele>
        <time>2024-04-01T08:05:28Z</time>
      </trkpt>
      <trkpt lat="50.00752" lon="4.26585">
        <ele>292.6</ele>
        <time>2024-04-01T08:05:29Z</time>
      </trkpt>
      <trkpt lat="50.00748" lon="4.2658">
        <ele>292.6</ele>
        <time>2024-04-01T08:05:30Z</time>
      </trkpt>
      <trkpt lat="50.00744" lon="4.26575">
        <ele>292.8</ele>
        <time>2024-04-01T08:05:31Z</time>
      </trkpt>
      <trkpt lat="50.0074" lon="4.2657">
        <ele>292.8</ele>
        <time>2024-04-01T08:05:32Z</time>
      </trkpt>
      <trkpt lat="50.00735" lon="4.26565">
        <ele>293</ele>
        <time>2024-04-01T08:05:33Z</time>
      </trkpt>
      <trkpt lat="50.00731" lon="4.2656">
        <ele>293.6</ele>
        <time>2024-04-01T08:05:34Z</time>
      </trkpt>
      <trkpt lat="50.00727" lon="4.26555">
        <ele>293.8</ele>
        <time>2024-04-01T08:05:35Z</time>
      </trkpt>
      <trkpt lat="50.00722" lon="4.2655">
        <ele>294</ele>
        <time>2024-04-01T08:05:36Z</time>
      </trkpt>
      <trkpt lat="50.00718" lon="4.26545">
        <ele>294</ele>
        <time>2024-04-01T08:05:37Z</time>
      </trkpt>
      <trkpt lat="50.00714" lon="4.26541">
        <ele>294</ele>
        <time>2024-04-01T08:05:38Z</time>
      </trkpt>
      <trkpt lat="50.0071" lon="4.26536">
        <ele>294.2</ele>
        <time>2024-04-01T08:05:39Z</time>
      </trkpt>
      <trkpt lat="50.00706" lon="4.26531">
        <ele>294.2</ele>
        <time>2024-04-01T08:05:40Z</time>
      </trkpt>
      <trkpt lat="50.00702" lon="4.26527">
        <ele>294.2</ele>
        <time>2024-04-01T08:05:41Z</time>
      </trkpt>
      <trkpt lat="50.00698" lon="4.26522">
        <ele>294.2</ele>
        <time>2024-04-01T08:05:42Z</time>
      </trkpt>
      <trkpt lat="50.00694" lon="4.26518">
        <ele>294</ele>
        <time>2024-04-01T08:05:43Z</time>
      </trkpt>
      <trkpt lat="50.0069" lon="4.26513">
        <ele>294.2</ele>
        <time>2024-04-01T08:05:44Z</time>
      </trkpt>
      <trkpt lat="50.00686" lon="4.26508">
        <ele>294.2</ele>
        <time>2024-04-01T08:05:45Z</time>
      </trkpt>
      <trkpt lat="50.00682" lon="4.26503">
        <ele>294</ele>
        <time>2024-04-01T08:05:46Z</time>
      </trkpt>
      <trkpt lat="50.00678" lon="4.26498">
        <ele>294</ele>
        <time>2024-04-01T08:05:47Z</time>
      </trkpt>
      <trkpt lat="50.00674" lon="4.26493">
        <ele>294</ele>
        <time>2024-04-01T08:05:48Z</time>
      </trkpt>
      <trkpt lat="50.0067" lon="4.26488">
        <ele>294</ele>
        <time>2024-04-01T08:05:49Z</time>
      </trkpt>
      <trkpt lat="50.00666" lon="4.26483">
        <ele>294</ele>
        <time>2024-04-01T08:05:50Z</time>
      </trkpt>
      <trkpt lat="50.00662" lon="4.26478">
        <ele>294.2</ele>
        <time>2024-04-01T08:05:51Z</time>
      </trkpt>
      <trkpt lat="50.00658" lon="4.26473">
        <ele>294</ele>
        <time>2024-04-01T08:05:52Z</time>
      </trkpt>
      <trkpt lat="50.00654" lon="4.26467">
        <ele>294</ele>
        <time>2024-04-01T08:05:53Z</time>
      </trkpt>
      <trkpt lat="50.0065" lon="4.26462">
        <ele>294</ele>
        <time>2024-04-01T08:05:54Z</time>
      </trkpt>
      <trkpt lat="50.00646" lon="4.26456">
        <ele>294</ele>
        <time>2024-04-01T08:05:55Z</time>
      </trkpt>
      <trkpt lat="50.00642" lon="4.26451">
        <ele>294.4</ele>
        <time>2024-04-01T08:05:56Z</time>
      </trkpt>
      <trkpt lat="50.00638" lon="4.26445">
        <ele>294.8</ele>
        <time>2024-04-01T08:05:57Z</time>
      </trkpt>
      <trkpt lat="50.00635" lon="4.2644">
        <ele>295.2</ele>
        <time>2024-04-01T08:05:58Z</time>
      </trkpt>
      <trkpt lat="50.00631" lon="4.26434">
        <ele>295.4</ele>
        <time>2024-04-01T08:05:59Z</time>
      </trkpt>
      <trkpt lat="50.00627" lon="4.26428">
        <ele>295.4</ele>
        <time>2024-04-01T08:06:00Z</time>
      </trkpt>
      <trkpt lat="50.00623" lon="4.26422">
        <ele>295.4</ele>
        <time>2024-04-01T08:06:01Z</time>
      </trkpt>
      <trkpt lat="50.00619" lon="4.26417">
        <ele>295.8</ele>
        <time>2024-04-01T08:06:02Z</time>
      </trkpt>
      <trkpt lat="50.00615" lon="4.26411">
        <ele>296</ele>
        <time>2024-04-01T08:06:03Z</time>
      </trkpt>
      <trkpt lat="50.00611" lon="4.26405">
        <ele>296.2</ele>
        <time>2024-04-01T08:06:04Z</time>
      </trkpt>
      <trkpt lat="50.00607" lon="4.264">
        <ele>296.2</ele>
        <time>2024-04-01T08:06:05Z</time>
      </trkpt>
      <trkpt lat="50.00604" lon="4.26394">
        <ele>296.4</ele>
        <time>2024-04-01T08:06:06Z</time>
      </trkpt>
      <trkpt lat="50.006" lon="4.26389">
        <ele>296.4</ele>
        <time>2024-04-01T08:06:07Z</time>
      </trkpt>
      <trkpt lat="50.00596" lon="4.26383">
        <ele>296.4</ele>
        <time>2024-04-01T08:06:08Z</time>
      </trkpt>
      <trkpt lat="50.00592" lon="4.26378">
        <ele>296.4</ele>
        <time>2024-04-01T08:06:09Z</time>
      </trkpt>
      <trkpt lat="50.00588" lon="4.26372">
        <ele>296.4</ele>
        <time>2024-04-01T08:06:10Z</time>
      </trkpt>
      <trkpt lat="50.00584" lon="4.26367">
        <ele>296.6</ele>
        <time>2024-04-01T08:06:11Z</time>
      </trkpt>
      <trkpt lat="50.0058" lon="4.26361">
        <ele>296.6</ele>
        <time>2024-04-01T08:06:12Z</time>
      </trkpt>
      <trkpt lat="50.00577" lon="4.26356">
        <ele>296.8</ele>
        <time>2024-04-01T08:06:13Z</time>
      </trkpt>
      <trkpt lat="50.00573" lon="4.2635">
        <ele>297</ele>
        <time>2024-04-01T08:06:14Z</time>
      </trkpt>
      <trkpt lat="50.00569" lon="4.26344">
        <ele>297</ele>
        <time>2024-04-01T08:06:15Z</time>
      </trkpt>
      <trkpt lat="50.00565" lon="4.26339">
        <ele>297</ele>
        <time>2024-04-01T08:06:16Z</time>
      </trkpt>
      <trkpt lat="50.00561" lon="4.26334">
        <ele>297.2</ele>
        <time>2024-04-01T08:06:17Z</time>
      </trkpt>
      <trkpt lat="50.00557" lon="4.26329">
        <ele>297.2</ele>
        <time>2024-04-01T08:06:18Z</time>
      </trkpt>
      <trkpt lat="50.00553" lon="4.26324">
        <ele>297.4</ele>
        <time>2024-04-01T08:06:19Z</time>
      </trkpt>
      <trkpt lat="50.00549" lon="4.26319">
        <ele>297.4</ele>
        <time>2024-04-01T08:06:20Z</time>
      </trkpt>
      <trkpt lat="50.00544" lon="4.26314">
        <ele>297.4</ele>
        <time>2024-04-01T08:06:21Z</time>
      </trkpt>
      <trkpt lat="50.0054" lon="4.2631">
        <ele>297.8</ele>
        <time>2024-04-01T08:06:22Z</time>
      </trkpt>
      <trkpt lat="50.00536" lon="4.26305">
        <ele>297.6</ele>
        <time>2024-04-01T08:06:23Z</time>
      </trkpt>
      <trkpt lat="50.00532" lon="4.26301">
        <ele>298</ele>
        <time>2024-04-01T08:06:24Z</time>
      </trkpt>
      <trkpt lat="50.00527" lon="4.26297">
        <ele>298.2</ele>
        <time>2024-04-01T08:06:25Z</time>
      </trkpt>
      <trkpt lat="50.00523" lon="4.26293">
        <ele>298.2</ele>
        <time>2024-04-01T08:06:26Z</time>
      </trkpt>
      <trkpt lat="50.00519" lon="4.26289">
        <ele>298.2</ele>
        <time>2024-04-01T08:06:27Z</time>
      </trkpt>
      <trkpt lat="50.00515" lon="4.26285">
        <ele>298.4</ele>
        <time>2024-04-01T08:06:28Z</time>
      </trkpt>
      <trkpt lat="50.00511" lon="4.26281">
        <ele>298.6</ele>
        <time>2024-04-01T08:06:29Z</time>
      </trkpt>
      <trkpt lat="50.00507" lon="4.26277">
        <ele>298.6</ele>
        <time>2024-04-01T08:06:30Z</time>
      </trkpt>
      <trkpt lat="50.00503" lon="4.26273">
        <ele>299</ele>
        <time>2024-04-01T08:06:31Z</time>
      </trkpt>
      <trkpt lat="50.005" lon="4.2627">
        <ele>299</ele>
        <time>2024-04-01T08:06:32Z</time>
      </trkpt>
      <trkpt lat="50.00496" lon="4.26267">
        <ele>299</ele>
        <time>2024-04-01T08:06:33Z</time>
      </trkpt>
      <trkpt lat="50.00493" lon="4.26264">
        <ele>299</ele>
        <time>2024-04-01T08:06:34Z</time>
      </trkpt>
      <trkpt lat="50.00489" lon="4.2626">
        <ele>299</ele>
        <time>2024-04-01T08:06:35Z</time>
      </trkpt>
      <trkpt lat="50.00486" lon="4.26257">
        <ele>299.2</ele>
        <time>2024-04-01T08:06:36Z</time>
      </trkpt>
      <trkpt lat="50.00482" lon="4.26254">
        <ele>299.4</ele>
        <time>2024-04-01T08:06:37Z</time>
      </trkpt>
      <trkpt lat="50.00478" lon="4.2625">
        <ele>299.6</ele>
        <time>2024-04-01T08:06:38Z</time>
      </trkpt>
      <trkpt lat="50.00475" lon="4.26247">
        <ele>300</ele>
        <time>2024-04-01T08:06:39Z</time>
      </trkpt>
      <trkpt lat="50.00471" lon="4.26243">
        <ele>300</ele>
        <time>2024-04-01T08:06:40Z</time>
      </trkpt>
      <trkpt lat="50.00468" lon="4.2624">
        <ele>300</ele>
        <time>2024-04-01T08:06:41Z</time>
      </trkpt>
      <trkpt lat="50.00464" lon="4.26236">
        <ele>300.2</ele>
        <time>2024-04-01T08:06:42Z</time>
      </trkpt>
      <trkpt lat="50.00461" lon="4.26233">
        <ele>300.4</ele>
        <time>2024-04-01T08:06:43Z</time>
      </trkpt>
      <trkpt lat="50.00457" lon="4.26229">
        <ele>300.6</ele>
        <time>2024-04-01T08:06:44Z</time>
      </trkpt>
      <trkpt lat="50.00453" lon="4.26226">
        <ele>300.6</ele>
        <time>2024-04-01T08:06:45Z</time>
      </trkpt>
      <trkpt lat="50.00449" lon="4.26222">
        <ele>300.6</ele>
        <time>2024-04-01T08:06:46Z</time>
      </trkpt>
      <trkpt lat="50.00446" lon="4.26218">
        <ele>300.4</ele>
        <time>2024-04-01T08:06:47Z</time>
      </trkpt>
      <trkpt lat="50.00442" lon="4.26215">
        <ele>300.8</ele>
        <time>2024-04-01T08:06:48Z</time>
      </trkpt>
      <trkpt lat="50.00438" lon="4.26211">
        <ele>300.8</ele>
        <time>2024-04-01T08:06:49Z</time>
      </trkpt>
      <trkpt lat="50.00435" lon="4.26207">
        <ele>300.8</ele>
        <time>2024-04-01T08:06:50Z</time>
      </trkpt>
      <trkpt lat="50.00431" lon="4.26204">
        <ele>300.6</ele>
        <time>2024-04-01T08:06:51Z</time>
      </trkpt>
      <trkpt lat="50.00427" lon="4.262">
        <ele>301</ele>
        <time>2024-04-01T08:06:52Z</time>
      </trkpt>
      <trkpt lat="50.00424" lon="4.26196">
        <ele>301</ele>
        <time>2024-04-01T08:06:53Z</time>
      </trkpt>
      <trkpt lat="50.0042" lon="4.26193">
        <ele>301.2</ele>
        <time>2024-04-01T08:06:54Z</time>
      </trkpt>
      <trkpt lat="50.00416" lon="4.26189">
        <ele>301.4</ele>
        <time>2024-04-01T08:06:55Z</time>
      </trkpt>
      <trkpt lat="50.00413" lon="4.26186">
        <ele>301.8</ele>
        <time>2024-04-01T08:06:56Z</time>
      </trkpt>
      <trkpt lat="50.00409" lon="4.26182">
        <ele>301.8</ele>
        <time>2024-04-01T08:06:57Z</time>
      </trkpt>
      <trkpt lat="50.00405" lon="4.26178">
        <ele>302</ele>
        <time>2024-04-01T08:06:58Z</time>
      </trkpt>
      <trkpt lat="50.00402" lon="4.26175">
        <ele>302</ele>
        <time>2024-04-01T08:06:59Z</time>
      </trkpt>
      <trkpt lat="50.00398" lon="4.26172">
        <ele>302.2</ele>
        <time>2024-04-01T08:07:00Z</time>
      </trkpt>
      <trkpt lat="50.00394" lon="4.26168">
        <ele>302.4</ele>
        <time>2024-04-01T08:07:01Z</time>
      </trkpt>
      <trkpt lat="50.00391" lon="4.26165">
        <ele>302.4</ele>
        <time>2024-04-01T08:07:02Z</time>
      </trkpt>
      <trkpt lat="50.00387" lon="4.26162">
        <ele>302.6</ele>
        <time>2024-04-01T08:07:03Z</time>
      </trkpt>
      <trkpt lat="50.00383" lon="4.2616">
        <ele>302.6</ele>
        <time>2024-04-01T08:07:04Z</time>
      </trkpt>
      <trkpt lat="50.00378" lon="4.26159">
        <ele>302.8</ele>
        <time>2024-04-01T08:07:05Z</time>
      </trkpt>
      <trkpt lat="50.00374" lon="4.26158">
        <ele>302.8</ele>
        <time>2024-04-01T08:07:06Z</time>
      </trkpt>
      <trkpt lat="50.0037" lon="4.26157">
        <ele>303.4</ele>
        <time>2024-04-01T08:07:07Z</time>
      </trkpt>
      <trkpt lat="50.00365" lon="4.26157">
        <ele>303.6</ele>
        <time>2024-04-01T08:07:08Z</time>
      </trkpt>
      <trkpt lat="50.00361" lon="4.26157">
        <ele>303.8</ele>
        <time>2024-04-01T08:07:09Z</time>
      </trkpt>
      <trkpt lat="50.00356" lon="4.26157">
        <ele>304</ele>
        <time>2024-04-01T08:07:10Z</time>
      </trkpt>
      <trkpt lat="50.00352" lon="4.26157">
        <ele>304.2</ele>
        <time>2024-04-01T08:07:11Z</time>
      </trkpt>
      <trkpt lat="50.00347" lon="4.26158">
        <ele>304.2</ele>
        <time>2024-04-01T08:07:12Z</time>
      </trkpt>
      <trkpt lat="50.00343" lon="4.26159">
        <ele>304.2</ele>
        <time>2024-04-01T08:07:13Z</time>
      </trkpt>
      <trkpt lat="50.00338" lon="4.26159">
        <ele>304.4</ele>
        <time>2024-04-01T08:07:14Z</time>
      </trkpt>
      <trkpt lat="50.00334" lon="4.2616">
        <ele>304.6</ele>
        <time>2024-04-01T08:07:15Z</time>
      </trkpt>
      <trkpt lat="50.0033" lon="4.2616">
        <ele>304.6</ele>
        <time>2024-04-01T08:07:16Z</time>
      </trkpt>
      <trkpt lat="50.00326" lon="4.2616">
        <ele>304.6</ele>
        <time>2024-04-01T08:07:17Z</time>
      </trkpt>
      <trkpt lat="50.00322" lon="4.26161">
        <ele>304.6</ele>
        <time>2024-04-01T08:07:18Z</time>
      </trkpt>
      <trkpt lat="50.00318" lon="4.26161">
        <ele>304.8</ele>
        <time>2024-04-01T08:07:19Z</time>
      </trkpt>
      <trkpt lat="50.00313" lon="4.26162">
        <ele>304.8</ele>
        <time>2024-04-01T08:07:20Z</time>
      </trkpt>
      <trkpt lat="50.00309" lon="4.26163">
        <ele>305</ele>
        <time>2024-04-01T08:07:21Z</time>
      </trkpt>
      <trkpt lat="50.00305" lon="4.26164">
        <ele>305</ele>
        <time>2024-04-01T08:07:22Z</time>
      </trkpt>
      <trkpt lat="50.00301" lon="4.26164">
        <ele>305</ele>
        <time>2024-04-01T08:07:23Z</time>
      </trkpt>
      <trkpt lat="50.00296" lon="4.26165">
        <ele>305.4</ele>
        <time>2024-04-01T08:07:24Z</time>
      </trkpt>
      <trkpt lat="50.00292" lon="4.26165">
        <ele>305.4</ele>
        <time>2024-04-01T08:07:25Z</time>
      </trkpt>
      <trkpt lat="50.00287" lon="4.26165">
        <ele>305.8</ele>
        <time>2024-04-01T08:07:26Z</time>
      </trkpt>
      <trkpt lat="50.00281" lon="4.26165">
        <ele>306</ele>
        <time>2024-04-01T08:07:27Z</time>
      </trkpt>
      <trkpt lat="50.00276" lon="4.26166">
        <ele>306</ele>
        <time>2024-04-01T08:07:28Z</time>
      </trkpt>
      <trkpt lat="50.00271" lon="4.26166">
        <ele>306</ele>
        <time>2024-04-01T08:07:29Z</time>
      </trkpt>
      <trkpt lat="50.00266" lon="4.26166">
        <ele>306</ele>
        <time>2024-04-01T08:07:30Z</time>
      </trkpt>
      <trkpt lat="50.00261" lon="4.26166">
        <ele>306</ele>
        <time>2024-04-01T08:07:31Z</time>
      </trkpt>
      <trkpt lat="50.00255" lon="4.26167">
        <ele>306</ele>
        <time>2024-04-01T08:07:32Z</time>
      </trkpt>
      <trkpt lat="50.0025" lon="4.26168">
        <ele>306</ele>
        <time>2024-04-01T08:07:33Z</time>
      </trkpt>
      <trkpt lat="50.00244" lon="4.26168">
        <ele>306</ele>
        <time>2024-04-01T08:07:34Z</time>
      </trkpt>
      <trkpt lat="50.00239" lon="4.26169">
        <ele>306</ele>
        <time>2024-04-01T08:07:35Z</time>
      </trkpt>
      <trkpt lat="50.00233" lon="4.2617">
        <ele>306</ele>
        <time>2024-04-01T08:07:36Z</time>
      </trkpt>
      <trkpt lat="50.00228" lon="4.26171">
        <ele>306</ele>
        <time>2024-04-01T08:07:37Z</time>
      </trkpt>
      <trkpt lat="50.00222" lon="4.26173">
        <ele>306</ele>
        <time>2024-04-01T08:07:38Z</time>
      </trkpt>
      <trkpt lat="50.00217" lon="4.26174">
        <ele>306</ele>
        <time>2024-04-01T08:07:39Z</time>
      </trkpt>
      <trkpt lat="50.00212" lon="4.26175">
        <ele>306</ele>
        <time>2024-04-01T08:07:40Z</time>
      </trkpt>
      <trkpt lat="50.00206" lon="4.26177">
        <ele>305.8</ele>
        <time>2024-04-01T08:07:41Z</time>
      </trkpt>
      <trkpt lat="50.002" lon="4.26179">
        <ele>306</ele>
        <time>2024-04-01T08:07:42Z</time>
      </trkpt>
      <trkpt lat="50.00195" lon="4.26181">
        <ele>306</ele>
        <time>2024-04-01T08:07:43Z</time>
      </trkpt>
      <trkpt lat="50.00189" lon="4.26184">
        <ele>306</ele>
        <time>2024-04-01T08:07:44Z</time>
      </trkpt>
      <trkpt lat="50.00183" lon="4.26186">
        <ele>305.8</ele>
        <time>2024-04-01T08:07:45Z</time>
      </trkpt>
      <trkpt lat="50.00177" lon="4.26188">
        <ele>305.6</ele>
        <time>2024-04-01T08:07:46Z</time>
      </trkpt>
      <trkpt lat="50.00171" lon="4.2619">
        <ele>305.4</ele>
        <time>2024-04-01T08:07:47Z</time>
      </trkpt>
      <trkpt lat="50.00165" lon="4.26192">
        <ele>305.4</ele>
        <time>2024-04-01T08:07:48Z</time>
      </trkpt>
      <trkpt lat="50.00159" lon="4.26194">
        <ele>305.4</ele>
        <time>2024-04-01T08:07:49Z</time>
      </trkpt>
      <trkpt lat="50.00153" lon="4.26196">
        <ele>305.4</ele>
        <time>2024-04-01T08:07:50Z</time>
      </trkpt>
      <trkpt lat="50.00148" lon="4.26198">
        <ele>305.4</ele>
        <time>2024-04-01T08:07:51Z</time>
      </trkpt>
      <trkpt lat="50.00142" lon="4.26201">
        <ele>305.4</ele>
        <time>2024-04-01T08:07:52Z</time>
      </trkpt>
      <trkpt lat="50.00136" lon="4.26204">
        <ele>305.4</ele>
        <time>2024-04-01T08:07:53Z</time>
      </trkpt>
      <trkpt lat="50.0013" lon="4.26208">
        <ele>305.4</ele>
        <time>2024-04-01T08:07:54Z</time>
      </trkpt>
      <trkpt lat="50.00125" lon="4.26212">
        <ele>305</ele>
        <time>2024-04-01T08:07:55Z</time>
      </trkpt>
      <trkpt lat="50.00119" lon="4.26217">
        <ele>304.8</ele>
        <time>2024-04-01T08:07:56Z</time>
      </trkpt>
      <trkpt lat="50.00113" lon="4.26222">
        <ele>304.8</ele>
        <time>2024-04-01T08:07:57Z</time>
      </trkpt>
      <trkpt lat="50.00108" lon="4.26227">
        <ele>304.4</ele>
        <time>2024-04-01T08:07:58Z</time>
      </trkpt>
      <trkpt lat="50.00103" lon="4.26232">
        <ele>304</ele>
        <time>2024-04-01T08:07:59Z</time>
      </trkpt>
      <trkpt lat="50.00097" lon="4.26237">
        <ele>303.8</ele>
        <time>2024-04-01T08:08:00Z</time>
      </trkpt>
      <trkpt lat="50.00092" lon="4.26243">
        <ele>303.8</ele>
        <time>2024-04-01T08:08:01Z</time>
      </trkpt>
      <trkpt lat="50.00087" lon="4.26249">
        <ele>303.6</ele>
        <time>2024-04-01T08:08:02Z</time>
      </trkpt>
      <trkpt lat="50.00082" lon="4.26255">
        <ele>303.4</ele>
        <time>2024-04-01T08:08:03Z</time>
      </trkpt>
      <trkpt lat="50.00077" lon="4.26261">
        <ele>303.2</ele>
        <time>2024-04-01T08:08:04Z</time>
      </trkpt>
      <trkpt lat="50.00072" lon="4.26267">
        <ele>303</ele>
        <time>2024-04-01T08:08:05Z</time>
      </trkpt>
      <trkpt lat="50.00068" lon="4.26273">
        <ele>303</ele>
        <time>2024-04-01T08:08:06Z</time>
      </trkpt>
      <trkpt lat="50.00063" lon="4.2628">
        <ele>303</ele>
        <time>2024-04-01T08:08:07Z</time>
      </trkpt>
      <trkpt lat="50.00058" lon="4.26286">
        <ele>302.8</ele>
        <time>2024-04-01T08:08:08Z</time>
      </trkpt>
      <trkpt lat="50.00053" lon="4.26292">
        <ele>302.8</ele>
        <time>2024-04-01T08:08:09Z</time>
      </trkpt>
      <trkpt lat="50.00048" lon="4.26299">
        <ele>302.8</ele>
        <time>2024-04-01T08:08:10Z</time>
      </trkpt>
      <trkpt lat="50.00044" lon="4.26305">
        <ele>302.6</ele>
        <time>2024-04-01T08:08:11Z</time>
      </trkpt>
      <trkpt lat="50.00039" lon="4.26312">
        <ele>302.6</ele>
        <time>2024-04-01T08:08:12Z</time>
      </trkpt>
      <trkpt lat="50.00035" lon="4.26319">
        <ele>302.6</ele>
        <time>2024-04-01T08:08:13Z</time>
      </trkpt>
      <trkpt lat="50.00031" lon="4.26326">
        <ele>302.6</ele>
        <time>2024-04-01T08:08:14Z</time>
      </trkpt>
      <trkpt lat="50.00026" lon="4.26333">
        <ele>302.6</ele>
        <time>2024-04-01T08:08:15Z</time>
      </trkpt>
      <trkpt lat="50.00022" lon="4.26339">
        <ele>302.6</ele>
        <time>2024-04-01T08:08:16Z</time>
      </trkpt>
      <trkpt lat="50.00018" lon="4.26346">
        <ele>302.6</ele>
        <time>2024-04-01T08:08:17Z</time>
      </trkpt>
      <trkpt lat="50.00013" lon="4.26353">
        <ele>302.6</ele>
        <time>2024-04-01T08:08:18Z</time>
      </trkpt>
      <trkpt lat="50.00009" lon="4.26361">
        <ele>302.6</ele>
        <time>2024-04-01T08:08:19Z</time>
      </trkpt>
      <trkpt lat="50.00004" lon="4.26368">
        <ele>302.6</ele>
        <time>2024-04-01T08:08:20Z</time>
      </trkpt>
      <trkpt lat="49.99999" lon="4.26374">
        <ele>302.4</ele>
        <time>2024-04-01T08:08:21Z</time>
      </trkpt>
      <trkpt lat="49.99995" lon="4.26381">
        <ele>302.6</ele>
        <time>2024-04-01T08:08:22Z</time>
      </trkpt>
      <trkpt lat="49.99991" lon="4.26387">
        <ele>302.4</ele>
        <time>2024-04-01T08:08:23Z</time>
      </trkpt>
      <trkpt lat="49.99986" lon="4.26394">
        <ele>302.2</ele>
        <time>2024-04-01T08:08:24Z</time>
      </trkpt>
      <trkpt lat="49.99981" lon="4.26399">
        <ele>302.2</ele>
        <time>2024-04-01T08:08:25Z</time>
      </trkpt>
      <trkpt lat="49.99977" lon="4.26404">
        <ele>302.2</ele>
        <time>2024-04-01T08:08:26Z</time>
      </trkpt>
      <trkpt lat="49.99972" lon="4.2641">
        <ele>302.2</ele>
        <time>2024-04-01T08:08:27Z</time>
      </trkpt>
      <trkpt lat="49.99967" lon="4.26414">
        <ele>302.2</ele>
        <time>2024-04-01T08:08:28Z</time>
      </trkpt>
      <trkpt lat="49.99962" lon="4.26419">
        <ele>302.2</ele>
        <time>2024-04-01T08:08:29Z</time>
      </trkpt>
      <trkpt lat="49.99957" lon="4.26423">
        <ele>302.2</ele>
        <time>2024-04-01T08:08:30Z</time>
      </trkpt>
      <trkpt lat="49.99953" lon="4.26427">
        <ele>302.2</ele>
        <time>2024-04-01T08:08:31Z</time>
      </trkpt>
      <trkpt lat="49.99948" lon="4.26431">
        <ele>302.2</ele>
        <time>2024-04-01T08:08:32Z</time>
      </trkpt>
      <trkpt lat="49.99943" lon="4.26435">
        <ele>302.2</ele>
        <time>2024-04-01T08:08:33Z</time>
      </trkpt>
      <trkpt lat="49.99937" lon="4.2644">
        <ele>302.2</ele>
        <time>2024-04-01T08:08:34Z</time>
      </trkpt>
      <trkpt lat="49.99931" lon="4.26445">
        <ele>302.4</ele>
        <time>2024-04-01T08:08:35Z</time>
      </trkpt>
      <trkpt lat="49.99926" lon="4.26449">
        <ele>302.2</ele>
        <time>2024-04-01T08:08:36Z</time>
      </trkpt>
      <trkpt lat="49.9992" lon="4.26453">
        <ele>302.2</ele>
        <time>2024-04-01T08:08:37Z</time>
      </trkpt>
      <trkpt lat="49.99915" lon="4.26457">
        <ele>302.2</ele>
        <time>2024-04-01T08:08:38Z</time>
      </trkpt>
      <trkpt lat="49.99909" lon="4.26462">
        <ele>302.2</ele>
        <time>2024-04-01T08:08:39Z</time>
      </trkpt>
      <trkpt lat="49.99903" lon="4.26467">
        <ele>302.2</ele>
        <time>2024-04-01T08:08:40Z</time>
      </trkpt>
      <trkpt lat="49.99898" lon="4.26471">
        <ele>302.4</ele>
        <time>2024-04-01T08:08:41Z</time>
      </trkpt>
      <trkpt lat="49.99892" lon="4.26476">
        <ele>302.4</ele>
        <time>2024-04-01T08:08:42Z</time>
      </trkpt>
      <trkpt lat="49.99887" lon="4.2648">
        <ele>302.4</ele>
        <time>2024-04-01T08:08:43Z</time>
      </trkpt>
      <trkpt lat="49.99881" lon="4.26485">
        <ele>302.6</ele>
        <time>2024-04-01T08:08:44Z</time>
      </trkpt>
      <trkpt lat="49.99876" lon="4.26489">
        <ele>303.2</ele>
        <time>2024-04-01T08:08:45Z</time>
      </trkpt>
      <trkpt lat="49.99871" lon="4.26494">
        <ele>303.6</ele>
        <time>2024-04-01T08:08:46Z</time>
      </trkpt>
      <trkpt lat="49.99866" lon="4.26499">
        <ele>303.6</ele>
        <time>2024-04-01T08:08:47Z</time>
      </trkpt>
      <trkpt lat="49.99861" lon="4.26504">
        <ele>303.8</ele>
        <time>2024-04-01T08:08:48Z</time>
      </trkpt>
      <trkpt lat="49.99855" lon="4.26509">
        <ele>304.2</ele>
        <time>2024-04-01T08:08:49Z</time>
      </trkpt>
      <trkpt lat="49.9985" lon="4.26514">
        <ele>304.2</ele>
        <time>2024-04-01T08:08:50Z</time>
      </trkpt>
      <trkpt lat="49.99844" lon="4.26519">
        <ele>304.2</ele>
        <time>2024-04-01T08:08:51Z</time>
      </trkpt>
      <trkpt lat="49.99838" lon="4.26525">
        <ele>304.2</ele>
        <time>2024-04-01T08:08:52Z</time>
      </trkpt>
      <trkpt lat="49.99833" lon="4.2653">
        <ele>304</ele>
        <time>2024-04-01T08:08:53Z</time>
      </trkpt>
      <trkpt lat="49.99827" lon="4.26535">
        <ele>304.2</ele>
        <time>2024-04-01T08:08:54Z</time>
      </trkpt>
      <trkpt lat="49.99822" lon="4.2654">
        <ele>304.2</ele>
        <time>2024-04-01T08:08:55Z</time>
      </trkpt>
      <trkpt lat="49.99817" lon="4.26545">
        <ele>304</ele>
        <time>2024-04-01T08:08:56Z</time>
      </trkpt>
      <trkpt lat="49.99811" lon="4.2655">
        <ele>304.2</ele>
        <time>2024-04-01T08:08:57Z</time>
      </trkpt>
      <trkpt lat="49.99806" lon="4.26554">
        <ele>303.8</ele>
        <time>2024-04-01T08:08:58Z</time>
      </trkpt>
      <trkpt lat="49.998" lon="4.26558">
        <ele>303.6</ele>
        <time>2024-04-01T08:08:59Z</time>
      </trkpt>
      <trkpt lat="49.99795" lon="4.26562">
        <ele>303.4</ele>
        <time>2024-04-01T08:09:00Z</time>
      </trkpt>
      <trkpt lat="49.99789" lon="4.26566">
        <ele>303.4</ele>
        <time>2024-04-01T08:09:01Z</time>
      </trkpt>
      <trkpt lat="49.99784" lon="4.2657">
        <ele>303.4</ele>
        <time>2024-04-01T08:09:02Z</time>
      </trkpt>
      <trkpt lat="49.99778" lon="4.26574">
        <ele>303</ele>
        <time>2024-04-01T08:09:03Z</time>
      </trkpt>
      <trkpt lat="49.99772" lon="4.26578">
        <ele>302.8</ele>
        <time>2024-04-01T08:09:04Z</time>
      </trkpt>
      <trkpt lat="49.99766" lon="4.26582">
        <ele>303</ele>
        <time>2024-04-01T08:09:05Z</time>
      </trkpt>
      <trkpt lat="49.99759" lon="4.26586">
        <ele>302.6</ele>
        <time>2024-04-01T08:09:06Z</time>
      </trkpt>
      <trkpt lat="49.99753" lon="4.2659">
        <ele>302.8</ele>
        <time>2024-04-01T08:09:07Z</time>
      </trkpt>
      <trkpt lat="49.99747" lon="4.26593">
        <ele>302.6</ele>
        <time>2024-04-01T08:09:08Z</time>
      </trkpt>
      <trkpt lat="49.99741" lon="4.26596">
        <ele>302.6</ele>
        <time>2024-04-01T08:09:09Z</time>
      </trkpt>
      <trkpt lat="49.99736" lon="4.266">
        <ele>302.6</ele>
        <time>2024-04-01T08:09:10Z</time>
      </trkpt>
      <trkpt lat="49.9973" lon="4.26603">
        <ele>302.4</ele>
        <time>2024-04-01T08:09:11Z</time>
      </trkpt>
      <trkpt lat="49.99725" lon="4.26606">
        <ele>302.4</ele>
        <time>2024-04-01T08:09:12Z</time>
      </trkpt>
      <trkpt lat="49.99719" lon="4.26608">
        <ele>302</ele>
        <time>2024-04-01T08:09:13Z</time>
      </trkpt>
      <trkpt lat="49.99713" lon="4.26611">
        <ele>301.8</ele>
        <time>2024-04-01T08:09:14Z</time>
      </trkpt>
      <trkpt lat="49.99708" lon="4.26614">
        <ele>301.4</ele>
        <time>2024-04-01T08:09:15Z</time>
      </trkpt>
      <trkpt lat="49.99702" lon="4.26617">
        <ele>301.2</ele>
        <time>2024-04-01T08:09:16Z</time>
      </trkpt>
      <trkpt lat="49.99696" lon="4.26621">
        <ele>300.8</ele>
        <time>2024-04-01T08:09:17Z</time>
      </trkpt>
      <trkpt lat="49.9969" lon="4.26625">
        <ele>300.6</ele>
        <time>2024-04-01T08:09:18Z</time>
      </trkpt>
      <trkpt lat="49.99683" lon="4.26628">
        <ele>300.6</ele>
        <time>2024-04-01T08:09:19Z</time>
      </trkpt>
      <trkpt lat="49.99677" lon="4.26632">
        <ele>300.6</ele>
        <time>2024-04-01T08:09:20Z</time>
      </trkpt>
      <trkpt lat="49.99669" lon="4.26637">
        <ele>300.4</ele>
        <time>2024-04-01T08:09:21Z</time>
      </trkpt>
      <trkpt lat="49.99663" lon="4.2664">
        <ele>300.2</ele>
        <time>2024-04-01T08:09:22Z</time>
      </trkpt>
      <trkpt lat="49.99656" lon="4.26644">
        <ele>299.8</ele>
        <time>2024-04-01T08:09:23Z</time>
      </trkpt>
      <trkpt lat="49.99647" lon="4.26648">
        <ele>299.6</ele>
        <time>2024-04-01T08:09:24Z</time>
      </trkpt>
      <trkpt lat="49.99639" lon="4.26651">
        <ele>299</ele>
        <time>2024-04-01T08:09:25Z</time>
      </trkpt>
      <trkpt lat="49.99632" lon="4.26655">
        <ele>298.6</ele>
        <time>2024-04-01T08:09:26Z</time>
      </trkpt>
      <trkpt lat="49.99624" lon="4.26659">
        <ele>297.8</ele>
        <time>2024-04-01T08:09:27Z</time>
      </trkpt>
      <trkpt lat="49.99616" lon="4.26663">
        <ele>297</ele>
        <time>2024-04-01T08:09:28Z</time>
      </trkpt>
      <trkpt lat="49.99608" lon="4.26667">
        <ele>296.4</ele>
        <time>2024-04-01T08:09:29Z</time>
      </trkpt>
      <trkpt lat="49.99599" lon="4.2667">
        <ele>295.8</ele>
        <time>2024-04-01T08:09:30Z</time>
      </trkpt>
      <trkpt lat="49.99592" lon="4.26674">
        <ele>295</ele>
        <time>2024-04-01T08:09:31Z</time>
      </trkpt>
      <trkpt lat="49.99583" lon="4.26678">
        <ele>294</ele>
        <time>2024-04-01T08:09:32Z</time>
      </trkpt>
      <trkpt lat="49.99574" lon="4.26683">
        <ele>293</ele>
        <time>2024-04-01T08:09:33Z</time>
      </trkpt>
      <trkpt lat="49.99566" lon="4.26687">
        <ele>292.2</ele>
        <time>2024-04-01T08:09:34Z</time>
      </trkpt>
      <trkpt lat="49.99558" lon="4.26691">
        <ele>291.6</ele>
        <time>2024-04-01T08:09:35Z</time>
      </trkpt>
      <trkpt lat="49.99547" lon="4.26697">
        <ele>291.6</ele>
        <time>2024-04-01T08:09:36Z</time>
      </trkpt>
      <trkpt lat="49.99533" lon="4.26703">
        <ele>291.6</ele>
        <time>2024-04-01T08:09:37Z</time>
      </trkpt>
      <trkpt lat="49.99522" lon="4.2671">
        <ele>291</ele>
        <time>2024-04-01T08:09:38Z</time>
      </trkpt>
      <trkpt lat="49.9951" lon="4.2672">
        <ele>290.2</ele>
        <time>2024-04-01T08:09:39Z</time>
      </trkpt>
      <trkpt lat="49.99499" lon="4.26731">
        <ele>289.2</ele>
        <time>2024-04-01T08:09:40Z</time>
      </trkpt>
      <trkpt lat="49.99488" lon="4.26743">
        <ele>288.6</ele>
        <time>2024-04-01T08:09:41Z</time>
      </trkpt>
      <trkpt lat="49.99481" lon="4.26757">
        <ele>288</ele>
        <time>2024-04-01T08:09:42Z</time>
      </trkpt>
      <trkpt lat="49.99475" lon="4.26772">
        <ele>287.2</ele>
        <time>2024-04-01T08:09:43Z</time>
      </trkpt>
      <trkpt lat="49.9947" lon="4.26788">
        <ele>286.4</ele>
        <time>2024-04-01T08:09:44Z</time>
      </trkpt>
      <trkpt lat="49.99467" lon="4.26804">
        <ele>285.4</ele>
        <time>2024-04-01T08:09:45Z</time>
      </trkpt>
      <trkpt lat="49.99463" lon="4.2682">
        <ele>285</ele>
        <time>2024-04-01T08:09:46Z</time>
      </trkpt>
      <trkpt lat="49.99459" lon="4.26836">
        <ele>284.2</ele>
        <time>2024-04-01T08:09:47Z</time>
      </trkpt>
      <trkpt lat="49.99455" lon="4.26853">
        <ele>283.8</ele>
        <time>2024-04-01T08:09:48Z</time>
      </trkpt>
      <trkpt lat="49.99452" lon="4.26869">
        <ele>283</ele>
        <time>2024-04-01T08:09:49Z</time>
      </trkpt>
      <trkpt lat="49.99448" lon="4.26886">
        <ele>282.2</ele>
        <time>2024-04-01T08:09:50Z</time>
      </trkpt>
      <trkpt lat="49.99444" lon="4.26902">
        <ele>281</ele>
        <time>2024-04-01T08:09:51Z</time>
      </trkpt>
      <trkpt lat="49.99438" lon="4.26918">
        <ele>279.8</ele>
        <time>2024-04-01T08:09:52Z</time>
      </trkpt>
      <trkpt lat="49.99434" lon="4.26935">
        <ele>279.8</ele>
        <time>2024-04-01T08:09:53Z</time>
      </trkpt>
      <trkpt lat="49.9943" lon="4.26951">
        <ele>278.2</ele>
        <time>2024-04-01T08:09:54Z</time>
      </trkpt>
      <trkpt lat="49.99425" lon="4.26966">
        <ele>277.2</ele>
        <time>2024-04-01T08:09:55Z</time>
      </trkpt>
      <trkpt lat="49.9942" lon="4.26981">
        <ele>275.8</ele>
        <time>2024-04-01T08:09:56Z</time>
      </trkpt>
      <trkpt lat="49.99414" lon="4.26996">
        <ele>275.2</ele>
        <time>2024-04-01T08:09:57Z</time>
      </trkpt>
      <trkpt lat="49.99408" lon="4.27011">
        <ele>274.2</ele>
        <time>2024-04-01T08:09:58Z</time>
      </trkpt>
      <trkpt lat="49.99401" lon="4.27025">
        <ele>273.4</ele>
        <time>2024-04-01T08:09:59Z</time>
      </trkpt>
      <trkpt lat="49.99392" lon="4.2704">
        <ele>272.6</ele>
        <time>2024-04-01T08:10:00Z</time>
      </trkpt>
      <trkpt lat="49.99383" lon="4.27055">
        <ele>272.4</ele>
        <time>2024-04-01T08:10:01Z</time>
      </trkpt>
      <trkpt lat="49.99373" lon="4.2707">
        <ele>271.8</ele>
        <time>2024-04-01T08:10:02Z</time>
      </trkpt>
      <trkpt lat="49.99363" lon="4.27083">
        <ele>271.4</ele>
        <time>2024-04-01T08:10:03Z</time>
      </trkpt>
      <trkpt lat="49.99353" lon="4.27097">
        <ele>271.4</ele>
        <time>2024-04-01T08:10:04Z</time>
      </trkpt>
      <trkpt lat="49.99342" lon="4.2711">
        <ele>270.8</ele>
        <time>2024-04-01T08:10:05Z</time>
      </trkpt>
      <trkpt lat="49.99332" lon="4.27124">
        <ele>270.2</ele>
        <time>2024-04-01T08:10:06Z</time>
      </trkpt>
      <trkpt lat="49.99323" lon="4.27137">
        <ele>269.4</ele>
        <time>2024-04-01T08:10:07Z</time>
      </trkpt>
      <trkpt lat="49.99314" lon="4.27149">
        <ele>268.2</ele>
        <time>2024-04-01T08:10:08Z</time>
      </trkpt>
      <trkpt lat="49.99305" lon="4.27161">
        <ele>267.4</ele>
        <time>2024-04-01T08:10:09Z</time>
      </trkpt>
      <trkpt lat="49.99296" lon="4.27172">
        <ele>267.4</ele>
        <time>2024-04-01T08:10:10Z</time>
      </trkpt>
      <trkpt lat="49.99286" lon="4.27183">
        <ele>266.2</ele>
        <time>2024-04-01T08:10:11Z</time>
      </trkpt>
      <trkpt lat="49.99277" lon="4.27195">
        <ele>264.8</ele>
        <time>2024-04-01T08:10:12Z</time>
      </trkpt>
      <trkpt lat="49.9927" lon="4.27205">
        <ele>264.4</ele>
        <time>2024-04-01T08:10:13Z</time>
      </trkpt>
      <trkpt lat="49.99263" lon="4.27215">
        <ele>264.4</ele>
        <time>2024-04-01T08:10:14Z</time>
      </trkpt>
      <trkpt lat="49.99255" lon="4.27224">
        <ele>264</ele>
        <time>2024-04-01T08:10:15Z</time>
      </trkpt>
      <trkpt lat="49.99248" lon="4.27233">
        <ele>264</ele>
        <time>2024-04-01T08:10:16Z</time>
      </trkpt>
      <trkpt lat="49.99241" lon="4.27241">
        <ele>264.2</ele>
        <time>2024-04-01T08:10:17Z</time>
      </trkpt>
      <trkpt lat="49.99234" lon="4.27249">
        <ele>264</ele>
        <time>2024-04-01T08:10:18Z</time>
      </trkpt>
      <trkpt lat="49.99227" lon="4.27256">
        <ele>264</ele>
        <time>2024-04-01T08:10:19Z</time>
      </trkpt>
      <trkpt lat="49.99219" lon="4.27263">
        <ele>264</ele>
        <time>2024-04-01T08:10:20Z</time>
      </trkpt>
      <trkpt lat="49.99212" lon="4.2727">
        <ele>264</ele>
        <time>2024-04-01T08:10:21Z</time>
      </trkpt>
      <trkpt lat="49.99207" lon="4.27277">
        <ele>264</ele>
        <time>2024-04-01T08:10:22Z</time>
      </trkpt>
      <trkpt lat="49.99201" lon="4.27284">
        <ele>264.2</ele>
        <time>2024-04-01T08:10:23Z</time>
      </trkpt>
      <trkpt lat="49.99195" lon="4.2729">
        <ele>264.6</ele>
        <time>2024-04-01T08:10:24Z</time>
      </trkpt>
      <trkpt lat="49.9919" lon="4.27297">
        <ele>265.2</ele>
        <time>2024-04-01T08:10:25Z</time>
      </trkpt>
      <trkpt lat="49.99185" lon="4.27303">
        <ele>265.2</ele>
        <time>2024-04-01T08:10:26Z</time>
      </trkpt>
      <trkpt lat="49.9918" lon="4.2731">
        <ele>265.8</ele>
        <time>2024-04-01T08:10:27Z</time>
      </trkpt>
      <trkpt lat="49.99175" lon="4.27317">
        <ele>266.4</ele>
        <time>2024-04-01T08:10:28Z</time>
      </trkpt>
      <trkpt lat="49.9917" lon="4.27323">
        <ele>266.8</ele>
        <time>2024-04-01T08:10:29Z</time>
      </trkpt>
      <trkpt lat="49.99165" lon="4.27329">
        <ele>267.2</ele>
        <time>2024-04-01T08:10:30Z</time>
      </trkpt>
      <trkpt lat="49.99161" lon="4.27335">
        <ele>267.6</ele>
        <time>2024-04-01T08:10:31Z</time>
      </trkpt>
      <trkpt lat="49.99156" lon="4.27341">
        <ele>267.8</ele>
        <time>2024-04-01T08:10:32Z</time>
      </trkpt>
      <trkpt lat="49.99152" lon="4.27347">
        <ele>268.2</ele>
        <time>2024-04-01T08:10:33Z</time>
      </trkpt>
      <trkpt lat="49.99148" lon="4.27353">
        <ele>268.8</ele>
        <time>2024-04-01T08:10:34Z</time>
      </trkpt>
      <trkpt lat="49.99144" lon="4.27359">
        <ele>269.4</ele>
        <time>2024-04-01T08:10:35Z</time>
      </trkpt>
      <trkpt lat="49.9914" lon="4.27364">
        <ele>269.6</ele>
        <time>2024-04-01T08:10:36Z</time>
      </trkpt>
      <trkpt lat="49.99135" lon="4.2737">
        <ele>269.8</ele>
        <time>2024-04-01T08:10:37Z</time>
      </trkpt>
      <trkpt lat="49.99131" lon="4.27376">
        <ele>270</ele>
        <time>2024-04-01T08:10:38Z</time>
      </trkpt>
      <trkpt lat="49.99127" lon="4.27381">
        <ele>270.2</ele>
        <time>2024-04-01T08:10:39Z</time>
      </trkpt>
      <trkpt lat="49.99123" lon="4.27387">
        <ele>270.4</ele>
        <time>2024-04-01T08:10:40Z</time>
      </trkpt>
      <trkpt lat="49.99119" lon="4.27392">
        <ele>271</ele>
        <time>2024-04-01T08:10:41Z</time>
      </trkpt>
      <trkpt lat="49.99115" lon="4.27398">
        <ele>271.2</ele>
        <time>2024-04-01T08:10:42Z</time>
      </trkpt>
      <trkpt lat="49.99111" lon="4.27404">
        <ele>271.2</ele>
        <time>2024-04-01T08:10:43Z</time>
      </trkpt>
      <trkpt lat="49.99107" lon="4.27409">
        <ele>271.8</ele>
        <time>2024-04-01T08:10:44Z</time>
      </trkpt>
      <trkpt lat="49.99103" lon="4.27415">
        <ele>272.2</ele>
        <time>2024-04-01T08:10:45Z</time>
      </trkpt>
      <trkpt lat="49.99099" lon="4.2742">
        <ele>272.2</ele>
        <time>2024-04-01T08:10:46Z</time>
      </trkpt>
      <trkpt lat="49.99095" lon="4.27425">
        <ele>272.6</ele>
        <time>2024-04-01T08:10:47Z</time>
      </trkpt>
      <trkpt lat="49.99091" lon="4.2743">
        <ele>273.2</ele>
        <time>2024-04-01T08:10:48Z</time>
      </trkpt>
      <trkpt lat="49.99087" lon="4.27435">
        <ele>273.4</ele>
        <time>2024-04-01T08:10:49Z</time>
      </trkpt>
      <trkpt lat="49.99083" lon="4.2744">
        <ele>273.6</ele>
        <time>2024-04-01T08:10:50Z</time>
      </trkpt>
      <trkpt lat="49.9908" lon="4.27445">
        <ele>273.8</ele>
        <time>2024-04-01T08:10:51Z</time>
      </trkpt>
      <trkpt lat="49.99076" lon="4.2745">
        <ele>274.2</ele>
        <time>2024-04-01T08:10:52Z</time>
      </trkpt>
      <trkpt lat="49.99073" lon="4.27455">
        <ele>274.6</ele>
        <time>2024-04-01T08:10:53Z</time>
      </trkpt>
      <trkpt lat="49.99069" lon="4.27459">
        <ele>274.8</ele>
        <time>2024-04-01T08:10:54Z</time>
      </trkpt>
      <trkpt lat="49.99066" lon="4.27464">
        <ele>275</ele>
        <time>2024-04-01T08:10:55Z</time>
      </trkpt>
      <trkpt lat="49.99062" lon="4.27468">
        <ele>275.2</ele>
        <time>2024-04-01T08:10:56Z</time>
      </trkpt>
      <trkpt lat="49.99059" lon="4.27473">
        <ele>275.6</ele>
        <time>2024-04-01T08:10:57Z</time>
      </trkpt>
      <trkpt lat="49.99055" lon="4.27477">
        <ele>275.8</ele>
        <time>2024-04-01T08:10:58Z</time>
      </trkpt>
      <trkpt lat="49.99052" lon="4.27482">
        <ele>275.8</ele>
        <time>2024-04-01T08:10:59Z</time>
      </trkpt>
      <trkpt lat="49.99048" lon="4.27487">
        <ele>275.8</ele>
        <time>2024-04-01T08:11:00Z</time>
      </trkpt>
      <trkpt lat="49.99045" lon="4.27492">
        <ele>276</ele>
        <time>2024-04-01T08:11:01Z</time>
      </trkpt>
      <trkpt lat="49.99041" lon="4.27496">
        <ele>276</ele>
        <time>2024-04-01T08:11:02Z</time>
      </trkpt>
      <trkpt lat="49.99038" lon="4.27501">
        <ele>276.4</ele>
        <time>2024-04-01T08:11:03Z</time>
      </trkpt>
      <trkpt lat="49.99035" lon="4.27505">
        <ele>276.4</ele>
        <time>2024-04-01T08:11:04Z</time>
      </trkpt>
      <trkpt lat="49.99032" lon="4.2751">
        <ele>277</ele>
        <time>2024-04-01T08:11:05Z</time>
      </trkpt>
      <trkpt lat="49.99028" lon="4.27514">
        <ele>277.4</ele>
        <time>2024-04-01T08:11:06Z</time>
      </trkpt>
      <trkpt lat="49.99025" lon="4.27519">
        <ele>277.4</ele>
        <time>2024-04-01T08:11:07Z</time>
      </trkpt>
      <trkpt lat="49.99022" lon="4.27523">
        <ele>277.4</ele>
        <time>2024-04-01T08:11:08Z</time>
      </trkpt>
      <trkpt lat="49.99018" lon="4.27528">
        <ele>277.6</ele>
        <time>2024-04-01T08:11:09Z</time>
      </trkpt>
      <trkpt lat="49.99015" lon="4.27533">
        <ele>278</ele>
        <time>2024-04-01T08:11:10Z</time>
      </trkpt>
      <trkpt lat="49.99012" lon="4.27538">
        <ele>278.2</ele>
        <time>2024-04-01T08:11:11Z</time>
      </trkpt>
      <trkpt lat="49.99009" lon="4.27542">
        <ele>278.2</ele>
        <time>2024-04-01T08:11:12Z</time>
      </trkpt>
      <trkpt lat="49.99005" lon="4.27547">
        <ele>278.6</ele>
        <time>2024-04-01T08:11:13Z</time>
      </trkpt>
      <trkpt lat="49.99002" lon="4.27551">
        <ele>279</ele>
        <time>2024-04-01T08:11:14Z</time>
      </trkpt>
      <trkpt lat="49.98999" lon="4.27556">
        <ele>279</ele>
        <time>2024-04-01T08:11:15Z</time>
      </trkpt>
      <trkpt lat="49.98995" lon="4.2756">
        <ele>279.2</ele>
        <time>2024-04-01T08:11:16Z</time>
      </trkpt>
      <trkpt lat="49.98992" lon="4.27565">
        <ele>279.2</ele>
        <time>2024-04-01T08:11:17Z</time>
      </trkpt>
      <trkpt lat="49.98989" lon="4.27569">
        <ele>279.6</ele>
        <time>2024-04-01T08:11:18Z</time>
      </trkpt>
      <trkpt lat="49.98986" lon="4.27574">
        <ele>279.8</ele>
        <time>2024-04-01T08:11:19Z</time>
      </trkpt>
      <trkpt lat="49.98983" lon="4.27578">
        <ele>280.2</ele>
        <time>2024-04-01T08:11:20Z</time>
      </trkpt>
      <trkpt lat="49.9898" lon="4.27583">
        <ele>280.4</ele>
        <time>2024-04-01T08:11:21Z</time>
      </trkpt>
      <trkpt lat="49.98976" lon="4.27587">
        <ele>280.4</ele>
        <time>2024-04-01T08:11:22Z</time>
      </trkpt>
      <trkpt lat="49.98973" lon="4.27591">
        <ele>280.6</ele>
        <time>2024-04-01T08:11:23Z</time>
      </trkpt>
      <trkpt lat="49.9897" lon="4.27596">
        <ele>280.8</ele>
        <time>2024-04-01T08:11:24Z</time>
      </trkpt>
      <trkpt lat="49.98967" lon="4.276">
        <ele>280.8</ele>
        <time>2024-04-01T08:11:25Z</time>
      </trkpt>
      <trkpt lat="49.98964" lon="4.27604">
        <ele>281.2</ele>
        <time>2024-04-01T08:11:26Z</time>
      </trkpt>
      <trkpt lat="49.9896" lon="4.27609">
        <ele>281.2</ele>
        <time>2024-04-01T08:11:27Z</time>
      </trkpt>
      <trkpt lat="49.98957" lon="4.27613">
        <ele>281.6</ele>
        <time>2024-04-01T08:11:28Z</time>
      </trkpt>
      <trkpt lat="49.98954" lon="4.27618">
        <ele>281.6</ele>
        <time>2024-04-01T08:11:29Z</time>
      </trkpt>
      <trkpt lat="49.98951" lon="4.27622">
        <ele>281.4</ele>
        <time>2024-04-01T08:11:30Z</time>
      </trkpt>
      <trkpt lat="49.98948" lon="4.27626">
        <ele>281.4</ele>
        <time>2024-04-01T08:11:31Z</time>
      </trkpt>
      <trkpt lat="49.98945" lon="4.27631">
        <ele>281.6</ele>
        <time>2024-04-01T08:11:32Z</time>
      </trkpt>
      <trkpt lat="49.98942" lon="4.27635">
        <ele>281.8</ele>
        <time>2024-04-01T08:11:33Z</time>
      </trkpt>
      <trkpt lat="49.98939" lon="4.27639">
        <ele>281.8</ele>
        <time>2024-04-01T08:11:34Z</time>
      </trkpt>
      <trkpt lat="49.98936" lon="4.27644">
        <ele>281.8</ele>
        <time>2024-04-01T08:11:35Z</time>
      </trkpt>
      <trkpt lat="49.98933" lon="4.27648">
        <ele>282</ele>
        <time>2024-04-01T08:11:36Z</time>
      </trkpt>
      <trkpt lat="49.98929" lon="4.27652">
        <ele>282</ele>
        <time>2024-04-01T08:11:37Z</time>
      </trkpt>
      <trkpt lat="49.98926" lon="4.27656">
        <ele>282.2</ele>
        <time>2024-04-01T08:11:38Z</time>
      </trkpt>
      <trkpt lat="49.98923" lon="4.27661">
        <ele>282.4</ele>
        <time>2024-04-01T08:11:39Z</time>
      </trkpt>
      <trkpt lat="49.9892" lon="4.27665">
        <ele>282.8</ele>
        <time>2024-04-01T08:11:40Z</time>
      </trkpt>
      <trkpt lat="49.98917" lon="4.2767">
        <ele>283</ele>
        <time>2024-04-01T08:11:41Z</time>
      </trkpt>
      <trkpt lat="49.98914" lon="4.27674">
        <ele>283.2</ele>
        <time>2024-04-01T08:11:42Z</time>
      </trkpt>
      <trkpt lat="49.9891" lon="4.27678">
        <ele>283.2</ele>
        <time>2024-04-01T08:11:43Z</time>
      </trkpt>
      <trkpt lat="49.98907" lon="4.27683">
        <ele>283.4</ele>
        <time>2024-04-01T08:11:44Z</time>
      </trkpt>
      <trkpt lat="49.98904" lon="4.27687">
        <ele>283.8</ele>
        <time>2024-04-01T08:11:45Z</time>
      </trkpt>
      <trkpt lat="49.98901" lon="4.27691">
        <ele>284</ele>
        <time>2024-04-01T08:11:46Z</time>
      </trkpt>
      <trkpt lat="49.98898" lon="4.27695">
        <ele>284</ele>
        <time>2024-04-01T08:11:47Z</time>
      </trkpt>
      <trkpt lat="49.98895" lon="4.27699">
        <ele>284.2</ele>
        <time>2024-04-01T08:11:48Z</time>
      </trkpt>
      <trkpt lat="49.98891" lon="4.27704">
        <ele>284.4</ele>
        <time>2024-04-01T08:11:49Z</time>
      </trkpt>
      <trkpt lat="49.98888" lon="4.27708">
        <ele>284.4</ele>
        <time>2024-04-01T08:11:50Z</time>
      </trkpt>
      <trkpt lat="49.98884" lon="4.27712">
        <ele>284.6</ele>
        <time>2024-04-01T08:11:51Z</time>
      </trkpt>
      <trkpt lat="49.98881" lon="4.27717">
        <ele>284.8</ele>
        <time>2024-04-01T08:11:52Z</time>
      </trkpt>
      <trkpt lat="49.98877" lon="4.27721">
        <ele>285.2</ele>
        <time>2024-04-01T08:11:53Z</time>
      </trkpt>
      <trkpt lat="49.98874" lon="4.27726">
        <ele>285.2</ele>
        <time>2024-04-01T08:11:54Z</time>
      </trkpt>
      <trkpt lat="49.9887" lon="4.27731">
        <ele>285.4</ele>
        <time>2024-04-01T08:11:55Z</time>
      </trkpt>
      <trkpt lat="49.98866" lon="4.27736">
        <ele>285.6</ele>
        <time>2024-04-01T08:11:56Z</time>
      </trkpt>
      <trkpt lat="49.98862" lon="4.27741">
        <ele>285.6</ele>
        <time>2024-04-01T08:11:57Z</time>
      </trkpt>
      <trkpt lat="49.98858" lon="4.27746">
        <ele>285.6</ele>
        <time>2024-04-01T08:11:58Z</time>
      </trkpt>
      <trkpt lat="49.98854" lon="4.2775">
        <ele>285.6</ele>
        <time>2024-04-01T08:11:59Z</time>
      </trkpt>
      <trkpt lat="49.9885" lon="4.27755">
        <ele>285.6</ele>
        <time>2024-04-01T08:12:00Z</time>
      </trkpt>
      <trkpt lat="49.98846" lon="4.2776">
        <ele>285.8</ele>
        <time>2024-04-01T08:12:01Z</time>
      </trkpt>
      <trkpt lat="49.98841" lon="4.27766">
        <ele>285.6</ele>
        <time>2024-04-01T08:12:02Z</time>
      </trkpt>
      <trkpt lat="49.98837" lon="4.27771">
        <ele>285.6</ele>
        <time>2024-04-01T08:12:03Z</time>
      </trkpt>
      <trkpt lat="49.98833" lon="4.27776">
        <ele>285.6</ele>
        <time>2024-04-01T08:12:04Z</time>
      </trkpt>
      <trkpt lat="49.98829" lon="4.27782">
        <ele>285.6</ele>
        <time>2024-04-01T08:12:05Z</time>
      </trkpt>
      <trkpt lat="49.98824" lon="4.27787">
        <ele>285.6</ele>
        <time>2024-04-01T08:12:06Z</time>
      </trkpt>
      <trkpt lat="49.9882" lon="4.27792">
        <ele>285.6</ele>
        <time>2024-04-01T08:12:07Z</time>
      </trkpt>
      <trkpt lat="49.98815" lon="4.27798">
        <ele>285.4</ele>
        <time>2024-04-01T08:12:08Z</time>
      </trkpt>
      <trkpt lat="49.98811" lon="4.27803">
        <ele>285.6</ele>
        <time>2024-04-01T08:12:09Z</time>
      </trkpt>
      <trkpt lat="49.98806" lon="4.27809">
        <ele>285.4</ele>
        <time>2024-04-01T08:12:10Z</time>
      </trkpt>
      <trkpt lat="49.98801" lon="4.27815">
        <ele>285.4</ele>
        <time>2024-04-01T08:12:11Z</time>
      </trkpt>
      <trkpt lat="49.98796" lon="4.27821">
        <ele>285.4</ele>
        <time>2024-04-01T08:12:12Z</time>
      </trkpt>
      <trkpt lat="49.98792" lon="4.27826">
        <ele>285.4</ele>
        <time>2024-04-01T08:12:13Z</time>
      </trkpt>
      <trkpt lat="49.98787" lon="4.27832">
        <ele>285.2</ele>
        <time>2024-04-01T08:12:14Z</time>
      </trkpt>
      <trkpt lat="49.98782" lon="4.27837">
        <ele>285.4</ele>
        <time>2024-04-01T08:12:15Z</time>
      </trkpt>
      <trkpt lat="49.98778" lon="4.27843">
        <ele>285.4</ele>
        <time>2024-04-01T08:12:16Z</time>
      </trkpt>
      <trkpt lat="49.98773" lon="4.27849">
        <ele>285.4</ele>
        <time>2024-04-01T08:12:17Z</time>
      </trkpt>
      <trkpt lat="49.98769" lon="4.27854">
        <ele>285.4</ele>
        <time>2024-04-01T08:12:18Z</time>
      </trkpt>
      <trkpt lat="49.98764" lon="4.2786">
        <ele>285.4</ele>
        <time>2024-04-01T08:12:19Z</time>
      </trkpt>
      <trkpt lat="49.9876" lon="4.27865">
        <ele>285.4</ele>
        <time>2024-04-01T08:12:20Z</time>
      </trkpt>
      <trkpt lat="49.98755" lon="4.2787">
        <ele>285.4</ele>
        <time>2024-04-01T08:12:21Z</time>
      </trkpt>
      <trkpt lat="49.98751" lon="4.27876">
        <ele>285.4</ele>
        <time>2024-04-01T08:12:22Z</time>
      </trkpt>
      <trkpt lat="49.98747" lon="4.27881">
        <ele>285.4</ele>
        <time>2024-04-01T08:12:23Z</time>
      </trkpt>
      <trkpt lat="49.98743" lon="4.27886">
        <ele>285.6</ele>
        <time>2024-04-01T08:12:24Z</time>
      </trkpt>
      <trkpt lat="49.98738" lon="4.27891">
        <ele>285.8</ele>
        <time>2024-04-01T08:12:25Z</time>
      </trkpt>
      <trkpt lat="49.98734" lon="4.27896">
        <ele>285.8</ele>
        <time>2024-04-01T08:12:26Z</time>
      </trkpt>
      <trkpt lat="49.9873" lon="4.27901">
        <ele>285.8</ele>
        <time>2024-04-01T08:12:27Z</time>
      </trkpt>
      <trkpt lat="49.98726" lon="4.27906">
        <ele>286</ele>
        <time>2024-04-01T08:12:28Z</time>
      </trkpt>
      <trkpt lat="49.98722" lon="4.27911">
        <ele>286.4</ele>
        <time>2024-04-01T08:12:29Z</time>
      </trkpt>
      <trkpt lat="49.98718" lon="4.27916">
        <ele>286.4</ele>
        <time>2024-04-01T08:12:30Z</time>
      </trkpt>
      <trkpt lat="49.98714" lon="4.27921">
        <ele>286.8</ele>
        <time>2024-04-01T08:12:31Z</time>
      </trkpt>
      <trkpt lat="49.98709" lon="4.27926">
        <ele>287</ele>
        <time>2024-04-01T08:12:32Z</time>
      </trkpt>
      <trkpt lat="49.98705" lon="4.27931">
        <ele>287</ele>
        <time>2024-04-01T08:12:33Z</time>
      </trkpt>
      <trkpt lat="49.98701" lon="4.27936">
        <ele>287.2</ele>
        <time>2024-04-01T08:12:34Z</time>
      </trkpt>
      <trkpt lat="49.98697" lon="4.27941">
        <ele>287.4</ele>
        <time>2024-04-01T08:12:35Z</time>
      </trkpt>
      <trkpt lat="49.98693" lon="4.27946">
        <ele>287.8</ele>
        <time>2024-04-01T08:12:36Z</time>
      </trkpt>
      <trkpt lat="49.98689" lon="4.27951">
        <ele>287.8</ele>
        <time>2024-04-01T08:12:37Z</time>
      </trkpt>
      <trkpt lat="49.98686" lon="4.27955">
        <ele>287.8</ele>
        <time>2024-04-01T08:12:38Z</time>
      </trkpt>
      <trkpt lat="49.98682" lon="4.2796">
        <ele>287.8</ele>
        <time>2024-04-01T08:12:39Z</time>
      </trkpt>
      <trkpt lat="49.98678" lon="4.27965">
        <ele>288</ele>
        <time>2024-04-01T08:12:40Z</time>
      </trkpt>
      <trkpt lat="49.98674" lon="4.2797">
        <ele>288.2</ele>
        <time>2024-04-01T08:12:41Z</time>
      </trkpt>
      <trkpt lat="49.9867" lon="4.27974">
        <ele>288.2</ele>
        <time>2024-04-01T08:12:42Z</time>
      </trkpt>
      <trkpt lat="49.98666" lon="4.27979">
        <ele>288.4</ele>
        <time>2024-04-01T08:12:43Z</time>
      </trkpt>
      <trkpt lat="49.98662" lon="4.27984">
        <ele>288.4</ele>
        <time>2024-04-01T08:12:44Z</time>
      </trkpt>
      <trkpt lat="49.98658" lon="4.27989">
        <ele>288.6</ele>
        <time>2024-04-01T08:12:45Z</time>
      </trkpt>
      <trkpt lat="49.98654" lon="4.27994">
        <ele>288.6</ele>
        <time>2024-04-01T08:12:46Z</time>
      </trkpt>
      <trkpt lat="49.9865" lon="4.27999">
        <ele>288.6</ele>
        <time>2024-04-01T08:12:47Z</time>
      </trkpt>
      <trkpt lat="49.98646" lon="4.28004">
        <ele>288.6</ele>
        <time>2024-04-01T08:12:48Z</time>
      </trkpt>
      <trkpt lat="49.98642" lon="4.28009">
        <ele>288.8</ele>
        <time>2024-04-01T08:12:49Z</time>
      </trkpt>
      <trkpt lat="49.98638" lon="4.28014">
        <ele>288.8</ele>
        <time>2024-04-01T08:12:50Z</time>
      </trkpt>
      <trkpt lat="49.98633" lon="4.28019">
        <ele>289</ele>
        <time>2024-04-01T08:12:51Z</time>
      </trkpt>
      <trkpt lat="49.98629" lon="4.28024">
        <ele>289</ele>
        <time>2024-04-01T08:12:52Z</time>
      </trkpt>
      <trkpt lat="49.98625" lon="4.28029">
        <ele>289.2</ele>
        <time>2024-04-01T08:12:53Z</time>
      </trkpt>
      <trkpt lat="49.98621" lon="4.28034">
        <ele>289.2</ele>
        <time>2024-04-01T08:12:54Z</time>
      </trkpt>
      <trkpt lat="49.98617" lon="4.28039">
        <ele>289.2</ele>
        <time>2024-04-01T08:12:55Z</time>
      </trkpt>
      <trkpt lat="49.98613" lon="4.28044">
        <ele>289.2</ele>
        <time>2024-04-01T08:12:56Z</time>
      </trkpt>
      <trkpt lat="49.98608" lon="4.28049">
        <ele>289.2</ele>
        <time>2024-04-01T08:12:57Z</time>
      </trkpt>
      <trkpt lat="49.98604" lon="4.28054">
        <ele>289.4</ele>
        <time>2024-04-01T08:12:58Z</time>
      </trkpt>
      <trkpt lat="49.986" lon="4.28058">
        <ele>289.2</ele>
        <time>2024-04-01T08:12:59Z</time>
      </trkpt>
      <trkpt lat="49.98596" lon="4.28063">
        <ele>289.4</ele>
        <time>2024-04-01T08:13:00Z</time>
      </trkpt>
      <trkpt lat="49.98591" lon="4.28068">
        <ele>289.2</ele>
        <time>2024-04-01T08:13:01Z</time>
      </trkpt>
      <trkpt lat="49.98587" lon="4.28073">
        <ele>289.2</ele>
        <time>2024-04-01T08:13:02Z</time>
      </trkpt>
      <trkpt lat="49.98583" lon="4.28077">
        <ele>289.4</ele>
        <time>2024-04-01T08:13:03Z</time>
      </trkpt>
      <trkpt lat="49.98578" lon="4.28081">
        <ele>289.4</ele>
        <time>2024-04-01T08:13:04Z</time>
      </trkpt>
      <trkpt lat="49.98574" lon="4.28086">
        <ele>289.4</ele>
        <time>2024-04-01T08:13:05Z</time>
      </trkpt>
      <trkpt lat="49.98569" lon="4.2809">
        <ele>289.6</ele>
        <time>2024-04-01T08:13:06Z</time>
      </trkpt>
      <trkpt lat="49.98565" lon="4.28094">
        <ele>290.2</ele>
        <time>2024-04-01T08:13:07Z</time>
      </trkpt>
      <trkpt lat="49.9856" lon="4.28097">
        <ele>290.6</ele>
        <time>2024-04-01T08:13:08Z</time>
      </trkpt>
      <trkpt lat="49.98556" lon="4.281">
        <ele>291</ele>
        <time>2024-04-01T08:13:09Z</time>
      </trkpt>
      <trkpt lat="49.98551" lon="4.28103">
        <ele>291</ele>
        <time>2024-04-01T08:13:10Z</time>
      </trkpt>
      <trkpt lat="49.98546" lon="4.28106">
        <ele>291</ele>
        <time>2024-04-01T08:13:11Z</time>
      </trkpt>
      <trkpt lat="49.98542" lon="4.28109">
        <ele>291</ele>
        <time>2024-04-01T08:13:12Z</time>
      </trkpt>
      <trkpt lat="49.98537" lon="4.28111">
        <ele>291</ele>
        <time>2024-04-01T08:13:13Z</time>
      </trkpt>
      <trkpt lat="49.98532" lon="4.28113">
        <ele>291.2</ele>
        <time>2024-04-01T08:13:14Z</time>
      </trkpt>
      <trkpt lat="49.98527" lon="4.28115">
        <ele>291.2</ele>
        <time>2024-04-01T08:13:15Z</time>
      </trkpt>
      <trkpt lat="49.98522" lon="4.28117">
        <ele>291.2</ele>
        <time>2024-04-01T08:13:16Z</time>
      </trkpt>
      <trkpt lat="49.98517" lon="4.28118">
        <ele>291.6</ele>
        <time>2024-04-01T08:13:17Z</time>
      </trkpt>
      <trkpt lat="49.98512" lon="4.28119">
        <ele>291.6</ele>
        <time>2024-04-01T08:13:18Z</time>
      </trkpt>
      <trkpt lat="49.98507" lon="4.28121">
        <ele>291.6</ele>
        <time>2024-04-01T08:13:19Z</time>
      </trkpt>
      <trkpt lat="49.98503" lon="4.28121">
        <ele>291.6</ele>
        <time>2024-04-01T08:13:20Z</time>
      </trkpt>
      <trkpt lat="49.98498" lon="4.28122">
        <ele>291.8</ele>
        <time>2024-04-01T08:13:21Z</time>
      </trkpt>
      <trkpt lat="49.98493" lon="4.28122">
        <ele>292</ele>
        <time>2024-04-01T08:13:22Z</time>
      </trkpt>
      <trkpt lat="49.98489" lon="4.28123">
        <ele>292</ele>
        <time>2024-04-01T08:13:23Z</time>
      </trkpt>
      <trkpt lat="49.98484" lon="4.28123">
        <ele>292.2</ele>
        <time>2024-04-01T08:13:24Z</time>
      </trkpt>
      <trkpt lat="49.98479" lon="4.28122">
        <ele>292.2</ele>
        <time>2024-04-01T08:13:25Z</time>
      </trkpt>
      <trkpt lat="49.98474" lon="4.28122">
        <ele>292.4</ele>
        <time>2024-04-01T08:13:26Z</time>
      </trkpt>
      <trkpt lat="49.98469" lon="4.28122">
        <ele>292.4</ele>
        <time>2024-04-01T08:13:27Z</time>
      </trkpt>
      <trkpt lat="49.98464" lon="4.28121">
        <ele>292.6</ele>
        <time>2024-04-01T08:13:28Z</time>
      </trkpt>
      <trkpt lat="49.98459" lon="4.2812">
        <ele>292.6</ele>
        <time>2024-04-01T08:13:29Z</time>
      </trkpt>
      <trkpt lat="49.98455" lon="4.28119">
        <ele>292.6</ele>
        <time>2024-04-01T08:13:30Z</time>
      </trkpt>
      <trkpt lat="49.9845" lon="4.28118">
        <ele>292.6</ele>
        <time>2024-04-01T08:13:31Z</time>
      </trkpt>
      <trkpt lat="49.98445" lon="4.28116">
        <ele>292.6</ele>
        <time>2024-04-01T08:13:32Z</time>
      </trkpt>
      <trkpt lat="49.9844" lon="4.28115">
        <ele>293</ele>
        <time>2024-04-01T08:13:33Z</time>
      </trkpt>
      <trkpt lat="49.98436" lon="4.28113">
        <ele>293.2</ele>
        <time>2024-04-01T08:13:34Z</time>
      </trkpt>
      <trkpt lat="49.98432" lon="4.2811">
        <ele>293.2</ele>
        <time>2024-04-01T08:13:35Z</time>
      </trkpt>
      <trkpt lat="49.98428" lon="4.28108">
        <ele>293.4</ele>
        <time>2024-04-01T08:13:36Z</time>
      </trkpt>
      <trkpt lat="49.98424" lon="4.28106">
        <ele>293.4</ele>
        <time>2024-04-01T08:13:37Z</time>
      </trkpt>
      <trkpt lat="49.9842" lon="4.28103">
        <ele>293.6</ele>
        <time>2024-04-01T08:13:38Z</time>
      </trkpt>
      <trkpt lat="49.98416" lon="4.28101">
        <ele>293.8</ele>
        <time>2024-04-01T08:13:39Z</time>
      </trkpt>
      <trkpt lat="49.98412" lon="4.28098">
        <ele>294</ele>
        <time>2024-04-01T08:13:40Z</time>
      </trkpt>
      <trkpt lat="49.98407" lon="4.28095">
        <ele>294</ele>
        <time>2024-04-01T08:13:41Z</time>
      </trkpt>
      <trkpt lat="49.98403" lon="4.28093">
        <ele>294.2</ele>
        <time>2024-04-01T08:13:42Z</time>
      </trkpt>
      <trkpt lat="49.98398" lon="4.2809">
        <ele>294.4</ele>
        <time>2024-04-01T08:13:43Z</time>
      </trkpt>
      <trkpt lat="49.98394" lon="4.28087">
        <ele>294.4</ele>
        <time>2024-04-01T08:13:44Z</time>
      </trkpt>
      <trkpt lat="49.9839" lon="4.28084">
        <ele>294.6</ele>
        <time>2024-04-01T08:13:45Z</time>
      </trkpt>
      <trkpt lat="49.98385" lon="4.28081">
        <ele>294.6</ele>
        <time>2024-04-01T08:13:46Z</time>
      </trkpt>
      <trkpt lat="49.98381" lon="4.28078">
        <ele>294.4</ele>
        <time>2024-04-01T08:13:47Z</time>
      </trkpt>
      <trkpt lat="49.98377" lon="4.28074">
        <ele>294.6</ele>
        <time>2024-04-01T08:13:48Z</time>
      </trkpt>
      <trkpt lat="49.98373" lon="4.28071">
        <ele>294.8</ele>
        <time>2024-04-01T08:13:49Z</time>
      </trkpt>
      <trkpt lat="49.98369" lon="4.28067">
        <ele>294.6</ele>
        <time>2024-04-01T08:13:50Z</time>
      </trkpt>
      <trkpt lat="49.98365" lon="4.28064">
        <ele>295</ele>
        <time>2024-04-01T08:13:51Z</time>
      </trkpt>
      <trkpt lat="49.9836" lon="4.28061">
        <ele>295</ele>
        <time>2024-04-01T08:13:52Z</time>
      </trkpt>
      <trkpt lat="49.98356" lon="4.28058">
        <ele>295</ele>
        <time>2024-04-01T08:13:53Z</time>
      </trkpt>
      <trkpt lat="49.98352" lon="4.28054">
        <ele>295.2</ele>
        <time>2024-04-01T08:13:54Z</time>
      </trkpt>
      <trkpt lat="49.98348" lon="4.28051">
        <ele>295.2</ele>
        <time>2024-04-01T08:13:55Z</time>
      </trkpt>
      <trkpt lat="49.98344" lon="4.28047">
        <ele>295.4</ele>
        <time>2024-04-01T08:13:56Z</time>
      </trkpt>
      <trkpt lat="49.98339" lon="4.28044">
        <ele>295.8</ele>
        <time>2024-04-01T08:13:57Z</time>
      </trkpt>
      <trkpt lat="49.98335" lon="4.28041">
        <ele>296</ele>
        <time>2024-04-01T08:13:58Z</time>
      </trkpt>
      <trkpt lat="49.9833" lon="4.28037">
        <ele>296.2</ele>
        <time>2024-04-01T08:13:59Z</time>
      </trkpt>
      <trkpt lat="49.98326" lon="4.28034">
        <ele>296.2</ele>
        <time>2024-04-01T08:14:00Z</time>
      </trkpt>
      <trkpt lat="49.98321" lon="4.2803">
        <ele>296.2</ele>
        <time>2024-04-01T08:14:01Z</time>
      </trkpt>
      <trkpt lat="49.98316" lon="4.28027">
        <ele>296.4</ele>
        <time>2024-04-01T08:14:02Z</time>
      </trkpt>
      <trkpt lat="49.98311" lon="4.28023">
        <ele>296.8</ele>
        <time>2024-04-01T08:14:03Z</time>
      </trkpt>
      <trkpt lat="49.98306" lon="4.2802">
        <ele>297</ele>
        <time>2024-04-01T08:14:04Z</time>
      </trkpt>
      <trkpt lat="49.98302" lon="4.28016">
        <ele>297</ele>
        <time>2024-04-01T08:14:05Z</time>
      </trkpt>
      <trkpt lat="49.98297" lon="4.28013">
        <ele>297</ele>
        <time>2024-04-01T08:14:06Z</time>
      </trkpt>
      <trkpt lat="49.98293" lon="4.2801">
        <ele>297.4</ele>
        <time>2024-04-01T08:14:07Z</time>
      </trkpt>
      <trkpt lat="49.98288" lon="4.28006">
        <ele>297.6</ele>
        <time>2024-04-01T08:14:08Z</time>
      </trkpt>
      <trkpt lat="49.98284" lon="4.28003">
        <ele>297.6</ele>
        <time>2024-04-01T08:14:09Z</time>
      </trkpt>
      <trkpt lat="49.98279" lon="4.28">
        <ele>297.8</ele>
        <time>2024-04-01T08:14:10Z</time>
      </trkpt>
      <trkpt lat="49.98275" lon="4.27997">
        <ele>297.8</ele>
        <time>2024-04-01T08:14:11Z</time>
      </trkpt>
      <trkpt lat="49.9827" lon="4.27994">
        <ele>297.8</ele>
        <time>2024-04-01T08:14:12Z</time>
      </trkpt>
      <trkpt lat="49.98266" lon="4.27991">
        <ele>298</ele>
        <time>2024-04-01T08:14:13Z</time>
      </trkpt>
      <trkpt lat="49.98262" lon="4.27988">
        <ele>298</ele>
        <time>2024-04-01T08:14:14Z</time>
      </trkpt>
      <trkpt lat="49.98257" lon="4.27985">
        <ele>298.2</ele>
        <time>2024-04-01T08:14:15Z</time>
      </trkpt>
      <trkpt lat="49.98253" lon="4.27982">
        <ele>298.2</ele>
        <time>2024-04-01T08:14:16Z</time>
      </trkpt>
      <trkpt lat="49.98249" lon="4.27979">
        <ele>298.2</ele>
        <time>2024-04-01T08:14:17Z</time>
      </trkpt>
      <trkpt lat="49.98245" lon="4.27976">
        <ele>298.2</ele>
        <time>2024-04-01T08:14:18Z</time>
      </trkpt>
      <trkpt lat="49.98241" lon="4.27973">
        <ele>298.2</ele>
        <time>2024-04-01T08:14:19Z</time>
      </trkpt>
      <trkpt lat="49.98237" lon="4.2797">
        <ele>298.4</ele>
        <time>2024-04-01T08:14:20Z</time>
      </trkpt>
      <trkpt lat="49.98233" lon="4.27967">
        <ele>298.8</ele>
        <time>2024-04-01T08:14:21Z</time>
      </trkpt>
      <trkpt lat="49.98229" lon="4.27964">
        <ele>299</ele>
        <time>2024-04-01T08:14:22Z</time>
      </trkpt>
      <trkpt lat="49.98226" lon="4.27961">
        <ele>299</ele>
        <time>2024-04-01T08:14:23Z</time>
      </trkpt>
      <trkpt lat="49.98222" lon="4.27959">
        <ele>299.2</ele>
        <time>2024-04-01T08:14:24Z</time>
      </trkpt>
      <trkpt lat="49.98218" lon="4.27956">
        <ele>299.4</ele>
        <time>2024-04-01T08:14:25Z</time>
      </trkpt>
      <trkpt lat="49.98214" lon="4.27954">
        <ele>299.6</ele>
        <time>2024-04-01T08:14:26Z</time>
      </trkpt>
      <trkpt lat="49.9821" lon="4.27951">
        <ele>299.8</ele>
        <time>2024-04-01T08:14:27Z</time>
      </trkpt>
      <trkpt lat="49.98206" lon="4.27948">
        <ele>299.8</ele>
        <time>2024-04-01T08:14:28Z</time>
      </trkpt>
      <trkpt lat="49.98203" lon="4.27945">
        <ele>299.8</ele>
        <time>2024-04-01T08:14:29Z</time>
      </trkpt>
      <trkpt lat="49.98199" lon="4.27942">
        <ele>300</ele>
        <time>2024-04-01T08:14:30Z</time>
      </trkpt>
      <trkpt lat="49.98195" lon="4.27939">
        <ele>300</ele>
        <time>2024-04-01T08:14:31Z</time>
      </trkpt>
      <trkpt lat="49.98191" lon="4.27936">
        <ele>300</ele>
        <time>2024-04-01T08:14:32Z</time>
      </trkpt>
      <trkpt lat="49.98188" lon="4.27933">
        <ele>300</ele>
        <time>2024-04-01T08:14:33Z</time>
      </trkpt>
      <trkpt lat="49.98184" lon="4.2793">
        <ele>300.2</ele>
        <time>2024-04-01T08:14:34Z</time>
      </trkpt>
      <trkpt lat="49.9818" lon="4.27926">
        <ele>300.2</ele>
        <time>2024-04-01T08:14:35Z</time>
      </trkpt>
      <trkpt lat="49.98177" lon="4.27923">
        <ele>300.4</ele>
        <time>2024-04-01T08:14:36Z</time>
      </trkpt>
      <trkpt lat="49.98173" lon="4.2792">
        <ele>300.4</ele>
        <time>2024-04-01T08:14:37Z</time>
      </trkpt>
      <trkpt lat="49.9817" lon="4.27917">
        <ele>300.4</ele>
        <time>2024-04-01T08:14:38Z</time>
      </trkpt>
      <trkpt lat="49.98166" lon="4.27913">
        <ele>300.6</ele>
        <time>2024-04-01T08:14:39Z</time>
      </trkpt>
      <trkpt lat="49.98163" lon="4.2791">
        <ele>300.8</ele>
        <time>2024-04-01T08:14:40Z</time>
      </trkpt>
      <trkpt lat="49.98159" lon="4.27907">
        <ele>301</ele>
        <time>2024-04-01T08:14:41Z</time>
      </trkpt>
      <trkpt lat="49.98156" lon="4.27903">
        <ele>301</ele>
        <time>2024-04-01T08:14:42Z</time>
      </trkpt>
      <trkpt lat="49.98152" lon="4.27901">
        <ele>301.2</ele>
        <time>2024-04-01T08:14:43Z</time>
      </trkpt>
      <trkpt lat="49.98149" lon="4.27898">
        <ele>301.8</ele>
        <time>2024-04-01T08:14:44Z</time>
      </trkpt>
      <trkpt lat="49.98145" lon="4.27894">
        <ele>302.4</ele>
        <time>2024-04-01T08:14:45Z</time>
      </trkpt>
      <trkpt lat="49.98142" lon="4.27891">
        <ele>302.8</ele>
        <time>2024-04-01T08:14:46Z</time>
      </trkpt>
      <trkpt lat="49.98138" lon="4.27888">
        <ele>303</ele>
        <time>2024-04-01T08:14:47Z</time>
      </trkpt>
      <trkpt lat="49.98135" lon="4.27884">
        <ele>303</ele>
        <time>2024-04-01T08:14:48Z</time>
      </trkpt>
      <trkpt lat="49.98131" lon="4.27881">
        <ele>303.4</ele>
        <time>2024-04-01T08:14:49Z</time>
      </trkpt>
      <trkpt lat="49.98128" lon="4.27877">
        <ele>303.6</ele>
        <time>2024-04-01T08:14:50Z</time>
      </trkpt>
      <trkpt lat="49.98124" lon="4.27873">
        <ele>304</ele>
        <time>2024-04-01T08:14:51Z</time>
      </trkpt>
      <trkpt lat="49.9812" lon="4.2787">
        <ele>304</ele>
        <time>2024-04-01T08:14:52Z</time>
      </trkpt>
      <trkpt lat="49.98117" lon="4.27867">
        <ele>304</ele>
        <time>2024-04-01T08:14:53Z</time>
      </trkpt>
      <trkpt lat="49.98114" lon="4.27864">
        <ele>304.4</ele>
        <time>2024-04-01T08:14:54Z</time>
      </trkpt>
      <trkpt lat="49.9811" lon="4.2786">
        <ele>304.6</ele>
        <time>2024-04-01T08:14:55Z</time>
      </trkpt>
      <trkpt lat="49.98107" lon="4.27857">
        <ele>305</ele>
        <time>2024-04-01T08:14:56Z</time>
      </trkpt>
      <trkpt lat="49.98103" lon="4.27854">
        <ele>305</ele>
        <time>2024-04-01T08:14:57Z</time>
      </trkpt>
      <trkpt lat="49.981" lon="4.2785">
        <ele>305</ele>
        <time>2024-04-01T08:14:58Z</time>
      </trkpt>
      <trkpt lat="49.98097" lon="4.27847">
        <ele>305.4</ele>
        <time>2024-04-01T08:14:59Z</time>
      </trkpt>
      <trkpt lat="49.98093" lon="4.27844">
        <ele>305.4</ele>
        <time>2024-04-01T08:15:00Z</time>
      </trkpt>
      <trkpt lat="49.9809" lon="4.2784">
        <ele>305.4</ele>
        <time>2024-04-01T08:15:01Z</time>
      </trkpt>
      <trkpt lat="49.98086" lon="4.27837">
        <ele>305.6</ele>
        <time>2024-04-01T08:15:02Z</time>
      </trkpt>
      <trkpt lat="49.98083" lon="4.27834">
        <ele>305.8</ele>
        <time>2024-04-01T08:15:03Z</time>
      </trkpt>
      <trkpt lat="49.98079" lon="4.27831">
        <ele>305.8</ele>
        <time>2024-04-01T08:15:04Z</time>
      </trkpt>
      <trkpt lat="49.98076" lon="4.27827">
        <ele>306.2</ele>
        <time>2024-04-01T08:15:05Z</time>
      </trkpt>
      <trkpt lat="49.98073" lon="4.27824">
        <ele>306.4</ele>
        <time>2024-04-01T08:15:06Z</time>
      </trkpt>
      <trkpt lat="49.98069" lon="4.2782">
        <ele>306.6</ele>
        <time>2024-04-01T08:15:07Z</time>
      </trkpt>
      <trkpt lat="49.98066" lon="4.27817">
        <ele>306.6</ele>
        <time>2024-04-01T08:15:08Z</time>
      </trkpt>
      <trkpt lat="49.98062" lon="4.27813">
        <ele>306.8</ele>
        <time>2024-04-01T08:15:09Z</time>
      </trkpt>
      <trkpt lat="49.98059" lon="4.2781">
        <ele>307</ele>
        <time>2024-04-01T08:15:10Z</time>
      </trkpt>
      <trkpt lat="49.98055" lon="4.27807">
        <ele>307.4</ele>
        <time>2024-04-01T08:15:11Z</time>
      </trkpt>
      <trkpt lat="49.98052" lon="4.27804">
        <ele>307.4</ele>
        <time>2024-04-01T08:15:12Z</time>
      </trkpt>
      <trkpt lat="49.98048" lon="4.278">
        <ele>307.6</ele>
        <time>2024-04-01T08:15:13Z</time>
      </trkpt>
      <trkpt lat="49.98045" lon="4.27797">
        <ele>307.8</ele>
        <time>2024-04-01T08:15:14Z</time>
      </trkpt>
      <trkpt lat="49.98042" lon="4.27793">
        <ele>308</ele>
        <time>2024-04-01T08:15:15Z</time>
      </trkpt>
      <trkpt lat="49.98038" lon="4.2779">
        <ele>308.2</ele>
        <time>2024-04-01T08:15:16Z</time>
      </trkpt>
      <trkpt lat="49.98035" lon="4.27787">
        <ele>308.2</ele>
        <time>2024-04-01T08:15:17Z</time>
      </trkpt>
      <trkpt lat="49.98031" lon="4.27784">
        <ele>308.4</ele>
        <time>2024-04-01T08:15:18Z</time>
      </trkpt>
      <trkpt lat="49.98028" lon="4.2778">
        <ele>308.4</ele>
        <time>2024-04-01T08:15:19Z</time>
      </trkpt>
      <trkpt lat="49.98025" lon="4.27777">
        <ele>308.4</ele>
        <time>2024-04-01T08:15:20Z</time>
      </trkpt>
      <trkpt lat="49.98021" lon="4.27774">
        <ele>309</ele>
        <time>2024-04-01T08:15:21Z</time>
      </trkpt>
      <trkpt lat="49.98018" lon="4.2777">
        <ele>309</ele>
        <time>2024-04-01T08:15:22Z</time>
      </trkpt>
      <trkpt lat="49.98014" lon="4.27767">
        <ele>309</ele>
        <time>2024-04-01T08:15:23Z</time>
      </trkpt>
      <trkpt lat="49.98011" lon="4.27764">
        <ele>309.2</ele>
        <time>2024-04-01T08:15:24Z</time>
      </trkpt>
      <trkpt lat="49.98007" lon="4.27761">
        <ele>309.2</ele>
        <time>2024-04-01T08:15:25Z</time>
      </trkpt>
      <trkpt lat="49.98004" lon="4.27757">
        <ele>309.2</ele>
        <time>2024-04-01T08:15:26Z</time>
      </trkpt>
      <trkpt lat="49.98" lon="4.27754">
        <ele>309.6</ele>
        <time>2024-04-01T08:15:27Z</time>
      </trkpt>
      <trkpt lat="49.97997" lon="4.27751">
        <ele>309.6</ele>
        <time>2024-04-01T08:15:28Z</time>
      </trkpt>
      <trkpt lat="49.97994" lon="4.27747">
        <ele>309.6</ele>
        <time>2024-04-01T08:15:29Z</time>
      </trkpt>
      <trkpt lat="49.9799" lon="4.27744">
        <ele>309.8</ele>
        <time>2024-04-01T08:15:30Z</time>
      </trkpt>
      <trkpt lat="49.97987" lon="4.27741">
        <ele>309.8</ele>
        <time>2024-04-01T08:15:31Z</time>
      </trkpt>
      <trkpt lat="49.97983" lon="4.27738">
        <ele>310</ele>
        <time>2024-04-01T08:15:32Z</time>
      </trkpt>
      <trkpt lat="49.9798" lon="4.27735">
        <ele>310</ele>
        <time>2024-04-01T08:15:33Z</time>
      </trkpt>
      <trkpt lat="49.97977" lon="4.27731">
        <ele>310.2</ele>
        <time>2024-04-01T08:15:34Z</time>
      </trkpt>
      <trkpt lat="49.97974" lon="4.27728">
        <ele>310.2</ele>
        <time>2024-04-01T08:15:35Z</time>
      </trkpt>
      <trkpt lat="49.9797" lon="4.27725">
        <ele>310.4</ele>
        <time>2024-04-01T08:15:36Z</time>
      </trkpt>
      <trkpt lat="49.97967" lon="4.27722">
        <ele>310.8</ele>
        <time>2024-04-01T08:15:37Z</time>
      </trkpt>
      <trkpt lat="49.97963" lon="4.27719">
        <ele>311</ele>
        <time>2024-04-01T08:15:38Z</time>
      </trkpt>
      <trkpt lat="49.9796" lon="4.27715">
        <ele>311.4</ele>
        <time>2024-04-01T08:15:39Z</time>
      </trkpt>
      <trkpt lat="49.97957" lon="4.27712">
        <ele>311.6</ele>
        <time>2024-04-01T08:15:40Z</time>
      </trkpt>
      <trkpt lat="49.97954" lon="4.27709">
        <ele>311.6</ele>
        <time>2024-04-01T08:15:41Z</time>
      </trkpt>
      <trkpt lat="49.9795" lon="4.27705">
        <ele>311.6</ele>
        <time>2024-04-01T08:15:42Z</time>
      </trkpt>
      <trkpt lat="49.97947" lon="4.27702">
        <ele>311.8</ele>
        <time>2024-04-01T08:15:43Z</time>
      </trkpt>
      <trkpt lat="49.97943" lon="4.27699">
        <ele>312</ele>
        <time>2024-04-01T08:15:44Z</time>
      </trkpt>
      <trkpt lat="49.9794" lon="4.27696">
        <ele>312</ele>
        <time>2024-04-01T08:15:45Z</time>
      </trkpt>
      <trkpt lat="49.97937" lon="4.27692">
        <ele>312.2</ele>
        <time>2024-04-01T08:15:46Z</time>
      </trkpt>
      <trkpt lat="49.97934" lon="4.27689">
        <ele>312.4</ele>
        <time>2024-04-01T08:15:47Z</time>
      </trkpt>
      <trkpt lat="49.9793" lon="4.27687">
        <ele>312.6</ele>
        <time>2024-04-01T08:15:48Z</time>
      </trkpt>
      <trkpt lat="49.97926" lon="4.27684">
        <ele>312.6</ele>
        <time>2024-04-01T08:15:49Z</time>
      </trkpt>
      <trkpt lat="49.97922" lon="4.27682">
        <ele>312.8</ele>
        <time>2024-04-01T08:15:50Z</time>
      </trkpt>
      <trkpt lat="49.97918" lon="4.27679">
        <ele>312.8</ele>
        <time>2024-04-01T08:15:51Z</time>
      </trkpt>
      <trkpt lat="49.97914" lon="4.27677">
        <ele>312.8</ele>
        <time>2024-04-01T08:15:52Z</time>
      </trkpt>
      <trkpt lat="49.97909" lon="4.27675">
        <ele>313</ele>
        <time>2024-04-01T08:15:53Z</time>
      </trkpt>
      <trkpt lat="49.97905" lon="4.27672">
        <ele>313.2</ele>
        <time>2024-04-01T08:15:54Z</time>
      </trkpt>
      <trkpt lat="49.97901" lon="4.2767">
        <ele>313.2</ele>
        <time>2024-04-01T08:15:55Z</time>
      </trkpt>
      <trkpt lat="49.97897" lon="4.27668">
        <ele>313.6</ele>
        <time>2024-04-01T08:15:56Z</time>
      </trkpt>
      <trkpt lat="49.97893" lon="4.27665">
        <ele>313.8</ele>
        <time>2024-04-01T08:15:57Z</time>
      </trkpt>
      <trkpt lat="49.97889" lon="4.27663">
        <ele>313.8</ele>
        <time>2024-04-01T08:15:58Z</time>
      </trkpt>
      <trkpt lat="49.97885" lon="4.27661">
        <ele>314</ele>
        <time>2024-04-01T08:15:59Z</time>
      </trkpt>
      <trkpt lat="49.97881" lon="4.27659">
        <ele>314</ele>
        <time>2024-04-01T08:16:00Z</time>
      </trkpt>
      <trkpt lat="49.97877" lon="4.27656">
        <ele>314.2</ele>
        <time>2024-04-01T08:16:01Z</time>
      </trkpt>
      <trkpt lat="49.97873" lon="4.27654">
        <ele>314.6</ele>
        <time>2024-04-01T08:16:02Z</time>
      </trkpt>
      <trkpt lat="49.97869" lon="4.27651">
        <ele>314.6</ele>
        <time>2024-04-01T08:16:03Z</time>
      </trkpt>
      <trkpt lat="49.97865" lon="4.27649">
        <ele>314.6</ele>
        <time>2024-04-01T08:16:04Z</time>
      </trkpt>
      <trkpt lat="49.97861" lon="4.27647">
        <ele>314.8</ele>
        <time>2024-04-01T08:16:05Z</time>
      </trkpt>
      <trkpt lat="49.97857" lon="4.27644">
        <ele>314.8</ele>
        <time>2024-04-01T08:16:06Z</time>
      </trkpt>
      <trkpt lat="49.97853" lon="4.27642">
        <ele>315</ele>
        <time>2024-04-01T08:16:07Z</time>
      </trkpt>
      <trkpt lat="49.97849" lon="4.27639">
        <ele>315</ele>
        <time>2024-04-01T08:16:08Z</time>
      </trkpt>
      <trkpt lat="49.97845" lon="4.27637">
        <ele>315.2</ele>
        <time>2024-04-01T08:16:09Z</time>
      </trkpt>
      <trkpt lat="49.97841" lon="4.27635">
        <ele>315.4</ele>
        <time>2024-04-01T08:16:10Z</time>
      </trkpt>
      <trkpt lat="49.97836" lon="4.27632">
        <ele>315.8</ele>
        <time>2024-04-01T08:16:11Z</time>
      </trkpt>
      <trkpt lat="49.97832" lon="4.2763">
        <ele>315.8</ele>
        <time>2024-04-01T08:16:12Z</time>
      </trkpt>
      <trkpt lat="49.97828" lon="4.27627">
        <ele>316</ele>
        <time>2024-04-01T08:16:13Z</time>
      </trkpt>
      <trkpt lat="49.97824" lon="4.27624">
        <ele>316</ele>
        <time>2024-04-01T08:16:14Z</time>
      </trkpt>
      <trkpt lat="49.9782" lon="4.27622">
        <ele>316</ele>
        <time>2024-04-01T08:16:15Z</time>
      </trkpt>
      <trkpt lat="49.97815" lon="4.27619">
        <ele>316</ele>
        <time>2024-04-01T08:16:16Z</time>
      </trkpt>
      <trkpt lat="49.97811" lon="4.27617">
        <ele>316.2</ele>
        <time>2024-04-01T08:16:17Z</time>
      </trkpt>
      <trkpt lat="49.97807" lon="4.27614">
        <ele>316.2</ele>
        <time>2024-04-01T08:16:18Z</time>
      </trkpt>
      <trkpt lat="49.97802" lon="4.27611">
        <ele>316.4</ele>
        <time>2024-04-01T08:16:19Z</time>
      </trkpt>
      <trkpt lat="49.97798" lon="4.27609">
        <ele>316.6</ele>
        <time>2024-04-01T08:16:20Z</time>
      </trkpt>
      <trkpt lat="49.97793" lon="4.27606">
        <ele>316.4</ele>
        <time>2024-04-01T08:16:21Z</time>
      </trkpt>
      <trkpt lat="49.97788" lon="4.27603">
        <ele>316.6</ele>
        <time>2024-04-01T08:16:22Z</time>
      </trkpt>
      <trkpt lat="49.97784" lon="4.276">
        <ele>316.6</ele>
        <time>2024-04-01T08:16:23Z</time>
      </trkpt>
      <trkpt lat="49.97779" lon="4.27598">
        <ele>316.4</ele>
        <time>2024-04-01T08:16:24Z</time>
      </trkpt>
      <trkpt lat="49.97774" lon="4.27595">
        <ele>316.6</ele>
        <time>2024-04-01T08:16:25Z</time>
      </trkpt>
      <trkpt lat="49.97769" lon="4.27592">
        <ele>316.6</ele>
        <time>2024-04-01T08:16:26Z</time>
      </trkpt>
      <trkpt lat="49.97764" lon="4.27589">
        <ele>316.4</ele>
        <time>2024-04-01T08:16:27Z</time>
      </trkpt>
      <trkpt lat="49.97759" lon="4.27586">
        <ele>316.6</ele>
        <time>2024-04-01T08:16:28Z</time>
      </trkpt>
      <trkpt lat="49.97754" lon="4.27583">
        <ele>316.4</ele>
        <time>2024-04-01T08:16:29Z</time>
      </trkpt>
      <trkpt lat="49.97749" lon="4.2758">
        <ele>316.4</ele>
        <time>2024-04-01T08:16:30Z</time>
      </trkpt>
      <trkpt lat="49.97743" lon="4.27578">
        <ele>316.4</ele>
        <time>2024-04-01T08:16:31Z</time>
      </trkpt>
      <trkpt lat="49.97738" lon="4.27575">
        <ele>316.6</ele>
        <time>2024-04-01T08:16:32Z</time>
      </trkpt>
      <trkpt lat="49.97733" lon="4.27572">
        <ele>316.6</ele>
        <time>2024-04-01T08:16:33Z</time>
      </trkpt>
      <trkpt lat="49.97727" lon="4.2757">
        <ele>316.6</ele>
        <time>2024-04-01T08:16:34Z</time>
      </trkpt>
      <trkpt lat="49.97722" lon="4.27567">
        <ele>316.2</ele>
        <time>2024-04-01T08:16:35Z</time>
      </trkpt>
      <trkpt lat="49.97716" lon="4.27565">
        <ele>316</ele>
        <time>2024-04-01T08:16:36Z</time>
      </trkpt>
      <trkpt lat="49.9771" lon="4.27563">
        <ele>316</ele>
        <time>2024-04-01T08:16:37Z</time>
      </trkpt>
      <trkpt lat="49.97705" lon="4.2756">
        <ele>315.8</ele>
        <time>2024-04-01T08:16:38Z</time>
      </trkpt>
      <trkpt lat="49.97699" lon="4.27558">
        <ele>315.8</ele>
        <time>2024-04-01T08:16:39Z</time>
      </trkpt>
      <trkpt lat="49.97693" lon="4.27557">
        <ele>315.6</ele>
        <time>2024-04-01T08:16:40Z</time>
      </trkpt>
      <trkpt lat="49.97687" lon="4.27555">
        <ele>315.6</ele>
        <time>2024-04-01T08:16:41Z</time>
      </trkpt>
      <trkpt lat="49.97681" lon="4.27553">
        <ele>315.4</ele>
        <time>2024-04-01T08:16:42Z</time>
      </trkpt>
      <trkpt lat="49.97675" lon="4.27552">
        <ele>315.4</ele>
        <time>2024-04-01T08:16:43Z</time>
      </trkpt>
      <trkpt lat="49.97669" lon="4.2755">
        <ele>315.2</ele>
        <time>2024-04-01T08:16:44Z</time>
      </trkpt>
      <trkpt lat="49.97663" lon="4.27549">
        <ele>315.2</ele>
        <time>2024-04-01T08:16:45Z</time>
      </trkpt>
      <trkpt lat="49.97656" lon="4.27549">
        <ele>315.2</ele>
        <time>2024-04-01T08:16:46Z</time>
      </trkpt>
      <trkpt lat="49.9765" lon="4.27548">
        <ele>315.2</ele>
        <time>2024-04-01T08:16:47Z</time>
      </trkpt>
      <trkpt lat="49.97644" lon="4.27547">
        <ele>315.2</ele>
        <time>2024-04-01T08:16:48Z</time>
      </trkpt>
      <trkpt lat="49.97638" lon="4.27546">
        <ele>315.2</ele>
        <time>2024-04-01T08:16:49Z</time>
      </trkpt>
      <trkpt lat="49.97631" lon="4.27546">
        <ele>315</ele>
        <time>2024-04-01T08:16:50Z</time>
      </trkpt>
      <trkpt lat="49.97625" lon="4.27546">
        <ele>314.8</ele>
        <time>2024-04-01T08:16:51Z</time>
      </trkpt>
      <trkpt lat="49.97618" lon="4.27546">
        <ele>314.6</ele>
        <time>2024-04-01T08:16:52Z</time>
      </trkpt>
      <trkpt lat="49.97612" lon="4.27546">
        <ele>314.4</ele>
        <time>2024-04-01T08:16:53Z</time>
      </trkpt>
      <trkpt lat="49.97605" lon="4.27546">
        <ele>314.2</ele>
        <time>2024-04-01T08:16:54Z</time>
      </trkpt>
      <trkpt lat="49.97598" lon="4.27547">
        <ele>314</ele>
        <time>2024-04-01T08:16:55Z</time>
      </trkpt>
      <trkpt lat="49.97592" lon="4.27548">
        <ele>313.8</ele>
        <time>2024-04-01T08:16:56Z</time>
      </trkpt>
      <trkpt lat="49.97585" lon="4.27549">
        <ele>313.8</ele>
        <time>2024-04-01T08:16:57Z</time>
      </trkpt>
      <trkpt lat="49.97579" lon="4.2755">
        <ele>313.6</ele>
        <time>2024-04-01T08:16:58Z</time>
      </trkpt>
      <trkpt lat="49.97572" lon="4.27551">
        <ele>313.6</ele>
        <time>2024-04-01T08:16:59Z</time>
      </trkpt>
      <trkpt lat="49.97565" lon="4.27552">
        <ele>313.6</ele>
        <time>2024-04-01T08:17:00Z</time>
      </trkpt>
      <trkpt lat="49.97559" lon="4.27554">
        <ele>313.2</ele>
        <time>2024-04-01T08:17:01Z</time>
      </trkpt>
      <trkpt lat="49.97552" lon="4.27555">
        <ele>313</ele>
        <time>2024-04-01T08:17:02Z</time>
      </trkpt>
      <trkpt lat="49.97545" lon="4.27557">
        <ele>313</ele>
        <time>2024-04-01T08:17:03Z</time>
      </trkpt>
      <trkpt lat="49.97538" lon="4.27558">
        <ele>313</ele>
        <time>2024-04-01T08:17:04Z</time>
      </trkpt>
      <trkpt lat="49.97531" lon="4.2756">
        <ele>313</ele>
        <time>2024-04-01T08:17:05Z</time>
      </trkpt>
      <trkpt lat="49.97524" lon="4.27561">
        <ele>312.8</ele>
        <time>2024-04-01T08:17:06Z</time>
      </trkpt>
      <trkpt lat="49.97518" lon="4.27563">
        <ele>312.6</ele>
        <time>2024-04-01T08:17:07Z</time>
      </trkpt>
      <trkpt lat="49.97511" lon="4.27564">
        <ele>312.4</ele>
        <time>2024-04-01T08:17:08Z</time>
      </trkpt>
      <trkpt lat="49.97504" lon="4.27566">
        <ele>312.2</ele>
        <time>2024-04-01T08:17:09Z</time>
      </trkpt>
      <trkpt lat="49.97497" lon="4.27567">
        <ele>311.8</ele>
        <time>2024-04-01T08:17:10Z</time>
      </trkpt>
      <trkpt lat="49.9749" lon="4.27569">
        <ele>311.4</ele>
        <time>2024-04-01T08:17:11Z</time>
      </trkpt>
      <trkpt lat="49.97483" lon="4.2757">
        <ele>311.4</ele>
        <time>2024-04-01T08:17:12Z</time>
      </trkpt>
      <trkpt lat="49.97476" lon="4.27572">
        <ele>311.4</ele>
        <time>2024-04-01T08:17:13Z</time>
      </trkpt>
      <trkpt lat="49.97469" lon="4.27573">
        <ele>311.2</ele>
        <time>2024-04-01T08:17:14Z</time>
      </trkpt>
      <trkpt lat="49.97462" lon="4.27575">
        <ele>311</ele>
        <time>2024-04-01T08:17:15Z</time>
      </trkpt>
      <trkpt lat="49.97455" lon="4.27576">
        <ele>310.6</ele>
        <time>2024-04-01T08:17:16Z</time>
      </trkpt>
      <trkpt lat="49.97448" lon="4.27578">
        <ele>310.4</ele>
        <time>2024-04-01T08:17:17Z</time>
      </trkpt>
      <trkpt lat="49.9744" lon="4.2758">
        <ele>310.4</ele>
        <time>2024-04-01T08:17:18Z</time>
      </trkpt>
      <trkpt lat="49.97433" lon="4.27581">
        <ele>310.2</ele>
        <time>2024-04-01T08:17:19Z</time>
      </trkpt>
      <trkpt lat="49.97426" lon="4.27583">
        <ele>310.2</ele>
        <time>2024-04-01T08:17:20Z</time>
      </trkpt>
      <trkpt lat="49.97419" lon="4.27584">
        <ele>310.2</ele>
        <time>2024-04-01T08:17:21Z</time>
      </trkpt>
      <trkpt lat="49.97411" lon="4.27586">
        <ele>310</ele>
        <time>2024-04-01T08:17:22Z</time>
      </trkpt>
      <trkpt lat="49.97404" lon="4.27588">
        <ele>309.8</ele>
        <time>2024-04-01T08:17:23Z</time>
      </trkpt>
      <trkpt lat="49.97396" lon="4.27589">
        <ele>309.6</ele>
        <time>2024-04-01T08:17:24Z</time>
      </trkpt>
      <trkpt lat="49.97389" lon="4.27591">
        <ele>309.4</ele>
        <time>2024-04-01T08:17:25Z</time>
      </trkpt>
      <trkpt lat="49.97381" lon="4.27593">
        <ele>309</ele>
        <time>2024-04-01T08:17:26Z</time>
      </trkpt>
      <trkpt lat="49.97374" lon="4.27594">
        <ele>308.8</ele>
        <time>2024-04-01T08:17:27Z</time>
      </trkpt>
      <trkpt lat="49.97366" lon="4.27596">
        <ele>308.4</ele>
        <time>2024-04-01T08:17:28Z</time>
      </trkpt>
      <trkpt lat="49.97359" lon="4.27598">
        <ele>308.2</ele>
        <time>2024-04-01T08:17:29Z</time>
      </trkpt>
      <trkpt lat="49.97351" lon="4.27599">
        <ele>307.8</ele>
        <time>2024-04-01T08:17:30Z</time>
      </trkpt>
      <trkpt lat="49.97344" lon="4.27601">
        <ele>307.6</ele>
        <time>2024-04-01T08:17:31Z</time>
      </trkpt>
      <trkpt lat="49.97336" lon="4.27603">
        <ele>307.2</ele>
        <time>2024-04-01T08:17:32Z</time>
      </trkpt>
      <trkpt lat="49.97328" lon="4.27604">
        <ele>306.8</ele>
        <time>2024-04-01T08:17:33Z</time>
      </trkpt>
      <trkpt lat="49.9732" lon="4.27606">
        <ele>306.2</ele>
        <time>2024-04-01T08:17:34Z</time>
      </trkpt>
      <trkpt lat="49.97312" lon="4.27607">
        <ele>305.8</ele>
        <time>2024-04-01T08:17:35Z</time>
      </trkpt>
      <trkpt lat="49.97304" lon="4.27608">
        <ele>305.6</ele>
        <time>2024-04-01T08:17:36Z</time>
      </trkpt>
      <trkpt lat="49.97296" lon="4.27608">
        <ele>305.4</ele>
        <time>2024-04-01T08:17:37Z</time>
      </trkpt>
      <trkpt lat="49.97288" lon="4.27608">
        <ele>305.2</ele>
        <time>2024-04-01T08:17:38Z</time>
      </trkpt>
      <trkpt lat="49.9728" lon="4.27607">
        <ele>305.2</ele>
        <time>2024-04-01T08:17:39Z</time>
      </trkpt>
      <trkpt lat="49.97271" lon="4.27606">
        <ele>305.2</ele>
        <time>2024-04-01T08:17:40Z</time>
      </trkpt>
      <trkpt lat="49.97263" lon="4.27605">
        <ele>305.2</ele>
        <time>2024-04-01T08:17:41Z</time>
      </trkpt>
      <trkpt lat="49.97254" lon="4.27604">
        <ele>305</ele>
        <time>2024-04-01T08:17:42Z</time>
      </trkpt>
      <trkpt lat="49.97246" lon="4.27602">
        <ele>304.8</ele>
        <time>2024-04-01T08:17:43Z</time>
      </trkpt>
      <trkpt lat="49.97237" lon="4.27601">
        <ele>304.6</ele>
        <time>2024-04-01T08:17:44Z</time>
      </trkpt>
      <trkpt lat="49.97228" lon="4.27599">
        <ele>304.8</ele>
        <time>2024-04-01T08:17:45Z</time>
      </trkpt>
      <trkpt lat="49.97219" lon="4.27598">
        <ele>304.2</ele>
        <time>2024-04-01T08:17:46Z</time>
      </trkpt>
      <trkpt lat="49.9721" lon="4.27596">
        <ele>303.6</ele>
        <time>2024-04-01T08:17:47Z</time>
      </trkpt>
      <trkpt lat="49.97201" lon="4.27595">
        <ele>303</ele>
        <time>2024-04-01T08:17:48Z</time>
      </trkpt>
      <trkpt lat="49.97192" lon="4.27594">
        <ele>302.2</ele>
        <time>2024-04-01T08:17:49Z</time>
      </trkpt>
      <trkpt lat="49.97182" lon="4.27592">
        <ele>301.6</ele>
        <time>2024-04-01T08:17:50Z</time>
      </trkpt>
      <trkpt lat="49.97173" lon="4.27591">
        <ele>300.8</ele>
        <time>2024-04-01T08:17:51Z</time>
      </trkpt>
      <trkpt lat="49.97164" lon="4.27589">
        <ele>300.4</ele>
        <time>2024-04-01T08:17:52Z</time>
      </trkpt>
      <trkpt lat="49.97154" lon="4.27588">
        <ele>299.6</ele>
        <time>2024-04-01T08:17:53Z</time>
      </trkpt>
      <trkpt lat="49.97145" lon="4.27586">
        <ele>299</ele>
        <time>2024-04-01T08:17:54Z</time>
      </trkpt>
      <trkpt lat="49.97135" lon="4.27584">
        <ele>298.8</ele>
        <time>2024-04-01T08:17:55Z</time>
      </trkpt>
      <trkpt lat="49.97125" lon="4.27583">
        <ele>298.2</ele>
        <time>2024-04-01T08:17:56Z</time>
      </trkpt>
      <trkpt lat="49.97115" lon="4.27581">
        <ele>298.2</ele>
        <time>2024-04-01T08:17:57Z</time>
      </trkpt>
      <trkpt lat="49.97105" lon="4.2758">
        <ele>297.8</ele>
        <time>2024-04-01T08:17:58Z</time>
      </trkpt>
      <trkpt lat="49.97095" lon="4.27578">
        <ele>297.2</ele>
        <time>2024-04-01T08:17:59Z</time>
      </trkpt>
      <trkpt lat="49.97085" lon="4.27577">
        <ele>296.6</ele>
        <time>2024-04-01T08:18:00Z</time>
      </trkpt>
      <trkpt lat="49.97075" lon="4.27575">
        <ele>295.8</ele>
        <time>2024-04-01T08:18:01Z</time>
      </trkpt>
      <trkpt lat="49.97065" lon="4.27573">
        <ele>295.2</ele>
        <time>2024-04-01T08:18:02Z</time>
      </trkpt>
      <trkpt lat="49.97055" lon="4.27572">
        <ele>294.4</ele>
        <time>2024-04-01T08:18:03Z</time>
      </trkpt>
      <trkpt lat="49.97045" lon="4.2757">
        <ele>293</ele>
        <time>2024-04-01T08:18:04Z</time>
      </trkpt>
      <trkpt lat="49.97034" lon="4.27568">
        <ele>292.2</ele>
        <time>2024-04-01T08:18:05Z</time>
      </trkpt>
      <trkpt lat="49.97024" lon="4.27566">
        <ele>291.4</ele>
        <time>2024-04-01T08:18:06Z</time>
      </trkpt>
      <trkpt lat="49.97014" lon="4.27565">
        <ele>291</ele>
        <time>2024-04-01T08:18:07Z</time>
      </trkpt>
      <trkpt lat="49.97003" lon="4.27563">
        <ele>289.8</ele>
        <time>2024-04-01T08:18:08Z</time>
      </trkpt>
      <trkpt lat="49.96993" lon="4.27561">
        <ele>289</ele>
        <time>2024-04-01T08:18:09Z</time>
      </trkpt>
      <trkpt lat="49.96983" lon="4.2756">
        <ele>288.4</ele>
        <time>2024-04-01T08:18:10Z</time>
      </trkpt>
      <trkpt lat="49.96973" lon="4.27558">
        <ele>288</ele>
        <time>2024-04-01T08:18:11Z</time>
      </trkpt>
      <trkpt lat="49.96963" lon="4.27557">
        <ele>287.8</ele>
        <time>2024-04-01T08:18:12Z</time>
      </trkpt>
      <trkpt lat="49.96953" lon="4.27556">
        <ele>287.8</ele>
        <time>2024-04-01T08:18:13Z</time>
      </trkpt>
      <trkpt lat="49.96943" lon="4.27555">
        <ele>287.4</ele>
        <time>2024-04-01T08:18:14Z</time>
      </trkpt>
      <trkpt lat="49.96933" lon="4.27554">
        <ele>287.2</ele>
        <time>2024-04-01T08:18:15Z</time>
      </trkpt>
      <trkpt lat="49.96924" lon="4.27552">
        <ele>286.4</ele>
        <time>2024-04-01T08:18:16Z</time>
      </trkpt>
      <trkpt lat="49.96914" lon="4.27551">
        <ele>286</ele>
        <time>2024-04-01T08:18:17Z</time>
      </trkpt>
      <trkpt lat="49.96905" lon="4.27549">
        <ele>285.4</ele>
        <time>2024-04-01T08:18:18Z</time>
      </trkpt>
      <trkpt lat="49.96896" lon="4.27548">
        <ele>285.2</ele>
        <time>2024-04-01T08:18:19Z</time>
      </trkpt>
      <trkpt lat="49.96887" lon="4.27546">
        <ele>284.4</ele>
        <time>2024-04-01T08:18:20Z</time>
      </trkpt>
      <trkpt lat="49.96878" lon="4.27545">
        <ele>283.8</ele>
        <time>2024-04-01T08:18:21Z</time>
      </trkpt>
      <trkpt lat="49.96869" lon="4.27544">
        <ele>283.4</ele>
        <time>2024-04-01T08:18:22Z</time>
      </trkpt>
      <trkpt lat="49.9686" lon="4.27542">
        <ele>282.8</ele>
        <time>2024-04-01T08:18:23Z</time>
      </trkpt>
      <trkpt lat="49.96851" lon="4.27541">
        <ele>282.4</ele>
        <time>2024-04-01T08:18:24Z</time>
      </trkpt>
      <trkpt lat="49.96842" lon="4.2754">
        <ele>282.2</ele>
        <time>2024-04-01T08:18:25Z</time>
      </trkpt>
      <trkpt lat="49.96834" lon="4.27538">
        <ele>282</ele>
        <time>2024-04-01T08:18:26Z</time>
      </trkpt>
      <trkpt lat="49.96825" lon="4.27536">
        <ele>281.8</ele>
        <time>2024-04-01T08:18:27Z</time>
      </trkpt>
      <trkpt lat="49.96816" lon="4.27534">
        <ele>281.8</ele>
        <time>2024-04-01T08:18:28Z</time>
      </trkpt>
      <trkpt lat="49.96808" lon="4.27532">
        <ele>281.8</ele>
        <time>2024-04-01T08:18:29Z</time>
      </trkpt>
      <trkpt lat="49.968" lon="4.2753">
        <ele>281.6</ele>
        <time>2024-04-01T08:18:30Z</time>
      </trkpt>
      <trkpt lat="49.96791" lon="4.27528">
        <ele>281</ele>
        <time>2024-04-01T08:18:31Z</time>
      </trkpt>
      <trkpt lat="49.96783" lon="4.27526">
        <ele>280.6</ele>
        <time>2024-04-01T08:18:32Z</time>
      </trkpt>
      <trkpt lat="49.96775" lon="4.27524">
        <ele>280.6</ele>
        <time>2024-04-01T08:18:33Z</time>
      </trkpt>
      <trkpt lat="49.96767" lon="4.27521">
        <ele>280.2</ele>
        <time>2024-04-01T08:18:34Z</time>
      </trkpt>
      <trkpt lat="49.96759" lon="4.27518">
        <ele>280</ele>
        <time>2024-04-01T08:18:35Z</time>
      </trkpt>
      <trkpt lat="49.96751" lon="4.27515">
        <ele>279.8</ele>
        <time>2024-04-01T08:18:36Z</time>
      </trkpt>
      <trkpt lat="49.96743" lon="4.27512">
        <ele>279.8</ele>
        <time>2024-04-01T08:18:37Z</time>
      </trkpt>
      <trkpt lat="49.96735" lon="4.27508">
        <ele>279.8</ele>
        <time>2024-04-01T08:18:38Z</time>
      </trkpt>
      <trkpt lat="49.96728" lon="4.27504">
        <ele>279.8</ele>
        <time>2024-04-01T08:18:39Z</time>
      </trkpt>
      <trkpt lat="49.9672" lon="4.27499">
        <ele>279.8</ele>
        <time>2024-04-01T08:18:40Z</time>
      </trkpt>
      <trkpt lat="49.96713" lon="4.27493">
        <ele>279.8</ele>
        <time>2024-04-01T08:18:41Z</time>
      </trkpt>
      <trkpt lat="49.96706" lon="4.27487">
        <ele>279.8</ele>
        <time>2024-04-01T08:18:42Z</time>
      </trkpt>
      <trkpt lat="49.96699" lon="4.27481">
        <ele>279.8</ele>
        <time>2024-04-01T08:18:43Z</time>
      </trkpt>
      <trkpt lat="49.96692" lon="4.27474">
        <ele>279.8</ele>
        <time>2024-04-01T08:18:44Z</time>
      </trkpt>
      <trkpt lat="49.96686" lon="4.27467">
        <ele>279.8</ele>
        <time>2024-04-01T08:18:45Z</time>
      </trkpt>
      <trkpt lat="49.9668" lon="4.2746">
        <ele>279.8</ele>
        <time>2024-04-01T08:18:46Z</time>
      </trkpt>
      <trkpt lat="49.96673" lon="4.27453">
        <ele>279.8</ele>
        <time>2024-04-01T08:18:47Z</time>
      </trkpt>
      <trkpt lat="49.96667" lon="4.27445">
        <ele>280.2</ele>
        <time>2024-04-01T08:18:48Z</time>
      </trkpt>
      <trkpt lat="49.96661" lon="4.27437">
        <ele>280.4</ele>
        <time>2024-04-01T08:18:49Z</time>
      </trkpt>
      <trkpt lat="49.96655" lon="4.27429">
        <ele>280.8</ele>
        <time>2024-04-01T08:18:50Z</time>
      </trkpt>
      <trkpt lat="49.9665" lon="4.27421">
        <ele>280.8</ele>
        <time>2024-04-01T08:18:51Z</time>
      </trkpt>
      <trkpt lat="49.96644" lon="4.27413">
        <ele>280.8</ele>
        <time>2024-04-01T08:18:52Z</time>
      </trkpt>
      <trkpt lat="49.96638" lon="4.27404">
        <ele>280.8</ele>
        <time>2024-04-01T08:18:53Z</time>
      </trkpt>
      <trkpt lat="49.96633" lon="4.27395">
        <ele>281</ele>
        <time>2024-04-01T08:18:54Z</time>
      </trkpt>
      <trkpt lat="49.96629" lon="4.27385">
        <ele>280.8</ele>
        <time>2024-04-01T08:18:55Z</time>
      </trkpt>
      <trkpt lat="49.96625" lon="4.27374">
        <ele>280.8</ele>
        <time>2024-04-01T08:18:56Z</time>
      </trkpt>
      <trkpt lat="49.96623" lon="4.27363">
        <ele>280.8</ele>
        <time>2024-04-01T08:18:57Z</time>
      </trkpt>
      <trkpt lat="49.96623" lon="4.27351">
        <ele>281</ele>
        <time>2024-04-01T08:18:58Z</time>
      </trkpt>
      <trkpt lat="49.96623" lon="4.2734">
        <ele>281</ele>
        <time>2024-04-01T08:18:59Z</time>
      </trkpt>
      <trkpt lat="49.96624" lon="4.27329">
        <ele>281</ele>
        <time>2024-04-01T08:19:00Z</time>
      </trkpt>
      <trkpt lat="49.96625" lon="4.27318">
        <ele>280.8</ele>
        <time>2024-04-01T08:19:01Z</time>
      </trkpt>
      <trkpt lat="49.96625" lon="4.27308">
        <ele>281</ele>
        <time>2024-04-01T08:19:02Z</time>
      </trkpt>
      <trkpt lat="49.96626" lon="4.27298">
        <ele>280.8</ele>
        <time>2024-04-01T08:19:03Z</time>
      </trkpt>
      <trkpt lat="49.96626" lon="4.27288">
        <ele>280.8</ele>
        <time>2024-04-01T08:19:04Z</time>
      </trkpt>
      <trkpt lat="49.96627" lon="4.27278">
        <ele>281</ele>
        <time>2024-04-01T08:19:05Z</time>
      </trkpt>
      <trkpt lat="49.96628" lon="4.27269">
        <ele>281</ele>
        <time>2024-04-01T08:19:06Z</time>
      </trkpt>
      <trkpt lat="49.96629" lon="4.27259">
        <ele>281</ele>
        <time>2024-04-01T08:19:07Z</time>
      </trkpt>
      <trkpt lat="49.96631" lon="4.2725">
        <ele>281</ele>
        <time>2024-04-01T08:19:08Z</time>
      </trkpt>
      <trkpt lat="49.96632" lon="4.27242">
        <ele>281</ele>
        <time>2024-04-01T08:19:09Z</time>
      </trkpt>
      <trkpt lat="49.96634" lon="4.27233">
        <ele>281.4</ele>
        <time>2024-04-01T08:19:10Z</time>
      </trkpt>
      <trkpt lat="49.96636" lon="4.27225">
        <ele>281.8</ele>
        <time>2024-04-01T08:19:11Z</time>
      </trkpt>
      <trkpt lat="49.96638" lon="4.27217">
        <ele>281.8</ele>
        <time>2024-04-01T08:19:12Z</time>
      </trkpt>
      <trkpt lat="49.9664" lon="4.27209">
        <ele>282.2</ele>
        <time>2024-04-01T08:19:13Z</time>
      </trkpt>
      <trkpt lat="49.96642" lon="4.27202">
        <ele>282.4</ele>
        <time>2024-04-01T08:19:14Z</time>
      </trkpt>
      <trkpt lat="49.96644" lon="4.27195">
        <ele>282.6</ele>
        <time>2024-04-01T08:19:15Z</time>
      </trkpt>
      <trkpt lat="49.96646" lon="4.27188">
        <ele>283.2</ele>
        <time>2024-04-01T08:19:16Z</time>
      </trkpt>
      <trkpt lat="49.96649" lon="4.27181">
        <ele>283.6</ele>
        <time>2024-04-01T08:19:17Z</time>
      </trkpt>
      <trkpt lat="49.96651" lon="4.27175">
        <ele>283.8</ele>
        <time>2024-04-01T08:19:18Z</time>
      </trkpt>
      <trkpt lat="49.96653" lon="4.27168">
        <ele>284</ele>
        <time>2024-04-01T08:19:19Z</time>
      </trkpt>
      <trkpt lat="49.96655" lon="4.27161">
        <ele>284.4</ele>
        <time>2024-04-01T08:19:20Z</time>
      </trkpt>
      <trkpt lat="49.96658" lon="4.27155">
        <ele>284.4</ele>
        <time>2024-04-01T08:19:21Z</time>
      </trkpt>
      <trkpt lat="49.9666" lon="4.27148">
        <ele>284.4</ele>
        <time>2024-04-01T08:19:22Z</time>
      </trkpt>
      <trkpt lat="49.96661" lon="4.27141">
        <ele>284.8</ele>
        <time>2024-04-01T08:19:23Z</time>
      </trkpt>
      <trkpt lat="49.96664" lon="4.27134">
        <ele>285.2</ele>
        <time>2024-04-01T08:19:24Z</time>
      </trkpt>
      <trkpt lat="49.96666" lon="4.27128">
        <ele>285.2</ele>
        <time>2024-04-01T08:19:25Z</time>
      </trkpt>
      <trkpt lat="49.96668" lon="4.27122">
        <ele>285.4</ele>
        <time>2024-04-01T08:19:26Z</time>
      </trkpt>
      <trkpt lat="49.9667" lon="4.27116">
        <ele>285.4</ele>
        <time>2024-04-01T08:19:27Z</time>
      </trkpt>
      <trkpt lat="49.96671" lon="4.27109">
        <ele>285.6</ele>
        <time>2024-04-01T08:19:28Z</time>
      </trkpt>
      <trkpt lat="49.96673" lon="4.27103">
        <ele>285.6</ele>
        <time>2024-04-01T08:19:29Z</time>
      </trkpt>
      <trkpt lat="49.96674" lon="4.27096">
        <ele>285.8</ele>
        <time>2024-04-01T08:19:30Z</time>
      </trkpt>
      <trkpt lat="49.96676" lon="4.27089">
        <ele>286</ele>
        <time>2024-04-01T08:19:31Z</time>
      </trkpt>
      <trkpt lat="49.96678" lon="4.27082">
        <ele>286.8</ele>
        <time>2024-04-01T08:19:32Z</time>
      </trkpt>
      <trkpt lat="49.96679" lon="4.27075">
        <ele>287.2</ele>
        <time>2024-04-01T08:19:33Z</time>
      </trkpt>
      <trkpt lat="49.9668" lon="4.27068">
        <ele>287.6</ele>
        <time>2024-04-01T08:19:34Z</time>
      </trkpt>
      <trkpt lat="49.96681" lon="4.2706">
        <ele>287.8</ele>
        <time>2024-04-01T08:19:35Z</time>
      </trkpt>
      <trkpt lat="49.96682" lon="4.27053">
        <ele>288</ele>
        <time>2024-04-01T08:19:36Z</time>
      </trkpt>
      <trkpt lat="49.96683" lon="4.27044">
        <ele>288.2</ele>
        <time>2024-04-01T08:19:37Z</time>
      </trkpt>
      <trkpt lat="49.96683" lon="4.27036">
        <ele>288.2</ele>
        <time>2024-04-01T08:19:38Z</time>
      </trkpt>
      <trkpt lat="49.96684" lon="4.27027">
        <ele>288.6</ele>
        <time>2024-04-01T08:19:39Z</time>
      </trkpt>
      <trkpt lat="49.96685" lon="4.27018">
        <ele>288.8</ele>
        <time>2024-04-01T08:19:40Z</time>
      </trkpt>
      <trkpt lat="49.96685" lon="4.27009">
        <ele>288.8</ele>
        <time>2024-04-01T08:19:41Z</time>
      </trkpt>
      <trkpt lat="49.96686" lon="4.26999">
        <ele>288.8</ele>
        <time>2024-04-01T08:19:42Z</time>
      </trkpt>
      <trkpt lat="49.96686" lon="4.2699">
        <ele>288.8</ele>
        <time>2024-04-01T08:19:43Z</time>
      </trkpt>
      <trkpt lat="49.96687" lon="4.2698">
        <ele>288.8</ele>
        <time>2024-04-01T08:19:44Z</time>
      </trkpt>
      <trkpt lat="49.96687" lon="4.2697">
        <ele>288.8</ele>
        <time>2024-04-01T08:19:45Z</time>
      </trkpt>
      <trkpt lat="49.96687" lon="4.2696">
        <ele>288.8</ele>
        <time>2024-04-01T08:19:46Z</time>
      </trkpt>
      <trkpt lat="49.96687" lon="4.2695">
        <ele>288.8</ele>
        <time>2024-04-01T08:19:47Z</time>
      </trkpt>
      <trkpt lat="49.96687" lon="4.2694">
        <ele>288.4</ele>
        <time>2024-04-01T08:19:48Z</time>
      </trkpt>
      <trkpt lat="49.96687" lon="4.2693">
        <ele>288.4</ele>
        <time>2024-04-01T08:19:49Z</time>
      </trkpt>
      <trkpt lat="49.96687" lon="4.26919">
        <ele>288.2</ele>
        <time>2024-04-01T08:19:50Z</time>
      </trkpt>
      <trkpt lat="49.96686" lon="4.26909">
        <ele>288.2</ele>
        <time>2024-04-01T08:19:51Z</time>
      </trkpt>
      <trkpt lat="49.96686" lon="4.26899">
        <ele>288</ele>
        <time>2024-04-01T08:19:52Z</time>
      </trkpt>
      <trkpt lat="49.96685" lon="4.26888">
        <ele>288</ele>
        <time>2024-04-01T08:19:53Z</time>
      </trkpt>
      <trkpt lat="49.96684" lon="4.26878">
        <ele>288</ele>
        <time>2024-04-01T08:19:54Z</time>
      </trkpt>
      <trkpt lat="49.96684" lon="4.26867">
        <ele>287.8</ele>
        <time>2024-04-01T08:19:55Z</time>
      </trkpt>
      <trkpt lat="49.96683" lon="4.26856">
        <ele>287.6</ele>
        <time>2024-04-01T08:19:56Z</time>
      </trkpt>
      <trkpt lat="49.96682" lon="4.26845">
        <ele>287.4</ele>
        <time>2024-04-01T08:19:57Z</time>
      </trkpt>
      <trkpt lat="49.96681" lon="4.26834">
        <ele>287.4</ele>
        <time>2024-04-01T08:19:58Z</time>
      </trkpt>
      <trkpt lat="49.9668" lon="4.26823">
        <ele>287.4</ele>
        <time>2024-04-01T08:19:59Z</time>
      </trkpt>
      <trkpt lat="49.96678" lon="4.26812">
        <ele>287.4</ele>
        <time>2024-04-01T08:20:00Z</time>
      </trkpt>
      <trkpt lat="49.96677" lon="4.268">
        <ele>287.2</ele>
        <time>2024-04-01T08:20:01Z</time>
      </trkpt>
      <trkpt lat="49.96676" lon="4.26789">
        <ele>287.2</ele>
        <time>2024-04-01T08:20:02Z</time>
      </trkpt>
      <trkpt lat="49.96675" lon="4.26777">
        <ele>286.8</ele>
        <time>2024-04-01T08:20:03Z</time>
      </trkpt>
      <trkpt lat="49.96674" lon="4.26765">
        <ele>285.8</ele>
        <time>2024-04-01T08:20:04Z</time>
      </trkpt>
      <trkpt lat="49.96672" lon="4.26753">
        <ele>285.2</ele>
        <time>2024-04-01T08:20:05Z</time>
      </trkpt>
      <trkpt lat="49.96671" lon="4.26741">
        <ele>284.8</ele>
        <time>2024-04-01T08:20:06Z</time>
      </trkpt>
      <trkpt lat="49.9667" lon="4.26728">
        <ele>284.4</ele>
        <time>2024-04-01T08:20:07Z</time>
      </trkpt>
      <trkpt lat="49.96669" lon="4.26716">
        <ele>284</ele>
        <time>2024-04-01T08:20:08Z</time>
      </trkpt>
      <trkpt lat="49.96667" lon="4.26703">
        <ele>283.6</ele>
        <time>2024-04-01T08:20:09Z</time>
      </trkpt>
      <trkpt lat="49.96666" lon="4.26691">
        <ele>283.2</ele>
        <time>2024-04-01T08:20:10Z</time>
      </trkpt>
      <trkpt lat="49.96665" lon="4.26678">
        <ele>283</ele>
        <time>2024-04-01T08:20:11Z</time>
      </trkpt>
      <trkpt lat="49.96663" lon="4.26665">
        <ele>283</ele>
        <time>2024-04-01T08:20:12Z</time>
      </trkpt>
      <trkpt lat="49.96662" lon="4.26652">
        <ele>282.6</ele>
        <time>2024-04-01T08:20:13Z</time>
      </trkpt>
      <trkpt lat="49.96661" lon="4.26639">
        <ele>281.8</ele>
        <time>2024-04-01T08:20:14Z</time>
      </trkpt>
      <trkpt lat="49.96659" lon="4.26625">
        <ele>281.2</ele>
        <time>2024-04-01T08:20:15Z</time>
      </trkpt>
      <trkpt lat="49.96658" lon="4.26612">
        <ele>280.6</ele>
        <time>2024-04-01T08:20:16Z</time>
      </trkpt>
      <trkpt lat="49.96657" lon="4.26598">
        <ele>280.2</ele>
        <time>2024-04-01T08:20:17Z</time>
      </trkpt>
      <trkpt lat="49.96655" lon="4.26584">
        <ele>279.8</ele>
        <time>2024-04-01T08:20:18Z</time>
      </trkpt>
      <trkpt lat="49.96654" lon="4.2657">
        <ele>279.6</ele>
        <time>2024-04-01T08:20:19Z</time>
      </trkpt>
      <trkpt lat="49.96653" lon="4.26557">
        <ele>279.2</ele>
        <time>2024-04-01T08:20:20Z</time>
      </trkpt>
      <trkpt lat="49.96651" lon="4.26544">
        <ele>278.8</ele>
        <time>2024-04-01T08:20:21Z</time>
      </trkpt>
      <trkpt lat="49.9665" lon="4.26531">
        <ele>278.4</ele>
        <time>2024-04-01T08:20:22Z</time>
      </trkpt>
      <trkpt lat="49.96649" lon="4.26518">
        <ele>277.6</ele>
        <time>2024-04-01T08:20:23Z</time>
      </trkpt>
      <trkpt lat="49.96647" lon="4.26505">
        <ele>277</ele>
        <time>2024-04-01T08:20:24Z</time>
      </trkpt>
      <trkpt lat="49.96646" lon="4.26493">
        <ele>276.4</ele>
        <time>2024-04-01T08:20:25Z</time>
      </trkpt>
      <trkpt lat="49.96645" lon="4.26481">
        <ele>275.8</ele>
        <time>2024-04-01T08:20:26Z</time>
      </trkpt>
      <trkpt lat="49.96644" lon="4.26469">
        <ele>275.8</ele>
        <time>2024-04-01T08:20:27Z</time>
      </trkpt>
      <trkpt lat="49.96642" lon="4.26458">
        <ele>275.6</ele>
        <time>2024-04-01T08:20:28Z</time>
      </trkpt>
      <trkpt lat="49.96641" lon="4.26447">
        <ele>275.6</ele>
        <time>2024-04-01T08:20:29Z</time>
      </trkpt>
      <trkpt lat="49.9664" lon="4.26437">
        <ele>275.4</ele>
        <time>2024-04-01T08:20:30Z</time>
      </trkpt>
      <trkpt lat="49.96639" lon="4.26426">
        <ele>275.4</ele>
        <time>2024-04-01T08:20:31Z</time>
      </trkpt>
      <trkpt lat="49.96638" lon="4.26416">
        <ele>275.4</ele>
        <time>2024-04-01T08:20:32Z</time>
      </trkpt>
      <trkpt lat="49.96637" lon="4.26407">
        <ele>275.4</ele>
        <time>2024-04-01T08:20:33Z</time>
      </trkpt>
      <trkpt lat="49.96636" lon="4.26397">
        <ele>275.2</ele>
        <time>2024-04-01T08:20:34Z</time>
      </trkpt>
      <trkpt lat="49.96635" lon="4.26388">
        <ele>275.4</ele>
        <time>2024-04-01T08:20:35Z</time>
      </trkpt>
      <trkpt lat="49.96634" lon="4.26378">
        <ele>275.2</ele>
        <time>2024-04-01T08:20:36Z</time>
      </trkpt>
      <trkpt lat="49.96633" lon="4.26369">
        <ele>275.4</ele>
        <time>2024-04-01T08:20:37Z</time>
      </trkpt>
      <trkpt lat="49.96632" lon="4.2636">
        <ele>276.2</ele>
        <time>2024-04-01T08:20:38Z</time>
      </trkpt>
      <trkpt lat="49.96631" lon="4.26351">
        <ele>276.8</ele>
        <time>2024-04-01T08:20:39Z</time>
      </trkpt>
      <trkpt lat="49.9663" lon="4.26342">
        <ele>277.2</ele>
        <time>2024-04-01T08:20:40Z</time>
      </trkpt>
      <trkpt lat="49.96629" lon="4.26333">
        <ele>277.6</ele>
        <time>2024-04-01T08:20:41Z</time>
      </trkpt>
      <trkpt lat="49.96628" lon="4.26324">
        <ele>277.8</ele>
        <time>2024-04-01T08:20:42Z</time>
      </trkpt>
      <trkpt lat="49.96627" lon="4.26315">
        <ele>277.8</ele>
        <time>2024-04-01T08:20:43Z</time>
      </trkpt>
      <trkpt lat="49.96626" lon="4.26307">
        <ele>278</ele>
        <time>2024-04-01T08:20:44Z</time>
      </trkpt>
      <trkpt lat="49.96625" lon="4.26298">
        <ele>278.2</ele>
        <time>2024-04-01T08:20:45Z</time>
      </trkpt>
      <trkpt lat="49.96624" lon="4.26289">
        <ele>278.6</ele>
        <time>2024-04-01T08:20:46Z</time>
      </trkpt>
      <trkpt lat="49.96623" lon="4.26281">
        <ele>278.6</ele>
        <time>2024-04-01T08:20:47Z</time>
      </trkpt>
      <trkpt lat="49.96623" lon="4.26272">
        <ele>279</ele>
        <time>2024-04-01T08:20:48Z</time>
      </trkpt>
      <trkpt lat="49.96622" lon="4.26264">
        <ele>279</ele>
        <time>2024-04-01T08:20:49Z</time>
      </trkpt>
      <trkpt lat="49.96621" lon="4.26255">
        <ele>279.4</ele>
        <time>2024-04-01T08:20:50Z</time>
      </trkpt>
      <trkpt lat="49.9662" lon="4.26247">
        <ele>279.8</ele>
        <time>2024-04-01T08:20:51Z</time>
      </trkpt>
      <trkpt lat="49.96619" lon="4.26238">
        <ele>280</ele>
        <time>2024-04-01T08:20:52Z</time>
      </trkpt>
      <trkpt lat="49.96618" lon="4.2623">
        <ele>280.4</ele>
        <time>2024-04-01T08:20:53Z</time>
      </trkpt>
      <trkpt lat="49.96617" lon="4.26222">
        <ele>280.8</ele>
        <time>2024-04-01T08:20:54Z</time>
      </trkpt>
      <trkpt lat="49.96616" lon="4.26214">
        <ele>280.8</ele>
        <time>2024-04-01T08:20:55Z</time>
      </trkpt>
      <trkpt lat="49.96616" lon="4.26205">
        <ele>281</ele>
        <time>2024-04-01T08:20:56Z</time>
      </trkpt>
      <trkpt lat="49.96615" lon="4.26197">
        <ele>281.2</ele>
        <time>2024-04-01T08:20:57Z</time>
      </trkpt>
      <trkpt lat="49.96614" lon="4.26189">
        <ele>281.4</ele>
        <time>2024-04-01T08:20:58Z</time>
      </trkpt>
      <trkpt lat="49.96613" lon="4.26181">
        <ele>281.4</ele>
        <time>2024-04-01T08:20:59Z</time>
      </trkpt>
      <trkpt lat="49.96612" lon="4.26173">
        <ele>281.4</ele>
        <time>2024-04-01T08:21:00Z</time>
      </trkpt>
      <trkpt lat="49.96611" lon="4.26165">
        <ele>282</ele>
        <time>2024-04-01T08:21:01Z</time>
      </trkpt>
      <trkpt lat="49.96611" lon="4.26158">
        <ele>282.2</ele>
        <time>2024-04-01T08:21:02Z</time>
      </trkpt>
      <trkpt lat="49.9661" lon="4.2615">
        <ele>282.2</ele>
        <time>2024-04-01T08:21:03Z</time>
      </trkpt>
      <trkpt lat="49.96609" lon="4.26142">
        <ele>282.4</ele>
        <time>2024-04-01T08:21:04Z</time>
      </trkpt>
      <trkpt lat="49.96608" lon="4.26134">
        <ele>282.4</ele>
        <time>2024-04-01T08:21:05Z</time>
      </trkpt>
      <trkpt lat="49.96608" lon="4.26126">
        <ele>282.6</ele>
        <time>2024-04-01T08:21:06Z</time>
      </trkpt>
      <trkpt lat="49.96607" lon="4.26118">
        <ele>283</ele>
        <time>2024-04-01T08:21:07Z</time>
      </trkpt>
      <trkpt lat="49.96606" lon="4.2611">
        <ele>283</ele>
        <time>2024-04-01T08:21:08Z</time>
      </trkpt>
      <trkpt lat="49.96605" lon="4.26102">
        <ele>283.2</ele>
        <time>2024-04-01T08:21:09Z</time>
      </trkpt>
      <trkpt lat="49.96605" lon="4.26095">
        <ele>283.4</ele>
        <time>2024-04-01T08:21:10Z</time>
      </trkpt>
      <trkpt lat="49.96604" lon="4.26087">
        <ele>283.6</ele>
        <time>2024-04-01T08:21:11Z</time>
      </trkpt>
      <trkpt lat="49.96603" lon="4.2608">
        <ele>283.8</ele>
        <time>2024-04-01T08:21:12Z</time>
      </trkpt>
      <trkpt lat="49.96603" lon="4.26072">
        <ele>284</ele>
        <time>2024-04-01T08:21:13Z</time>
      </trkpt>
      <trkpt lat="49.96602" lon="4.26065">
        <ele>284.2</ele>
        <time>2024-04-01T08:21:14Z</time>
      </trkpt>
      <trkpt lat="49.96601" lon="4.26057">
        <ele>284.4</ele>
        <time>2024-04-01T08:21:15Z</time>
      </trkpt>
      <trkpt lat="49.966" lon="4.26049">
        <ele>284.6</ele>
        <time>2024-04-01T08:21:16Z</time>
      </trkpt>
      <trkpt lat="49.966" lon="4.26042">
        <ele>284.6</ele>
        <time>2024-04-01T08:21:17Z</time>
      </trkpt>
      <trkpt lat="49.96599" lon="4.26034">
        <ele>284.6</ele>
        <time>2024-04-01T08:21:18Z</time>
      </trkpt>
      <trkpt lat="49.96598" lon="4.26027">
        <ele>284.6</ele>
        <time>2024-04-01T08:21:19Z</time>
      </trkpt>
      <trkpt lat="49.96597" lon="4.26019">
        <ele>284.6</ele>
        <time>2024-04-01T08:21:20Z</time>
      </trkpt>
      <trkpt lat="49.96597" lon="4.26012">
        <ele>284.8</ele>
        <time>2024-04-01T08:21:21Z</time>
      </trkpt>
      <trkpt lat="49.96596" lon="4.26004">
        <ele>285.4</ele>
        <time>2024-04-01T08:21:22Z</time>
      </trkpt>
      <trkpt lat="49.96595" lon="4.25997">
        <ele>285.6</ele>
        <time>2024-04-01T08:21:23Z</time>
      </trkpt>
      <trkpt lat="49.96594" lon="4.2599">
        <ele>285.6</ele>
        <time>2024-04-01T08:21:24Z</time>
      </trkpt>
      <trkpt lat="49.96593" lon="4.25982">
        <ele>285.8</ele>
        <time>2024-04-01T08:21:25Z</time>
      </trkpt>
      <trkpt lat="49.96593" lon="4.25975">
        <ele>286</ele>
        <time>2024-04-01T08:21:26Z</time>
      </trkpt>
      <trkpt lat="49.96592" lon="4.25967">
        <ele>286.2</ele>
        <time>2024-04-01T08:21:27Z</time>
      </trkpt>
      <trkpt lat="49.96591" lon="4.2596">
        <ele>286.4</ele>
        <time>2024-04-01T08:21:28Z</time>
      </trkpt>
      <trkpt lat="49.9659" lon="4.25954">
        <ele>286.4</ele>
        <time>2024-04-01T08:21:29Z</time>
      </trkpt>
      <trkpt lat="49.9659" lon="4.25947">
        <ele>286.6</ele>
        <time>2024-04-01T08:21:30Z</time>
      </trkpt>
      <trkpt lat="49.96589" lon="4.25941">
        <ele>286.6</ele>
        <time>2024-04-01T08:21:31Z</time>
      </trkpt>
      <trkpt lat="49.96588" lon="4.25937">
        <ele>286.6</ele>
        <time>2024-04-01T08:21:32Z</time>
      </trkpt>
      <trkpt lat="49.96588" lon="4.25932">
        <ele>286.8</ele>
        <time>2024-04-01T08:21:33Z</time>
      </trkpt>
      <trkpt lat="49.96588" lon="4.2593">
        <ele>286.8</ele>
        <time>2024-04-01T08:21:34Z</time>
      </trkpt>
      <trkpt lat="49.96588" lon="4.25929">
        <ele>287</ele>
        <time>2024-04-01T08:21:35Z</time>
      </trkpt>
      <trkpt lat="49.96588" lon="4.25929">
        <ele>287</ele>
        <time>2024-04-01T08:21:36Z</time>
      </trkpt>
      <trkpt lat="49.96588" lon="4.25929">
        <ele>287</ele>
        <time>2024-04-01T08:21:37Z</time>
      </trkpt>
      <trkpt lat="49.96587" lon="4.25914">
        <ele>287.6</ele>
        <time>2024-04-01T08:22:37Z</time>
      </trkpt>
      <trkpt lat="49.96586" lon="4.25911">
        <ele>287.8</ele>
        <time>2024-04-01T08:22:38Z</time>
      </trkpt>
      <trkpt lat="49.96586" lon="4.25908">
        <ele>287.6</ele>
        <time>2024-04-01T08:22:39Z</time>
      </trkpt>
      <trkpt lat="49.96585" lon="4.25905">
        <ele>287.6</ele>
        <time>2024-04-01T08:22:40Z</time>
      </trkpt>
      <trkpt lat="49.96585" lon="4.25901">
        <ele>287.6</ele>
        <time>2024-04-01T08:22:41Z</time>
      </trkpt>
      <trkpt lat="49.96584" lon="4.25896">
        <ele>287.6</ele>
        <time>2024-04-01T08:22:42Z</time>
      </trkpt>
      <trkpt lat="49.96584" lon="4.25891">
        <ele>287.6</ele>
        <time>2024-04-01T08:22:43Z</time>
      </trkpt>
      <trkpt lat="49.96584" lon="4.25885">
        <ele>287.6</ele>
        <time>2024-04-01T08:22:44Z</time>
      </trkpt>
      <trkpt lat="49.96583" lon="4.25879">
        <ele>287.4</ele>
        <time>2024-04-01T08:22:45Z</time>
      </trkpt>
      <trkpt lat="49.96582" lon="4.25873">
        <ele>287.4</ele>
        <time>2024-04-01T08:22:46Z</time>
      </trkpt>
      <trkpt lat="49.96582" lon="4.25867">
        <ele>287.4</ele>
        <time>2024-04-01T08:22:47Z</time>
      </trkpt>
      <trkpt lat="49.96581" lon="4.2586">
        <ele>287.2</ele>
        <time>2024-04-01T08:22:48Z</time>
      </trkpt>
      <trkpt lat="49.9658" lon="4.25853">
        <ele>287.4</ele>
        <time>2024-04-01T08:22:49Z</time>
      </trkpt>
      <trkpt lat="49.96579" lon="4.25846">
        <ele>287.2</ele>
        <time>2024-04-01T08:22:50Z</time>
      </trkpt>
      <trkpt lat="49.96578" lon="4.25838">
        <ele>287.2</ele>
        <time>2024-04-01T08:22:51Z</time>
      </trkpt>
      <trkpt lat="49.96578" lon="4.2583">
        <ele>287</ele>
        <time>2024-04-01T08:22:52Z</time>
      </trkpt>
      <trkpt lat="49.96577" lon="4.25822">
        <ele>286.8</ele>
        <time>2024-04-01T08:22:53Z</time>
      </trkpt>
      <trkpt lat="49.96576" lon="4.25814">
        <ele>287</ele>
        <time>2024-04-01T08:22:54Z</time>
      </trkpt>
      <trkpt lat="49.96575" lon="4.25806">
        <ele>286.8</ele>
        <time>2024-04-01T08:22:55Z</time>
      </trkpt>
      <trkpt lat="49.96574" lon="4.25797">
        <ele>286.8</ele>
        <time>2024-04-01T08:22:56Z</time>
      </trkpt>
      <trkpt lat="49.96573" lon="4.25789">
        <ele>287</ele>
        <time>2024-04-01T08:22:57Z</time>
      </trkpt>
      <trkpt lat="49.96572" lon="4.25781">
        <ele>286.8</ele>
        <time>2024-04-01T08:22:58Z</time>
      </trkpt>
      <trkpt lat="49.96571" lon="4.25772">
        <ele>286.8</ele>
        <time>2024-04-01T08:22:59Z</time>
      </trkpt>
      <trkpt lat="49.9657" lon="4.25763">
        <ele>286.2</ele>
        <time>2024-04-01T08:23:00Z</time>
      </trkpt>
      <trkpt lat="49.96569" lon="4.25754">
        <ele>285.6</ele>
        <time>2024-04-01T08:23:01Z</time>
      </trkpt>
      <trkpt lat="49.96568" lon="4.25744">
        <ele>285.4</ele>
        <time>2024-04-01T08:23:02Z</time>
      </trkpt>
      <trkpt lat="49.96568" lon="4.25735">
        <ele>285.2</ele>
        <time>2024-04-01T08:23:03Z</time>
      </trkpt>
      <trkpt lat="49.96568" lon="4.25725">
        <ele>285.2</ele>
        <time>2024-04-01T08:23:04Z</time>
      </trkpt>
      <trkpt lat="49.96567" lon="4.25715">
        <ele>285.2</ele>
        <time>2024-04-01T08:23:05Z</time>
      </trkpt>
      <trkpt lat="49.96567" lon="4.25705">
        <ele>285.2</ele>
        <time>2024-04-01T08:23:06Z</time>
      </trkpt>
      <trkpt lat="49.96567" lon="4.25695">
        <ele>285.2</ele>
        <time>2024-04-01T08:23:07Z</time>
      </trkpt>
      <trkpt lat="49.96567" lon="4.25684">
        <ele>285</ele>
        <time>2024-04-01T08:23:08Z</time>
      </trkpt>
      <trkpt lat="49.96567" lon="4.25674">
        <ele>285.2</ele>
        <time>2024-04-01T08:23:09Z</time>
      </trkpt>
      <trkpt lat="49.96566" lon="4.25663">
        <ele>285.2</ele>
        <time>2024-04-01T08:23:10Z</time>
      </trkpt>
      <trkpt lat="49.96566" lon="4.25653">
        <ele>285.2</ele>
        <time>2024-04-01T08:23:11Z</time>
      </trkpt>
      <trkpt lat="49.96565" lon="4.25642">
        <ele>285.4</ele>
        <time>2024-04-01T08:23:12Z</time>
      </trkpt>
      <trkpt lat="49.96565" lon="4.25632">
        <ele>285.4</ele>
        <time>2024-04-01T08:23:13Z</time>
      </trkpt>
      <trkpt lat="49.96565" lon="4.25622">
        <ele>285.4</ele>
        <time>2024-04-01T08:23:14Z</time>
      </trkpt>
      <trkpt lat="49.96564" lon="4.25612">
        <ele>285.4</ele>
        <time>2024-04-01T08:23:15Z</time>
      </trkpt>
      <trkpt lat="49.96564" lon="4.25601">
        <ele>285.4</ele>
        <time>2024-04-01T08:23:16Z</time>
      </trkpt>
      <trkpt lat="49.96563" lon="4.25591">
        <ele>285.4</ele>
        <time>2024-04-01T08:23:17Z</time>
      </trkpt>
      <trkpt lat="49.96563" lon="4.25581">
        <ele>285.4</ele>
        <time>2024-04-01T08:23:18Z</time>
      </trkpt>
      <trkpt lat="49.96563" lon="4.25571">
        <ele>285.2</ele>
        <time>2024-04-01T08:23:19Z</time>
      </trkpt>
      <trkpt lat="49.96562" lon="4.25561">
        <ele>285.2</ele>
        <time>2024-04-01T08:23:20Z</time>
      </trkpt>
      <trkpt lat="49.96562" lon="4.25551">
        <ele>285.4</ele>
        <time>2024-04-01T08:23:21Z</time>
      </trkpt>
      <trkpt lat="49.96562" lon="4.25541">
        <ele>285.2</ele>
        <time>2024-04-01T08:23:22Z</time>
      </trkpt>
      <trkpt lat="49.96561" lon="4.25532">
        <ele>285.6</ele>
        <time>2024-04-01T08:23:23Z</time>
      </trkpt>
      <trkpt lat="49.96561" lon="4.25522">
        <ele>285.6</ele>
        <time>2024-04-01T08:23:24Z</time>
      </trkpt>
      <trkpt lat="49.96561" lon="4.25512">
        <ele>285.8</ele>
        <time>2024-04-01T08:23:25Z</time>
      </trkpt>
      <trkpt lat="49.96561" lon="4.25503">
        <ele>285.8</ele>
        <time>2024-04-01T08:23:26Z</time>
      </trkpt>
      <trkpt lat="49.96561" lon="4.25493">
        <ele>285.8</ele>
        <time>2024-04-01T08:23:27Z</time>
      </trkpt>
      <trkpt lat="49.96561" lon="4.25484">
        <ele>285.8</ele>
        <time>2024-04-01T08:23:28Z</time>
      </trkpt>
      <trkpt lat="49.96562" lon="4.25475">
        <ele>285.8</ele>
        <time>2024-04-01T08:23:29Z</time>
      </trkpt>
      <trkpt lat="49.96562" lon="4.25466">
        <ele>285.8</ele>
        <time>2024-04-01T08:23:30Z</time>
      </trkpt>
      <trkpt lat="49.96563" lon="4.25458">
        <ele>285.8</ele>
        <time>2024-04-01T08:23:31Z</time>
      </trkpt>
      <trkpt lat="49.96563" lon="4.25449">
        <ele>285.8</ele>
        <time>2024-04-01T08:23:32Z</time>
      </trkpt>
      <trkpt lat="49.96564" lon="4.2544">
        <ele>285.8</ele>
        <time>2024-04-01T08:23:33Z</time>
      </trkpt>
      <trkpt lat="49.96565" lon="4.25432">
        <ele>286</ele>
        <time>2024-04-01T08:23:34Z</time>
      </trkpt>
      <trkpt lat="49.96566" lon="4.25423">
        <ele>286.4</ele>
        <time>2024-04-01T08:23:35Z</time>
      </trkpt>
      <trkpt lat="49.96566" lon="4.25415">
        <ele>286.4</ele>
        <time>2024-04-01T08:23:36Z</time>
      </trkpt>
      <trkpt lat="49.96567" lon="4.25407">
        <ele>286.4</ele>
        <time>2024-04-01T08:23:37Z</time>
      </trkpt>
      <trkpt lat="49.96568" lon="4.25398">
        <ele>286.8</ele>
        <time>2024-04-01T08:23:38Z</time>
      </trkpt>
      <trkpt lat="49.96568" lon="4.2539">
        <ele>287.2</ele>
        <time>2024-04-01T08:23:39Z</time>
      </trkpt>
      <trkpt lat="49.96569" lon="4.25382">
        <ele>287.4</ele>
        <time>2024-04-01T08:23:40Z</time>
      </trkpt>
      <trkpt lat="49.9657" lon="4.25373">
        <ele>287.4</ele>
        <time>2024-04-01T08:23:41Z</time>
      </trkpt>
      <trkpt lat="49.9657" lon="4.25365">
        <ele>287.6</ele>
        <time>2024-04-01T08:23:42Z</time>
      </trkpt>
      <trkpt lat="49.96571" lon="4.25357">
        <ele>287.8</ele>
        <time>2024-04-01T08:23:43Z</time>
      </trkpt>
      <trkpt lat="49.96572" lon="4.25349">
        <ele>288.2</ele>
        <time>2024-04-01T08:23:44Z</time>
      </trkpt>
      <trkpt lat="49.96572" lon="4.25341">
        <ele>288.2</ele>
        <time>2024-04-01T08:23:45Z</time>
      </trkpt>
      <trkpt lat="49.96573" lon="4.25333">
        <ele>288.6</ele>
        <time>2024-04-01T08:23:46Z</time>
      </trkpt>
      <trkpt lat="49.96573" lon="4.25325">
        <ele>288.8</ele>
        <time>2024-04-01T08:23:47Z</time>
      </trkpt>
      <trkpt lat="49.96574" lon="4.25318">
        <ele>289</ele>
        <time>2024-04-01T08:23:48Z</time>
      </trkpt>
      <trkpt lat="49.96575" lon="4.2531">
        <ele>289</ele>
        <time>2024-04-01T08:23:49Z</time>
      </trkpt>
      <trkpt lat="49.96576" lon="4.25302">
        <ele>289.2</ele>
        <time>2024-04-01T08:23:50Z</time>
      </trkpt>
      <trkpt lat="49.96576" lon="4.25295">
        <ele>289.2</ele>
        <time>2024-04-01T08:23:51Z</time>
      </trkpt>
      <trkpt lat="49.96577" lon="4.25287">
        <ele>289.6</ele>
        <time>2024-04-01T08:23:52Z</time>
      </trkpt>
      <trkpt lat="49.96578" lon="4.2528">
        <ele>289.8</ele>
        <time>2024-04-01T08:23:53Z</time>
      </trkpt>
      <trkpt lat="49.96578" lon="4.25273">
        <ele>290</ele>
        <time>2024-04-01T08:23:54Z</time>
      </trkpt>
      <trkpt lat="49.96578" lon="4.25266">
        <ele>290.4</ele>
        <time>2024-04-01T08:23:55Z</time>
      </trkpt>
      <trkpt lat="49.96579" lon="4.25259">
        <ele>290.8</ele>
        <time>2024-04-01T08:23:56Z</time>
      </trkpt>
      <trkpt lat="49.96578" lon="4.25252">
        <ele>291</ele>
        <time>2024-04-01T08:23:57Z</time>
      </trkpt>
      <trkpt lat="49.96577" lon="4.25246">
        <ele>291</ele>
        <time>2024-04-01T08:23:58Z</time>
      </trkpt>
      <trkpt lat="49.96575" lon="4.25241">
        <ele>291.2</ele>
        <time>2024-04-01T08:23:59Z</time>
      </trkpt>
      <trkpt lat="49.96572" lon="4.25235">
        <ele>291.4</ele>
        <time>2024-04-01T08:24:00Z</time>
      </trkpt>
      <trkpt lat="49.96568" lon="4.2523">
        <ele>291.4</ele>
        <time>2024-04-01T08:24:01Z</time>
      </trkpt>
      <trkpt lat="49.96563" lon="4.25226">
        <ele>291.8</ele>
        <time>2024-04-01T08:24:02Z</time>
      </trkpt>
      <trkpt lat="49.96559" lon="4.25221">
        <ele>292.4</ele>
        <time>2024-04-01T08:24:03Z</time>
      </trkpt>
      <trkpt lat="49.96554" lon="4.25216">
        <ele>292.8</ele>
        <time>2024-04-01T08:24:04Z</time>
      </trkpt>
      <trkpt lat="49.96548" lon="4.25211">
        <ele>292.8</ele>
        <time>2024-04-01T08:24:05Z</time>
      </trkpt>
      <trkpt lat="49.96543" lon="4.25205">
        <ele>292.8</ele>
        <time>2024-04-01T08:24:06Z</time>
      </trkpt>
      <trkpt lat="49.96537" lon="4.25199">
        <ele>293</ele>
        <time>2024-04-01T08:24:07Z</time>
      </trkpt>
      <trkpt lat="49.96531" lon="4.25193">
        <ele>292.8</ele>
        <time>2024-04-01T08:24:08Z</time>
      </trkpt>
      <trkpt lat="49.96525" lon="4.25188">
        <ele>293</ele>
        <time>2024-04-01T08:24:09Z</time>
      </trkpt>
      <trkpt lat="49.96518" lon="4.25182">
        <ele>293</ele>
        <time>2024-04-01T08:24:10Z</time>
      </trkpt>
      <trkpt lat="49.96511" lon="4.25177">
        <ele>292.8</ele>
        <time>2024-04-01T08:24:11Z</time>
      </trkpt>
      <trkpt lat="49.96503" lon="4.25171">
        <ele>293</ele>
        <time>2024-04-01T08:24:12Z</time>
      </trkpt>
      <trkpt lat="49.96496" lon="4.25165">
        <ele>293</ele>
        <time>2024-04-01T08:24:13Z</time>
      </trkpt>
      <trkpt lat="49.96488" lon="4.2516">
        <ele>292.4</ele>
        <time>2024-04-01T08:24:14Z</time>
      </trkpt>
      <trkpt lat="49.9648" lon="4.25154">
        <ele>291.6</ele>
        <time>2024-04-01T08:24:15Z</time>
      </trkpt>
      <trkpt lat="49.96472" lon="4.25148">
        <ele>291</ele>
        <time>2024-04-01T08:24:16Z</time>
      </trkpt>
      <trkpt lat="49.96463" lon="4.25143">
        <ele>290</ele>
        <time>2024-04-01T08:24:17Z</time>
      </trkpt>
      <trkpt lat="49.96454" lon="4.25137">
        <ele>288.6</ele>
        <time>2024-04-01T08:24:18Z</time>
      </trkpt>
      <trkpt lat="49.96446" lon="4.25131">
        <ele>287.6</ele>
        <time>2024-04-01T08:24:19Z</time>
      </trkpt>
      <trkpt lat="49.96436" lon="4.25125">
        <ele>286.6</ele>
        <time>2024-04-01T08:24:20Z</time>
      </trkpt>
      <trkpt lat="49.96427" lon="4.25121">
        <ele>285.6</ele>
        <time>2024-04-01T08:24:21Z</time>
      </trkpt>
      <trkpt lat="49.96416" lon="4.25119">
        <ele>284.2</ele>
        <time>2024-04-01T08:24:22Z</time>
      </trkpt>
      <trkpt lat="49.96405" lon="4.25118">
        <ele>284.2</ele>
        <time>2024-04-01T08:24:23Z</time>
      </trkpt>
      <trkpt lat="49.96394" lon="4.25117">
        <ele>283.2</ele>
        <time>2024-04-01T08:24:24Z</time>
      </trkpt>
      <trkpt lat="49.96382" lon="4.25117">
        <ele>282.4</ele>
        <time>2024-04-01T08:24:25Z</time>
      </trkpt>
      <trkpt lat="49.9637" lon="4.25118">
        <ele>281</ele>
        <time>2024-04-01T08:24:26Z</time>
      </trkpt>
      <trkpt lat="49.96359" lon="4.25119">
        <ele>279.8</ele>
        <time>2024-04-01T08:24:27Z</time>
      </trkpt>
      <trkpt lat="49.96347" lon="4.25119">
        <ele>278.6</ele>
        <time>2024-04-01T08:24:28Z</time>
      </trkpt>
      <trkpt lat="49.96335" lon="4.2512">
        <ele>277</ele>
        <time>2024-04-01T08:24:29Z</time>
      </trkpt>
      <trkpt lat="49.96323" lon="4.2512">
        <ele>276</ele>
        <time>2024-04-01T08:24:30Z</time>
      </trkpt>
      <trkpt lat="49.96311" lon="4.25121">
        <ele>275</ele>
        <time>2024-04-01T08:24:31Z</time>
      </trkpt>
      <trkpt lat="49.96299" lon="4.25121">
        <ele>273.4</ele>
        <time>2024-04-01T08:24:32Z</time>
      </trkpt>
      <trkpt lat="49.96287" lon="4.25121">
        <ele>272</ele>
        <time>2024-04-01T08:24:33Z</time>
      </trkpt>
      <trkpt lat="49.96275" lon="4.25122">
        <ele>271.4</ele>
        <time>2024-04-01T08:24:34Z</time>
      </trkpt>
      <trkpt lat="49.96264" lon="4.25123">
        <ele>270.6</ele>
        <time>2024-04-01T08:24:35Z</time>
      </trkpt>
      <trkpt lat="49.96252" lon="4.25124">
        <ele>269.6</ele>
        <time>2024-04-01T08:24:36Z</time>
      </trkpt>
      <trkpt lat="49.96241" lon="4.25125">
        <ele>268.2</ele>
        <time>2024-04-01T08:24:37Z</time>
      </trkpt>
      <trkpt lat="49.96231" lon="4.25126">
        <ele>267.2</ele>
        <time>2024-04-01T08:24:38Z</time>
      </trkpt>
      <trkpt lat="49.9622" lon="4.25128">
        <ele>266.2</ele>
        <time>2024-04-01T08:24:39Z</time>
      </trkpt>
      <trkpt lat="49.9621" lon="4.2513">
        <ele>265.6</ele>
        <time>2024-04-01T08:24:40Z</time>
      </trkpt>
      <trkpt lat="49.962" lon="4.25132">
        <ele>265.6</ele>
        <time>2024-04-01T08:24:41Z</time>
      </trkpt>
      <trkpt lat="49.96192" lon="4.25135">
        <ele>264.6</ele>
        <time>2024-04-01T08:24:42Z</time>
      </trkpt>
      <trkpt lat="49.96184" lon="4.25138">
        <ele>264</ele>
        <time>2024-04-01T08:24:43Z</time>
      </trkpt>
      <trkpt lat="49.96177" lon="4.25142">
        <ele>263.8</ele>
        <time>2024-04-01T08:24:44Z</time>
      </trkpt>
      <trkpt lat="49.9617" lon="4.25148">
        <ele>263.6</ele>
        <time>2024-04-01T08:24:45Z</time>
      </trkpt>
      <trkpt lat="49.96165" lon="4.25156">
        <ele>263.6</ele>
        <time>2024-04-01T08:24:46Z</time>
      </trkpt>
      <trkpt lat="49.96162" lon="4.25166">
        <ele>263.4</ele>
        <time>2024-04-01T08:24:47Z</time>
      </trkpt>
      <trkpt lat="49.9616" lon="4.25177">
        <ele>263.4</ele>
        <time>2024-04-01T08:24:48Z</time>
      </trkpt>
      <trkpt lat="49.9616" lon="4.25188">
        <ele>263.6</ele>
        <time>2024-04-01T08:24:49Z</time>
      </trkpt>
      <trkpt lat="49.9616" lon="4.25199">
        <ele>263.4</ele>
        <time>2024-04-01T08:24:50Z</time>
      </trkpt>
      <trkpt lat="49.9616" lon="4.2521">
        <ele>263.6</ele>
        <time>2024-04-01T08:24:51Z</time>
      </trkpt>
      <trkpt lat="49.96158" lon="4.25221">
        <ele>263.6</ele>
        <time>2024-04-01T08:24:52Z</time>
      </trkpt>
      <trkpt lat="49.96154" lon="4.25229">
        <ele>263.8</ele>
        <time>2024-04-01T08:24:53Z</time>
      </trkpt>
      <trkpt lat="49.96149" lon="4.25236">
        <ele>263.8</ele>
        <time>2024-04-01T08:24:54Z</time>
      </trkpt>
      <trkpt lat="49.96144" lon="4.25241">
        <ele>264.2</ele>
        <time>2024-04-01T08:24:55Z</time>
      </trkpt>
      <trkpt lat="49.96139" lon="4.25245">
        <ele>264.2</ele>
        <time>2024-04-01T08:24:56Z</time>
      </trkpt>
      <trkpt lat="49.96133" lon="4.25248">
        <ele>264.2</ele>
        <time>2024-04-01T08:24:57Z</time>
      </trkpt>
      <trkpt lat="49.96128" lon="4.25251">
        <ele>264.4</ele>
        <time>2024-04-01T08:24:58Z</time>
      </trkpt>
      <trkpt lat="49.96122" lon="4.25254">
        <ele>264.6</ele>
        <time>2024-04-01T08:24:59Z</time>
      </trkpt>
      <trkpt lat="49.96117" lon="4.25257">
        <ele>264.6</ele>
        <time>2024-04-01T08:25:00Z</time>
      </trkpt>
      <trkpt lat="49.96112" lon="4.25259">
        <ele>264.6</ele>
        <time>2024-04-01T08:25:01Z</time>
      </trkpt>
      <trkpt lat="49.96107" lon="4.25262">
        <ele>265</ele>
        <time>2024-04-01T08:25:02Z</time>
      </trkpt>
      <trkpt lat="49.96102" lon="4.25264">
        <ele>265</ele>
        <time>2024-04-01T08:25:03Z</time>
      </trkpt>
      <trkpt lat="49.96098" lon="4.25267">
        <ele>265.4</ele>
        <time>2024-04-01T08:25:04Z</time>
      </trkpt>
      <trkpt lat="49.96093" lon="4.25269">
        <ele>265.8</ele>
        <time>2024-04-01T08:25:05Z</time>
      </trkpt>
      <trkpt lat="49.96089" lon="4.25271">
        <ele>266</ele>
        <time>2024-04-01T08:25:06Z</time>
      </trkpt>
      <trkpt lat="49.96086" lon="4.25273">
        <ele>266.4</ele>
        <time>2024-04-01T08:25:07Z</time>
      </trkpt>
      <trkpt lat="49.96082" lon="4.25274">
        <ele>266.6</ele>
        <time>2024-04-01T08:25:08Z</time>
      </trkpt>
      <trkpt lat="49.96079" lon="4.25275">
        <ele>266.8</ele>
        <time>2024-04-01T08:25:09Z</time>
      </trkpt>
      <trkpt lat="49.96076" lon="4.25275">
        <ele>267.4</ele>
        <time>2024-04-01T08:25:10Z</time>
      </trkpt>
      <trkpt lat="49.96072" lon="4.25275">
        <ele>267.8</ele>
        <time>2024-04-01T08:25:11Z</time>
      </trkpt>
      <trkpt lat="49.96069" lon="4.25275">
        <ele>268.2</ele>
        <time>2024-04-01T08:25:12Z</time>
      </trkpt>
      <trkpt lat="49.96066" lon="4.25275">
        <ele>268.6</ele>
        <time>2024-04-01T08:25:13Z</time>
      </trkpt>
      <trkpt lat="49.96064" lon="4.25274">
        <ele>269.4</ele>
        <time>2024-04-01T08:25:14Z</time>
      </trkpt>
      <trkpt lat="49.96062" lon="4.25274">
        <ele>269.8</ele>
        <time>2024-04-01T08:25:15Z</time>
      </trkpt>
      <trkpt lat="49.9606" lon="4.25273">
        <ele>270.2</ele>
        <time>2024-04-01T08:25:16Z</time>
      </trkpt>
      <trkpt lat="49.96058" lon="4.25272">
        <ele>270.2</ele>
        <time>2024-04-01T08:25:17Z</time>
      </trkpt>
      <trkpt lat="49.96056" lon="4.25272">
        <ele>270.6</ele>
        <time>2024-04-01T08:25:18Z</time>
      </trkpt>
      <trkpt lat="49.96054" lon="4.25272">
        <ele>271</ele>
        <time>2024-04-01T08:25:19Z</time>
      </trkpt>
      <trkpt lat="49.96051" lon="4.25272">
        <ele>271.4</ele>
        <time>2024-04-01T08:25:20Z</time>
      </trkpt>
      <trkpt lat="49.96049" lon="4.25273">
        <ele>272</ele>
        <time>2024-04-01T08:25:21Z</time>
      </trkpt>
      <trkpt lat="49.96047" lon="4.25274">
        <ele>272.6</ele>
        <time>2024-04-01T08:25:22Z</time>
      </trkpt>
      <trkpt lat="49.96045" lon="4.25274">
        <ele>272.8</ele>
        <time>2024-04-01T08:25:23Z</time>
      </trkpt>
      <trkpt lat="49.96042" lon="4.25275">
        <ele>273.6</ele>
        <time>2024-04-01T08:25:24Z</time>
      </trkpt>
      <trkpt lat="49.9604" lon="4.25276">
        <ele>273.8</ele>
        <time>2024-04-01T08:25:25Z</time>
      </trkpt>
      <trkpt lat="49.96037" lon="4.25277">
        <ele>274.2</ele>
        <time>2024-04-01T08:25:26Z</time>
      </trkpt>
      <trkpt lat="49.96034" lon="4.25278">
        <ele>274.8</ele>
        <time>2024-04-01T08:25:27Z</time>
      </trkpt>
      <trkpt lat="49.96032" lon="4.25279">
        <ele>275</ele>
        <time>2024-04-01T08:25:28Z</time>
      </trkpt>
      <trkpt lat="49.9603" lon="4.2528">
        <ele>275.4</ele>
        <time>2024-04-01T08:25:29Z</time>
      </trkpt>
      <trkpt lat="49.96027" lon="4.25281">
        <ele>275.8</ele>
        <time>2024-04-01T08:25:30Z</time>
      </trkpt>
      <trkpt lat="49.96025" lon="4.25281">
        <ele>276.2</ele>
        <time>2024-04-01T08:25:31Z</time>
      </trkpt>
      <trkpt lat="49.96023" lon="4.25282">
        <ele>276.4</ele>
        <time>2024-04-01T08:25:32Z</time>
      </trkpt>
      <trkpt lat="49.96021" lon="4.25283">
        <ele>276.8</ele>
        <time>2024-04-01T08:25:33Z</time>
      </trkpt>
      <trkpt lat="49.96019" lon="4.25284">
        <ele>276.8</ele>
        <time>2024-04-01T08:25:34Z</time>
      </trkpt>
      <trkpt lat="49.96016" lon="4.25285">
        <ele>277.2</ele>
        <time>2024-04-01T08:25:35Z</time>
      </trkpt>
      <trkpt lat="49.96014" lon="4.25286">
        <ele>277.2</ele>
        <time>2024-04-01T08:25:36Z</time>
      </trkpt>
      <trkpt lat="49.96012" lon="4.25287">
        <ele>277.6</ele>
        <time>2024-04-01T08:25:37Z</time>
      </trkpt>
      <trkpt lat="49.9601" lon="4.25287">
        <ele>277.8</ele>
        <time>2024-04-01T08:25:38Z</time>
      </trkpt>
      <trkpt lat="49.96008" lon="4.25288">
        <ele>278</ele>
        <time>2024-04-01T08:25:39Z</time>
      </trkpt>
      <trkpt lat="49.96007" lon="4.25289">
        <ele>278.4</ele>
        <time>2024-04-01T08:25:40Z</time>
      </trkpt>
      <trkpt lat="49.96004" lon="4.2529">
        <ele>278.8</ele>
        <time>2024-04-01T08:25:41Z</time>
      </trkpt>
      <trkpt lat="49.96002" lon="4.25292">
        <ele>279</ele>
        <time>2024-04-01T08:25:42Z</time>
      </trkpt>
      <trkpt lat="49.95999" lon="4.25293">
        <ele>279.2</ele>
        <time>2024-04-01T08:25:43Z</time>
      </trkpt>
      <trkpt lat="49.95996" lon="4.25294">
        <ele>279.4</ele>
        <time>2024-04-01T08:25:44Z</time>
      </trkpt>
      <trkpt lat="49.95993" lon="4.25294">
        <ele>279.6</ele>
        <time>2024-04-01T08:25:45Z</time>
      </trkpt>
      <trkpt lat="49.9599" lon="4.25295">
        <ele>280</ele>
        <time>2024-04-01T08:25:46Z</time>
      </trkpt>
      <trkpt lat="49.95987" lon="4.25295">
        <ele>280.2</ele>
        <time>2024-04-01T08:25:47Z</time>
      </trkpt>
      <trkpt lat="49.95983" lon="4.25295">
        <ele>280.2</ele>
        <time>2024-04-01T08:25:48Z</time>
      </trkpt>
      <trkpt lat="49.9598" lon="4.25296">
        <ele>280.4</ele>
        <time>2024-04-01T08:25:49Z</time>
      </trkpt>
      <trkpt lat="49.95977" lon="4.25295">
        <ele>280.4</ele>
        <time>2024-04-01T08:25:50Z</time>
      </trkpt>
      <trkpt lat="49.95975" lon="4.25295">
        <ele>280.8</ele>
        <time>2024-04-01T08:25:51Z</time>
      </trkpt>
      <trkpt lat="49.95972" lon="4.25295">
        <ele>280.8</ele>
        <time>2024-04-01T08:25:52Z</time>
      </trkpt>
      <trkpt lat="49.95969" lon="4.25295">
        <ele>281.4</ele>
        <time>2024-04-01T08:25:53Z</time>
      </trkpt>
      <trkpt lat="49.95967" lon="4.25294">
        <ele>281.8</ele>
        <time>2024-04-01T08:25:54Z</time>
      </trkpt>
      <trkpt lat="49.95964" lon="4.25293">
        <ele>282.2</ele>
        <time>2024-04-01T08:25:55Z</time>
      </trkpt>
      <trkpt lat="49.95961" lon="4.25292">
        <ele>282.6</ele>
        <time>2024-04-01T08:25:56Z</time>
      </trkpt>
      <trkpt lat="49.95959" lon="4.25291">
        <ele>283</ele>
        <time>2024-04-01T08:25:57Z</time>
      </trkpt>
      <trkpt lat="49.95956" lon="4.2529">
        <ele>283.2</ele>
        <time>2024-04-01T08:25:58Z</time>
      </trkpt>
      <trkpt lat="49.95954" lon="4.25289">
        <ele>283.6</ele>
        <time>2024-04-01T08:25:59Z</time>
      </trkpt>
      <trkpt lat="49.95952" lon="4.25287">
        <ele>283.8</ele>
        <time>2024-04-01T08:26:00Z</time>
      </trkpt>
      <trkpt lat="49.95949" lon="4.25285">
        <ele>284</ele>
        <time>2024-04-01T08:26:01Z</time>
      </trkpt>
      <trkpt lat="49.95947" lon="4.25283">
        <ele>284.4</ele>
        <time>2024-04-01T08:26:02Z</time>
      </trkpt>
      <trkpt lat="49.95945" lon="4.25281">
        <ele>284.6</ele>
        <time>2024-04-01T08:26:03Z</time>
      </trkpt>
      <trkpt lat="49.95942" lon="4.25279">
        <ele>285.2</ele>
        <time>2024-04-01T08:26:04Z</time>
      </trkpt>
      <trkpt lat="49.9594" lon="4.25277">
        <ele>285.2</ele>
        <time>2024-04-01T08:26:05Z</time>
      </trkpt>
      <trkpt lat="49.95938" lon="4.25275">
        <ele>285.4</ele>
        <time>2024-04-01T08:26:06Z</time>
      </trkpt>
      <trkpt lat="49.95935" lon="4.25273">
        <ele>285.8</ele>
        <time>2024-04-01T08:26:07Z</time>
      </trkpt>
      <trkpt lat="49.95933" lon="4.25271">
        <ele>285.8</ele>
        <time>2024-04-01T08:26:08Z</time>
      </trkpt>
      <trkpt lat="49.9593" lon="4.25269">
        <ele>286.2</ele>
        <time>2024-04-01T08:26:09Z</time>
      </trkpt>
      <trkpt lat="49.95928" lon="4.25268">
        <ele>286.4</ele>
        <time>2024-04-01T08:26:10Z</time>
      </trkpt>
      <trkpt lat="49.95926" lon="4.25266">
        <ele>286.4</ele>
        <time>2024-04-01T08:26:11Z</time>
      </trkpt>
      <trkpt lat="49.95924" lon="4.25265">
        <ele>286.6</ele>
        <time>2024-04-01T08:26:12Z</time>
      </trkpt>
      <trkpt lat="49.95921" lon="4.25262">
        <ele>286.8</ele>
        <time>2024-04-01T08:26:13Z</time>
      </trkpt>
      <trkpt lat="49.9592" lon="4.2526">
        <ele>286.8</ele>
        <time>2024-04-01T08:26:14Z</time>
      </trkpt>
      <trkpt lat="49.95918" lon="4.25259">
        <ele>287</ele>
        <time>2024-04-01T08:26:15Z</time>
      </trkpt>
      <trkpt lat="49.95916" lon="4.25257">
        <ele>287.2</ele>
        <time>2024-04-01T08:26:16Z</time>
      </trkpt>
      <trkpt lat="49.95913" lon="4.25255">
        <ele>287</ele>
        <time>2024-04-01T08:26:17Z</time>
      </trkpt>
      <trkpt lat="49.9591" lon="4.25254">
        <ele>287.4</ele>
        <time>2024-04-01T08:26:18Z</time>
      </trkpt>
      <trkpt lat="49.95908" lon="4.25252">
        <ele>287.6</ele>
        <time>2024-04-01T08:26:19Z</time>
      </trkpt>
      <trkpt lat="49.95906" lon="4.2525">
        <ele>287.8</ele>
        <time>2024-04-01T08:26:20Z</time>
      </trkpt>
      <trkpt lat="49.95903" lon="4.25248">
        <ele>287.8</ele>
        <time>2024-04-01T08:26:21Z</time>
      </trkpt>
      <trkpt lat="49.95901" lon="4.25247">
        <ele>288.2</ele>
        <time>2024-04-01T08:26:22Z</time>
      </trkpt>
      <trkpt lat="49.95898" lon="4.25245">
        <ele>288.2</ele>
        <time>2024-04-01T08:26:23Z</time>
      </trkpt>
      <trkpt lat="49.95895" lon="4.25242">
        <ele>288.2</ele>
        <time>2024-04-01T08:26:24Z</time>
      </trkpt>
      <trkpt lat="49.95893" lon="4.2524">
        <ele>288.4</ele>
        <time>2024-04-01T08:26:25Z</time>
      </trkpt>
      <trkpt lat="49.95891" lon="4.25238">
        <ele>288.6</ele>
        <time>2024-04-01T08:26:26Z</time>
      </trkpt>
      <trkpt lat="49.95889" lon="4.25236">
        <ele>288.6</ele>
        <time>2024-04-01T08:26:27Z</time>
      </trkpt>
      <trkpt lat="49.95887" lon="4.25235">
        <ele>288.8</ele>
        <time>2024-04-01T08:26:28Z</time>
      </trkpt>
      <trkpt lat="49.95885" lon="4.25232">
        <ele>289</ele>
        <time>2024-04-01T08:26:29Z</time>
      </trkpt>
      <trkpt lat="49.95883" lon="4.2523">
        <ele>289.2</ele>
        <time>2024-04-01T08:26:30Z</time>
      </trkpt>
      <trkpt lat="49.95882" lon="4.25229">
        <ele>289.4</ele>
        <time>2024-04-01T08:26:31Z</time>
      </trkpt>
      <trkpt lat="49.9588" lon="4.25227">
        <ele>289.6</ele>
        <time>2024-04-01T08:26:32Z</time>
      </trkpt>
      <trkpt lat="49.95878" lon="4.25226">
        <ele>289.8</ele>
        <time>2024-04-01T08:26:33Z</time>
      </trkpt>
      <trkpt lat="49.95876" lon="4.25225">
        <ele>290.2</ele>
        <time>2024-04-01T08:26:34Z</time>
      </trkpt>
      <trkpt lat="49.95874" lon="4.25224">
        <ele>290.4</ele>
        <time>2024-04-01T08:26:35Z</time>
      </trkpt>
      <trkpt lat="49.95872" lon="4.25222">
        <ele>290.6</ele>
        <time>2024-04-01T08:26:36Z</time>
      </trkpt>
      <trkpt lat="49.9587" lon="4.2522">
        <ele>291</ele>
        <time>2024-04-01T08:26:37Z</time>
      </trkpt>
      <trkpt lat="49.95868" lon="4.25217">
        <ele>291</ele>
        <time>2024-04-01T08:26:38Z</time>
      </trkpt>
      <trkpt lat="49.95866" lon="4.25215">
        <ele>291.2</ele>
        <time>2024-04-01T08:26:39Z</time>
      </trkpt>
      <trkpt lat="49.95864" lon="4.25214">
        <ele>291.2</ele>
        <time>2024-04-01T08:26:40Z</time>
      </trkpt>
      <trkpt lat="49.95861" lon="4.25213">
        <ele>291.6</ele>
        <time>2024-04-01T08:26:41Z</time>
      </trkpt>
      <trkpt lat="49.95857" lon="4.25211">
        <ele>291.6</ele>
        <time>2024-04-01T08:26:42Z</time>
      </trkpt>
      <trkpt lat="49.95855" lon="4.25209">
        <ele>291.8</ele>
        <time>2024-04-01T08:26:43Z</time>
      </trkpt>
      <trkpt lat="49.95853" lon="4.25207">
        <ele>292</ele>
        <time>2024-04-01T08:26:44Z</time>
      </trkpt>
      <trkpt lat="49.9585" lon="4.25206">
        <ele>292.6</ele>
        <time>2024-04-01T08:26:45Z</time>
      </trkpt>
      <trkpt lat="49.95847" lon="4.25204">
        <ele>293.4</ele>
        <time>2024-04-01T08:26:46Z</time>
      </trkpt>
      <trkpt lat="49.95844" lon="4.25202">
        <ele>293.8</ele>
        <time>2024-04-01T08:26:47Z</time>
      </trkpt>
      <trkpt lat="49.95842" lon="4.252">
        <ele>294.2</ele>
        <time>2024-04-01T08:26:48Z</time>
      </trkpt>
      <trkpt lat="49.9584" lon="4.25198">
        <ele>294.2</ele>
        <time>2024-04-01T08:26:49Z</time>
      </trkpt>
      <trkpt lat="49.95837" lon="4.25197">
        <ele>294.8</ele>
        <time>2024-04-01T08:26:50Z</time>
      </trkpt>
      <trkpt lat="49.95833" lon="4.25195">
        <ele>295</ele>
        <time>2024-04-01T08:26:51Z</time>
      </trkpt>
      <trkpt lat="49.95831" lon="4.25192">
        <ele>295.2</ele>
        <time>2024-04-01T08:26:52Z</time>
      </trkpt>
      <trkpt lat="49.95828" lon="4.25188">
        <ele>295.4</ele>
        <time>2024-04-01T08:26:53Z</time>
      </trkpt>
      <trkpt lat="49.95826" lon="4.25185">
        <ele>295.4</ele>
        <time>2024-04-01T08:26:54Z</time>
      </trkpt>
      <trkpt lat="49.95823" lon="4.25182">
        <ele>295.6</ele>
        <time>2024-04-01T08:26:55Z</time>
      </trkpt>
      <trkpt lat="49.9582" lon="4.25178">
        <ele>295.6</ele>
        <time>2024-04-01T08:26:56Z</time>
      </trkpt>
      <trkpt lat="49.95818" lon="4.25174">
        <ele>295.6</ele>
        <time>2024-04-01T08:26:57Z</time>
      </trkpt>
      <trkpt lat="49.95815" lon="4.2517">
        <ele>295.6</ele>
        <time>2024-04-01T08:26:58Z</time>
      </trkpt>
      <trkpt lat="49.95813" lon="4.25167">
        <ele>295.6</ele>
        <time>2024-04-01T08:26:59Z</time>
      </trkpt>
      <trkpt lat="49.95811" lon="4.25163">
        <ele>295.8</ele>
        <time>2024-04-01T08:27:00Z</time>
      </trkpt>
      <trkpt lat="49.95809" lon="4.25159">
        <ele>295.8</ele>
        <time>2024-04-01T08:27:01Z</time>
      </trkpt>
      <trkpt lat="49.95807" lon="4.25155">
        <ele>295.8</ele>
        <time>2024-04-01T08:27:02Z</time>
      </trkpt>
      <trkpt lat="49.95806" lon="4.25151">
        <ele>296</ele>
        <time>2024-04-01T08:27:03Z</time>
      </trkpt>
      <trkpt lat="49.95804" lon="4.25146">
        <ele>296.4</ele>
        <time>2024-04-01T08:27:04Z</time>
      </trkpt>
      <trkpt lat="49.95801" lon="4.2514">
        <ele>296.4</ele>
        <time>2024-04-01T08:27:05Z</time>
      </trkpt>
      <trkpt lat="49.95799" lon="4.25135">
        <ele>296.8</ele>
        <time>2024-04-01T08:27:06Z</time>
      </trkpt>
      <trkpt lat="49.95797" lon="4.25129">
        <ele>296.8</ele>
        <time>2024-04-01T08:27:07Z</time>
      </trkpt>
      <trkpt lat="49.95795" lon="4.25124">
        <ele>297.2</ele>
        <time>2024-04-01T08:27:08Z</time>
      </trkpt>
      <trkpt lat="49.95793" lon="4.25117">
        <ele>297.4</ele>
        <time>2024-04-01T08:27:09Z</time>
      </trkpt>
      <trkpt lat="49.95791" lon="4.25111">
        <ele>297.8</ele>
        <time>2024-04-01T08:27:10Z</time>
      </trkpt>
      <trkpt lat="49.95789" lon="4.25105">
        <ele>298</ele>
        <time>2024-04-01T08:27:11Z</time>
      </trkpt>
      <trkpt lat="49.95788" lon="4.25098">
        <ele>298</ele>
        <time>2024-04-01T08:27:12Z</time>
      </trkpt>
      <trkpt lat="49.95786" lon="4.25092">
        <ele>298</ele>
        <time>2024-04-01T08:27:13Z</time>
      </trkpt>
      <trkpt lat="49.95784" lon="4.25084">
        <ele>298.2</ele>
        <time>2024-04-01T08:27:14Z</time>
      </trkpt>
      <trkpt lat="49.95782" lon="4.25076">
        <ele>298.2</ele>
        <time>2024-04-01T08:27:15Z</time>
      </trkpt>
      <trkpt lat="49.9578" lon="4.25068">
        <ele>298.2</ele>
        <time>2024-04-01T08:27:16Z</time>
      </trkpt>
      <trkpt lat="49.95779" lon="4.25059">
        <ele>298.2</ele>
        <time>2024-04-01T08:27:17Z</time>
      </trkpt>
      <trkpt lat="49.95777" lon="4.25049">
        <ele>298.2</ele>
        <time>2024-04-01T08:27:18Z</time>
      </trkpt>
      <trkpt lat="49.95775" lon="4.25039">
        <ele>298.2</ele>
        <time>2024-04-01T08:27:19Z</time>
      </trkpt>
      <trkpt lat="49.95774" lon="4.25029">
        <ele>298.2</ele>
        <time>2024-04-01T08:27:20Z</time>
      </trkpt>
      <trkpt lat="49.95772" lon="4.25017">
        <ele>298.2</ele>
        <time>2024-04-01T08:27:21Z</time>
      </trkpt>
      <trkpt lat="49.9577" lon="4.25004">
        <ele>298.2</ele>
        <time>2024-04-01T08:27:22Z</time>
      </trkpt>
      <trkpt lat="49.95768" lon="4.24993">
        <ele>298.2</ele>
        <time>2024-04-01T08:27:23Z</time>
      </trkpt>
      <trkpt lat="49.95767" lon="4.24982">
        <ele>298</ele>
        <time>2024-04-01T08:27:24Z</time>
      </trkpt>
      <trkpt lat="49.95766" lon="4.2497">
        <ele>298.2</ele>
        <time>2024-04-01T08:27:25Z</time>
      </trkpt>
      <trkpt lat="49.95764" lon="4.24959">
        <ele>298</ele>
        <time>2024-04-01T08:27:26Z</time>
      </trkpt>
      <trkpt lat="49.95763" lon="4.24949">
        <ele>298</ele>
        <time>2024-04-01T08:27:27Z</time>
      </trkpt>
      <trkpt lat="49.95761" lon="4.24938">
        <ele>297.2</ele>
        <time>2024-04-01T08:27:28Z</time>
      </trkpt>
      <trkpt lat="49.95759" lon="4.24929">
        <ele>297.2</ele>
        <time>2024-04-01T08:27:29Z</time>
      </trkpt>
      <trkpt lat="49.95756" lon="4.24919">
        <ele>297</ele>
        <time>2024-04-01T08:27:30Z</time>
      </trkpt>
      <trkpt lat="49.95752" lon="4.24911">
        <ele>296.6</ele>
        <time>2024-04-01T08:27:31Z</time>
      </trkpt>
      <trkpt lat="49.95747" lon="4.24903">
        <ele>296.6</ele>
        <time>2024-04-01T08:27:32Z</time>
      </trkpt>
      <trkpt lat="49.95742" lon="4.24897">
        <ele>296.6</ele>
        <time>2024-04-01T08:27:33Z</time>
      </trkpt>
      <trkpt lat="49.95736" lon="4.24892">
        <ele>296.2</ele>
        <time>2024-04-01T08:27:34Z</time>
      </trkpt>
      <trkpt lat="49.9573" lon="4.24888">
        <ele>296.2</ele>
        <time>2024-04-01T08:27:35Z</time>
      </trkpt>
      <trkpt lat="49.95724" lon="4.24886">
        <ele>296</ele>
        <time>2024-04-01T08:27:36Z</time>
      </trkpt>
      <trkpt lat="49.95718" lon="4.24884">
        <ele>296.2</ele>
        <time>2024-04-01T08:27:37Z</time>
      </trkpt>
      <trkpt lat="49.95712" lon="4.24882">
        <ele>296</ele>
        <time>2024-04-01T08:27:38Z</time>
      </trkpt>
      <trkpt lat="49.95707" lon="4.2488">
        <ele>296.2</ele>
        <time>2024-04-01T08:27:39Z</time>
      </trkpt>
      <trkpt lat="49.95701" lon="4.24879">
        <ele>296</ele>
        <time>2024-04-01T08:27:40Z</time>
      </trkpt>
      <trkpt lat="49.95696" lon="4.24877">
        <ele>296</ele>
        <time>2024-04-01T08:27:41Z</time>
      </trkpt>
      <trkpt lat="49.95691" lon="4.24876">
        <ele>296</ele>
        <time>2024-04-01T08:27:42Z</time>
      </trkpt>
      <trkpt lat="49.95686" lon="4.24875">
        <ele>296.2</ele>
        <time>2024-04-01T08:27:43Z</time>
      </trkpt>
      <trkpt lat="49.95681" lon="4.24874">
        <ele>296.4</ele>
        <time>2024-04-01T08:27:44Z</time>
      </trkpt>
      <trkpt lat="49.95676" lon="4.24872">
        <ele>296.4</ele>
        <time>2024-04-01T08:27:45Z</time>
      </trkpt>
      <trkpt lat="49.95671" lon="4.24871">
        <ele>296.2</ele>
        <time>2024-04-01T08:27:46Z</time>
      </trkpt>
      <trkpt lat="49.95666" lon="4.2487">
        <ele>296.6</ele>
        <time>2024-04-01T08:27:47Z</time>
      </trkpt>
      <trkpt lat="49.95662" lon="4.24868">
        <ele>297</ele>
        <time>2024-04-01T08:27:48Z</time>
      </trkpt>
      <trkpt lat="49.95657" lon="4.24867">
        <ele>297</ele>
        <time>2024-04-01T08:27:49Z</time>
      </trkpt>
      <trkpt lat="49.95653" lon="4.24866">
        <ele>297.8</ele>
        <time>2024-04-01T08:27:50Z</time>
      </trkpt>
      <trkpt lat="49.95648" lon="4.24865">
        <ele>298</ele>
        <time>2024-04-01T08:27:51Z</time>
      </trkpt>
      <trkpt lat="49.95643" lon="4.24864">
        <ele>298.4</ele>
        <time>2024-04-01T08:27:52Z</time>
      </trkpt>
      <trkpt lat="49.95639" lon="4.24863">
        <ele>298.8</ele>
        <time>2024-04-01T08:27:53Z</time>
      </trkpt>
      <trkpt lat="49.95634" lon="4.24862">
        <ele>299</ele>
        <time>2024-04-01T08:27:54Z</time>
      </trkpt>
      <trkpt lat="49.9563" lon="4.24861">
        <ele>299</ele>
        <time>2024-04-01T08:27:55Z</time>
      </trkpt>
      <trkpt lat="49.95625" lon="4.2486">
        <ele>299.4</ele>
        <time>2024-04-01T08:27:56Z</time>
      </trkpt>
      <trkpt lat="49.95621" lon="4.24859">
        <ele>299.6</ele>
        <time>2024-04-01T08:27:57Z</time>
      </trkpt>
      <trkpt lat="49.95616" lon="4.24858">
        <ele>299.6</ele>
        <time>2024-04-01T08:27:58Z</time>
      </trkpt>
      <trkpt lat="49.95612" lon="4.24857">
        <ele>299.8</ele>
        <time>2024-04-01T08:27:59Z</time>
      </trkpt>
      <trkpt lat="49.95607" lon="4.24855">
        <ele>300</ele>
        <time>2024-04-01T08:28:00Z</time>
      </trkpt>
      <trkpt lat="49.95603" lon="4.24854">
        <ele>300</ele>
        <time>2024-04-01T08:28:01Z</time>
      </trkpt>
      <trkpt lat="49.95598" lon="4.24853">
        <ele>300</ele>
        <time>2024-04-01T08:28:02Z</time>
      </trkpt>
      <trkpt lat="49.95594" lon="4.24852">
        <ele>300</ele>
        <time>2024-04-01T08:28:03Z</time>
      </trkpt>
      <trkpt lat="49.95589" lon="4.24851">
        <ele>300.2</ele>
        <time>2024-04-01T08:28:04Z</time>
      </trkpt>
      <trkpt lat="49.95585" lon="4.2485">
        <ele>300</ele>
        <time>2024-04-01T08:28:05Z</time>
      </trkpt>
      <trkpt lat="49.9558" lon="4.24849">
        <ele>300.2</ele>
        <time>2024-04-01T08:28:06Z</time>
      </trkpt>
      <trkpt lat="49.95575" lon="4.24847">
        <ele>300.2</ele>
        <time>2024-04-01T08:28:07Z</time>
      </trkpt>
      <trkpt lat="49.9557" lon="4.24846">
        <ele>300.2</ele>
        <time>2024-04-01T08:28:08Z</time>
      </trkpt>
      <trkpt lat="49.95566" lon="4.24845">
        <ele>300.2</ele>
        <time>2024-04-01T08:28:09Z</time>
      </trkpt>
      <trkpt lat="49.95561" lon="4.24844">
        <ele>300.2</ele>
        <time>2024-04-01T08:28:10Z</time>
      </trkpt>
      <trkpt lat="49.95556" lon="4.24843">
        <ele>300.4</ele>
        <time>2024-04-01T08:28:11Z</time>
      </trkpt>
      <trkpt lat="49.95552" lon="4.24842">
        <ele>300.4</ele>
        <time>2024-04-01T08:28:12Z</time>
      </trkpt>
      <trkpt lat="49.95548" lon="4.2484">
        <ele>300.8</ele>
        <time>2024-04-01T08:28:13Z</time>
      </trkpt>
      <trkpt lat="49.95543" lon="4.24839">
        <ele>300.8</ele>
        <time>2024-04-01T08:28:14Z</time>
      </trkpt>
      <trkpt lat="49.95539" lon="4.24838">
        <ele>301.2</ele>
        <time>2024-04-01T08:28:15Z</time>
      </trkpt>
      <trkpt lat="49.95535" lon="4.24837">
        <ele>301.4</ele>
        <time>2024-04-01T08:28:16Z</time>
      </trkpt>
      <trkpt lat="49.9553" lon="4.24836">
        <ele>301.6</ele>
        <time>2024-04-01T08:28:17Z</time>
      </trkpt>
      <trkpt lat="49.95526" lon="4.24835">
        <ele>301.6</ele>
        <time>2024-04-01T08:28:18Z</time>
      </trkpt>
      <trkpt lat="49.95522" lon="4.24834">
        <ele>301.6</ele>
        <time>2024-04-01T08:28:19Z</time>
      </trkpt>
      <trkpt lat="49.95517" lon="4.24833">
        <ele>301.8</ele>
        <time>2024-04-01T08:28:20Z</time>
      </trkpt>
      <trkpt lat="49.95513" lon="4.24832">
        <ele>302.2</ele>
        <time>2024-04-01T08:28:21Z</time>
      </trkpt>
      <trkpt lat="49.95509" lon="4.24831">
        <ele>302.4</ele>
        <time>2024-04-01T08:28:22Z</time>
      </trkpt>
      <trkpt lat="49.95504" lon="4.2483">
        <ele>302.6</ele>
        <time>2024-04-01T08:28:23Z</time>
      </trkpt>
      <trkpt lat="49.955" lon="4.24829">
        <ele>302.6</ele>
        <time>2024-04-01T08:28:24Z</time>
      </trkpt>
      <trkpt lat="49.95495" lon="4.24828">
        <ele>302.6</ele>
        <time>2024-04-01T08:28:25Z</time>
      </trkpt>
      <trkpt lat="49.95491" lon="4.24827">
        <ele>303</ele>
        <time>2024-04-01T08:28:26Z</time>
      </trkpt>
      <trkpt lat="49.95487" lon="4.24826">
        <ele>303</ele>
        <time>2024-04-01T08:28:27Z</time>
      </trkpt>
      <trkpt lat="49.95482" lon="4.24825">
        <ele>303.2</ele>
        <time>2024-04-01T08:28:28Z</time>
      </trkpt>
      <trkpt lat="49.95478" lon="4.24824">
        <ele>303</ele>
        <time>2024-04-01T08:28:29Z</time>
      </trkpt>
      <trkpt lat="49.95474" lon="4.24823">
        <ele>303.2</ele>
        <time>2024-04-01T08:28:30Z</time>
      </trkpt>
      <trkpt lat="49.9547" lon="4.24822">
        <ele>303.4</ele>
        <time>2024-04-01T08:28:31Z</time>
      </trkpt>
      <trkpt lat="49.95465" lon="4.24821">
        <ele>303.4</ele>
        <time>2024-04-01T08:28:32Z</time>
      </trkpt>
      <trkpt lat="49.95461" lon="4.2482">
        <ele>303.4</ele>
        <time>2024-04-01T08:28:33Z</time>
      </trkpt>
      <trkpt lat="49.95456" lon="4.24819">
        <ele>304</ele>
        <time>2024-04-01T08:28:34Z</time>
      </trkpt>
      <trkpt lat="49.95452" lon="4.24818">
        <ele>304</ele>
        <time>2024-04-01T08:28:35Z</time>
      </trkpt>
      <trkpt lat="49.95447" lon="4.24816">
        <ele>304.4</ele>
        <time>2024-04-01T08:28:36Z</time>
      </trkpt>
      <trkpt lat="49.95442" lon="4.24815">
        <ele>304.8</ele>
        <time>2024-04-01T08:28:37Z</time>
      </trkpt>
      <trkpt lat="49.95438" lon="4.24814">
        <ele>304.8</ele>
        <time>2024-04-01T08:28:38Z</time>
      </trkpt>
      <trkpt lat="49.95433" lon="4.24813">
        <ele>304.8</ele>
        <time>2024-04-01T08:28:39Z</time>
      </trkpt>
      <trkpt lat="49.95428" lon="4.24812">
        <ele>305</ele>
        <time>2024-04-01T08:28:40Z</time>
      </trkpt>
      <trkpt lat="49.95423" lon="4.24811">
        <ele>305</ele>
        <time>2024-04-01T08:28:41Z</time>
      </trkpt>
      <trkpt lat="49.95418" lon="4.2481">
        <ele>305</ele>
        <time>2024-04-01T08:28:42Z</time>
      </trkpt>
      <trkpt lat="49.95414" lon="4.24809">
        <ele>305.2</ele>
        <time>2024-04-01T08:28:43Z</time>
      </trkpt>
      <trkpt lat="49.95408" lon="4.24808">
        <ele>305.2</ele>
        <time>2024-04-01T08:28:44Z</time>
      </trkpt>
      <trkpt lat="49.95403" lon="4.24807">
        <ele>305.4</ele>
        <time>2024-04-01T08:28:45Z</time>
      </trkpt>
      <trkpt lat="49.95398" lon="4.24806">
        <ele>305.4</ele>
        <time>2024-04-01T08:28:46Z</time>
      </trkpt>
      <trkpt lat="49.95393" lon="4.24804">
        <ele>305.6</ele>
        <time>2024-04-01T08:28:47Z</time>
      </trkpt>
      <trkpt lat="49.95388" lon="4.24803">
        <ele>305.6</ele>
        <time>2024-04-01T08:28:48Z</time>
      </trkpt>
      <trkpt lat="49.95383" lon="4.24802">
        <ele>305.6</ele>
        <time>2024-04-01T08:28:49Z</time>
      </trkpt>
      <trkpt lat="49.95378" lon="4.24801">
        <ele>305.8</ele>
        <time>2024-04-01T08:28:50Z</time>
      </trkpt>
      <trkpt lat="49.95373" lon="4.248">
        <ele>305.8</ele>
        <time>2024-04-01T08:28:51Z</time>
      </trkpt>
      <trkpt lat="49.95367" lon="4.24798">
        <ele>305.8</ele>
        <time>2024-04-01T08:28:52Z</time>
      </trkpt>
      <trkpt lat="49.95362" lon="4.24797">
        <ele>305.8</ele>
        <time>2024-04-01T08:28:53Z</time>
      </trkpt>
      <trkpt lat="49.95357" lon="4.24796">
        <ele>305.8</ele>
        <time>2024-04-01T08:28:54Z</time>
      </trkpt>
      <trkpt lat="49.95352" lon="4.24795">
        <ele>305.8</ele>
        <time>2024-04-01T08:28:55Z</time>
      </trkpt>
      <trkpt lat="49.95347" lon="4.24793">
        <ele>305.8</ele>
        <time>2024-04-01T08:28:56Z</time>
      </trkpt>
      <trkpt lat="49.95341" lon="4.2479">
        <ele>305.8</ele>
        <time>2024-04-01T08:28:57Z</time>
      </trkpt>
      <trkpt lat="49.95337" lon="4.24785">
        <ele>305.8</ele>
        <time>2024-04-01T08:28:58Z</time>
      </trkpt>
      <trkpt lat="49.95333" lon="4.24778">
        <ele>305.8</ele>
        <time>2024-04-01T08:28:59Z</time>
      </trkpt>
      <trkpt lat="49.95331" lon="4.2477">
        <ele>305.8</ele>
        <time>2024-04-01T08:29:00Z</time>
      </trkpt>
      <trkpt lat="49.9533" lon="4.24761">
        <ele>305.8</ele>
        <time>2024-04-01T08:29:01Z</time>
      </trkpt>
      <trkpt lat="49.95329" lon="4.24752">
        <ele>305.8</ele>
        <time>2024-04-01T08:29:02Z</time>
      </trkpt>
      <trkpt lat="49.95328" lon="4.24742">
        <ele>305.8</ele>
        <time>2024-04-01T08:29:03Z</time>
      </trkpt>
      <trkpt lat="49.95328" lon="4.24733">
        <ele>305.8</ele>
        <time>2024-04-01T08:29:04Z</time>
      </trkpt>
      <trkpt lat="49.95327" lon="4.24723">
        <ele>305.8</ele>
        <time>2024-04-01T08:29:05Z</time>
      </trkpt>
      <trkpt lat="49.95327" lon="4.24713">
        <ele>305.8</ele>
        <time>2024-04-01T08:29:06Z</time>
      </trkpt>
      <trkpt lat="49.95326" lon="4.24703">
        <ele>305.8</ele>
        <time>2024-04-01T08:29:07Z</time>
      </trkpt>
      <trkpt lat="49.95325" lon="4.24693">
        <ele>305.8</ele>
        <time>2024-04-01T08:29:08Z</time>
      </trkpt>
      <trkpt lat="49.95325" lon="4.24682">
        <ele>305.6</ele>
        <time>2024-04-01T08:29:09Z</time>
      </trkpt>
      <trkpt lat="49.95324" lon="4.24672">
        <ele>305.6</ele>
        <time>2024-04-01T08:29:10Z</time>
      </trkpt>
      <trkpt lat="49.95323" lon="4.24662">
        <ele>305.6</ele>
        <time>2024-04-01T08:29:11Z</time>
      </trkpt>
      <trkpt lat="49.95323" lon="4.24652">
        <ele>305.4</ele>
        <time>2024-04-01T08:29:12Z</time>
      </trkpt>
      <trkpt lat="49.95322" lon="4.24642">
        <ele>305.4</ele>
        <time>2024-04-01T08:29:13Z</time>
      </trkpt>
      <trkpt lat="49.95321" lon="4.24632">
        <ele>305.4</ele>
        <time>2024-04-01T08:29:14Z</time>
      </trkpt>
      <trkpt lat="49.95319" lon="4.24622">
        <ele>305.4</ele>
        <time>2024-04-01T08:29:15Z</time>
      </trkpt>
      <trkpt lat="49.95317" lon="4.24613">
        <ele>305</ele>
        <time>2024-04-01T08:29:16Z</time>
      </trkpt>
      <trkpt lat="49.95315" lon="4.24603">
        <ele>305.2</ele>
        <time>2024-04-01T08:29:17Z</time>
      </trkpt>
      <trkpt lat="49.95313" lon="4.24593">
        <ele>305</ele>
        <time>2024-04-01T08:29:18Z</time>
      </trkpt>
      <trkpt lat="49.9531" lon="4.24584">
        <ele>305</ele>
        <time>2024-04-01T08:29:19Z</time>
      </trkpt>
      <trkpt lat="49.95308" lon="4.24574">
        <ele>305</ele>
        <time>2024-04-01T08:29:20Z</time>
      </trkpt>
      <trkpt lat="49.95305" lon="4.24565">
        <ele>305</ele>
        <time>2024-04-01T08:29:21Z</time>
      </trkpt>
      <trkpt lat="49.95302" lon="4.24556">
        <ele>304.8</ele>
        <time>2024-04-01T08:29:22Z</time>
      </trkpt>
      <trkpt lat="49.95299" lon="4.24546">
        <ele>304.6</ele>
        <time>2024-04-01T08:29:23Z</time>
      </trkpt>
      <trkpt lat="49.95296" lon="4.24537">
        <ele>304.6</ele>
        <time>2024-04-01T08:29:24Z</time>
      </trkpt>
      <trkpt lat="49.95294" lon="4.24528">
        <ele>304.4</ele>
        <time>2024-04-01T08:29:25Z</time>
      </trkpt>
      <trkpt lat="49.95291" lon="4.24518">
        <ele>304.2</ele>
        <time>2024-04-01T08:29:26Z</time>
      </trkpt>
      <trkpt lat="49.95288" lon="4.24509">
        <ele>303.8</ele>
        <time>2024-04-01T08:29:27Z</time>
      </trkpt>
      <trkpt lat="49.95285" lon="4.245">
        <ele>303.8</ele>
        <time>2024-04-01T08:29:28Z</time>
      </trkpt>
      <trkpt lat="49.95282" lon="4.24491">
        <ele>304</ele>
        <time>2024-04-01T08:29:29Z</time>
      </trkpt>
      <trkpt lat="49.95279" lon="4.24481">
        <ele>303.4</ele>
        <time>2024-04-01T08:29:30Z</time>
      </trkpt>
      <trkpt lat="49.95276" lon="4.24472">
        <ele>303.2</ele>
        <time>2024-04-01T08:29:31Z</time>
      </trkpt>
      <trkpt lat="49.95273" lon="4.24463">
        <ele>303.2</ele>
        <time>2024-04-01T08:29:32Z</time>
      </trkpt>
      <trkpt lat="49.9527" lon="4.24454">
        <ele>303</ele>
        <time>2024-04-01T08:29:33Z</time>
      </trkpt>
      <trkpt lat="49.95267" lon="4.24444">
        <ele>303</ele>
        <time>2024-04-01T08:29:34Z</time>
      </trkpt>
      <trkpt lat="49.95264" lon="4.24435">
        <ele>303</ele>
        <time>2024-04-01T08:29:35Z</time>
      </trkpt>
      <trkpt lat="49.95261" lon="4.24426">
        <ele>302.8</ele>
        <time>2024-04-01T08:29:36Z</time>
      </trkpt>
      <trkpt lat="49.95258" lon="4.24416">
        <ele>302.6</ele>
        <time>2024-04-01T08:29:37Z</time>
      </trkpt>
      <trkpt lat="49.95256" lon="4.24407">
        <ele>302.6</ele>
        <time>2024-04-01T08:29:38Z</time>
      </trkpt>
      <trkpt lat="49.95253" lon="4.24398">
        <ele>302.6</ele>
        <time>2024-04-01T08:29:39Z</time>
      </trkpt>
      <trkpt lat="49.9525" lon="4.24388">
        <ele>302.6</ele>
        <time>2024-04-01T08:29:40Z</time>
      </trkpt>
      <trkpt lat="49.95247" lon="4.24379">
        <ele>302.6</ele>
        <time>2024-04-01T08:29:41Z</time>
      </trkpt>
      <trkpt lat="49.95244" lon="4.24369">
        <ele>302.4</ele>
        <time>2024-04-01T08:29:42Z</time>
      </trkpt>
      <trkpt lat="49.95241" lon="4.2436">
        <ele>302.6</ele>
        <time>2024-04-01T08:29:43Z</time>
      </trkpt>
      <trkpt lat="49.95239" lon="4.2435">
        <ele>302.4</ele>
        <time>2024-04-01T08:29:44Z</time>
      </trkpt>
      <trkpt lat="49.95235" lon="4.24341">
        <ele>302.4</ele>
        <time>2024-04-01T08:29:45Z</time>
      </trkpt>
      <trkpt lat="49.95232" lon="4.24332">
        <ele>302.2</ele>
        <time>2024-04-01T08:29:46Z</time>
      </trkpt>
      <trkpt lat="49.95227" lon="4.24324">
        <ele>302.2</ele>
        <time>2024-04-01T08:29:47Z</time>
      </trkpt>
      <trkpt lat="49.95221" lon="4.24318">
        <ele>302</ele>
        <time>2024-04-01T08:29:48Z</time>
      </trkpt>
      <trkpt lat="49.95215" lon="4.24313">
        <ele>302</ele>
        <time>2024-04-01T08:29:49Z</time>
      </trkpt>
      <trkpt lat="49.95208" lon="4.2431">
        <ele>301.2</ele>
        <time>2024-04-01T08:29:50Z</time>
      </trkpt>
      <trkpt lat="49.95201" lon="4.24308">
        <ele>301.2</ele>
        <time>2024-04-01T08:29:51Z</time>
      </trkpt>
      <trkpt lat="49.95193" lon="4.24308">
        <ele>300.6</ele>
        <time>2024-04-01T08:29:52Z</time>
      </trkpt>
      <trkpt lat="49.95186" lon="4.24309">
        <ele>300.2</ele>
        <time>2024-04-01T08:29:53Z</time>
      </trkpt>
      <trkpt lat="49.95179" lon="4.24312">
        <ele>300.2</ele>
        <time>2024-04-01T08:29:54Z</time>
      </trkpt>
      <trkpt lat="49.95172" lon="4.24316">
        <ele>300</ele>
        <time>2024-04-01T08:29:55Z</time>
      </trkpt>
      <trkpt lat="49.95165" lon="4.24321">
        <ele>299.8</ele>
        <time>2024-04-01T08:29:56Z</time>
      </trkpt>
      <trkpt lat="49.95158" lon="4.24327">
        <ele>299.6</ele>
        <time>2024-04-01T08:29:57Z</time>
      </trkpt>
      <trkpt lat="49.95152" lon="4.24332">
        <ele>299.6</ele>
        <time>2024-04-01T08:29:58Z</time>
      </trkpt>
      <trkpt lat="49.95145" lon="4.24338">
        <ele>299.6</ele>
        <time>2024-04-01T08:29:59Z</time>
      </trkpt>
      <trkpt lat="49.95139" lon="4.24344">
        <ele>299.6</ele>
        <time>2024-04-01T08:30:00Z</time>
      </trkpt>
      <trkpt lat="49.95132" lon="4.24349">
        <ele>299.4</ele>
        <time>2024-04-01T08:30:01Z</time>
      </trkpt>
      <trkpt lat="49.95125" lon="4.24354">
        <ele>299</ele>
        <time>2024-04-01T08:30:02Z</time>
      </trkpt>
      <trkpt lat="49.95118" lon="4.24358">
        <ele>298.8</ele>
        <time>2024-04-01T08:30:03Z</time>
      </trkpt>
      <trkpt lat="49.95112" lon="4.24363">
        <ele>298.8</ele>
        <time>2024-04-01T08:30:04Z</time>
      </trkpt>
      <trkpt lat="49.95105" lon="4.24366">
        <ele>298.6</ele>
        <time>2024-04-01T08:30:05Z</time>
      </trkpt>
      <trkpt lat="49.95098" lon="4.2437">
        <ele>298.6</ele>
        <time>2024-04-01T08:30:06Z</time>
      </trkpt>
      <trkpt lat="49.95091" lon="4.24374">
        <ele>298.4</ele>
        <time>2024-04-01T08:30:07Z</time>
      </trkpt>
      <trkpt lat="49.95084" lon="4.24378">
        <ele>298.4</ele>
        <time>2024-04-01T08:30:08Z</time>
      </trkpt>
      <trkpt lat="49.95078" lon="4.24382">
        <ele>298.4</ele>
        <time>2024-04-01T08:30:09Z</time>
      </trkpt>
      <trkpt lat="49.95071" lon="4.24386">
        <ele>298.4</ele>
        <time>2024-04-01T08:30:10Z</time>
      </trkpt>
      <trkpt lat="49.95064" lon="4.24391">
        <ele>298</ele>
        <time>2024-04-01T08:30:11Z</time>
      </trkpt>
      <trkpt lat="49.95058" lon="4.24397">
        <ele>297.8</ele>
        <time>2024-04-01T08:30:12Z</time>
      </trkpt>
      <trkpt lat="49.95052" lon="4.24402">
        <ele>297.6</ele>
        <time>2024-04-01T08:30:13Z</time>
      </trkpt>
      <trkpt lat="49.95046" lon="4.24408">
        <ele>297.6</ele>
        <time>2024-04-01T08:30:14Z</time>
      </trkpt>
      <trkpt lat="49.9504" lon="4.24414">
        <ele>297.4</ele>
        <time>2024-04-01T08:30:15Z</time>
      </trkpt>
      <trkpt lat="49.95034" lon="4.24419">
        <ele>297.4</ele>
        <time>2024-04-01T08:30:16Z</time>
      </trkpt>
      <trkpt lat="49.95027" lon="4.24425">
        <ele>297.2</ele>
        <time>2024-04-01T08:30:17Z</time>
      </trkpt>
      <trkpt lat="49.95021" lon="4.2443">
        <ele>296.8</ele>
        <time>2024-04-01T08:30:18Z</time>
      </trkpt>
      <trkpt lat="49.95015" lon="4.24435">
        <ele>296.8</ele>
        <time>2024-04-01T08:30:19Z</time>
      </trkpt>
      <trkpt lat="49.95009" lon="4.2444">
        <ele>296.8</ele>
        <time>2024-04-01T08:30:20Z</time>
      </trkpt>
      <trkpt lat="49.95003" lon="4.24444">
        <ele>296.6</ele>
        <time>2024-04-01T08:30:21Z</time>
      </trkpt>
      <trkpt lat="49.94996" lon="4.24448">
        <ele>296.4</ele>
        <time>2024-04-01T08:30:22Z</time>
      </trkpt>
      <trkpt lat="49.9499" lon="4.24452">
        <ele>296.2</ele>
        <time>2024-04-01T08:30:23Z</time>
      </trkpt>
      <trkpt lat="49.94983" lon="4.24455">
        <ele>296</ele>
        <time>2024-04-01T08:30:24Z</time>
      </trkpt>
      <trkpt lat="49.94976" lon="4.24457">
        <ele>296</ele>
        <time>2024-04-01T08:30:25Z</time>
      </trkpt>
      <trkpt lat="49.94969" lon="4.24457">
        <ele>296</ele>
        <time>2024-04-01T08:30:26Z</time>
      </trkpt>
      <trkpt lat="49.94962" lon="4.24455">
        <ele>295.8</ele>
        <time>2024-04-01T08:30:27Z</time>
      </trkpt>
      <trkpt lat="49.94956" lon="4.2445">
        <ele>295.6</ele>
        <time>2024-04-01T08:30:28Z</time>
      </trkpt>
      <trkpt lat="49.9495" lon="4.24443">
        <ele>295.4</ele>
        <time>2024-04-01T08:30:29Z</time>
      </trkpt>
      <trkpt lat="49.94945" lon="4.24435">
        <ele>295.4</ele>
        <time>2024-04-01T08:30:30Z</time>
      </trkpt>
      <trkpt lat="49.94941" lon="4.24425">
        <ele>295.4</ele>
        <time>2024-04-01T08:30:31Z</time>
      </trkpt>
      <trkpt lat="49.94937" lon="4.24414">
        <ele>295.4</ele>
        <time>2024-04-01T08:30:32Z</time>
      </trkpt>
      <trkpt lat="49.94934" lon="4.24403">
        <ele>295.4</ele>
        <time>2024-04-01T08:30:33Z</time>
      </trkpt>
      <trkpt lat="49.94932" lon="4.24391">
        <ele>295.4</ele>
        <time>2024-04-01T08:30:34Z</time>
      </trkpt>
      <trkpt lat="49.94931" lon="4.24379">
        <ele>295.4</ele>
        <time>2024-04-01T08:30:35Z</time>
      </trkpt>
      <trkpt lat="49.9493" lon="4.24367">
        <ele>295.4</ele>
        <time>2024-04-01T08:30:36Z</time>
      </trkpt>
      <trkpt lat="49.94929" lon="4.24355">
        <ele>295.2</ele>
        <time>2024-04-01T08:30:37Z</time>
      </trkpt>
      <trkpt lat="49.94928" lon="4.24343">
        <ele>295.4</ele>
        <time>2024-04-01T08:30:38Z</time>
      </trkpt>
      <trkpt lat="49.94927" lon="4.2433">
        <ele>295.2</ele>
        <time>2024-04-01T08:30:39Z</time>
      </trkpt>
      <trkpt lat="49.94925" lon="4.24319">
        <ele>295.2</ele>
        <time>2024-04-01T08:30:40Z</time>
      </trkpt>
      <trkpt lat="49.94923" lon="4.24308">
        <ele>295</ele>
        <time>2024-04-01T08:30:41Z</time>
      </trkpt>
      <trkpt lat="49.94919" lon="4.24297">
        <ele>294.6</ele>
        <time>2024-04-01T08:30:42Z</time>
      </trkpt>
      <trkpt lat="49.94915" lon="4.24287">
        <ele>294.6</ele>
        <time>2024-04-01T08:30:43Z</time>
      </trkpt>
      <trkpt lat="49.94909" lon="4.24279">
        <ele>294.2</ele>
        <time>2024-04-01T08:30:44Z</time>
      </trkpt>
      <trkpt lat="49.94904" lon="4.2427">
        <ele>294.2</ele>
        <time>2024-04-01T08:30:45Z</time>
      </trkpt>
      <trkpt lat="49.94898" lon="4.24261">
        <ele>294</ele>
        <time>2024-04-01T08:30:46Z</time>
      </trkpt>
      <trkpt lat="49.94893" lon="4.24251">
        <ele>293.8</ele>
        <time>2024-04-01T08:30:47Z</time>
      </trkpt>
      <trkpt lat="49.94889" lon="4.24241">
        <ele>293.8</ele>
        <time>2024-04-01T08:30:48Z</time>
      </trkpt>
      <trkpt lat="49.94884" lon="4.24231">
        <ele>293</ele>
        <time>2024-04-01T08:30:49Z</time>
      </trkpt>
      <trkpt lat="49.94881" lon="4.2422">
        <ele>292.8</ele>
        <time>2024-04-01T08:30:50Z</time>
      </trkpt>
      <trkpt lat="49.94877" lon="4.24209">
        <ele>292.2</ele>
        <time>2024-04-01T08:30:51Z</time>
      </trkpt>
      <trkpt lat="49.94873" lon="4.24197">
        <ele>292</ele>
        <time>2024-04-01T08:30:52Z</time>
      </trkpt>
      <trkpt lat="49.9487" lon="4.24186">
        <ele>291.8</ele>
        <time>2024-04-01T08:30:53Z</time>
      </trkpt>
      <trkpt lat="49.94866" lon="4.24174">
        <ele>291.6</ele>
        <time>2024-04-01T08:30:54Z</time>
      </trkpt>
      <trkpt lat="49.94863" lon="4.24162">
        <ele>291.2</ele>
        <time>2024-04-01T08:30:55Z</time>
      </trkpt>
      <trkpt lat="49.9486" lon="4.2415">
        <ele>290.8</ele>
        <time>2024-04-01T08:30:56Z</time>
      </trkpt>
      <trkpt lat="49.94857" lon="4.24138">
        <ele>290.4</ele>
        <time>2024-04-01T08:30:57Z</time>
      </trkpt>
      <trkpt lat="49.94854" lon="4.24125">
        <ele>290.2</ele>
        <time>2024-04-01T08:30:58Z</time>
      </trkpt>
      <trkpt lat="49.94851" lon="4.24112">
        <ele>290</ele>
        <time>2024-04-01T08:30:59Z</time>
      </trkpt>
      <trkpt lat="49.94848" lon="4.241">
        <ele>289.8</ele>
        <time>2024-04-01T08:31:00Z</time>
      </trkpt>
      <trkpt lat="49.94845" lon="4.24087">
        <ele>289.6</ele>
        <time>2024-04-01T08:31:01Z</time>
      </trkpt>
      <trkpt lat="49.94841" lon="4.24075">
        <ele>289.4</ele>
        <time>2024-04-01T08:31:02Z</time>
      </trkpt>
      <trkpt lat="49.94837" lon="4.24063">
        <ele>289</ele>
        <time>2024-04-01T08:31:03Z</time>
      </trkpt>
      <trkpt lat="49.94832" lon="4.24052">
        <ele>289</ele>
        <time>2024-04-01T08:31:04Z</time>
      </trkpt>
      <trkpt lat="49.94827" lon="4.24042">
        <ele>288.4</ele>
        <time>2024-04-01T08:31:05Z</time>
      </trkpt>
      <trkpt lat="49.94822" lon="4.24032">
        <ele>287.8</ele>
        <time>2024-04-01T08:31:06Z</time>
      </trkpt>
      <trkpt lat="49.94817" lon="4.24022">
        <ele>287.2</ele>
        <time>2024-04-01T08:31:07Z</time>
      </trkpt>
      <trkpt lat="49.94813" lon="4.24013">
        <ele>286.8</ele>
        <time>2024-04-01T08:31:08Z</time>
      </trkpt>
      <trkpt lat="49.94808" lon="4.24004">
        <ele>286.4</ele>
        <time>2024-04-01T08:31:09Z</time>
      </trkpt>
      <trkpt lat="49.94803" lon="4.23995">
        <ele>286.2</ele>
        <time>2024-04-01T08:31:10Z</time>
      </trkpt>
      <trkpt lat="49.94798" lon="4.23987">
        <ele>285.8</ele>
        <time>2024-04-01T08:31:11Z</time>
      </trkpt>
      <trkpt lat="49.94794" lon="4.23979">
        <ele>285.2</ele>
        <time>2024-04-01T08:31:12Z</time>
      </trkpt>
      <trkpt lat="49.9479" lon="4.23972">
        <ele>285.2</ele>
        <time>2024-04-01T08:31:13Z</time>
      </trkpt>
      <trkpt lat="49.94788" lon="4.23967">
        <ele>285</ele>
        <time>2024-04-01T08:31:14Z</time>
      </trkpt>
      <trkpt lat="49.94786" lon="4.23963">
        <ele>285</ele>
        <time>2024-04-01T08:31:15Z</time>
      </trkpt>
      <trkpt lat="49.94784" lon="4.23961">
        <ele>284.8</ele>
        <time>2024-04-01T08:31:16Z</time>
      </trkpt>
      <trkpt lat="49.94782" lon="4.23959">
        <ele>284.8</ele>
        <time>2024-04-01T08:31:17Z</time>
      </trkpt>
      <trkpt lat="49.94778" lon="4.23959">
        <ele>284.8</ele>
        <time>2024-04-01T08:31:18Z</time>
      </trkpt>
      <trkpt lat="49.94774" lon="4.23961">
        <ele>284.8</ele>
        <time>2024-04-01T08:31:19Z</time>
      </trkpt>
      <trkpt lat="49.9477" lon="4.23965">
        <ele>284.8</ele>
        <time>2024-04-01T08:31:20Z</time>
      </trkpt>
      <trkpt lat="49.94766" lon="4.23969">
        <ele>284.6</ele>
        <time>2024-04-01T08:31:21Z</time>
      </trkpt>
      <trkpt lat="49.94761" lon="4.23975">
        <ele>284.4</ele>
        <time>2024-04-01T08:31:22Z</time>
      </trkpt>
      <trkpt lat="49.94756" lon="4.2398">
        <ele>284.4</ele>
        <time>2024-04-01T08:31:23Z</time>
      </trkpt>
      <trkpt lat="49.94751" lon="4.23986">
        <ele>284.2</ele>
        <time>2024-04-01T08:31:24Z</time>
      </trkpt>
      <trkpt lat="49.94746" lon="4.23992">
        <ele>284.2</ele>
        <time>2024-04-01T08:31:25Z</time>
      </trkpt>
      <trkpt lat="49.9474" lon="4.23998">
        <ele>284.2</ele>
        <time>2024-04-01T08:31:26Z</time>
      </trkpt>
      <trkpt lat="49.94735" lon="4.24005">
        <ele>284.2</ele>
        <time>2024-04-01T08:31:27Z</time>
      </trkpt>
      <trkpt lat="49.94729" lon="4.24011">
        <ele>284</ele>
        <time>2024-04-01T08:31:28Z</time>
      </trkpt>
      <trkpt lat="49.94724" lon="4.24018">
        <ele>284.2</ele>
        <time>2024-04-01T08:31:29Z</time>
      </trkpt>
      <trkpt lat="49.94718" lon="4.24025">
        <ele>284.2</ele>
        <time>2024-04-01T08:31:30Z</time>
      </trkpt>
      <trkpt lat="49.94713" lon="4.24032">
        <ele>284.2</ele>
        <time>2024-04-01T08:31:31Z</time>
      </trkpt>
      <trkpt lat="49.94707" lon="4.24039">
        <ele>284.2</ele>
        <time>2024-04-01T08:31:32Z</time>
      </trkpt>
      <trkpt lat="49.94702" lon="4.24046">
        <ele>284</ele>
        <time>2024-04-01T08:31:33Z</time>
      </trkpt>
      <trkpt lat="49.94697" lon="4.24053">
        <ele>283.8</ele>
        <time>2024-04-01T08:31:34Z</time>
      </trkpt>
      <trkpt lat="49.94692" lon="4.2406">
        <ele>283.8</ele>
        <time>2024-04-01T08:31:35Z</time>
      </trkpt>
      <trkpt lat="49.94686" lon="4.24067">
        <ele>283.8</ele>
        <time>2024-04-01T08:31:36Z</time>
      </trkpt>
      <trkpt lat="49.94681" lon="4.24074">
        <ele>283.8</ele>
        <time>2024-04-01T08:31:37Z</time>
      </trkpt>
      <trkpt lat="49.94676" lon="4.24081">
        <ele>283.8</ele>
        <time>2024-04-01T08:31:38Z</time>
      </trkpt>
      <trkpt lat="49.94671" lon="4.24088">
        <ele>283.6</ele>
        <time>2024-04-01T08:31:39Z</time>
      </trkpt>
      <trkpt lat="49.94666" lon="4.24095">
        <ele>283.8</ele>
        <time>2024-04-01T08:31:40Z</time>
      </trkpt>
      <trkpt lat="49.94661" lon="4.24101">
        <ele>283.6</ele>
        <time>2024-04-01T08:31:41Z</time>
      </trkpt>
      <trkpt lat="49.94656" lon="4.24108">
        <ele>283.6</ele>
        <time>2024-04-01T08:31:42Z</time>
      </trkpt>
      <trkpt lat="49.94651" lon="4.24115">
        <ele>283.8</ele>
        <time>2024-04-01T08:31:43Z</time>
      </trkpt>
      <trkpt lat="49.94647" lon="4.24121">
        <ele>284</ele>
        <time>2024-04-01T08:31:44Z</time>
      </trkpt>
      <trkpt lat="49.94642" lon="4.24127">
        <ele>284.4</ele>
        <time>2024-04-01T08:31:45Z</time>
      </trkpt>
      <trkpt lat="49.94637" lon="4.24134">
        <ele>284.6</ele>
        <time>2024-04-01T08:31:46Z</time>
      </trkpt>
      <trkpt lat="49.94633" lon="4.2414">
        <ele>284.8</ele>
        <time>2024-04-01T08:31:47Z</time>
      </trkpt>
      <trkpt lat="49.94629" lon="4.24146">
        <ele>285</ele>
        <time>2024-04-01T08:31:48Z</time>
      </trkpt>
      <trkpt lat="49.94624" lon="4.24152">
        <ele>285</ele>
        <time>2024-04-01T08:31:49Z</time>
      </trkpt>
      <trkpt lat="49.9462" lon="4.24158">
        <ele>285.2</ele>
        <time>2024-04-01T08:31:50Z</time>
      </trkpt>
      <trkpt lat="49.94615" lon="4.24164">
        <ele>285.4</ele>
        <time>2024-04-01T08:31:51Z</time>
      </trkpt>
      <trkpt lat="49.94611" lon="4.2417">
        <ele>285.4</ele>
        <time>2024-04-01T08:31:52Z</time>
      </trkpt>
      <trkpt lat="49.94606" lon="4.24176">
        <ele>285.6</ele>
        <time>2024-04-01T08:31:53Z</time>
      </trkpt>
      <trkpt lat="49.94602" lon="4.24182">
        <ele>285.8</ele>
        <time>2024-04-01T08:31:54Z</time>
      </trkpt>
      <trkpt lat="49.94597" lon="4.24188">
        <ele>286.2</ele>
        <time>2024-04-01T08:31:55Z</time>
      </trkpt>
      <trkpt lat="49.94593" lon="4.24194">
        <ele>286.4</ele>
        <time>2024-04-01T08:31:56Z</time>
      </trkpt>
      <trkpt lat="49.94588" lon="4.242">
        <ele>286.4</ele>
        <time>2024-04-01T08:31:57Z</time>
      </trkpt>
      <trkpt lat="49.94584" lon="4.24205">
        <ele>286.6</ele>
        <time>2024-04-01T08:31:58Z</time>
      </trkpt>
      <trkpt lat="49.94579" lon="4.24211">
        <ele>286.8</ele>
        <time>2024-04-01T08:31:59Z</time>
      </trkpt>
      <trkpt lat="49.94575" lon="4.24217">
        <ele>286.8</ele>
        <time>2024-04-01T08:32:00Z</time>
      </trkpt>
      <trkpt lat="49.9457" lon="4.24222">
        <ele>287</ele>
        <time>2024-04-01T08:32:01Z</time>
      </trkpt>
      <trkpt lat="49.94566" lon="4.24228">
        <ele>287.2</ele>
        <time>2024-04-01T08:32:02Z</time>
      </trkpt>
      <trkpt lat="49.94561" lon="4.24234">
        <ele>287.2</ele>
        <time>2024-04-01T08:32:03Z</time>
      </trkpt>
      <trkpt lat="49.94557" lon="4.24239">
        <ele>287.4</ele>
        <time>2024-04-01T08:32:04Z</time>
      </trkpt>
      <trkpt lat="49.94553" lon="4.24245">
        <ele>287.6</ele>
        <time>2024-04-01T08:32:05Z</time>
      </trkpt>
      <trkpt lat="49.94548" lon="4.2425">
        <ele>287.6</ele>
        <time>2024-04-01T08:32:06Z</time>
      </trkpt>
      <trkpt lat="49.94544" lon="4.24256">
        <ele>287.6</ele>
        <time>2024-04-01T08:32:07Z</time>
      </trkpt>
      <trkpt lat="49.94539" lon="4.24261">
        <ele>287.6</ele>
        <time>2024-04-01T08:32:08Z</time>
      </trkpt>
      <trkpt lat="49.94535" lon="4.24266">
        <ele>287.6</ele>
        <time>2024-04-01T08:32:09Z</time>
      </trkpt>
      <trkpt lat="49.94531" lon="4.24272">
        <ele>287.8</ele>
        <time>2024-04-01T08:32:10Z</time>
      </trkpt>
      <trkpt lat="49.94526" lon="4.24277">
        <ele>287.8</ele>
        <time>2024-04-01T08:32:11Z</time>
      </trkpt>
      <trkpt lat="49.94522" lon="4.24282">
        <ele>288.2</ele>
        <time>2024-04-01T08:32:12Z</time>
      </trkpt>
      <trkpt lat="49.94517" lon="4.24287">
        <ele>289.2</ele>
        <time>2024-04-01T08:32:13Z</time>
      </trkpt>
      <trkpt lat="49.94513" lon="4.24292">
        <ele>289.4</ele>
        <time>2024-04-01T08:32:14Z</time>
      </trkpt>
      <trkpt lat="49.94508" lon="4.24298">
        <ele>289.6</ele>
        <time>2024-04-01T08:32:15Z</time>
      </trkpt>
      <trkpt lat="49.94504" lon="4.24303">
        <ele>289.8</ele>
        <time>2024-04-01T08:32:16Z</time>
      </trkpt>
      <trkpt lat="49.94499" lon="4.24308">
        <ele>290</ele>
        <time>2024-04-01T08:32:17Z</time>
      </trkpt>
      <trkpt lat="49.94494" lon="4.24313">
        <ele>290</ele>
        <time>2024-04-01T08:32:18Z</time>
      </trkpt>
      <trkpt lat="49.94489" lon="4.24318">
        <ele>290.2</ele>
        <time>2024-04-01T08:32:19Z</time>
      </trkpt>
      <trkpt lat="49.94484" lon="4.24323">
        <ele>290.2</ele>
        <time>2024-04-01T08:32:20Z</time>
      </trkpt>
      <trkpt lat="49.94479" lon="4.24328">
        <ele>290.4</ele>
        <time>2024-04-01T08:32:21Z</time>
      </trkpt>
      <trkpt lat="49.94474" lon="4.24332">
        <ele>290.4</ele>
        <time>2024-04-01T08:32:22Z</time>
      </trkpt>
      <trkpt lat="49.94469" lon="4.24336">
        <ele>290.6</ele>
        <time>2024-04-01T08:32:23Z</time>
      </trkpt>
      <trkpt lat="49.94464" lon="4.2434">
        <ele>290.6</ele>
        <time>2024-04-01T08:32:24Z</time>
      </trkpt>
      <trkpt lat="49.94458" lon="4.24343">
        <ele>290.6</ele>
        <time>2024-04-01T08:32:25Z</time>
      </trkpt>
      <trkpt lat="49.94453" lon="4.24345">
        <ele>290.6</ele>
        <time>2024-04-01T08:32:26Z</time>
      </trkpt>
      <trkpt lat="49.94447" lon="4.24346">
        <ele>290.6</ele>
        <time>2024-04-01T08:32:27Z</time>
      </trkpt>
      <trkpt lat="49.94441" lon="4.24346">
        <ele>290.8</ele>
        <time>2024-04-01T08:32:28Z</time>
      </trkpt>
      <trkpt lat="49.94435" lon="4.24345">
        <ele>290.6</ele>
        <time>2024-04-01T08:32:29Z</time>
      </trkpt>
      <trkpt lat="49.94429" lon="4.24342">
        <ele>290.8</ele>
        <time>2024-04-01T08:32:30Z</time>
      </trkpt>
      <trkpt lat="49.94423" lon="4.24338">
        <ele>290.6</ele>
        <time>2024-04-01T08:32:31Z</time>
      </trkpt>
      <trkpt lat="49.94418" lon="4.24333">
        <ele>290.6</ele>
        <time>2024-04-01T08:32:32Z</time>
      </trkpt>
      <trkpt lat="49.94413" lon="4.24327">
        <ele>290.6</ele>
        <time>2024-04-01T08:32:33Z</time>
      </trkpt>
      <trkpt lat="49.94408" lon="4.2432">
        <ele>290.2</ele>
        <time>2024-04-01T08:32:34Z</time>
      </trkpt>
      <trkpt lat="49.94404" lon="4.24313">
        <ele>290</ele>
        <time>2024-04-01T08:32:35Z</time>
      </trkpt>
      <trkpt lat="49.944" lon="4.24305">
        <ele>289.8</ele>
        <time>2024-04-01T08:32:36Z</time>
      </trkpt>
      <trkpt lat="49.94396" lon="4.24297">
        <ele>289.6</ele>
        <time>2024-04-01T08:32:37Z</time>
      </trkpt>
      <trkpt lat="49.94393" lon="4.24289">
        <ele>289.4</ele>
        <time>2024-04-01T08:32:38Z</time>
      </trkpt>
      <trkpt lat="49.94389" lon="4.2428">
        <ele>289.4</ele>
        <time>2024-04-01T08:32:39Z</time>
      </trkpt>
      <trkpt lat="49.94385" lon="4.24272">
        <ele>289.4</ele>
        <time>2024-04-01T08:32:40Z</time>
      </trkpt>
      <trkpt lat="49.94382" lon="4.24264">
        <ele>289.4</ele>
        <time>2024-04-01T08:32:41Z</time>
      </trkpt>
      <trkpt lat="49.94378" lon="4.24256">
        <ele>289.2</ele>
        <time>2024-04-01T08:32:42Z</time>
      </trkpt>
      <trkpt lat="49.94374" lon="4.24247">
        <ele>289.2</ele>
        <time>2024-04-01T08:32:43Z</time>
      </trkpt>
      <trkpt lat="49.94371" lon="4.24239">
        <ele>289.4</ele>
        <time>2024-04-01T08:32:44Z</time>
      </trkpt>
      <trkpt lat="49.94367" lon="4.24231">
        <ele>289.4</ele>
        <time>2024-04-01T08:32:45Z</time>
      </trkpt>
      <trkpt lat="49.94364" lon="4.24223">
        <ele>289.4</ele>
        <time>2024-04-01T08:32:46Z</time>
      </trkpt>
      <trkpt lat="49.9436" lon="4.24214">
        <ele>289.4</ele>
        <time>2024-04-01T08:32:47Z</time>
      </trkpt>
      <trkpt lat="49.94356" lon="4.24206">
        <ele>289.4</ele>
        <time>2024-04-01T08:32:48Z</time>
      </trkpt>
      <trkpt lat="49.94353" lon="4.24198">
        <ele>289.4</ele>
        <time>2024-04-01T08:32:49Z</time>
      </trkpt>
      <trkpt lat="49.94349" lon="4.24189">
        <ele>289.2</ele>
        <time>2024-04-01T08:32:50Z</time>
      </trkpt>
      <trkpt lat="49.94345" lon="4.24181">
        <ele>289.4</ele>
        <time>2024-04-01T08:32:51Z</time>
      </trkpt>
      <trkpt lat="49.94342" lon="4.24173">
        <ele>289.4</ele>
        <time>2024-04-01T08:32:52Z</time>
      </trkpt>
      <trkpt lat="49.94338" lon="4.24164">
        <ele>289.4</ele>
        <time>2024-04-01T08:32:53Z</time>
      </trkpt>
      <trkpt lat="49.94334" lon="4.24156">
        <ele>289.4</ele>
        <time>2024-04-01T08:32:54Z</time>
      </trkpt>
      <trkpt lat="49.94331" lon="4.24147">
        <ele>289.4</ele>
        <time>2024-04-01T08:32:55Z</time>
      </trkpt>
      <trkpt lat="49.94327" lon="4.24139">
        <ele>289.4</ele>
        <time>2024-04-01T08:32:56Z</time>
      </trkpt>
      <trkpt lat="49.94324" lon="4.2413">
        <ele>289.4</ele>
        <time>2024-04-01T08:32:57Z</time>
      </trkpt>
      <trkpt lat="49.9432" lon="4.24122">
        <ele>289.4</ele>
        <time>2024-04-01T08:32:58Z</time>
      </trkpt>
      <trkpt lat="49.94316" lon="4.24113">
        <ele>289.4</ele>
        <time>2024-04-01T08:32:59Z</time>
      </trkpt>
      <trkpt lat="49.94312" lon="4.24104">
        <ele>289.4</ele>
        <time>2024-04-01T08:33:00Z</time>
      </trkpt>
      <trkpt lat="49.94309" lon="4.24095">
        <ele>289.4</ele>
        <time>2024-04-01T08:33:01Z</time>
      </trkpt>
      <trkpt lat="49.94305" lon="4.24086">
        <ele>289.4</ele>
        <time>2024-04-01T08:33:02Z</time>
      </trkpt>
      <trkpt lat="49.94301" lon="4.24077">
        <ele>289.4</ele>
        <time>2024-04-01T08:33:03Z</time>
      </trkpt>
      <trkpt lat="49.94298" lon="4.24067">
        <ele>289.2</ele>
        <time>2024-04-01T08:33:04Z</time>
      </trkpt>
      <trkpt lat="49.94294" lon="4.24057">
        <ele>289.2</ele>
        <time>2024-04-01T08:33:05Z</time>
      </trkpt>
      <trkpt lat="49.9429" lon="4.24047">
        <ele>289</ele>
        <time>2024-04-01T08:33:06Z</time>
      </trkpt>
      <trkpt lat="49.94287" lon="4.24038">
        <ele>289</ele>
        <time>2024-04-01T08:33:07Z</time>
      </trkpt>
      <trkpt lat="49.94283" lon="4.24028">
        <ele>289</ele>
        <time>2024-04-01T08:33:08Z</time>
      </trkpt>
      <trkpt lat="49.9428" lon="4.24018">
        <ele>289</ele>
        <time>2024-04-01T08:33:09Z</time>
      </trkpt>
      <trkpt lat="49.94276" lon="4.24008">
        <ele>288.8</ele>
        <time>2024-04-01T08:33:10Z</time>
      </trkpt>
      <trkpt lat="49.94273" lon="4.23998">
        <ele>289</ele>
        <time>2024-04-01T08:33:11Z</time>
      </trkpt>
      <trkpt lat="49.9427" lon="4.23988">
        <ele>288.8</ele>
        <time>2024-04-01T08:33:12Z</time>
      </trkpt>
      <trkpt lat="49.94267" lon="4.23978">
        <ele>288.8</ele>
        <time>2024-04-01T08:33:13Z</time>
      </trkpt>
      <trkpt lat="49.94264" lon="4.23968">
        <ele>288.6</ele>
        <time>2024-04-01T08:33:14Z</time>
      </trkpt>
      <trkpt lat="49.9426" lon="4.23958">
        <ele>288.6</ele>
        <time>2024-04-01T08:33:15Z</time>
      </trkpt>
      <trkpt lat="49.94257" lon="4.23948">
        <ele>288.4</ele>
        <time>2024-04-01T08:33:16Z</time>
      </trkpt>
      <trkpt lat="49.94254" lon="4.23938">
        <ele>288.4</ele>
        <time>2024-04-01T08:33:17Z</time>
      </trkpt>
      <trkpt lat="49.9425" lon="4.23927">
        <ele>288.2</ele>
        <time>2024-04-01T08:33:18Z</time>
      </trkpt>
      <trkpt lat="49.94247" lon="4.23917">
        <ele>288.2</ele>
        <time>2024-04-01T08:33:19Z</time>
      </trkpt>
      <trkpt lat="49.94244" lon="4.23907">
        <ele>288</ele>
        <time>2024-04-01T08:33:20Z</time>
      </trkpt>
      <trkpt lat="49.9424" lon="4.23897">
        <ele>288</ele>
        <time>2024-04-01T08:33:21Z</time>
      </trkpt>
      <trkpt lat="49.94237" lon="4.23887">
        <ele>287.8</ele>
        <time>2024-04-01T08:33:22Z</time>
      </trkpt>
      <trkpt lat="49.94234" lon="4.23877">
        <ele>288</ele>
        <time>2024-04-01T08:33:23Z</time>
      </trkpt>
      <trkpt lat="49.9423" lon="4.23867">
        <ele>287.8</ele>
        <time>2024-04-01T08:33:24Z</time>
      </trkpt>
      <trkpt lat="49.94227" lon="4.23856">
        <ele>287.8</ele>
        <time>2024-04-01T08:33:25Z</time>
      </trkpt>
      <trkpt lat="49.94223" lon="4.23846">
        <ele>287.6</ele>
        <time>2024-04-01T08:33:26Z</time>
      </trkpt>
      <trkpt lat="49.9422" lon="4.23836">
        <ele>287.4</ele>
        <time>2024-04-01T08:33:27Z</time>
      </trkpt>
      <trkpt lat="49.94217" lon="4.23826">
        <ele>287.4</ele>
        <time>2024-04-01T08:33:28Z</time>
      </trkpt>
      <trkpt lat="49.94214" lon="4.23816">
        <ele>287.4</ele>
        <time>2024-04-01T08:33:29Z</time>
      </trkpt>
      <trkpt lat="49.9421" lon="4.23807">
        <ele>287.2</ele>
        <time>2024-04-01T08:33:30Z</time>
      </trkpt>
      <trkpt lat="49.94207" lon="4.23797">
        <ele>287.2</ele>
        <time>2024-04-01T08:33:31Z</time>
      </trkpt>
      <trkpt lat="49.94203" lon="4.23787">
        <ele>287.2</ele>
        <time>2024-04-01T08:33:32Z</time>
      </trkpt>
      <trkpt lat="49.94199" lon="4.23778">
        <ele>287.4</ele>
        <time>2024-04-01T08:33:33Z</time>
      </trkpt>
      <trkpt lat="49.94195" lon="4.23769">
        <ele>287.2</ele>
        <time>2024-04-01T08:33:34Z</time>
      </trkpt>
      <trkpt lat="49.9419" lon="4.2376">
        <ele>287</ele>
        <time>2024-04-01T08:33:35Z</time>
      </trkpt>
      <trkpt lat="49.94186" lon="4.23752">
        <ele>287</ele>
        <time>2024-04-01T08:33:36Z</time>
      </trkpt>
      <trkpt lat="49.9418" lon="4.23744">
        <ele>287</ele>
        <time>2024-04-01T08:33:37Z</time>
      </trkpt>
      <trkpt lat="49.94175" lon="4.23738">
        <ele>286.8</ele>
        <time>2024-04-01T08:33:38Z</time>
      </trkpt>
      <trkpt lat="49.94169" lon="4.23732">
        <ele>286.8</ele>
        <time>2024-04-01T08:33:39Z</time>
      </trkpt>
      <trkpt lat="49.94162" lon="4.23726">
        <ele>286.8</ele>
        <time>2024-04-01T08:33:40Z</time>
      </trkpt>
      <trkpt lat="49.94156" lon="4.23722">
        <ele>286.6</ele>
        <time>2024-04-01T08:33:41Z</time>
      </trkpt>
      <trkpt lat="49.94149" lon="4.23719">
        <ele>286.6</ele>
        <time>2024-04-01T08:33:42Z</time>
      </trkpt>
      <trkpt lat="49.94143" lon="4.23716">
        <ele>286.8</ele>
        <time>2024-04-01T08:33:43Z</time>
      </trkpt>
      <trkpt lat="49.94137" lon="4.23713">
        <ele>286.8</ele>
        <time>2024-04-01T08:33:44Z</time>
      </trkpt>
      <trkpt lat="49.9413" lon="4.2371">
        <ele>287</ele>
        <time>2024-04-01T08:33:45Z</time>
      </trkpt>
      <trkpt lat="49.94124" lon="4.23708">
        <ele>287</ele>
        <time>2024-04-01T08:33:46Z</time>
      </trkpt>
      <trkpt lat="49.94118" lon="4.23706">
        <ele>287</ele>
        <time>2024-04-01T08:33:47Z</time>
      </trkpt>
      <trkpt lat="49.94111" lon="4.23704">
        <ele>287</ele>
        <time>2024-04-01T08:33:48Z</time>
      </trkpt>
      <trkpt lat="49.94105" lon="4.23701">
        <ele>287</ele>
        <time>2024-04-01T08:33:49Z</time>
      </trkpt>
      <trkpt lat="49.94099" lon="4.23699">
        <ele>287.4</ele>
        <time>2024-04-01T08:33:50Z</time>
      </trkpt>
      <trkpt lat="49.94093" lon="4.23696">
        <ele>287.8</ele>
        <time>2024-04-01T08:33:51Z</time>
      </trkpt>
      <trkpt lat="49.94087" lon="4.23694">
        <ele>287.8</ele>
        <time>2024-04-01T08:33:52Z</time>
      </trkpt>
      <trkpt lat="49.94081" lon="4.23691">
        <ele>288</ele>
        <time>2024-04-01T08:33:53Z</time>
      </trkpt>
      <trkpt lat="49.94074" lon="4.23689">
        <ele>288</ele>
        <time>2024-04-01T08:33:54Z</time>
      </trkpt>
      <trkpt lat="49.94068" lon="4.23686">
        <ele>288</ele>
        <time>2024-04-01T08:33:55Z</time>
      </trkpt>
      <trkpt lat="49.94062" lon="4.23684">
        <ele>288.2</ele>
        <time>2024-04-01T08:33:56Z</time>
      </trkpt>
      <trkpt lat="49.94056" lon="4.23682">
        <ele>288.2</ele>
        <time>2024-04-01T08:33:57Z</time>
      </trkpt>
      <trkpt lat="49.9405" lon="4.23679">
        <ele>288.2</ele>
        <time>2024-04-01T08:33:58Z</time>
      </trkpt>
      <trkpt lat="49.94044" lon="4.23677">
        <ele>288.4</ele>
        <time>2024-04-01T08:33:59Z</time>
      </trkpt>
      <trkpt lat="49.94039" lon="4.23675">
        <ele>288.8</ele>
        <time>2024-04-01T08:34:00Z</time>
      </trkpt>
      <trkpt lat="49.94033" lon="4.23672">
        <ele>288.8</ele>
        <time>2024-04-01T08:34:01Z</time>
      </trkpt>
      <trkpt lat="49.94027" lon="4.2367">
        <ele>289</ele>
        <time>2024-04-01T08:34:02Z</time>
      </trkpt>
      <trkpt lat="49.94022" lon="4.23668">
        <ele>289</ele>
        <time>2024-04-01T08:34:03Z</time>
      </trkpt>
      <trkpt lat="49.94016" lon="4.23666">
        <ele>289</ele>
        <time>2024-04-01T08:34:04Z</time>
      </trkpt>
      <trkpt lat="49.9401" lon="4.23664">
        <ele>289</ele>
        <time>2024-04-01T08:34:05Z</time>
      </trkpt>
      <trkpt lat="49.94004" lon="4.23661">
        <ele>289.2</ele>
        <time>2024-04-01T08:34:06Z</time>
      </trkpt>
      <trkpt lat="49.93999" lon="4.23659">
        <ele>289.2</ele>
        <time>2024-04-01T08:34:07Z</time>
      </trkpt>
      <trkpt lat="49.93993" lon="4.23657">
        <ele>289.2</ele>
        <time>2024-04-01T08:34:08Z</time>
      </trkpt>
      <trkpt lat="49.93988" lon="4.23655">
        <ele>289.4</ele>
        <time>2024-04-01T08:34:09Z</time>
      </trkpt>
      <trkpt lat="49.93982" lon="4.23652">
        <ele>289.6</ele>
        <time>2024-04-01T08:34:10Z</time>
      </trkpt>
      <trkpt lat="49.93977" lon="4.2365">
        <ele>289.8</ele>
        <time>2024-04-01T08:34:11Z</time>
      </trkpt>
      <trkpt lat="49.93971" lon="4.23648">
        <ele>290.2</ele>
        <time>2024-04-01T08:34:12Z</time>
      </trkpt>
      <trkpt lat="49.93965" lon="4.23645">
        <ele>290.6</ele>
        <time>2024-04-01T08:34:13Z</time>
      </trkpt>
      <trkpt lat="49.93959" lon="4.23643">
        <ele>290.6</ele>
        <time>2024-04-01T08:34:14Z</time>
      </trkpt>
      <trkpt lat="49.93953" lon="4.23641">
        <ele>290.6</ele>
        <time>2024-04-01T08:34:15Z</time>
      </trkpt>
      <trkpt lat="49.93947" lon="4.23639">
        <ele>290.8</ele>
        <time>2024-04-01T08:34:16Z</time>
      </trkpt>
      <trkpt lat="49.93941" lon="4.23637">
        <ele>291</ele>
        <time>2024-04-01T08:34:17Z</time>
      </trkpt>
      <trkpt lat="49.93935" lon="4.23634">
        <ele>291</ele>
        <time>2024-04-01T08:34:18Z</time>
      </trkpt>
      <trkpt lat="49.93929" lon="4.23632">
        <ele>291.2</ele>
        <time>2024-04-01T08:34:19Z</time>
      </trkpt>
      <trkpt lat="49.93922" lon="4.23629">
        <ele>291.2</ele>
        <time>2024-04-01T08:34:20Z</time>
      </trkpt>
      <trkpt lat="49.93916" lon="4.23627">
        <ele>291.4</ele>
        <time>2024-04-01T08:34:21Z</time>
      </trkpt>
      <trkpt lat="49.9391" lon="4.23624">
        <ele>291.4</ele>
        <time>2024-04-01T08:34:22Z</time>
      </trkpt>
      <trkpt lat="49.93904" lon="4.23622">
        <ele>291.4</ele>
        <time>2024-04-01T08:34:23Z</time>
      </trkpt>
      <trkpt lat="49.93897" lon="4.23619">
        <ele>291.4</ele>
        <time>2024-04-01T08:34:24Z</time>
      </trkpt>
      <trkpt lat="49.93891" lon="4.23617">
        <ele>291.4</ele>
        <time>2024-04-01T08:34:25Z</time>
      </trkpt>
      <trkpt lat="49.93884" lon="4.23614">
        <ele>291.6</ele>
        <time>2024-04-01T08:34:26Z</time>
      </trkpt>
      <trkpt lat="49.93877" lon="4.23611">
        <ele>291.4</ele>
        <time>2024-04-01T08:34:27Z</time>
      </trkpt>
      <trkpt lat="49.93871" lon="4.23608">
        <ele>291.4</ele>
        <time>2024-04-01T08:34:28Z</time>
      </trkpt>
      <trkpt lat="49.93864" lon="4.23605">
        <ele>291.4</ele>
        <time>2024-04-01T08:34:29Z</time>
      </trkpt>
      <trkpt lat="49.93857" lon="4.23602">
        <ele>291.4</ele>
        <time>2024-04-01T08:34:30Z</time>
      </trkpt>
      <trkpt lat="49.9385" lon="4.236">
        <ele>291.6</ele>
        <time>2024-04-01T08:34:31Z</time>
      </trkpt>
      <trkpt lat="49.93842" lon="4.23597">
        <ele>291.4</ele>
        <time>2024-04-01T08:34:32Z</time>
      </trkpt>
      <trkpt lat="49.93835" lon="4.23595">
        <ele>291.4</ele>
        <time>2024-04-01T08:34:33Z</time>
      </trkpt>
      <trkpt lat="49.93827" lon="4.23592">
        <ele>291.4</ele>
        <time>2024-04-01T08:34:34Z</time>
      </trkpt>
      <trkpt lat="49.93819" lon="4.23589">
        <ele>291.2</ele>
        <time>2024-04-01T08:34:35Z</time>
      </trkpt>
      <trkpt lat="49.93812" lon="4.23586">
        <ele>290.8</ele>
        <time>2024-04-01T08:34:36Z</time>
      </trkpt>
      <trkpt lat="49.93804" lon="4.23583">
        <ele>290.2</ele>
        <time>2024-04-01T08:34:37Z</time>
      </trkpt>
      <trkpt lat="49.93797" lon="4.2358">
        <ele>289.8</ele>
        <time>2024-04-01T08:34:38Z</time>
      </trkpt>
      <trkpt lat="49.9379" lon="4.23577">
        <ele>289.8</ele>
        <time>2024-04-01T08:34:39Z</time>
      </trkpt>
      <trkpt lat="49.93784" lon="4.23575">
        <ele>289.6</ele>
        <time>2024-04-01T08:34:40Z</time>
      </trkpt>
      <trkpt lat="49.93777" lon="4.23572">
        <ele>289.4</ele>
        <time>2024-04-01T08:34:41Z</time>
      </trkpt>
      <trkpt lat="49.9377" lon="4.23569">
        <ele>289.2</ele>
        <time>2024-04-01T08:34:42Z</time>
      </trkpt>
      <trkpt lat="49.93762" lon="4.23566">
        <ele>289.2</ele>
        <time>2024-04-01T08:34:43Z</time>
      </trkpt>
      <trkpt lat="49.93756" lon="4.23563">
        <ele>288.8</ele>
        <time>2024-04-01T08:34:44Z</time>
      </trkpt>
      <trkpt lat="49.93748" lon="4.2356">
        <ele>288.8</ele>
        <time>2024-04-01T08:34:45Z</time>
      </trkpt>
      <trkpt lat="49.9374" lon="4.23557">
        <ele>288.6</ele>
        <time>2024-04-01T08:34:46Z</time>
      </trkpt>
      <trkpt lat="49.93733" lon="4.23555">
        <ele>288.4</ele>
        <time>2024-04-01T08:34:47Z</time>
      </trkpt>
      <trkpt lat="49.93725" lon="4.23553">
        <ele>288.4</ele>
        <time>2024-04-01T08:34:48Z</time>
      </trkpt>
      <trkpt lat="49.93718" lon="4.2355">
        <ele>288.4</ele>
        <time>2024-04-01T08:34:49Z</time>
      </trkpt>
      <trkpt lat="49.93711" lon="4.23547">
        <ele>288.2</ele>
        <time>2024-04-01T08:34:50Z</time>
      </trkpt>
      <trkpt lat="49.93704" lon="4.23545">
        <ele>288.2</ele>
        <time>2024-04-01T08:34:51Z</time>
      </trkpt>
      <trkpt lat="49.93697" lon="4.23541">
        <ele>288.4</ele>
        <time>2024-04-01T08:34:52Z</time>
      </trkpt>
      <trkpt lat="49.93691" lon="4.23538">
        <ele>288.2</ele>
        <time>2024-04-01T08:34:53Z</time>
      </trkpt>
      <trkpt lat="49.93684" lon="4.23536">
        <ele>288.4</ele>
        <time>2024-04-01T08:34:54Z</time>
      </trkpt>
      <trkpt lat="49.93678" lon="4.23533">
        <ele>288.2</ele>
        <time>2024-04-01T08:34:55Z</time>
      </trkpt>
      <trkpt lat="49.93671" lon="4.23531">
        <ele>288.2</ele>
        <time>2024-04-01T08:34:56Z</time>
      </trkpt>
      <trkpt lat="49.93665" lon="4.23529">
        <ele>288.2</ele>
        <time>2024-04-01T08:34:57Z</time>
      </trkpt>
      <trkpt lat="49.93659" lon="4.23527">
        <ele>288</ele>
        <time>2024-04-01T08:34:58Z</time>
      </trkpt>
      <trkpt lat="49.93653" lon="4.23524">
        <ele>288.2</ele>
        <time>2024-04-01T08:34:59Z</time>
      </trkpt>
      <trkpt lat="49.93646" lon="4.23521">
        <ele>288.2</ele>
        <time>2024-04-01T08:35:00Z</time>
      </trkpt>
      <trkpt lat="49.9364" lon="4.23519">
        <ele>288.2</ele>
        <time>2024-04-01T08:35:01Z</time>
      </trkpt>
      <trkpt lat="49.93633" lon="4.23516">
        <ele>288.2</ele>
        <time>2024-04-01T08:35:02Z</time>
      </trkpt>
      <trkpt lat="49.93627" lon="4.23513">
        <ele>288.2</ele>
        <time>2024-04-01T08:35:03Z</time>
      </trkpt>
      <trkpt lat="49.9362" lon="4.2351">
        <ele>288.2</ele>
        <time>2024-04-01T08:35:04Z</time>
      </trkpt>
      <trkpt lat="49.93613" lon="4.23508">
        <ele>288.4</ele>
        <time>2024-04-01T08:35:05Z</time>
      </trkpt>
      <trkpt lat="49.93606" lon="4.23505">
        <ele>288.4</ele>
        <time>2024-04-01T08:35:06Z</time>
      </trkpt>
      <trkpt lat="49.936" lon="4.23503">
        <ele>288.4</ele>
        <time>2024-04-01T08:35:07Z</time>
      </trkpt>
      <trkpt lat="49.93594" lon="4.23501">
        <ele>288.4</ele>
        <time>2024-04-01T08:35:08Z</time>
      </trkpt>
      <trkpt lat="49.93587" lon="4.23498">
        <ele>288.4</ele>
        <time>2024-04-01T08:35:09Z</time>
      </trkpt>
      <trkpt lat="49.9358" lon="4.23496">
        <ele>288.6</ele>
        <time>2024-04-01T08:35:10Z</time>
      </trkpt>
      <trkpt lat="49.93572" lon="4.23493">
        <ele>288.4</ele>
        <time>2024-04-01T08:35:11Z</time>
      </trkpt>
      <trkpt lat="49.93565" lon="4.2349">
        <ele>288.4</ele>
        <time>2024-04-01T08:35:12Z</time>
      </trkpt>
      <trkpt lat="49.93557" lon="4.23487">
        <ele>288.6</ele>
        <time>2024-04-01T08:35:13Z</time>
      </trkpt>
      <trkpt lat="49.9355" lon="4.23485">
        <ele>288.6</ele>
        <time>2024-04-01T08:35:14Z</time>
      </trkpt>
      <trkpt lat="49.93543" lon="4.23482">
        <ele>288.4</ele>
        <time>2024-04-01T08:35:15Z</time>
      </trkpt>
      <trkpt lat="49.93535" lon="4.23479">
        <ele>288.4</ele>
        <time>2024-04-01T08:35:16Z</time>
      </trkpt>
      <trkpt lat="49.93528" lon="4.23476">
        <ele>288.6</ele>
        <time>2024-04-01T08:35:17Z</time>
      </trkpt>
      <trkpt lat="49.93522" lon="4.23474">
        <ele>288.4</ele>
        <time>2024-04-01T08:35:18Z</time>
      </trkpt>
      <trkpt lat="49.93515" lon="4.23471">
        <ele>288.6</ele>
        <time>2024-04-01T08:35:19Z</time>
      </trkpt>
      <trkpt lat="49.93508" lon="4.23468">
        <ele>288.4</ele>
        <time>2024-04-01T08:35:20Z</time>
      </trkpt>
      <trkpt lat="49.93501" lon="4.23465">
        <ele>288.4</ele>
        <time>2024-04-01T08:35:21Z</time>
      </trkpt>
      <trkpt lat="49.93494" lon="4.23463">
        <ele>288.2</ele>
        <time>2024-04-01T08:35:22Z</time>
      </trkpt>
      <trkpt lat="49.93487" lon="4.2346">
        <ele>288</ele>
        <time>2024-04-01T08:35:23Z</time>
      </trkpt>
      <trkpt lat="49.9348" lon="4.23457">
        <ele>288</ele>
        <time>2024-04-01T08:35:24Z</time>
      </trkpt>
      <trkpt lat="49.93474" lon="4.23454">
        <ele>287.8</ele>
        <time>2024-04-01T08:35:25Z</time>
      </trkpt>
      <trkpt lat="49.93467" lon="4.23452">
        <ele>288</ele>
        <time>2024-04-01T08:35:26Z</time>
      </trkpt>
      <trkpt lat="49.93459" lon="4.2345">
        <ele>288</ele>
        <time>2024-04-01T08:35:27Z</time>
      </trkpt>
      <trkpt lat="49.93452" lon="4.23448">
        <ele>288</ele>
        <time>2024-04-01T08:35:28Z</time>
      </trkpt>
      <trkpt lat="49.93445" lon="4.23445">
        <ele>288</ele>
        <time>2024-04-01T08:35:29Z</time>
      </trkpt>
      <trkpt lat="49.93438" lon="4.23443">
        <ele>288</ele>
        <time>2024-04-01T08:35:30Z</time>
      </trkpt>
      <trkpt lat="49.93431" lon="4.23441">
        <ele>288</ele>
        <time>2024-04-01T08:35:31Z</time>
      </trkpt>
      <trkpt lat="49.93425" lon="4.23439">
        <ele>287.8</ele>
        <time>2024-04-01T08:35:32Z</time>
      </trkpt>
      <trkpt lat="49.93417" lon="4.23437">
        <ele>287.8</ele>
        <time>2024-04-01T08:35:33Z</time>
      </trkpt>
      <trkpt lat="49.9341" lon="4.23434">
        <ele>287.8</ele>
        <time>2024-04-01T08:35:34Z</time>
      </trkpt>
      <trkpt lat="49.93404" lon="4.23431">
        <ele>287.8</ele>
        <time>2024-04-01T08:35:35Z</time>
      </trkpt>
      <trkpt lat="49.93398" lon="4.23428">
        <ele>287.6</ele>
        <time>2024-04-01T08:35:36Z</time>
      </trkpt>
      <trkpt lat="49.93391" lon="4.23425">
        <ele>287.8</ele>
        <time>2024-04-01T08:35:37Z</time>
      </trkpt>
      <trkpt lat="49.93385" lon="4.23422">
        <ele>287.6</ele>
        <time>2024-04-01T08:35:38Z</time>
      </trkpt>
      <trkpt lat="49.93378" lon="4.23419">
        <ele>287.6</ele>
        <time>2024-04-01T08:35:39Z</time>
      </trkpt>
      <trkpt lat="49.9337" lon="4.23416">
        <ele>287.6</ele>
        <time>2024-04-01T08:35:40Z</time>
      </trkpt>
      <trkpt lat="49.93362" lon="4.23413">
        <ele>287.8</ele>
        <time>2024-04-01T08:35:41Z</time>
      </trkpt>
      <trkpt lat="49.93355" lon="4.23411">
        <ele>287.8</ele>
        <time>2024-04-01T08:35:42Z</time>
      </trkpt>
      <trkpt lat="49.93349" lon="4.23408">
        <ele>288</ele>
        <time>2024-04-01T08:35:43Z</time>
      </trkpt>
      <trkpt lat="49.93343" lon="4.23406">
        <ele>287.8</ele>
        <time>2024-04-01T08:35:44Z</time>
      </trkpt>
      <trkpt lat="49.93338" lon="4.23404">
        <ele>287.8</ele>
        <time>2024-04-01T08:35:45Z</time>
      </trkpt>
      <trkpt lat="49.93332" lon="4.23402">
        <ele>287.8</ele>
        <time>2024-04-01T08:35:46Z</time>
      </trkpt>
      <trkpt lat="49.93326" lon="4.234">
        <ele>287.8</ele>
        <time>2024-04-01T08:35:47Z</time>
      </trkpt>
      <trkpt lat="49.9332" lon="4.23397">
        <ele>288</ele>
        <time>2024-04-01T08:35:48Z</time>
      </trkpt>
      <trkpt lat="49.93314" lon="4.23395">
        <ele>287.8</ele>
        <time>2024-04-01T08:35:49Z</time>
      </trkpt>
      <trkpt lat="49.93307" lon="4.23393">
        <ele>287.8</ele>
        <time>2024-04-01T08:35:50Z</time>
      </trkpt>
      <trkpt lat="49.93301" lon="4.23391">
        <ele>287.8</ele>
        <time>2024-04-01T08:35:51Z</time>
      </trkpt>
      <trkpt lat="49.93294" lon="4.23389">
        <ele>288</ele>
        <time>2024-04-01T08:35:52Z</time>
      </trkpt>
      <trkpt lat="49.93288" lon="4.23387">
        <ele>287.8</ele>
        <time>2024-04-01T08:35:53Z</time>
      </trkpt>
      <trkpt lat="49.93281" lon="4.23385">
        <ele>287.8</ele>
        <time>2024-04-01T08:35:54Z</time>
      </trkpt>
      <trkpt lat="49.93274" lon="4.23382">
        <ele>287.8</ele>
        <time>2024-04-01T08:35:55Z</time>
      </trkpt>
      <trkpt lat="49.93268" lon="4.2338">
        <ele>288</ele>
        <time>2024-04-01T08:35:56Z</time>
      </trkpt>
      <trkpt lat="49.93261" lon="4.23377">
        <ele>288</ele>
        <time>2024-04-01T08:35:57Z</time>
      </trkpt>
      <trkpt lat="49.93254" lon="4.23375">
        <ele>288</ele>
        <time>2024-04-01T08:35:58Z</time>
      </trkpt>
      <trkpt lat="49.93248" lon="4.23372">
        <ele>288</ele>
        <time>2024-04-01T08:35:59Z</time>
      </trkpt>
      <trkpt lat="49.93241" lon="4.2337">
        <ele>288</ele>
        <time>2024-04-01T08:36:00Z</time>
      </trkpt>
      <trkpt lat="49.93235" lon="4.23367">
        <ele>287.8</ele>
        <time>2024-04-01T08:36:01Z</time>
      </trkpt>
      <trkpt lat="49.93228" lon="4.23365">
        <ele>287.8</ele>
        <time>2024-04-01T08:36:02Z</time>
      </trkpt>
      <trkpt lat="49.93221" lon="4.23362">
        <ele>288</ele>
        <time>2024-04-01T08:36:03Z</time>
      </trkpt>
      <trkpt lat="49.93214" lon="4.23359">
        <ele>287.8</ele>
        <time>2024-04-01T08:36:04Z</time>
      </trkpt>
      <trkpt lat="49.93207" lon="4.23356">
        <ele>287.8</ele>
        <time>2024-04-01T08:36:05Z</time>
      </trkpt>
      <trkpt lat="49.93199" lon="4.23353">
        <ele>287.8</ele>
        <time>2024-04-01T08:36:06Z</time>
      </trkpt>
      <trkpt lat="49.93193" lon="4.2335">
        <ele>287.6</ele>
        <time>2024-04-01T08:36:07Z</time>
      </trkpt>
      <trkpt lat="49.93186" lon="4.23346">
        <ele>287.4</ele>
        <time>2024-04-01T08:36:08Z</time>
      </trkpt>
      <trkpt lat="49.93179" lon="4.23342">
        <ele>287.2</ele>
        <time>2024-04-01T08:36:09Z</time>
      </trkpt>
      <trkpt lat="49.93173" lon="4.23337">
        <ele>287.4</ele>
        <time>2024-04-01T08:36:10Z</time>
      </trkpt>
      <trkpt lat="49.93166" lon="4.23331">
        <ele>287.4</ele>
        <time>2024-04-01T08:36:11Z</time>
      </trkpt>
      <trkpt lat="49.93161" lon="4.23325">
        <ele>286.8</ele>
        <time>2024-04-01T08:36:12Z</time>
      </trkpt>
      <trkpt lat="49.93155" lon="4.23317">
        <ele>286.6</ele>
        <time>2024-04-01T08:36:13Z</time>
      </trkpt>
      <trkpt lat="49.93149" lon="4.23309">
        <ele>286.4</ele>
        <time>2024-04-01T08:36:14Z</time>
      </trkpt>
      <trkpt lat="49.93144" lon="4.23301">
        <ele>286.4</ele>
        <time>2024-04-01T08:36:15Z</time>
      </trkpt>
      <trkpt lat="49.93139" lon="4.23292">
        <ele>286.2</ele>
        <time>2024-04-01T08:36:16Z</time>
      </trkpt>
      <trkpt lat="49.93135" lon="4.23282">
        <ele>286.2</ele>
        <time>2024-04-01T08:36:17Z</time>
      </trkpt>
      <trkpt lat="49.9313" lon="4.23272">
        <ele>286.2</ele>
        <time>2024-04-01T08:36:18Z</time>
      </trkpt>
      <trkpt lat="49.93125" lon="4.23263">
        <ele>286</ele>
        <time>2024-04-01T08:36:19Z</time>
      </trkpt>
      <trkpt lat="49.93121" lon="4.23253">
        <ele>285.6</ele>
        <time>2024-04-01T08:36:20Z</time>
      </trkpt>
      <trkpt lat="49.93117" lon="4.23243">
        <ele>285.6</ele>
        <time>2024-04-01T08:36:21Z</time>
      </trkpt>
      <trkpt lat="49.93112" lon="4.23233">
        <ele>285.2</ele>
        <time>2024-04-01T08:36:22Z</time>
      </trkpt>
      <trkpt lat="49.93108" lon="4.23223">
        <ele>285.2</ele>
        <time>2024-04-01T08:36:23Z</time>
      </trkpt>
      <trkpt lat="49.93103" lon="4.23214">
        <ele>285</ele>
        <time>2024-04-01T08:36:24Z</time>
      </trkpt>
      <trkpt lat="49.93098" lon="4.23204">
        <ele>285</ele>
        <time>2024-04-01T08:36:25Z</time>
      </trkpt>
      <trkpt lat="49.93094" lon="4.23195">
        <ele>284.6</ele>
        <time>2024-04-01T08:36:26Z</time>
      </trkpt>
      <trkpt lat="49.93089" lon="4.23185">
        <ele>284.4</ele>
        <time>2024-04-01T08:36:27Z</time>
      </trkpt>
      <trkpt lat="49.93084" lon="4.23176">
        <ele>284</ele>
        <time>2024-04-01T08:36:28Z</time>
      </trkpt>
      <trkpt lat="49.9308" lon="4.23167">
        <ele>283.6</ele>
        <time>2024-04-01T08:36:29Z</time>
      </trkpt>
      <trkpt lat="49.93075" lon="4.23158">
        <ele>283.6</ele>
        <time>2024-04-01T08:36:30Z</time>
      </trkpt>
      <trkpt lat="49.93069" lon="4.23149">
        <ele>283.4</ele>
        <time>2024-04-01T08:36:31Z</time>
      </trkpt>
      <trkpt lat="49.93064" lon="4.2314">
        <ele>283.4</ele>
        <time>2024-04-01T08:36:32Z</time>
      </trkpt>
      <trkpt lat="49.93059" lon="4.23132">
        <ele>283.4</ele>
        <time>2024-04-01T08:36:33Z</time>
      </trkpt>
      <trkpt lat="49.93053" lon="4.23123">
        <ele>283.2</ele>
        <time>2024-04-01T08:36:34Z</time>
      </trkpt>
      <trkpt lat="49.93048" lon="4.23114">
        <ele>283.2</ele>
        <time>2024-04-01T08:36:35Z</time>
      </trkpt>
      <trkpt lat="49.93043" lon="4.23105">
        <ele>283</ele>
        <time>2024-04-01T08:36:36Z</time>
      </trkpt>
      <trkpt lat="49.93038" lon="4.23097">
        <ele>283</ele>
        <time>2024-04-01T08:36:37Z</time>
      </trkpt>
      <trkpt lat="49.93033" lon="4.23088">
        <ele>282.6</ele>
        <time>2024-04-01T08:36:38Z</time>
      </trkpt>
      <trkpt lat="49.93028" lon="4.23079">
        <ele>282</ele>
        <time>2024-04-01T08:36:39Z</time>
      </trkpt>
      <trkpt lat="49.93023" lon="4.23071">
        <ele>281.6</ele>
        <time>2024-04-01T08:36:40Z</time>
      </trkpt>
      <trkpt lat="49.93018" lon="4.23062">
        <ele>281.4</ele>
        <time>2024-04-01T08:36:41Z</time>
      </trkpt>
      <trkpt lat="49.93014" lon="4.23054">
        <ele>281.2</ele>
        <time>2024-04-01T08:36:42Z</time>
      </trkpt>
      <trkpt lat="49.93009" lon="4.23045">
        <ele>281</ele>
        <time>2024-04-01T08:36:43Z</time>
      </trkpt>
      <trkpt lat="49.93004" lon="4.23037">
        <ele>281</ele>
        <time>2024-04-01T08:36:44Z</time>
      </trkpt>
      <trkpt lat="49.92999" lon="4.23029">
        <ele>280.8</ele>
        <time>2024-04-01T08:36:45Z</time>
      </trkpt>
      <trkpt lat="49.92994" lon="4.23022">
        <ele>281</ele>
        <time>2024-04-01T08:36:46Z</time>
      </trkpt>
      <trkpt lat="49.92989" lon="4.23014">
        <ele>280.8</ele>
        <time>2024-04-01T08:36:47Z</time>
      </trkpt>
      <trkpt lat="49.92983" lon="4.23007">
        <ele>280.6</ele>
        <time>2024-04-01T08:36:48Z</time>
      </trkpt>
      <trkpt lat="49.92978" lon="4.23">
        <ele>280.8</ele>
        <time>2024-04-01T08:36:49Z</time>
      </trkpt>
      <trkpt lat="49.92972" lon="4.22993">
        <ele>280.8</ele>
        <time>2024-04-01T08:36:50Z</time>
      </trkpt>
      <trkpt lat="49.92967" lon="4.22986">
        <ele>280.8</ele>
        <time>2024-04-01T08:36:51Z</time>
      </trkpt>
      <trkpt lat="49.92961" lon="4.22979">
        <ele>280.8</ele>
        <time>2024-04-01T08:36:52Z</time>
      </trkpt>
      <trkpt lat="49.92955" lon="4.22973">
        <ele>280.6</ele>
        <time>2024-04-01T08:36:53Z</time>
      </trkpt>
      <trkpt lat="49.92949" lon="4.22967">
        <ele>280.6</ele>
        <time>2024-04-01T08:36:54Z</time>
      </trkpt>
      <trkpt lat="49.92943" lon="4.22961">
        <ele>280.8</ele>
        <time>2024-04-01T08:36:55Z</time>
      </trkpt>
      <trkpt lat="49.92937" lon="4.22955">
        <ele>280.8</ele>
        <time>2024-04-01T08:36:56Z</time>
      </trkpt>
      <trkpt lat="49.92931" lon="4.22949">
        <ele>280.6</ele>
        <time>2024-04-01T08:36:57Z</time>
      </trkpt>
      <trkpt lat="49.92925" lon="4.22942">
        <ele>280.6</ele>
        <time>2024-04-01T08:36:58Z</time>
      </trkpt>
      <trkpt lat="49.92919" lon="4.22937">
        <ele>280.4</ele>
        <time>2024-04-01T08:36:59Z</time>
      </trkpt>
      <trkpt lat="49.92913" lon="4.22931">
        <ele>280.4</ele>
        <time>2024-04-01T08:37:00Z</time>
      </trkpt>
      <trkpt lat="49.92906" lon="4.22925">
        <ele>280.4</ele>
        <time>2024-04-01T08:37:01Z</time>
      </trkpt>
      <trkpt lat="49.929" lon="4.2292">
        <ele>280.6</ele>
        <time>2024-04-01T08:37:02Z</time>
      </trkpt>
      <trkpt lat="49.92894" lon="4.22914">
        <ele>280.6</ele>
        <time>2024-04-01T08:37:03Z</time>
      </trkpt>
      <trkpt lat="49.92888" lon="4.22909">
        <ele>280.6</ele>
        <time>2024-04-01T08:37:04Z</time>
      </trkpt>
      <trkpt lat="49.92881" lon="4.22904">
        <ele>280.8</ele>
        <time>2024-04-01T08:37:05Z</time>
      </trkpt>
      <trkpt lat="49.92875" lon="4.229">
        <ele>280.8</ele>
        <time>2024-04-01T08:37:06Z</time>
      </trkpt>
      <trkpt lat="49.92868" lon="4.22895">
        <ele>280.8</ele>
        <time>2024-04-01T08:37:07Z</time>
      </trkpt>
      <trkpt lat="49.92862" lon="4.22891">
        <ele>280.8</ele>
        <time>2024-04-01T08:37:08Z</time>
      </trkpt>
      <trkpt lat="49.92855" lon="4.22887">
        <ele>280.8</ele>
        <time>2024-04-01T08:37:09Z</time>
      </trkpt>
      <trkpt lat="49.92849" lon="4.22884">
        <ele>280.8</ele>
        <time>2024-04-01T08:37:10Z</time>
      </trkpt>
      <trkpt lat="49.92842" lon="4.22881">
        <ele>281</ele>
        <time>2024-04-01T08:37:11Z</time>
      </trkpt>
      <trkpt lat="49.92835" lon="4.22877">
        <ele>281</ele>
        <time>2024-04-01T08:37:12Z</time>
      </trkpt>
      <trkpt lat="49.92828" lon="4.22874">
        <ele>281</ele>
        <time>2024-04-01T08:37:13Z</time>
      </trkpt>
      <trkpt lat="49.92821" lon="4.22871">
        <ele>280.8</ele>
        <time>2024-04-01T08:37:14Z</time>
      </trkpt>
      <trkpt lat="49.92814" lon="4.22867">
        <ele>280.8</ele>
        <time>2024-04-01T08:37:15Z</time>
      </trkpt>
      <trkpt lat="49.92807" lon="4.22864">
        <ele>280.8</ele>
        <time>2024-04-01T08:37:16Z</time>
      </trkpt>
      <trkpt lat="49.928" lon="4.22861">
        <ele>280.8</ele>
        <time>2024-04-01T08:37:17Z</time>
      </trkpt>
      <trkpt lat="49.92792" lon="4.22859">
        <ele>280.8</ele>
        <time>2024-04-01T08:37:18Z</time>
      </trkpt>
      <trkpt lat="49.92785" lon="4.22857">
        <ele>280.8</ele>
        <time>2024-04-01T08:37:19Z</time>
      </trkpt>
      <trkpt lat="49.92777" lon="4.22855">
        <ele>280.8</ele>
        <time>2024-04-01T08:37:20Z</time>
      </trkpt>
      <trkpt lat="49.9277" lon="4.22854">
        <ele>280.6</ele>
        <time>2024-04-01T08:37:21Z</time>
      </trkpt>
      <trkpt lat="49.92762" lon="4.22853">
        <ele>280.6</ele>
        <time>2024-04-01T08:37:22Z</time>
      </trkpt>
      <trkpt lat="49.92754" lon="4.22853">
        <ele>280.8</ele>
        <time>2024-04-01T08:37:23Z</time>
      </trkpt>
      <trkpt lat="49.92746" lon="4.22853">
        <ele>280.6</ele>
        <time>2024-04-01T08:37:24Z</time>
      </trkpt>
      <trkpt lat="49.92739" lon="4.22855">
        <ele>280.6</ele>
        <time>2024-04-01T08:37:25Z</time>
      </trkpt>
      <trkpt lat="49.92731" lon="4.22856">
        <ele>280.4</ele>
        <time>2024-04-01T08:37:26Z</time>
      </trkpt>
      <trkpt lat="49.92723" lon="4.22858">
        <ele>280.2</ele>
        <time>2024-04-01T08:37:27Z</time>
      </trkpt>
      <trkpt lat="49.92715" lon="4.22861">
        <ele>280.2</ele>
        <time>2024-04-01T08:37:28Z</time>
      </trkpt>
      <trkpt lat="49.92708" lon="4.22864">
        <ele>280</ele>
        <time>2024-04-01T08:37:29Z</time>
      </trkpt>
      <trkpt lat="49.927" lon="4.22868">
        <ele>279.6</ele>
        <time>2024-04-01T08:37:30Z</time>
      </trkpt>
      <trkpt lat="49.92693" lon="4.22873">
        <ele>279.6</ele>
        <time>2024-04-01T08:37:31Z</time>
      </trkpt>
      <trkpt lat="49.92685" lon="4.22878">
        <ele>279.4</ele>
        <time>2024-04-01T08:37:32Z</time>
      </trkpt>
      <trkpt lat="49.92678" lon="4.22884">
        <ele>279</ele>
        <time>2024-04-01T08:37:33Z</time>
      </trkpt>
      <trkpt lat="49.92671" lon="4.22889">
        <ele>278.8</ele>
        <time>2024-04-01T08:37:34Z</time>
      </trkpt>
      <trkpt lat="49.92664" lon="4.22895">
        <ele>278.4</ele>
        <time>2024-04-01T08:37:35Z</time>
      </trkpt>
      <trkpt lat="49.92657" lon="4.22901">
        <ele>278.2</ele>
        <time>2024-04-01T08:37:36Z</time>
      </trkpt>
      <trkpt lat="49.9265" lon="4.22908">
        <ele>278</ele>
        <time>2024-04-01T08:37:37Z</time>
      </trkpt>
      <trkpt lat="49.92643" lon="4.22914">
        <ele>277.8</ele>
        <time>2024-04-01T08:37:38Z</time>
      </trkpt>
      <trkpt lat="49.92636" lon="4.2292">
        <ele>277.8</ele>
        <time>2024-04-01T08:37:39Z</time>
      </trkpt>
      <trkpt lat="49.92629" lon="4.22926">
        <ele>277.6</ele>
        <time>2024-04-01T08:37:40Z</time>
      </trkpt>
      <trkpt lat="49.92622" lon="4.22932">
        <ele>276.8</ele>
        <time>2024-04-01T08:37:41Z</time>
      </trkpt>
      <trkpt lat="49.92615" lon="4.22938">
        <ele>276.6</ele>
        <time>2024-04-01T08:37:42Z</time>
      </trkpt>
      <trkpt lat="49.92608" lon="4.22944">
        <ele>276.4</ele>
        <time>2024-04-01T08:37:43Z</time>
      </trkpt>
      <trkpt lat="49.92601" lon="4.2295">
        <ele>276.2</ele>
        <time>2024-04-01T08:37:44Z</time>
      </trkpt>
      <trkpt lat="49.92594" lon="4.22955">
        <ele>276.2</ele>
        <time>2024-04-01T08:37:45Z</time>
      </trkpt>
      <trkpt lat="49.92586" lon="4.22959">
        <ele>276</ele>
        <time>2024-04-01T08:37:46Z</time>
      </trkpt>
      <trkpt lat="49.92578" lon="4.22962">
        <ele>276</ele>
        <time>2024-04-01T08:37:47Z</time>
      </trkpt>
      <trkpt lat="49.9257" lon="4.22963">
        <ele>275.6</ele>
        <time>2024-04-01T08:37:48Z</time>
      </trkpt>
      <trkpt lat="49.92562" lon="4.22964">
        <ele>275.4</ele>
        <time>2024-04-01T08:37:49Z</time>
      </trkpt>
      <trkpt lat="49.92554" lon="4.22964">
        <ele>275.4</ele>
        <time>2024-04-01T08:37:50Z</time>
      </trkpt>
      <trkpt lat="49.92546" lon="4.22964">
        <ele>275.2</ele>
        <time>2024-04-01T08:37:51Z</time>
      </trkpt>
      <trkpt lat="49.92539" lon="4.22964">
        <ele>275</ele>
        <time>2024-04-01T08:37:52Z</time>
      </trkpt>
      <trkpt lat="49.92531" lon="4.22963">
        <ele>275</ele>
        <time>2024-04-01T08:37:53Z</time>
      </trkpt>
      <trkpt lat="49.92523" lon="4.22963">
        <ele>275</ele>
        <time>2024-04-01T08:37:54Z</time>
      </trkpt>
      <trkpt lat="49.92515" lon="4.22962">
        <ele>275</ele>
        <time>2024-04-01T08:37:55Z</time>
      </trkpt>
      <trkpt lat="49.92507" lon="4.22961">
        <ele>274.8</ele>
        <time>2024-04-01T08:37:56Z</time>
      </trkpt>
      <trkpt lat="49.925" lon="4.22961">
        <ele>274.8</ele>
        <time>2024-04-01T08:37:57Z</time>
      </trkpt>
      <trkpt lat="49.92492" lon="4.2296">
        <ele>274.8</ele>
        <time>2024-04-01T08:37:58Z</time>
      </trkpt>
      <trkpt lat="49.92484" lon="4.2296">
        <ele>274.8</ele>
        <time>2024-04-01T08:37:59Z</time>
      </trkpt>
      <trkpt lat="49.92476" lon="4.22959">
        <ele>274.4</ele>
        <time>2024-04-01T08:38:00Z</time>
      </trkpt>
      <trkpt lat="49.92467" lon="4.22959">
        <ele>274.2</ele>
        <time>2024-04-01T08:38:01Z</time>
      </trkpt>
      <trkpt lat="49.92458" lon="4.22958">
        <ele>274.2</ele>
        <time>2024-04-01T08:38:02Z</time>
      </trkpt>
      <trkpt lat="49.92449" lon="4.22958">
        <ele>273.6</ele>
        <time>2024-04-01T08:38:03Z</time>
      </trkpt>
      <trkpt lat="49.9244" lon="4.22957">
        <ele>273.2</ele>
        <time>2024-04-01T08:38:04Z</time>
      </trkpt>
      <trkpt lat="49.92431" lon="4.22957">
        <ele>272.8</ele>
        <time>2024-04-01T08:38:05Z</time>
      </trkpt>
      <trkpt lat="49.92421" lon="4.22957">
        <ele>272.6</ele>
        <time>2024-04-01T08:38:06Z</time>
      </trkpt>
      <trkpt lat="49.92412" lon="4.22957">
        <ele>272.2</ele>
        <time>2024-04-01T08:38:07Z</time>
      </trkpt>
      <trkpt lat="49.92402" lon="4.22957">
        <ele>272</ele>
        <time>2024-04-01T08:38:08Z</time>
      </trkpt>
      <trkpt lat="49.92393" lon="4.22957">
        <ele>271.2</ele>
        <time>2024-04-01T08:38:09Z</time>
      </trkpt>
      <trkpt lat="49.92383" lon="4.22957">
        <ele>269.8</ele>
        <time>2024-04-01T08:38:10Z</time>
      </trkpt>
      <trkpt lat="49.92373" lon="4.22957">
        <ele>269</ele>
        <time>2024-04-01T08:38:11Z</time>
      </trkpt>
      <trkpt lat="49.92362" lon="4.22956">
        <ele>268.2</ele>
        <time>2024-04-01T08:38:12Z</time>
      </trkpt>
      <trkpt lat="49.92352" lon="4.22956">
        <ele>268.2</ele>
        <time>2024-04-01T08:38:13Z</time>
      </trkpt>
      <trkpt lat="49.92342" lon="4.22956">
        <ele>267.8</ele>
        <time>2024-04-01T08:38:14Z</time>
      </trkpt>
      <trkpt lat="49.92331" lon="4.22956">
        <ele>267.4</ele>
        <time>2024-04-01T08:38:15Z</time>
      </trkpt>
      <trkpt lat="49.9232" lon="4.22956">
        <ele>266.8</ele>
        <time>2024-04-01T08:38:16Z</time>
      </trkpt>
      <trkpt lat="49.9231" lon="4.22955">
        <ele>266.2</ele>
        <time>2024-04-01T08:38:17Z</time>
      </trkpt>
      <trkpt lat="49.92299" lon="4.22955">
        <ele>265.6</ele>
        <time>2024-04-01T08:38:18Z</time>
      </trkpt>
      <trkpt lat="49.92287" lon="4.22956">
        <ele>265.2</ele>
        <time>2024-04-01T08:38:19Z</time>
      </trkpt>
      <trkpt lat="49.92277" lon="4.22956">
        <ele>264.2</ele>
        <time>2024-04-01T08:38:20Z</time>
      </trkpt>
      <trkpt lat="49.92266" lon="4.22956">
        <ele>263.4</ele>
        <time>2024-04-01T08:38:21Z</time>
      </trkpt>
      <trkpt lat="49.92255" lon="4.22957">
        <ele>262.6</ele>
        <time>2024-04-01T08:38:22Z</time>
      </trkpt>
      <trkpt lat="49.92244" lon="4.22956">
        <ele>261.8</ele>
        <time>2024-04-01T08:38:23Z</time>
      </trkpt>
      <trkpt lat="49.92233" lon="4.22955">
        <ele>260.4</ele>
        <time>2024-04-01T08:38:24Z</time>
      </trkpt>
      <trkpt lat="49.92222" lon="4.22953">
        <ele>259.6</ele>
        <time>2024-04-01T08:38:25Z</time>
      </trkpt>
      <trkpt lat="49.92211" lon="4.22952">
        <ele>258.8</ele>
        <time>2024-04-01T08:38:26Z</time>
      </trkpt>
      <trkpt lat="49.922" lon="4.2295">
        <ele>258.2</ele>
        <time>2024-04-01T08:38:27Z</time>
      </trkpt>
      <trkpt lat="49.9219" lon="4.22948">
        <ele>257.2</ele>
        <time>2024-04-01T08:38:28Z</time>
      </trkpt>
      <trkpt lat="49.92179" lon="4.22944">
        <ele>256</ele>
        <time>2024-04-01T08:38:29Z</time>
      </trkpt>
      <trkpt lat="49.92169" lon="4.22937">
        <ele>256</ele>
        <time>2024-04-01T08:38:30Z</time>
      </trkpt>
      <trkpt lat="49.92159" lon="4.2293">
        <ele>255</ele>
        <time>2024-04-01T08:38:31Z</time>
      </trkpt>
      <trkpt lat="49.92149" lon="4.22926">
        <ele>254.2</ele>
        <time>2024-04-01T08:38:32Z</time>
      </trkpt>
      <trkpt lat="49.92138" lon="4.22925">
        <ele>253.2</ele>
        <time>2024-04-01T08:38:33Z</time>
      </trkpt>
      <trkpt lat="49.92127" lon="4.22927">
        <ele>252</ele>
        <time>2024-04-01T08:38:34Z</time>
      </trkpt>
      <trkpt lat="49.92116" lon="4.22932">
        <ele>251.2</ele>
        <time>2024-04-01T08:38:35Z</time>
      </trkpt>
      <trkpt lat="49.92104" lon="4.22938">
        <ele>250.8</ele>
        <time>2024-04-01T08:38:36Z</time>
      </trkpt>
      <trkpt lat="49.92093" lon="4.22945">
        <ele>249.4</ele>
        <time>2024-04-01T08:38:37Z</time>
      </trkpt>
      <trkpt lat="49.92082" lon="4.22951">
        <ele>248</ele>
        <time>2024-04-01T08:38:38Z</time>
      </trkpt>
      <trkpt lat="49.9207" lon="4.22958">
        <ele>247</ele>
        <time>2024-04-01T08:38:39Z</time>
      </trkpt>
      <trkpt lat="49.92059" lon="4.22965">
        <ele>246.4</ele>
        <time>2024-04-01T08:38:40Z</time>
      </trkpt>
      <trkpt lat="49.92048" lon="4.22972">
        <ele>245.4</ele>
        <time>2024-04-01T08:38:41Z</time>
      </trkpt>
      <trkpt lat="49.92037" lon="4.2298">
        <ele>244.6</ele>
        <time>2024-04-01T08:38:42Z</time>
      </trkpt>
      <trkpt lat="49.92026" lon="4.22986">
        <ele>244.2</ele>
        <time>2024-04-01T08:38:43Z</time>
      </trkpt>
      <trkpt lat="49.92016" lon="4.22992">
        <ele>243.4</ele>
        <time>2024-04-01T08:38:44Z</time>
      </trkpt>
      <trkpt lat="49.92006" lon="4.22997">
        <ele>243.4</ele>
        <time>2024-04-01T08:38:45Z</time>
      </trkpt>
      <trkpt lat="49.91997" lon="4.22999">
        <ele>242.2</ele>
        <time>2024-04-01T08:38:46Z</time>
      </trkpt>
      <trkpt lat="49.91987" lon="4.22997">
        <ele>240.4</ele>
        <time>2024-04-01T08:38:47Z</time>
      </trkpt>
      <trkpt lat="49.91978" lon="4.22993">
        <ele>238.2</ele>
        <time>2024-04-01T08:38:48Z</time>
      </trkpt>
      <trkpt lat="49.9197" lon="4.22989">
        <ele>236.6</ele>
        <time>2024-04-01T08:38:49Z</time>
      </trkpt>
      <trkpt lat="49.91962" lon="4.22983">
        <ele>235.4</ele>
        <time>2024-04-01T08:38:50Z</time>
      </trkpt>
      <trkpt lat="49.91954" lon="4.22977">
        <ele>234</ele>
        <time>2024-04-01T08:38:51Z</time>
      </trkpt>
      <trkpt lat="49.91946" lon="4.22971">
        <ele>233.4</ele>
        <time>2024-04-01T08:38:52Z</time>
      </trkpt>
      <trkpt lat="49.91939" lon="4.22965">
        <ele>233.2</ele>
        <time>2024-04-01T08:38:53Z</time>
      </trkpt>
      <trkpt lat="49.91932" lon="4.22959">
        <ele>233</ele>
        <time>2024-04-01T08:38:54Z</time>
      </trkpt>
      <trkpt lat="49.91925" lon="4.22953">
        <ele>233</ele>
        <time>2024-04-01T08:38:55Z</time>
      </trkpt>
      <trkpt lat="49.91919" lon="4.22947">
        <ele>233</ele>
        <time>2024-04-01T08:38:56Z</time>
      </trkpt>
      <trkpt lat="49.91913" lon="4.22941">
        <ele>233</ele>
        <time>2024-04-01T08:38:57Z</time>
      </trkpt>
      <trkpt lat="49.91907" lon="4.22935">
        <ele>233</ele>
        <time>2024-04-01T08:38:58Z</time>
      </trkpt>
      <trkpt lat="49.91901" lon="4.22928">
        <ele>232.8</ele>
        <time>2024-04-01T08:38:59Z</time>
      </trkpt>
      <trkpt lat="49.91896" lon="4.22921">
        <ele>232.8</ele>
        <time>2024-04-01T08:39:00Z</time>
      </trkpt>
      <trkpt lat="49.91892" lon="4.22914">
        <ele>233</ele>
        <time>2024-04-01T08:39:01Z</time>
      </trkpt>
      <trkpt lat="49.91887" lon="4.22907">
        <ele>233</ele>
        <time>2024-04-01T08:39:02Z</time>
      </trkpt>
      <trkpt lat="49.91882" lon="4.22901">
        <ele>233.2</ele>
        <time>2024-04-01T08:39:03Z</time>
      </trkpt>
      <trkpt lat="49.91877" lon="4.22894">
        <ele>233.6</ele>
        <time>2024-04-01T08:39:04Z</time>
      </trkpt>
      <trkpt lat="49.91873" lon="4.22887">
        <ele>234</ele>
        <time>2024-04-01T08:39:05Z</time>
      </trkpt>
      <trkpt lat="49.91868" lon="4.2288">
        <ele>234.6</ele>
        <time>2024-04-01T08:39:06Z</time>
      </trkpt>
      <trkpt lat="49.91863" lon="4.22873">
        <ele>235.2</ele>
        <time>2024-04-01T08:39:07Z</time>
      </trkpt>
      <trkpt lat="49.91858" lon="4.22867">
        <ele>235.6</ele>
        <time>2024-04-01T08:39:08Z</time>
      </trkpt>
      <trkpt lat="49.91853" lon="4.22862">
        <ele>236</ele>
        <time>2024-04-01T08:39:09Z</time>
      </trkpt>
      <trkpt lat="49.91847" lon="4.22856">
        <ele>236.4</ele>
        <time>2024-04-01T08:39:10Z</time>
      </trkpt>
      <trkpt lat="49.91842" lon="4.2285">
        <ele>236.6</ele>
        <time>2024-04-01T08:39:11Z</time>
      </trkpt>
      <trkpt lat="49.91836" lon="4.22845">
        <ele>236.8</ele>
        <time>2024-04-01T08:39:12Z</time>
      </trkpt>
      <trkpt lat="49.9183" lon="4.2284">
        <ele>237.4</ele>
        <time>2024-04-01T08:39:13Z</time>
      </trkpt>
      <trkpt lat="49.91824" lon="4.22835">
        <ele>237.4</ele>
        <time>2024-04-01T08:39:14Z</time>
      </trkpt>
      <trkpt lat="49.91818" lon="4.2283">
        <ele>237.6</ele>
        <time>2024-04-01T08:39:15Z</time>
      </trkpt>
      <trkpt lat="49.91812" lon="4.22825">
        <ele>237.8</ele>
        <time>2024-04-01T08:39:16Z</time>
      </trkpt>
      <trkpt lat="49.91805" lon="4.22821">
        <ele>238.2</ele>
        <time>2024-04-01T08:39:17Z</time>
      </trkpt>
      <trkpt lat="49.91799" lon="4.22817">
        <ele>238.2</ele>
        <time>2024-04-01T08:39:18Z</time>
      </trkpt>
      <trkpt lat="49.91793" lon="4.22813">
        <ele>238.2</ele>
        <time>2024-04-01T08:39:19Z</time>
      </trkpt>
      <trkpt lat="49.91786" lon="4.2281">
        <ele>238.2</ele>
        <time>2024-04-01T08:39:20Z</time>
      </trkpt>
      <trkpt lat="49.91779" lon="4.22807">
        <ele>238.2</ele>
        <time>2024-04-01T08:39:21Z</time>
      </trkpt>
      <trkpt lat="49.91772" lon="4.22804">
        <ele>238.4</ele>
        <time>2024-04-01T08:39:22Z</time>
      </trkpt>
      <trkpt lat="49.91765" lon="4.22801">
        <ele>238.2</ele>
        <time>2024-04-01T08:39:23Z</time>
      </trkpt>
      <trkpt lat="49.91759" lon="4.22799">
        <ele>238.4</ele>
        <time>2024-04-01T08:39:24Z</time>
      </trkpt>
      <trkpt lat="49.91752" lon="4.22797">
        <ele>238.4</ele>
        <time>2024-04-01T08:39:25Z</time>
      </trkpt>
      <trkpt lat="49.91745" lon="4.22794">
        <ele>238.4</ele>
        <time>2024-04-01T08:39:26Z</time>
      </trkpt>
      <trkpt lat="49.91739" lon="4.22793">
        <ele>238.4</ele>
        <time>2024-04-01T08:39:27Z</time>
      </trkpt>
      <trkpt lat="49.91733" lon="4.22792">
        <ele>238.4</ele>
        <time>2024-04-01T08:39:28Z</time>
      </trkpt>
      <trkpt lat="49.91726" lon="4.22791">
        <ele>238.4</ele>
        <time>2024-04-01T08:39:29Z</time>
      </trkpt>
      <trkpt lat="49.9172" lon="4.22791">
        <ele>238.4</ele>
        <time>2024-04-01T08:39:30Z</time>
      </trkpt>
      <trkpt lat="49.91713" lon="4.22792">
        <ele>238.2</ele>
        <time>2024-04-01T08:39:31Z</time>
      </trkpt>
      <trkpt lat="49.91707" lon="4.22794">
        <ele>238.4</ele>
        <time>2024-04-01T08:39:32Z</time>
      </trkpt>
      <trkpt lat="49.917" lon="4.22795">
        <ele>238.2</ele>
        <time>2024-04-01T08:39:33Z</time>
      </trkpt>
      <trkpt lat="49.91693" lon="4.22797">
        <ele>238.2</ele>
        <time>2024-04-01T08:39:34Z</time>
      </trkpt>
      <trkpt lat="49.91687" lon="4.22799">
        <ele>238</ele>
        <time>2024-04-01T08:39:35Z</time>
      </trkpt>
      <trkpt lat="49.9168" lon="4.228">
        <ele>237.8</ele>
        <time>2024-04-01T08:39:36Z</time>
      </trkpt>
      <trkpt lat="49.91674" lon="4.22802">
        <ele>237.8</ele>
        <time>2024-04-01T08:39:37Z</time>
      </trkpt>
      <trkpt lat="49.91668" lon="4.22803">
        <ele>237.8</ele>
        <time>2024-04-01T08:39:38Z</time>
      </trkpt>
      <trkpt lat="49.91661" lon="4.22804">
        <ele>237.6</ele>
        <time>2024-04-01T08:39:39Z</time>
      </trkpt>
      <trkpt lat="49.91655" lon="4.22805">
        <ele>237.8</ele>
        <time>2024-04-01T08:39:40Z</time>
      </trkpt>
      <trkpt lat="49.91648" lon="4.22806">
        <ele>237.8</ele>
        <time>2024-04-01T08:39:41Z</time>
      </trkpt>
      <trkpt lat="49.91642" lon="4.22807">
        <ele>238</ele>
        <time>2024-04-01T08:39:42Z</time>
      </trkpt>
      <trkpt lat="49.91635" lon="4.22807">
        <ele>238</ele>
        <time>2024-04-01T08:39:43Z</time>
      </trkpt>
      <trkpt lat="49.91629" lon="4.22808">
        <ele>238</ele>
        <time>2024-04-01T08:39:44Z</time>
      </trkpt>
      <trkpt lat="49.91622" lon="4.22808">
        <ele>238</ele>
        <time>2024-04-01T08:39:45Z</time>
      </trkpt>
      <trkpt lat="49.91616" lon="4.22809">
        <ele>237.8</ele>
        <time>2024-04-01T08:39:46Z</time>
      </trkpt>
      <trkpt lat="49.91609" lon="4.2281">
        <ele>237.6</ele>
        <time>2024-04-01T08:39:47Z</time>
      </trkpt>
      <trkpt lat="49.91603" lon="4.2281">
        <ele>237.6</ele>
        <time>2024-04-01T08:39:48Z</time>
      </trkpt>
      <trkpt lat="49.91596" lon="4.22811">
        <ele>237.6</ele>
        <time>2024-04-01T08:39:49Z</time>
      </trkpt>
      <trkpt lat="49.9159" lon="4.22811">
        <ele>237.8</ele>
        <time>2024-04-01T08:39:50Z</time>
      </trkpt>
      <trkpt lat="49.91583" lon="4.22812">
        <ele>237.8</ele>
        <time>2024-04-01T08:39:51Z</time>
      </trkpt>
      <trkpt lat="49.91577" lon="4.22813">
        <ele>237.8</ele>
        <time>2024-04-01T08:39:52Z</time>
      </trkpt>
      <trkpt lat="49.91571" lon="4.22814">
        <ele>237.8</ele>
        <time>2024-04-01T08:39:53Z</time>
      </trkpt>
      <trkpt lat="49.91564" lon="4.22815">
        <ele>237.6</ele>
        <time>2024-04-01T08:39:54Z</time>
      </trkpt>
      <trkpt lat="49.91558" lon="4.22816">
        <ele>237.8</ele>
        <time>2024-04-01T08:39:55Z</time>
      </trkpt>
      <trkpt lat="49.91552" lon="4.22817">
        <ele>237.8</ele>
        <time>2024-04-01T08:39:56Z</time>
      </trkpt>
      <trkpt lat="49.91545" lon="4.22818">
        <ele>237.6</ele>
        <time>2024-04-01T08:39:57Z</time>
      </trkpt>
      <trkpt lat="49.91539" lon="4.22819">
        <ele>237.8</ele>
        <time>2024-04-01T08:39:58Z</time>
      </trkpt>
      <trkpt lat="49.91533" lon="4.2282">
        <ele>238</ele>
        <time>2024-04-01T08:39:59Z</time>
      </trkpt>
      <trkpt lat="49.91527" lon="4.22821">
        <ele>238</ele>
        <time>2024-04-01T08:40:00Z</time>
      </trkpt>
      <trkpt lat="49.91521" lon="4.22821">
        <ele>238.2</ele>
        <time>2024-04-01T08:40:01Z</time>
      </trkpt>
      <trkpt lat="49.91514" lon="4.2282">
        <ele>238.2</ele>
        <time>2024-04-01T08:40:02Z</time>
      </trkpt>
      <trkpt lat="49.91508" lon="4.22819">
        <ele>238.2</ele>
        <time>2024-04-01T08:40:03Z</time>
      </trkpt>
      <trkpt lat="49.91502" lon="4.22817">
        <ele>238.4</ele>
        <time>2024-04-01T08:40:04Z</time>
      </trkpt>
      <trkpt lat="49.91495" lon="4.22815">
        <ele>238.4</ele>
        <time>2024-04-01T08:40:05Z</time>
      </trkpt>
      <trkpt lat="49.91489" lon="4.22812">
        <ele>238.6</ele>
        <time>2024-04-01T08:40:06Z</time>
      </trkpt>
      <trkpt lat="49.91482" lon="4.22809">
        <ele>238.8</ele>
        <time>2024-04-01T08:40:07Z</time>
      </trkpt>
      <trkpt lat="49.91476" lon="4.22805">
        <ele>238.8</ele>
        <time>2024-04-01T08:40:08Z</time>
      </trkpt>
      <trkpt lat="49.9147" lon="4.22802">
        <ele>238.8</ele>
        <time>2024-04-01T08:40:09Z</time>
      </trkpt>
      <trkpt lat="49.91464" lon="4.22799">
        <ele>239</ele>
        <time>2024-04-01T08:40:10Z</time>
      </trkpt>
      <trkpt lat="49.91458" lon="4.22795">
        <ele>239</ele>
        <time>2024-04-01T08:40:11Z</time>
      </trkpt>
      <trkpt lat="49.91452" lon="4.22792">
        <ele>239.2</ele>
        <time>2024-04-01T08:40:12Z</time>
      </trkpt>
      <trkpt lat="49.91446" lon="4.22789">
        <ele>239.2</ele>
        <time>2024-04-01T08:40:13Z</time>
      </trkpt>
      <trkpt lat="49.9144" lon="4.22786">
        <ele>239.2</ele>
        <time>2024-04-01T08:40:14Z</time>
      </trkpt>
      <trkpt lat="49.91434" lon="4.22783">
        <ele>239.4</ele>
        <time>2024-04-01T08:40:15Z</time>
      </trkpt>
      <trkpt lat="49.91428" lon="4.2278">
        <ele>239.6</ele>
        <time>2024-04-01T08:40:16Z</time>
      </trkpt>
      <trkpt lat="49.91422" lon="4.22777">
        <ele>239.6</ele>
        <time>2024-04-01T08:40:17Z</time>
      </trkpt>
      <trkpt lat="49.91416" lon="4.22774">
        <ele>239.8</ele>
        <time>2024-04-01T08:40:18Z</time>
      </trkpt>
      <trkpt lat="49.9141" lon="4.2277">
        <ele>239.8</ele>
        <time>2024-04-01T08:40:19Z</time>
      </trkpt>
      <trkpt lat="49.91405" lon="4.22767">
        <ele>240.2</ele>
        <time>2024-04-01T08:40:20Z</time>
      </trkpt>
      <trkpt lat="49.91399" lon="4.22763">
        <ele>240.2</ele>
        <time>2024-04-01T08:40:21Z</time>
      </trkpt>
      <trkpt lat="49.91395" lon="4.22759">
        <ele>240.2</ele>
        <time>2024-04-01T08:40:22Z</time>
      </trkpt>
      <trkpt lat="49.9139" lon="4.22755">
        <ele>240.4</ele>
        <time>2024-04-01T08:40:23Z</time>
      </trkpt>
      <trkpt lat="49.91385" lon="4.2275">
        <ele>240.8</ele>
        <time>2024-04-01T08:40:24Z</time>
      </trkpt>
      <trkpt lat="49.91381" lon="4.22746">
        <ele>241</ele>
        <time>2024-04-01T08:40:25Z</time>
      </trkpt>
      <trkpt lat="49.91376" lon="4.22741">
        <ele>241.4</ele>
        <time>2024-04-01T08:40:26Z</time>
      </trkpt>
      <trkpt lat="49.91372" lon="4.22737">
        <ele>241.6</ele>
        <time>2024-04-01T08:40:27Z</time>
      </trkpt>
      <trkpt lat="49.91369" lon="4.22733">
        <ele>241.6</ele>
        <time>2024-04-01T08:40:28Z</time>
      </trkpt>
      <trkpt lat="49.91365" lon="4.2273">
        <ele>242</ele>
        <time>2024-04-01T08:40:29Z</time>
      </trkpt>
      <trkpt lat="49.91362" lon="4.22725">
        <ele>242.4</ele>
        <time>2024-04-01T08:40:30Z</time>
      </trkpt>
      <trkpt lat="49.91358" lon="4.22721">
        <ele>242.4</ele>
        <time>2024-04-01T08:40:31Z</time>
      </trkpt>
      <trkpt lat="49.91355" lon="4.22717">
        <ele>242.8</ele>
        <time>2024-04-01T08:40:32Z</time>
      </trkpt>
      <trkpt lat="49.91352" lon="4.22713">
        <ele>243.2</ele>
        <time>2024-04-01T08:40:33Z</time>
      </trkpt>
      <trkpt lat="49.91348" lon="4.2271">
        <ele>243.8</ele>
        <time>2024-04-01T08:40:34Z</time>
      </trkpt>
      <trkpt lat="49.91345" lon="4.22706">
        <ele>243.8</ele>
        <time>2024-04-01T08:40:35Z</time>
      </trkpt>
      <trkpt lat="49.91341" lon="4.22703">
        <ele>244.2</ele>
        <time>2024-04-01T08:40:36Z</time>
      </trkpt>
      <trkpt lat="49.91339" lon="4.227">
        <ele>244.6</ele>
        <time>2024-04-01T08:40:37Z</time>
      </trkpt>
      <trkpt lat="49.91336" lon="4.22697">
        <ele>245</ele>
        <time>2024-04-01T08:40:38Z</time>
      </trkpt>
      <trkpt lat="49.91333" lon="4.22693">
        <ele>245.4</ele>
        <time>2024-04-01T08:40:39Z</time>
      </trkpt>
      <trkpt lat="49.9133" lon="4.2269">
        <ele>245.4</ele>
        <time>2024-04-01T08:40:40Z</time>
      </trkpt>
      <trkpt lat="49.91328" lon="4.22686">
        <ele>245.6</ele>
        <time>2024-04-01T08:40:41Z</time>
      </trkpt>
      <trkpt lat="49.91325" lon="4.22683">
        <ele>245.8</ele>
        <time>2024-04-01T08:40:42Z</time>
      </trkpt>
      <trkpt lat="49.91322" lon="4.22679">
        <ele>246.2</ele>
        <time>2024-04-01T08:40:43Z</time>
      </trkpt>
      <trkpt lat="49.91319" lon="4.22676">
        <ele>246.2</ele>
        <time>2024-04-01T08:40:44Z</time>
      </trkpt>
      <trkpt lat="49.91315" lon="4.22672">
        <ele>246.4</ele>
        <time>2024-04-01T08:40:45Z</time>
      </trkpt>
      <trkpt lat="49.91311" lon="4.22668">
        <ele>246.6</ele>
        <time>2024-04-01T08:40:46Z</time>
      </trkpt>
      <trkpt lat="49.91307" lon="4.22664">
        <ele>246.6</ele>
        <time>2024-04-01T08:40:47Z</time>
      </trkpt>
      <trkpt lat="49.91303" lon="4.22659">
        <ele>246.8</ele>
        <time>2024-04-01T08:40:48Z</time>
      </trkpt>
      <trkpt lat="49.91299" lon="4.22654">
        <ele>247.2</ele>
        <time>2024-04-01T08:40:49Z</time>
      </trkpt>
      <trkpt lat="49.91295" lon="4.22649">
        <ele>247.6</ele>
        <time>2024-04-01T08:40:50Z</time>
      </trkpt>
      <trkpt lat="49.91291" lon="4.22643">
        <ele>247.8</ele>
        <time>2024-04-01T08:40:51Z</time>
      </trkpt>
      <trkpt lat="49.91287" lon="4.22638">
        <ele>248.2</ele>
        <time>2024-04-01T08:40:52Z</time>
      </trkpt>
      <trkpt lat="49.91282" lon="4.22632">
        <ele>248.2</ele>
        <time>2024-04-01T08:40:53Z</time>
      </trkpt>
      <trkpt lat="49.91277" lon="4.22627">
        <ele>248.6</ele>
        <time>2024-04-01T08:40:54Z</time>
      </trkpt>
      <trkpt lat="49.91271" lon="4.22621">
        <ele>248.6</ele>
        <time>2024-04-01T08:40:55Z</time>
      </trkpt>
      <trkpt lat="49.91264" lon="4.22616">
        <ele>248.6</ele>
        <time>2024-04-01T08:40:56Z</time>
      </trkpt>
      <trkpt lat="49.91258" lon="4.2261">
        <ele>248.8</ele>
        <time>2024-04-01T08:40:57Z</time>
      </trkpt>
      <trkpt lat="49.91251" lon="4.22605">
        <ele>248.6</ele>
        <time>2024-04-01T08:40:58Z</time>
      </trkpt>
      <trkpt lat="49.91245" lon="4.226">
        <ele>248.6</ele>
        <time>2024-04-01T08:40:59Z</time>
      </trkpt>
      <trkpt lat="49.91237" lon="4.22595">
        <ele>248.6</ele>
        <time>2024-04-01T08:41:00Z</time>
      </trkpt>
      <trkpt lat="49.91231" lon="4.2259">
        <ele>248.6</ele>
        <time>2024-04-01T08:41:01Z</time>
      </trkpt>
      <trkpt lat="49.91223" lon="4.22585">
        <ele>248.6</ele>
        <time>2024-04-01T08:41:02Z</time>
      </trkpt>
      <trkpt lat="49.91216" lon="4.2258">
        <ele>248.8</ele>
        <time>2024-04-01T08:41:03Z</time>
      </trkpt>
      <trkpt lat="49.91209" lon="4.22575">
        <ele>248.6</ele>
        <time>2024-04-01T08:41:04Z</time>
      </trkpt>
      <trkpt lat="49.91202" lon="4.22569">
        <ele>248.4</ele>
        <time>2024-04-01T08:41:05Z</time>
      </trkpt>
      <trkpt lat="49.91194" lon="4.22564">
        <ele>248</ele>
        <time>2024-04-01T08:41:06Z</time>
      </trkpt>
      <trkpt lat="49.91187" lon="4.22557">
        <ele>247.6</ele>
        <time>2024-04-01T08:41:07Z</time>
      </trkpt>
      <trkpt lat="49.91179" lon="4.2255">
        <ele>247</ele>
        <time>2024-04-01T08:41:08Z</time>
      </trkpt>
      <trkpt lat="49.91172" lon="4.22543">
        <ele>246.8</ele>
        <time>2024-04-01T08:41:09Z</time>
      </trkpt>
      <trkpt lat="49.91165" lon="4.22535">
        <ele>246.6</ele>
        <time>2024-04-01T08:41:10Z</time>
      </trkpt>
      <trkpt lat="49.91158" lon="4.22526">
        <ele>246</ele>
        <time>2024-04-01T08:41:11Z</time>
      </trkpt>
      <trkpt lat="49.91151" lon="4.22516">
        <ele>245.4</ele>
        <time>2024-04-01T08:41:12Z</time>
      </trkpt>
      <trkpt lat="49.91144" lon="4.22507">
        <ele>244.4</ele>
        <time>2024-04-01T08:41:13Z</time>
      </trkpt>
      <trkpt lat="49.91137" lon="4.22497">
        <ele>244</ele>
        <time>2024-04-01T08:41:14Z</time>
      </trkpt>
      <trkpt lat="49.9113" lon="4.22486">
        <ele>243.2</ele>
        <time>2024-04-01T08:41:15Z</time>
      </trkpt>
      <trkpt lat="49.91123" lon="4.22476">
        <ele>243.2</ele>
        <time>2024-04-01T08:41:16Z</time>
      </trkpt>
      <trkpt lat="49.91116" lon="4.22465">
        <ele>242</ele>
        <time>2024-04-01T08:41:17Z</time>
      </trkpt>
      <trkpt lat="49.91108" lon="4.22455">
        <ele>241.2</ele>
        <time>2024-04-01T08:41:18Z</time>
      </trkpt>
      <trkpt lat="49.91101" lon="4.22445">
        <ele>240</ele>
        <time>2024-04-01T08:41:19Z</time>
      </trkpt>
      <trkpt lat="49.91093" lon="4.22434">
        <ele>238.4</ele>
        <time>2024-04-01T08:41:20Z</time>
      </trkpt>
      <trkpt lat="49.91086" lon="4.22425">
        <ele>237.6</ele>
        <time>2024-04-01T08:41:21Z</time>
      </trkpt>
      <trkpt lat="49.91077" lon="4.22416">
        <ele>236.8</ele>
        <time>2024-04-01T08:41:22Z</time>
      </trkpt>
      <trkpt lat="49.91069" lon="4.22408">
        <ele>236.2</ele>
        <time>2024-04-01T08:41:23Z</time>
      </trkpt>
      <trkpt lat="49.91059" lon="4.22402">
        <ele>235.6</ele>
        <time>2024-04-01T08:41:24Z</time>
      </trkpt>
      <trkpt lat="49.9105" lon="4.22399">
        <ele>235</ele>
        <time>2024-04-01T08:41:25Z</time>
      </trkpt>
      <trkpt lat="49.91041" lon="4.22396">
        <ele>234.6</ele>
        <time>2024-04-01T08:41:26Z</time>
      </trkpt>
      <trkpt lat="49.91031" lon="4.22395">
        <ele>234</ele>
        <time>2024-04-01T08:41:27Z</time>
      </trkpt>
      <trkpt lat="49.91022" lon="4.22393">
        <ele>233.6</ele>
        <time>2024-04-01T08:41:28Z</time>
      </trkpt>
      <trkpt lat="49.91013" lon="4.22392">
        <ele>233.4</ele>
        <time>2024-04-01T08:41:29Z</time>
      </trkpt>
      <trkpt lat="49.91005" lon="4.22391">
        <ele>233.4</ele>
        <time>2024-04-01T08:41:30Z</time>
      </trkpt>
      <trkpt lat="49.90996" lon="4.2239">
        <ele>233.4</ele>
        <time>2024-04-01T08:41:31Z</time>
      </trkpt>
      <trkpt lat="49.90988" lon="4.22389">
        <ele>233.4</ele>
        <time>2024-04-01T08:41:32Z</time>
      </trkpt>
      <trkpt lat="49.9098" lon="4.22388">
        <ele>233.4</ele>
        <time>2024-04-01T08:41:33Z</time>
      </trkpt>
      <trkpt lat="49.90973" lon="4.22387">
        <ele>233.4</ele>
        <time>2024-04-01T08:41:34Z</time>
      </trkpt>
      <trkpt lat="49.90965" lon="4.22386">
        <ele>233.4</ele>
        <time>2024-04-01T08:41:35Z</time>
      </trkpt>
      <trkpt lat="49.90958" lon="4.22385">
        <ele>233.2</ele>
        <time>2024-04-01T08:41:36Z</time>
      </trkpt>
      <trkpt lat="49.90951" lon="4.22384">
        <ele>233.2</ele>
        <time>2024-04-01T08:41:37Z</time>
      </trkpt>
      <trkpt lat="49.90945" lon="4.22383">
        <ele>233.2</ele>
        <time>2024-04-01T08:41:38Z</time>
      </trkpt>
      <trkpt lat="49.90939" lon="4.22382">
        <ele>233.2</ele>
        <time>2024-04-01T08:41:39Z</time>
      </trkpt>
      <trkpt lat="49.90933" lon="4.22381">
        <ele>233.4</ele>
        <time>2024-04-01T08:41:40Z</time>
      </trkpt>
      <trkpt lat="49.90927" lon="4.22381">
        <ele>233.4</ele>
        <time>2024-04-01T08:41:41Z</time>
      </trkpt>
      <trkpt lat="49.90921" lon="4.2238">
        <ele>233.6</ele>
        <time>2024-04-01T08:41:42Z</time>
      </trkpt>
      <trkpt lat="49.90916" lon="4.22379">
        <ele>233.8</ele>
        <time>2024-04-01T08:41:43Z</time>
      </trkpt>
      <trkpt lat="49.9091" lon="4.22379">
        <ele>233.8</ele>
        <time>2024-04-01T08:41:44Z</time>
      </trkpt>
      <trkpt lat="49.90905" lon="4.22378">
        <ele>234</ele>
        <time>2024-04-01T08:41:45Z</time>
      </trkpt>
      <trkpt lat="49.909" lon="4.22377">
        <ele>234.6</ele>
        <time>2024-04-01T08:41:46Z</time>
      </trkpt>
      <trkpt lat="49.90895" lon="4.22377">
        <ele>235</ele>
        <time>2024-04-01T08:41:47Z</time>
      </trkpt>
      <trkpt lat="49.9089" lon="4.22376">
        <ele>235</ele>
        <time>2024-04-01T08:41:48Z</time>
      </trkpt>
      <trkpt lat="49.90885" lon="4.22376">
        <ele>235.6</ele>
        <time>2024-04-01T08:41:49Z</time>
      </trkpt>
      <trkpt lat="49.9088" lon="4.22375">
        <ele>236.2</ele>
        <time>2024-04-01T08:41:50Z</time>
      </trkpt>
      <trkpt lat="49.90875" lon="4.22374">
        <ele>236.6</ele>
        <time>2024-04-01T08:41:51Z</time>
      </trkpt>
      <trkpt lat="49.9087" lon="4.22374">
        <ele>237.2</ele>
        <time>2024-04-01T08:41:52Z</time>
      </trkpt>
      <trkpt lat="49.90865" lon="4.22373">
        <ele>237.8</ele>
        <time>2024-04-01T08:41:53Z</time>
      </trkpt>
      <trkpt lat="49.9086" lon="4.22373">
        <ele>238.2</ele>
        <time>2024-04-01T08:41:54Z</time>
      </trkpt>
      <trkpt lat="49.90855" lon="4.22373">
        <ele>238.6</ele>
        <time>2024-04-01T08:41:55Z</time>
      </trkpt>
      <trkpt lat="49.9085" lon="4.22372">
        <ele>239.2</ele>
        <time>2024-04-01T08:41:56Z</time>
      </trkpt>
      <trkpt lat="49.90846" lon="4.22372">
        <ele>239.6</ele>
        <time>2024-04-01T08:41:57Z</time>
      </trkpt>
      <trkpt lat="49.90841" lon="4.22372">
        <ele>239.6</ele>
        <time>2024-04-01T08:41:58Z</time>
      </trkpt>
      <trkpt lat="49.90836" lon="4.22371">
        <ele>240.2</ele>
        <time>2024-04-01T08:41:59Z</time>
      </trkpt>
      <trkpt lat="49.90831" lon="4.22371">
        <ele>240.4</ele>
        <time>2024-04-01T08:42:00Z</time>
      </trkpt>
      <trkpt lat="49.90826" lon="4.22371">
        <ele>241</ele>
        <time>2024-04-01T08:42:01Z</time>
      </trkpt>
      <trkpt lat="49.90821" lon="4.2237">
        <ele>241.2</ele>
        <time>2024-04-01T08:42:02Z</time>
      </trkpt>
      <trkpt lat="49.90816" lon="4.22369">
        <ele>241.6</ele>
        <time>2024-04-01T08:42:03Z</time>
      </trkpt>
      <trkpt lat="49.90811" lon="4.22368">
        <ele>241.6</ele>
        <time>2024-04-01T08:42:04Z</time>
      </trkpt>
      <trkpt lat="49.90807" lon="4.22367">
        <ele>242.2</ele>
        <time>2024-04-01T08:42:05Z</time>
      </trkpt>
      <trkpt lat="49.90802" lon="4.22365">
        <ele>242.6</ele>
        <time>2024-04-01T08:42:06Z</time>
      </trkpt>
      <trkpt lat="49.90797" lon="4.22363">
        <ele>243</ele>
        <time>2024-04-01T08:42:07Z</time>
      </trkpt>
      <trkpt lat="49.90792" lon="4.22362">
        <ele>243.2</ele>
        <time>2024-04-01T08:42:08Z</time>
      </trkpt>
      <trkpt lat="49.90787" lon="4.22359">
        <ele>243.4</ele>
        <time>2024-04-01T08:42:09Z</time>
      </trkpt>
      <trkpt lat="49.90782" lon="4.22357">
        <ele>243.8</ele>
        <time>2024-04-01T08:42:10Z</time>
      </trkpt>
      <trkpt lat="49.90777" lon="4.22355">
        <ele>244</ele>
        <time>2024-04-01T08:42:11Z</time>
      </trkpt>
      <trkpt lat="49.90772" lon="4.22353">
        <ele>244.4</ele>
        <time>2024-04-01T08:42:12Z</time>
      </trkpt>
      <trkpt lat="49.90767" lon="4.22351">
        <ele>245</ele>
        <time>2024-04-01T08:42:13Z</time>
      </trkpt>
      <trkpt lat="49.90763" lon="4.22349">
        <ele>245.6</ele>
        <time>2024-04-01T08:42:14Z</time>
      </trkpt>
      <trkpt lat="49.90758" lon="4.22347">
        <ele>246.2</ele>
        <time>2024-04-01T08:42:15Z</time>
      </trkpt>
      <trkpt lat="49.90753" lon="4.22345">
        <ele>246.4</ele>
        <time>2024-04-01T08:42:16Z</time>
      </trkpt>
      <trkpt lat="49.90748" lon="4.22344">
        <ele>246.6</ele>
        <time>2024-04-01T08:42:17Z</time>
      </trkpt>
      <trkpt lat="49.90743" lon="4.22342">
        <ele>246.6</ele>
        <time>2024-04-01T08:42:18Z</time>
      </trkpt>
      <trkpt lat="49.90738" lon="4.22342">
        <ele>246.6</ele>
        <time>2024-04-01T08:42:19Z</time>
      </trkpt>
      <trkpt lat="49.90733" lon="4.22341">
        <ele>246.6</ele>
        <time>2024-04-01T08:42:20Z</time>
      </trkpt>
      <trkpt lat="49.90728" lon="4.22341">
        <ele>246.8</ele>
        <time>2024-04-01T08:42:21Z</time>
      </trkpt>
      <trkpt lat="49.90723" lon="4.22341">
        <ele>247</ele>
        <time>2024-04-01T08:42:22Z</time>
      </trkpt>
      <trkpt lat="49.90718" lon="4.22341">
        <ele>247</ele>
        <time>2024-04-01T08:42:23Z</time>
      </trkpt>
      <trkpt lat="49.90712" lon="4.22342">
        <ele>247.2</ele>
        <time>2024-04-01T08:42:24Z</time>
      </trkpt>
      <trkpt lat="49.90707" lon="4.22342">
        <ele>247.2</ele>
        <time>2024-04-01T08:42:25Z</time>
      </trkpt>
      <trkpt lat="49.90702" lon="4.22343">
        <ele>247.4</ele>
        <time>2024-04-01T08:42:26Z</time>
      </trkpt>
      <trkpt lat="49.90697" lon="4.22343">
        <ele>247.4</ele>
        <time>2024-04-01T08:42:27Z</time>
      </trkpt>
      <trkpt lat="49.90692" lon="4.22344">
        <ele>247.6</ele>
        <time>2024-04-01T08:42:28Z</time>
      </trkpt>
      <trkpt lat="49.90687" lon="4.22345">
        <ele>247.6</ele>
        <time>2024-04-01T08:42:29Z</time>
      </trkpt>
      <trkpt lat="49.90682" lon="4.22345">
        <ele>247.4</ele>
        <time>2024-04-01T08:42:30Z</time>
      </trkpt>
      <trkpt lat="49.90677" lon="4.22346">
        <ele>247.6</ele>
        <time>2024-04-01T08:42:31Z</time>
      </trkpt>
      <trkpt lat="49.90673" lon="4.22346">
        <ele>247.8</ele>
        <time>2024-04-01T08:42:32Z</time>
      </trkpt>
      <trkpt lat="49.90668" lon="4.22346">
        <ele>247.6</ele>
        <time>2024-04-01T08:42:33Z</time>
      </trkpt>
      <trkpt lat="49.90663" lon="4.22347">
        <ele>247.8</ele>
        <time>2024-04-01T08:42:34Z</time>
      </trkpt>
      <trkpt lat="49.90658" lon="4.22346">
        <ele>247.8</ele>
        <time>2024-04-01T08:42:35Z</time>
      </trkpt>
      <trkpt lat="49.90653" lon="4.22346">
        <ele>248</ele>
        <time>2024-04-01T08:42:36Z</time>
      </trkpt>
      <trkpt lat="49.90648" lon="4.22345">
        <ele>248.2</ele>
        <time>2024-04-01T08:42:37Z</time>
      </trkpt>
      <trkpt lat="49.90643" lon="4.22344">
        <ele>248.2</ele>
        <time>2024-04-01T08:42:38Z</time>
      </trkpt>
      <trkpt lat="49.90638" lon="4.22344">
        <ele>248.2</ele>
        <time>2024-04-01T08:42:39Z</time>
      </trkpt>
      <trkpt lat="49.90633" lon="4.22343">
        <ele>248.4</ele>
        <time>2024-04-01T08:42:40Z</time>
      </trkpt>
      <trkpt lat="49.90629" lon="4.22341">
        <ele>248.6</ele>
        <time>2024-04-01T08:42:41Z</time>
      </trkpt>
      <trkpt lat="49.90624" lon="4.2234">
        <ele>248.6</ele>
        <time>2024-04-01T08:42:42Z</time>
      </trkpt>
      <trkpt lat="49.90619" lon="4.22339">
        <ele>248.8</ele>
        <time>2024-04-01T08:42:43Z</time>
      </trkpt>
      <trkpt lat="49.90614" lon="4.22338">
        <ele>249</ele>
        <time>2024-04-01T08:42:44Z</time>
      </trkpt>
      <trkpt lat="49.90609" lon="4.22337">
        <ele>249</ele>
        <time>2024-04-01T08:42:45Z</time>
      </trkpt>
      <trkpt lat="49.90604" lon="4.22336">
        <ele>249</ele>
        <time>2024-04-01T08:42:46Z</time>
      </trkpt>
      <trkpt lat="49.90598" lon="4.22335">
        <ele>249.4</ele>
        <time>2024-04-01T08:42:47Z</time>
      </trkpt>
      <trkpt lat="49.90593" lon="4.22334">
        <ele>249.4</ele>
        <time>2024-04-01T08:42:48Z</time>
      </trkpt>
      <trkpt lat="49.90588" lon="4.22333">
        <ele>249.6</ele>
        <time>2024-04-01T08:42:49Z</time>
      </trkpt>
      <trkpt lat="49.90583" lon="4.22331">
        <ele>249.6</ele>
        <time>2024-04-01T08:42:50Z</time>
      </trkpt>
      <trkpt lat="49.90577" lon="4.2233">
        <ele>250.2</ele>
        <time>2024-04-01T08:42:51Z</time>
      </trkpt>
      <trkpt lat="49.90572" lon="4.22329">
        <ele>250.2</ele>
        <time>2024-04-01T08:42:52Z</time>
      </trkpt>
      <trkpt lat="49.90567" lon="4.22328">
        <ele>250.4</ele>
        <time>2024-04-01T08:42:53Z</time>
      </trkpt>
      <trkpt lat="49.90562" lon="4.22327">
        <ele>250.4</ele>
        <time>2024-04-01T08:42:54Z</time>
      </trkpt>
      <trkpt lat="49.90556" lon="4.22326">
        <ele>250.4</ele>
        <time>2024-04-01T08:42:55Z</time>
      </trkpt>
      <trkpt lat="49.90551" lon="4.22325">
        <ele>250.8</ele>
        <time>2024-04-01T08:42:56Z</time>
      </trkpt>
      <trkpt lat="49.90546" lon="4.22324">
        <ele>250.8</ele>
        <time>2024-04-01T08:42:57Z</time>
      </trkpt>
      <trkpt lat="49.90541" lon="4.22323">
        <ele>251</ele>
        <time>2024-04-01T08:42:58Z</time>
      </trkpt>
      <trkpt lat="49.90536" lon="4.22322">
        <ele>251.2</ele>
        <time>2024-04-01T08:42:59Z</time>
      </trkpt>
      <trkpt lat="49.90531" lon="4.22321">
        <ele>251.2</ele>
        <time>2024-04-01T08:43:00Z</time>
      </trkpt>
      <trkpt lat="49.90526" lon="4.2232">
        <ele>251.4</ele>
        <time>2024-04-01T08:43:01Z</time>
      </trkpt>
      <trkpt lat="49.90522" lon="4.22319">
        <ele>251.4</ele>
        <time>2024-04-01T08:43:02Z</time>
      </trkpt>
      <trkpt lat="49.90517" lon="4.22317">
        <ele>251.6</ele>
        <time>2024-04-01T08:43:03Z</time>
      </trkpt>
      <trkpt lat="49.90512" lon="4.22316">
        <ele>251.6</ele>
        <time>2024-04-01T08:43:04Z</time>
      </trkpt>
      <trkpt lat="49.90507" lon="4.22315">
        <ele>251.6</ele>
        <time>2024-04-01T08:43:05Z</time>
      </trkpt>
      <trkpt lat="49.90502" lon="4.22314">
        <ele>251.6</ele>
        <time>2024-04-01T08:43:06Z</time>
      </trkpt>
      <trkpt lat="49.90497" lon="4.22313">
        <ele>252</ele>
        <time>2024-04-01T08:43:07Z</time>
      </trkpt>
      <trkpt lat="49.90491" lon="4.22312">
        <ele>252.8</ele>
        <time>2024-04-01T08:43:08Z</time>
      </trkpt>
      <trkpt lat="49.90485" lon="4.22311">
        <ele>253.6</ele>
        <time>2024-04-01T08:43:09Z</time>
      </trkpt>
      <trkpt lat="49.9048" lon="4.2231">
        <ele>254</ele>
        <time>2024-04-01T08:43:10Z</time>
      </trkpt>
      <trkpt lat="49.90474" lon="4.22309">
        <ele>254</ele>
        <time>2024-04-01T08:43:11Z</time>
      </trkpt>
      <trkpt lat="49.90468" lon="4.22308">
        <ele>254</ele>
        <time>2024-04-01T08:43:12Z</time>
      </trkpt>
      <trkpt lat="49.90462" lon="4.22307">
        <ele>254</ele>
        <time>2024-04-01T08:43:13Z</time>
      </trkpt>
      <trkpt lat="49.90456" lon="4.22306">
        <ele>254.2</ele>
        <time>2024-04-01T08:43:14Z</time>
      </trkpt>
      <trkpt lat="49.9045" lon="4.22305">
        <ele>254.2</ele>
        <time>2024-04-01T08:43:15Z</time>
      </trkpt>
      <trkpt lat="49.90444" lon="4.22304">
        <ele>254.2</ele>
        <time>2024-04-01T08:43:16Z</time>
      </trkpt>
      <trkpt lat="49.90438" lon="4.22303">
        <ele>254</ele>
        <time>2024-04-01T08:43:17Z</time>
      </trkpt>
      <trkpt lat="49.90432" lon="4.22302">
        <ele>254.2</ele>
        <time>2024-04-01T08:43:18Z</time>
      </trkpt>
      <trkpt lat="49.90426" lon="4.22301">
        <ele>254</ele>
        <time>2024-04-01T08:43:19Z</time>
      </trkpt>
      <trkpt lat="49.90422" lon="4.223">
        <ele>254</ele>
        <time>2024-04-01T08:43:20Z</time>
      </trkpt>
      <trkpt lat="49.90417" lon="4.22299">
        <ele>254</ele>
        <time>2024-04-01T08:43:21Z</time>
      </trkpt>
      <trkpt lat="49.90414" lon="4.22298">
        <ele>253.8</ele>
        <time>2024-04-01T08:43:22Z</time>
      </trkpt>
      <trkpt lat="49.90412" lon="4.22297">
        <ele>253.6</ele>
        <time>2024-04-01T08:43:23Z</time>
      </trkpt>
      <trkpt lat="49.90411" lon="4.22297">
        <ele>253.4</ele>
        <time>2024-04-01T08:43:24Z</time>
      </trkpt>
      <trkpt lat="49.9041" lon="4.22296">
        <ele>253.2</ele>
        <time>2024-04-01T08:43:25Z</time>
      </trkpt>
      <trkpt lat="49.9041" lon="4.22296">
        <ele>253.2</ele>
        <time>2024-04-01T08:43:26Z</time>
      </trkpt>
      <trkpt lat="49.90407" lon="4.22299">
        <ele>252.8</ele>
        <time>2024-04-01T08:43:36Z</time>
      </trkpt>
      <trkpt lat="49.90406" lon="4.22302">
        <ele>252.8</ele>
        <time>2024-04-01T08:43:37Z</time>
      </trkpt>
      <trkpt lat="49.90404" lon="4.22306">
        <ele>252.8</ele>
        <time>2024-04-01T08:43:38Z</time>
      </trkpt>
      <trkpt lat="49.90403" lon="4.22311">
        <ele>252.8</ele>
        <time>2024-04-01T08:43:39Z</time>
      </trkpt>
      <trkpt lat="49.90402" lon="4.22317">
        <ele>252.8</ele>
        <time>2024-04-01T08:43:40Z</time>
      </trkpt>
      <trkpt lat="49.90401" lon="4.22324">
        <ele>252.8</ele>
        <time>2024-04-01T08:43:41Z</time>
      </trkpt>
      <trkpt lat="49.90399" lon="4.22332">
        <ele>252.8</ele>
        <time>2024-04-01T08:43:42Z</time>
      </trkpt>
      <trkpt lat="49.90398" lon="4.2234">
        <ele>252.6</ele>
        <time>2024-04-01T08:43:43Z</time>
      </trkpt>
      <trkpt lat="49.90397" lon="4.22349">
        <ele>252.6</ele>
        <time>2024-04-01T08:43:44Z</time>
      </trkpt>
      <trkpt lat="49.90396" lon="4.22357">
        <ele>252.8</ele>
        <time>2024-04-01T08:43:45Z</time>
      </trkpt>
      <trkpt lat="49.90395" lon="4.22367">
        <ele>252.8</ele>
        <time>2024-04-01T08:43:46Z</time>
      </trkpt>
      <trkpt lat="49.90394" lon="4.22376">
        <ele>252.6</ele>
        <time>2024-04-01T08:43:47Z</time>
      </trkpt>
      <trkpt lat="49.90393" lon="4.22386">
        <ele>252.2</ele>
        <time>2024-04-01T08:43:48Z</time>
      </trkpt>
      <trkpt lat="49.90393" lon="4.22396">
        <ele>251.6</ele>
        <time>2024-04-01T08:43:49Z</time>
      </trkpt>
      <trkpt lat="49.90392" lon="4.22406">
        <ele>251.4</ele>
        <time>2024-04-01T08:43:50Z</time>
      </trkpt>
      <trkpt lat="49.90392" lon="4.22416">
        <ele>250.8</ele>
        <time>2024-04-01T08:43:51Z</time>
      </trkpt>
      <trkpt lat="49.90391" lon="4.22427">
        <ele>250.6</ele>
        <time>2024-04-01T08:43:52Z</time>
      </trkpt>
      <trkpt lat="49.90391" lon="4.22437">
        <ele>250.6</ele>
        <time>2024-04-01T08:43:53Z</time>
      </trkpt>
      <trkpt lat="49.90391" lon="4.22447">
        <ele>250.4</ele>
        <time>2024-04-01T08:43:54Z</time>
      </trkpt>
      <trkpt lat="49.90391" lon="4.22458">
        <ele>250.4</ele>
        <time>2024-04-01T08:43:55Z</time>
      </trkpt>
      <trkpt lat="49.90391" lon="4.22468">
        <ele>250.6</ele>
        <time>2024-04-01T08:43:56Z</time>
      </trkpt>
      <trkpt lat="49.90391" lon="4.22479">
        <ele>250.6</ele>
        <time>2024-04-01T08:43:57Z</time>
      </trkpt>
      <trkpt lat="49.90392" lon="4.22489">
        <ele>250.6</ele>
        <time>2024-04-01T08:43:58Z</time>
      </trkpt>
      <trkpt lat="49.90392" lon="4.225">
        <ele>250.4</ele>
        <time>2024-04-01T08:43:59Z</time>
      </trkpt>
      <trkpt lat="49.90393" lon="4.2251">
        <ele>250.4</ele>
        <time>2024-04-01T08:44:00Z</time>
      </trkpt>
      <trkpt lat="49.90393" lon="4.2252">
        <ele>250.4</ele>
        <time>2024-04-01T08:44:01Z</time>
      </trkpt>
      <trkpt lat="49.90394" lon="4.2253">
        <ele>250.6</ele>
        <time>2024-04-01T08:44:02Z</time>
      </trkpt>
      <trkpt lat="49.90395" lon="4.2254">
        <ele>250.8</ele>
        <time>2024-04-01T08:44:03Z</time>
      </trkpt>
      <trkpt lat="49.90396" lon="4.2255">
        <ele>251.2</ele>
        <time>2024-04-01T08:44:04Z</time>
      </trkpt>
      <trkpt lat="49.90398" lon="4.2256">
        <ele>251.2</ele>
        <time>2024-04-01T08:44:05Z</time>
      </trkpt>
      <trkpt lat="49.90399" lon="4.2257">
        <ele>251.4</ele>
        <time>2024-04-01T08:44:06Z</time>
      </trkpt>
      <trkpt lat="49.904" lon="4.2258">
        <ele>251.4</ele>
        <time>2024-04-01T08:44:07Z</time>
      </trkpt>
      <trkpt lat="49.90402" lon="4.2259">
        <ele>251.6</ele>
        <time>2024-04-01T08:44:08Z</time>
      </trkpt>
      <trkpt lat="49.90403" lon="4.226">
        <ele>251.8</ele>
        <time>2024-04-01T08:44:09Z</time>
      </trkpt>
      <trkpt lat="49.90405" lon="4.22609">
        <ele>251.8</ele>
        <time>2024-04-01T08:44:10Z</time>
      </trkpt>
      <trkpt lat="49.90407" lon="4.22619">
        <ele>252</ele>
        <time>2024-04-01T08:44:11Z</time>
      </trkpt>
      <trkpt lat="49.90409" lon="4.22628">
        <ele>252.4</ele>
        <time>2024-04-01T08:44:12Z</time>
      </trkpt>
      <trkpt lat="49.90411" lon="4.22638">
        <ele>252.6</ele>
        <time>2024-04-01T08:44:13Z</time>
      </trkpt>
      <trkpt lat="49.90414" lon="4.22647">
        <ele>252.6</ele>
        <time>2024-04-01T08:44:14Z</time>
      </trkpt>
      <trkpt lat="49.90416" lon="4.22657">
        <ele>252.8</ele>
        <time>2024-04-01T08:44:15Z</time>
      </trkpt>
      <trkpt lat="49.90418" lon="4.22666">
        <ele>252.8</ele>
        <time>2024-04-01T08:44:16Z</time>
      </trkpt>
      <trkpt lat="49.90421" lon="4.22676">
        <ele>252.8</ele>
        <time>2024-04-01T08:44:17Z</time>
      </trkpt>
      <trkpt lat="49.90423" lon="4.22685">
        <ele>253</ele>
        <time>2024-04-01T08:44:18Z</time>
      </trkpt>
      <trkpt lat="49.90426" lon="4.22694">
        <ele>253</ele>
        <time>2024-04-01T08:44:19Z</time>
      </trkpt>
      <trkpt lat="49.90428" lon="4.22703">
        <ele>252.8</ele>
        <time>2024-04-01T08:44:20Z</time>
      </trkpt>
      <trkpt lat="49.90431" lon="4.22713">
        <ele>253</ele>
        <time>2024-04-01T08:44:21Z</time>
      </trkpt>
      <trkpt lat="49.90433" lon="4.22722">
        <ele>253.2</ele>
        <time>2024-04-01T08:44:22Z</time>
      </trkpt>
      <trkpt lat="49.90435" lon="4.22732">
        <ele>253.2</ele>
        <time>2024-04-01T08:44:23Z</time>
      </trkpt>
      <trkpt lat="49.90437" lon="4.22742">
        <ele>253.2</ele>
        <time>2024-04-01T08:44:24Z</time>
      </trkpt>
      <trkpt lat="49.90439" lon="4.22751">
        <ele>253.4</ele>
        <time>2024-04-01T08:44:25Z</time>
      </trkpt>
      <trkpt lat="49.90441" lon="4.22761">
        <ele>253.6</ele>
        <time>2024-04-01T08:44:26Z</time>
      </trkpt>
      <trkpt lat="49.90442" lon="4.2277">
        <ele>253.8</ele>
        <time>2024-04-01T08:44:27Z</time>
      </trkpt>
      <trkpt lat="49.90444" lon="4.2278">
        <ele>253.8</ele>
        <time>2024-04-01T08:44:28Z</time>
      </trkpt>
      <trkpt lat="49.90445" lon="4.2279">
        <ele>253.8</ele>
        <time>2024-04-01T08:44:29Z</time>
      </trkpt>
      <trkpt lat="49.90446" lon="4.22799">
        <ele>254</ele>
        <time>2024-04-01T08:44:30Z</time>
      </trkpt>
      <trkpt lat="49.90447" lon="4.22809">
        <ele>254.2</ele>
        <time>2024-04-01T08:44:31Z</time>
      </trkpt>
      <trkpt lat="49.90449" lon="4.22819">
        <ele>254.6</ele>
        <time>2024-04-01T08:44:32Z</time>
      </trkpt>
      <trkpt lat="49.9045" lon="4.22829">
        <ele>254.6</ele>
        <time>2024-04-01T08:44:33Z</time>
      </trkpt>
      <trkpt lat="49.90451" lon="4.22839">
        <ele>255</ele>
        <time>2024-04-01T08:44:34Z</time>
      </trkpt>
      <trkpt lat="49.90452" lon="4.22849">
        <ele>255</ele>
        <time>2024-04-01T08:44:35Z</time>
      </trkpt>
      <trkpt lat="49.90453" lon="4.2286">
        <ele>255.4</ele>
        <time>2024-04-01T08:44:36Z</time>
      </trkpt>
      <trkpt lat="49.90454" lon="4.2287">
        <ele>255.6</ele>
        <time>2024-04-01T08:44:37Z</time>
      </trkpt>
      <trkpt lat="49.90454" lon="4.2288">
        <ele>255.6</ele>
        <time>2024-04-01T08:44:38Z</time>
      </trkpt>
      <trkpt lat="49.90455" lon="4.22891">
        <ele>255.6</ele>
        <time>2024-04-01T08:44:39Z</time>
      </trkpt>
      <trkpt lat="49.90455" lon="4.22902">
        <ele>255.4</ele>
        <time>2024-04-01T08:44:40Z</time>
      </trkpt>
      <trkpt lat="49.90456" lon="4.22913">
        <ele>255.6</ele>
        <time>2024-04-01T08:44:41Z</time>
      </trkpt>
      <trkpt lat="49.90456" lon="4.22924">
        <ele>255.8</ele>
        <time>2024-04-01T08:44:42Z</time>
      </trkpt>
      <trkpt lat="49.90456" lon="4.22935">
        <ele>255.8</ele>
        <time>2024-04-01T08:44:43Z</time>
      </trkpt>
      <trkpt lat="49.90456" lon="4.22946">
        <ele>255.8</ele>
        <time>2024-04-01T08:44:44Z</time>
      </trkpt>
      <trkpt lat="49.90456" lon="4.22958">
        <ele>255.8</ele>
        <time>2024-04-01T08:44:45Z</time>
      </trkpt>
      <trkpt lat="49.90455" lon="4.22969">
        <ele>255.8</ele>
        <time>2024-04-01T08:44:46Z</time>
      </trkpt>
      <trkpt lat="49.90455" lon="4.2298">
        <ele>255.8</ele>
        <time>2024-04-01T08:44:47Z</time>
      </trkpt>
      <trkpt lat="49.90454" lon="4.22991">
        <ele>255.8</ele>
        <time>2024-04-01T08:44:48Z</time>
      </trkpt>
      <trkpt lat="49.90454" lon="4.23003">
        <ele>255.8</ele>
        <time>2024-04-01T08:44:49Z</time>
      </trkpt>
      <trkpt lat="49.90453" lon="4.23014">
        <ele>255.8</ele>
        <time>2024-04-01T08:44:50Z</time>
      </trkpt>
      <trkpt lat="49.90453" lon="4.23025">
        <ele>255.8</ele>
        <time>2024-04-01T08:44:51Z</time>
      </trkpt>
      <trkpt lat="49.90452" lon="4.23037">
        <ele>255.6</ele>
        <time>2024-04-01T08:44:52Z</time>
      </trkpt>
      <trkpt lat="49.90451" lon="4.23048">
        <ele>255.6</ele>
        <time>2024-04-01T08:44:53Z</time>
      </trkpt>
      <trkpt lat="49.90451" lon="4.2306">
        <ele>255.4</ele>
        <time>2024-04-01T08:44:54Z</time>
      </trkpt>
      <trkpt lat="49.9045" lon="4.23071">
        <ele>255.4</ele>
        <time>2024-04-01T08:44:55Z</time>
      </trkpt>
      <trkpt lat="49.90449" lon="4.23083">
        <ele>255.2</ele>
        <time>2024-04-01T08:44:56Z</time>
      </trkpt>
      <trkpt lat="49.90449" lon="4.23094">
        <ele>255</ele>
        <time>2024-04-01T08:44:57Z</time>
      </trkpt>
      <trkpt lat="49.90448" lon="4.23106">
        <ele>254.8</ele>
        <time>2024-04-01T08:44:58Z</time>
      </trkpt>
      <trkpt lat="49.90447" lon="4.23117">
        <ele>254.6</ele>
        <time>2024-04-01T08:44:59Z</time>
      </trkpt>
      <trkpt lat="49.90447" lon="4.23128">
        <ele>254.6</ele>
        <time>2024-04-01T08:45:00Z</time>
      </trkpt>
      <trkpt lat="49.90446" lon="4.2314">
        <ele>254.6</ele>
        <time>2024-04-01T08:45:01Z</time>
      </trkpt>
      <trkpt lat="49.90445" lon="4.23151">
        <ele>254.4</ele>
        <time>2024-04-01T08:45:02Z</time>
      </trkpt>
      <trkpt lat="49.90444" lon="4.23163">
        <ele>254.6</ele>
        <time>2024-04-01T08:45:03Z</time>
      </trkpt>
      <trkpt lat="49.90443" lon="4.23174">
        <ele>254.6</ele>
        <time>2024-04-01T08:45:04Z</time>
      </trkpt>
      <trkpt lat="49.90442" lon="4.23185">
        <ele>254.6</ele>
        <time>2024-04-01T08:45:05Z</time>
      </trkpt>
      <trkpt lat="49.90441" lon="4.23196">
        <ele>254.4</ele>
        <time>2024-04-01T08:45:06Z</time>
      </trkpt>
      <trkpt lat="49.9044" lon="4.23206">
        <ele>254.4</ele>
        <time>2024-04-01T08:45:07Z</time>
      </trkpt>
      <trkpt lat="49.90438" lon="4.23217">
        <ele>254.4</ele>
        <time>2024-04-01T08:45:08Z</time>
      </trkpt>
      <trkpt lat="49.90437" lon="4.23228">
        <ele>254.4</ele>
        <time>2024-04-01T08:45:09Z</time>
      </trkpt>
      <trkpt lat="49.90436" lon="4.23238">
        <ele>254.6</ele>
        <time>2024-04-01T08:45:10Z</time>
      </trkpt>
      <trkpt lat="49.90435" lon="4.23249">
        <ele>254.4</ele>
        <time>2024-04-01T08:45:11Z</time>
      </trkpt>
      <trkpt lat="49.90434" lon="4.2326">
        <ele>254.4</ele>
        <time>2024-04-01T08:45:12Z</time>
      </trkpt>
      <trkpt lat="49.90433" lon="4.2327">
        <ele>254.6</ele>
        <time>2024-04-01T08:45:13Z</time>
      </trkpt>
      <trkpt lat="49.90432" lon="4.23281">
        <ele>254.6</ele>
        <time>2024-04-01T08:45:14Z</time>
      </trkpt>
      <trkpt lat="49.90431" lon="4.23292">
        <ele>254.4</ele>
        <time>2024-04-01T08:45:15Z</time>
      </trkpt>
      <trkpt lat="49.90429" lon="4.23303">
        <ele>254.4</ele>
        <time>2024-04-01T08:45:16Z</time>
      </trkpt>
      <trkpt lat="49.90428" lon="4.23314">
        <ele>254.6</ele>
        <time>2024-04-01T08:45:17Z</time>
      </trkpt>
      <trkpt lat="49.90427" lon="4.23324">
        <ele>254.6</ele>
        <time>2024-04-01T08:45:18Z</time>
      </trkpt>
      <trkpt lat="49.90425" lon="4.23334">
        <ele>254.6</ele>
        <time>2024-04-01T08:45:19Z</time>
      </trkpt>
      <trkpt lat="49.90424" lon="4.23345">
        <ele>254.8</ele>
        <time>2024-04-01T08:45:20Z</time>
      </trkpt>
      <trkpt lat="49.90421" lon="4.23356">
        <ele>254.8</ele>
        <time>2024-04-01T08:45:21Z</time>
      </trkpt>
      <trkpt lat="49.90419" lon="4.23366">
        <ele>255</ele>
        <time>2024-04-01T08:45:22Z</time>
      </trkpt>
      <trkpt lat="49.90417" lon="4.23377">
        <ele>255</ele>
        <time>2024-04-01T08:45:23Z</time>
      </trkpt>
      <trkpt lat="49.90415" lon="4.23387">
        <ele>255</ele>
        <time>2024-04-01T08:45:24Z</time>
      </trkpt>
      <trkpt lat="49.90413" lon="4.23397">
        <ele>255</ele>
        <time>2024-04-01T08:45:25Z</time>
      </trkpt>
      <trkpt lat="49.90411" lon="4.23407">
        <ele>255.2</ele>
        <time>2024-04-01T08:45:26Z</time>
      </trkpt>
      <trkpt lat="49.9041" lon="4.23417">
        <ele>255.2</ele>
        <time>2024-04-01T08:45:27Z</time>
      </trkpt>
      <trkpt lat="49.90409" lon="4.23428">
        <ele>255.2</ele>
        <time>2024-04-01T08:45:28Z</time>
      </trkpt>
      <trkpt lat="49.90407" lon="4.23438">
        <ele>255.2</ele>
        <time>2024-04-01T08:45:29Z</time>
      </trkpt>
      <trkpt lat="49.90405" lon="4.23449">
        <ele>255</ele>
        <time>2024-04-01T08:45:30Z</time>
      </trkpt>
      <trkpt lat="49.90404" lon="4.23459">
        <ele>255.4</ele>
        <time>2024-04-01T08:45:31Z</time>
      </trkpt>
      <trkpt lat="49.90402" lon="4.2347">
        <ele>255.4</ele>
        <time>2024-04-01T08:45:32Z</time>
      </trkpt>
      <trkpt lat="49.904" lon="4.2348">
        <ele>255.4</ele>
        <time>2024-04-01T08:45:33Z</time>
      </trkpt>
      <trkpt lat="49.90398" lon="4.23491">
        <ele>255.6</ele>
        <time>2024-04-01T08:45:34Z</time>
      </trkpt>
      <trkpt lat="49.90397" lon="4.23501">
        <ele>255.4</ele>
        <time>2024-04-01T08:45:35Z</time>
      </trkpt>
      <trkpt lat="49.90395" lon="4.23512">
        <ele>255.4</ele>
        <time>2024-04-01T08:45:36Z</time>
      </trkpt>
      <trkpt lat="49.90393" lon="4.23522">
        <ele>255.4</ele>
        <time>2024-04-01T08:45:37Z</time>
      </trkpt>
      <trkpt lat="49.90391" lon="4.23533">
        <ele>255.4</ele>
        <time>2024-04-01T08:45:38Z</time>
      </trkpt>
      <trkpt lat="49.9039" lon="4.23544">
        <ele>255.4</ele>
        <time>2024-04-01T08:45:39Z</time>
      </trkpt>
      <trkpt lat="49.90388" lon="4.23555">
        <ele>255.4</ele>
        <time>2024-04-01T08:45:40Z</time>
      </trkpt>
      <trkpt lat="49.90386" lon="4.23566">
        <ele>255.4</ele>
        <time>2024-04-01T08:45:41Z</time>
      </trkpt>
      <trkpt lat="49.90384" lon="4.23577">
        <ele>255.4</ele>
        <time>2024-04-01T08:45:42Z</time>
      </trkpt>
      <trkpt lat="49.90383" lon="4.23588">
        <ele>255.2</ele>
        <time>2024-04-01T08:45:43Z</time>
      </trkpt>
      <trkpt lat="49.90381" lon="4.23599">
        <ele>255.2</ele>
        <time>2024-04-01T08:45:44Z</time>
      </trkpt>
      <trkpt lat="49.90379" lon="4.23611">
        <ele>255.4</ele>
        <time>2024-04-01T08:45:45Z</time>
      </trkpt>
      <trkpt lat="49.90377" lon="4.23622">
        <ele>255.2</ele>
        <time>2024-04-01T08:45:46Z</time>
      </trkpt>
      <trkpt lat="49.90375" lon="4.23633">
        <ele>255.2</ele>
        <time>2024-04-01T08:45:47Z</time>
      </trkpt>
      <trkpt lat="49.90373" lon="4.23644">
        <ele>255.2</ele>
        <time>2024-04-01T08:45:48Z</time>
      </trkpt>
      <trkpt lat="49.90371" lon="4.23655">
        <ele>255.2</ele>
        <time>2024-04-01T08:45:49Z</time>
      </trkpt>
      <trkpt lat="49.90369" lon="4.23666">
        <ele>255.2</ele>
        <time>2024-04-01T08:45:50Z</time>
      </trkpt>
      <trkpt lat="49.90368" lon="4.23677">
        <ele>255</ele>
        <time>2024-04-01T08:45:51Z</time>
      </trkpt>
      <trkpt lat="49.90367" lon="4.23688">
        <ele>254.8</ele>
        <time>2024-04-01T08:45:52Z</time>
      </trkpt>
      <trkpt lat="49.90365" lon="4.23699">
        <ele>254.6</ele>
        <time>2024-04-01T08:45:53Z</time>
      </trkpt>
      <trkpt lat="49.90363" lon="4.23711">
        <ele>254.2</ele>
        <time>2024-04-01T08:45:54Z</time>
      </trkpt>
      <trkpt lat="49.90361" lon="4.23722">
        <ele>254.4</ele>
        <time>2024-04-01T08:45:55Z</time>
      </trkpt>
      <trkpt lat="49.9036" lon="4.23733">
        <ele>254</ele>
        <time>2024-04-01T08:45:56Z</time>
      </trkpt>
      <trkpt lat="49.90358" lon="4.23744">
        <ele>254</ele>
        <time>2024-04-01T08:45:57Z</time>
      </trkpt>
      <trkpt lat="49.90356" lon="4.23755">
        <ele>254</ele>
        <time>2024-04-01T08:45:58Z</time>
      </trkpt>
      <trkpt lat="49.90354" lon="4.23766">
        <ele>254</ele>
        <time>2024-04-01T08:45:59Z</time>
      </trkpt>
      <trkpt lat="49.90353" lon="4.23776">
        <ele>254</ele>
        <time>2024-04-01T08:46:00Z</time>
      </trkpt>
      <trkpt lat="49.90351" lon="4.23787">
        <ele>253.6</ele>
        <time>2024-04-01T08:46:01Z</time>
      </trkpt>
      <trkpt lat="49.90349" lon="4.23798">
        <ele>253.4</ele>
        <time>2024-04-01T08:46:02Z</time>
      </trkpt>
      <trkpt lat="49.90347" lon="4.23809">
        <ele>253.2</ele>
        <time>2024-04-01T08:46:03Z</time>
      </trkpt>
      <trkpt lat="49.90345" lon="4.2382">
        <ele>253</ele>
        <time>2024-04-01T08:46:04Z</time>
      </trkpt>
      <trkpt lat="49.90343" lon="4.23831">
        <ele>253.2</ele>
        <time>2024-04-01T08:46:05Z</time>
      </trkpt>
      <trkpt lat="49.90341" lon="4.23841">
        <ele>253</ele>
        <time>2024-04-01T08:46:06Z</time>
      </trkpt>
      <trkpt lat="49.90339" lon="4.23852">
        <ele>253</ele>
        <time>2024-04-01T08:46:07Z</time>
      </trkpt>
      <trkpt lat="49.90337" lon="4.23863">
        <ele>253</ele>
        <time>2024-04-01T08:46:08Z</time>
      </trkpt>
      <trkpt lat="49.90335" lon="4.23874">
        <ele>253</ele>
        <time>2024-04-01T08:46:09Z</time>
      </trkpt>
      <trkpt lat="49.90334" lon="4.23885">
        <ele>253</ele>
        <time>2024-04-01T08:46:10Z</time>
      </trkpt>
      <trkpt lat="49.90332" lon="4.23895">
        <ele>253</ele>
        <time>2024-04-01T08:46:11Z</time>
      </trkpt>
      <trkpt lat="49.9033" lon="4.23906">
        <ele>253</ele>
        <time>2024-04-01T08:46:12Z</time>
      </trkpt>
      <trkpt lat="49.90328" lon="4.23916">
        <ele>252.8</ele>
        <time>2024-04-01T08:46:13Z</time>
      </trkpt>
      <trkpt lat="49.90326" lon="4.23927">
        <ele>253</ele>
        <time>2024-04-01T08:46:14Z</time>
      </trkpt>
      <trkpt lat="49.90325" lon="4.23937">
        <ele>253</ele>
        <time>2024-04-01T08:46:15Z</time>
      </trkpt>
      <trkpt lat="49.90323" lon="4.23948">
        <ele>253</ele>
        <time>2024-04-01T08:46:16Z</time>
      </trkpt>
      <trkpt lat="49.90321" lon="4.23958">
        <ele>253</ele>
        <time>2024-04-01T08:46:17Z</time>
      </trkpt>
      <trkpt lat="49.9032" lon="4.23969">
        <ele>252.8</ele>
        <time>2024-04-01T08:46:18Z</time>
      </trkpt>
      <trkpt lat="49.90318" lon="4.2398">
        <ele>253</ele>
        <time>2024-04-01T08:46:19Z</time>
      </trkpt>
      <trkpt lat="49.90316" lon="4.2399">
        <ele>253.2</ele>
        <time>2024-04-01T08:46:20Z</time>
      </trkpt>
      <trkpt lat="49.90314" lon="4.24001">
        <ele>253</ele>
        <time>2024-04-01T08:46:21Z</time>
      </trkpt>
      <trkpt lat="49.90312" lon="4.24012">
        <ele>253.2</ele>
        <time>2024-04-01T08:46:22Z</time>
      </trkpt>
      <trkpt lat="49.9031" lon="4.24022">
        <ele>253.2</ele>
        <time>2024-04-01T08:46:23Z</time>
      </trkpt>
      <trkpt lat="49.90308" lon="4.24033">
        <ele>253</ele>
        <time>2024-04-01T08:46:24Z</time>
      </trkpt>
      <trkpt lat="49.90306" lon="4.24044">
        <ele>253</ele>
        <time>2024-04-01T08:46:25Z</time>
      </trkpt>
      <trkpt lat="49.90304" lon="4.24056">
        <ele>253</ele>
        <time>2024-04-01T08:46:26Z</time>
      </trkpt>
      <trkpt lat="49.90302" lon="4.24068">
        <ele>253</ele>
        <time>2024-04-01T08:46:27Z</time>
      </trkpt>
      <trkpt lat="49.903" lon="4.2408">
        <ele>253</ele>
        <time>2024-04-01T08:46:28Z</time>
      </trkpt>
      <trkpt lat="49.90298" lon="4.24092">
        <ele>253</ele>
        <time>2024-04-01T08:46:29Z</time>
      </trkpt>
      <trkpt lat="49.90296" lon="4.24104">
        <ele>252.8</ele>
        <time>2024-04-01T08:46:30Z</time>
      </trkpt>
      <trkpt lat="49.90293" lon="4.24116">
        <ele>252.6</ele>
        <time>2024-04-01T08:46:31Z</time>
      </trkpt>
      <trkpt lat="49.90291" lon="4.24128">
        <ele>252.6</ele>
        <time>2024-04-01T08:46:32Z</time>
      </trkpt>
      <trkpt lat="49.90289" lon="4.2414">
        <ele>252.2</ele>
        <time>2024-04-01T08:46:33Z</time>
      </trkpt>
      <trkpt lat="49.90287" lon="4.24152">
        <ele>251.6</ele>
        <time>2024-04-01T08:46:34Z</time>
      </trkpt>
      <trkpt lat="49.90285" lon="4.24164">
        <ele>250.6</ele>
        <time>2024-04-01T08:46:35Z</time>
      </trkpt>
      <trkpt lat="49.90283" lon="4.24176">
        <ele>250.2</ele>
        <time>2024-04-01T08:46:36Z</time>
      </trkpt>
      <trkpt lat="49.90281" lon="4.24187">
        <ele>249.8</ele>
        <time>2024-04-01T08:46:37Z</time>
      </trkpt>
      <trkpt lat="49.9028" lon="4.24197">
        <ele>249.4</ele>
        <time>2024-04-01T08:46:38Z</time>
      </trkpt>
      <trkpt lat="49.90278" lon="4.24208">
        <ele>249.4</ele>
        <time>2024-04-01T08:46:39Z</time>
      </trkpt>
      <trkpt lat="49.90276" lon="4.24218">
        <ele>249.2</ele>
        <time>2024-04-01T08:46:40Z</time>
      </trkpt>
      <trkpt lat="49.90275" lon="4.24228">
        <ele>249</ele>
        <time>2024-04-01T08:46:41Z</time>
      </trkpt>
      <trkpt lat="49.90273" lon="4.24238">
        <ele>249</ele>
        <time>2024-04-01T08:46:42Z</time>
      </trkpt>
      <trkpt lat="49.90272" lon="4.24247">
        <ele>249.2</ele>
        <time>2024-04-01T08:46:43Z</time>
      </trkpt>
      <trkpt lat="49.9027" lon="4.24256">
        <ele>249</ele>
        <time>2024-04-01T08:46:44Z</time>
      </trkpt>
      <trkpt lat="49.90269" lon="4.24266">
        <ele>249</ele>
        <time>2024-04-01T08:46:45Z</time>
      </trkpt>
      <trkpt lat="49.90267" lon="4.24274">
        <ele>249</ele>
        <time>2024-04-01T08:46:46Z</time>
      </trkpt>
      <trkpt lat="49.90266" lon="4.24283">
        <ele>249.2</ele>
        <time>2024-04-01T08:46:47Z</time>
      </trkpt>
      <trkpt lat="49.90265" lon="4.24292">
        <ele>249.2</ele>
        <time>2024-04-01T08:46:48Z</time>
      </trkpt>
      <trkpt lat="49.90263" lon="4.243">
        <ele>249.6</ele>
        <time>2024-04-01T08:46:49Z</time>
      </trkpt>
      <trkpt lat="49.90262" lon="4.24309">
        <ele>250</ele>
        <time>2024-04-01T08:46:50Z</time>
      </trkpt>
      <trkpt lat="49.9026" lon="4.24317">
        <ele>250.2</ele>
        <time>2024-04-01T08:46:51Z</time>
      </trkpt>
      <trkpt lat="49.90258" lon="4.24326">
        <ele>250.6</ele>
        <time>2024-04-01T08:46:52Z</time>
      </trkpt>
      <trkpt lat="49.90257" lon="4.24334">
        <ele>250.8</ele>
        <time>2024-04-01T08:46:53Z</time>
      </trkpt>
      <trkpt lat="49.90255" lon="4.24342">
        <ele>251.4</ele>
        <time>2024-04-01T08:46:54Z</time>
      </trkpt>
      <trkpt lat="49.90254" lon="4.2435">
        <ele>252</ele>
        <time>2024-04-01T08:46:55Z</time>
      </trkpt>
      <trkpt lat="49.90252" lon="4.24359">
        <ele>252.2</ele>
        <time>2024-04-01T08:46:56Z</time>
      </trkpt>
      <trkpt lat="49.90251" lon="4.24367">
        <ele>252.6</ele>
        <time>2024-04-01T08:46:57Z</time>
      </trkpt>
      <trkpt lat="49.9025" lon="4.24376">
        <ele>252.6</ele>
        <time>2024-04-01T08:46:58Z</time>
      </trkpt>
      <trkpt lat="49.90248" lon="4.24384">
        <ele>252.8</ele>
        <time>2024-04-01T08:46:59Z</time>
      </trkpt>
      <trkpt lat="49.90247" lon="4.24393">
        <ele>252.8</ele>
        <time>2024-04-01T08:47:00Z</time>
      </trkpt>
      <trkpt lat="49.90246" lon="4.24401">
        <ele>253.2</ele>
        <time>2024-04-01T08:47:01Z</time>
      </trkpt>
      <trkpt lat="49.90244" lon="4.24409">
        <ele>253.2</ele>
        <time>2024-04-01T08:47:02Z</time>
      </trkpt>
      <trkpt lat="49.90243" lon="4.24417">
        <ele>253.2</ele>
        <time>2024-04-01T08:47:03Z</time>
      </trkpt>
      <trkpt lat="49.90242" lon="4.24425">
        <ele>253.2</ele>
        <time>2024-04-01T08:47:04Z</time>
      </trkpt>
      <trkpt lat="49.90241" lon="4.24432">
        <ele>253.2</ele>
        <time>2024-04-01T08:47:05Z</time>
      </trkpt>
      <trkpt lat="49.90239" lon="4.2444">
        <ele>253.2</ele>
        <time>2024-04-01T08:47:06Z</time>
      </trkpt>
      <trkpt lat="49.90237" lon="4.24446">
        <ele>253.4</ele>
        <time>2024-04-01T08:47:07Z</time>
      </trkpt>
      <trkpt lat="49.90234" lon="4.2445">
        <ele>253.6</ele>
        <time>2024-04-01T08:47:08Z</time>
      </trkpt>
      <trkpt lat="49.90231" lon="4.24452">
        <ele>253.8</ele>
        <time>2024-04-01T08:47:09Z</time>
      </trkpt>
      <trkpt lat="49.90226" lon="4.24454">
        <ele>254.2</ele>
        <time>2024-04-01T08:47:10Z</time>
      </trkpt>
      <trkpt lat="49.90222" lon="4.24455">
        <ele>254.4</ele>
        <time>2024-04-01T08:47:11Z</time>
      </trkpt>
      <trkpt lat="49.90217" lon="4.24455">
        <ele>254.6</ele>
        <time>2024-04-01T08:47:12Z</time>
      </trkpt>
      <trkpt lat="49.90212" lon="4.24455">
        <ele>254.8</ele>
        <time>2024-04-01T08:47:13Z</time>
      </trkpt>
      <trkpt lat="49.90206" lon="4.24456">
        <ele>255.2</ele>
        <time>2024-04-01T08:47:14Z</time>
      </trkpt>
      <trkpt lat="49.90201" lon="4.24457">
        <ele>255.6</ele>
        <time>2024-04-01T08:47:15Z</time>
      </trkpt>
      <trkpt lat="49.90196" lon="4.24457">
        <ele>256</ele>
        <time>2024-04-01T08:47:16Z</time>
      </trkpt>
      <trkpt lat="49.90192" lon="4.24457">
        <ele>256.2</ele>
        <time>2024-04-01T08:47:17Z</time>
      </trkpt>
      <trkpt lat="49.90186" lon="4.24457">
        <ele>256.4</ele>
        <time>2024-04-01T08:47:18Z</time>
      </trkpt>
      <trkpt lat="49.90181" lon="4.24458">
        <ele>256.6</ele>
        <time>2024-04-01T08:47:19Z</time>
      </trkpt>
      <trkpt lat="49.90174" lon="4.24458">
        <ele>256.8</ele>
        <time>2024-04-01T08:47:20Z</time>
      </trkpt>
      <trkpt lat="49.90167" lon="4.24459">
        <ele>256.8</ele>
        <time>2024-04-01T08:47:21Z</time>
      </trkpt>
      <trkpt lat="49.90161" lon="4.24459">
        <ele>257</ele>
        <time>2024-04-01T08:47:22Z</time>
      </trkpt>
      <trkpt lat="49.90155" lon="4.2446">
        <ele>257.2</ele>
        <time>2024-04-01T08:47:23Z</time>
      </trkpt>
      <trkpt lat="49.90148" lon="4.24461">
        <ele>257</ele>
        <time>2024-04-01T08:47:24Z</time>
      </trkpt>
      <trkpt lat="49.90141" lon="4.24461">
        <ele>257</ele>
        <time>2024-04-01T08:47:25Z</time>
      </trkpt>
      <trkpt lat="49.90135" lon="4.24462">
        <ele>257.2</ele>
        <time>2024-04-01T08:47:26Z</time>
      </trkpt>
      <trkpt lat="49.90128" lon="4.24462">
        <ele>257.2</ele>
        <time>2024-04-01T08:47:27Z</time>
      </trkpt>
      <trkpt lat="49.90122" lon="4.24463">
        <ele>257.2</ele>
        <time>2024-04-01T08:47:28Z</time>
      </trkpt>
      <trkpt lat="49.90115" lon="4.24463">
        <ele>257.2</ele>
        <time>2024-04-01T08:47:29Z</time>
      </trkpt>
      <trkpt lat="49.90108" lon="4.24464">
        <ele>257.2</ele>
        <time>2024-04-01T08:47:30Z</time>
      </trkpt>
      <trkpt lat="49.90101" lon="4.24464">
        <ele>257.2</ele>
        <time>2024-04-01T08:47:31Z</time>
      </trkpt>
      <trkpt lat="49.90094" lon="4.24465">
        <ele>257</ele>
        <time>2024-04-01T08:47:32Z</time>
      </trkpt>
      <trkpt lat="49.90088" lon="4.24465">
        <ele>256.8</ele>
        <time>2024-04-01T08:47:33Z</time>
      </trkpt>
      <trkpt lat="49.90081" lon="4.24466">
        <ele>256.8</ele>
        <time>2024-04-01T08:47:34Z</time>
      </trkpt>
      <trkpt lat="49.90074" lon="4.24466">
        <ele>256.8</ele>
        <time>2024-04-01T08:47:35Z</time>
      </trkpt>
      <trkpt lat="49.90066" lon="4.24467">
        <ele>256.6</ele>
        <time>2024-04-01T08:47:36Z</time>
      </trkpt>
      <trkpt lat="49.90059" lon="4.24467">
        <ele>256.6</ele>
        <time>2024-04-01T08:47:37Z</time>
      </trkpt>
      <trkpt lat="49.90051" lon="4.24467">
        <ele>256.6</ele>
        <time>2024-04-01T08:47:38Z</time>
      </trkpt>
      <trkpt lat="49.90043" lon="4.24468">
        <ele>256.4</ele>
        <time>2024-04-01T08:47:39Z</time>
      </trkpt>
      <trkpt lat="49.90036" lon="4.24468">
        <ele>256.4</ele>
        <time>2024-04-01T08:47:40Z</time>
      </trkpt>
      <trkpt lat="49.90028" lon="4.24467">
        <ele>256.4</ele>
        <time>2024-04-01T08:47:41Z</time>
      </trkpt>
      <trkpt lat="49.9002" lon="4.24467">
        <ele>256</ele>
        <time>2024-04-01T08:47:42Z</time>
      </trkpt>
      <trkpt lat="49.90012" lon="4.24468">
        <ele>255.4</ele>
        <time>2024-04-01T08:47:43Z</time>
      </trkpt>
      <trkpt lat="49.90005" lon="4.24469">
        <ele>255.2</ele>
        <time>2024-04-01T08:47:44Z</time>
      </trkpt>
      <trkpt lat="49.89996" lon="4.2447">
        <ele>255</ele>
        <time>2024-04-01T08:47:45Z</time>
      </trkpt>
      <trkpt lat="49.89988" lon="4.2447">
        <ele>254.6</ele>
        <time>2024-04-01T08:47:46Z</time>
      </trkpt>
      <trkpt lat="49.89979" lon="4.24471">
        <ele>254.4</ele>
        <time>2024-04-01T08:47:47Z</time>
      </trkpt>
      <trkpt lat="49.89971" lon="4.24472">
        <ele>254.2</ele>
        <time>2024-04-01T08:47:48Z</time>
      </trkpt>
      <trkpt lat="49.89964" lon="4.24473">
        <ele>254</ele>
        <time>2024-04-01T08:47:49Z</time>
      </trkpt>
      <trkpt lat="49.89956" lon="4.24473">
        <ele>253.4</ele>
        <time>2024-04-01T08:47:50Z</time>
      </trkpt>
      <trkpt lat="49.89949" lon="4.24474">
        <ele>253</ele>
        <time>2024-04-01T08:47:51Z</time>
      </trkpt>
      <trkpt lat="49.89941" lon="4.24475">
        <ele>253</ele>
        <time>2024-04-01T08:47:52Z</time>
      </trkpt>
      <trkpt lat="49.89934" lon="4.24475">
        <ele>252.6</ele>
        <time>2024-04-01T08:47:53Z</time>
      </trkpt>
      <trkpt lat="49.89926" lon="4.24475">
        <ele>252.2</ele>
        <time>2024-04-01T08:47:54Z</time>
      </trkpt>
      <trkpt lat="49.89918" lon="4.24475">
        <ele>252.2</ele>
        <time>2024-04-01T08:47:55Z</time>
      </trkpt>
      <trkpt lat="49.8991" lon="4.24475">
        <ele>251.8</ele>
        <time>2024-04-01T08:47:56Z</time>
      </trkpt>
      <trkpt lat="49.89901" lon="4.24474">
        <ele>251.6</ele>
        <time>2024-04-01T08:47:57Z</time>
      </trkpt>
      <trkpt lat="49.89893" lon="4.24472">
        <ele>251.8</ele>
        <time>2024-04-01T08:47:58Z</time>
      </trkpt>
      <trkpt lat="49.89886" lon="4.24469">
        <ele>251.8</ele>
        <time>2024-04-01T08:47:59Z</time>
      </trkpt>
      <trkpt lat="49.89879" lon="4.24465">
        <ele>251.6</ele>
        <time>2024-04-01T08:48:00Z</time>
      </trkpt>
      <trkpt lat="49.89872" lon="4.2446">
        <ele>251.2</ele>
        <time>2024-04-01T08:48:01Z</time>
      </trkpt>
      <trkpt lat="49.89865" lon="4.24454">
        <ele>251</ele>
        <time>2024-04-01T08:48:02Z</time>
      </trkpt>
      <trkpt lat="49.89859" lon="4.24448">
        <ele>250.6</ele>
        <time>2024-04-01T08:48:03Z</time>
      </trkpt>
      <trkpt lat="49.89852" lon="4.24442">
        <ele>250.2</ele>
        <time>2024-04-01T08:48:04Z</time>
      </trkpt>
      <trkpt lat="49.89846" lon="4.24437">
        <ele>249.6</ele>
        <time>2024-04-01T08:48:05Z</time>
      </trkpt>
      <trkpt lat="49.8984" lon="4.24432">
        <ele>249.2</ele>
        <time>2024-04-01T08:48:06Z</time>
      </trkpt>
      <trkpt lat="49.89834" lon="4.24427">
        <ele>248.8</ele>
        <time>2024-04-01T08:48:07Z</time>
      </trkpt>
      <trkpt lat="49.89827" lon="4.24421">
        <ele>248.4</ele>
        <time>2024-04-01T08:48:08Z</time>
      </trkpt>
      <trkpt lat="49.89821" lon="4.24416">
        <ele>248.4</ele>
        <time>2024-04-01T08:48:09Z</time>
      </trkpt>
      <trkpt lat="49.89814" lon="4.2441">
        <ele>248.2</ele>
        <time>2024-04-01T08:48:10Z</time>
      </trkpt>
      <trkpt lat="49.89808" lon="4.24403">
        <ele>248</ele>
        <time>2024-04-01T08:48:11Z</time>
      </trkpt>
      <trkpt lat="49.89801" lon="4.24396">
        <ele>247.8</ele>
        <time>2024-04-01T08:48:12Z</time>
      </trkpt>
      <trkpt lat="49.89794" lon="4.24389">
        <ele>247.6</ele>
        <time>2024-04-01T08:48:13Z</time>
      </trkpt>
      <trkpt lat="49.89788" lon="4.24383">
        <ele>247.4</ele>
        <time>2024-04-01T08:48:14Z</time>
      </trkpt>
      <trkpt lat="49.89782" lon="4.24377">
        <ele>247.2</ele>
        <time>2024-04-01T08:48:15Z</time>
      </trkpt>
      <trkpt lat="49.89776" lon="4.24371">
        <ele>247.2</ele>
        <time>2024-04-01T08:48:16Z</time>
      </trkpt>
      <trkpt lat="49.8977" lon="4.24365">
        <ele>247</ele>
        <time>2024-04-01T08:48:17Z</time>
      </trkpt>
      <trkpt lat="49.89763" lon="4.24359">
        <ele>246.8</ele>
        <time>2024-04-01T08:48:18Z</time>
      </trkpt>
      <trkpt lat="49.89756" lon="4.24353">
        <ele>246.4</ele>
        <time>2024-04-01T08:48:19Z</time>
      </trkpt>
      <trkpt lat="49.8975" lon="4.24347">
        <ele>246.4</ele>
        <time>2024-04-01T08:48:20Z</time>
      </trkpt>
      <trkpt lat="49.89744" lon="4.24342">
        <ele>246.2</ele>
        <time>2024-04-01T08:48:21Z</time>
      </trkpt>
      <trkpt lat="49.89738" lon="4.24336">
        <ele>246</ele>
        <time>2024-04-01T08:48:22Z</time>
      </trkpt>
      <trkpt lat="49.89731" lon="4.2433">
        <ele>245.8</ele>
        <time>2024-04-01T08:48:23Z</time>
      </trkpt>
      <trkpt lat="49.89724" lon="4.24326">
        <ele>245.2</ele>
        <time>2024-04-01T08:48:24Z</time>
      </trkpt>
      <trkpt lat="49.89717" lon="4.24321">
        <ele>245.2</ele>
        <time>2024-04-01T08:48:25Z</time>
      </trkpt>
      <trkpt lat="49.8971" lon="4.24316">
        <ele>244.8</ele>
        <time>2024-04-01T08:48:26Z</time>
      </trkpt>
      <trkpt lat="49.89704" lon="4.24311">
        <ele>244.4</ele>
        <time>2024-04-01T08:48:27Z</time>
      </trkpt>
      <trkpt lat="49.89697" lon="4.24305">
        <ele>244.2</ele>
        <time>2024-04-01T08:48:28Z</time>
      </trkpt>
      <trkpt lat="49.89689" lon="4.243">
        <ele>244.2</ele>
        <time>2024-04-01T08:48:29Z</time>
      </trkpt>
      <trkpt lat="49.89682" lon="4.24294">
        <ele>244.2</ele>
        <time>2024-04-01T08:48:30Z</time>
      </trkpt>
      <trkpt lat="49.89676" lon="4.24289">
        <ele>244</ele>
        <time>2024-04-01T08:48:31Z</time>
      </trkpt>
      <trkpt lat="49.89671" lon="4.24284">
        <ele>244</ele>
        <time>2024-04-01T08:48:32Z</time>
      </trkpt>
      <trkpt lat="49.89666" lon="4.2428">
        <ele>244</ele>
        <time>2024-04-01T08:48:33Z</time>
      </trkpt>
      <trkpt lat="49.8966" lon="4.24275">
        <ele>244</ele>
        <time>2024-04-01T08:48:34Z</time>
      </trkpt>
      <trkpt lat="49.89653" lon="4.2427">
        <ele>244</ele>
        <time>2024-04-01T08:48:35Z</time>
      </trkpt>
      <trkpt lat="49.89647" lon="4.24265">
        <ele>243.8</ele>
        <time>2024-04-01T08:48:36Z</time>
      </trkpt>
      <trkpt lat="49.8964" lon="4.24259">
        <ele>244</ele>
        <time>2024-04-01T08:48:37Z</time>
      </trkpt>
      <trkpt lat="49.89633" lon="4.24254">
        <ele>244</ele>
        <time>2024-04-01T08:48:38Z</time>
      </trkpt>
      <trkpt lat="49.89627" lon="4.24249">
        <ele>243.8</ele>
        <time>2024-04-01T08:48:39Z</time>
      </trkpt>
      <trkpt lat="49.89621" lon="4.24243">
        <ele>244</ele>
        <time>2024-04-01T08:48:40Z</time>
      </trkpt>
      <trkpt lat="49.89615" lon="4.24238">
        <ele>244</ele>
        <time>2024-04-01T08:48:41Z</time>
      </trkpt>
      <trkpt lat="49.89606" lon="4.24231">
        <ele>244</ele>
        <time>2024-04-01T08:48:42Z</time>
      </trkpt>
      <trkpt lat="49.89597" lon="4.24223">
        <ele>243.8</ele>
        <time>2024-04-01T08:48:43Z</time>
      </trkpt>
      <trkpt lat="49.89591" lon="4.24217">
        <ele>243.6</ele>
        <time>2024-04-01T08:48:44Z</time>
      </trkpt>
      <trkpt lat="49.89584" lon="4.24211">
        <ele>243.4</ele>
        <time>2024-04-01T08:48:45Z</time>
      </trkpt>
      <trkpt lat="49.89576" lon="4.24204">
        <ele>243.2</ele>
        <time>2024-04-01T08:48:46Z</time>
      </trkpt>
      <trkpt lat="49.89569" lon="4.24198">
        <ele>243.2</ele>
        <time>2024-04-01T08:48:47Z</time>
      </trkpt>
      <trkpt lat="49.89562" lon="4.24192">
        <ele>243</ele>
        <time>2024-04-01T08:48:48Z</time>
      </trkpt>
      <trkpt lat="49.89555" lon="4.24186">
        <ele>243.2</ele>
        <time>2024-04-01T08:48:49Z</time>
      </trkpt>
      <trkpt lat="49.89547" lon="4.24179">
        <ele>242.6</ele>
        <time>2024-04-01T08:48:50Z</time>
      </trkpt>
      <trkpt lat="49.89541" lon="4.24171">
        <ele>242.6</ele>
        <time>2024-04-01T08:48:51Z</time>
      </trkpt>
      <trkpt lat="49.89532" lon="4.24164">
        <ele>242.4</ele>
        <time>2024-04-01T08:48:52Z</time>
      </trkpt>
      <trkpt lat="49.89525" lon="4.24158">
        <ele>241.8</ele>
        <time>2024-04-01T08:48:53Z</time>
      </trkpt>
      <trkpt lat="49.89518" lon="4.24151">
        <ele>241</ele>
        <time>2024-04-01T08:48:54Z</time>
      </trkpt>
      <trkpt lat="49.8951" lon="4.24144">
        <ele>240.4</ele>
        <time>2024-04-01T08:48:55Z</time>
      </trkpt>
      <trkpt lat="49.89503" lon="4.24136">
        <ele>240.4</ele>
        <time>2024-04-01T08:48:56Z</time>
      </trkpt>
      <trkpt lat="49.89495" lon="4.24129">
        <ele>240.4</ele>
        <time>2024-04-01T08:48:57Z</time>
      </trkpt>
      <trkpt lat="49.89488" lon="4.24122">
        <ele>240</ele>
        <time>2024-04-01T08:48:58Z</time>
      </trkpt>
      <trkpt lat="49.89479" lon="4.24114">
        <ele>239.6</ele>
        <time>2024-04-01T08:48:59Z</time>
      </trkpt>
      <trkpt lat="49.89471" lon="4.24107">
        <ele>238.8</ele>
        <time>2024-04-01T08:49:00Z</time>
      </trkpt>
      <trkpt lat="49.89463" lon="4.241">
        <ele>237.8</ele>
        <time>2024-04-01T08:49:01Z</time>
      </trkpt>
      <trkpt lat="49.89454" lon="4.24092">
        <ele>237.2</ele>
        <time>2024-04-01T08:49:02Z</time>
      </trkpt>
      <trkpt lat="49.89445" lon="4.24083">
        <ele>236.6</ele>
        <time>2024-04-01T08:49:03Z</time>
      </trkpt>
      <trkpt lat="49.89437" lon="4.24075">
        <ele>236.2</ele>
        <time>2024-04-01T08:49:04Z</time>
      </trkpt>
      <trkpt lat="49.89428" lon="4.24067">
        <ele>235.8</ele>
        <time>2024-04-01T08:49:05Z</time>
      </trkpt>
      <trkpt lat="49.8942" lon="4.24059">
        <ele>235.6</ele>
        <time>2024-04-01T08:49:06Z</time>
      </trkpt>
      <trkpt lat="49.89412" lon="4.24052">
        <ele>235.2</ele>
        <time>2024-04-01T08:49:07Z</time>
      </trkpt>
      <trkpt lat="49.89403" lon="4.24045">
        <ele>235</ele>
        <time>2024-04-01T08:49:08Z</time>
      </trkpt>
      <trkpt lat="49.89395" lon="4.24036">
        <ele>234.8</ele>
        <time>2024-04-01T08:49:09Z</time>
      </trkpt>
      <trkpt lat="49.89387" lon="4.24028">
        <ele>234.4</ele>
        <time>2024-04-01T08:49:10Z</time>
      </trkpt>
      <trkpt lat="49.89379" lon="4.2402">
        <ele>233.8</ele>
        <time>2024-04-01T08:49:11Z</time>
      </trkpt>
      <trkpt lat="49.89371" lon="4.24012">
        <ele>232.8</ele>
        <time>2024-04-01T08:49:12Z</time>
      </trkpt>
      <trkpt lat="49.89363" lon="4.24004">
        <ele>232.4</ele>
        <time>2024-04-01T08:49:13Z</time>
      </trkpt>
      <trkpt lat="49.89355" lon="4.23995">
        <ele>232.4</ele>
        <time>2024-04-01T08:49:14Z</time>
      </trkpt>
      <trkpt lat="49.89346" lon="4.23987">
        <ele>231.4</ele>
        <time>2024-04-01T08:49:15Z</time>
      </trkpt>
      <trkpt lat="49.89337" lon="4.23979">
        <ele>230.6</ele>
        <time>2024-04-01T08:49:16Z</time>
      </trkpt>
      <trkpt lat="49.8933" lon="4.23973">
        <ele>230.2</ele>
        <time>2024-04-01T08:49:17Z</time>
      </trkpt>
      <trkpt lat="49.89322" lon="4.23965">
        <ele>229.6</ele>
        <time>2024-04-01T08:49:18Z</time>
      </trkpt>
      <trkpt lat="49.89314" lon="4.23957">
        <ele>229.2</ele>
        <time>2024-04-01T08:49:19Z</time>
      </trkpt>
      <trkpt lat="49.89307" lon="4.2395">
        <ele>229.2</ele>
        <time>2024-04-01T08:49:20Z</time>
      </trkpt>
      <trkpt lat="49.893" lon="4.23943">
        <ele>229</ele>
        <time>2024-04-01T08:49:21Z</time>
      </trkpt>
      <trkpt lat="49.89293" lon="4.23937">
        <ele>228.8</ele>
        <time>2024-04-01T08:49:22Z</time>
      </trkpt>
      <trkpt lat="49.89286" lon="4.2393">
        <ele>228.8</ele>
        <time>2024-04-01T08:49:23Z</time>
      </trkpt>
      <trkpt lat="49.89279" lon="4.23923">
        <ele>228.8</ele>
        <time>2024-04-01T08:49:24Z</time>
      </trkpt>
      <trkpt lat="49.89271" lon="4.23917">
        <ele>228.6</ele>
        <time>2024-04-01T08:49:25Z</time>
      </trkpt>
      <trkpt lat="49.89264" lon="4.23911">
        <ele>228.6</ele>
        <time>2024-04-01T08:49:26Z</time>
      </trkpt>
      <trkpt lat="49.89257" lon="4.23904">
        <ele>228.4</ele>
        <time>2024-04-01T08:49:27Z</time>
      </trkpt>
      <trkpt lat="49.8925" lon="4.23897">
        <ele>228.4</ele>
        <time>2024-04-01T08:49:28Z</time>
      </trkpt>
      <trkpt lat="49.89243" lon="4.23891">
        <ele>228.6</ele>
        <time>2024-04-01T08:49:29Z</time>
      </trkpt>
      <trkpt lat="49.89236" lon="4.23885">
        <ele>228.4</ele>
        <time>2024-04-01T08:49:30Z</time>
      </trkpt>
      <trkpt lat="49.89229" lon="4.23878">
        <ele>228.4</ele>
        <time>2024-04-01T08:49:31Z</time>
      </trkpt>
      <trkpt lat="49.89222" lon="4.23871">
        <ele>228.4</ele>
        <time>2024-04-01T08:49:32Z</time>
      </trkpt>
      <trkpt lat="49.89215" lon="4.23865">
        <ele>228.2</ele>
        <time>2024-04-01T08:49:33Z</time>
      </trkpt>
      <trkpt lat="49.89208" lon="4.23859">
        <ele>228.2</ele>
        <time>2024-04-01T08:49:34Z</time>
      </trkpt>
      <trkpt lat="49.89201" lon="4.23853">
        <ele>228</ele>
        <time>2024-04-01T08:49:35Z</time>
      </trkpt>
      <trkpt lat="49.89194" lon="4.23847">
        <ele>227.8</ele>
        <time>2024-04-01T08:49:36Z</time>
      </trkpt>
      <trkpt lat="49.89186" lon="4.23843">
        <ele>227.8</ele>
        <time>2024-04-01T08:49:37Z</time>
      </trkpt>
      <trkpt lat="49.89179" lon="4.23839">
        <ele>227.8</ele>
        <time>2024-04-01T08:49:38Z</time>
      </trkpt>
      <trkpt lat="49.89171" lon="4.23835">
        <ele>227.4</ele>
        <time>2024-04-01T08:49:39Z</time>
      </trkpt>
      <trkpt lat="49.89163" lon="4.23832">
        <ele>227.4</ele>
        <time>2024-04-01T08:49:40Z</time>
      </trkpt>
      <trkpt lat="49.89155" lon="4.2383">
        <ele>227.2</ele>
        <time>2024-04-01T08:49:41Z</time>
      </trkpt>
      <trkpt lat="49.89147" lon="4.23827">
        <ele>227.4</ele>
        <time>2024-04-01T08:49:42Z</time>
      </trkpt>
      <trkpt lat="49.89139" lon="4.23825">
        <ele>227</ele>
        <time>2024-04-01T08:49:43Z</time>
      </trkpt>
      <trkpt lat="49.89131" lon="4.23823">
        <ele>227</ele>
        <time>2024-04-01T08:49:44Z</time>
      </trkpt>
      <trkpt lat="49.89123" lon="4.23821">
        <ele>226.6</ele>
        <time>2024-04-01T08:49:45Z</time>
      </trkpt>
      <trkpt lat="49.89115" lon="4.23819">
        <ele>225.6</ele>
        <time>2024-04-01T08:49:46Z</time>
      </trkpt>
      <trkpt lat="49.89107" lon="4.23818">
        <ele>225.6</ele>
        <time>2024-04-01T08:49:47Z</time>
      </trkpt>
      <trkpt lat="49.89099" lon="4.23817">
        <ele>225.2</ele>
        <time>2024-04-01T08:49:48Z</time>
      </trkpt>
      <trkpt lat="49.89091" lon="4.23817">
        <ele>224.6</ele>
        <time>2024-04-01T08:49:49Z</time>
      </trkpt>
      <trkpt lat="49.89083" lon="4.23819">
        <ele>224.4</ele>
        <time>2024-04-01T08:49:50Z</time>
      </trkpt>
      <trkpt lat="49.89076" lon="4.23823">
        <ele>224</ele>
        <time>2024-04-01T08:49:51Z</time>
      </trkpt>
      <trkpt lat="49.89068" lon="4.23829">
        <ele>223.6</ele>
        <time>2024-04-01T08:49:52Z</time>
      </trkpt>
      <trkpt lat="49.89061" lon="4.23836">
        <ele>223.4</ele>
        <time>2024-04-01T08:49:53Z</time>
      </trkpt>
      <trkpt lat="49.89054" lon="4.23844">
        <ele>223.2</ele>
        <time>2024-04-01T08:49:54Z</time>
      </trkpt>
      <trkpt lat="49.89047" lon="4.23852">
        <ele>223</ele>
        <time>2024-04-01T08:49:55Z</time>
      </trkpt>
      <trkpt lat="49.8904" lon="4.23861">
        <ele>222.8</ele>
        <time>2024-04-01T08:49:56Z</time>
      </trkpt>
      <trkpt lat="49.89033" lon="4.23869">
        <ele>222.6</ele>
        <time>2024-04-01T08:49:57Z</time>
      </trkpt>
      <trkpt lat="49.89026" lon="4.23877">
        <ele>222.4</ele>
        <time>2024-04-01T08:49:58Z</time>
      </trkpt>
      <trkpt lat="49.89019" lon="4.23885">
        <ele>222</ele>
        <time>2024-04-01T08:49:59Z</time>
      </trkpt>
      <trkpt lat="49.89012" lon="4.23893">
        <ele>222</ele>
        <time>2024-04-01T08:50:00Z</time>
      </trkpt>
      <trkpt lat="49.89005" lon="4.23901">
        <ele>221.8</ele>
        <time>2024-04-01T08:50:01Z</time>
      </trkpt>
      <trkpt lat="49.88998" lon="4.2391">
        <ele>221.4</ele>
        <time>2024-04-01T08:50:02Z</time>
      </trkpt>
      <trkpt lat="49.8899" lon="4.23918">
        <ele>221.4</ele>
        <time>2024-04-01T08:50:03Z</time>
      </trkpt>
      <trkpt lat="49.88983" lon="4.23926">
        <ele>221</ele>
        <time>2024-04-01T08:50:04Z</time>
      </trkpt>
      <trkpt lat="49.88976" lon="4.23935">
        <ele>221</ele>
        <time>2024-04-01T08:50:05Z</time>
      </trkpt>
      <trkpt lat="49.88969" lon="4.23943">
        <ele>220.6</ele>
        <time>2024-04-01T08:50:06Z</time>
      </trkpt>
      <trkpt lat="49.88961" lon="4.23951">
        <ele>220.2</ele>
        <time>2024-04-01T08:50:07Z</time>
      </trkpt>
      <trkpt lat="49.88954" lon="4.2396">
        <ele>219</ele>
        <time>2024-04-01T08:50:08Z</time>
      </trkpt>
      <trkpt lat="49.88947" lon="4.23968">
        <ele>218</ele>
        <time>2024-04-01T08:50:09Z</time>
      </trkpt>
      <trkpt lat="49.8894" lon="4.23976">
        <ele>217.2</ele>
        <time>2024-04-01T08:50:10Z</time>
      </trkpt>
      <trkpt lat="49.88932" lon="4.23984">
        <ele>217</ele>
        <time>2024-04-01T08:50:11Z</time>
      </trkpt>
      <trkpt lat="49.88925" lon="4.23993">
        <ele>216.8</ele>
        <time>2024-04-01T08:50:12Z</time>
      </trkpt>
      <trkpt lat="49.88917" lon="4.24">
        <ele>216.6</ele>
        <time>2024-04-01T08:50:13Z</time>
      </trkpt>
      <trkpt lat="49.8891" lon="4.24007">
        <ele>216.4</ele>
        <time>2024-04-01T08:50:14Z</time>
      </trkpt>
      <trkpt lat="49.88902" lon="4.24013">
        <ele>216</ele>
        <time>2024-04-01T08:50:15Z</time>
      </trkpt>
      <trkpt lat="49.88894" lon="4.24019">
        <ele>215.8</ele>
        <time>2024-04-01T08:50:16Z</time>
      </trkpt>
      <trkpt lat="49.88886" lon="4.24024">
        <ele>215.4</ele>
        <time>2024-04-01T08:50:17Z</time>
      </trkpt>
      <trkpt lat="49.88878" lon="4.24029">
        <ele>215.4</ele>
        <time>2024-04-01T08:50:18Z</time>
      </trkpt>
      <trkpt lat="49.88869" lon="4.24033">
        <ele>215.4</ele>
        <time>2024-04-01T08:50:19Z</time>
      </trkpt>
      <trkpt lat="49.8886" lon="4.24037">
        <ele>215</ele>
        <time>2024-04-01T08:50:20Z</time>
      </trkpt>
      <trkpt lat="49.88852" lon="4.2404">
        <ele>214</ele>
        <time>2024-04-01T08:50:21Z</time>
      </trkpt>
      <trkpt lat="49.88843" lon="4.24044">
        <ele>214</ele>
        <time>2024-04-01T08:50:22Z</time>
      </trkpt>
      <trkpt lat="49.88834" lon="4.24048">
        <ele>213.4</ele>
        <time>2024-04-01T08:50:23Z</time>
      </trkpt>
      <trkpt lat="49.88825" lon="4.24052">
        <ele>212.8</ele>
        <time>2024-04-01T08:50:24Z</time>
      </trkpt>
      <trkpt lat="49.88816" lon="4.24055">
        <ele>212.6</ele>
        <time>2024-04-01T08:50:25Z</time>
      </trkpt>
      <trkpt lat="49.88807" lon="4.24059">
        <ele>212.4</ele>
        <time>2024-04-01T08:50:26Z</time>
      </trkpt>
      <trkpt lat="49.88798" lon="4.24063">
        <ele>212</ele>
        <time>2024-04-01T08:50:27Z</time>
      </trkpt>
      <trkpt lat="49.88789" lon="4.24066">
        <ele>211.8</ele>
        <time>2024-04-01T08:50:28Z</time>
      </trkpt>
      <trkpt lat="49.8878" lon="4.24069">
        <ele>211.4</ele>
        <time>2024-04-01T08:50:29Z</time>
      </trkpt>
      <trkpt lat="49.88771" lon="4.24072">
        <ele>211.2</ele>
        <time>2024-04-01T08:50:30Z</time>
      </trkpt>
      <trkpt lat="49.88762" lon="4.24075">
        <ele>211</ele>
        <time>2024-04-01T08:50:31Z</time>
      </trkpt>
      <trkpt lat="49.88752" lon="4.24077">
        <ele>211</ele>
        <time>2024-04-01T08:50:32Z</time>
      </trkpt>
      <trkpt lat="49.88743" lon="4.24078">
        <ele>210.4</ele>
        <time>2024-04-01T08:50:33Z</time>
      </trkpt>
      <trkpt lat="49.88733" lon="4.24078">
        <ele>209.6</ele>
        <time>2024-04-01T08:50:34Z</time>
      </trkpt>
      <trkpt lat="49.88723" lon="4.24077">
        <ele>209.2</ele>
        <time>2024-04-01T08:50:35Z</time>
      </trkpt>
      <trkpt lat="49.88713" lon="4.24075">
        <ele>209.2</ele>
        <time>2024-04-01T08:50:36Z</time>
      </trkpt>
      <trkpt lat="49.88703" lon="4.24074">
        <ele>208.6</ele>
        <time>2024-04-01T08:50:37Z</time>
      </trkpt>
      <trkpt lat="49.88694" lon="4.24072">
        <ele>208</ele>
        <time>2024-04-01T08:50:38Z</time>
      </trkpt>
      <trkpt lat="49.88684" lon="4.24071">
        <ele>208</ele>
        <time>2024-04-01T08:50:39Z</time>
      </trkpt>
      <trkpt lat="49.88675" lon="4.24069">
        <ele>207.4</ele>
        <time>2024-04-01T08:50:40Z</time>
      </trkpt>
      <trkpt lat="49.88666" lon="4.24067">
        <ele>206.8</ele>
        <time>2024-04-01T08:50:41Z</time>
      </trkpt>
      <trkpt lat="49.88657" lon="4.24065">
        <ele>206.4</ele>
        <time>2024-04-01T08:50:42Z</time>
      </trkpt>
      <trkpt lat="49.88647" lon="4.24063">
        <ele>205.8</ele>
        <time>2024-04-01T08:50:43Z</time>
      </trkpt>
      <trkpt lat="49.88638" lon="4.24061">
        <ele>205.4</ele>
        <time>2024-04-01T08:50:44Z</time>
      </trkpt>
      <trkpt lat="49.88629" lon="4.2406">
        <ele>204.6</ele>
        <time>2024-04-01T08:50:45Z</time>
      </trkpt>
      <trkpt lat="49.8862" lon="4.24058">
        <ele>203.6</ele>
        <time>2024-04-01T08:50:46Z</time>
      </trkpt>
      <trkpt lat="49.88612" lon="4.24056">
        <ele>202.8</ele>
        <time>2024-04-01T08:50:47Z</time>
      </trkpt>
      <trkpt lat="49.88603" lon="4.24055">
        <ele>202.4</ele>
        <time>2024-04-01T08:50:48Z</time>
      </trkpt>
      <trkpt lat="49.88594" lon="4.24053">
        <ele>202.4</ele>
        <time>2024-04-01T08:50:49Z</time>
      </trkpt>
      <trkpt lat="49.88585" lon="4.24051">
        <ele>202.2</ele>
        <time>2024-04-01T08:50:50Z</time>
      </trkpt>
      <trkpt lat="49.88577" lon="4.24049">
        <ele>202</ele>
        <time>2024-04-01T08:50:51Z</time>
      </trkpt>
      <trkpt lat="49.88568" lon="4.24047">
        <ele>201.8</ele>
        <time>2024-04-01T08:50:52Z</time>
      </trkpt>
      <trkpt lat="49.8856" lon="4.24045">
        <ele>201.8</ele>
        <time>2024-04-01T08:50:53Z</time>
      </trkpt>
      <trkpt lat="49.88552" lon="4.24041">
        <ele>201.6</ele>
        <time>2024-04-01T08:50:54Z</time>
      </trkpt>
      <trkpt lat="49.88544" lon="4.24036">
        <ele>201.6</ele>
        <time>2024-04-01T08:50:55Z</time>
      </trkpt>
      <trkpt lat="49.88537" lon="4.24029">
        <ele>201.2</ele>
        <time>2024-04-01T08:50:56Z</time>
      </trkpt>
      <trkpt lat="49.88531" lon="4.24022">
        <ele>201.2</ele>
        <time>2024-04-01T08:50:57Z</time>
      </trkpt>
      <trkpt lat="49.88524" lon="4.24014">
        <ele>201.2</ele>
        <time>2024-04-01T08:50:58Z</time>
      </trkpt>
      <trkpt lat="49.88518" lon="4.24005">
        <ele>200.8</ele>
        <time>2024-04-01T08:50:59Z</time>
      </trkpt>
      <trkpt lat="49.88513" lon="4.23996">
        <ele>200.8</ele>
        <time>2024-04-01T08:51:00Z</time>
      </trkpt>
      <trkpt lat="49.88508" lon="4.23987">
        <ele>200.6</ele>
        <time>2024-04-01T08:51:01Z</time>
      </trkpt>
      <trkpt lat="49.88502" lon="4.23978">
        <ele>200.6</ele>
        <time>2024-04-01T08:51:02Z</time>
      </trkpt>
      <trkpt lat="49.88497" lon="4.23969">
        <ele>200.4</ele>
        <time>2024-04-01T08:51:03Z</time>
      </trkpt>
      <trkpt lat="49.88492" lon="4.23959">
        <ele>200.4</ele>
        <time>2024-04-01T08:51:04Z</time>
      </trkpt>
      <trkpt lat="49.88488" lon="4.2395">
        <ele>200.2</ele>
        <time>2024-04-01T08:51:05Z</time>
      </trkpt>
      <trkpt lat="49.88483" lon="4.23941">
        <ele>200.2</ele>
        <time>2024-04-01T08:51:06Z</time>
      </trkpt>
      <trkpt lat="49.88478" lon="4.23932">
        <ele>200.2</ele>
        <time>2024-04-01T08:51:07Z</time>
      </trkpt>
      <trkpt lat="49.88473" lon="4.23923">
        <ele>200.4</ele>
        <time>2024-04-01T08:51:08Z</time>
      </trkpt>
      <trkpt lat="49.88468" lon="4.23914">
        <ele>200.4</ele>
        <time>2024-04-01T08:51:09Z</time>
      </trkpt>
      <trkpt lat="49.88463" lon="4.23905">
        <ele>200.2</ele>
        <time>2024-04-01T08:51:10Z</time>
      </trkpt>
      <trkpt lat="49.88458" lon="4.23897">
        <ele>200.2</ele>
        <time>2024-04-01T08:51:11Z</time>
      </trkpt>
      <trkpt lat="49.88452" lon="4.23889">
        <ele>200</ele>
        <time>2024-04-01T08:51:12Z</time>
      </trkpt>
      <trkpt lat="49.88447" lon="4.23881">
        <ele>199.8</ele>
        <time>2024-04-01T08:51:13Z</time>
      </trkpt>
      <trkpt lat="49.88441" lon="4.23874">
        <ele>199.8</ele>
        <time>2024-04-01T08:51:14Z</time>
      </trkpt>
      <trkpt lat="49.88435" lon="4.23868">
        <ele>199.8</ele>
        <time>2024-04-01T08:51:15Z</time>
      </trkpt>
      <trkpt lat="49.88428" lon="4.23862">
        <ele>199.6</ele>
        <time>2024-04-01T08:51:16Z</time>
      </trkpt>
      <trkpt lat="49.88422" lon="4.23856">
        <ele>199.8</ele>
        <time>2024-04-01T08:51:17Z</time>
      </trkpt>
      <trkpt lat="49.88416" lon="4.2385">
        <ele>199.6</ele>
        <time>2024-04-01T08:51:18Z</time>
      </trkpt>
      <trkpt lat="49.8841" lon="4.23844">
        <ele>199.8</ele>
        <time>2024-04-01T08:51:19Z</time>
      </trkpt>
      <trkpt lat="49.88403" lon="4.23839">
        <ele>199.8</ele>
        <time>2024-04-01T08:51:20Z</time>
      </trkpt>
      <trkpt lat="49.88397" lon="4.23833">
        <ele>199.8</ele>
        <time>2024-04-01T08:51:21Z</time>
      </trkpt>
      <trkpt lat="49.88391" lon="4.23827">
        <ele>199.8</ele>
        <time>2024-04-01T08:51:22Z</time>
      </trkpt>
      <trkpt lat="49.88384" lon="4.23822">
        <ele>199.8</ele>
        <time>2024-04-01T08:51:23Z</time>
      </trkpt>
      <trkpt lat="49.88378" lon="4.23816">
        <ele>199.6</ele>
        <time>2024-04-01T08:51:24Z</time>
      </trkpt>
      <trkpt lat="49.88372" lon="4.23811">
        <ele>199.8</ele>
        <time>2024-04-01T08:51:25Z</time>
      </trkpt>
      <trkpt lat="49.88365" lon="4.23805">
        <ele>199.6</ele>
        <time>2024-04-01T08:51:26Z</time>
      </trkpt>
      <trkpt lat="49.88359" lon="4.238">
        <ele>199.8</ele>
        <time>2024-04-01T08:51:27Z</time>
      </trkpt>
      <trkpt lat="49.88353" lon="4.23794">
        <ele>199.6</ele>
        <time>2024-04-01T08:51:28Z</time>
      </trkpt>
      <trkpt lat="49.88347" lon="4.23787">
        <ele>199.8</ele>
        <time>2024-04-01T08:51:29Z</time>
      </trkpt>
      <trkpt lat="49.88342" lon="4.23781">
        <ele>200</ele>
        <time>2024-04-01T08:51:30Z</time>
      </trkpt>
      <trkpt lat="49.88337" lon="4.23773">
        <ele>200</ele>
        <time>2024-04-01T08:51:31Z</time>
      </trkpt>
      <trkpt lat="49.88332" lon="4.23765">
        <ele>200</ele>
        <time>2024-04-01T08:51:32Z</time>
      </trkpt>
      <trkpt lat="49.88327" lon="4.23757">
        <ele>200</ele>
        <time>2024-04-01T08:51:33Z</time>
      </trkpt>
      <trkpt lat="49.88323" lon="4.23748">
        <ele>200.2</ele>
        <time>2024-04-01T08:51:34Z</time>
      </trkpt>
      <trkpt lat="49.88319" lon="4.23739">
        <ele>200.4</ele>
        <time>2024-04-01T08:51:35Z</time>
      </trkpt>
      <trkpt lat="49.88315" lon="4.2373">
        <ele>200.4</ele>
        <time>2024-04-01T08:51:36Z</time>
      </trkpt>
      <trkpt lat="49.88311" lon="4.23721">
        <ele>200.6</ele>
        <time>2024-04-01T08:51:37Z</time>
      </trkpt>
      <trkpt lat="49.88307" lon="4.23712">
        <ele>200.6</ele>
        <time>2024-04-01T08:51:38Z</time>
      </trkpt>
      <trkpt lat="49.88303" lon="4.23703">
        <ele>200.6</ele>
        <time>2024-04-01T08:51:39Z</time>
      </trkpt>
      <trkpt lat="49.88299" lon="4.23694">
        <ele>200.6</ele>
        <time>2024-04-01T08:51:40Z</time>
      </trkpt>
      <trkpt lat="49.88295" lon="4.23685">
        <ele>200.8</ele>
        <time>2024-04-01T08:51:41Z</time>
      </trkpt>
      <trkpt lat="49.88291" lon="4.23676">
        <ele>200.8</ele>
        <time>2024-04-01T08:51:42Z</time>
      </trkpt>
      <trkpt lat="49.88287" lon="4.23667">
        <ele>200.8</ele>
        <time>2024-04-01T08:51:43Z</time>
      </trkpt>
      <trkpt lat="49.88283" lon="4.23658">
        <ele>200.8</ele>
        <time>2024-04-01T08:51:44Z</time>
      </trkpt>
      <trkpt lat="49.88279" lon="4.23649">
        <ele>200.8</ele>
        <time>2024-04-01T08:51:45Z</time>
      </trkpt>
      <trkpt lat="49.88275" lon="4.2364">
        <ele>200.8</ele>
        <time>2024-04-01T08:51:46Z</time>
      </trkpt>
      <trkpt lat="49.88271" lon="4.23631">
        <ele>201</ele>
        <time>2024-04-01T08:51:47Z</time>
      </trkpt>
      <trkpt lat="49.88267" lon="4.23623">
        <ele>201</ele>
        <time>2024-04-01T08:51:48Z</time>
      </trkpt>
      <trkpt lat="49.88264" lon="4.23614">
        <ele>201</ele>
        <time>2024-04-01T08:51:49Z</time>
      </trkpt>
      <trkpt lat="49.8826" lon="4.23605">
        <ele>201.2</ele>
        <time>2024-04-01T08:51:50Z</time>
      </trkpt>
      <trkpt lat="49.88256" lon="4.23597">
        <ele>201.2</ele>
        <time>2024-04-01T08:51:51Z</time>
      </trkpt>
      <trkpt lat="49.88252" lon="4.23588">
        <ele>201</ele>
        <time>2024-04-01T08:51:52Z</time>
      </trkpt>
      <trkpt lat="49.88248" lon="4.2358">
        <ele>201</ele>
        <time>2024-04-01T08:51:53Z</time>
      </trkpt>
      <trkpt lat="49.88245" lon="4.23572">
        <ele>201</ele>
        <time>2024-04-01T08:51:54Z</time>
      </trkpt>
      <trkpt lat="49.88241" lon="4.23564">
        <ele>201</ele>
        <time>2024-04-01T08:51:55Z</time>
      </trkpt>
      <trkpt lat="49.88237" lon="4.23556">
        <ele>200.8</ele>
        <time>2024-04-01T08:51:56Z</time>
      </trkpt>
      <trkpt lat="49.88233" lon="4.23547">
        <ele>200.6</ele>
        <time>2024-04-01T08:51:57Z</time>
      </trkpt>
      <trkpt lat="49.8823" lon="4.23539">
        <ele>200.4</ele>
        <time>2024-04-01T08:51:58Z</time>
      </trkpt>
      <trkpt lat="49.88226" lon="4.2353">
        <ele>200.2</ele>
        <time>2024-04-01T08:51:59Z</time>
      </trkpt>
      <trkpt lat="49.88223" lon="4.23521">
        <ele>200.2</ele>
        <time>2024-04-01T08:52:00Z</time>
      </trkpt>
      <trkpt lat="49.8822" lon="4.23511">
        <ele>200</ele>
        <time>2024-04-01T08:52:01Z</time>
      </trkpt>
      <trkpt lat="49.88217" lon="4.23502">
        <ele>199.8</ele>
        <time>2024-04-01T08:52:02Z</time>
      </trkpt>
      <trkpt lat="49.88214" lon="4.23492">
        <ele>199.8</ele>
        <time>2024-04-01T08:52:03Z</time>
      </trkpt>
      <trkpt lat="49.88211" lon="4.23482">
        <ele>200</ele>
        <time>2024-04-01T08:52:04Z</time>
      </trkpt>
      <trkpt lat="49.88208" lon="4.23472">
        <ele>199.8</ele>
        <time>2024-04-01T08:52:05Z</time>
      </trkpt>
      <trkpt lat="49.88206" lon="4.23462">
        <ele>199.6</ele>
        <time>2024-04-01T08:52:06Z</time>
      </trkpt>
      <trkpt lat="49.88204" lon="4.23451">
        <ele>199.8</ele>
        <time>2024-04-01T08:52:07Z</time>
      </trkpt>
      <trkpt lat="49.88203" lon="4.23441">
        <ele>199.8</ele>
        <time>2024-04-01T08:52:08Z</time>
      </trkpt>
      <trkpt lat="49.88201" lon="4.2343">
        <ele>199.8</ele>
        <time>2024-04-01T08:52:09Z</time>
      </trkpt>
      <trkpt lat="49.882" lon="4.23419">
        <ele>199.6</ele>
        <time>2024-04-01T08:52:10Z</time>
      </trkpt>
      <trkpt lat="49.882" lon="4.23408">
        <ele>199.8</ele>
        <time>2024-04-01T08:52:11Z</time>
      </trkpt>
      <trkpt lat="49.88199" lon="4.23398">
        <ele>199.8</ele>
        <time>2024-04-01T08:52:12Z</time>
      </trkpt>
      <trkpt lat="49.88199" lon="4.23387">
        <ele>199.8</ele>
        <time>2024-04-01T08:52:13Z</time>
      </trkpt>
      <trkpt lat="49.88199" lon="4.23376">
        <ele>199.8</ele>
        <time>2024-04-01T08:52:14Z</time>
      </trkpt>
      <trkpt lat="49.88199" lon="4.23365">
        <ele>199.8</ele>
        <time>2024-04-01T08:52:15Z</time>
      </trkpt>
      <trkpt lat="49.88199" lon="4.23354">
        <ele>200</ele>
        <time>2024-04-01T08:52:16Z</time>
      </trkpt>
      <trkpt lat="49.88199" lon="4.23344">
        <ele>200.2</ele>
        <time>2024-04-01T08:52:17Z</time>
      </trkpt>
      <trkpt lat="49.88199" lon="4.23333">
        <ele>200.2</ele>
        <time>2024-04-01T08:52:18Z</time>
      </trkpt>
      <trkpt lat="49.88198" lon="4.23322">
        <ele>200.2</ele>
        <time>2024-04-01T08:52:19Z</time>
      </trkpt>
      <trkpt lat="49.88197" lon="4.23311">
        <ele>200.2</ele>
        <time>2024-04-01T08:52:20Z</time>
      </trkpt>
      <trkpt lat="49.88196" lon="4.23301">
        <ele>200.4</ele>
        <time>2024-04-01T08:52:21Z</time>
      </trkpt>
      <trkpt lat="49.88195" lon="4.2329">
        <ele>200.4</ele>
        <time>2024-04-01T08:52:22Z</time>
      </trkpt>
      <trkpt lat="49.88193" lon="4.23279">
        <ele>200.4</ele>
        <time>2024-04-01T08:52:23Z</time>
      </trkpt>
      <trkpt lat="49.88191" lon="4.23269">
        <ele>200.4</ele>
        <time>2024-04-01T08:52:24Z</time>
      </trkpt>
      <trkpt lat="49.8819" lon="4.23258">
        <ele>200.6</ele>
        <time>2024-04-01T08:52:25Z</time>
      </trkpt>
      <trkpt lat="49.88188" lon="4.23248">
        <ele>200.4</ele>
        <time>2024-04-01T08:52:26Z</time>
      </trkpt>
      <trkpt lat="49.88186" lon="4.23238">
        <ele>200.6</ele>
        <time>2024-04-01T08:52:27Z</time>
      </trkpt>
      <trkpt lat="49.88184" lon="4.23228">
        <ele>200.6</ele>
        <time>2024-04-01T08:52:28Z</time>
      </trkpt>
      <trkpt lat="49.88181" lon="4.23218">
        <ele>200.6</ele>
        <time>2024-04-01T08:52:29Z</time>
      </trkpt>
      <trkpt lat="49.88179" lon="4.2321">
        <ele>200.4</ele>
        <time>2024-04-01T08:52:30Z</time>
      </trkpt>
      <trkpt lat="49.88177" lon="4.23201">
        <ele>200.4</ele>
        <time>2024-04-01T08:52:31Z</time>
      </trkpt>
      <trkpt lat="49.88174" lon="4.23192">
        <ele>200.6</ele>
        <time>2024-04-01T08:52:32Z</time>
      </trkpt>
      <trkpt lat="49.88172" lon="4.23184">
        <ele>200.6</ele>
        <time>2024-04-01T08:52:33Z</time>
      </trkpt>
      <trkpt lat="49.88169" lon="4.23175">
        <ele>200.6</ele>
        <time>2024-04-01T08:52:34Z</time>
      </trkpt>
      <trkpt lat="49.88167" lon="4.23167">
        <ele>200.6</ele>
        <time>2024-04-01T08:52:35Z</time>
      </trkpt>
      <trkpt lat="49.88164" lon="4.23158">
        <ele>200.8</ele>
        <time>2024-04-01T08:52:36Z</time>
      </trkpt>
      <trkpt lat="49.88161" lon="4.23149">
        <ele>200.8</ele>
        <time>2024-04-01T08:52:37Z</time>
      </trkpt>
      <trkpt lat="49.88158" lon="4.23141">
        <ele>201</ele>
        <time>2024-04-01T08:52:38Z</time>
      </trkpt>
      <trkpt lat="49.88155" lon="4.23132">
        <ele>201</ele>
        <time>2024-04-01T08:52:39Z</time>
      </trkpt>
      <trkpt lat="49.88152" lon="4.23123">
        <ele>201</ele>
        <time>2024-04-01T08:52:40Z</time>
      </trkpt>
      <trkpt lat="49.8815" lon="4.23114">
        <ele>200.8</ele>
        <time>2024-04-01T08:52:41Z</time>
      </trkpt>
      <trkpt lat="49.88147" lon="4.23105">
        <ele>201</ele>
        <time>2024-04-01T08:52:42Z</time>
      </trkpt>
      <trkpt lat="49.88144" lon="4.23096">
        <ele>201.2</ele>
        <time>2024-04-01T08:52:43Z</time>
      </trkpt>
      <trkpt lat="49.88141" lon="4.23087">
        <ele>201</ele>
        <time>2024-04-01T08:52:44Z</time>
      </trkpt>
      <trkpt lat="49.88139" lon="4.23077">
        <ele>201.2</ele>
        <time>2024-04-01T08:52:45Z</time>
      </trkpt>
      <trkpt lat="49.88137" lon="4.23067">
        <ele>201</ele>
        <time>2024-04-01T08:52:46Z</time>
      </trkpt>
      <trkpt lat="49.88135" lon="4.23057">
        <ele>201.2</ele>
        <time>2024-04-01T08:52:47Z</time>
      </trkpt>
      <trkpt lat="49.88134" lon="4.23047">
        <ele>201.2</ele>
        <time>2024-04-01T08:52:48Z</time>
      </trkpt>
      <trkpt lat="49.88132" lon="4.23037">
        <ele>201.2</ele>
        <time>2024-04-01T08:52:49Z</time>
      </trkpt>
      <trkpt lat="49.88131" lon="4.23026">
        <ele>201.2</ele>
        <time>2024-04-01T08:52:50Z</time>
      </trkpt>
      <trkpt lat="49.8813" lon="4.23016">
        <ele>201.2</ele>
        <time>2024-04-01T08:52:51Z</time>
      </trkpt>
      <trkpt lat="49.8813" lon="4.23006">
        <ele>201.2</ele>
        <time>2024-04-01T08:52:52Z</time>
      </trkpt>
      <trkpt lat="49.8813" lon="4.22996">
        <ele>201.2</ele>
        <time>2024-04-01T08:52:53Z</time>
      </trkpt>
      <trkpt lat="49.88129" lon="4.22985">
        <ele>201.2</ele>
        <time>2024-04-01T08:52:54Z</time>
      </trkpt>
      <trkpt lat="49.88129" lon="4.22975">
        <ele>201.2</ele>
        <time>2024-04-01T08:52:55Z</time>
      </trkpt>
      <trkpt lat="49.88129" lon="4.22965">
        <ele>201.2</ele>
        <time>2024-04-01T08:52:56Z</time>
      </trkpt>
      <trkpt lat="49.88129" lon="4.22955">
        <ele>201</ele>
        <time>2024-04-01T08:52:57Z</time>
      </trkpt>
      <trkpt lat="49.88129" lon="4.22945">
        <ele>201</ele>
        <time>2024-04-01T08:52:58Z</time>
      </trkpt>
      <trkpt lat="49.88129" lon="4.22934">
        <ele>201</ele>
        <time>2024-04-01T08:52:59Z</time>
      </trkpt>
      <trkpt lat="49.88129" lon="4.22924">
        <ele>201.2</ele>
        <time>2024-04-01T08:53:00Z</time>
      </trkpt>
      <trkpt lat="49.88129" lon="4.22914">
        <ele>201.4</ele>
        <time>2024-04-01T08:53:01Z</time>
      </trkpt>
      <trkpt lat="49.88129" lon="4.22904">
        <ele>201.6</ele>
        <time>2024-04-01T08:53:02Z</time>
      </trkpt>
      <trkpt lat="49.88129" lon="4.22893">
        <ele>201.6</ele>
        <time>2024-04-01T08:53:03Z</time>
      </trkpt>
      <trkpt lat="49.88129" lon="4.22883">
        <ele>201.6</ele>
        <time>2024-04-01T08:53:04Z</time>
      </trkpt>
      <trkpt lat="49.88129" lon="4.22872">
        <ele>201.6</ele>
        <time>2024-04-01T08:53:05Z</time>
      </trkpt>
      <trkpt lat="49.88129" lon="4.22862">
        <ele>201.6</ele>
        <time>2024-04-01T08:53:06Z</time>
      </trkpt>
      <trkpt lat="49.88129" lon="4.22851">
        <ele>201.8</ele>
        <time>2024-04-01T08:53:07Z</time>
      </trkpt>
      <trkpt lat="49.88129" lon="4.22841">
        <ele>201.8</ele>
        <time>2024-04-01T08:53:08Z</time>
      </trkpt>
      <trkpt lat="49.88129" lon="4.2283">
        <ele>201.6</ele>
        <time>2024-04-01T08:53:09Z</time>
      </trkpt>
      <trkpt lat="49.88129" lon="4.2282">
        <ele>201.8</ele>
        <time>2024-04-01T08:53:10Z</time>
      </trkpt>
      <trkpt lat="49.88129" lon="4.22809">
        <ele>201.8</ele>
        <time>2024-04-01T08:53:11Z</time>
      </trkpt>
      <trkpt lat="49.88129" lon="4.22799">
        <ele>202</ele>
        <time>2024-04-01T08:53:12Z</time>
      </trkpt>
      <trkpt lat="49.88128" lon="4.22789">
        <ele>201.8</ele>
        <time>2024-04-01T08:53:13Z</time>
      </trkpt>
      <trkpt lat="49.88127" lon="4.22778">
        <ele>201.8</ele>
        <time>2024-04-01T08:53:14Z</time>
      </trkpt>
      <trkpt lat="49.88126" lon="4.22768">
        <ele>201.8</ele>
        <time>2024-04-01T08:53:15Z</time>
      </trkpt>
      <trkpt lat="49.88125" lon="4.22758">
        <ele>202</ele>
        <time>2024-04-01T08:53:16Z</time>
      </trkpt>
      <trkpt lat="49.88123" lon="4.22747">
        <ele>202</ele>
        <time>2024-04-01T08:53:17Z</time>
      </trkpt>
      <trkpt lat="49.88122" lon="4.22737">
        <ele>202</ele>
        <time>2024-04-01T08:53:18Z</time>
      </trkpt>
      <trkpt lat="49.88121" lon="4.22727">
        <ele>201.8</ele>
        <time>2024-04-01T08:53:19Z</time>
      </trkpt>
      <trkpt lat="49.8812" lon="4.22716">
        <ele>201.6</ele>
        <time>2024-04-01T08:53:20Z</time>
      </trkpt>
      <trkpt lat="49.88119" lon="4.22706">
        <ele>201.6</ele>
        <time>2024-04-01T08:53:21Z</time>
      </trkpt>
      <trkpt lat="49.88119" lon="4.22696">
        <ele>201.6</ele>
        <time>2024-04-01T08:53:22Z</time>
      </trkpt>
      <trkpt lat="49.88121" lon="4.22686">
        <ele>201.4</ele>
        <time>2024-04-01T08:53:23Z</time>
      </trkpt>
      <trkpt lat="49.88124" lon="4.22677">
        <ele>201</ele>
        <time>2024-04-01T08:53:24Z</time>
      </trkpt>
      <trkpt lat="49.88127" lon="4.22669">
        <ele>201</ele>
        <time>2024-04-01T08:53:25Z</time>
      </trkpt>
      <trkpt lat="49.8813" lon="4.2266">
        <ele>201</ele>
        <time>2024-04-01T08:53:26Z</time>
      </trkpt>
      <trkpt lat="49.88134" lon="4.22652">
        <ele>201</ele>
        <time>2024-04-01T08:53:27Z</time>
      </trkpt>
      <trkpt lat="49.88136" lon="4.22643">
        <ele>200.8</ele>
        <time>2024-04-01T08:53:28Z</time>
      </trkpt>
      <trkpt lat="49.88138" lon="4.22634">
        <ele>201</ele>
        <time>2024-04-01T08:53:29Z</time>
      </trkpt>
      <trkpt lat="49.8814" lon="4.22625">
        <ele>201</ele>
        <time>2024-04-01T08:53:30Z</time>
      </trkpt>
      <trkpt lat="49.88142" lon="4.22617">
        <ele>201</ele>
        <time>2024-04-01T08:53:31Z</time>
      </trkpt>
      <trkpt lat="49.88143" lon="4.22608">
        <ele>201</ele>
        <time>2024-04-01T08:53:32Z</time>
      </trkpt>
      <trkpt lat="49.88144" lon="4.226">
        <ele>201</ele>
        <time>2024-04-01T08:53:33Z</time>
      </trkpt>
      <trkpt lat="49.88144" lon="4.22591">
        <ele>201.2</ele>
        <time>2024-04-01T08:53:34Z</time>
      </trkpt>
      <trkpt lat="49.88144" lon="4.22583">
        <ele>201.4</ele>
        <time>2024-04-01T08:53:35Z</time>
      </trkpt>
      <trkpt lat="49.88144" lon="4.22575">
        <ele>201.4</ele>
        <time>2024-04-01T08:53:36Z</time>
      </trkpt>
      <trkpt lat="49.88143" lon="4.22567">
        <ele>201.6</ele>
        <time>2024-04-01T08:53:37Z</time>
      </trkpt>
      <trkpt lat="49.88142" lon="4.22559">
        <ele>201.6</ele>
        <time>2024-04-01T08:53:38Z</time>
      </trkpt>
      <trkpt lat="49.88141" lon="4.22551">
        <ele>201.6</ele>
        <time>2024-04-01T08:53:39Z</time>
      </trkpt>
      <trkpt lat="49.8814" lon="4.22543">
        <ele>201.6</ele>
        <time>2024-04-01T08:53:40Z</time>
      </trkpt>
      <trkpt lat="49.88138" lon="4.22535">
        <ele>201.8</ele>
        <time>2024-04-01T08:53:41Z</time>
      </trkpt>
      <trkpt lat="49.88137" lon="4.22528">
        <ele>201.8</ele>
        <time>2024-04-01T08:53:42Z</time>
      </trkpt>
      <trkpt lat="49.88135" lon="4.2252">
        <ele>201.8</ele>
        <time>2024-04-01T08:53:43Z</time>
      </trkpt>
      <trkpt lat="49.88134" lon="4.22513">
        <ele>201.8</ele>
        <time>2024-04-01T08:53:44Z</time>
      </trkpt>
      <trkpt lat="49.88132" lon="4.22505">
        <ele>202.2</ele>
        <time>2024-04-01T08:53:45Z</time>
      </trkpt>
      <trkpt lat="49.88131" lon="4.22498">
        <ele>202.8</ele>
        <time>2024-04-01T08:53:46Z</time>
      </trkpt>
      <trkpt lat="49.8813" lon="4.2249">
        <ele>203</ele>
        <time>2024-04-01T08:53:47Z</time>
      </trkpt>
      <trkpt lat="49.88128" lon="4.22483">
        <ele>203</ele>
        <time>2024-04-01T08:53:48Z</time>
      </trkpt>
      <trkpt lat="49.88127" lon="4.22476">
        <ele>203.4</ele>
        <time>2024-04-01T08:53:49Z</time>
      </trkpt>
      <trkpt lat="49.88125" lon="4.22469">
        <ele>204.2</ele>
        <time>2024-04-01T08:53:50Z</time>
      </trkpt>
      <trkpt lat="49.88124" lon="4.22463">
        <ele>204.8</ele>
        <time>2024-04-01T08:53:51Z</time>
      </trkpt>
      <trkpt lat="49.88122" lon="4.22456">
        <ele>205.4</ele>
        <time>2024-04-01T08:53:52Z</time>
      </trkpt>
      <trkpt lat="49.8812" lon="4.22448">
        <ele>205.8</ele>
        <time>2024-04-01T08:53:53Z</time>
      </trkpt>
      <trkpt lat="49.88118" lon="4.2244">
        <ele>206.2</ele>
        <time>2024-04-01T08:53:54Z</time>
      </trkpt>
      <trkpt lat="49.88115" lon="4.22432">
        <ele>206.4</ele>
        <time>2024-04-01T08:53:55Z</time>
      </trkpt>
      <trkpt lat="49.88113" lon="4.22424">
        <ele>206.4</ele>
        <time>2024-04-01T08:53:56Z</time>
      </trkpt>
      <trkpt lat="49.88111" lon="4.22415">
        <ele>206.4</ele>
        <time>2024-04-01T08:53:57Z</time>
      </trkpt>
      <trkpt lat="49.88109" lon="4.22407">
        <ele>206.6</ele>
        <time>2024-04-01T08:53:58Z</time>
      </trkpt>
      <trkpt lat="49.88107" lon="4.22399">
        <ele>206.4</ele>
        <time>2024-04-01T08:53:59Z</time>
      </trkpt>
      <trkpt lat="49.88105" lon="4.22391">
        <ele>206.4</ele>
        <time>2024-04-01T08:54:00Z</time>
      </trkpt>
      <trkpt lat="49.88103" lon="4.22382">
        <ele>206.6</ele>
        <time>2024-04-01T08:54:01Z</time>
      </trkpt>
      <trkpt lat="49.88101" lon="4.22374">
        <ele>206.8</ele>
        <time>2024-04-01T08:54:02Z</time>
      </trkpt>
      <trkpt lat="49.88099" lon="4.22365">
        <ele>206.8</ele>
        <time>2024-04-01T08:54:03Z</time>
      </trkpt>
      <trkpt lat="49.88097" lon="4.22357">
        <ele>207</ele>
        <time>2024-04-01T08:54:04Z</time>
      </trkpt>
      <trkpt lat="49.88096" lon="4.22348">
        <ele>207</ele>
        <time>2024-04-01T08:54:05Z</time>
      </trkpt>
      <trkpt lat="49.88094" lon="4.2234">
        <ele>207</ele>
        <time>2024-04-01T08:54:06Z</time>
      </trkpt>
      <trkpt lat="49.88093" lon="4.22332">
        <ele>207</ele>
        <time>2024-04-01T08:54:07Z</time>
      </trkpt>
      <trkpt lat="49.88091" lon="4.22323">
        <ele>207.2</ele>
        <time>2024-04-01T08:54:08Z</time>
      </trkpt>
      <trkpt lat="49.88089" lon="4.22315">
        <ele>207.2</ele>
        <time>2024-04-01T08:54:09Z</time>
      </trkpt>
      <trkpt lat="49.88088" lon="4.22307">
        <ele>207</ele>
        <time>2024-04-01T08:54:10Z</time>
      </trkpt>
      <trkpt lat="49.88087" lon="4.22299">
        <ele>207</ele>
        <time>2024-04-01T08:54:11Z</time>
      </trkpt>
      <trkpt lat="49.88086" lon="4.22291">
        <ele>207</ele>
        <time>2024-04-01T08:54:12Z</time>
      </trkpt>
      <trkpt lat="49.88085" lon="4.22283">
        <ele>207.2</ele>
        <time>2024-04-01T08:54:13Z</time>
      </trkpt>
      <trkpt lat="49.88084" lon="4.22274">
        <ele>207</ele>
        <time>2024-04-01T08:54:14Z</time>
      </trkpt>
      <trkpt lat="49.88084" lon="4.22266">
        <ele>207</ele>
        <time>2024-04-01T08:54:15Z</time>
      </trkpt>
      <trkpt lat="49.88084" lon="4.22258">
        <ele>207</ele>
        <time>2024-04-01T08:54:16Z</time>
      </trkpt>
      <trkpt lat="49.88084" lon="4.2225">
        <ele>207</ele>
        <time>2024-04-01T08:54:17Z</time>
      </trkpt>
      <trkpt lat="49.88085" lon="4.22241">
        <ele>207.2</ele>
        <time>2024-04-01T08:54:18Z</time>
      </trkpt>
      <trkpt lat="49.88087" lon="4.22233">
        <ele>207.2</ele>
        <time>2024-04-01T08:54:19Z</time>
      </trkpt>
      <trkpt lat="49.88088" lon="4.22225">
        <ele>207.4</ele>
        <time>2024-04-01T08:54:20Z</time>
      </trkpt>
      <trkpt lat="49.8809" lon="4.22216">
        <ele>207.4</ele>
        <time>2024-04-01T08:54:21Z</time>
      </trkpt>
      <trkpt lat="49.88091" lon="4.22209">
        <ele>207.8</ele>
        <time>2024-04-01T08:54:22Z</time>
      </trkpt>
      <trkpt lat="49.88092" lon="4.22201">
        <ele>208</ele>
        <time>2024-04-01T08:54:23Z</time>
      </trkpt>
      <trkpt lat="49.88094" lon="4.22193">
        <ele>208.6</ele>
        <time>2024-04-01T08:54:24Z</time>
      </trkpt>
      <trkpt lat="49.88095" lon="4.22185">
        <ele>208.8</ele>
        <time>2024-04-01T08:54:25Z</time>
      </trkpt>
      <trkpt lat="49.88096" lon="4.22177">
        <ele>209.2</ele>
        <time>2024-04-01T08:54:26Z</time>
      </trkpt>
      <trkpt lat="49.88097" lon="4.22169">
        <ele>209.8</ele>
        <time>2024-04-01T08:54:27Z</time>
      </trkpt>
      <trkpt lat="49.88098" lon="4.22161">
        <ele>210.2</ele>
        <time>2024-04-01T08:54:28Z</time>
      </trkpt>
      <trkpt lat="49.88098" lon="4.22154">
        <ele>210.4</ele>
        <time>2024-04-01T08:54:29Z</time>
      </trkpt>
      <trkpt lat="49.88098" lon="4.22146">
        <ele>210.6</ele>
        <time>2024-04-01T08:54:30Z</time>
      </trkpt>
      <trkpt lat="49.88098" lon="4.22138">
        <ele>210.8</ele>
        <time>2024-04-01T08:54:31Z</time>
      </trkpt>
      <trkpt lat="49.88098" lon="4.22131">
        <ele>211</ele>
        <time>2024-04-01T08:54:32Z</time>
      </trkpt>
      <trkpt lat="49.88097" lon="4.22124">
        <ele>211.2</ele>
        <time>2024-04-01T08:54:33Z</time>
      </trkpt>
      <trkpt lat="49.88097" lon="4.22117">
        <ele>211.2</ele>
        <time>2024-04-01T08:54:34Z</time>
      </trkpt>
      <trkpt lat="49.88098" lon="4.2211">
        <ele>211.4</ele>
        <time>2024-04-01T08:54:35Z</time>
      </trkpt>
      <trkpt lat="49.88099" lon="4.22104">
        <ele>211.4</ele>
        <time>2024-04-01T08:54:36Z</time>
      </trkpt>
      <trkpt lat="49.88102" lon="4.22099">
        <ele>211.6</ele>
        <time>2024-04-01T08:54:37Z</time>
      </trkpt>
      <trkpt lat="49.88106" lon="4.22095">
        <ele>211.8</ele>
        <time>2024-04-01T08:54:38Z</time>
      </trkpt>
      <trkpt lat="49.8811" lon="4.22093">
        <ele>211.6</ele>
        <time>2024-04-01T08:54:39Z</time>
      </trkpt>
      <trkpt lat="49.88115" lon="4.22092">
        <ele>211.8</ele>
        <time>2024-04-01T08:54:40Z</time>
      </trkpt>
      <trkpt lat="49.8812" lon="4.22091">
        <ele>212</ele>
        <time>2024-04-01T08:54:41Z</time>
      </trkpt>
      <trkpt lat="49.88126" lon="4.2209">
        <ele>212.4</ele>
        <time>2024-04-01T08:54:42Z</time>
      </trkpt>
      <trkpt lat="49.88131" lon="4.2209">
        <ele>212.6</ele>
        <time>2024-04-01T08:54:43Z</time>
      </trkpt>
      <trkpt lat="49.88137" lon="4.2209">
        <ele>212.8</ele>
        <time>2024-04-01T08:54:44Z</time>
      </trkpt>
      <trkpt lat="49.88142" lon="4.2209">
        <ele>213</ele>
        <time>2024-04-01T08:54:45Z</time>
      </trkpt>
      <trkpt lat="49.88148" lon="4.22089">
        <ele>213.2</ele>
        <time>2024-04-01T08:54:46Z</time>
      </trkpt>
      <trkpt lat="49.88154" lon="4.22089">
        <ele>213.4</ele>
        <time>2024-04-01T08:54:47Z</time>
      </trkpt>
      <trkpt lat="49.8816" lon="4.22088">
        <ele>213.8</ele>
        <time>2024-04-01T08:54:48Z</time>
      </trkpt>
      <trkpt lat="49.88166" lon="4.22088">
        <ele>213.8</ele>
        <time>2024-04-01T08:54:49Z</time>
      </trkpt>
      <trkpt lat="49.88172" lon="4.22087">
        <ele>213.8</ele>
        <time>2024-04-01T08:54:50Z</time>
      </trkpt>
      <trkpt lat="49.88178" lon="4.22087">
        <ele>213.8</ele>
        <time>2024-04-01T08:54:51Z</time>
      </trkpt>
      <trkpt lat="49.88184" lon="4.22086">
        <ele>214</ele>
        <time>2024-04-01T08:54:52Z</time>
      </trkpt>
      <trkpt lat="49.88189" lon="4.22086">
        <ele>214</ele>
        <time>2024-04-01T08:54:53Z</time>
      </trkpt>
      <trkpt lat="49.88195" lon="4.22085">
        <ele>214.2</ele>
        <time>2024-04-01T08:54:54Z</time>
      </trkpt>
      <trkpt lat="49.88201" lon="4.22085">
        <ele>214.4</ele>
        <time>2024-04-01T08:54:55Z</time>
      </trkpt>
      <trkpt lat="49.88207" lon="4.22084">
        <ele>214.4</ele>
        <time>2024-04-01T08:54:56Z</time>
      </trkpt>
      <trkpt lat="49.88213" lon="4.22084">
        <ele>214.4</ele>
        <time>2024-04-01T08:54:57Z</time>
      </trkpt>
      <trkpt lat="49.88218" lon="4.22083">
        <ele>214.4</ele>
        <time>2024-04-01T08:54:58Z</time>
      </trkpt>
      <trkpt lat="49.88224" lon="4.22082">
        <ele>214.6</ele>
        <time>2024-04-01T08:54:59Z</time>
      </trkpt>
      <trkpt lat="49.88231" lon="4.22081">
        <ele>214.6</ele>
        <time>2024-04-01T08:55:00Z</time>
      </trkpt>
      <trkpt lat="49.88237" lon="4.22081">
        <ele>214.8</ele>
        <time>2024-04-01T08:55:01Z</time>
      </trkpt>
      <trkpt lat="49.88243" lon="4.22081">
        <ele>214.6</ele>
        <time>2024-04-01T08:55:02Z</time>
      </trkpt>
      <trkpt lat="49.88249" lon="4.2208">
        <ele>214.8</ele>
        <time>2024-04-01T08:55:03Z</time>
      </trkpt>
      <trkpt lat="49.88256" lon="4.22079">
        <ele>214.6</ele>
        <time>2024-04-01T08:55:04Z</time>
      </trkpt>
      <trkpt lat="49.88263" lon="4.22079">
        <ele>214.8</ele>
        <time>2024-04-01T08:55:05Z</time>
      </trkpt>
      <trkpt lat="49.8827" lon="4.22078">
        <ele>214.8</ele>
        <time>2024-04-01T08:55:06Z</time>
      </trkpt>
      <trkpt lat="49.88277" lon="4.22078">
        <ele>214.6</ele>
        <time>2024-04-01T08:55:07Z</time>
      </trkpt>
      <trkpt lat="49.88285" lon="4.22077">
        <ele>214.8</ele>
        <time>2024-04-01T08:55:08Z</time>
      </trkpt>
      <trkpt lat="49.88293" lon="4.22077">
        <ele>214.4</ele>
        <time>2024-04-01T08:55:09Z</time>
      </trkpt>
      <trkpt lat="49.88301" lon="4.22076">
        <ele>214.4</ele>
        <time>2024-04-01T08:55:10Z</time>
      </trkpt>
      <trkpt lat="49.88309" lon="4.22075">
        <ele>214.4</ele>
        <time>2024-04-01T08:55:11Z</time>
      </trkpt>
      <trkpt lat="49.88317" lon="4.22074">
        <ele>214.4</ele>
        <time>2024-04-01T08:55:12Z</time>
      </trkpt>
      <trkpt lat="49.88325" lon="4.22073">
        <ele>214.2</ele>
        <time>2024-04-01T08:55:13Z</time>
      </trkpt>
      <trkpt lat="49.88333" lon="4.22072">
        <ele>213.8</ele>
        <time>2024-04-01T08:55:14Z</time>
      </trkpt>
      <trkpt lat="49.88341" lon="4.22072">
        <ele>213.4</ele>
        <time>2024-04-01T08:55:15Z</time>
      </trkpt>
      <trkpt lat="49.88349" lon="4.22072">
        <ele>213</ele>
        <time>2024-04-01T08:55:16Z</time>
      </trkpt>
      <trkpt lat="49.88357" lon="4.22072">
        <ele>212.8</ele>
        <time>2024-04-01T08:55:17Z</time>
      </trkpt>
      <trkpt lat="49.88365" lon="4.22071">
        <ele>212</ele>
        <time>2024-04-01T08:55:18Z</time>
      </trkpt>
      <trkpt lat="49.88373" lon="4.22071">
        <ele>211.6</ele>
        <time>2024-04-01T08:55:19Z</time>
      </trkpt>
      <trkpt lat="49.88381" lon="4.2207">
        <ele>211.4</ele>
        <time>2024-04-01T08:55:20Z</time>
      </trkpt>
      <trkpt lat="49.88388" lon="4.22068">
        <ele>211.4</ele>
        <time>2024-04-01T08:55:21Z</time>
      </trkpt>
      <trkpt lat="49.88396" lon="4.22067">
        <ele>211.2</ele>
        <time>2024-04-01T08:55:22Z</time>
      </trkpt>
      <trkpt lat="49.88404" lon="4.22065">
        <ele>211.2</ele>
        <time>2024-04-01T08:55:23Z</time>
      </trkpt>
      <trkpt lat="49.88411" lon="4.22063">
        <ele>211.4</ele>
        <time>2024-04-01T08:55:24Z</time>
      </trkpt>
      <trkpt lat="49.88418" lon="4.22061">
        <ele>211.2</ele>
        <time>2024-04-01T08:55:25Z</time>
      </trkpt>
      <trkpt lat="49.88425" lon="4.22058">
        <ele>211.2</ele>
        <time>2024-04-01T08:55:26Z</time>
      </trkpt>
      <trkpt lat="49.88432" lon="4.22054">
        <ele>211.2</ele>
        <time>2024-04-01T08:55:27Z</time>
      </trkpt>
      <trkpt lat="49.88439" lon="4.2205">
        <ele>211.2</ele>
        <time>2024-04-01T08:55:28Z</time>
      </trkpt>
      <trkpt lat="49.88445" lon="4.22046">
        <ele>211.2</ele>
        <time>2024-04-01T08:55:29Z</time>
      </trkpt>
      <trkpt lat="49.88451" lon="4.22042">
        <ele>211</ele>
        <time>2024-04-01T08:55:30Z</time>
      </trkpt>
      <trkpt lat="49.88458" lon="4.22037">
        <ele>211.4</ele>
        <time>2024-04-01T08:55:31Z</time>
      </trkpt>
      <trkpt lat="49.88464" lon="4.22033">
        <ele>211.4</ele>
        <time>2024-04-01T08:55:32Z</time>
      </trkpt>
      <trkpt lat="49.88469" lon="4.22029">
        <ele>211.4</ele>
        <time>2024-04-01T08:55:33Z</time>
      </trkpt>
      <trkpt lat="49.88475" lon="4.22024">
        <ele>211.4</ele>
        <time>2024-04-01T08:55:34Z</time>
      </trkpt>
      <trkpt lat="49.8848" lon="4.2202">
        <ele>211.6</ele>
        <time>2024-04-01T08:55:35Z</time>
      </trkpt>
      <trkpt lat="49.88486" lon="4.22016">
        <ele>211.6</ele>
        <time>2024-04-01T08:55:36Z</time>
      </trkpt>
      <trkpt lat="49.88491" lon="4.22012">
        <ele>211.8</ele>
        <time>2024-04-01T08:55:37Z</time>
      </trkpt>
      <trkpt lat="49.88496" lon="4.22008">
        <ele>211.8</ele>
        <time>2024-04-01T08:55:38Z</time>
      </trkpt>
      <trkpt lat="49.88502" lon="4.22004">
        <ele>212</ele>
        <time>2024-04-01T08:55:39Z</time>
      </trkpt>
      <trkpt lat="49.88508" lon="4.22">
        <ele>212.2</ele>
        <time>2024-04-01T08:55:40Z</time>
      </trkpt>
      <trkpt lat="49.88513" lon="4.21997">
        <ele>212.2</ele>
        <time>2024-04-01T08:55:41Z</time>
      </trkpt>
      <trkpt lat="49.88519" lon="4.21994">
        <ele>212.8</ele>
        <time>2024-04-01T08:55:42Z</time>
      </trkpt>
      <trkpt lat="49.88525" lon="4.21991">
        <ele>213</ele>
        <time>2024-04-01T08:55:43Z</time>
      </trkpt>
      <trkpt lat="49.88531" lon="4.21989">
        <ele>213.2</ele>
        <time>2024-04-01T08:55:44Z</time>
      </trkpt>
      <trkpt lat="49.88538" lon="4.21987">
        <ele>213.4</ele>
        <time>2024-04-01T08:55:45Z</time>
      </trkpt>
      <trkpt lat="49.88544" lon="4.21985">
        <ele>213.6</ele>
        <time>2024-04-01T08:55:46Z</time>
      </trkpt>
      <trkpt lat="49.8855" lon="4.21983">
        <ele>213.4</ele>
        <time>2024-04-01T08:55:47Z</time>
      </trkpt>
      <trkpt lat="49.88557" lon="4.21981">
        <ele>213.6</ele>
        <time>2024-04-01T08:55:48Z</time>
      </trkpt>
      <trkpt lat="49.88563" lon="4.2198">
        <ele>213.6</ele>
        <time>2024-04-01T08:55:49Z</time>
      </trkpt>
      <trkpt lat="49.8857" lon="4.21979">
        <ele>213.6</ele>
        <time>2024-04-01T08:55:50Z</time>
      </trkpt>
      <trkpt lat="49.88577" lon="4.21979">
        <ele>213.6</ele>
        <time>2024-04-01T08:55:51Z</time>
      </trkpt>
      <trkpt lat="49.88583" lon="4.21979">
        <ele>213.6</ele>
        <time>2024-04-01T08:55:52Z</time>
      </trkpt>
      <trkpt lat="49.8859" lon="4.21979">
        <ele>213.8</ele>
        <time>2024-04-01T08:55:53Z</time>
      </trkpt>
      <trkpt lat="49.88596" lon="4.2198">
        <ele>213.8</ele>
        <time>2024-04-01T08:55:54Z</time>
      </trkpt>
      <trkpt lat="49.88603" lon="4.21981">
        <ele>213.8</ele>
        <time>2024-04-01T08:55:55Z</time>
      </trkpt>
      <trkpt lat="49.88609" lon="4.21983">
        <ele>214</ele>
        <time>2024-04-01T08:55:56Z</time>
      </trkpt>
      <trkpt lat="49.88616" lon="4.21984">
        <ele>214</ele>
        <time>2024-04-01T08:55:57Z</time>
      </trkpt>
      <trkpt lat="49.88622" lon="4.21986">
        <ele>214</ele>
        <time>2024-04-01T08:55:58Z</time>
      </trkpt>
      <trkpt lat="49.88628" lon="4.21988">
        <ele>214</ele>
        <time>2024-04-01T08:55:59Z</time>
      </trkpt>
      <trkpt lat="49.88634" lon="4.2199">
        <ele>214.4</ele>
        <time>2024-04-01T08:56:00Z</time>
      </trkpt>
      <trkpt lat="49.88641" lon="4.21992">
        <ele>214.6</ele>
        <time>2024-04-01T08:56:01Z</time>
      </trkpt>
      <trkpt lat="49.88647" lon="4.21994">
        <ele>214.6</ele>
        <time>2024-04-01T08:56:02Z</time>
      </trkpt>
      <trkpt lat="49.88654" lon="4.21996">
        <ele>214.8</ele>
        <time>2024-04-01T08:56:03Z</time>
      </trkpt>
      <trkpt lat="49.8866" lon="4.21999">
        <ele>214.8</ele>
        <time>2024-04-01T08:56:04Z</time>
      </trkpt>
      <trkpt lat="49.88666" lon="4.22002">
        <ele>215</ele>
        <time>2024-04-01T08:56:05Z</time>
      </trkpt>
      <trkpt lat="49.88672" lon="4.22005">
        <ele>215.2</ele>
        <time>2024-04-01T08:56:06Z</time>
      </trkpt>
      <trkpt lat="49.88679" lon="4.22008">
        <ele>215.2</ele>
        <time>2024-04-01T08:56:07Z</time>
      </trkpt>
      <trkpt lat="49.88685" lon="4.22011">
        <ele>215.2</ele>
        <time>2024-04-01T08:56:08Z</time>
      </trkpt>
      <trkpt lat="49.88691" lon="4.22014">
        <ele>215.4</ele>
        <time>2024-04-01T08:56:09Z</time>
      </trkpt>
      <trkpt lat="49.88697" lon="4.22018">
        <ele>215.6</ele>
        <time>2024-04-01T08:56:10Z</time>
      </trkpt>
      <trkpt lat="49.88703" lon="4.22022">
        <ele>215.8</ele>
        <time>2024-04-01T08:56:11Z</time>
      </trkpt>
      <trkpt lat="49.88709" lon="4.22025">
        <ele>215.8</ele>
        <time>2024-04-01T08:56:12Z</time>
      </trkpt>
      <trkpt lat="49.88716" lon="4.22029">
        <ele>215.8</ele>
        <time>2024-04-01T08:56:13Z</time>
      </trkpt>
      <trkpt lat="49.88722" lon="4.22033">
        <ele>216.2</ele>
        <time>2024-04-01T08:56:14Z</time>
      </trkpt>
      <trkpt lat="49.88728" lon="4.22036">
        <ele>216.4</ele>
        <time>2024-04-01T08:56:15Z</time>
      </trkpt>
      <trkpt lat="49.88734" lon="4.2204">
        <ele>216.4</ele>
        <time>2024-04-01T08:56:16Z</time>
      </trkpt>
      <trkpt lat="49.8874" lon="4.22044">
        <ele>216.8</ele>
        <time>2024-04-01T08:56:17Z</time>
      </trkpt>
      <trkpt lat="49.88745" lon="4.22047">
        <ele>216.8</ele>
        <time>2024-04-01T08:56:18Z</time>
      </trkpt>
      <trkpt lat="49.88751" lon="4.22051">
        <ele>216.8</ele>
        <time>2024-04-01T08:56:19Z</time>
      </trkpt>
      <trkpt lat="49.88757" lon="4.22054">
        <ele>217</ele>
        <time>2024-04-01T08:56:20Z</time>
      </trkpt>
      <trkpt lat="49.88763" lon="4.22057">
        <ele>217</ele>
        <time>2024-04-01T08:56:21Z</time>
      </trkpt>
      <trkpt lat="49.88769" lon="4.22056">
        <ele>217</ele>
        <time>2024-04-01T08:56:22Z</time>
      </trkpt>
      <trkpt lat="49.88775" lon="4.22054">
        <ele>217.4</ele>
        <time>2024-04-01T08:56:23Z</time>
      </trkpt>
      <trkpt lat="49.88781" lon="4.22048">
        <ele>217.4</ele>
        <time>2024-04-01T08:56:24Z</time>
      </trkpt>
      <trkpt lat="49.88786" lon="4.22041">
        <ele>217.4</ele>
        <time>2024-04-01T08:56:25Z</time>
      </trkpt>
      <trkpt lat="49.88791" lon="4.22034">
        <ele>217.6</ele>
        <time>2024-04-01T08:56:26Z</time>
      </trkpt>
      <trkpt lat="49.88795" lon="4.22025">
        <ele>217.6</ele>
        <time>2024-04-01T08:56:27Z</time>
      </trkpt>
      <trkpt lat="49.88799" lon="4.22016">
        <ele>217.6</ele>
        <time>2024-04-01T08:56:28Z</time>
      </trkpt>
      <trkpt lat="49.88802" lon="4.22007">
        <ele>217.6</ele>
        <time>2024-04-01T08:56:29Z</time>
      </trkpt>
      <trkpt lat="49.88806" lon="4.21998">
        <ele>217.6</ele>
        <time>2024-04-01T08:56:30Z</time>
      </trkpt>
      <trkpt lat="49.8881" lon="4.21989">
        <ele>217.6</ele>
        <time>2024-04-01T08:56:31Z</time>
      </trkpt>
      <trkpt lat="49.88813" lon="4.21981">
        <ele>217.6</ele>
        <time>2024-04-01T08:56:32Z</time>
      </trkpt>
      <trkpt lat="49.88817" lon="4.21972">
        <ele>217.8</ele>
        <time>2024-04-01T08:56:33Z</time>
      </trkpt>
      <trkpt lat="49.88821" lon="4.21963">
        <ele>217.8</ele>
        <time>2024-04-01T08:56:34Z</time>
      </trkpt>
      <trkpt lat="49.88824" lon="4.21955">
        <ele>217.8</ele>
        <time>2024-04-01T08:56:35Z</time>
      </trkpt>
      <trkpt lat="49.88828" lon="4.21947">
        <ele>217.8</ele>
        <time>2024-04-01T08:56:36Z</time>
      </trkpt>
      <trkpt lat="49.88831" lon="4.21939">
        <ele>217.8</ele>
        <time>2024-04-01T08:56:37Z</time>
      </trkpt>
      <trkpt lat="49.88835" lon="4.21931">
        <ele>217.8</ele>
        <time>2024-04-01T08:56:38Z</time>
      </trkpt>
      <trkpt lat="49.88839" lon="4.21923">
        <ele>218</ele>
        <time>2024-04-01T08:56:39Z</time>
      </trkpt>
      <trkpt lat="49.88843" lon="4.21916">
        <ele>218</ele>
        <time>2024-04-01T08:56:40Z</time>
      </trkpt>
      <trkpt lat="49.88847" lon="4.21909">
        <ele>217.8</ele>
        <time>2024-04-01T08:56:41Z</time>
      </trkpt>
      <trkpt lat="49.88851" lon="4.21903">
        <ele>218</ele>
        <time>2024-04-01T08:56:42Z</time>
      </trkpt>
      <trkpt lat="49.88855" lon="4.21898">
        <ele>217.8</ele>
        <time>2024-04-01T08:56:43Z</time>
      </trkpt>
      <trkpt lat="49.88859" lon="4.21894">
        <ele>217.8</ele>
        <time>2024-04-01T08:56:44Z</time>
      </trkpt>
      <trkpt lat="49.88864" lon="4.21889">
        <ele>218</ele>
        <time>2024-04-01T08:56:45Z</time>
      </trkpt>
      <trkpt lat="49.88868" lon="4.21886">
        <ele>218.2</ele>
        <time>2024-04-01T08:56:46Z</time>
      </trkpt>
      <trkpt lat="49.88872" lon="4.21882">
        <ele>218.2</ele>
        <time>2024-04-01T08:56:47Z</time>
      </trkpt>
      <trkpt lat="49.88876" lon="4.21879">
        <ele>218.4</ele>
        <time>2024-04-01T08:56:48Z</time>
      </trkpt>
      <trkpt lat="49.8888" lon="4.21875">
        <ele>218.6</ele>
        <time>2024-04-01T08:56:49Z</time>
      </trkpt>
      <trkpt lat="49.88885" lon="4.21872">
        <ele>218.6</ele>
        <time>2024-04-01T08:56:50Z</time>
      </trkpt>
      <trkpt lat="49.88889" lon="4.21869">
        <ele>218.8</ele>
        <time>2024-04-01T08:56:51Z</time>
      </trkpt>
      <trkpt lat="49.88893" lon="4.21866">
        <ele>218.8</ele>
        <time>2024-04-01T08:56:52Z</time>
      </trkpt>
      <trkpt lat="49.88897" lon="4.21863">
        <ele>219.4</ele>
        <time>2024-04-01T08:56:53Z</time>
      </trkpt>
      <trkpt lat="49.88901" lon="4.2186">
        <ele>220.4</ele>
        <time>2024-04-01T08:56:54Z</time>
      </trkpt>
      <trkpt lat="49.88906" lon="4.21856">
        <ele>221</ele>
        <time>2024-04-01T08:56:55Z</time>
      </trkpt>
      <trkpt lat="49.8891" lon="4.21852">
        <ele>221.4</ele>
        <time>2024-04-01T08:56:56Z</time>
      </trkpt>
      <trkpt lat="49.88914" lon="4.21849">
        <ele>221.8</ele>
        <time>2024-04-01T08:56:57Z</time>
      </trkpt>
      <trkpt lat="49.88918" lon="4.21845">
        <ele>222.2</ele>
        <time>2024-04-01T08:56:58Z</time>
      </trkpt>
      <trkpt lat="49.88921" lon="4.21841">
        <ele>222.4</ele>
        <time>2024-04-01T08:56:59Z</time>
      </trkpt>
      <trkpt lat="49.88924" lon="4.21837">
        <ele>222.6</ele>
        <time>2024-04-01T08:57:00Z</time>
      </trkpt>
      <trkpt lat="49.88928" lon="4.21832">
        <ele>222.8</ele>
        <time>2024-04-01T08:57:01Z</time>
      </trkpt>
      <trkpt lat="49.88931" lon="4.21828">
        <ele>223</ele>
        <time>2024-04-01T08:57:02Z</time>
      </trkpt>
      <trkpt lat="49.88933" lon="4.21823">
        <ele>223.2</ele>
        <time>2024-04-01T08:57:03Z</time>
      </trkpt>
      <trkpt lat="49.88936" lon="4.21818">
        <ele>223.4</ele>
        <time>2024-04-01T08:57:04Z</time>
      </trkpt>
      <trkpt lat="49.88939" lon="4.21814">
        <ele>223.6</ele>
        <time>2024-04-01T08:57:05Z</time>
      </trkpt>
      <trkpt lat="49.88941" lon="4.21809">
        <ele>223.6</ele>
        <time>2024-04-01T08:57:06Z</time>
      </trkpt>
      <trkpt lat="49.88943" lon="4.21804">
        <ele>224</ele>
        <time>2024-04-01T08:57:07Z</time>
      </trkpt>
      <trkpt lat="49.88946" lon="4.21799">
        <ele>224</ele>
        <time>2024-04-01T08:57:08Z</time>
      </trkpt>
      <trkpt lat="49.88948" lon="4.21794">
        <ele>224.4</ele>
        <time>2024-04-01T08:57:09Z</time>
      </trkpt>
      <trkpt lat="49.8895" lon="4.2179">
        <ele>224.6</ele>
        <time>2024-04-01T08:57:10Z</time>
      </trkpt>
      <trkpt lat="49.88952" lon="4.21785">
        <ele>225</ele>
        <time>2024-04-01T08:57:11Z</time>
      </trkpt>
      <trkpt lat="49.88954" lon="4.2178">
        <ele>225.2</ele>
        <time>2024-04-01T08:57:12Z</time>
      </trkpt>
      <trkpt lat="49.88956" lon="4.21776">
        <ele>225.6</ele>
        <time>2024-04-01T08:57:13Z</time>
      </trkpt>
      <trkpt lat="49.88958" lon="4.21771">
        <ele>226</ele>
        <time>2024-04-01T08:57:14Z</time>
      </trkpt>
      <trkpt lat="49.8896" lon="4.21767">
        <ele>226.6</ele>
        <time>2024-04-01T08:57:15Z</time>
      </trkpt>
      <trkpt lat="49.88962" lon="4.21762">
        <ele>226.8</ele>
        <time>2024-04-01T08:57:16Z</time>
      </trkpt>
      <trkpt lat="49.88964" lon="4.21758">
        <ele>226.8</ele>
        <time>2024-04-01T08:57:17Z</time>
      </trkpt>
      <trkpt lat="49.88966" lon="4.21754">
        <ele>227.2</ele>
        <time>2024-04-01T08:57:18Z</time>
      </trkpt>
      <trkpt lat="49.88968" lon="4.21749">
        <ele>227.6</ele>
        <time>2024-04-01T08:57:19Z</time>
      </trkpt>
      <trkpt lat="49.8897" lon="4.21745">
        <ele>227.8</ele>
        <time>2024-04-01T08:57:20Z</time>
      </trkpt>
      <trkpt lat="49.88972" lon="4.21741">
        <ele>228.2</ele>
        <time>2024-04-01T08:57:21Z</time>
      </trkpt>
      <trkpt lat="49.88975" lon="4.21737">
        <ele>228.4</ele>
        <time>2024-04-01T08:57:22Z</time>
      </trkpt>
      <trkpt lat="49.88977" lon="4.21733">
        <ele>228.4</ele>
        <time>2024-04-01T08:57:23Z</time>
      </trkpt>
      <trkpt lat="49.88979" lon="4.21729">
        <ele>228.4</ele>
        <time>2024-04-01T08:57:24Z</time>
      </trkpt>
      <trkpt lat="49.88981" lon="4.21725">
        <ele>228.8</ele>
        <time>2024-04-01T08:57:25Z</time>
      </trkpt>
      <trkpt lat="49.88983" lon="4.21721">
        <ele>229.2</ele>
        <time>2024-04-01T08:57:26Z</time>
      </trkpt>
      <trkpt lat="49.88985" lon="4.21716">
        <ele>229.4</ele>
        <time>2024-04-01T08:57:27Z</time>
      </trkpt>
      <trkpt lat="49.88988" lon="4.21712">
        <ele>229.8</ele>
        <time>2024-04-01T08:57:28Z</time>
      </trkpt>
      <trkpt lat="49.8899" lon="4.21708">
        <ele>230.2</ele>
        <time>2024-04-01T08:57:29Z</time>
      </trkpt>
      <trkpt lat="49.88992" lon="4.21703">
        <ele>230.4</ele>
        <time>2024-04-01T08:57:30Z</time>
      </trkpt>
      <trkpt lat="49.88994" lon="4.21699">
        <ele>230.6</ele>
        <time>2024-04-01T08:57:31Z</time>
      </trkpt>
      <trkpt lat="49.88996" lon="4.21695">
        <ele>231</ele>
        <time>2024-04-01T08:57:32Z</time>
      </trkpt>
      <trkpt lat="49.88999" lon="4.21692">
        <ele>231.2</ele>
        <time>2024-04-01T08:57:33Z</time>
      </trkpt>
      <trkpt lat="49.89001" lon="4.21688">
        <ele>231.4</ele>
        <time>2024-04-01T08:57:34Z</time>
      </trkpt>
      <trkpt lat="49.89003" lon="4.21684">
        <ele>231.6</ele>
        <time>2024-04-01T08:57:35Z</time>
      </trkpt>
      <trkpt lat="49.89006" lon="4.2168">
        <ele>231.8</ele>
        <time>2024-04-01T08:57:36Z</time>
      </trkpt>
      <trkpt lat="49.89008" lon="4.21676">
        <ele>232.2</ele>
        <time>2024-04-01T08:57:37Z</time>
      </trkpt>
      <trkpt lat="49.89011" lon="4.21672">
        <ele>232.6</ele>
        <time>2024-04-01T08:57:38Z</time>
      </trkpt>
      <trkpt lat="49.89014" lon="4.21668">
        <ele>232.8</ele>
        <time>2024-04-01T08:57:39Z</time>
      </trkpt>
      <trkpt lat="49.89016" lon="4.21664">
        <ele>232.8</ele>
        <time>2024-04-01T08:57:40Z</time>
      </trkpt>
      <trkpt lat="49.89019" lon="4.2166">
        <ele>233</ele>
        <time>2024-04-01T08:57:41Z</time>
      </trkpt>
      <trkpt lat="49.89022" lon="4.21656">
        <ele>233</ele>
        <time>2024-04-01T08:57:42Z</time>
      </trkpt>
      <trkpt lat="49.89025" lon="4.21652">
        <ele>233.2</ele>
        <time>2024-04-01T08:57:43Z</time>
      </trkpt>
      <trkpt lat="49.89027" lon="4.21648">
        <ele>233.4</ele>
        <time>2024-04-01T08:57:44Z</time>
      </trkpt>
      <trkpt lat="49.8903" lon="4.21644">
        <ele>233.6</ele>
        <time>2024-04-01T08:57:45Z</time>
      </trkpt>
      <trkpt lat="49.89033" lon="4.2164">
        <ele>234</ele>
        <time>2024-04-01T08:57:46Z</time>
      </trkpt>
      <trkpt lat="49.89035" lon="4.21636">
        <ele>234.2</ele>
        <time>2024-04-01T08:57:47Z</time>
      </trkpt>
      <trkpt lat="49.89038" lon="4.21632">
        <ele>234.4</ele>
        <time>2024-04-01T08:57:48Z</time>
      </trkpt>
      <trkpt lat="49.8904" lon="4.21628">
        <ele>234.6</ele>
        <time>2024-04-01T08:57:49Z</time>
      </trkpt>
      <trkpt lat="49.89043" lon="4.21624">
        <ele>234.6</ele>
        <time>2024-04-01T08:57:50Z</time>
      </trkpt>
      <trkpt lat="49.89045" lon="4.2162">
        <ele>234.8</ele>
        <time>2024-04-01T08:57:51Z</time>
      </trkpt>
      <trkpt lat="49.89048" lon="4.21616">
        <ele>234.8</ele>
        <time>2024-04-01T08:57:52Z</time>
      </trkpt>
      <trkpt lat="49.89051" lon="4.21612">
        <ele>234.8</ele>
        <time>2024-04-01T08:57:53Z</time>
      </trkpt>
      <trkpt lat="49.89054" lon="4.21608">
        <ele>235</ele>
        <time>2024-04-01T08:57:54Z</time>
      </trkpt>
      <trkpt lat="49.89057" lon="4.21603">
        <ele>235.4</ele>
        <time>2024-04-01T08:57:55Z</time>
      </trkpt>
      <trkpt lat="49.8906" lon="4.21599">
        <ele>235.6</ele>
        <time>2024-04-01T08:57:56Z</time>
      </trkpt>
      <trkpt lat="49.89064" lon="4.21594">
        <ele>235.6</ele>
        <time>2024-04-01T08:57:57Z</time>
      </trkpt>
      <trkpt lat="49.89067" lon="4.21588">
        <ele>235.6</ele>
        <time>2024-04-01T08:57:58Z</time>
      </trkpt>
      <trkpt lat="49.89071" lon="4.21582">
        <ele>235.8</ele>
        <time>2024-04-01T08:57:59Z</time>
      </trkpt>
      <trkpt lat="49.89075" lon="4.21575">
        <ele>235.8</ele>
        <time>2024-04-01T08:58:00Z</time>
      </trkpt>
      <trkpt lat="49.89079" lon="4.21569">
        <ele>235.8</ele>
        <time>2024-04-01T08:58:01Z</time>
      </trkpt>
      <trkpt lat="49.89083" lon="4.21562">
        <ele>235.8</ele>
        <time>2024-04-01T08:58:02Z</time>
      </trkpt>
      <trkpt lat="49.89088" lon="4.21555">
        <ele>235.8</ele>
        <time>2024-04-01T08:58:03Z</time>
      </trkpt>
      <trkpt lat="49.89092" lon="4.21547">
        <ele>236</ele>
        <time>2024-04-01T08:58:04Z</time>
      </trkpt>
      <trkpt lat="49.89097" lon="4.21539">
        <ele>235.8</ele>
        <time>2024-04-01T08:58:05Z</time>
      </trkpt>
      <trkpt lat="49.89102" lon="4.21532">
        <ele>235.8</ele>
        <time>2024-04-01T08:58:06Z</time>
      </trkpt>
      <trkpt lat="49.89108" lon="4.21524">
        <ele>235.6</ele>
        <time>2024-04-01T08:58:07Z</time>
      </trkpt>
      <trkpt lat="49.89113" lon="4.21516">
        <ele>235.6</ele>
        <time>2024-04-01T08:58:08Z</time>
      </trkpt>
      <trkpt lat="49.89118" lon="4.21508">
        <ele>235.2</ele>
        <time>2024-04-01T08:58:09Z</time>
      </trkpt>
      <trkpt lat="49.89123" lon="4.21499">
        <ele>235.2</ele>
        <time>2024-04-01T08:58:10Z</time>
      </trkpt>
      <trkpt lat="49.89128" lon="4.21491">
        <ele>235.2</ele>
        <time>2024-04-01T08:58:11Z</time>
      </trkpt>
      <trkpt lat="49.89133" lon="4.21482">
        <ele>235</ele>
        <time>2024-04-01T08:58:12Z</time>
      </trkpt>
      <trkpt lat="49.89138" lon="4.21474">
        <ele>234.8</ele>
        <time>2024-04-01T08:58:13Z</time>
      </trkpt>
      <trkpt lat="49.89144" lon="4.21465">
        <ele>234.8</ele>
        <time>2024-04-01T08:58:14Z</time>
      </trkpt>
      <trkpt lat="49.89149" lon="4.21456">
        <ele>234.6</ele>
        <time>2024-04-01T08:58:15Z</time>
      </trkpt>
      <trkpt lat="49.89155" lon="4.21446">
        <ele>234.2</ele>
        <time>2024-04-01T08:58:16Z</time>
      </trkpt>
      <trkpt lat="49.8916" lon="4.21436">
        <ele>234</ele>
        <time>2024-04-01T08:58:17Z</time>
      </trkpt>
      <trkpt lat="49.89166" lon="4.21426">
        <ele>234</ele>
        <time>2024-04-01T08:58:18Z</time>
      </trkpt>
      <trkpt lat="49.89171" lon="4.21416">
        <ele>233.8</ele>
        <time>2024-04-01T08:58:19Z</time>
      </trkpt>
      <trkpt lat="49.89176" lon="4.21406">
        <ele>233.4</ele>
        <time>2024-04-01T08:58:20Z</time>
      </trkpt>
      <trkpt lat="49.89182" lon="4.21395">
        <ele>233</ele>
        <time>2024-04-01T08:58:21Z</time>
      </trkpt>
      <trkpt lat="49.89187" lon="4.21385">
        <ele>232.8</ele>
        <time>2024-04-01T08:58:22Z</time>
      </trkpt>
      <trkpt lat="49.89192" lon="4.21374">
        <ele>232.2</ele>
        <time>2024-04-01T08:58:23Z</time>
      </trkpt>
      <trkpt lat="49.89197" lon="4.21364">
        <ele>231.6</ele>
        <time>2024-04-01T08:58:24Z</time>
      </trkpt>
      <trkpt lat="49.89202" lon="4.21353">
        <ele>230.8</ele>
        <time>2024-04-01T08:58:25Z</time>
      </trkpt>
      <trkpt lat="49.89207" lon="4.21343">
        <ele>229.8</ele>
        <time>2024-04-01T08:58:26Z</time>
      </trkpt>
      <trkpt lat="49.89212" lon="4.21333">
        <ele>229.4</ele>
        <time>2024-04-01T08:58:27Z</time>
      </trkpt>
      <trkpt lat="49.89217" lon="4.21323">
        <ele>229.2</ele>
        <time>2024-04-01T08:58:28Z</time>
      </trkpt>
      <trkpt lat="49.89222" lon="4.21313">
        <ele>229.2</ele>
        <time>2024-04-01T08:58:29Z</time>
      </trkpt>
      <trkpt lat="49.89228" lon="4.21303">
        <ele>229</ele>
        <time>2024-04-01T08:58:30Z</time>
      </trkpt>
      <trkpt lat="49.89233" lon="4.21294">
        <ele>228.6</ele>
        <time>2024-04-01T08:58:31Z</time>
      </trkpt>
      <trkpt lat="49.89239" lon="4.21286">
        <ele>228.2</ele>
        <time>2024-04-01T08:58:32Z</time>
      </trkpt>
      <trkpt lat="49.89245" lon="4.21278">
        <ele>228.2</ele>
        <time>2024-04-01T08:58:33Z</time>
      </trkpt>
      <trkpt lat="49.89251" lon="4.2127">
        <ele>228</ele>
        <time>2024-04-01T08:58:34Z</time>
      </trkpt>
      <trkpt lat="49.89256" lon="4.21263">
        <ele>228</ele>
        <time>2024-04-01T08:58:35Z</time>
      </trkpt>
      <trkpt lat="49.89262" lon="4.21256">
        <ele>228.2</ele>
        <time>2024-04-01T08:58:36Z</time>
      </trkpt>
      <trkpt lat="49.89268" lon="4.21249">
        <ele>228</ele>
        <time>2024-04-01T08:58:37Z</time>
      </trkpt>
      <trkpt lat="49.89274" lon="4.21243">
        <ele>228</ele>
        <time>2024-04-01T08:58:38Z</time>
      </trkpt>
      <trkpt lat="49.8928" lon="4.21237">
        <ele>228</ele>
        <time>2024-04-01T08:58:39Z</time>
      </trkpt>
      <trkpt lat="49.89285" lon="4.21231">
        <ele>227.8</ele>
        <time>2024-04-01T08:58:40Z</time>
      </trkpt>
      <trkpt lat="49.8929" lon="4.21225">
        <ele>228</ele>
        <time>2024-04-01T08:58:41Z</time>
      </trkpt>
      <trkpt lat="49.89295" lon="4.2122">
        <ele>228.2</ele>
        <time>2024-04-01T08:58:42Z</time>
      </trkpt>
      <trkpt lat="49.893" lon="4.21215">
        <ele>228.2</ele>
        <time>2024-04-01T08:58:43Z</time>
      </trkpt>
      <trkpt lat="49.89305" lon="4.2121">
        <ele>228.2</ele>
        <time>2024-04-01T08:58:44Z</time>
      </trkpt>
      <trkpt lat="49.89309" lon="4.21205">
        <ele>228.2</ele>
        <time>2024-04-01T08:58:45Z</time>
      </trkpt>
      <trkpt lat="49.89313" lon="4.212">
        <ele>228.2</ele>
        <time>2024-04-01T08:58:46Z</time>
      </trkpt>
      <trkpt lat="49.89317" lon="4.21195">
        <ele>228.4</ele>
        <time>2024-04-01T08:58:47Z</time>
      </trkpt>
      <trkpt lat="49.89321" lon="4.21189">
        <ele>228.6</ele>
        <time>2024-04-01T08:58:48Z</time>
      </trkpt>
      <trkpt lat="49.89325" lon="4.21184">
        <ele>228.8</ele>
        <time>2024-04-01T08:58:49Z</time>
      </trkpt>
      <trkpt lat="49.89329" lon="4.21179">
        <ele>228.8</ele>
        <time>2024-04-01T08:58:50Z</time>
      </trkpt>
      <trkpt lat="49.89332" lon="4.21173">
        <ele>229.2</ele>
        <time>2024-04-01T08:58:51Z</time>
      </trkpt>
      <trkpt lat="49.89336" lon="4.21167">
        <ele>230</ele>
        <time>2024-04-01T08:58:52Z</time>
      </trkpt>
      <trkpt lat="49.89339" lon="4.21162">
        <ele>230.4</ele>
        <time>2024-04-01T08:58:53Z</time>
      </trkpt>
      <trkpt lat="49.89342" lon="4.21156">
        <ele>231</ele>
        <time>2024-04-01T08:58:54Z</time>
      </trkpt>
      <trkpt lat="49.89344" lon="4.2115">
        <ele>232</ele>
        <time>2024-04-01T08:58:55Z</time>
      </trkpt>
      <trkpt lat="49.89346" lon="4.21143">
        <ele>232.8</ele>
        <time>2024-04-01T08:58:56Z</time>
      </trkpt>
      <trkpt lat="49.89349" lon="4.21137">
        <ele>233.2</ele>
        <time>2024-04-01T08:58:57Z</time>
      </trkpt>
      <trkpt lat="49.89351" lon="4.2113">
        <ele>233.6</ele>
        <time>2024-04-01T08:58:58Z</time>
      </trkpt>
      <trkpt lat="49.89353" lon="4.21124">
        <ele>234.2</ele>
        <time>2024-04-01T08:58:59Z</time>
      </trkpt>
      <trkpt lat="49.89355" lon="4.21117">
        <ele>234.4</ele>
        <time>2024-04-01T08:59:00Z</time>
      </trkpt>
      <trkpt lat="49.89357" lon="4.2111">
        <ele>234.8</ele>
        <time>2024-04-01T08:59:01Z</time>
      </trkpt>
      <trkpt lat="49.89359" lon="4.21103">
        <ele>234.8</ele>
        <time>2024-04-01T08:59:02Z</time>
      </trkpt>
      <trkpt lat="49.89361" lon="4.21096">
        <ele>235</ele>
        <time>2024-04-01T08:59:03Z</time>
      </trkpt>
      <trkpt lat="49.89362" lon="4.21089">
        <ele>235.4</ele>
        <time>2024-04-01T08:59:04Z</time>
      </trkpt>
      <trkpt lat="49.89364" lon="4.21082">
        <ele>235.8</ele>
        <time>2024-04-01T08:59:05Z</time>
      </trkpt>
      <trkpt lat="49.89366" lon="4.21075">
        <ele>236</ele>
        <time>2024-04-01T08:59:06Z</time>
      </trkpt>
      <trkpt lat="49.89368" lon="4.21068">
        <ele>236.4</ele>
        <time>2024-04-01T08:59:07Z</time>
      </trkpt>
      <trkpt lat="49.89369" lon="4.2106">
        <ele>236.6</ele>
        <time>2024-04-01T08:59:08Z</time>
      </trkpt>
      <trkpt lat="49.89371" lon="4.21053">
        <ele>236.6</ele>
        <time>2024-04-01T08:59:09Z</time>
      </trkpt>
      <trkpt lat="49.89373" lon="4.21045">
        <ele>236.8</ele>
        <time>2024-04-01T08:59:10Z</time>
      </trkpt>
      <trkpt lat="49.89375" lon="4.21037">
        <ele>236.8</ele>
        <time>2024-04-01T08:59:11Z</time>
      </trkpt>
      <trkpt lat="49.89377" lon="4.21029">
        <ele>236.8</ele>
        <time>2024-04-01T08:59:12Z</time>
      </trkpt>
      <trkpt lat="49.89379" lon="4.21021">
        <ele>237</ele>
        <time>2024-04-01T08:59:13Z</time>
      </trkpt>
      <trkpt lat="49.89381" lon="4.21013">
        <ele>237.2</ele>
        <time>2024-04-01T08:59:14Z</time>
      </trkpt>
      <trkpt lat="49.89383" lon="4.21005">
        <ele>237.2</ele>
        <time>2024-04-01T08:59:15Z</time>
      </trkpt>
      <trkpt lat="49.89385" lon="4.20997">
        <ele>237.4</ele>
        <time>2024-04-01T08:59:16Z</time>
      </trkpt>
      <trkpt lat="49.89387" lon="4.20989">
        <ele>237.6</ele>
        <time>2024-04-01T08:59:17Z</time>
      </trkpt>
      <trkpt lat="49.89389" lon="4.20981">
        <ele>237.6</ele>
        <time>2024-04-01T08:59:18Z</time>
      </trkpt>
      <trkpt lat="49.89391" lon="4.20973">
        <ele>237.8</ele>
        <time>2024-04-01T08:59:19Z</time>
      </trkpt>
      <trkpt lat="49.89393" lon="4.20966">
        <ele>237.8</ele>
        <time>2024-04-01T08:59:20Z</time>
      </trkpt>
      <trkpt lat="49.89395" lon="4.20958">
        <ele>237.6</ele>
        <time>2024-04-01T08:59:21Z</time>
      </trkpt>
      <trkpt lat="49.89396" lon="4.20949">
        <ele>237.6</ele>
        <time>2024-04-01T08:59:22Z</time>
      </trkpt>
      <trkpt lat="49.89398" lon="4.20941">
        <ele>237.8</ele>
        <time>2024-04-01T08:59:23Z</time>
      </trkpt>
      <trkpt lat="49.894" lon="4.20933">
        <ele>237.8</ele>
        <time>2024-04-01T08:59:24Z</time>
      </trkpt>
      <trkpt lat="49.89402" lon="4.20925">
        <ele>238</ele>
        <time>2024-04-01T08:59:25Z</time>
      </trkpt>
      <trkpt lat="49.89404" lon="4.20917">
        <ele>238</ele>
        <time>2024-04-01T08:59:26Z</time>
      </trkpt>
      <trkpt lat="49.89406" lon="4.20908">
        <ele>238</ele>
        <time>2024-04-01T08:59:27Z</time>
      </trkpt>
      <trkpt lat="49.89408" lon="4.209">
        <ele>238.2</ele>
        <time>2024-04-01T08:59:28Z</time>
      </trkpt>
      <trkpt lat="49.8941" lon="4.20892">
        <ele>238.4</ele>
        <time>2024-04-01T08:59:29Z</time>
      </trkpt>
      <trkpt lat="49.89412" lon="4.20883">
        <ele>238.6</ele>
        <time>2024-04-01T08:59:30Z</time>
      </trkpt>
      <trkpt lat="49.89414" lon="4.20875">
        <ele>238.6</ele>
        <time>2024-04-01T08:59:31Z</time>
      </trkpt>
      <trkpt lat="49.89415" lon="4.20867">
        <ele>238.6</ele>
        <time>2024-04-01T08:59:32Z</time>
      </trkpt>
      <trkpt lat="49.89417" lon="4.20858">
        <ele>238.8</ele>
        <time>2024-04-01T08:59:33Z</time>
      </trkpt>
      <trkpt lat="49.89418" lon="4.20849">
        <ele>238.8</ele>
        <time>2024-04-01T08:59:34Z</time>
      </trkpt>
      <trkpt lat="49.89419" lon="4.2084">
        <ele>239</ele>
        <time>2024-04-01T08:59:35Z</time>
      </trkpt>
      <trkpt lat="49.89421" lon="4.20831">
        <ele>239</ele>
        <time>2024-04-01T08:59:36Z</time>
      </trkpt>
      <trkpt lat="49.89422" lon="4.20822">
        <ele>239</ele>
        <time>2024-04-01T08:59:37Z</time>
      </trkpt>
      <trkpt lat="49.89423" lon="4.20812">
        <ele>238.8</ele>
        <time>2024-04-01T08:59:38Z</time>
      </trkpt>
      <trkpt lat="49.89424" lon="4.20803">
        <ele>238.8</ele>
        <time>2024-04-01T08:59:39Z</time>
      </trkpt>
      <trkpt lat="49.89425" lon="4.20793">
        <ele>238.8</ele>
        <time>2024-04-01T08:59:40Z</time>
      </trkpt>
      <trkpt lat="49.89426" lon="4.20783">
        <ele>238.8</ele>
        <time>2024-04-01T08:59:41Z</time>
      </trkpt>
      <trkpt lat="49.89427" lon="4.20773">
        <ele>238.8</ele>
        <time>2024-04-01T08:59:42Z</time>
      </trkpt>
      <trkpt lat="49.89428" lon="4.20763">
        <ele>238.8</ele>
        <time>2024-04-01T08:59:43Z</time>
      </trkpt>
      <trkpt lat="49.89429" lon="4.20753">
        <ele>238.6</ele>
        <time>2024-04-01T08:59:44Z</time>
      </trkpt>
      <trkpt lat="49.8943" lon="4.20743">
        <ele>238.6</ele>
        <time>2024-04-01T08:59:45Z</time>
      </trkpt>
      <trkpt lat="49.89431" lon="4.20732">
        <ele>238.4</ele>
        <time>2024-04-01T08:59:46Z</time>
      </trkpt>
      <trkpt lat="49.89432" lon="4.20722">
        <ele>238.4</ele>
        <time>2024-04-01T08:59:47Z</time>
      </trkpt>
      <trkpt lat="49.89433" lon="4.20712">
        <ele>238.4</ele>
        <time>2024-04-01T08:59:48Z</time>
      </trkpt>
      <trkpt lat="49.89434" lon="4.20701">
        <ele>238.2</ele>
        <time>2024-04-01T08:59:49Z</time>
      </trkpt>
      <trkpt lat="49.89435" lon="4.20691">
        <ele>238.2</ele>
        <time>2024-04-01T08:59:50Z</time>
      </trkpt>
      <trkpt lat="49.89436" lon="4.2068">
        <ele>238</ele>
        <time>2024-04-01T08:59:51Z</time>
      </trkpt>
      <trkpt lat="49.89437" lon="4.2067">
        <ele>237.8</ele>
        <time>2024-04-01T08:59:52Z</time>
      </trkpt>
      <trkpt lat="49.89438" lon="4.2066">
        <ele>237.4</ele>
        <time>2024-04-01T08:59:53Z</time>
      </trkpt>
      <trkpt lat="49.89439" lon="4.20649">
        <ele>237.2</ele>
        <time>2024-04-01T08:59:54Z</time>
      </trkpt>
      <trkpt lat="49.8944" lon="4.20639">
        <ele>237.2</ele>
        <time>2024-04-01T08:59:55Z</time>
      </trkpt>
      <trkpt lat="49.89441" lon="4.20628">
        <ele>237.2</ele>
        <time>2024-04-01T08:59:56Z</time>
      </trkpt>
      <trkpt lat="49.89443" lon="4.20618">
        <ele>237</ele>
        <time>2024-04-01T08:59:57Z</time>
      </trkpt>
      <trkpt lat="49.89444" lon="4.20607">
        <ele>236.8</ele>
        <time>2024-04-01T08:59:58Z</time>
      </trkpt>
      <trkpt lat="49.89445" lon="4.20597">
        <ele>236.8</ele>
        <time>2024-04-01T08:59:59Z</time>
      </trkpt>
      <trkpt lat="49.89447" lon="4.20587">
        <ele>236.6</ele>
        <time>2024-04-01T09:00:00Z</time>
      </trkpt>
      <trkpt lat="49.89449" lon="4.20577">
        <ele>236.4</ele>
        <time>2024-04-01T09:00:01Z</time>
      </trkpt>
      <trkpt lat="49.89451" lon="4.20566">
        <ele>236.2</ele>
        <time>2024-04-01T09:00:02Z</time>
      </trkpt>
      <trkpt lat="49.89454" lon="4.20556">
        <ele>236</ele>
        <time>2024-04-01T09:00:03Z</time>
      </trkpt>
      <trkpt lat="49.89456" lon="4.20547">
        <ele>236.2</ele>
        <time>2024-04-01T09:00:04Z</time>
      </trkpt>
      <trkpt lat="49.89459" lon="4.20537">
        <ele>236</ele>
        <time>2024-04-01T09:00:05Z</time>
      </trkpt>
      <trkpt lat="49.89462" lon="4.20527">
        <ele>235.8</ele>
        <time>2024-04-01T09:00:06Z</time>
      </trkpt>
      <trkpt lat="49.89465" lon="4.20517">
        <ele>235.8</ele>
        <time>2024-04-01T09:00:07Z</time>
      </trkpt>
      <trkpt lat="49.89468" lon="4.20507">
        <ele>235.6</ele>
        <time>2024-04-01T09:00:08Z</time>
      </trkpt>
      <trkpt lat="49.89471" lon="4.20498">
        <ele>235.6</ele>
        <time>2024-04-01T09:00:09Z</time>
      </trkpt>
      <trkpt lat="49.89474" lon="4.20488">
        <ele>235.8</ele>
        <time>2024-04-01T09:00:10Z</time>
      </trkpt>
      <trkpt lat="49.89477" lon="4.20478">
        <ele>235.6</ele>
        <time>2024-04-01T09:00:11Z</time>
      </trkpt>
      <trkpt lat="49.8948" lon="4.20467">
        <ele>235.6</ele>
        <time>2024-04-01T09:00:12Z</time>
      </trkpt>
      <trkpt lat="49.89484" lon="4.20457">
        <ele>235.6</ele>
        <time>2024-04-01T09:00:13Z</time>
      </trkpt>
      <trkpt lat="49.89487" lon="4.20446">
        <ele>235.4</ele>
        <time>2024-04-01T09:00:14Z</time>
      </trkpt>
      <trkpt lat="49.8949" lon="4.20436">
        <ele>235.4</ele>
        <time>2024-04-01T09:00:15Z</time>
      </trkpt>
      <trkpt lat="49.89494" lon="4.20425">
        <ele>235.2</ele>
        <time>2024-04-01T09:00:16Z</time>
      </trkpt>
      <trkpt lat="49.89497" lon="4.20413">
        <ele>235</ele>
        <time>2024-04-01T09:00:17Z</time>
      </trkpt>
      <trkpt lat="49.89501" lon="4.20402">
        <ele>235.2</ele>
        <time>2024-04-01T09:00:18Z</time>
      </trkpt>
      <trkpt lat="49.89505" lon="4.2039">
        <ele>234.8</ele>
        <time>2024-04-01T09:00:19Z</time>
      </trkpt>
      <trkpt lat="49.89508" lon="4.20378">
        <ele>234.2</ele>
        <time>2024-04-01T09:00:20Z</time>
      </trkpt>
      <trkpt lat="49.89512" lon="4.20366">
        <ele>233.8</ele>
        <time>2024-04-01T09:00:21Z</time>
      </trkpt>
      <trkpt lat="49.89516" lon="4.20354">
        <ele>233.2</ele>
        <time>2024-04-01T09:00:22Z</time>
      </trkpt>
      <trkpt lat="49.8952" lon="4.20342">
        <ele>232.6</ele>
        <time>2024-04-01T09:00:23Z</time>
      </trkpt>
      <trkpt lat="49.89525" lon="4.2033">
        <ele>232.2</ele>
        <time>2024-04-01T09:00:24Z</time>
      </trkpt>
      <trkpt lat="49.8953" lon="4.2032">
        <ele>232</ele>
        <time>2024-04-01T09:00:25Z</time>
      </trkpt>
      <trkpt lat="49.89536" lon="4.2031">
        <ele>231.8</ele>
        <time>2024-04-01T09:00:26Z</time>
      </trkpt>
      <trkpt lat="49.89542" lon="4.203">
        <ele>231.4</ele>
        <time>2024-04-01T09:00:27Z</time>
      </trkpt>
      <trkpt lat="49.8955" lon="4.20292">
        <ele>231.4</ele>
        <time>2024-04-01T09:00:28Z</time>
      </trkpt>
      <trkpt lat="49.89558" lon="4.20284">
        <ele>230.6</ele>
        <time>2024-04-01T09:00:29Z</time>
      </trkpt>
      <trkpt lat="49.89566" lon="4.20277">
        <ele>229.6</ele>
        <time>2024-04-01T09:00:30Z</time>
      </trkpt>
      <trkpt lat="49.89575" lon="4.2027">
        <ele>228.6</ele>
        <time>2024-04-01T09:00:31Z</time>
      </trkpt>
      <trkpt lat="49.89584" lon="4.20263">
        <ele>228.2</ele>
        <time>2024-04-01T09:00:32Z</time>
      </trkpt>
      <trkpt lat="49.89594" lon="4.20256">
        <ele>227.6</ele>
        <time>2024-04-01T09:00:33Z</time>
      </trkpt>
      <trkpt lat="49.89603" lon="4.20249">
        <ele>226.6</ele>
        <time>2024-04-01T09:00:34Z</time>
      </trkpt>
      <trkpt lat="49.89613" lon="4.20242">
        <ele>225.4</ele>
        <time>2024-04-01T09:00:35Z</time>
      </trkpt>
      <trkpt lat="49.89623" lon="4.20235">
        <ele>224.2</ele>
        <time>2024-04-01T09:00:36Z</time>
      </trkpt>
      <trkpt lat="49.89632" lon="4.20227">
        <ele>223</ele>
        <time>2024-04-01T09:00:37Z</time>
      </trkpt>
      <trkpt lat="49.89642" lon="4.2022">
        <ele>222.4</ele>
        <time>2024-04-01T09:00:38Z</time>
      </trkpt>
      <trkpt lat="49.89652" lon="4.20212">
        <ele>221.4</ele>
        <time>2024-04-01T09:00:39Z</time>
      </trkpt>
      <trkpt lat="49.89661" lon="4.20205">
        <ele>220.8</ele>
        <time>2024-04-01T09:00:40Z</time>
      </trkpt>
      <trkpt lat="49.89671" lon="4.20198">
        <ele>220.4</ele>
        <time>2024-04-01T09:00:41Z</time>
      </trkpt>
      <trkpt lat="49.8968" lon="4.20191">
        <ele>219.4</ele>
        <time>2024-04-01T09:00:42Z</time>
      </trkpt>
      <trkpt lat="49.89689" lon="4.20184">
        <ele>218.6</ele>
        <time>2024-04-01T09:00:43Z</time>
      </trkpt>
      <trkpt lat="49.89698" lon="4.20177">
        <ele>218.6</ele>
        <time>2024-04-01T09:00:44Z</time>
      </trkpt>
      <trkpt lat="49.89706" lon="4.20171">
        <ele>218.2</ele>
        <time>2024-04-01T09:00:45Z</time>
      </trkpt>
      <trkpt lat="49.89714" lon="4.20164">
        <ele>217.8</ele>
        <time>2024-04-01T09:00:46Z</time>
      </trkpt>
      <trkpt lat="49.89722" lon="4.20158">
        <ele>217.4</ele>
        <time>2024-04-01T09:00:47Z</time>
      </trkpt>
      <trkpt lat="49.89729" lon="4.20153">
        <ele>217.2</ele>
        <time>2024-04-01T09:00:48Z</time>
      </trkpt>
      <trkpt lat="49.89736" lon="4.20147">
        <ele>217</ele>
        <time>2024-04-01T09:00:49Z</time>
      </trkpt>
      <trkpt lat="49.89743" lon="4.20141">
        <ele>217.2</ele>
        <time>2024-04-01T09:00:50Z</time>
      </trkpt>
      <trkpt lat="49.89749" lon="4.20136">
        <ele>217</ele>
        <time>2024-04-01T09:00:51Z</time>
      </trkpt>
      <trkpt lat="49.89755" lon="4.2013">
        <ele>217</ele>
        <time>2024-04-01T09:00:52Z</time>
      </trkpt>
      <trkpt lat="49.89761" lon="4.20125">
        <ele>217.2</ele>
        <time>2024-04-01T09:00:53Z</time>
      </trkpt>
      <trkpt lat="49.89766" lon="4.2012">
        <ele>217</ele>
        <time>2024-04-01T09:00:54Z</time>
      </trkpt>
      <trkpt lat="49.89771" lon="4.20115">
        <ele>217</ele>
        <time>2024-04-01T09:00:55Z</time>
      </trkpt>
      <trkpt lat="49.89776" lon="4.2011">
        <ele>217.2</ele>
        <time>2024-04-01T09:00:56Z</time>
      </trkpt>
      <trkpt lat="49.89781" lon="4.20106">
        <ele>217.4</ele>
        <time>2024-04-01T09:00:57Z</time>
      </trkpt>
      <trkpt lat="49.89786" lon="4.20101">
        <ele>218</ele>
        <time>2024-04-01T09:00:58Z</time>
      </trkpt>
      <trkpt lat="49.89791" lon="4.20097">
        <ele>218.6</ele>
        <time>2024-04-01T09:00:59Z</time>
      </trkpt>
      <trkpt lat="49.89796" lon="4.20093">
        <ele>218.8</ele>
        <time>2024-04-01T09:01:00Z</time>
      </trkpt>
      <trkpt lat="49.898" lon="4.20089">
        <ele>218.8</ele>
        <time>2024-04-01T09:01:01Z</time>
      </trkpt>
      <trkpt lat="49.89805" lon="4.20086">
        <ele>219.2</ele>
        <time>2024-04-01T09:01:02Z</time>
      </trkpt>
      <trkpt lat="49.89809" lon="4.20082">
        <ele>220</ele>
        <time>2024-04-01T09:01:03Z</time>
      </trkpt>
      <trkpt lat="49.89814" lon="4.20078">
        <ele>220.2</ele>
        <time>2024-04-01T09:01:04Z</time>
      </trkpt>
      <trkpt lat="49.89818" lon="4.20074">
        <ele>220.6</ele>
        <time>2024-04-01T09:01:05Z</time>
      </trkpt>
      <trkpt lat="49.89822" lon="4.2007">
        <ele>220.8</ele>
        <time>2024-04-01T09:01:06Z</time>
      </trkpt>
      <trkpt lat="49.89825" lon="4.20066">
        <ele>221.2</ele>
        <time>2024-04-01T09:01:07Z</time>
      </trkpt>
      <trkpt lat="49.89829" lon="4.20063">
        <ele>221.2</ele>
        <time>2024-04-01T09:01:08Z</time>
      </trkpt>
      <trkpt lat="49.89833" lon="4.20059">
        <ele>221.4</ele>
        <time>2024-04-01T09:01:09Z</time>
      </trkpt>
      <trkpt lat="49.89837" lon="4.20055">
        <ele>222</ele>
        <time>2024-04-01T09:01:10Z</time>
      </trkpt>
      <trkpt lat="49.89841" lon="4.20051">
        <ele>222.8</ele>
        <time>2024-04-01T09:01:11Z</time>
      </trkpt>
      <trkpt lat="49.89845" lon="4.20047">
        <ele>223.4</ele>
        <time>2024-04-01T09:01:12Z</time>
      </trkpt>
      <trkpt lat="49.89849" lon="4.20042">
        <ele>224.2</ele>
        <time>2024-04-01T09:01:13Z</time>
      </trkpt>
      <trkpt lat="49.89852" lon="4.20038">
        <ele>224.6</ele>
        <time>2024-04-01T09:01:14Z</time>
      </trkpt>
      <trkpt lat="49.89856" lon="4.20033">
        <ele>225</ele>
        <time>2024-04-01T09:01:15Z</time>
      </trkpt>
      <trkpt lat="49.89861" lon="4.20029">
        <ele>225.4</ele>
        <time>2024-04-01T09:01:16Z</time>
      </trkpt>
      <trkpt lat="49.89865" lon="4.20024">
        <ele>226</ele>
        <time>2024-04-01T09:01:17Z</time>
      </trkpt>
      <trkpt lat="49.89869" lon="4.2002">
        <ele>226.4</ele>
        <time>2024-04-01T09:01:18Z</time>
      </trkpt>
      <trkpt lat="49.89873" lon="4.20015">
        <ele>227</ele>
        <time>2024-04-01T09:01:19Z</time>
      </trkpt>
      <trkpt lat="49.89878" lon="4.2001">
        <ele>227.2</ele>
        <time>2024-04-01T09:01:20Z</time>
      </trkpt>
      <trkpt lat="49.89882" lon="4.20005">
        <ele>227.2</ele>
        <time>2024-04-01T09:01:21Z</time>
      </trkpt>
      <trkpt lat="49.89887" lon="4.2">
        <ele>227.4</ele>
        <time>2024-04-01T09:01:22Z</time>
      </trkpt>
      <trkpt lat="49.89892" lon="4.19994">
        <ele>227.4</ele>
        <time>2024-04-01T09:01:23Z</time>
      </trkpt>
      <trkpt lat="49.89898" lon="4.19989">
        <ele>227.4</ele>
        <time>2024-04-01T09:01:24Z</time>
      </trkpt>
      <trkpt lat="49.89904" lon="4.19983">
        <ele>227.4</ele>
        <time>2024-04-01T09:01:25Z</time>
      </trkpt>
      <trkpt lat="49.89911" lon="4.19978">
        <ele>227.4</ele>
        <time>2024-04-01T09:01:26Z</time>
      </trkpt>
      <trkpt lat="49.89918" lon="4.19974">
        <ele>227.6</ele>
        <time>2024-04-01T09:01:27Z</time>
      </trkpt>
      <trkpt lat="49.89925" lon="4.1997">
        <ele>227.4</ele>
        <time>2024-04-01T09:01:28Z</time>
      </trkpt>
      <trkpt lat="49.89933" lon="4.19967">
        <ele>227.6</ele>
        <time>2024-04-01T09:01:29Z</time>
      </trkpt>
      <trkpt lat="49.89942" lon="4.19965">
        <ele>227.6</ele>
        <time>2024-04-01T09:01:30Z</time>
      </trkpt>
      <trkpt lat="49.89951" lon="4.19964">
        <ele>227.2</ele>
        <time>2024-04-01T09:01:31Z</time>
      </trkpt>
      <trkpt lat="49.89959" lon="4.19963">
        <ele>227</ele>
        <time>2024-04-01T09:01:32Z</time>
      </trkpt>
      <trkpt lat="49.89968" lon="4.19963">
        <ele>226.8</ele>
        <time>2024-04-01T09:01:33Z</time>
      </trkpt>
      <trkpt lat="49.89976" lon="4.19964">
        <ele>226.4</ele>
        <time>2024-04-01T09:01:34Z</time>
      </trkpt>
      <trkpt lat="49.89985" lon="4.19965">
        <ele>225.8</ele>
        <time>2024-04-01T09:01:35Z</time>
      </trkpt>
      <trkpt lat="49.89993" lon="4.19965">
        <ele>224.8</ele>
        <time>2024-04-01T09:01:36Z</time>
      </trkpt>
      <trkpt lat="49.90001" lon="4.19964">
        <ele>223.4</ele>
        <time>2024-04-01T09:01:37Z</time>
      </trkpt>
      <trkpt lat="49.9001" lon="4.19963">
        <ele>222.6</ele>
        <time>2024-04-01T09:01:38Z</time>
      </trkpt>
      <trkpt lat="49.90017" lon="4.19961">
        <ele>222.6</ele>
        <time>2024-04-01T09:01:39Z</time>
      </trkpt>
      <trkpt lat="49.90025" lon="4.19958">
        <ele>222.2</ele>
        <time>2024-04-01T09:01:40Z</time>
      </trkpt>
      <trkpt lat="49.90032" lon="4.19955">
        <ele>221.8</ele>
        <time>2024-04-01T09:01:41Z</time>
      </trkpt>
      <trkpt lat="49.90039" lon="4.19952">
        <ele>221.8</ele>
        <time>2024-04-01T09:01:42Z</time>
      </trkpt>
      <trkpt lat="49.90045" lon="4.19948">
        <ele>221.8</ele>
        <time>2024-04-01T09:01:43Z</time>
      </trkpt>
      <trkpt lat="49.90052" lon="4.19945">
        <ele>221.6</ele>
        <time>2024-04-01T09:01:44Z</time>
      </trkpt>
      <trkpt lat="49.90058" lon="4.19941">
        <ele>221.8</ele>
        <time>2024-04-01T09:01:45Z</time>
      </trkpt>
      <trkpt lat="49.90064" lon="4.19938">
        <ele>221.6</ele>
        <time>2024-04-01T09:01:46Z</time>
      </trkpt>
      <trkpt lat="49.90069" lon="4.19935">
        <ele>221.6</ele>
        <time>2024-04-01T09:01:47Z</time>
      </trkpt>
      <trkpt lat="49.90075" lon="4.19932">
        <ele>221.8</ele>
        <time>2024-04-01T09:01:48Z</time>
      </trkpt>
      <trkpt lat="49.9008" lon="4.19929">
        <ele>221.8</ele>
        <time>2024-04-01T09:01:49Z</time>
      </trkpt>
      <trkpt lat="49.90085" lon="4.19926">
        <ele>222</ele>
        <time>2024-04-01T09:01:50Z</time>
      </trkpt>
      <trkpt lat="49.90091" lon="4.19923">
        <ele>222</ele>
        <time>2024-04-01T09:01:51Z</time>
      </trkpt>
      <trkpt lat="49.90096" lon="4.19919">
        <ele>222.2</ele>
        <time>2024-04-01T09:01:52Z</time>
      </trkpt>
      <trkpt lat="49.90101" lon="4.19916">
        <ele>222.8</ele>
        <time>2024-04-01T09:01:53Z</time>
      </trkpt>
      <trkpt lat="49.90106" lon="4.19913">
        <ele>223.4</ele>
        <time>2024-04-01T09:01:54Z</time>
      </trkpt>
      <trkpt lat="49.90111" lon="4.1991">
        <ele>224.2</ele>
        <time>2024-04-01T09:01:55Z</time>
      </trkpt>
      <trkpt lat="49.90115" lon="4.19907">
        <ele>224.6</ele>
        <time>2024-04-01T09:01:56Z</time>
      </trkpt>
      <trkpt lat="49.9012" lon="4.19905">
        <ele>224.6</ele>
        <time>2024-04-01T09:01:57Z</time>
      </trkpt>
      <trkpt lat="49.90124" lon="4.19902">
        <ele>225</ele>
        <time>2024-04-01T09:01:58Z</time>
      </trkpt>
      <trkpt lat="49.90129" lon="4.19899">
        <ele>225.2</ele>
        <time>2024-04-01T09:01:59Z</time>
      </trkpt>
      <trkpt lat="49.90133" lon="4.19896">
        <ele>225.4</ele>
        <time>2024-04-01T09:02:00Z</time>
      </trkpt>
      <trkpt lat="49.90138" lon="4.19893">
        <ele>225.8</ele>
        <time>2024-04-01T09:02:01Z</time>
      </trkpt>
      <trkpt lat="49.90142" lon="4.1989">
        <ele>226.2</ele>
        <time>2024-04-01T09:02:02Z</time>
      </trkpt>
      <trkpt lat="49.90146" lon="4.19887">
        <ele>226.2</ele>
        <time>2024-04-01T09:02:03Z</time>
      </trkpt>
      <trkpt lat="49.90151" lon="4.19885">
        <ele>226.6</ele>
        <time>2024-04-01T09:02:04Z</time>
      </trkpt>
      <trkpt lat="49.90155" lon="4.19882">
        <ele>226.6</ele>
        <time>2024-04-01T09:02:05Z</time>
      </trkpt>
      <trkpt lat="49.9016" lon="4.19879">
        <ele>227</ele>
        <time>2024-04-01T09:02:06Z</time>
      </trkpt>
      <trkpt lat="49.90164" lon="4.19876">
        <ele>227.4</ele>
        <time>2024-04-01T09:02:07Z</time>
      </trkpt>
      <trkpt lat="49.90169" lon="4.19873">
        <ele>227.8</ele>
        <time>2024-04-01T09:02:08Z</time>
      </trkpt>
      <trkpt lat="49.90173" lon="4.19871">
        <ele>228</ele>
        <time>2024-04-01T09:02:09Z</time>
      </trkpt>
      <trkpt lat="49.90176" lon="4.19868">
        <ele>228.2</ele>
        <time>2024-04-01T09:02:10Z</time>
      </trkpt>
      <trkpt lat="49.9018" lon="4.19865">
        <ele>228.6</ele>
        <time>2024-04-01T09:02:11Z</time>
      </trkpt>
      <trkpt lat="49.90183" lon="4.19859">
        <ele>228.6</ele>
        <time>2024-04-01T09:02:12Z</time>
      </trkpt>
      <trkpt lat="49.90185" lon="4.19853">
        <ele>229.2</ele>
        <time>2024-04-01T09:02:13Z</time>
      </trkpt>
      <trkpt lat="49.90187" lon="4.19845">
        <ele>229.2</ele>
        <time>2024-04-01T09:02:14Z</time>
      </trkpt>
      <trkpt lat="49.90189" lon="4.19838">
        <ele>229.6</ele>
        <time>2024-04-01T09:02:15Z</time>
      </trkpt>
      <trkpt lat="49.90191" lon="4.1983">
        <ele>229.8</ele>
        <time>2024-04-01T09:02:16Z</time>
      </trkpt>
      <trkpt lat="49.90193" lon="4.19823">
        <ele>229.6</ele>
        <time>2024-04-01T09:02:17Z</time>
      </trkpt>
      <trkpt lat="49.90195" lon="4.19815">
        <ele>230</ele>
        <time>2024-04-01T09:02:18Z</time>
      </trkpt>
      <trkpt lat="49.90198" lon="4.19807">
        <ele>229.8</ele>
        <time>2024-04-01T09:02:19Z</time>
      </trkpt>
      <trkpt lat="49.902" lon="4.198">
        <ele>230</ele>
        <time>2024-04-01T09:02:20Z</time>
      </trkpt>
      <trkpt lat="49.90202" lon="4.19792">
        <ele>230.2</ele>
        <time>2024-04-01T09:02:21Z</time>
      </trkpt>
      <trkpt lat="49.90205" lon="4.19785">
        <ele>230.2</ele>
        <time>2024-04-01T09:02:22Z</time>
      </trkpt>
      <trkpt lat="49.90207" lon="4.19777">
        <ele>230.4</ele>
        <time>2024-04-01T09:02:23Z</time>
      </trkpt>
      <trkpt lat="49.9021" lon="4.19769">
        <ele>230.4</ele>
        <time>2024-04-01T09:02:24Z</time>
      </trkpt>
      <trkpt lat="49.90212" lon="4.19762">
        <ele>230.6</ele>
        <time>2024-04-01T09:02:25Z</time>
      </trkpt>
      <trkpt lat="49.90215" lon="4.19755">
        <ele>230.6</ele>
        <time>2024-04-01T09:02:26Z</time>
      </trkpt>
      <trkpt lat="49.90218" lon="4.19748">
        <ele>230.6</ele>
        <time>2024-04-01T09:02:27Z</time>
      </trkpt>
      <trkpt lat="49.9022" lon="4.19741">
        <ele>230.8</ele>
        <time>2024-04-01T09:02:28Z</time>
      </trkpt>
      <trkpt lat="49.90223" lon="4.19734">
        <ele>231</ele>
        <time>2024-04-01T09:02:29Z</time>
      </trkpt>
      <trkpt lat="49.90226" lon="4.19727">
        <ele>231.2</ele>
        <time>2024-04-01T09:02:30Z</time>
      </trkpt>
      <trkpt lat="49.90229" lon="4.1972">
        <ele>231.6</ele>
        <time>2024-04-01T09:02:31Z</time>
      </trkpt>
      <trkpt lat="49.90232" lon="4.19713">
        <ele>231.6</ele>
        <time>2024-04-01T09:02:32Z</time>
      </trkpt>
      <trkpt lat="49.90235" lon="4.19707">
        <ele>231.6</ele>
        <time>2024-04-01T09:02:33Z</time>
      </trkpt>
      <trkpt lat="49.90238" lon="4.197">
        <ele>231.8</ele>
        <time>2024-04-01T09:02:34Z</time>
      </trkpt>
      <trkpt lat="49.90241" lon="4.19693">
        <ele>232</ele>
        <time>2024-04-01T09:02:35Z</time>
      </trkpt>
      <trkpt lat="49.90244" lon="4.19686">
        <ele>232</ele>
        <time>2024-04-01T09:02:36Z</time>
      </trkpt>
      <trkpt lat="49.90247" lon="4.1968">
        <ele>232.4</ele>
        <time>2024-04-01T09:02:37Z</time>
      </trkpt>
      <trkpt lat="49.9025" lon="4.19673">
        <ele>232.6</ele>
        <time>2024-04-01T09:02:38Z</time>
      </trkpt>
      <trkpt lat="49.90253" lon="4.19666">
        <ele>232.6</ele>
        <time>2024-04-01T09:02:39Z</time>
      </trkpt>
      <trkpt lat="49.90256" lon="4.1966">
        <ele>232.8</ele>
        <time>2024-04-01T09:02:40Z</time>
      </trkpt>
      <trkpt lat="49.9026" lon="4.19653">
        <ele>232.8</ele>
        <time>2024-04-01T09:02:41Z</time>
      </trkpt>
      <trkpt lat="49.90263" lon="4.19646">
        <ele>232.8</ele>
        <time>2024-04-01T09:02:42Z</time>
      </trkpt>
      <trkpt lat="49.90266" lon="4.19639">
        <ele>232.8</ele>
        <time>2024-04-01T09:02:43Z</time>
      </trkpt>
      <trkpt lat="49.90269" lon="4.19632">
        <ele>233</ele>
        <time>2024-04-01T09:02:44Z</time>
      </trkpt>
      <trkpt lat="49.90272" lon="4.19625">
        <ele>232.8</ele>
        <time>2024-04-01T09:02:45Z</time>
      </trkpt>
      <trkpt lat="49.90276" lon="4.19618">
        <ele>233</ele>
        <time>2024-04-01T09:02:46Z</time>
      </trkpt>
      <trkpt lat="49.90279" lon="4.19611">
        <ele>233</ele>
        <time>2024-04-01T09:02:47Z</time>
      </trkpt>
      <trkpt lat="49.90282" lon="4.19604">
        <ele>233.2</ele>
        <time>2024-04-01T09:02:48Z</time>
      </trkpt>
      <trkpt lat="49.90285" lon="4.19597">
        <ele>233.2</ele>
        <time>2024-04-01T09:02:49Z</time>
      </trkpt>
      <trkpt lat="49.90288" lon="4.1959">
        <ele>233.2</ele>
        <time>2024-04-01T09:02:50Z</time>
      </trkpt>
      <trkpt lat="49.90291" lon="4.19583">
        <ele>233.6</ele>
        <time>2024-04-01T09:02:51Z</time>
      </trkpt>
      <trkpt lat="49.90294" lon="4.19576">
        <ele>233.8</ele>
        <time>2024-04-01T09:02:52Z</time>
      </trkpt>
      <trkpt lat="49.90297" lon="4.19569">
        <ele>234</ele>
        <time>2024-04-01T09:02:53Z</time>
      </trkpt>
      <trkpt lat="49.903" lon="4.19563">
        <ele>234.2</ele>
        <time>2024-04-01T09:02:54Z</time>
      </trkpt>
      <trkpt lat="49.90303" lon="4.19556">
        <ele>234.6</ele>
        <time>2024-04-01T09:02:55Z</time>
      </trkpt>
      <trkpt lat="49.90306" lon="4.19549">
        <ele>234.8</ele>
        <time>2024-04-01T09:02:56Z</time>
      </trkpt>
      <trkpt lat="49.90309" lon="4.19543">
        <ele>235.2</ele>
        <time>2024-04-01T09:02:57Z</time>
      </trkpt>
      <trkpt lat="49.90312" lon="4.19536">
        <ele>235.4</ele>
        <time>2024-04-01T09:02:58Z</time>
      </trkpt>
      <trkpt lat="49.90315" lon="4.19529">
        <ele>235.8</ele>
        <time>2024-04-01T09:02:59Z</time>
      </trkpt>
      <trkpt lat="49.90318" lon="4.19523">
        <ele>235.8</ele>
        <time>2024-04-01T09:03:00Z</time>
      </trkpt>
      <trkpt lat="49.90321" lon="4.19517">
        <ele>235.8</ele>
        <time>2024-04-01T09:03:01Z</time>
      </trkpt>
      <trkpt lat="49.90324" lon="4.1951">
        <ele>236</ele>
        <time>2024-04-01T09:03:02Z</time>
      </trkpt>
      <trkpt lat="49.90327" lon="4.19504">
        <ele>236</ele>
        <time>2024-04-01T09:03:03Z</time>
      </trkpt>
      <trkpt lat="49.90329" lon="4.19498">
        <ele>236</ele>
        <time>2024-04-01T09:03:04Z</time>
      </trkpt>
      <trkpt lat="49.90332" lon="4.19492">
        <ele>236</ele>
        <time>2024-04-01T09:03:05Z</time>
      </trkpt>
      <trkpt lat="49.90335" lon="4.19487">
        <ele>236.2</ele>
        <time>2024-04-01T09:03:06Z</time>
      </trkpt>
      <trkpt lat="49.90338" lon="4.19481">
        <ele>236</ele>
        <time>2024-04-01T09:03:07Z</time>
      </trkpt>
      <trkpt lat="49.90341" lon="4.19475">
        <ele>236.2</ele>
        <time>2024-04-01T09:03:08Z</time>
      </trkpt>
      <trkpt lat="49.90344" lon="4.1947">
        <ele>236.2</ele>
        <time>2024-04-01T09:03:09Z</time>
      </trkpt>
      <trkpt lat="49.90348" lon="4.19464">
        <ele>236.2</ele>
        <time>2024-04-01T09:03:10Z</time>
      </trkpt>
      <trkpt lat="49.90351" lon="4.19459">
        <ele>236.4</ele>
        <time>2024-04-01T09:03:11Z</time>
      </trkpt>
      <trkpt lat="49.90354" lon="4.19454">
        <ele>236.2</ele>
        <time>2024-04-01T09:03:12Z</time>
      </trkpt>
      <trkpt lat="49.90358" lon="4.19449">
        <ele>236.4</ele>
        <time>2024-04-01T09:03:13Z</time>
      </trkpt>
      <trkpt lat="49.90362" lon="4.19444">
        <ele>236.2</ele>
        <time>2024-04-01T09:03:14Z</time>
      </trkpt>
      <trkpt lat="49.90366" lon="4.19439">
        <ele>236.4</ele>
        <time>2024-04-01T09:03:15Z</time>
      </trkpt>
      <trkpt lat="49.9037" lon="4.19434">
        <ele>236.4</ele>
        <time>2024-04-01T09:03:16Z</time>
      </trkpt>
      <trkpt lat="49.90374" lon="4.1943">
        <ele>236.8</ele>
        <time>2024-04-01T09:03:17Z</time>
      </trkpt>
      <trkpt lat="49.90378" lon="4.19425">
        <ele>237</ele>
        <time>2024-04-01T09:03:18Z</time>
      </trkpt>
      <trkpt lat="49.90382" lon="4.19421">
        <ele>237.4</ele>
        <time>2024-04-01T09:03:19Z</time>
      </trkpt>
      <trkpt lat="49.90386" lon="4.19416">
        <ele>237.8</ele>
        <time>2024-04-01T09:03:20Z</time>
      </trkpt>
      <trkpt lat="49.9039" lon="4.19411">
        <ele>237.8</ele>
        <time>2024-04-01T09:03:21Z</time>
      </trkpt>
      <trkpt lat="49.90395" lon="4.19406">
        <ele>237.8</ele>
        <time>2024-04-01T09:03:22Z</time>
      </trkpt>
      <trkpt lat="49.90399" lon="4.19401">
        <ele>238</ele>
        <time>2024-04-01T09:03:23Z</time>
      </trkpt>
      <trkpt lat="49.90404" lon="4.19396">
        <ele>238</ele>
        <time>2024-04-01T09:03:24Z</time>
      </trkpt>
      <trkpt lat="49.90408" lon="4.19391">
        <ele>238.2</ele>
        <time>2024-04-01T09:03:25Z</time>
      </trkpt>
      <trkpt lat="49.90413" lon="4.19386">
        <ele>238.4</ele>
        <time>2024-04-01T09:03:26Z</time>
      </trkpt>
      <trkpt lat="49.90418" lon="4.19381">
        <ele>238.4</ele>
        <time>2024-04-01T09:03:27Z</time>
      </trkpt>
      <trkpt lat="49.90423" lon="4.19375">
        <ele>238.6</ele>
        <time>2024-04-01T09:03:28Z</time>
      </trkpt>
      <trkpt lat="49.90428" lon="4.1937">
        <ele>238.6</ele>
        <time>2024-04-01T09:03:29Z</time>
      </trkpt>
      <trkpt lat="49.90434" lon="4.19364">
        <ele>238.6</ele>
        <time>2024-04-01T09:03:30Z</time>
      </trkpt>
      <trkpt lat="49.90439" lon="4.19358">
        <ele>238.6</ele>
        <time>2024-04-01T09:03:31Z</time>
      </trkpt>
      <trkpt lat="49.90444" lon="4.19352">
        <ele>238.6</ele>
        <time>2024-04-01T09:03:32Z</time>
      </trkpt>
      <trkpt lat="49.9045" lon="4.19346">
        <ele>238.6</ele>
        <time>2024-04-01T09:03:33Z</time>
      </trkpt>
      <trkpt lat="49.90456" lon="4.1934">
        <ele>238.6</ele>
        <time>2024-04-01T09:03:34Z</time>
      </trkpt>
      <trkpt lat="49.90461" lon="4.19334">
        <ele>238.6</ele>
        <time>2024-04-01T09:03:35Z</time>
      </trkpt>
      <trkpt lat="49.90467" lon="4.19327">
        <ele>238.6</ele>
        <time>2024-04-01T09:03:36Z</time>
      </trkpt>
      <trkpt lat="49.90472" lon="4.19321">
        <ele>238.4</ele>
        <time>2024-04-01T09:03:37Z</time>
      </trkpt>
      <trkpt lat="49.90478" lon="4.19315">
        <ele>238.2</ele>
        <time>2024-04-01T09:03:38Z</time>
      </trkpt>
      <trkpt lat="49.90483" lon="4.19309">
        <ele>238.2</ele>
        <time>2024-04-01T09:03:39Z</time>
      </trkpt>
      <trkpt lat="49.90489" lon="4.19302">
        <ele>237.8</ele>
        <time>2024-04-01T09:03:40Z</time>
      </trkpt>
      <trkpt lat="49.90495" lon="4.19296">
        <ele>237.4</ele>
        <time>2024-04-01T09:03:41Z</time>
      </trkpt>
      <trkpt lat="49.905" lon="4.19289">
        <ele>237.4</ele>
        <time>2024-04-01T09:03:42Z</time>
      </trkpt>
      <trkpt lat="49.90506" lon="4.19283">
        <ele>237</ele>
        <time>2024-04-01T09:03:43Z</time>
      </trkpt>
      <trkpt lat="49.90511" lon="4.19277">
        <ele>236.8</ele>
        <time>2024-04-01T09:03:44Z</time>
      </trkpt>
      <trkpt lat="49.90517" lon="4.19271">
        <ele>236.6</ele>
        <time>2024-04-01T09:03:45Z</time>
      </trkpt>
      <trkpt lat="49.90522" lon="4.19264">
        <ele>236.6</ele>
        <time>2024-04-01T09:03:46Z</time>
      </trkpt>
      <trkpt lat="49.90527" lon="4.19258">
        <ele>236.4</ele>
        <time>2024-04-01T09:03:47Z</time>
      </trkpt>
      <trkpt lat="49.90532" lon="4.19251">
        <ele>236.2</ele>
        <time>2024-04-01T09:03:48Z</time>
      </trkpt>
      <trkpt lat="49.90536" lon="4.19245">
        <ele>236.2</ele>
        <time>2024-04-01T09:03:49Z</time>
      </trkpt>
      <trkpt lat="49.90539" lon="4.19238">
        <ele>236</ele>
        <time>2024-04-01T09:03:50Z</time>
      </trkpt>
      <trkpt lat="49.90539" lon="4.1923">
        <ele>235.8</ele>
        <time>2024-04-01T09:03:51Z</time>
      </trkpt>
      <trkpt lat="49.90536" lon="4.19221">
        <ele>235.8</ele>
        <time>2024-04-01T09:03:52Z</time>
      </trkpt>
      <trkpt lat="49.90533" lon="4.19213">
        <ele>235.6</ele>
        <time>2024-04-01T09:03:53Z</time>
      </trkpt>
      <trkpt lat="49.90529" lon="4.19204">
        <ele>235.4</ele>
        <time>2024-04-01T09:03:54Z</time>
      </trkpt>
      <trkpt lat="49.90525" lon="4.19195">
        <ele>235</ele>
        <time>2024-04-01T09:03:55Z</time>
      </trkpt>
      <trkpt lat="49.90521" lon="4.19186">
        <ele>235</ele>
        <time>2024-04-01T09:03:56Z</time>
      </trkpt>
      <trkpt lat="49.90517" lon="4.19176">
        <ele>235</ele>
        <time>2024-04-01T09:03:57Z</time>
      </trkpt>
      <trkpt lat="49.90513" lon="4.19167">
        <ele>234.8</ele>
        <time>2024-04-01T09:03:58Z</time>
      </trkpt>
      <trkpt lat="49.90509" lon="4.19157">
        <ele>234.6</ele>
        <time>2024-04-01T09:03:59Z</time>
      </trkpt>
      <trkpt lat="49.90504" lon="4.19148">
        <ele>234.6</ele>
        <time>2024-04-01T09:04:00Z</time>
      </trkpt>
      <trkpt lat="49.905" lon="4.19138">
        <ele>234.2</ele>
        <time>2024-04-01T09:04:01Z</time>
      </trkpt>
      <trkpt lat="49.90496" lon="4.19128">
        <ele>234</ele>
        <time>2024-04-01T09:04:02Z</time>
      </trkpt>
      <trkpt lat="49.90491" lon="4.19118">
        <ele>233.8</ele>
        <time>2024-04-01T09:04:03Z</time>
      </trkpt>
      <trkpt lat="49.90487" lon="4.19108">
        <ele>233.6</ele>
        <time>2024-04-01T09:04:04Z</time>
      </trkpt>
      <trkpt lat="49.90482" lon="4.19098">
        <ele>233</ele>
        <time>2024-04-01T09:04:05Z</time>
      </trkpt>
      <trkpt lat="49.90478" lon="4.19088">
        <ele>232.4</ele>
        <time>2024-04-01T09:04:06Z</time>
      </trkpt>
      <trkpt lat="49.90473" lon="4.19078">
        <ele>232</ele>
        <time>2024-04-01T09:04:07Z</time>
      </trkpt>
      <trkpt lat="49.90469" lon="4.19068">
        <ele>231.8</ele>
        <time>2024-04-01T09:04:08Z</time>
      </trkpt>
      <trkpt lat="49.90465" lon="4.19058">
        <ele>231.6</ele>
        <time>2024-04-01T09:04:09Z</time>
      </trkpt>
      <trkpt lat="49.90461" lon="4.19048">
        <ele>230.8</ele>
        <time>2024-04-01T09:04:10Z</time>
      </trkpt>
      <trkpt lat="49.90456" lon="4.19038">
        <ele>230.6</ele>
        <time>2024-04-01T09:04:11Z</time>
      </trkpt>
      <trkpt lat="49.90452" lon="4.19028">
        <ele>230</ele>
        <time>2024-04-01T09:04:12Z</time>
      </trkpt>
      <trkpt lat="49.90448" lon="4.19018">
        <ele>229.8</ele>
        <time>2024-04-01T09:04:13Z</time>
      </trkpt>
      <trkpt lat="49.90443" lon="4.19008">
        <ele>229.8</ele>
        <time>2024-04-01T09:04:14Z</time>
      </trkpt>
      <trkpt lat="49.90438" lon="4.18998">
        <ele>229.4</ele>
        <time>2024-04-01T09:04:15Z</time>
      </trkpt>
      <trkpt lat="49.90434" lon="4.18988">
        <ele>229.4</ele>
        <time>2024-04-01T09:04:16Z</time>
      </trkpt>
      <trkpt lat="49.90429" lon="4.18978">
        <ele>229.4</ele>
        <time>2024-04-01T09:04:17Z</time>
      </trkpt>
      <trkpt lat="49.90425" lon="4.18968">
        <ele>229.2</ele>
        <time>2024-04-01T09:04:18Z</time>
      </trkpt>
      <trkpt lat="49.9042" lon="4.18958">
        <ele>229.2</ele>
        <time>2024-04-01T09:04:19Z</time>
      </trkpt>
      <trkpt lat="49.90416" lon="4.18948">
        <ele>229</ele>
        <time>2024-04-01T09:04:20Z</time>
      </trkpt>
      <trkpt lat="49.90411" lon="4.18938">
        <ele>229</ele>
        <time>2024-04-01T09:04:21Z</time>
      </trkpt>
      <trkpt lat="49.90406" lon="4.18928">
        <ele>228.8</ele>
        <time>2024-04-01T09:04:22Z</time>
      </trkpt>
      <trkpt lat="49.90402" lon="4.18919">
        <ele>228.8</ele>
        <time>2024-04-01T09:04:23Z</time>
      </trkpt>
      <trkpt lat="49.90398" lon="4.18909">
        <ele>228.8</ele>
        <time>2024-04-01T09:04:24Z</time>
      </trkpt>
      <trkpt lat="49.90394" lon="4.189">
        <ele>228.6</ele>
        <time>2024-04-01T09:04:25Z</time>
      </trkpt>
      <trkpt lat="49.9039" lon="4.18891">
        <ele>228.6</ele>
        <time>2024-04-01T09:04:26Z</time>
      </trkpt>
      <trkpt lat="49.90385" lon="4.18881">
        <ele>228.6</ele>
        <time>2024-04-01T09:04:27Z</time>
      </trkpt>
      <trkpt lat="49.90381" lon="4.18871">
        <ele>228.4</ele>
        <time>2024-04-01T09:04:28Z</time>
      </trkpt>
      <trkpt lat="49.90377" lon="4.18862">
        <ele>228.2</ele>
        <time>2024-04-01T09:04:29Z</time>
      </trkpt>
      <trkpt lat="49.90373" lon="4.18852">
        <ele>228.2</ele>
        <time>2024-04-01T09:04:30Z</time>
      </trkpt>
      <trkpt lat="49.90368" lon="4.18842">
        <ele>228.2</ele>
        <time>2024-04-01T09:04:31Z</time>
      </trkpt>
      <trkpt lat="49.90364" lon="4.18832">
        <ele>228</ele>
        <time>2024-04-01T09:04:32Z</time>
      </trkpt>
      <trkpt lat="49.9036" lon="4.18823">
        <ele>227.8</ele>
        <time>2024-04-01T09:04:33Z</time>
      </trkpt>
      <trkpt lat="49.90355" lon="4.18813">
        <ele>227.4</ele>
        <time>2024-04-01T09:04:34Z</time>
      </trkpt>
      <trkpt lat="49.90351" lon="4.18803">
        <ele>227.2</ele>
        <time>2024-04-01T09:04:35Z</time>
      </trkpt>
      <trkpt lat="49.90346" lon="4.18792">
        <ele>227.2</ele>
        <time>2024-04-01T09:04:36Z</time>
      </trkpt>
      <trkpt lat="49.90342" lon="4.18782">
        <ele>227</ele>
        <time>2024-04-01T09:04:37Z</time>
      </trkpt>
      <trkpt lat="49.90337" lon="4.18772">
        <ele>227</ele>
        <time>2024-04-01T09:04:38Z</time>
      </trkpt>
      <trkpt lat="49.90333" lon="4.18762">
        <ele>226.8</ele>
        <time>2024-04-01T09:04:39Z</time>
      </trkpt>
      <trkpt lat="49.90328" lon="4.18752">
        <ele>226.6</ele>
        <time>2024-04-01T09:04:40Z</time>
      </trkpt>
      <trkpt lat="49.90324" lon="4.18741">
        <ele>226.8</ele>
        <time>2024-04-01T09:04:41Z</time>
      </trkpt>
      <trkpt lat="49.90319" lon="4.18731">
        <ele>226.8</ele>
        <time>2024-04-01T09:04:42Z</time>
      </trkpt>
      <trkpt lat="49.90314" lon="4.1872">
        <ele>226.4</ele>
        <time>2024-04-01T09:04:43Z</time>
      </trkpt>
      <trkpt lat="49.9031" lon="4.18709">
        <ele>225.8</ele>
        <time>2024-04-01T09:04:44Z</time>
      </trkpt>
      <trkpt lat="49.90305" lon="4.18698">
        <ele>225.6</ele>
        <time>2024-04-01T09:04:45Z</time>
      </trkpt>
      <trkpt lat="49.903" lon="4.18687">
        <ele>225.2</ele>
        <time>2024-04-01T09:04:46Z</time>
      </trkpt>
      <trkpt lat="49.90295" lon="4.18676">
        <ele>225</ele>
        <time>2024-04-01T09:04:47Z</time>
      </trkpt>
      <trkpt lat="49.9029" lon="4.18666">
        <ele>224.8</ele>
        <time>2024-04-01T09:04:48Z</time>
      </trkpt>
      <trkpt lat="49.90286" lon="4.18655">
        <ele>224.8</ele>
        <time>2024-04-01T09:04:49Z</time>
      </trkpt>
      <trkpt lat="49.90281" lon="4.18644">
        <ele>224.8</ele>
        <time>2024-04-01T09:04:50Z</time>
      </trkpt>
      <trkpt lat="49.90276" lon="4.18633">
        <ele>224.6</ele>
        <time>2024-04-01T09:04:51Z</time>
      </trkpt>
      <trkpt lat="49.90271" lon="4.18623">
        <ele>224.4</ele>
        <time>2024-04-01T09:04:52Z</time>
      </trkpt>
      <trkpt lat="49.90267" lon="4.18613">
        <ele>224.6</ele>
        <time>2024-04-01T09:04:53Z</time>
      </trkpt>
      <trkpt lat="49.90262" lon="4.18602">
        <ele>224.4</ele>
        <time>2024-04-01T09:04:54Z</time>
      </trkpt>
      <trkpt lat="49.90258" lon="4.18592">
        <ele>223.8</ele>
        <time>2024-04-01T09:04:55Z</time>
      </trkpt>
      <trkpt lat="49.90253" lon="4.18581">
        <ele>223.4</ele>
        <time>2024-04-01T09:04:56Z</time>
      </trkpt>
      <trkpt lat="49.90249" lon="4.18571">
        <ele>223.2</ele>
        <time>2024-04-01T09:04:57Z</time>
      </trkpt>
      <trkpt lat="49.90244" lon="4.1856">
        <ele>222.6</ele>
        <time>2024-04-01T09:04:58Z</time>
      </trkpt>
      <trkpt lat="49.90239" lon="4.1855">
        <ele>221.8</ele>
        <time>2024-04-01T09:04:59Z</time>
      </trkpt>
      <trkpt lat="49.90235" lon="4.1854">
        <ele>221.4</ele>
        <time>2024-04-01T09:05:00Z</time>
      </trkpt>
      <trkpt lat="49.9023" lon="4.1853">
        <ele>221.2</ele>
        <time>2024-04-01T09:05:01Z</time>
      </trkpt>
      <trkpt lat="49.90226" lon="4.18519">
        <ele>221.2</ele>
        <time>2024-04-01T09:05:02Z</time>
      </trkpt>
      <trkpt lat="49.90221" lon="4.18509">
        <ele>221</ele>
        <time>2024-04-01T09:05:03Z</time>
      </trkpt>
      <trkpt lat="49.90217" lon="4.18499">
        <ele>220.8</ele>
        <time>2024-04-01T09:05:04Z</time>
      </trkpt>
      <trkpt lat="49.90213" lon="4.18489">
        <ele>220.6</ele>
        <time>2024-04-01T09:05:05Z</time>
      </trkpt>
      <trkpt lat="49.90208" lon="4.18478">
        <ele>220.6</ele>
        <time>2024-04-01T09:05:06Z</time>
      </trkpt>
      <trkpt lat="49.90204" lon="4.18469">
        <ele>220.6</ele>
        <time>2024-04-01T09:05:07Z</time>
      </trkpt>
      <trkpt lat="49.90199" lon="4.18459">
        <ele>220.6</ele>
        <time>2024-04-01T09:05:08Z</time>
      </trkpt>
      <trkpt lat="49.90195" lon="4.18448">
        <ele>220.2</ele>
        <time>2024-04-01T09:05:09Z</time>
      </trkpt>
      <trkpt lat="49.9019" lon="4.18438">
        <ele>220</ele>
        <time>2024-04-01T09:05:10Z</time>
      </trkpt>
      <trkpt lat="49.90186" lon="4.18428">
        <ele>220</ele>
        <time>2024-04-01T09:05:11Z</time>
      </trkpt>
      <trkpt lat="49.90182" lon="4.18418">
        <ele>219.8</ele>
        <time>2024-04-01T09:05:12Z</time>
      </trkpt>
      <trkpt lat="49.90178" lon="4.18408">
        <ele>219.2</ele>
        <time>2024-04-01T09:05:13Z</time>
      </trkpt>
      <trkpt lat="49.90174" lon="4.18398">
        <ele>219</ele>
        <time>2024-04-01T09:05:14Z</time>
      </trkpt>
      <trkpt lat="49.9017" lon="4.18388">
        <ele>219</ele>
        <time>2024-04-01T09:05:15Z</time>
      </trkpt>
      <trkpt lat="49.90165" lon="4.18378">
        <ele>218.8</ele>
        <time>2024-04-01T09:05:16Z</time>
      </trkpt>
      <trkpt lat="49.90161" lon="4.18368">
        <ele>218.6</ele>
        <time>2024-04-01T09:05:17Z</time>
      </trkpt>
      <trkpt lat="49.90156" lon="4.18357">
        <ele>218.4</ele>
        <time>2024-04-01T09:05:18Z</time>
      </trkpt>
      <trkpt lat="49.90152" lon="4.18347">
        <ele>218.4</ele>
        <time>2024-04-01T09:05:19Z</time>
      </trkpt>
      <trkpt lat="49.90148" lon="4.18336">
        <ele>218.4</ele>
        <time>2024-04-01T09:05:20Z</time>
      </trkpt>
      <trkpt lat="49.90143" lon="4.18326">
        <ele>218.4</ele>
        <time>2024-04-01T09:05:21Z</time>
      </trkpt>
      <trkpt lat="49.90138" lon="4.18315">
        <ele>218.2</ele>
        <time>2024-04-01T09:05:22Z</time>
      </trkpt>
      <trkpt lat="49.90134" lon="4.18304">
        <ele>217.6</ele>
        <time>2024-04-01T09:05:23Z</time>
      </trkpt>
      <trkpt lat="49.90129" lon="4.18294">
        <ele>217.6</ele>
        <time>2024-04-01T09:05:24Z</time>
      </trkpt>
      <trkpt lat="49.90125" lon="4.18283">
        <ele>217.2</ele>
        <time>2024-04-01T09:05:25Z</time>
      </trkpt>
      <trkpt lat="49.9012" lon="4.18273">
        <ele>216.8</ele>
        <time>2024-04-01T09:05:26Z</time>
      </trkpt>
      <trkpt lat="49.90116" lon="4.18263">
        <ele>216.4</ele>
        <time>2024-04-01T09:05:27Z</time>
      </trkpt>
      <trkpt lat="49.90112" lon="4.18252">
        <ele>216.2</ele>
        <time>2024-04-01T09:05:28Z</time>
      </trkpt>
      <trkpt lat="49.90107" lon="4.18242">
        <ele>215.8</ele>
        <time>2024-04-01T09:05:29Z</time>
      </trkpt>
      <trkpt lat="49.90103" lon="4.18231">
        <ele>215.4</ele>
        <time>2024-04-01T09:05:30Z</time>
      </trkpt>
      <trkpt lat="49.90099" lon="4.18221">
        <ele>215</ele>
        <time>2024-04-01T09:05:31Z</time>
      </trkpt>
      <trkpt lat="49.90095" lon="4.18211">
        <ele>214.8</ele>
        <time>2024-04-01T09:05:32Z</time>
      </trkpt>
      <trkpt lat="49.90091" lon="4.18201">
        <ele>214.4</ele>
        <time>2024-04-01T09:05:33Z</time>
      </trkpt>
      <trkpt lat="49.90086" lon="4.18191">
        <ele>214.4</ele>
        <time>2024-04-01T09:05:34Z</time>
      </trkpt>
      <trkpt lat="49.90082" lon="4.18181">
        <ele>214</ele>
        <time>2024-04-01T09:05:35Z</time>
      </trkpt>
      <trkpt lat="49.90078" lon="4.18171">
        <ele>214</ele>
        <time>2024-04-01T09:05:36Z</time>
      </trkpt>
      <trkpt lat="49.90074" lon="4.18162">
        <ele>214</ele>
        <time>2024-04-01T09:05:37Z</time>
      </trkpt>
      <trkpt lat="49.9007" lon="4.18152">
        <ele>213.8</ele>
        <time>2024-04-01T09:05:38Z</time>
      </trkpt>
      <trkpt lat="49.90067" lon="4.18143">
        <ele>213.6</ele>
        <time>2024-04-01T09:05:39Z</time>
      </trkpt>
      <trkpt lat="49.90063" lon="4.18134">
        <ele>213.6</ele>
        <time>2024-04-01T09:05:40Z</time>
      </trkpt>
      <trkpt lat="49.90059" lon="4.18125">
        <ele>213.8</ele>
        <time>2024-04-01T09:05:41Z</time>
      </trkpt>
      <trkpt lat="49.90055" lon="4.18116">
        <ele>213.8</ele>
        <time>2024-04-01T09:05:42Z</time>
      </trkpt>
      <trkpt lat="49.90052" lon="4.18108">
        <ele>213.8</ele>
        <time>2024-04-01T09:05:43Z</time>
      </trkpt>
      <trkpt lat="49.90048" lon="4.18099">
        <ele>213.6</ele>
        <time>2024-04-01T09:05:44Z</time>
      </trkpt>
      <trkpt lat="49.90044" lon="4.18091">
        <ele>213.6</ele>
        <time>2024-04-01T09:05:45Z</time>
      </trkpt>
      <trkpt lat="49.90041" lon="4.18082">
        <ele>213.6</ele>
        <time>2024-04-01T09:05:46Z</time>
      </trkpt>
      <trkpt lat="49.90037" lon="4.18074">
        <ele>213.6</ele>
        <time>2024-04-01T09:05:47Z</time>
      </trkpt>
      <trkpt lat="49.90034" lon="4.18065">
        <ele>213.6</ele>
        <time>2024-04-01T09:05:48Z</time>
      </trkpt>
      <trkpt lat="49.9003" lon="4.18057">
        <ele>213.6</ele>
        <time>2024-04-01T09:05:49Z</time>
      </trkpt>
      <trkpt lat="49.90027" lon="4.18048">
        <ele>213.8</ele>
        <time>2024-04-01T09:05:50Z</time>
      </trkpt>
      <trkpt lat="49.90023" lon="4.18039">
        <ele>214</ele>
        <time>2024-04-01T09:05:51Z</time>
      </trkpt>
      <trkpt lat="49.90019" lon="4.1803">
        <ele>214</ele>
        <time>2024-04-01T09:05:52Z</time>
      </trkpt>
      <trkpt lat="49.90016" lon="4.18021">
        <ele>214</ele>
        <time>2024-04-01T09:05:53Z</time>
      </trkpt>
      <trkpt lat="49.90012" lon="4.18012">
        <ele>214</ele>
        <time>2024-04-01T09:05:54Z</time>
      </trkpt>
      <trkpt lat="49.90008" lon="4.18003">
        <ele>214</ele>
        <time>2024-04-01T09:05:55Z</time>
      </trkpt>
      <trkpt lat="49.90004" lon="4.17994">
        <ele>214</ele>
        <time>2024-04-01T09:05:56Z</time>
      </trkpt>
      <trkpt lat="49.9" lon="4.17984">
        <ele>214.2</ele>
        <time>2024-04-01T09:05:57Z</time>
      </trkpt>
      <trkpt lat="49.89996" lon="4.17974">
        <ele>214.2</ele>
        <time>2024-04-01T09:05:58Z</time>
      </trkpt>
      <trkpt lat="49.89993" lon="4.17963">
        <ele>214.2</ele>
        <time>2024-04-01T09:05:59Z</time>
      </trkpt>
      <trkpt lat="49.89988" lon="4.17953">
        <ele>214.2</ele>
        <time>2024-04-01T09:06:00Z</time>
      </trkpt>
      <trkpt lat="49.89984" lon="4.17943">
        <ele>214</ele>
        <time>2024-04-01T09:06:01Z</time>
      </trkpt>
      <trkpt lat="49.8998" lon="4.17932">
        <ele>214</ele>
        <time>2024-04-01T09:06:02Z</time>
      </trkpt>
      <trkpt lat="49.89976" lon="4.17921">
        <ele>214</ele>
        <time>2024-04-01T09:06:03Z</time>
      </trkpt>
      <trkpt lat="49.89971" lon="4.1791">
        <ele>213.8</ele>
        <time>2024-04-01T09:06:04Z</time>
      </trkpt>
      <trkpt lat="49.89967" lon="4.17899">
        <ele>213.8</ele>
        <time>2024-04-01T09:06:05Z</time>
      </trkpt>
      <trkpt lat="49.89963" lon="4.17888">
        <ele>213.8</ele>
        <time>2024-04-01T09:06:06Z</time>
      </trkpt>
      <trkpt lat="49.89958" lon="4.17877">
        <ele>213.4</ele>
        <time>2024-04-01T09:06:07Z</time>
      </trkpt>
      <trkpt lat="49.89954" lon="4.17865">
        <ele>212.6</ele>
        <time>2024-04-01T09:06:08Z</time>
      </trkpt>
      <trkpt lat="49.89949" lon="4.17854">
        <ele>212</ele>
        <time>2024-04-01T09:06:09Z</time>
      </trkpt>
      <trkpt lat="49.89945" lon="4.17842">
        <ele>211</ele>
        <time>2024-04-01T09:06:10Z</time>
      </trkpt>
      <trkpt lat="49.8994" lon="4.1783">
        <ele>210</ele>
        <time>2024-04-01T09:06:11Z</time>
      </trkpt>
      <trkpt lat="49.89936" lon="4.17819">
        <ele>209.4</ele>
        <time>2024-04-01T09:06:12Z</time>
      </trkpt>
      <trkpt lat="49.89931" lon="4.17807">
        <ele>208.6</ele>
        <time>2024-04-01T09:06:13Z</time>
      </trkpt>
      <trkpt lat="49.89926" lon="4.17795">
        <ele>208.6</ele>
        <time>2024-04-01T09:06:14Z</time>
      </trkpt>
      <trkpt lat="49.89921" lon="4.17784">
        <ele>208.2</ele>
        <time>2024-04-01T09:06:15Z</time>
      </trkpt>
      <trkpt lat="49.89917" lon="4.17773">
        <ele>207.6</ele>
        <time>2024-04-01T09:06:16Z</time>
      </trkpt>
      <trkpt lat="49.89912" lon="4.17761">
        <ele>207.2</ele>
        <time>2024-04-01T09:06:17Z</time>
      </trkpt>
      <trkpt lat="49.89908" lon="4.1775">
        <ele>206.6</ele>
        <time>2024-04-01T09:06:18Z</time>
      </trkpt>
      <trkpt lat="49.89903" lon="4.17739">
        <ele>206.4</ele>
        <time>2024-04-01T09:06:19Z</time>
      </trkpt>
      <trkpt lat="49.89899" lon="4.17729">
        <ele>206</ele>
        <time>2024-04-01T09:06:20Z</time>
      </trkpt>
      <trkpt lat="49.89895" lon="4.17718">
        <ele>205.4</ele>
        <time>2024-04-01T09:06:21Z</time>
      </trkpt>
      <trkpt lat="49.89891" lon="4.17707">
        <ele>205.2</ele>
        <time>2024-04-01T09:06:22Z</time>
      </trkpt>
      <trkpt lat="49.89886" lon="4.17697">
        <ele>205</ele>
        <time>2024-04-01T09:06:23Z</time>
      </trkpt>
      <trkpt lat="49.89882" lon="4.17686">
        <ele>204.8</ele>
        <time>2024-04-01T09:06:24Z</time>
      </trkpt>
      <trkpt lat="49.89878" lon="4.17676">
        <ele>204.8</ele>
        <time>2024-04-01T09:06:25Z</time>
      </trkpt>
      <trkpt lat="49.89874" lon="4.17666">
        <ele>204.6</ele>
        <time>2024-04-01T09:06:26Z</time>
      </trkpt>
      <trkpt lat="49.8987" lon="4.17655">
        <ele>204.6</ele>
        <time>2024-04-01T09:06:27Z</time>
      </trkpt>
      <trkpt lat="49.89866" lon="4.17645">
        <ele>204.6</ele>
        <time>2024-04-01T09:06:28Z</time>
      </trkpt>
      <trkpt lat="49.89862" lon="4.17635">
        <ele>204.4</ele>
        <time>2024-04-01T09:06:29Z</time>
      </trkpt>
      <trkpt lat="49.89858" lon="4.17625">
        <ele>204.4</ele>
        <time>2024-04-01T09:06:30Z</time>
      </trkpt>
      <trkpt lat="49.89854" lon="4.17615">
        <ele>204.4</ele>
        <time>2024-04-01T09:06:31Z</time>
      </trkpt>
      <trkpt lat="49.8985" lon="4.17605">
        <ele>204.4</ele>
        <time>2024-04-01T09:06:32Z</time>
      </trkpt>
      <trkpt lat="49.89847" lon="4.17595">
        <ele>204.4</ele>
        <time>2024-04-01T09:06:33Z</time>
      </trkpt>
      <trkpt lat="49.89843" lon="4.17585">
        <ele>204.4</ele>
        <time>2024-04-01T09:06:34Z</time>
      </trkpt>
      <trkpt lat="49.89839" lon="4.17576">
        <ele>204.4</ele>
        <time>2024-04-01T09:06:35Z</time>
      </trkpt>
      <trkpt lat="49.89834" lon="4.17566">
        <ele>204.2</ele>
        <time>2024-04-01T09:06:36Z</time>
      </trkpt>
      <trkpt lat="49.8983" lon="4.17556">
        <ele>204.2</ele>
        <time>2024-04-01T09:06:37Z</time>
      </trkpt>
      <trkpt lat="49.89826" lon="4.17546">
        <ele>203.6</ele>
        <time>2024-04-01T09:06:38Z</time>
      </trkpt>
      <trkpt lat="49.89822" lon="4.17536">
        <ele>203</ele>
        <time>2024-04-01T09:06:39Z</time>
      </trkpt>
      <trkpt lat="49.89818" lon="4.17526">
        <ele>203</ele>
        <time>2024-04-01T09:06:40Z</time>
      </trkpt>
      <trkpt lat="49.89814" lon="4.17516">
        <ele>202.6</ele>
        <time>2024-04-01T09:06:41Z</time>
      </trkpt>
      <trkpt lat="49.8981" lon="4.17506">
        <ele>202</ele>
        <time>2024-04-01T09:06:42Z</time>
      </trkpt>
      <trkpt lat="49.89806" lon="4.17496">
        <ele>201.8</ele>
        <time>2024-04-01T09:06:43Z</time>
      </trkpt>
      <trkpt lat="49.89802" lon="4.17486">
        <ele>201.6</ele>
        <time>2024-04-01T09:06:44Z</time>
      </trkpt>
      <trkpt lat="49.89798" lon="4.17476">
        <ele>201.4</ele>
        <time>2024-04-01T09:06:45Z</time>
      </trkpt>
      <trkpt lat="49.89794" lon="4.17466">
        <ele>201.2</ele>
        <time>2024-04-01T09:06:46Z</time>
      </trkpt>
      <trkpt lat="49.8979" lon="4.17456">
        <ele>201.2</ele>
        <time>2024-04-01T09:06:47Z</time>
      </trkpt>
      <trkpt lat="49.89786" lon="4.17447">
        <ele>201.2</ele>
        <time>2024-04-01T09:06:48Z</time>
      </trkpt>
      <trkpt lat="49.89782" lon="4.17437">
        <ele>201</ele>
        <time>2024-04-01T09:06:49Z</time>
      </trkpt>
      <trkpt lat="49.89778" lon="4.17427">
        <ele>201</ele>
        <time>2024-04-01T09:06:50Z</time>
      </trkpt>
      <trkpt lat="49.89774" lon="4.17417">
        <ele>200.8</ele>
        <time>2024-04-01T09:06:51Z</time>
      </trkpt>
      <trkpt lat="49.8977" lon="4.17407">
        <ele>200.8</ele>
        <time>2024-04-01T09:06:52Z</time>
      </trkpt>
      <trkpt lat="49.89766" lon="4.17398">
        <ele>200.8</ele>
        <time>2024-04-01T09:06:53Z</time>
      </trkpt>
      <trkpt lat="49.89763" lon="4.17388">
        <ele>200.8</ele>
        <time>2024-04-01T09:06:54Z</time>
      </trkpt>
      <trkpt lat="49.89759" lon="4.17378">
        <ele>200.6</ele>
        <time>2024-04-01T09:06:55Z</time>
      </trkpt>
      <trkpt lat="49.89755" lon="4.17368">
        <ele>200.6</ele>
        <time>2024-04-01T09:06:56Z</time>
      </trkpt>
      <trkpt lat="49.89751" lon="4.17359">
        <ele>200.6</ele>
        <time>2024-04-01T09:06:57Z</time>
      </trkpt>
      <trkpt lat="49.89747" lon="4.17349">
        <ele>200.6</ele>
        <time>2024-04-01T09:06:58Z</time>
      </trkpt>
      <trkpt lat="49.89743" lon="4.17339">
        <ele>200.4</ele>
        <time>2024-04-01T09:06:59Z</time>
      </trkpt>
      <trkpt lat="49.8974" lon="4.17329">
        <ele>200.6</ele>
        <time>2024-04-01T09:07:00Z</time>
      </trkpt>
      <trkpt lat="49.89736" lon="4.1732">
        <ele>200.4</ele>
        <time>2024-04-01T09:07:01Z</time>
      </trkpt>
      <trkpt lat="49.89732" lon="4.1731">
        <ele>200.2</ele>
        <time>2024-04-01T09:07:02Z</time>
      </trkpt>
      <trkpt lat="49.89727" lon="4.17299">
        <ele>200.4</ele>
        <time>2024-04-01T09:07:03Z</time>
      </trkpt>
      <trkpt lat="49.89723" lon="4.17289">
        <ele>200.2</ele>
        <time>2024-04-01T09:07:04Z</time>
      </trkpt>
      <trkpt lat="49.89719" lon="4.17279">
        <ele>200.2</ele>
        <time>2024-04-01T09:07:05Z</time>
      </trkpt>
      <trkpt lat="49.89715" lon="4.17269">
        <ele>200</ele>
        <time>2024-04-01T09:07:06Z</time>
      </trkpt>
      <trkpt lat="49.89711" lon="4.17258">
        <ele>200</ele>
        <time>2024-04-01T09:07:07Z</time>
      </trkpt>
      <trkpt lat="49.89707" lon="4.17248">
        <ele>200</ele>
        <time>2024-04-01T09:07:08Z</time>
      </trkpt>
      <trkpt lat="49.89702" lon="4.17237">
        <ele>200</ele>
        <time>2024-04-01T09:07:09Z</time>
      </trkpt>
      <trkpt lat="49.89698" lon="4.17227">
        <ele>199.8</ele>
        <time>2024-04-01T09:07:10Z</time>
      </trkpt>
      <trkpt lat="49.89694" lon="4.17216">
        <ele>199.8</ele>
        <time>2024-04-01T09:07:11Z</time>
      </trkpt>
      <trkpt lat="49.8969" lon="4.17205">
        <ele>199.6</ele>
        <time>2024-04-01T09:07:12Z</time>
      </trkpt>
      <trkpt lat="49.89686" lon="4.17195">
        <ele>199.8</ele>
        <time>2024-04-01T09:07:13Z</time>
      </trkpt>
      <trkpt lat="49.89681" lon="4.17184">
        <ele>199.6</ele>
        <time>2024-04-01T09:07:14Z</time>
      </trkpt>
      <trkpt lat="49.89677" lon="4.17173">
        <ele>199.6</ele>
        <time>2024-04-01T09:07:15Z</time>
      </trkpt>
      <trkpt lat="49.89672" lon="4.17162">
        <ele>199.6</ele>
        <time>2024-04-01T09:07:16Z</time>
      </trkpt>
      <trkpt lat="49.89668" lon="4.17151">
        <ele>199.4</ele>
        <time>2024-04-01T09:07:17Z</time>
      </trkpt>
      <trkpt lat="49.89663" lon="4.1714">
        <ele>199.2</ele>
        <time>2024-04-01T09:07:18Z</time>
      </trkpt>
      <trkpt lat="49.89659" lon="4.17129">
        <ele>199</ele>
        <time>2024-04-01T09:07:19Z</time>
      </trkpt>
      <trkpt lat="49.89654" lon="4.17117">
        <ele>198.6</ele>
        <time>2024-04-01T09:07:20Z</time>
      </trkpt>
      <trkpt lat="49.89649" lon="4.17106">
        <ele>198</ele>
        <time>2024-04-01T09:07:21Z</time>
      </trkpt>
      <trkpt lat="49.89645" lon="4.17094">
        <ele>197.2</ele>
        <time>2024-04-01T09:07:22Z</time>
      </trkpt>
      <trkpt lat="49.8964" lon="4.17082">
        <ele>196.8</ele>
        <time>2024-04-01T09:07:23Z</time>
      </trkpt>
      <trkpt lat="49.89635" lon="4.1707">
        <ele>196.8</ele>
        <time>2024-04-01T09:07:24Z</time>
      </trkpt>
      <trkpt lat="49.8963" lon="4.17058">
        <ele>196.4</ele>
        <time>2024-04-01T09:07:25Z</time>
      </trkpt>
      <trkpt lat="49.89625" lon="4.17046">
        <ele>196.2</ele>
        <time>2024-04-01T09:07:26Z</time>
      </trkpt>
      <trkpt lat="49.89621" lon="4.17034">
        <ele>196</ele>
        <time>2024-04-01T09:07:27Z</time>
      </trkpt>
      <trkpt lat="49.89616" lon="4.17022">
        <ele>194.8</ele>
        <time>2024-04-01T09:07:28Z</time>
      </trkpt>
      <trkpt lat="49.89611" lon="4.1701">
        <ele>193.8</ele>
        <time>2024-04-01T09:07:29Z</time>
      </trkpt>
      <trkpt lat="49.89606" lon="4.16998">
        <ele>193.4</ele>
        <time>2024-04-01T09:07:30Z</time>
      </trkpt>
      <trkpt lat="49.89601" lon="4.16986">
        <ele>192.8</ele>
        <time>2024-04-01T09:07:31Z</time>
      </trkpt>
      <trkpt lat="49.89596" lon="4.16974">
        <ele>192.4</ele>
        <time>2024-04-01T09:07:32Z</time>
      </trkpt>
      <trkpt lat="49.89592" lon="4.16963">
        <ele>192</ele>
        <time>2024-04-01T09:07:33Z</time>
      </trkpt>
      <trkpt lat="49.89587" lon="4.16951">
        <ele>191.6</ele>
        <time>2024-04-01T09:07:34Z</time>
      </trkpt>
      <trkpt lat="49.89583" lon="4.16941">
        <ele>191.4</ele>
        <time>2024-04-01T09:07:35Z</time>
      </trkpt>
      <trkpt lat="49.89579" lon="4.1693">
        <ele>191.4</ele>
        <time>2024-04-01T09:07:36Z</time>
      </trkpt>
      <trkpt lat="49.89575" lon="4.1692">
        <ele>191.4</ele>
        <time>2024-04-01T09:07:37Z</time>
      </trkpt>
      <trkpt lat="49.89571" lon="4.1691">
        <ele>191.2</ele>
        <time>2024-04-01T09:07:38Z</time>
      </trkpt>
      <trkpt lat="49.89567" lon="4.16901">
        <ele>191.2</ele>
        <time>2024-04-01T09:07:39Z</time>
      </trkpt>
      <trkpt lat="49.89564" lon="4.16892">
        <ele>191.2</ele>
        <time>2024-04-01T09:07:40Z</time>
      </trkpt>
      <trkpt lat="49.8956" lon="4.16883">
        <ele>191.2</ele>
        <time>2024-04-01T09:07:41Z</time>
      </trkpt>
      <trkpt lat="49.89556" lon="4.16874">
        <ele>191.2</ele>
        <time>2024-04-01T09:07:42Z</time>
      </trkpt>
      <trkpt lat="49.89553" lon="4.16865">
        <ele>191.2</ele>
        <time>2024-04-01T09:07:43Z</time>
      </trkpt>
      <trkpt lat="49.8955" lon="4.16857">
        <ele>191.4</ele>
        <time>2024-04-01T09:07:44Z</time>
      </trkpt>
      <trkpt lat="49.89546" lon="4.16849">
        <ele>191.8</ele>
        <time>2024-04-01T09:07:45Z</time>
      </trkpt>
      <trkpt lat="49.89543" lon="4.16841">
        <ele>192</ele>
        <time>2024-04-01T09:07:46Z</time>
      </trkpt>
      <trkpt lat="49.8954" lon="4.16833">
        <ele>192.4</ele>
        <time>2024-04-01T09:07:47Z</time>
      </trkpt>
      <trkpt lat="49.89537" lon="4.16826">
        <ele>192.8</ele>
        <time>2024-04-01T09:07:48Z</time>
      </trkpt>
      <trkpt lat="49.89534" lon="4.16819">
        <ele>193.2</ele>
        <time>2024-04-01T09:07:49Z</time>
      </trkpt>
      <trkpt lat="49.89532" lon="4.16812">
        <ele>193.4</ele>
        <time>2024-04-01T09:07:50Z</time>
      </trkpt>
      <trkpt lat="49.89531" lon="4.16805">
        <ele>193.6</ele>
        <time>2024-04-01T09:07:51Z</time>
      </trkpt>
      <trkpt lat="49.89531" lon="4.16798">
        <ele>193.6</ele>
        <time>2024-04-01T09:07:52Z</time>
      </trkpt>
      <trkpt lat="49.89532" lon="4.16789">
        <ele>193.8</ele>
        <time>2024-04-01T09:07:53Z</time>
      </trkpt>
      <trkpt lat="49.89533" lon="4.1678">
        <ele>193.6</ele>
        <time>2024-04-01T09:07:54Z</time>
      </trkpt>
      <trkpt lat="49.89534" lon="4.16771">
        <ele>193.6</ele>
        <time>2024-04-01T09:07:55Z</time>
      </trkpt>
      <trkpt lat="49.89535" lon="4.16761">
        <ele>193.6</ele>
        <time>2024-04-01T09:07:56Z</time>
      </trkpt>
      <trkpt lat="49.89537" lon="4.1675">
        <ele>193.8</ele>
        <time>2024-04-01T09:07:57Z</time>
      </trkpt>
      <trkpt lat="49.89538" lon="4.16739">
        <ele>193.8</ele>
        <time>2024-04-01T09:07:58Z</time>
      </trkpt>
      <trkpt lat="49.89538" lon="4.16728">
        <ele>193.6</ele>
        <time>2024-04-01T09:07:59Z</time>
      </trkpt>
      <trkpt lat="49.89538" lon="4.16715">
        <ele>193.8</ele>
        <time>2024-04-01T09:08:00Z</time>
      </trkpt>
      <trkpt lat="49.89538" lon="4.16703">
        <ele>193.6</ele>
        <time>2024-04-01T09:08:01Z</time>
      </trkpt>
      <trkpt lat="49.89537" lon="4.1669">
        <ele>193.4</ele>
        <time>2024-04-01T09:08:02Z</time>
      </trkpt>
      <trkpt lat="49.89535" lon="4.16678">
        <ele>193.2</ele>
        <time>2024-04-01T09:08:03Z</time>
      </trkpt>
      <trkpt lat="49.89533" lon="4.16666">
        <ele>192.6</ele>
        <time>2024-04-01T09:08:04Z</time>
      </trkpt>
      <trkpt lat="49.8953" lon="4.16655">
        <ele>192.2</ele>
        <time>2024-04-01T09:08:05Z</time>
      </trkpt>
      <trkpt lat="49.89525" lon="4.16644">
        <ele>191.8</ele>
        <time>2024-04-01T09:08:06Z</time>
      </trkpt>
      <trkpt lat="49.89521" lon="4.16634">
        <ele>191.4</ele>
        <time>2024-04-01T09:08:07Z</time>
      </trkpt>
      <trkpt lat="49.89516" lon="4.16623">
        <ele>191.2</ele>
        <time>2024-04-01T09:08:08Z</time>
      </trkpt>
      <trkpt lat="49.89511" lon="4.16613">
        <ele>190.6</ele>
        <time>2024-04-01T09:08:09Z</time>
      </trkpt>
      <trkpt lat="49.89507" lon="4.16602">
        <ele>189.8</ele>
        <time>2024-04-01T09:08:10Z</time>
      </trkpt>
      <trkpt lat="49.89502" lon="4.16592">
        <ele>189.8</ele>
        <time>2024-04-01T09:08:11Z</time>
      </trkpt>
      <trkpt lat="49.89498" lon="4.16582">
        <ele>189.4</ele>
        <time>2024-04-01T09:08:12Z</time>
      </trkpt>
      <trkpt lat="49.89493" lon="4.16572">
        <ele>189.4</ele>
        <time>2024-04-01T09:08:13Z</time>
      </trkpt>
      <trkpt lat="49.89488" lon="4.16562">
        <ele>189</ele>
        <time>2024-04-01T09:08:14Z</time>
      </trkpt>
      <trkpt lat="49.89483" lon="4.16552">
        <ele>188.4</ele>
        <time>2024-04-01T09:08:15Z</time>
      </trkpt>
      <trkpt lat="49.89479" lon="4.16541">
        <ele>188</ele>
        <time>2024-04-01T09:08:16Z</time>
      </trkpt>
      <trkpt lat="49.89474" lon="4.16531">
        <ele>187.8</ele>
        <time>2024-04-01T09:08:17Z</time>
      </trkpt>
      <trkpt lat="49.8947" lon="4.16521">
        <ele>187.8</ele>
        <time>2024-04-01T09:08:18Z</time>
      </trkpt>
      <trkpt lat="49.89465" lon="4.1651">
        <ele>187.4</ele>
        <time>2024-04-01T09:08:19Z</time>
      </trkpt>
      <trkpt lat="49.89461" lon="4.16499">
        <ele>187.2</ele>
        <time>2024-04-01T09:08:20Z</time>
      </trkpt>
      <trkpt lat="49.89457" lon="4.16488">
        <ele>187.2</ele>
        <time>2024-04-01T09:08:21Z</time>
      </trkpt>
      <trkpt lat="49.89453" lon="4.16477">
        <ele>187</ele>
        <time>2024-04-01T09:08:22Z</time>
      </trkpt>
      <trkpt lat="49.89449" lon="4.16465">
        <ele>186.6</ele>
        <time>2024-04-01T09:08:23Z</time>
      </trkpt>
      <trkpt lat="49.89446" lon="4.16454">
        <ele>186.4</ele>
        <time>2024-04-01T09:08:24Z</time>
      </trkpt>
      <trkpt lat="49.89443" lon="4.16443">
        <ele>186.2</ele>
        <time>2024-04-01T09:08:25Z</time>
      </trkpt>
      <trkpt lat="49.89439" lon="4.16432">
        <ele>186.2</ele>
        <time>2024-04-01T09:08:26Z</time>
      </trkpt>
      <trkpt lat="49.89436" lon="4.16421">
        <ele>186.2</ele>
        <time>2024-04-01T09:08:27Z</time>
      </trkpt>
      <trkpt lat="49.89432" lon="4.16411">
        <ele>186.2</ele>
        <time>2024-04-01T09:08:28Z</time>
      </trkpt>
      <trkpt lat="49.89428" lon="4.16401">
        <ele>185.8</ele>
        <time>2024-04-01T09:08:29Z</time>
      </trkpt>
      <trkpt lat="49.89424" lon="4.16393">
        <ele>185.6</ele>
        <time>2024-04-01T09:08:30Z</time>
      </trkpt>
      <trkpt lat="49.89419" lon="4.16386">
        <ele>185.4</ele>
        <time>2024-04-01T09:08:31Z</time>
      </trkpt>
      <trkpt lat="49.89414" lon="4.16379">
        <ele>185.4</ele>
        <time>2024-04-01T09:08:32Z</time>
      </trkpt>
      <trkpt lat="49.8941" lon="4.16372">
        <ele>185.4</ele>
        <time>2024-04-01T09:08:33Z</time>
      </trkpt>
      <trkpt lat="49.89405" lon="4.16366">
        <ele>185.4</ele>
        <time>2024-04-01T09:08:34Z</time>
      </trkpt>
      <trkpt lat="49.89399" lon="4.16361">
        <ele>185.6</ele>
        <time>2024-04-01T09:08:35Z</time>
      </trkpt>
      <trkpt lat="49.89394" lon="4.16355">
        <ele>185.4</ele>
        <time>2024-04-01T09:08:36Z</time>
      </trkpt>
      <trkpt lat="49.89389" lon="4.16349">
        <ele>185.6</ele>
        <time>2024-04-01T09:08:37Z</time>
      </trkpt>
      <trkpt lat="49.89384" lon="4.16343">
        <ele>185.6</ele>
        <time>2024-04-01T09:08:38Z</time>
      </trkpt>
      <trkpt lat="49.89379" lon="4.16337">
        <ele>185.6</ele>
        <time>2024-04-01T09:08:39Z</time>
      </trkpt>
      <trkpt lat="49.89374" lon="4.1633">
        <ele>185.8</ele>
        <time>2024-04-01T09:08:40Z</time>
      </trkpt>
      <trkpt lat="49.8937" lon="4.16323">
        <ele>185.6</ele>
        <time>2024-04-01T09:08:41Z</time>
      </trkpt>
      <trkpt lat="49.89366" lon="4.16316">
        <ele>185.8</ele>
        <time>2024-04-01T09:08:42Z</time>
      </trkpt>
      <trkpt lat="49.89362" lon="4.16307">
        <ele>186</ele>
        <time>2024-04-01T09:08:43Z</time>
      </trkpt>
      <trkpt lat="49.89359" lon="4.16297">
        <ele>186</ele>
        <time>2024-04-01T09:08:44Z</time>
      </trkpt>
      <trkpt lat="49.89356" lon="4.16287">
        <ele>186</ele>
        <time>2024-04-01T09:08:45Z</time>
      </trkpt>
      <trkpt lat="49.89354" lon="4.16277">
        <ele>186</ele>
        <time>2024-04-01T09:08:46Z</time>
      </trkpt>
      <trkpt lat="49.89353" lon="4.16267">
        <ele>186</ele>
        <time>2024-04-01T09:08:47Z</time>
      </trkpt>
      <trkpt lat="49.89352" lon="4.16256">
        <ele>186.2</ele>
        <time>2024-04-01T09:08:48Z</time>
      </trkpt>
      <trkpt lat="49.89351" lon="4.16246">
        <ele>186.2</ele>
        <time>2024-04-01T09:08:49Z</time>
      </trkpt>
      <trkpt lat="49.8935" lon="4.16236">
        <ele>186.2</ele>
        <time>2024-04-01T09:08:50Z</time>
      </trkpt>
      <trkpt lat="49.89349" lon="4.16225">
        <ele>186.2</ele>
        <time>2024-04-01T09:08:51Z</time>
      </trkpt>
      <trkpt lat="49.89349" lon="4.16214">
        <ele>186.4</ele>
        <time>2024-04-01T09:08:52Z</time>
      </trkpt>
      <trkpt lat="49.89348" lon="4.16204">
        <ele>186.4</ele>
        <time>2024-04-01T09:08:53Z</time>
      </trkpt>
      <trkpt lat="49.89348" lon="4.16194">
        <ele>186.4</ele>
        <time>2024-04-01T09:08:54Z</time>
      </trkpt>
      <trkpt lat="49.89347" lon="4.16184">
        <ele>186.4</ele>
        <time>2024-04-01T09:08:55Z</time>
      </trkpt>
      <trkpt lat="49.89347" lon="4.16174">
        <ele>186.4</ele>
        <time>2024-04-01T09:08:56Z</time>
      </trkpt>
      <trkpt lat="49.89346" lon="4.16164">
        <ele>186.2</ele>
        <time>2024-04-01T09:08:57Z</time>
      </trkpt>
      <trkpt lat="49.89345" lon="4.16154">
        <ele>186.2</ele>
        <time>2024-04-01T09:08:58Z</time>
      </trkpt>
      <trkpt lat="49.89345" lon="4.16145">
        <ele>186.2</ele>
        <time>2024-04-01T09:08:59Z</time>
      </trkpt>
      <trkpt lat="49.89344" lon="4.16136">
        <ele>186</ele>
        <time>2024-04-01T09:09:00Z</time>
      </trkpt>
      <trkpt lat="49.89343" lon="4.16127">
        <ele>186.2</ele>
        <time>2024-04-01T09:09:01Z</time>
      </trkpt>
      <trkpt lat="49.89343" lon="4.16118">
        <ele>186.2</ele>
        <time>2024-04-01T09:09:02Z</time>
      </trkpt>
      <trkpt lat="49.89342" lon="4.16108">
        <ele>186.2</ele>
        <time>2024-04-01T09:09:03Z</time>
      </trkpt>
      <trkpt lat="49.89342" lon="4.16098">
        <ele>186.6</ele>
        <time>2024-04-01T09:09:04Z</time>
      </trkpt>
      <trkpt lat="49.89341" lon="4.16088">
        <ele>186.6</ele>
        <time>2024-04-01T09:09:05Z</time>
      </trkpt>
      <trkpt lat="49.89341" lon="4.16077">
        <ele>186.8</ele>
        <time>2024-04-01T09:09:06Z</time>
      </trkpt>
      <trkpt lat="49.89341" lon="4.16066">
        <ele>186.8</ele>
        <time>2024-04-01T09:09:07Z</time>
      </trkpt>
      <trkpt lat="49.89342" lon="4.16056">
        <ele>186.8</ele>
        <time>2024-04-01T09:09:08Z</time>
      </trkpt>
      <trkpt lat="49.89343" lon="4.16045">
        <ele>187</ele>
        <time>2024-04-01T09:09:09Z</time>
      </trkpt>
      <trkpt lat="49.89345" lon="4.16034">
        <ele>187</ele>
        <time>2024-04-01T09:09:10Z</time>
      </trkpt>
      <trkpt lat="49.89347" lon="4.16024">
        <ele>186.8</ele>
        <time>2024-04-01T09:09:11Z</time>
      </trkpt>
      <trkpt lat="49.89349" lon="4.16014">
        <ele>186.8</ele>
        <time>2024-04-01T09:09:12Z</time>
      </trkpt>
      <trkpt lat="49.89351" lon="4.16003">
        <ele>186.8</ele>
        <time>2024-04-01T09:09:13Z</time>
      </trkpt>
      <trkpt lat="49.89354" lon="4.15993">
        <ele>186.8</ele>
        <time>2024-04-01T09:09:14Z</time>
      </trkpt>
      <trkpt lat="49.89356" lon="4.15983">
        <ele>186.8</ele>
        <time>2024-04-01T09:09:15Z</time>
      </trkpt>
      <trkpt lat="49.89359" lon="4.15973">
        <ele>186.8</ele>
        <time>2024-04-01T09:09:16Z</time>
      </trkpt>
      <trkpt lat="49.89362" lon="4.15963">
        <ele>186.8</ele>
        <time>2024-04-01T09:09:17Z</time>
      </trkpt>
      <trkpt lat="49.89365" lon="4.15953">
        <ele>186.8</ele>
        <time>2024-04-01T09:09:18Z</time>
      </trkpt>
      <trkpt lat="49.89369" lon="4.15945">
        <ele>187</ele>
        <time>2024-04-01T09:09:19Z</time>
      </trkpt>
      <trkpt lat="49.89373" lon="4.15938">
        <ele>187</ele>
        <time>2024-04-01T09:09:20Z</time>
      </trkpt>
      <trkpt lat="49.89377" lon="4.15932">
        <ele>186.8</ele>
        <time>2024-04-01T09:09:21Z</time>
      </trkpt>
      <trkpt lat="49.89383" lon="4.15928">
        <ele>187</ele>
        <time>2024-04-01T09:09:22Z</time>
      </trkpt>
      <trkpt lat="49.89388" lon="4.15925">
        <ele>187</ele>
        <time>2024-04-01T09:09:23Z</time>
      </trkpt>
      <trkpt lat="49.89394" lon="4.15922">
        <ele>187</ele>
        <time>2024-04-01T09:09:24Z</time>
      </trkpt>
      <trkpt lat="49.894" lon="4.1592">
        <ele>187</ele>
        <time>2024-04-01T09:09:25Z</time>
      </trkpt>
      <trkpt lat="49.89406" lon="4.15918">
        <ele>186.8</ele>
        <time>2024-04-01T09:09:26Z</time>
      </trkpt>
      <trkpt lat="49.89413" lon="4.15915">
        <ele>187.2</ele>
        <time>2024-04-01T09:09:27Z</time>
      </trkpt>
      <trkpt lat="49.89419" lon="4.15912">
        <ele>187.4</ele>
        <time>2024-04-01T09:09:28Z</time>
      </trkpt>
      <trkpt lat="49.89425" lon="4.15909">
        <ele>187.8</ele>
        <time>2024-04-01T09:09:29Z</time>
      </trkpt>
      <trkpt lat="49.89431" lon="4.15906">
        <ele>188</ele>
        <time>2024-04-01T09:09:30Z</time>
      </trkpt>
      <trkpt lat="49.89437" lon="4.15903">
        <ele>188</ele>
        <time>2024-04-01T09:09:31Z</time>
      </trkpt>
      <trkpt lat="49.89443" lon="4.159">
        <ele>188</ele>
        <time>2024-04-01T09:09:32Z</time>
      </trkpt>
      <trkpt lat="49.8945" lon="4.15897">
        <ele>188.4</ele>
        <time>2024-04-01T09:09:33Z</time>
      </trkpt>
      <trkpt lat="49.89456" lon="4.15894">
        <ele>188.2</ele>
        <time>2024-04-01T09:09:34Z</time>
      </trkpt>
      <trkpt lat="49.89462" lon="4.15891">
        <ele>188.4</ele>
        <time>2024-04-01T09:09:35Z</time>
      </trkpt>
      <trkpt lat="49.89469" lon="4.15888">
        <ele>188.4</ele>
        <time>2024-04-01T09:09:36Z</time>
      </trkpt>
      <trkpt lat="49.89475" lon="4.15884">
        <ele>188.4</ele>
        <time>2024-04-01T09:09:37Z</time>
      </trkpt>
      <trkpt lat="49.8948" lon="4.15881">
        <ele>188.4</ele>
        <time>2024-04-01T09:09:38Z</time>
      </trkpt>
      <trkpt lat="49.89486" lon="4.15877">
        <ele>188.6</ele>
        <time>2024-04-01T09:09:39Z</time>
      </trkpt>
      <trkpt lat="49.89491" lon="4.15873">
        <ele>188.4</ele>
        <time>2024-04-01T09:09:40Z</time>
      </trkpt>
      <trkpt lat="49.89496" lon="4.1587">
        <ele>188.6</ele>
        <time>2024-04-01T09:09:41Z</time>
      </trkpt>
      <trkpt lat="49.89501" lon="4.15866">
        <ele>188.6</ele>
        <time>2024-04-01T09:09:42Z</time>
      </trkpt>
      <trkpt lat="49.89506" lon="4.15863">
        <ele>188.8</ele>
        <time>2024-04-01T09:09:43Z</time>
      </trkpt>
      <trkpt lat="49.8951" lon="4.1586">
        <ele>188.6</ele>
        <time>2024-04-01T09:09:44Z</time>
      </trkpt>
      <trkpt lat="49.89515" lon="4.15857">
        <ele>188.6</ele>
        <time>2024-04-01T09:09:45Z</time>
      </trkpt>
      <trkpt lat="49.89519" lon="4.15854">
        <ele>189</ele>
        <time>2024-04-01T09:09:46Z</time>
      </trkpt>
      <trkpt lat="49.89523" lon="4.15851">
        <ele>188.8</ele>
        <time>2024-04-01T09:09:47Z</time>
      </trkpt>
      <trkpt lat="49.89527" lon="4.15848">
        <ele>189</ele>
        <time>2024-04-01T09:09:48Z</time>
      </trkpt>
      <trkpt lat="49.89531" lon="4.15846">
        <ele>189.2</ele>
        <time>2024-04-01T09:09:49Z</time>
      </trkpt>
      <trkpt lat="49.89535" lon="4.15843">
        <ele>189.8</ele>
        <time>2024-04-01T09:09:50Z</time>
      </trkpt>
      <trkpt lat="49.89539" lon="4.1584">
        <ele>190.4</ele>
        <time>2024-04-01T09:09:51Z</time>
      </trkpt>
      <trkpt lat="49.89543" lon="4.15838">
        <ele>191</ele>
        <time>2024-04-01T09:09:52Z</time>
      </trkpt>
      <trkpt lat="49.89548" lon="4.15835">
        <ele>191</ele>
        <time>2024-04-01T09:09:53Z</time>
      </trkpt>
      <trkpt lat="49.89552" lon="4.15832">
        <ele>191.6</ele>
        <time>2024-04-01T09:09:54Z</time>
      </trkpt>
      <trkpt lat="49.89556" lon="4.1583">
        <ele>192</ele>
        <time>2024-04-01T09:09:55Z</time>
      </trkpt>
      <trkpt lat="49.8956" lon="4.15827">
        <ele>192.2</ele>
        <time>2024-04-01T09:09:56Z</time>
      </trkpt>
      <trkpt lat="49.89564" lon="4.15825">
        <ele>192.4</ele>
        <time>2024-04-01T09:09:57Z</time>
      </trkpt>
      <trkpt lat="49.89568" lon="4.15823">
        <ele>192.8</ele>
        <time>2024-04-01T09:09:58Z</time>
      </trkpt>
      <trkpt lat="49.89573" lon="4.1582">
        <ele>193</ele>
        <time>2024-04-01T09:09:59Z</time>
      </trkpt>
      <trkpt lat="49.89577" lon="4.15818">
        <ele>193.4</ele>
        <time>2024-04-01T09:10:00Z</time>
      </trkpt>
      <trkpt lat="49.89581" lon="4.15815">
        <ele>193.6</ele>
        <time>2024-04-01T09:10:01Z</time>
      </trkpt>
      <trkpt lat="49.89585" lon="4.15813">
        <ele>193.8</ele>
        <time>2024-04-01T09:10:02Z</time>
      </trkpt>
      <trkpt lat="49.8959" lon="4.15811">
        <ele>194.2</ele>
        <time>2024-04-01T09:10:03Z</time>
      </trkpt>
      <trkpt lat="49.89594" lon="4.15808">
        <ele>194.4</ele>
        <time>2024-04-01T09:10:04Z</time>
      </trkpt>
      <trkpt lat="49.89599" lon="4.15806">
        <ele>194.4</ele>
        <time>2024-04-01T09:10:05Z</time>
      </trkpt>
      <trkpt lat="49.89603" lon="4.15803">
        <ele>194.8</ele>
        <time>2024-04-01T09:10:06Z</time>
      </trkpt>
      <trkpt lat="49.89607" lon="4.15801">
        <ele>195</ele>
        <time>2024-04-01T09:10:07Z</time>
      </trkpt>
      <trkpt lat="49.89611" lon="4.15798">
        <ele>195</ele>
        <time>2024-04-01T09:10:08Z</time>
      </trkpt>
      <trkpt lat="49.89615" lon="4.15795">
        <ele>195.4</ele>
        <time>2024-04-01T09:10:09Z</time>
      </trkpt>
      <trkpt lat="49.89619" lon="4.15792">
        <ele>195.8</ele>
        <time>2024-04-01T09:10:10Z</time>
      </trkpt>
      <trkpt lat="49.89624" lon="4.15789">
        <ele>195.8</ele>
        <time>2024-04-01T09:10:11Z</time>
      </trkpt>
      <trkpt lat="49.89628" lon="4.15785">
        <ele>196.2</ele>
        <time>2024-04-01T09:10:12Z</time>
      </trkpt>
      <trkpt lat="49.89632" lon="4.15781">
        <ele>196.4</ele>
        <time>2024-04-01T09:10:13Z</time>
      </trkpt>
      <trkpt lat="49.89636" lon="4.15776">
        <ele>196.6</ele>
        <time>2024-04-01T09:10:14Z</time>
      </trkpt>
      <trkpt lat="49.8964" lon="4.15772">
        <ele>196.8</ele>
        <time>2024-04-01T09:10:15Z</time>
      </trkpt>
      <trkpt lat="49.89644" lon="4.15767">
        <ele>197</ele>
        <time>2024-04-01T09:10:16Z</time>
      </trkpt>
      <trkpt lat="49.89648" lon="4.15762">
        <ele>197.2</ele>
        <time>2024-04-01T09:10:17Z</time>
      </trkpt>
      <trkpt lat="49.89652" lon="4.15757">
        <ele>197.2</ele>
        <time>2024-04-01T09:10:18Z</time>
      </trkpt>
      <trkpt lat="49.89656" lon="4.15753">
        <ele>197.4</ele>
        <time>2024-04-01T09:10:19Z</time>
      </trkpt>
      <trkpt lat="49.8966" lon="4.15748">
        <ele>197.4</ele>
        <time>2024-04-01T09:10:20Z</time>
      </trkpt>
      <trkpt lat="49.89664" lon="4.15743">
        <ele>197.8</ele>
        <time>2024-04-01T09:10:21Z</time>
      </trkpt>
      <trkpt lat="49.89668" lon="4.15738">
        <ele>198</ele>
        <time>2024-04-01T09:10:22Z</time>
      </trkpt>
      <trkpt lat="49.89672" lon="4.15733">
        <ele>198</ele>
        <time>2024-04-01T09:10:23Z</time>
      </trkpt>
      <trkpt lat="49.89676" lon="4.15728">
        <ele>198.2</ele>
        <time>2024-04-01T09:10:24Z</time>
      </trkpt>
      <trkpt lat="49.8968" lon="4.15723">
        <ele>198.4</ele>
        <time>2024-04-01T09:10:25Z</time>
      </trkpt>
      <trkpt lat="49.89684" lon="4.15718">
        <ele>198.4</ele>
        <time>2024-04-01T09:10:26Z</time>
      </trkpt>
      <trkpt lat="49.89688" lon="4.15713">
        <ele>198.6</ele>
        <time>2024-04-01T09:10:27Z</time>
      </trkpt>
      <trkpt lat="49.89692" lon="4.15709">
        <ele>198.6</ele>
        <time>2024-04-01T09:10:28Z</time>
      </trkpt>
      <trkpt lat="49.89697" lon="4.15704">
        <ele>198.6</ele>
        <time>2024-04-01T09:10:29Z</time>
      </trkpt>
      <trkpt lat="49.89701" lon="4.15699">
        <ele>198.6</ele>
        <time>2024-04-01T09:10:30Z</time>
      </trkpt>
      <trkpt lat="49.89706" lon="4.15695">
        <ele>199</ele>
        <time>2024-04-01T09:10:31Z</time>
      </trkpt>
      <trkpt lat="49.89711" lon="4.1569">
        <ele>199.2</ele>
        <time>2024-04-01T09:10:32Z</time>
      </trkpt>
      <trkpt lat="49.89715" lon="4.15686">
        <ele>199.2</ele>
        <time>2024-04-01T09:10:33Z</time>
      </trkpt>
      <trkpt lat="49.8972" lon="4.15681">
        <ele>199.2</ele>
        <time>2024-04-01T09:10:34Z</time>
      </trkpt>
      <trkpt lat="49.89725" lon="4.15677">
        <ele>199.2</ele>
        <time>2024-04-01T09:10:35Z</time>
      </trkpt>
      <trkpt lat="49.8973" lon="4.15672">
        <ele>199.2</ele>
        <time>2024-04-01T09:10:36Z</time>
      </trkpt>
      <trkpt lat="49.89735" lon="4.15668">
        <ele>199.4</ele>
        <time>2024-04-01T09:10:37Z</time>
      </trkpt>
      <trkpt lat="49.8974" lon="4.15664">
        <ele>199.4</ele>
        <time>2024-04-01T09:10:38Z</time>
      </trkpt>
      <trkpt lat="49.89745" lon="4.1566">
        <ele>199.4</ele>
        <time>2024-04-01T09:10:39Z</time>
      </trkpt>
      <trkpt lat="49.8975" lon="4.15655">
        <ele>199.8</ele>
        <time>2024-04-01T09:10:40Z</time>
      </trkpt>
      <trkpt lat="49.89755" lon="4.15651">
        <ele>199.8</ele>
        <time>2024-04-01T09:10:41Z</time>
      </trkpt>
      <trkpt lat="49.89759" lon="4.15646">
        <ele>200</ele>
        <time>2024-04-01T09:10:42Z</time>
      </trkpt>
      <trkpt lat="49.89765" lon="4.15642">
        <ele>200</ele>
        <time>2024-04-01T09:10:43Z</time>
      </trkpt>
      <trkpt lat="49.8977" lon="4.15638">
        <ele>200</ele>
        <time>2024-04-01T09:10:44Z</time>
      </trkpt>
      <trkpt lat="49.89775" lon="4.15633">
        <ele>200</ele>
        <time>2024-04-01T09:10:45Z</time>
      </trkpt>
      <trkpt lat="49.8978" lon="4.15628">
        <ele>200.2</ele>
        <time>2024-04-01T09:10:46Z</time>
      </trkpt>
      <trkpt lat="49.89785" lon="4.15624">
        <ele>200.2</ele>
        <time>2024-04-01T09:10:47Z</time>
      </trkpt>
      <trkpt lat="49.89791" lon="4.15619">
        <ele>200</ele>
        <time>2024-04-01T09:10:48Z</time>
      </trkpt>
      <trkpt lat="49.89796" lon="4.15614">
        <ele>200</ele>
        <time>2024-04-01T09:10:49Z</time>
      </trkpt>
      <trkpt lat="49.89801" lon="4.1561">
        <ele>200.2</ele>
        <time>2024-04-01T09:10:50Z</time>
      </trkpt>
      <trkpt lat="49.89806" lon="4.15606">
        <ele>200.2</ele>
        <time>2024-04-01T09:10:51Z</time>
      </trkpt>
      <trkpt lat="49.89811" lon="4.15601">
        <ele>200.2</ele>
        <time>2024-04-01T09:10:52Z</time>
      </trkpt>
      <trkpt lat="49.89816" lon="4.15597">
        <ele>200.2</ele>
        <time>2024-04-01T09:10:53Z</time>
      </trkpt>
      <trkpt lat="49.89822" lon="4.15592">
        <ele>200.2</ele>
        <time>2024-04-01T09:10:54Z</time>
      </trkpt>
      <trkpt lat="49.89827" lon="4.15588">
        <ele>200.4</ele>
        <time>2024-04-01T09:10:55Z</time>
      </trkpt>
      <trkpt lat="49.89832" lon="4.15584">
        <ele>200.4</ele>
        <time>2024-04-01T09:10:56Z</time>
      </trkpt>
      <trkpt lat="49.89837" lon="4.1558">
        <ele>200.4</ele>
        <time>2024-04-01T09:10:57Z</time>
      </trkpt>
      <trkpt lat="49.89842" lon="4.15576">
        <ele>200.4</ele>
        <time>2024-04-01T09:10:58Z</time>
      </trkpt>
      <trkpt lat="49.89847" lon="4.15572">
        <ele>200.4</ele>
        <time>2024-04-01T09:10:59Z</time>
      </trkpt>
      <trkpt lat="49.89853" lon="4.15568">
        <ele>200.4</ele>
        <time>2024-04-01T09:11:00Z</time>
      </trkpt>
      <trkpt lat="49.89859" lon="4.15563">
        <ele>200.4</ele>
        <time>2024-04-01T09:11:01Z</time>
      </trkpt>
      <trkpt lat="49.89865" lon="4.15559">
        <ele>200.4</ele>
        <time>2024-04-01T09:11:02Z</time>
      </trkpt>
      <trkpt lat="49.89871" lon="4.15555">
        <ele>200.4</ele>
        <time>2024-04-01T09:11:03Z</time>
      </trkpt>
      <trkpt lat="49.89877" lon="4.15551">
        <ele>200.4</ele>
        <time>2024-04-01T09:11:04Z</time>
      </trkpt>
      <trkpt lat="49.89883" lon="4.15547">
        <ele>200.4</ele>
        <time>2024-04-01T09:11:05Z</time>
      </trkpt>
      <trkpt lat="49.89889" lon="4.15542">
        <ele>200.4</ele>
        <time>2024-04-01T09:11:06Z</time>
      </trkpt>
      <trkpt lat="49.89895" lon="4.15538">
        <ele>200.4</ele>
        <time>2024-04-01T09:11:07Z</time>
      </trkpt>
      <trkpt lat="49.89901" lon="4.15533">
        <ele>200.6</ele>
        <time>2024-04-01T09:11:08Z</time>
      </trkpt>
      <trkpt lat="49.89907" lon="4.15529">
        <ele>200.6</ele>
        <time>2024-04-01T09:11:09Z</time>
      </trkpt>
      <trkpt lat="49.89913" lon="4.15525">
        <ele>200.6</ele>
        <time>2024-04-01T09:11:10Z</time>
      </trkpt>
      <trkpt lat="49.89919" lon="4.1552">
        <ele>200.4</ele>
        <time>2024-04-01T09:11:11Z</time>
      </trkpt>
      <trkpt lat="49.89925" lon="4.15516">
        <ele>200.4</ele>
        <time>2024-04-01T09:11:12Z</time>
      </trkpt>
      <trkpt lat="49.89932" lon="4.15511">
        <ele>200.2</ele>
        <time>2024-04-01T09:11:13Z</time>
      </trkpt>
      <trkpt lat="49.89939" lon="4.15507">
        <ele>199.8</ele>
        <time>2024-04-01T09:11:14Z</time>
      </trkpt>
      <trkpt lat="49.89945" lon="4.15502">
        <ele>199.8</ele>
        <time>2024-04-01T09:11:15Z</time>
      </trkpt>
      <trkpt lat="49.89952" lon="4.15497">
        <ele>199.4</ele>
        <time>2024-04-01T09:11:16Z</time>
      </trkpt>
      <trkpt lat="49.89959" lon="4.15493">
        <ele>199.2</ele>
        <time>2024-04-01T09:11:17Z</time>
      </trkpt>
      <trkpt lat="49.89965" lon="4.15488">
        <ele>199.2</ele>
        <time>2024-04-01T09:11:18Z</time>
      </trkpt>
      <trkpt lat="49.89972" lon="4.15483">
        <ele>199.2</ele>
        <time>2024-04-01T09:11:19Z</time>
      </trkpt>
      <trkpt lat="49.89979" lon="4.15478">
        <ele>198.8</ele>
        <time>2024-04-01T09:11:20Z</time>
      </trkpt>
      <trkpt lat="49.89986" lon="4.15473">
        <ele>198.6</ele>
        <time>2024-04-01T09:11:21Z</time>
      </trkpt>
      <trkpt lat="49.89993" lon="4.15469">
        <ele>198.4</ele>
        <time>2024-04-01T09:11:22Z</time>
      </trkpt>
      <trkpt lat="49.9" lon="4.15464">
        <ele>198.2</ele>
        <time>2024-04-01T09:11:23Z</time>
      </trkpt>
      <trkpt lat="49.90008" lon="4.15459">
        <ele>197.6</ele>
        <time>2024-04-01T09:11:24Z</time>
      </trkpt>
      <trkpt lat="49.90015" lon="4.15454">
        <ele>197.4</ele>
        <time>2024-04-01T09:11:25Z</time>
      </trkpt>
      <trkpt lat="49.90022" lon="4.15449">
        <ele>197</ele>
        <time>2024-04-01T09:11:26Z</time>
      </trkpt>
      <trkpt lat="49.90029" lon="4.15445">
        <ele>197</ele>
        <time>2024-04-01T09:11:27Z</time>
      </trkpt>
      <trkpt lat="49.90035" lon="4.15439">
        <ele>196.6</ele>
        <time>2024-04-01T09:11:28Z</time>
      </trkpt>
      <trkpt lat="49.90042" lon="4.15434">
        <ele>196.2</ele>
        <time>2024-04-01T09:11:29Z</time>
      </trkpt>
      <trkpt lat="49.90049" lon="4.15429">
        <ele>196</ele>
        <time>2024-04-01T09:11:30Z</time>
      </trkpt>
      <trkpt lat="49.90056" lon="4.15423">
        <ele>195.8</ele>
        <time>2024-04-01T09:11:31Z</time>
      </trkpt>
      <trkpt lat="49.90062" lon="4.15417">
        <ele>196</ele>
        <time>2024-04-01T09:11:32Z</time>
      </trkpt>
      <trkpt lat="49.90068" lon="4.1541">
        <ele>195.8</ele>
        <time>2024-04-01T09:11:33Z</time>
      </trkpt>
      <trkpt lat="49.90075" lon="4.15403">
        <ele>195.6</ele>
        <time>2024-04-01T09:11:34Z</time>
      </trkpt>
      <trkpt lat="49.9008" lon="4.15396">
        <ele>195.4</ele>
        <time>2024-04-01T09:11:35Z</time>
      </trkpt>
      <trkpt lat="49.90086" lon="4.15389">
        <ele>195.4</ele>
        <time>2024-04-01T09:11:36Z</time>
      </trkpt>
      <trkpt lat="49.90091" lon="4.15381">
        <ele>195</ele>
        <time>2024-04-01T09:11:37Z</time>
      </trkpt>
      <trkpt lat="49.90096" lon="4.15374">
        <ele>194.6</ele>
        <time>2024-04-01T09:11:38Z</time>
      </trkpt>
      <trkpt lat="49.90101" lon="4.15367">
        <ele>194.6</ele>
        <time>2024-04-01T09:11:39Z</time>
      </trkpt>
      <trkpt lat="49.90107" lon="4.15363">
        <ele>194.4</ele>
        <time>2024-04-01T09:11:40Z</time>
      </trkpt>
      <trkpt lat="49.90113" lon="4.15362">
        <ele>194.4</ele>
        <time>2024-04-01T09:11:41Z</time>
      </trkpt>
      <trkpt lat="49.90119" lon="4.15365">
        <ele>194.2</ele>
        <time>2024-04-01T09:11:42Z</time>
      </trkpt>
      <trkpt lat="49.90125" lon="4.1537">
        <ele>194</ele>
        <time>2024-04-01T09:11:43Z</time>
      </trkpt>
      <trkpt lat="49.90131" lon="4.15375">
        <ele>194</ele>
        <time>2024-04-01T09:11:44Z</time>
      </trkpt>
      <trkpt lat="49.90136" lon="4.1538">
        <ele>194</ele>
        <time>2024-04-01T09:11:45Z</time>
      </trkpt>
      <trkpt lat="49.90143" lon="4.15385">
        <ele>194.2</ele>
        <time>2024-04-01T09:11:46Z</time>
      </trkpt>
      <trkpt lat="49.90149" lon="4.1539">
        <ele>194</ele>
        <time>2024-04-01T09:11:47Z</time>
      </trkpt>
      <trkpt lat="49.90156" lon="4.15396">
        <ele>194</ele>
        <time>2024-04-01T09:11:48Z</time>
      </trkpt>
      <trkpt lat="49.90162" lon="4.15402">
        <ele>193.8</ele>
        <time>2024-04-01T09:11:49Z</time>
      </trkpt>
      <trkpt lat="49.90169" lon="4.15408">
        <ele>193.6</ele>
        <time>2024-04-01T09:11:50Z</time>
      </trkpt>
      <trkpt lat="49.90176" lon="4.15413">
        <ele>193.6</ele>
        <time>2024-04-01T09:11:51Z</time>
      </trkpt>
      <trkpt lat="49.90183" lon="4.15419">
        <ele>193.6</ele>
        <time>2024-04-01T09:11:52Z</time>
      </trkpt>
      <trkpt lat="49.9019" lon="4.15425">
        <ele>193.6</ele>
        <time>2024-04-01T09:11:53Z</time>
      </trkpt>
      <trkpt lat="49.90197" lon="4.15432">
        <ele>193.4</ele>
        <time>2024-04-01T09:11:54Z</time>
      </trkpt>
      <trkpt lat="49.90205" lon="4.15438">
        <ele>193.4</ele>
        <time>2024-04-01T09:11:55Z</time>
      </trkpt>
      <trkpt lat="49.90212" lon="4.15444">
        <ele>193.4</ele>
        <time>2024-04-01T09:11:56Z</time>
      </trkpt>
      <trkpt lat="49.90219" lon="4.1545">
        <ele>193.2</ele>
        <time>2024-04-01T09:11:57Z</time>
      </trkpt>
      <trkpt lat="49.90227" lon="4.15456">
        <ele>193.2</ele>
        <time>2024-04-01T09:11:58Z</time>
      </trkpt>
      <trkpt lat="49.90234" lon="4.15462">
        <ele>193</ele>
        <time>2024-04-01T09:11:59Z</time>
      </trkpt>
      <trkpt lat="49.90242" lon="4.15468">
        <ele>192.6</ele>
        <time>2024-04-01T09:12:00Z</time>
      </trkpt>
      <trkpt lat="49.90249" lon="4.15474">
        <ele>192.4</ele>
        <time>2024-04-01T09:12:01Z</time>
      </trkpt>
      <trkpt lat="49.90257" lon="4.15481">
        <ele>192.2</ele>
        <time>2024-04-01T09:12:02Z</time>
      </trkpt>
      <trkpt lat="49.90265" lon="4.15487">
        <ele>191.8</ele>
        <time>2024-04-01T09:12:03Z</time>
      </trkpt>
      <trkpt lat="49.90272" lon="4.15494">
        <ele>191.6</ele>
        <time>2024-04-01T09:12:04Z</time>
      </trkpt>
      <trkpt lat="49.9028" lon="4.15501">
        <ele>191.6</ele>
        <time>2024-04-01T09:12:05Z</time>
      </trkpt>
      <trkpt lat="49.90288" lon="4.15507">
        <ele>191</ele>
        <time>2024-04-01T09:12:06Z</time>
      </trkpt>
      <trkpt lat="49.90296" lon="4.15513">
        <ele>190.8</ele>
        <time>2024-04-01T09:12:07Z</time>
      </trkpt>
      <trkpt lat="49.90303" lon="4.15519">
        <ele>190.6</ele>
        <time>2024-04-01T09:12:08Z</time>
      </trkpt>
      <trkpt lat="49.90311" lon="4.15526">
        <ele>190.2</ele>
        <time>2024-04-01T09:12:09Z</time>
      </trkpt>
      <trkpt lat="49.90319" lon="4.15533">
        <ele>190</ele>
        <time>2024-04-01T09:12:10Z</time>
      </trkpt>
      <trkpt lat="49.90327" lon="4.15539">
        <ele>189.8</ele>
        <time>2024-04-01T09:12:11Z</time>
      </trkpt>
      <trkpt lat="49.90335" lon="4.15546">
        <ele>189.6</ele>
        <time>2024-04-01T09:12:12Z</time>
      </trkpt>
      <trkpt lat="49.90343" lon="4.15553">
        <ele>189.6</ele>
        <time>2024-04-01T09:12:13Z</time>
      </trkpt>
      <trkpt lat="49.90351" lon="4.15559">
        <ele>189.4</ele>
        <time>2024-04-01T09:12:14Z</time>
      </trkpt>
      <trkpt lat="49.90359" lon="4.15566">
        <ele>189</ele>
        <time>2024-04-01T09:12:15Z</time>
      </trkpt>
      <trkpt lat="49.90368" lon="4.15574">
        <ele>188.6</ele>
        <time>2024-04-01T09:12:16Z</time>
      </trkpt>
      <trkpt lat="49.90376" lon="4.15581">
        <ele>188.4</ele>
        <time>2024-04-01T09:12:17Z</time>
      </trkpt>
      <trkpt lat="49.90384" lon="4.15588">
        <ele>188.4</ele>
        <time>2024-04-01T09:12:18Z</time>
      </trkpt>
      <trkpt lat="49.90392" lon="4.15595">
        <ele>187.8</ele>
        <time>2024-04-01T09:12:19Z</time>
      </trkpt>
      <trkpt lat="49.904" lon="4.15602">
        <ele>187.6</ele>
        <time>2024-04-01T09:12:20Z</time>
      </trkpt>
      <trkpt lat="49.90408" lon="4.1561">
        <ele>187.4</ele>
        <time>2024-04-01T09:12:21Z</time>
      </trkpt>
      <trkpt lat="49.90416" lon="4.15617">
        <ele>186.6</ele>
        <time>2024-04-01T09:12:22Z</time>
      </trkpt>
      <trkpt lat="49.90424" lon="4.15626">
        <ele>186.2</ele>
        <time>2024-04-01T09:12:23Z</time>
      </trkpt>
      <trkpt lat="49.90432" lon="4.15634">
        <ele>186</ele>
        <time>2024-04-01T09:12:24Z</time>
      </trkpt>
      <trkpt lat="49.9044" lon="4.15642">
        <ele>185.8</ele>
        <time>2024-04-01T09:12:25Z</time>
      </trkpt>
      <trkpt lat="49.90447" lon="4.15651">
        <ele>185.4</ele>
        <time>2024-04-01T09:12:26Z</time>
      </trkpt>
      <trkpt lat="49.90455" lon="4.1566">
        <ele>185.2</ele>
        <time>2024-04-01T09:12:27Z</time>
      </trkpt>
      <trkpt lat="49.90463" lon="4.15669">
        <ele>185.2</ele>
        <time>2024-04-01T09:12:28Z</time>
      </trkpt>
      <trkpt lat="49.90471" lon="4.15678">
        <ele>185</ele>
        <time>2024-04-01T09:12:29Z</time>
      </trkpt>
      <trkpt lat="49.90479" lon="4.15687">
        <ele>184.8</ele>
        <time>2024-04-01T09:12:30Z</time>
      </trkpt>
      <trkpt lat="49.90486" lon="4.15696">
        <ele>184.8</ele>
        <time>2024-04-01T09:12:31Z</time>
      </trkpt>
      <trkpt lat="49.90493" lon="4.15706">
        <ele>184.4</ele>
        <time>2024-04-01T09:12:32Z</time>
      </trkpt>
      <trkpt lat="49.905" lon="4.15717">
        <ele>184.2</ele>
        <time>2024-04-01T09:12:33Z</time>
      </trkpt>
      <trkpt lat="49.90505" lon="4.15729">
        <ele>183.8</ele>
        <time>2024-04-01T09:12:34Z</time>
      </trkpt>
      <trkpt lat="49.9051" lon="4.15741">
        <ele>183.4</ele>
        <time>2024-04-01T09:12:35Z</time>
      </trkpt>
      <trkpt lat="49.90514" lon="4.15755">
        <ele>183</ele>
        <time>2024-04-01T09:12:36Z</time>
      </trkpt>
      <trkpt lat="49.90516" lon="4.15769">
        <ele>183</ele>
        <time>2024-04-01T09:12:37Z</time>
      </trkpt>
      <trkpt lat="49.90518" lon="4.15783">
        <ele>182.6</ele>
        <time>2024-04-01T09:12:38Z</time>
      </trkpt>
      <trkpt lat="49.90519" lon="4.15796">
        <ele>182.4</ele>
        <time>2024-04-01T09:12:39Z</time>
      </trkpt>
      <trkpt lat="49.90519" lon="4.15809">
        <ele>182.2</ele>
        <time>2024-04-01T09:12:40Z</time>
      </trkpt>
      <trkpt lat="49.90518" lon="4.15822">
        <ele>182.2</ele>
        <time>2024-04-01T09:12:41Z</time>
      </trkpt>
      <trkpt lat="49.90516" lon="4.15834">
        <ele>182</ele>
        <time>2024-04-01T09:12:42Z</time>
      </trkpt>
      <trkpt lat="49.90514" lon="4.15845">
        <ele>182.2</ele>
        <time>2024-04-01T09:12:43Z</time>
      </trkpt>
      <trkpt lat="49.90511" lon="4.15855">
        <ele>182</ele>
        <time>2024-04-01T09:12:44Z</time>
      </trkpt>
      <trkpt lat="49.90508" lon="4.15864">
        <ele>182</ele>
        <time>2024-04-01T09:12:45Z</time>
      </trkpt>
      <trkpt lat="49.90505" lon="4.15873">
        <ele>182</ele>
        <time>2024-04-01T09:12:46Z</time>
      </trkpt>
      <trkpt lat="49.90502" lon="4.15883">
        <ele>182</ele>
        <time>2024-04-01T09:12:47Z</time>
      </trkpt>
      <trkpt lat="49.90498" lon="4.15893">
        <ele>182</ele>
        <time>2024-04-01T09:12:48Z</time>
      </trkpt>
      <trkpt lat="49.90495" lon="4.15903">
        <ele>182.2</ele>
        <time>2024-04-01T09:12:49Z</time>
      </trkpt>
      <trkpt lat="49.90492" lon="4.15913">
        <ele>182</ele>
        <time>2024-04-01T09:12:50Z</time>
      </trkpt>
      <trkpt lat="49.90488" lon="4.15924">
        <ele>182</ele>
        <time>2024-04-01T09:12:51Z</time>
      </trkpt>
      <trkpt lat="49.90484" lon="4.15934">
        <ele>182</ele>
        <time>2024-04-01T09:12:52Z</time>
      </trkpt>
      <trkpt lat="49.90481" lon="4.15945">
        <ele>182</ele>
        <time>2024-04-01T09:12:53Z</time>
      </trkpt>
      <trkpt lat="49.90477" lon="4.15956">
        <ele>182</ele>
        <time>2024-04-01T09:12:54Z</time>
      </trkpt>
      <trkpt lat="49.90474" lon="4.15966">
        <ele>181.8</ele>
        <time>2024-04-01T09:12:55Z</time>
      </trkpt>
      <trkpt lat="49.9047" lon="4.15977">
        <ele>182</ele>
        <time>2024-04-01T09:12:56Z</time>
      </trkpt>
      <trkpt lat="49.90467" lon="4.15987">
        <ele>182</ele>
        <time>2024-04-01T09:12:57Z</time>
      </trkpt>
      <trkpt lat="49.90464" lon="4.15997">
        <ele>182</ele>
        <time>2024-04-01T09:12:58Z</time>
      </trkpt>
      <trkpt lat="49.90461" lon="4.16007">
        <ele>182</ele>
        <time>2024-04-01T09:12:59Z</time>
      </trkpt>
      <trkpt lat="49.90458" lon="4.16017">
        <ele>182.2</ele>
        <time>2024-04-01T09:13:00Z</time>
      </trkpt>
      <trkpt lat="49.90455" lon="4.16026">
        <ele>182.2</ele>
        <time>2024-04-01T09:13:01Z</time>
      </trkpt>
      <trkpt lat="49.90453" lon="4.16036">
        <ele>182.2</ele>
        <time>2024-04-01T09:13:02Z</time>
      </trkpt>
      <trkpt lat="49.9045" lon="4.16045">
        <ele>182.4</ele>
        <time>2024-04-01T09:13:03Z</time>
      </trkpt>
      <trkpt lat="49.90448" lon="4.16054">
        <ele>182.4</ele>
        <time>2024-04-01T09:13:04Z</time>
      </trkpt>
      <trkpt lat="49.90446" lon="4.16063">
        <ele>182.4</ele>
        <time>2024-04-01T09:13:05Z</time>
      </trkpt>
      <trkpt lat="49.90444" lon="4.16071">
        <ele>182.4</ele>
        <time>2024-04-01T09:13:06Z</time>
      </trkpt>
      <trkpt lat="49.90442" lon="4.1608">
        <ele>182.2</ele>
        <time>2024-04-01T09:13:07Z</time>
      </trkpt>
      <trkpt lat="49.90441" lon="4.16088">
        <ele>182.4</ele>
        <time>2024-04-01T09:13:08Z</time>
      </trkpt>
      <trkpt lat="49.9044" lon="4.16096">
        <ele>182.8</ele>
        <time>2024-04-01T09:13:09Z</time>
      </trkpt>
      <trkpt lat="49.90438" lon="4.16104">
        <ele>183.2</ele>
        <time>2024-04-01T09:13:10Z</time>
      </trkpt>
      <trkpt lat="49.90437" lon="4.16113">
        <ele>183.6</ele>
        <time>2024-04-01T09:13:11Z</time>
      </trkpt>
      <trkpt lat="49.90437" lon="4.16121">
        <ele>183.8</ele>
        <time>2024-04-01T09:13:12Z</time>
      </trkpt>
      <trkpt lat="49.90437" lon="4.1613">
        <ele>184.2</ele>
        <time>2024-04-01T09:13:13Z</time>
      </trkpt>
      <trkpt lat="49.90438" lon="4.16138">
        <ele>184.6</ele>
        <time>2024-04-01T09:13:14Z</time>
      </trkpt>
      <trkpt lat="49.90439" lon="4.16146">
        <ele>185</ele>
        <time>2024-04-01T09:13:15Z</time>
      </trkpt>
      <trkpt lat="49.9044" lon="4.16155">
        <ele>185.4</ele>
        <time>2024-04-01T09:13:16Z</time>
      </trkpt>
      <trkpt lat="49.90443" lon="4.16163">
        <ele>185.8</ele>
        <time>2024-04-01T09:13:17Z</time>
      </trkpt>
      <trkpt lat="49.90446" lon="4.1617">
        <ele>186.2</ele>
        <time>2024-04-01T09:13:18Z</time>
      </trkpt>
      <trkpt lat="49.90449" lon="4.16176">
        <ele>187</ele>
        <time>2024-04-01T09:13:19Z</time>
      </trkpt>
      <trkpt lat="49.90453" lon="4.16182">
        <ele>187.4</ele>
        <time>2024-04-01T09:13:20Z</time>
      </trkpt>
      <trkpt lat="49.90458" lon="4.16187">
        <ele>187.4</ele>
        <time>2024-04-01T09:13:21Z</time>
      </trkpt>
      <trkpt lat="49.90463" lon="4.16193">
        <ele>187.6</ele>
        <time>2024-04-01T09:13:22Z</time>
      </trkpt>
      <trkpt lat="49.90468" lon="4.16199">
        <ele>188.2</ele>
        <time>2024-04-01T09:13:23Z</time>
      </trkpt>
      <trkpt lat="49.90473" lon="4.16205">
        <ele>188.4</ele>
        <time>2024-04-01T09:13:24Z</time>
      </trkpt>
      <trkpt lat="49.90478" lon="4.16211">
        <ele>188.8</ele>
        <time>2024-04-01T09:13:25Z</time>
      </trkpt>
      <trkpt lat="49.90482" lon="4.16217">
        <ele>188.8</ele>
        <time>2024-04-01T09:13:26Z</time>
      </trkpt>
      <trkpt lat="49.90487" lon="4.16224">
        <ele>188.8</ele>
        <time>2024-04-01T09:13:27Z</time>
      </trkpt>
      <trkpt lat="49.90492" lon="4.1623">
        <ele>188.8</ele>
        <time>2024-04-01T09:13:28Z</time>
      </trkpt>
      <trkpt lat="49.90497" lon="4.16237">
        <ele>189</ele>
        <time>2024-04-01T09:13:29Z</time>
      </trkpt>
      <trkpt lat="49.90502" lon="4.16243">
        <ele>189</ele>
        <time>2024-04-01T09:13:30Z</time>
      </trkpt>
      <trkpt lat="49.90507" lon="4.16249">
        <ele>189</ele>
        <time>2024-04-01T09:13:31Z</time>
      </trkpt>
      <trkpt lat="49.90512" lon="4.16255">
        <ele>188.8</ele>
        <time>2024-04-01T09:13:32Z</time>
      </trkpt>
      <trkpt lat="49.90518" lon="4.1626">
        <ele>189.2</ele>
        <time>2024-04-01T09:13:33Z</time>
      </trkpt>
      <trkpt lat="49.90523" lon="4.16264">
        <ele>189.2</ele>
        <time>2024-04-01T09:13:34Z</time>
      </trkpt>
      <trkpt lat="49.90528" lon="4.16269">
        <ele>189.2</ele>
        <time>2024-04-01T09:13:35Z</time>
      </trkpt>
      <trkpt lat="49.90534" lon="4.16272">
        <ele>189.2</ele>
        <time>2024-04-01T09:13:36Z</time>
      </trkpt>
      <trkpt lat="49.90539" lon="4.16275">
        <ele>189.2</ele>
        <time>2024-04-01T09:13:37Z</time>
      </trkpt>
      <trkpt lat="49.90545" lon="4.16277">
        <ele>189.2</ele>
        <time>2024-04-01T09:13:38Z</time>
      </trkpt>
      <trkpt lat="49.90551" lon="4.16278">
        <ele>189.2</ele>
        <time>2024-04-01T09:13:39Z</time>
      </trkpt>
      <trkpt lat="49.90557" lon="4.16279">
        <ele>189.2</ele>
        <time>2024-04-01T09:13:40Z</time>
      </trkpt>
      <trkpt lat="49.90563" lon="4.16279">
        <ele>189.2</ele>
        <time>2024-04-01T09:13:41Z</time>
      </trkpt>
      <trkpt lat="49.9057" lon="4.16278">
        <ele>189.4</ele>
        <time>2024-04-01T09:13:42Z</time>
      </trkpt>
      <trkpt lat="49.90576" lon="4.16278">
        <ele>189.4</ele>
        <time>2024-04-01T09:13:43Z</time>
      </trkpt>
      <trkpt lat="49.90582" lon="4.16278">
        <ele>189.6</ele>
        <time>2024-04-01T09:13:44Z</time>
      </trkpt>
      <trkpt lat="49.90588" lon="4.16278">
        <ele>189.8</ele>
        <time>2024-04-01T09:13:45Z</time>
      </trkpt>
      <trkpt lat="49.90594" lon="4.16279">
        <ele>190</ele>
        <time>2024-04-01T09:13:46Z</time>
      </trkpt>
      <trkpt lat="49.90601" lon="4.1628">
        <ele>190.2</ele>
        <time>2024-04-01T09:13:47Z</time>
      </trkpt>
      <trkpt lat="49.90607" lon="4.16281">
        <ele>190.2</ele>
        <time>2024-04-01T09:13:48Z</time>
      </trkpt>
      <trkpt lat="49.90613" lon="4.16283">
        <ele>190.2</ele>
        <time>2024-04-01T09:13:49Z</time>
      </trkpt>
      <trkpt lat="49.9062" lon="4.16286">
        <ele>190.4</ele>
        <time>2024-04-01T09:13:50Z</time>
      </trkpt>
      <trkpt lat="49.90626" lon="4.1629">
        <ele>190.4</ele>
        <time>2024-04-01T09:13:51Z</time>
      </trkpt>
      <trkpt lat="49.90632" lon="4.16295">
        <ele>190.2</ele>
        <time>2024-04-01T09:13:52Z</time>
      </trkpt>
      <trkpt lat="49.90638" lon="4.16301">
        <ele>190.2</ele>
        <time>2024-04-01T09:13:53Z</time>
      </trkpt>
      <trkpt lat="49.90644" lon="4.16308">
        <ele>190.2</ele>
        <time>2024-04-01T09:13:54Z</time>
      </trkpt>
      <trkpt lat="49.90649" lon="4.16316">
        <ele>190.2</ele>
        <time>2024-04-01T09:13:55Z</time>
      </trkpt>
      <trkpt lat="49.90655" lon="4.16324">
        <ele>190.2</ele>
        <time>2024-04-01T09:13:56Z</time>
      </trkpt>
      <trkpt lat="49.9066" lon="4.16332">
        <ele>190.2</ele>
        <time>2024-04-01T09:13:57Z</time>
      </trkpt>
      <trkpt lat="49.90665" lon="4.1634">
        <ele>190</ele>
        <time>2024-04-01T09:13:58Z</time>
      </trkpt>
      <trkpt lat="49.9067" lon="4.16348">
        <ele>189.8</ele>
        <time>2024-04-01T09:13:59Z</time>
      </trkpt>
      <trkpt lat="49.90675" lon="4.16356">
        <ele>189.4</ele>
        <time>2024-04-01T09:14:00Z</time>
      </trkpt>
      <trkpt lat="49.9068" lon="4.16363">
        <ele>189.2</ele>
        <time>2024-04-01T09:14:01Z</time>
      </trkpt>
      <trkpt lat="49.90685" lon="4.1637">
        <ele>189</ele>
        <time>2024-04-01T09:14:02Z</time>
      </trkpt>
      <trkpt lat="49.90691" lon="4.16376">
        <ele>189</ele>
        <time>2024-04-01T09:14:03Z</time>
      </trkpt>
      <trkpt lat="49.90697" lon="4.16382">
        <ele>189</ele>
        <time>2024-04-01T09:14:04Z</time>
      </trkpt>
      <trkpt lat="49.90703" lon="4.16387">
        <ele>188.8</ele>
        <time>2024-04-01T09:14:05Z</time>
      </trkpt>
      <trkpt lat="49.9071" lon="4.16392">
        <ele>189</ele>
        <time>2024-04-01T09:14:06Z</time>
      </trkpt>
      <trkpt lat="49.90717" lon="4.16394">
        <ele>189</ele>
        <time>2024-04-01T09:14:07Z</time>
      </trkpt>
      <trkpt lat="49.90725" lon="4.16396">
        <ele>189</ele>
        <time>2024-04-01T09:14:08Z</time>
      </trkpt>
      <trkpt lat="49.90732" lon="4.16395">
        <ele>188.8</ele>
        <time>2024-04-01T09:14:09Z</time>
      </trkpt>
      <trkpt lat="49.90739" lon="4.16393">
        <ele>188.8</ele>
        <time>2024-04-01T09:14:10Z</time>
      </trkpt>
      <trkpt lat="49.90746" lon="4.16389">
        <ele>188.8</ele>
        <time>2024-04-01T09:14:11Z</time>
      </trkpt>
      <trkpt lat="49.90752" lon="4.16383">
        <ele>188.8</ele>
        <time>2024-04-01T09:14:12Z</time>
      </trkpt>
      <trkpt lat="49.90757" lon="4.16375">
        <ele>188.8</ele>
        <time>2024-04-01T09:14:13Z</time>
      </trkpt>
      <trkpt lat="49.90761" lon="4.16367">
        <ele>188.8</ele>
        <time>2024-04-01T09:14:14Z</time>
      </trkpt>
      <trkpt lat="49.90765" lon="4.16359">
        <ele>188.8</ele>
        <time>2024-04-01T09:14:15Z</time>
      </trkpt>
      <trkpt lat="49.90768" lon="4.16351">
        <ele>188.6</ele>
        <time>2024-04-01T09:14:16Z</time>
      </trkpt>
      <trkpt lat="49.90771" lon="4.16342">
        <ele>188.8</ele>
        <time>2024-04-01T09:14:17Z</time>
      </trkpt>
      <trkpt lat="49.90773" lon="4.16334">
        <ele>188.8</ele>
        <time>2024-04-01T09:14:18Z</time>
      </trkpt>
      <trkpt lat="49.90776" lon="4.16326">
        <ele>188.6</ele>
        <time>2024-04-01T09:14:19Z</time>
      </trkpt>
      <trkpt lat="49.90778" lon="4.16318">
        <ele>188.8</ele>
        <time>2024-04-01T09:14:20Z</time>
      </trkpt>
      <trkpt lat="49.9078" lon="4.16311">
        <ele>188.8</ele>
        <time>2024-04-01T09:14:21Z</time>
      </trkpt>
      <trkpt lat="49.90782" lon="4.16304">
        <ele>188.8</ele>
        <time>2024-04-01T09:14:22Z</time>
      </trkpt>
      <trkpt lat="49.90784" lon="4.16297">
        <ele>188.8</ele>
        <time>2024-04-01T09:14:23Z</time>
      </trkpt>
      <trkpt lat="49.90787" lon="4.16291">
        <ele>189</ele>
        <time>2024-04-01T09:14:24Z</time>
      </trkpt>
      <trkpt lat="49.90789" lon="4.16285">
        <ele>189</ele>
        <time>2024-04-01T09:14:25Z</time>
      </trkpt>
      <trkpt lat="49.90791" lon="4.16278">
        <ele>189.2</ele>
        <time>2024-04-01T09:14:26Z</time>
      </trkpt>
      <trkpt lat="49.90793" lon="4.16272">
        <ele>189.4</ele>
        <time>2024-04-01T09:14:27Z</time>
      </trkpt>
      <trkpt lat="49.90795" lon="4.16266">
        <ele>189.4</ele>
        <time>2024-04-01T09:14:28Z</time>
      </trkpt>
      <trkpt lat="49.90797" lon="4.1626">
        <ele>189.6</ele>
        <time>2024-04-01T09:14:29Z</time>
      </trkpt>
      <trkpt lat="49.90799" lon="4.16254">
        <ele>189.8</ele>
        <time>2024-04-01T09:14:30Z</time>
      </trkpt>
      <trkpt lat="49.90802" lon="4.16248">
        <ele>190</ele>
        <time>2024-04-01T09:14:31Z</time>
      </trkpt>
      <trkpt lat="49.90804" lon="4.16243">
        <ele>190.2</ele>
        <time>2024-04-01T09:14:32Z</time>
      </trkpt>
      <trkpt lat="49.90807" lon="4.16237">
        <ele>190.4</ele>
        <time>2024-04-01T09:14:33Z</time>
      </trkpt>
      <trkpt lat="49.9081" lon="4.16232">
        <ele>191.2</ele>
        <time>2024-04-01T09:14:34Z</time>
      </trkpt>
      <trkpt lat="49.90812" lon="4.16227">
        <ele>192</ele>
        <time>2024-04-01T09:14:35Z</time>
      </trkpt>
      <trkpt lat="49.90815" lon="4.16221">
        <ele>193</ele>
        <time>2024-04-01T09:14:36Z</time>
      </trkpt>
      <trkpt lat="49.90818" lon="4.16216">
        <ele>193.2</ele>
        <time>2024-04-01T09:14:37Z</time>
      </trkpt>
      <trkpt lat="49.90821" lon="4.16211">
        <ele>193.8</ele>
        <time>2024-04-01T09:14:38Z</time>
      </trkpt>
      <trkpt lat="49.90824" lon="4.16206">
        <ele>194.4</ele>
        <time>2024-04-01T09:14:39Z</time>
      </trkpt>
      <trkpt lat="49.90827" lon="4.16201">
        <ele>195</ele>
        <time>2024-04-01T09:14:40Z</time>
      </trkpt>
      <trkpt lat="49.90831" lon="4.16196">
        <ele>195.4</ele>
        <time>2024-04-01T09:14:41Z</time>
      </trkpt>
      <trkpt lat="49.90834" lon="4.1619">
        <ele>195.8</ele>
        <time>2024-04-01T09:14:42Z</time>
      </trkpt>
      <trkpt lat="49.90837" lon="4.16185">
        <ele>196.2</ele>
        <time>2024-04-01T09:14:43Z</time>
      </trkpt>
      <trkpt lat="49.90841" lon="4.16179">
        <ele>196.6</ele>
        <time>2024-04-01T09:14:44Z</time>
      </trkpt>
      <trkpt lat="49.90844" lon="4.16174">
        <ele>197</ele>
        <time>2024-04-01T09:14:45Z</time>
      </trkpt>
      <trkpt lat="49.90848" lon="4.16169">
        <ele>197.4</ele>
        <time>2024-04-01T09:14:46Z</time>
      </trkpt>
      <trkpt lat="49.90851" lon="4.16163">
        <ele>197.4</ele>
        <time>2024-04-01T09:14:47Z</time>
      </trkpt>
      <trkpt lat="49.90854" lon="4.16158">
        <ele>197.4</ele>
        <time>2024-04-01T09:14:48Z</time>
      </trkpt>
      <trkpt lat="49.90858" lon="4.16152">
        <ele>197.6</ele>
        <time>2024-04-01T09:14:49Z</time>
      </trkpt>
      <trkpt lat="49.90862" lon="4.16147">
        <ele>197.8</ele>
        <time>2024-04-01T09:14:50Z</time>
      </trkpt>
      <trkpt lat="49.90865" lon="4.16141">
        <ele>198.2</ele>
        <time>2024-04-01T09:14:51Z</time>
      </trkpt>
      <trkpt lat="49.90869" lon="4.16135">
        <ele>198.2</ele>
        <time>2024-04-01T09:14:52Z</time>
      </trkpt>
      <trkpt lat="49.90873" lon="4.1613">
        <ele>198.2</ele>
        <time>2024-04-01T09:14:53Z</time>
      </trkpt>
      <trkpt lat="49.90876" lon="4.16124">
        <ele>198.6</ele>
        <time>2024-04-01T09:14:54Z</time>
      </trkpt>
      <trkpt lat="49.9088" lon="4.16118">
        <ele>198.8</ele>
        <time>2024-04-01T09:14:55Z</time>
      </trkpt>
      <trkpt lat="49.90884" lon="4.16113">
        <ele>199.2</ele>
        <time>2024-04-01T09:14:56Z</time>
      </trkpt>
      <trkpt lat="49.90888" lon="4.16107">
        <ele>199.2</ele>
        <time>2024-04-01T09:14:57Z</time>
      </trkpt>
      <trkpt lat="49.90892" lon="4.16101">
        <ele>199.2</ele>
        <time>2024-04-01T09:14:58Z</time>
      </trkpt>
      <trkpt lat="49.90895" lon="4.16096">
        <ele>199.4</ele>
        <time>2024-04-01T09:14:59Z</time>
      </trkpt>
      <trkpt lat="49.90899" lon="4.1609">
        <ele>199.4</ele>
        <time>2024-04-01T09:15:00Z</time>
      </trkpt>
      <trkpt lat="49.90903" lon="4.16084">
        <ele>199.6</ele>
        <time>2024-04-01T09:15:01Z</time>
      </trkpt>
      <trkpt lat="49.90907" lon="4.16079">
        <ele>199.4</ele>
        <time>2024-04-01T09:15:02Z</time>
      </trkpt>
      <trkpt lat="49.9091" lon="4.16073">
        <ele>199.4</ele>
        <time>2024-04-01T09:15:03Z</time>
      </trkpt>
      <trkpt lat="49.90914" lon="4.16067">
        <ele>199.6</ele>
        <time>2024-04-01T09:15:04Z</time>
      </trkpt>
      <trkpt lat="49.90917" lon="4.16062">
        <ele>199.6</ele>
        <time>2024-04-01T09:15:05Z</time>
      </trkpt>
      <trkpt lat="49.90921" lon="4.16056">
        <ele>199.4</ele>
        <time>2024-04-01T09:15:06Z</time>
      </trkpt>
      <trkpt lat="49.90925" lon="4.1605">
        <ele>199.6</ele>
        <time>2024-04-01T09:15:07Z</time>
      </trkpt>
      <trkpt lat="49.90929" lon="4.16045">
        <ele>199.8</ele>
        <time>2024-04-01T09:15:08Z</time>
      </trkpt>
      <trkpt lat="49.90933" lon="4.1604">
        <ele>199.6</ele>
        <time>2024-04-01T09:15:09Z</time>
      </trkpt>
      <trkpt lat="49.90937" lon="4.16035">
        <ele>199.6</ele>
        <time>2024-04-01T09:15:10Z</time>
      </trkpt>
      <trkpt lat="49.90941" lon="4.16029">
        <ele>199.6</ele>
        <time>2024-04-01T09:15:11Z</time>
      </trkpt>
      <trkpt lat="49.90945" lon="4.16024">
        <ele>199.6</ele>
        <time>2024-04-01T09:15:12Z</time>
      </trkpt>
      <trkpt lat="49.90949" lon="4.16018">
        <ele>199.8</ele>
        <time>2024-04-01T09:15:13Z</time>
      </trkpt>
      <trkpt lat="49.90954" lon="4.16013">
        <ele>199.8</ele>
        <time>2024-04-01T09:15:14Z</time>
      </trkpt>
      <trkpt lat="49.90958" lon="4.16007">
        <ele>199.8</ele>
        <time>2024-04-01T09:15:15Z</time>
      </trkpt>
      <trkpt lat="49.90962" lon="4.16001">
        <ele>199.8</ele>
        <time>2024-04-01T09:15:16Z</time>
      </trkpt>
      <trkpt lat="49.90966" lon="4.15995">
        <ele>200</ele>
        <time>2024-04-01T09:15:17Z</time>
      </trkpt>
      <trkpt lat="49.9097" lon="4.15988">
        <ele>200</ele>
        <time>2024-04-01T09:15:18Z</time>
      </trkpt>
      <trkpt lat="49.90975" lon="4.15982">
        <ele>200</ele>
        <time>2024-04-01T09:15:19Z</time>
      </trkpt>
      <trkpt lat="49.90979" lon="4.15976">
        <ele>200</ele>
        <time>2024-04-01T09:15:20Z</time>
      </trkpt>
      <trkpt lat="49.90984" lon="4.15969">
        <ele>200</ele>
        <time>2024-04-01T09:15:21Z</time>
      </trkpt>
      <trkpt lat="49.90989" lon="4.15962">
        <ele>200</ele>
        <time>2024-04-01T09:15:22Z</time>
      </trkpt>
      <trkpt lat="49.90993" lon="4.15954">
        <ele>200.2</ele>
        <time>2024-04-01T09:15:23Z</time>
      </trkpt>
      <trkpt lat="49.90998" lon="4.15947">
        <ele>200</ele>
        <time>2024-04-01T09:15:24Z</time>
      </trkpt>
      <trkpt lat="49.91003" lon="4.1594">
        <ele>200</ele>
        <time>2024-04-01T09:15:25Z</time>
      </trkpt>
      <trkpt lat="49.91008" lon="4.15933">
        <ele>200</ele>
        <time>2024-04-01T09:15:26Z</time>
      </trkpt>
      <trkpt lat="49.91013" lon="4.15925">
        <ele>200</ele>
        <time>2024-04-01T09:15:27Z</time>
      </trkpt>
      <trkpt lat="49.91019" lon="4.15918">
        <ele>200.2</ele>
        <time>2024-04-01T09:15:28Z</time>
      </trkpt>
      <trkpt lat="49.91024" lon="4.1591">
        <ele>200</ele>
        <time>2024-04-01T09:15:29Z</time>
      </trkpt>
      <trkpt lat="49.9103" lon="4.15901">
        <ele>200</ele>
        <time>2024-04-01T09:15:30Z</time>
      </trkpt>
      <trkpt lat="49.91037" lon="4.15892">
        <ele>199.8</ele>
        <time>2024-04-01T09:15:31Z</time>
      </trkpt>
      <trkpt lat="49.91043" lon="4.15883">
        <ele>199.6</ele>
        <time>2024-04-01T09:15:32Z</time>
      </trkpt>
      <trkpt lat="49.91049" lon="4.15874">
        <ele>199.6</ele>
        <time>2024-04-01T09:15:33Z</time>
      </trkpt>
      <trkpt lat="49.91056" lon="4.15864">
        <ele>199.4</ele>
        <time>2024-04-01T09:15:34Z</time>
      </trkpt>
      <trkpt lat="49.91063" lon="4.15854">
        <ele>199.4</ele>
        <time>2024-04-01T09:15:35Z</time>
      </trkpt>
      <trkpt lat="49.9107" lon="4.15844">
        <ele>199</ele>
        <time>2024-04-01T09:15:36Z</time>
      </trkpt>
      <trkpt lat="49.91077" lon="4.15833">
        <ele>199</ele>
        <time>2024-04-01T09:15:37Z</time>
      </trkpt>
      <trkpt lat="49.91084" lon="4.15822">
        <ele>198.8</ele>
        <time>2024-04-01T09:15:38Z</time>
      </trkpt>
      <trkpt lat="49.91091" lon="4.15811">
        <ele>198.2</ele>
        <time>2024-04-01T09:15:39Z</time>
      </trkpt>
      <trkpt lat="49.91099" lon="4.15799">
        <ele>197.6</ele>
        <time>2024-04-01T09:15:40Z</time>
      </trkpt>
      <trkpt lat="49.91106" lon="4.15787">
        <ele>196.8</ele>
        <time>2024-04-01T09:15:41Z</time>
      </trkpt>
      <trkpt lat="49.91114" lon="4.15776">
        <ele>195.8</ele>
        <time>2024-04-01T09:15:42Z</time>
      </trkpt>
      <trkpt lat="49.91122" lon="4.15764">
        <ele>195.2</ele>
        <time>2024-04-01T09:15:43Z</time>
      </trkpt>
      <trkpt lat="49.9113" lon="4.15752">
        <ele>194.4</ele>
        <time>2024-04-01T09:15:44Z</time>
      </trkpt>
      <trkpt lat="49.91138" lon="4.15739">
        <ele>193.4</ele>
        <time>2024-04-01T09:15:45Z</time>
      </trkpt>
      <trkpt lat="49.91146" lon="4.15727">
        <ele>192.4</ele>
        <time>2024-04-01T09:15:46Z</time>
      </trkpt>
      <trkpt lat="49.91154" lon="4.15714">
        <ele>191.4</ele>
        <time>2024-04-01T09:15:47Z</time>
      </trkpt>
      <trkpt lat="49.91161" lon="4.15701">
        <ele>190.4</ele>
        <time>2024-04-01T09:15:48Z</time>
      </trkpt>
      <trkpt lat="49.91169" lon="4.15688">
        <ele>189.4</ele>
        <time>2024-04-01T09:15:49Z</time>
      </trkpt>
      <trkpt lat="49.91176" lon="4.15675">
        <ele>188.4</ele>
        <time>2024-04-01T09:15:50Z</time>
      </trkpt>
      <trkpt lat="49.91184" lon="4.15661">
        <ele>188</ele>
        <time>2024-04-01T09:15:51Z</time>
      </trkpt>
      <trkpt lat="49.91191" lon="4.15646">
        <ele>187.2</ele>
        <time>2024-04-01T09:15:52Z</time>
      </trkpt>
      <trkpt lat="49.91199" lon="4.15632">
        <ele>186.4</ele>
        <time>2024-04-01T09:15:53Z</time>
      </trkpt>
      <trkpt lat="49.91206" lon="4.15618">
        <ele>186.4</ele>
        <time>2024-04-01T09:15:54Z</time>
      </trkpt>
      <trkpt lat="49.91212" lon="4.15605">
        <ele>185</ele>
        <time>2024-04-01T09:15:55Z</time>
      </trkpt>
      <trkpt lat="49.91219" lon="4.15591">
        <ele>184.2</ele>
        <time>2024-04-01T09:15:56Z</time>
      </trkpt>
      <trkpt lat="49.91225" lon="4.15579">
        <ele>183</ele>
        <time>2024-04-01T09:15:57Z</time>
      </trkpt>
      <trkpt lat="49.91231" lon="4.15566">
        <ele>182.4</ele>
        <time>2024-04-01T09:15:58Z</time>
      </trkpt>
      <trkpt lat="49.91237" lon="4.15554">
        <ele>182</ele>
        <time>2024-04-01T09:15:59Z</time>
      </trkpt>
      <trkpt lat="49.91243" lon="4.15542">
        <ele>181.4</ele>
        <time>2024-04-01T09:16:00Z</time>
      </trkpt>
      <trkpt lat="49.91247" lon="4.15532">
        <ele>181.2</ele>
        <time>2024-04-01T09:16:01Z</time>
      </trkpt>
      <trkpt lat="49.91252" lon="4.15521">
        <ele>181</ele>
        <time>2024-04-01T09:16:02Z</time>
      </trkpt>
      <trkpt lat="49.91258" lon="4.1551">
        <ele>180.8</ele>
        <time>2024-04-01T09:16:03Z</time>
      </trkpt>
      <trkpt lat="49.91263" lon="4.15499">
        <ele>180.8</ele>
        <time>2024-04-01T09:16:04Z</time>
      </trkpt>
      <trkpt lat="49.91269" lon="4.15488">
        <ele>180.6</ele>
        <time>2024-04-01T09:16:05Z</time>
      </trkpt>
      <trkpt lat="49.91275" lon="4.15478">
        <ele>180.6</ele>
        <time>2024-04-01T09:16:06Z</time>
      </trkpt>
      <trkpt lat="49.9128" lon="4.15467">
        <ele>180.6</ele>
        <time>2024-04-01T09:16:07Z</time>
      </trkpt>
      <trkpt lat="49.91286" lon="4.15457">
        <ele>180.4</ele>
        <time>2024-04-01T09:16:08Z</time>
      </trkpt>
      <trkpt lat="49.91292" lon="4.15446">
        <ele>180.4</ele>
        <time>2024-04-01T09:16:09Z</time>
      </trkpt>
      <trkpt lat="49.91297" lon="4.15436">
        <ele>180.4</ele>
        <time>2024-04-01T09:16:10Z</time>
      </trkpt>
      <trkpt lat="49.91303" lon="4.15426">
        <ele>180.6</ele>
        <time>2024-04-01T09:16:11Z</time>
      </trkpt>
      <trkpt lat="49.91309" lon="4.15416">
        <ele>180.6</ele>
        <time>2024-04-01T09:16:12Z</time>
      </trkpt>
      <trkpt lat="49.91314" lon="4.15405">
        <ele>180.6</ele>
        <time>2024-04-01T09:16:13Z</time>
      </trkpt>
      <trkpt lat="49.9132" lon="4.15395">
        <ele>180.8</ele>
        <time>2024-04-01T09:16:14Z</time>
      </trkpt>
      <trkpt lat="49.91325" lon="4.15385">
        <ele>180.6</ele>
        <time>2024-04-01T09:16:15Z</time>
      </trkpt>
      <trkpt lat="49.91331" lon="4.15375">
        <ele>180.6</ele>
        <time>2024-04-01T09:16:16Z</time>
      </trkpt>
      <trkpt lat="49.91336" lon="4.15365">
        <ele>180.8</ele>
        <time>2024-04-01T09:16:17Z</time>
      </trkpt>
      <trkpt lat="49.91342" lon="4.15355">
        <ele>180.8</ele>
        <time>2024-04-01T09:16:18Z</time>
      </trkpt>
      <trkpt lat="49.91347" lon="4.15346">
        <ele>180.8</ele>
        <time>2024-04-01T09:16:19Z</time>
      </trkpt>
      <trkpt lat="49.91352" lon="4.15336">
        <ele>180.8</ele>
        <time>2024-04-01T09:16:20Z</time>
      </trkpt>
      <trkpt lat="49.91357" lon="4.15325">
        <ele>180.8</ele>
        <time>2024-04-01T09:16:21Z</time>
      </trkpt>
      <trkpt lat="49.91362" lon="4.15314">
        <ele>180.8</ele>
        <time>2024-04-01T09:16:22Z</time>
      </trkpt>
      <trkpt lat="49.91367" lon="4.15303">
        <ele>180.8</ele>
        <time>2024-04-01T09:16:23Z</time>
      </trkpt>
      <trkpt lat="49.91371" lon="4.15292">
        <ele>180.8</ele>
        <time>2024-04-01T09:16:24Z</time>
      </trkpt>
      <trkpt lat="49.91376" lon="4.15281">
        <ele>180.6</ele>
        <time>2024-04-01T09:16:25Z</time>
      </trkpt>
      <trkpt lat="49.91379" lon="4.1527">
        <ele>180.6</ele>
        <time>2024-04-01T09:16:26Z</time>
      </trkpt>
      <trkpt lat="49.91383" lon="4.1526">
        <ele>180.8</ele>
        <time>2024-04-01T09:16:27Z</time>
      </trkpt>
      <trkpt lat="49.91386" lon="4.1525">
        <ele>180.6</ele>
        <time>2024-04-01T09:16:28Z</time>
      </trkpt>
      <trkpt lat="49.9139" lon="4.1524">
        <ele>180.6</ele>
        <time>2024-04-01T09:16:29Z</time>
      </trkpt>
      <trkpt lat="49.91393" lon="4.1523">
        <ele>180.6</ele>
        <time>2024-04-01T09:16:30Z</time>
      </trkpt>
      <trkpt lat="49.91395" lon="4.15221">
        <ele>180.4</ele>
        <time>2024-04-01T09:16:31Z</time>
      </trkpt>
      <trkpt lat="49.91398" lon="4.15211">
        <ele>180.4</ele>
        <time>2024-04-01T09:16:32Z</time>
      </trkpt>
      <trkpt lat="49.914" lon="4.15202">
        <ele>180.4</ele>
        <time>2024-04-01T09:16:33Z</time>
      </trkpt>
      <trkpt lat="49.91402" lon="4.15192">
        <ele>180.4</ele>
        <time>2024-04-01T09:16:34Z</time>
      </trkpt>
      <trkpt lat="49.91403" lon="4.15182">
        <ele>180.2</ele>
        <time>2024-04-01T09:16:35Z</time>
      </trkpt>
      <trkpt lat="49.91404" lon="4.15171">
        <ele>180.4</ele>
        <time>2024-04-01T09:16:36Z</time>
      </trkpt>
      <trkpt lat="49.91405" lon="4.1516">
        <ele>180.2</ele>
        <time>2024-04-01T09:16:37Z</time>
      </trkpt>
      <trkpt lat="49.91405" lon="4.15149">
        <ele>180.2</ele>
        <time>2024-04-01T09:16:38Z</time>
      </trkpt>
      <trkpt lat="49.91406" lon="4.15138">
        <ele>180.4</ele>
        <time>2024-04-01T09:16:39Z</time>
      </trkpt>
      <trkpt lat="49.91406" lon="4.15127">
        <ele>180.2</ele>
        <time>2024-04-01T09:16:40Z</time>
      </trkpt>
      <trkpt lat="49.91406" lon="4.15116">
        <ele>180.4</ele>
        <time>2024-04-01T09:16:41Z</time>
      </trkpt>
      <trkpt lat="49.91407" lon="4.15105">
        <ele>180.4</ele>
        <time>2024-04-01T09:16:42Z</time>
      </trkpt>
      <trkpt lat="49.91407" lon="4.15094">
        <ele>180.2</ele>
        <time>2024-04-01T09:16:43Z</time>
      </trkpt>
      <trkpt lat="49.91407" lon="4.15083">
        <ele>180.2</ele>
        <time>2024-04-01T09:16:44Z</time>
      </trkpt>
      <trkpt lat="49.91407" lon="4.15072">
        <ele>180.2</ele>
        <time>2024-04-01T09:16:45Z</time>
      </trkpt>
      <trkpt lat="49.91408" lon="4.15062">
        <ele>180.2</ele>
        <time>2024-04-01T09:16:46Z</time>
      </trkpt>
      <trkpt lat="49.91408" lon="4.15052">
        <ele>180.6</ele>
        <time>2024-04-01T09:16:47Z</time>
      </trkpt>
      <trkpt lat="49.91408" lon="4.15043">
        <ele>180.6</ele>
        <time>2024-04-01T09:16:48Z</time>
      </trkpt>
      <trkpt lat="49.91409" lon="4.15033">
        <ele>180.6</ele>
        <time>2024-04-01T09:16:49Z</time>
      </trkpt>
      <trkpt lat="49.91409" lon="4.15023">
        <ele>180.8</ele>
        <time>2024-04-01T09:16:50Z</time>
      </trkpt>
      <trkpt lat="49.9141" lon="4.15014">
        <ele>180.8</ele>
        <time>2024-04-01T09:16:51Z</time>
      </trkpt>
      <trkpt lat="49.9141" lon="4.15005">
        <ele>180.6</ele>
        <time>2024-04-01T09:16:52Z</time>
      </trkpt>
      <trkpt lat="49.91411" lon="4.14996">
        <ele>180.8</ele>
        <time>2024-04-01T09:16:53Z</time>
      </trkpt>
      <trkpt lat="49.91411" lon="4.14987">
        <ele>180.8</ele>
        <time>2024-04-01T09:16:54Z</time>
      </trkpt>
      <trkpt lat="49.91412" lon="4.14978">
        <ele>180.8</ele>
        <time>2024-04-01T09:16:55Z</time>
      </trkpt>
      <trkpt lat="49.91413" lon="4.1497">
        <ele>181.2</ele>
        <time>2024-04-01T09:16:56Z</time>
      </trkpt>
      <trkpt lat="49.91413" lon="4.14961">
        <ele>181.2</ele>
        <time>2024-04-01T09:16:57Z</time>
      </trkpt>
      <trkpt lat="49.91414" lon="4.14952">
        <ele>181.2</ele>
        <time>2024-04-01T09:16:58Z</time>
      </trkpt>
      <trkpt lat="49.91416" lon="4.14944">
        <ele>181.6</ele>
        <time>2024-04-01T09:16:59Z</time>
      </trkpt>
      <trkpt lat="49.91417" lon="4.14935">
        <ele>182</ele>
        <time>2024-04-01T09:17:00Z</time>
      </trkpt>
      <trkpt lat="49.91419" lon="4.14927">
        <ele>182</ele>
        <time>2024-04-01T09:17:01Z</time>
      </trkpt>
      <trkpt lat="49.91421" lon="4.14919">
        <ele>182.6</ele>
        <time>2024-04-01T09:17:02Z</time>
      </trkpt>
      <trkpt lat="49.91424" lon="4.14911">
        <ele>183.2</ele>
        <time>2024-04-01T09:17:03Z</time>
      </trkpt>
      <trkpt lat="49.91426" lon="4.14903">
        <ele>183.4</ele>
        <time>2024-04-01T09:17:04Z</time>
      </trkpt>
      <trkpt lat="49.91429" lon="4.14895">
        <ele>183.8</ele>
        <time>2024-04-01T09:17:05Z</time>
      </trkpt>
      <trkpt lat="49.91432" lon="4.14888">
        <ele>184</ele>
        <time>2024-04-01T09:17:06Z</time>
      </trkpt>
      <trkpt lat="49.91435" lon="4.1488">
        <ele>184.2</ele>
        <time>2024-04-01T09:17:07Z</time>
      </trkpt>
      <trkpt lat="49.91438" lon="4.14873">
        <ele>184.4</ele>
        <time>2024-04-01T09:17:08Z</time>
      </trkpt>
      <trkpt lat="49.91442" lon="4.14865">
        <ele>184.6</ele>
        <time>2024-04-01T09:17:09Z</time>
      </trkpt>
      <trkpt lat="49.91445" lon="4.14858">
        <ele>185</ele>
        <time>2024-04-01T09:17:10Z</time>
      </trkpt>
      <trkpt lat="49.91449" lon="4.14851">
        <ele>185</ele>
        <time>2024-04-01T09:17:11Z</time>
      </trkpt>
      <trkpt lat="49.91452" lon="4.14844">
        <ele>185.6</ele>
        <time>2024-04-01T09:17:12Z</time>
      </trkpt>
      <trkpt lat="49.91456" lon="4.14837">
        <ele>186.4</ele>
        <time>2024-04-01T09:17:13Z</time>
      </trkpt>
      <trkpt lat="49.9146" lon="4.1483">
        <ele>186.4</ele>
        <time>2024-04-01T09:17:14Z</time>
      </trkpt>
      <trkpt lat="49.91464" lon="4.14822">
        <ele>186.8</ele>
        <time>2024-04-01T09:17:15Z</time>
      </trkpt>
      <trkpt lat="49.91468" lon="4.14815">
        <ele>187</ele>
        <time>2024-04-01T09:17:16Z</time>
      </trkpt>
      <trkpt lat="49.91472" lon="4.14808">
        <ele>187</ele>
        <time>2024-04-01T09:17:17Z</time>
      </trkpt>
      <trkpt lat="49.91476" lon="4.148">
        <ele>187.2</ele>
        <time>2024-04-01T09:17:18Z</time>
      </trkpt>
      <trkpt lat="49.9148" lon="4.14793">
        <ele>187.6</ele>
        <time>2024-04-01T09:17:19Z</time>
      </trkpt>
      <trkpt lat="49.91485" lon="4.14786">
        <ele>187.8</ele>
        <time>2024-04-01T09:17:20Z</time>
      </trkpt>
      <trkpt lat="49.91489" lon="4.14778">
        <ele>187.8</ele>
        <time>2024-04-01T09:17:21Z</time>
      </trkpt>
      <trkpt lat="49.91493" lon="4.14771">
        <ele>188</ele>
        <time>2024-04-01T09:17:22Z</time>
      </trkpt>
      <trkpt lat="49.91498" lon="4.14763">
        <ele>187.8</ele>
        <time>2024-04-01T09:17:23Z</time>
      </trkpt>
      <trkpt lat="49.91502" lon="4.14756">
        <ele>188</ele>
        <time>2024-04-01T09:17:24Z</time>
      </trkpt>
      <trkpt lat="49.91507" lon="4.14748">
        <ele>188</ele>
        <time>2024-04-01T09:17:25Z</time>
      </trkpt>
      <trkpt lat="49.91511" lon="4.14741">
        <ele>188</ele>
        <time>2024-04-01T09:17:26Z</time>
      </trkpt>
      <trkpt lat="49.91515" lon="4.14733">
        <ele>188</ele>
        <time>2024-04-01T09:17:27Z</time>
      </trkpt>
      <trkpt lat="49.9152" lon="4.14725">
        <ele>188</ele>
        <time>2024-04-01T09:17:28Z</time>
      </trkpt>
      <trkpt lat="49.91524" lon="4.14717">
        <ele>188</ele>
        <time>2024-04-01T09:17:29Z</time>
      </trkpt>
      <trkpt lat="49.91529" lon="4.1471">
        <ele>188</ele>
        <time>2024-04-01T09:17:30Z</time>
      </trkpt>
      <trkpt lat="49.91533" lon="4.14702">
        <ele>187.6</ele>
        <time>2024-04-01T09:17:31Z</time>
      </trkpt>
      <trkpt lat="49.91537" lon="4.14694">
        <ele>187.6</ele>
        <time>2024-04-01T09:17:32Z</time>
      </trkpt>
      <trkpt lat="49.91541" lon="4.14686">
        <ele>187.6</ele>
        <time>2024-04-01T09:17:33Z</time>
      </trkpt>
      <trkpt lat="49.91545" lon="4.14679">
        <ele>187.4</ele>
        <time>2024-04-01T09:17:34Z</time>
      </trkpt>
      <trkpt lat="49.91549" lon="4.14672">
        <ele>187.4</ele>
        <time>2024-04-01T09:17:35Z</time>
      </trkpt>
      <trkpt lat="49.91553" lon="4.14665">
        <ele>187.4</ele>
        <time>2024-04-01T09:17:36Z</time>
      </trkpt>
      <trkpt lat="49.91557" lon="4.14658">
        <ele>187.2</ele>
        <time>2024-04-01T09:17:37Z</time>
      </trkpt>
      <trkpt lat="49.91561" lon="4.14651">
        <ele>187.2</ele>
        <time>2024-04-01T09:17:38Z</time>
      </trkpt>
      <trkpt lat="49.91564" lon="4.14644">
        <ele>187.4</ele>
        <time>2024-04-01T09:17:39Z</time>
      </trkpt>
      <trkpt lat="49.91568" lon="4.14637">
        <ele>187.2</ele>
        <time>2024-04-01T09:17:40Z</time>
      </trkpt>
      <trkpt lat="49.91571" lon="4.1463">
        <ele>187.2</ele>
        <time>2024-04-01T09:17:41Z</time>
      </trkpt>
      <trkpt lat="49.91575" lon="4.14623">
        <ele>187.4</ele>
        <time>2024-04-01T09:17:42Z</time>
      </trkpt>
      <trkpt lat="49.91578" lon="4.14616">
        <ele>187.4</ele>
        <time>2024-04-01T09:17:43Z</time>
      </trkpt>
      <trkpt lat="49.91581" lon="4.14609">
        <ele>187.8</ele>
        <time>2024-04-01T09:17:44Z</time>
      </trkpt>
      <trkpt lat="49.91584" lon="4.14602">
        <ele>188</ele>
        <time>2024-04-01T09:17:45Z</time>
      </trkpt>
      <trkpt lat="49.91588" lon="4.14595">
        <ele>188.6</ele>
        <time>2024-04-01T09:17:46Z</time>
      </trkpt>
      <trkpt lat="49.91591" lon="4.14588">
        <ele>188.6</ele>
        <time>2024-04-01T09:17:47Z</time>
      </trkpt>
      <trkpt lat="49.91594" lon="4.14581">
        <ele>188.6</ele>
        <time>2024-04-01T09:17:48Z</time>
      </trkpt>
      <trkpt lat="49.91597" lon="4.14574">
        <ele>188.8</ele>
        <time>2024-04-01T09:17:49Z</time>
      </trkpt>
      <trkpt lat="49.91601" lon="4.14567">
        <ele>188.8</ele>
        <time>2024-04-01T09:17:50Z</time>
      </trkpt>
      <trkpt lat="49.91604" lon="4.1456">
        <ele>189.2</ele>
        <time>2024-04-01T09:17:51Z</time>
      </trkpt>
      <trkpt lat="49.91608" lon="4.14553">
        <ele>189.2</ele>
        <time>2024-04-01T09:17:52Z</time>
      </trkpt>
      <trkpt lat="49.91611" lon="4.14546">
        <ele>189.2</ele>
        <time>2024-04-01T09:17:53Z</time>
      </trkpt>
      <trkpt lat="49.91615" lon="4.14539">
        <ele>189.4</ele>
        <time>2024-04-01T09:17:54Z</time>
      </trkpt>
      <trkpt lat="49.91618" lon="4.14533">
        <ele>189.6</ele>
        <time>2024-04-01T09:17:55Z</time>
      </trkpt>
      <trkpt lat="49.91622" lon="4.14526">
        <ele>189.6</ele>
        <time>2024-04-01T09:17:56Z</time>
      </trkpt>
      <trkpt lat="49.91626" lon="4.1452">
        <ele>189.6</ele>
        <time>2024-04-01T09:17:57Z</time>
      </trkpt>
      <trkpt lat="49.9163" lon="4.14513">
        <ele>189.8</ele>
        <time>2024-04-01T09:17:58Z</time>
      </trkpt>
      <trkpt lat="49.91634" lon="4.14507">
        <ele>190.2</ele>
        <time>2024-04-01T09:17:59Z</time>
      </trkpt>
      <trkpt lat="49.91637" lon="4.14501">
        <ele>190.4</ele>
        <time>2024-04-01T09:18:00Z</time>
      </trkpt>
      <trkpt lat="49.91641" lon="4.14495">
        <ele>190.6</ele>
        <time>2024-04-01T09:18:01Z</time>
      </trkpt>
      <trkpt lat="49.91645" lon="4.14489">
        <ele>191</ele>
        <time>2024-04-01T09:18:02Z</time>
      </trkpt>
      <trkpt lat="49.91649" lon="4.14483">
        <ele>191.2</ele>
        <time>2024-04-01T09:18:03Z</time>
      </trkpt>
      <trkpt lat="49.91653" lon="4.14477">
        <ele>191.6</ele>
        <time>2024-04-01T09:18:04Z</time>
      </trkpt>
      <trkpt lat="49.91657" lon="4.1447">
        <ele>191.6</ele>
        <time>2024-04-01T09:18:05Z</time>
      </trkpt>
      <trkpt lat="49.91662" lon="4.14464">
        <ele>191.6</ele>
        <time>2024-04-01T09:18:06Z</time>
      </trkpt>
      <trkpt lat="49.91666" lon="4.14458">
        <ele>191.8</ele>
        <time>2024-04-01T09:18:07Z</time>
      </trkpt>
      <trkpt lat="49.9167" lon="4.14452">
        <ele>191.8</ele>
        <time>2024-04-01T09:18:08Z</time>
      </trkpt>
      <trkpt lat="49.91675" lon="4.14445">
        <ele>192</ele>
        <time>2024-04-01T09:18:09Z</time>
      </trkpt>
      <trkpt lat="49.91679" lon="4.14439">
        <ele>192</ele>
        <time>2024-04-01T09:18:10Z</time>
      </trkpt>
      <trkpt lat="49.91683" lon="4.14433">
        <ele>192</ele>
        <time>2024-04-01T09:18:11Z</time>
      </trkpt>
      <trkpt lat="49.91688" lon="4.14427">
        <ele>192</ele>
        <time>2024-04-01T09:18:12Z</time>
      </trkpt>
      <trkpt lat="49.91692" lon="4.14421">
        <ele>192.2</ele>
        <time>2024-04-01T09:18:13Z</time>
      </trkpt>
      <trkpt lat="49.91696" lon="4.14415">
        <ele>192.2</ele>
        <time>2024-04-01T09:18:14Z</time>
      </trkpt>
      <trkpt lat="49.91701" lon="4.14408">
        <ele>192.4</ele>
        <time>2024-04-01T09:18:15Z</time>
      </trkpt>
      <trkpt lat="49.91705" lon="4.14401">
        <ele>192.4</ele>
        <time>2024-04-01T09:18:16Z</time>
      </trkpt>
      <trkpt lat="49.91709" lon="4.14395">
        <ele>192.6</ele>
        <time>2024-04-01T09:18:17Z</time>
      </trkpt>
      <trkpt lat="49.91713" lon="4.14389">
        <ele>192.6</ele>
        <time>2024-04-01T09:18:18Z</time>
      </trkpt>
      <trkpt lat="49.91717" lon="4.14382">
        <ele>192.4</ele>
        <time>2024-04-01T09:18:19Z</time>
      </trkpt>
      <trkpt lat="49.91721" lon="4.14375">
        <ele>192.8</ele>
        <time>2024-04-01T09:18:20Z</time>
      </trkpt>
      <trkpt lat="49.91725" lon="4.14368">
        <ele>192.8</ele>
        <time>2024-04-01T09:18:21Z</time>
      </trkpt>
      <trkpt lat="49.91728" lon="4.1436">
        <ele>192.8</ele>
        <time>2024-04-01T09:18:22Z</time>
      </trkpt>
      <trkpt lat="49.91732" lon="4.14352">
        <ele>192.8</ele>
        <time>2024-04-01T09:18:23Z</time>
      </trkpt>
      <trkpt lat="49.91735" lon="4.14344">
        <ele>192.8</ele>
        <time>2024-04-01T09:18:24Z</time>
      </trkpt>
      <trkpt lat="49.91739" lon="4.14336">
        <ele>193</ele>
        <time>2024-04-01T09:18:25Z</time>
      </trkpt>
      <trkpt lat="49.91742" lon="4.14329">
        <ele>193</ele>
        <time>2024-04-01T09:18:26Z</time>
      </trkpt>
      <trkpt lat="49.91745" lon="4.14321">
        <ele>193</ele>
        <time>2024-04-01T09:18:27Z</time>
      </trkpt>
      <trkpt lat="49.91748" lon="4.14314">
        <ele>193</ele>
        <time>2024-04-01T09:18:28Z</time>
      </trkpt>
      <trkpt lat="49.91751" lon="4.14307">
        <ele>193.2</ele>
        <time>2024-04-01T09:18:29Z</time>
      </trkpt>
      <trkpt lat="49.91754" lon="4.143">
        <ele>193.2</ele>
        <time>2024-04-01T09:18:30Z</time>
      </trkpt>
      <trkpt lat="49.91757" lon="4.14293">
        <ele>193.4</ele>
        <time>2024-04-01T09:18:31Z</time>
      </trkpt>
      <trkpt lat="49.91761" lon="4.14286">
        <ele>193.4</ele>
        <time>2024-04-01T09:18:32Z</time>
      </trkpt>
      <trkpt lat="49.91764" lon="4.14279">
        <ele>193.4</ele>
        <time>2024-04-01T09:18:33Z</time>
      </trkpt>
      <trkpt lat="49.91767" lon="4.14271">
        <ele>193.4</ele>
        <time>2024-04-01T09:18:34Z</time>
      </trkpt>
      <trkpt lat="49.9177" lon="4.14264">
        <ele>193.6</ele>
        <time>2024-04-01T09:18:35Z</time>
      </trkpt>
      <trkpt lat="49.91773" lon="4.14257">
        <ele>193.6</ele>
        <time>2024-04-01T09:18:36Z</time>
      </trkpt>
      <trkpt lat="49.91777" lon="4.14249">
        <ele>193.6</ele>
        <time>2024-04-01T09:18:37Z</time>
      </trkpt>
      <trkpt lat="49.9178" lon="4.14242">
        <ele>193.8</ele>
        <time>2024-04-01T09:18:38Z</time>
      </trkpt>
      <trkpt lat="49.91783" lon="4.14234">
        <ele>194</ele>
        <time>2024-04-01T09:18:39Z</time>
      </trkpt>
      <trkpt lat="49.91786" lon="4.14227">
        <ele>194</ele>
        <time>2024-04-01T09:18:40Z</time>
      </trkpt>
      <trkpt lat="49.9179" lon="4.14219">
        <ele>194</ele>
        <time>2024-04-01T09:18:41Z</time>
      </trkpt>
      <trkpt lat="49.91794" lon="4.14212">
        <ele>194</ele>
        <time>2024-04-01T09:18:42Z</time>
      </trkpt>
      <trkpt lat="49.91798" lon="4.14205">
        <ele>194.2</ele>
        <time>2024-04-01T09:18:43Z</time>
      </trkpt>
      <trkpt lat="49.91801" lon="4.14197">
        <ele>194.2</ele>
        <time>2024-04-01T09:18:44Z</time>
      </trkpt>
      <trkpt lat="49.91805" lon="4.1419">
        <ele>194.2</ele>
        <time>2024-04-01T09:18:45Z</time>
      </trkpt>
      <trkpt lat="49.91809" lon="4.14182">
        <ele>194.4</ele>
        <time>2024-04-01T09:18:46Z</time>
      </trkpt>
      <trkpt lat="49.91813" lon="4.14175">
        <ele>194.4</ele>
        <time>2024-04-01T09:18:47Z</time>
      </trkpt>
      <trkpt lat="49.91817" lon="4.14168">
        <ele>194.2</ele>
        <time>2024-04-01T09:18:48Z</time>
      </trkpt>
      <trkpt lat="49.91821" lon="4.14161">
        <ele>194.2</ele>
        <time>2024-04-01T09:18:49Z</time>
      </trkpt>
      <trkpt lat="49.91825" lon="4.14153">
        <ele>194.2</ele>
        <time>2024-04-01T09:18:50Z</time>
      </trkpt>
      <trkpt lat="49.91829" lon="4.14146">
        <ele>194.2</ele>
        <time>2024-04-01T09:18:51Z</time>
      </trkpt>
      <trkpt lat="49.91833" lon="4.14138">
        <ele>194.2</ele>
        <time>2024-04-01T09:18:52Z</time>
      </trkpt>
      <trkpt lat="49.91838" lon="4.1413">
        <ele>194</ele>
        <time>2024-04-01T09:18:53Z</time>
      </trkpt>
      <trkpt lat="49.91842" lon="4.14122">
        <ele>193.8</ele>
        <time>2024-04-01T09:18:54Z</time>
      </trkpt>
      <trkpt lat="49.91847" lon="4.14114">
        <ele>193.8</ele>
        <time>2024-04-01T09:18:55Z</time>
      </trkpt>
      <trkpt lat="49.91851" lon="4.14106">
        <ele>193.8</ele>
        <time>2024-04-01T09:18:56Z</time>
      </trkpt>
      <trkpt lat="49.91856" lon="4.14097">
        <ele>193.6</ele>
        <time>2024-04-01T09:18:57Z</time>
      </trkpt>
      <trkpt lat="49.9186" lon="4.14089">
        <ele>193.6</ele>
        <time>2024-04-01T09:18:58Z</time>
      </trkpt>
      <trkpt lat="49.91865" lon="4.1408">
        <ele>193.6</ele>
        <time>2024-04-01T09:18:59Z</time>
      </trkpt>
      <trkpt lat="49.91869" lon="4.14071">
        <ele>193.6</ele>
        <time>2024-04-01T09:19:00Z</time>
      </trkpt>
      <trkpt lat="49.91874" lon="4.14062">
        <ele>193.4</ele>
        <time>2024-04-01T09:19:01Z</time>
      </trkpt>
      <trkpt lat="49.91879" lon="4.14053">
        <ele>193.4</ele>
        <time>2024-04-01T09:19:02Z</time>
      </trkpt>
      <trkpt lat="49.91884" lon="4.14044">
        <ele>193.4</ele>
        <time>2024-04-01T09:19:03Z</time>
      </trkpt>
      <trkpt lat="49.91888" lon="4.14035">
        <ele>193.4</ele>
        <time>2024-04-01T09:19:04Z</time>
      </trkpt>
      <trkpt lat="49.91893" lon="4.14026">
        <ele>193.4</ele>
        <time>2024-04-01T09:19:05Z</time>
      </trkpt>
      <trkpt lat="49.91898" lon="4.14017">
        <ele>193.4</ele>
        <time>2024-04-01T09:19:06Z</time>
      </trkpt>
      <trkpt lat="49.91903" lon="4.14009">
        <ele>193.2</ele>
        <time>2024-04-01T09:19:07Z</time>
      </trkpt>
      <trkpt lat="49.91907" lon="4.14001">
        <ele>193</ele>
        <time>2024-04-01T09:19:08Z</time>
      </trkpt>
      <trkpt lat="49.91911" lon="4.13994">
        <ele>193</ele>
        <time>2024-04-01T09:19:09Z</time>
      </trkpt>
      <trkpt lat="49.91915" lon="4.13987">
        <ele>192.2</ele>
        <time>2024-04-01T09:19:10Z</time>
      </trkpt>
      <trkpt lat="49.91919" lon="4.13983">
        <ele>191.8</ele>
        <time>2024-04-01T09:19:11Z</time>
      </trkpt>
      <trkpt lat="49.91923" lon="4.13979">
        <ele>191.2</ele>
        <time>2024-04-01T09:19:12Z</time>
      </trkpt>
      <trkpt lat="49.91926" lon="4.13975">
        <ele>191.2</ele>
        <time>2024-04-01T09:19:13Z</time>
      </trkpt>
      <trkpt lat="49.9193" lon="4.1397">
        <ele>190.8</ele>
        <time>2024-04-01T09:19:14Z</time>
      </trkpt>
      <trkpt lat="49.91933" lon="4.13963">
        <ele>190.8</ele>
        <time>2024-04-01T09:19:15Z</time>
      </trkpt>
      <trkpt lat="49.91936" lon="4.13955">
        <ele>190</ele>
        <time>2024-04-01T09:19:16Z</time>
      </trkpt>
      <trkpt lat="49.91939" lon="4.13947">
        <ele>189.6</ele>
        <time>2024-04-01T09:19:17Z</time>
      </trkpt>
      <trkpt lat="49.91942" lon="4.13937">
        <ele>188.8</ele>
        <time>2024-04-01T09:19:18Z</time>
      </trkpt>
      <trkpt lat="49.91944" lon="4.13927">
        <ele>188.6</ele>
        <time>2024-04-01T09:19:19Z</time>
      </trkpt>
      <trkpt lat="49.91947" lon="4.13917">
        <ele>188</ele>
        <time>2024-04-01T09:19:20Z</time>
      </trkpt>
      <trkpt lat="49.9195" lon="4.13906">
        <ele>187.6</ele>
        <time>2024-04-01T09:19:21Z</time>
      </trkpt>
      <trkpt lat="49.91953" lon="4.13895">
        <ele>187.4</ele>
        <time>2024-04-01T09:19:22Z</time>
      </trkpt>
      <trkpt lat="49.91956" lon="4.13884">
        <ele>187</ele>
        <time>2024-04-01T09:19:23Z</time>
      </trkpt>
      <trkpt lat="49.91959" lon="4.13873">
        <ele>186.4</ele>
        <time>2024-04-01T09:19:24Z</time>
      </trkpt>
      <trkpt lat="49.91961" lon="4.13861">
        <ele>186.2</ele>
        <time>2024-04-01T09:19:25Z</time>
      </trkpt>
      <trkpt lat="49.91964" lon="4.1385">
        <ele>186</ele>
        <time>2024-04-01T09:19:26Z</time>
      </trkpt>
      <trkpt lat="49.91967" lon="4.13839">
        <ele>185.6</ele>
        <time>2024-04-01T09:19:27Z</time>
      </trkpt>
      <trkpt lat="49.9197" lon="4.13828">
        <ele>184.6</ele>
        <time>2024-04-01T09:19:28Z</time>
      </trkpt>
      <trkpt lat="49.91973" lon="4.13818">
        <ele>184.4</ele>
        <time>2024-04-01T09:19:29Z</time>
      </trkpt>
      <trkpt lat="49.91975" lon="4.13807">
        <ele>183.8</ele>
        <time>2024-04-01T09:19:30Z</time>
      </trkpt>
      <trkpt lat="49.91978" lon="4.13799">
        <ele>183</ele>
        <time>2024-04-01T09:19:31Z</time>
      </trkpt>
      <trkpt lat="49.9198" lon="4.13792">
        <ele>182.6</ele>
        <time>2024-04-01T09:19:32Z</time>
      </trkpt>
      <trkpt lat="49.91982" lon="4.13787">
        <ele>182</ele>
        <time>2024-04-01T09:19:33Z</time>
      </trkpt>
      <trkpt lat="49.91985" lon="4.13785">
        <ele>181.8</ele>
        <time>2024-04-01T09:19:34Z</time>
      </trkpt>
      <trkpt lat="49.91988" lon="4.13787">
        <ele>181.8</ele>
        <time>2024-04-01T09:19:35Z</time>
      </trkpt>
      <trkpt lat="49.91991" lon="4.13791">
        <ele>181.8</ele>
        <time>2024-04-01T09:19:36Z</time>
      </trkpt>
      <trkpt lat="49.91994" lon="4.13797">
        <ele>181.8</ele>
        <time>2024-04-01T09:19:37Z</time>
      </trkpt>
      <trkpt lat="49.91998" lon="4.13804">
        <ele>181.8</ele>
        <time>2024-04-01T09:19:38Z</time>
      </trkpt>
      <trkpt lat="49.92002" lon="4.13812">
        <ele>181.6</ele>
        <time>2024-04-01T09:19:39Z</time>
      </trkpt>
      <trkpt lat="49.92006" lon="4.13821">
        <ele>181.4</ele>
        <time>2024-04-01T09:19:40Z</time>
      </trkpt>
      <trkpt lat="49.9201" lon="4.1383">
        <ele>181.4</ele>
        <time>2024-04-01T09:19:41Z</time>
      </trkpt>
      <trkpt lat="49.92015" lon="4.13839">
        <ele>181.2</ele>
        <time>2024-04-01T09:19:42Z</time>
      </trkpt>
      <trkpt lat="49.9202" lon="4.13848">
        <ele>181</ele>
        <time>2024-04-01T09:19:43Z</time>
      </trkpt>
      <trkpt lat="49.92025" lon="4.13858">
        <ele>180.8</ele>
        <time>2024-04-01T09:19:44Z</time>
      </trkpt>
      <trkpt lat="49.9203" lon="4.13867">
        <ele>180.8</ele>
        <time>2024-04-01T09:19:45Z</time>
      </trkpt>
      <trkpt lat="49.92035" lon="4.13876">
        <ele>180.8</ele>
        <time>2024-04-01T09:19:46Z</time>
      </trkpt>
      <trkpt lat="49.9204" lon="4.13886">
        <ele>180.8</ele>
        <time>2024-04-01T09:19:47Z</time>
      </trkpt>
      <trkpt lat="49.92045" lon="4.13895">
        <ele>180.6</ele>
        <time>2024-04-01T09:19:48Z</time>
      </trkpt>
      <trkpt lat="49.9205" lon="4.13905">
        <ele>180.2</ele>
        <time>2024-04-01T09:19:49Z</time>
      </trkpt>
      <trkpt lat="49.92055" lon="4.13915">
        <ele>180</ele>
        <time>2024-04-01T09:19:50Z</time>
      </trkpt>
      <trkpt lat="49.9206" lon="4.13925">
        <ele>179.4</ele>
        <time>2024-04-01T09:19:51Z</time>
      </trkpt>
      <trkpt lat="49.92065" lon="4.13935">
        <ele>179.4</ele>
        <time>2024-04-01T09:19:52Z</time>
      </trkpt>
      <trkpt lat="49.9207" lon="4.13944">
        <ele>179</ele>
        <time>2024-04-01T09:19:53Z</time>
      </trkpt>
      <trkpt lat="49.92075" lon="4.13954">
        <ele>178.6</ele>
        <time>2024-04-01T09:19:54Z</time>
      </trkpt>
      <trkpt lat="49.92081" lon="4.13963">
        <ele>178.2</ele>
        <time>2024-04-01T09:19:55Z</time>
      </trkpt>
      <trkpt lat="49.92087" lon="4.13969">
        <ele>178.2</ele>
        <time>2024-04-01T09:19:56Z</time>
      </trkpt>
      <trkpt lat="49.92093" lon="4.13974">
        <ele>178.2</ele>
        <time>2024-04-01T09:19:57Z</time>
      </trkpt>
      <trkpt lat="49.921" lon="4.13978">
        <ele>178.2</ele>
        <time>2024-04-01T09:19:58Z</time>
      </trkpt>
      <trkpt lat="49.92106" lon="4.13982">
        <ele>178.2</ele>
        <time>2024-04-01T09:19:59Z</time>
      </trkpt>
      <trkpt lat="49.92112" lon="4.13986">
        <ele>178.2</ele>
        <time>2024-04-01T09:20:00Z</time>
      </trkpt>
      <trkpt lat="49.92118" lon="4.13989">
        <ele>178.2</ele>
        <time>2024-04-01T09:20:01Z</time>
      </trkpt>
      <trkpt lat="49.92124" lon="4.13992">
        <ele>178</ele>
        <time>2024-04-01T09:20:02Z</time>
      </trkpt>
      <trkpt lat="49.92129" lon="4.13994">
        <ele>178.2</ele>
        <time>2024-04-01T09:20:03Z</time>
      </trkpt>
      <trkpt lat="49.92135" lon="4.13997">
        <ele>178.2</ele>
        <time>2024-04-01T09:20:04Z</time>
      </trkpt>
      <trkpt lat="49.9214" lon="4.14">
        <ele>178.2</ele>
        <time>2024-04-01T09:20:05Z</time>
      </trkpt>
      <trkpt lat="49.92146" lon="4.14003">
        <ele>178.4</ele>
        <time>2024-04-01T09:20:06Z</time>
      </trkpt>
      <trkpt lat="49.92151" lon="4.14005">
        <ele>179</ele>
        <time>2024-04-01T09:20:07Z</time>
      </trkpt>
      <trkpt lat="49.92156" lon="4.14008">
        <ele>179</ele>
        <time>2024-04-01T09:20:08Z</time>
      </trkpt>
      <trkpt lat="49.9216" lon="4.1401">
        <ele>179.2</ele>
        <time>2024-04-01T09:20:09Z</time>
      </trkpt>
      <trkpt lat="49.92165" lon="4.14013">
        <ele>179.4</ele>
        <time>2024-04-01T09:20:10Z</time>
      </trkpt>
      <trkpt lat="49.9217" lon="4.14015">
        <ele>180</ele>
        <time>2024-04-01T09:20:11Z</time>
      </trkpt>
      <trkpt lat="49.92175" lon="4.14017">
        <ele>180.4</ele>
        <time>2024-04-01T09:20:12Z</time>
      </trkpt>
      <trkpt lat="49.92179" lon="4.1402">
        <ele>181</ele>
        <time>2024-04-01T09:20:13Z</time>
      </trkpt>
      <trkpt lat="49.92184" lon="4.14022">
        <ele>181.2</ele>
        <time>2024-04-01T09:20:14Z</time>
      </trkpt>
      <trkpt lat="49.92188" lon="4.14024">
        <ele>181.6</ele>
        <time>2024-04-01T09:20:15Z</time>
      </trkpt>
      <trkpt lat="49.92192" lon="4.14027">
        <ele>182</ele>
        <time>2024-04-01T09:20:16Z</time>
      </trkpt>
      <trkpt lat="49.92197" lon="4.14029">
        <ele>182</ele>
        <time>2024-04-01T09:20:17Z</time>
      </trkpt>
      <trkpt lat="49.92201" lon="4.14031">
        <ele>182.2</ele>
        <time>2024-04-01T09:20:18Z</time>
      </trkpt>
      <trkpt lat="49.92205" lon="4.14033">
        <ele>182.4</ele>
        <time>2024-04-01T09:20:19Z</time>
      </trkpt>
      <trkpt lat="49.92209" lon="4.14035">
        <ele>182.4</ele>
        <time>2024-04-01T09:20:20Z</time>
      </trkpt>
      <trkpt lat="49.92212" lon="4.14037">
        <ele>183</ele>
        <time>2024-04-01T09:20:21Z</time>
      </trkpt>
      <trkpt lat="49.92216" lon="4.1404">
        <ele>183.6</ele>
        <time>2024-04-01T09:20:22Z</time>
      </trkpt>
      <trkpt lat="49.9222" lon="4.14042">
        <ele>183.6</ele>
        <time>2024-04-01T09:20:23Z</time>
      </trkpt>
      <trkpt lat="49.92224" lon="4.14044">
        <ele>183.8</ele>
        <time>2024-04-01T09:20:24Z</time>
      </trkpt>
      <trkpt lat="49.92228" lon="4.14046">
        <ele>184</ele>
        <time>2024-04-01T09:20:25Z</time>
      </trkpt>
      <trkpt lat="49.92232" lon="4.14048">
        <ele>184</ele>
        <time>2024-04-01T09:20:26Z</time>
      </trkpt>
      <trkpt lat="49.92236" lon="4.14051">
        <ele>184.2</ele>
        <time>2024-04-01T09:20:27Z</time>
      </trkpt>
      <trkpt lat="49.92239" lon="4.14054">
        <ele>184.4</ele>
        <time>2024-04-01T09:20:28Z</time>
      </trkpt>
      <trkpt lat="49.92243" lon="4.14056">
        <ele>184.6</ele>
        <time>2024-04-01T09:20:29Z</time>
      </trkpt>
      <trkpt lat="49.92247" lon="4.14059">
        <ele>184.8</ele>
        <time>2024-04-01T09:20:30Z</time>
      </trkpt>
      <trkpt lat="49.9225" lon="4.14062">
        <ele>185</ele>
        <time>2024-04-01T09:20:31Z</time>
      </trkpt>
      <trkpt lat="49.92254" lon="4.14064">
        <ele>185.2</ele>
        <time>2024-04-01T09:20:32Z</time>
      </trkpt>
      <trkpt lat="49.92257" lon="4.14067">
        <ele>185.6</ele>
        <time>2024-04-01T09:20:33Z</time>
      </trkpt>
      <trkpt lat="49.92261" lon="4.1407">
        <ele>186</ele>
        <time>2024-04-01T09:20:34Z</time>
      </trkpt>
      <trkpt lat="49.92264" lon="4.14073">
        <ele>186.4</ele>
        <time>2024-04-01T09:20:35Z</time>
      </trkpt>
      <trkpt lat="49.92268" lon="4.14076">
        <ele>186.8</ele>
        <time>2024-04-01T09:20:36Z</time>
      </trkpt>
      <trkpt lat="49.92271" lon="4.14079">
        <ele>187.2</ele>
        <time>2024-04-01T09:20:37Z</time>
      </trkpt>
      <trkpt lat="49.92274" lon="4.14081">
        <ele>187.4</ele>
        <time>2024-04-01T09:20:38Z</time>
      </trkpt>
      <trkpt lat="49.92277" lon="4.14084">
        <ele>187.8</ele>
        <time>2024-04-01T09:20:39Z</time>
      </trkpt>
      <trkpt lat="49.92281" lon="4.14087">
        <ele>188.4</ele>
        <time>2024-04-01T09:20:40Z</time>
      </trkpt>
      <trkpt lat="49.92284" lon="4.1409">
        <ele>189</ele>
        <time>2024-04-01T09:20:41Z</time>
      </trkpt>
      <trkpt lat="49.92287" lon="4.14093">
        <ele>189.6</ele>
        <time>2024-04-01T09:20:42Z</time>
      </trkpt>
      <trkpt lat="49.92291" lon="4.14096">
        <ele>189.6</ele>
        <time>2024-04-01T09:20:43Z</time>
      </trkpt>
      <trkpt lat="49.92294" lon="4.14099">
        <ele>190.2</ele>
        <time>2024-04-01T09:20:44Z</time>
      </trkpt>
      <trkpt lat="49.92297" lon="4.14102">
        <ele>190.6</ele>
        <time>2024-04-01T09:20:45Z</time>
      </trkpt>
      <trkpt lat="49.923" lon="4.14105">
        <ele>191</ele>
        <time>2024-04-01T09:20:46Z</time>
      </trkpt>
      <trkpt lat="49.92303" lon="4.14108">
        <ele>191</ele>
        <time>2024-04-01T09:20:47Z</time>
      </trkpt>
      <trkpt lat="49.92306" lon="4.14111">
        <ele>191.2</ele>
        <time>2024-04-01T09:20:48Z</time>
      </trkpt>
      <trkpt lat="49.92309" lon="4.14114">
        <ele>191.4</ele>
        <time>2024-04-01T09:20:49Z</time>
      </trkpt>
      <trkpt lat="49.92312" lon="4.14118">
        <ele>191.4</ele>
        <time>2024-04-01T09:20:50Z</time>
      </trkpt>
      <trkpt lat="49.92315" lon="4.14121">
        <ele>191.8</ele>
        <time>2024-04-01T09:20:51Z</time>
      </trkpt>
      <trkpt lat="49.92318" lon="4.14125">
        <ele>192</ele>
        <time>2024-04-01T09:20:52Z</time>
      </trkpt>
      <trkpt lat="49.92321" lon="4.14128">
        <ele>192.2</ele>
        <time>2024-04-01T09:20:53Z</time>
      </trkpt>
      <trkpt lat="49.92324" lon="4.14132">
        <ele>192.8</ele>
        <time>2024-04-01T09:20:54Z</time>
      </trkpt>
      <trkpt lat="49.92327" lon="4.14136">
        <ele>193.6</ele>
        <time>2024-04-01T09:20:55Z</time>
      </trkpt>
      <trkpt lat="49.9233" lon="4.14139">
        <ele>194.4</ele>
        <time>2024-04-01T09:20:56Z</time>
      </trkpt>
      <trkpt lat="49.92333" lon="4.14143">
        <ele>194.8</ele>
        <time>2024-04-01T09:20:57Z</time>
      </trkpt>
      <trkpt lat="49.92335" lon="4.14147">
        <ele>194.8</ele>
        <time>2024-04-01T09:20:58Z</time>
      </trkpt>
      <trkpt lat="49.92338" lon="4.14151">
        <ele>194.8</ele>
        <time>2024-04-01T09:20:59Z</time>
      </trkpt>
      <trkpt lat="49.92341" lon="4.14154">
        <ele>195.2</ele>
        <time>2024-04-01T09:21:00Z</time>
      </trkpt>
      <trkpt lat="49.92344" lon="4.14158">
        <ele>195.2</ele>
        <time>2024-04-01T09:21:01Z</time>
      </trkpt>
      <trkpt lat="49.92346" lon="4.14162">
        <ele>195.2</ele>
        <time>2024-04-01T09:21:02Z</time>
      </trkpt>
      <trkpt lat="49.92349" lon="4.14166">
        <ele>195.6</ele>
        <time>2024-04-01T09:21:03Z</time>
      </trkpt>
      <trkpt lat="49.92351" lon="4.14169">
        <ele>196</ele>
        <time>2024-04-01T09:21:04Z</time>
      </trkpt>
      <trkpt lat="49.92354" lon="4.14173">
        <ele>196.2</ele>
        <time>2024-04-01T09:21:05Z</time>
      </trkpt>
      <trkpt lat="49.92356" lon="4.14177">
        <ele>196.6</ele>
        <time>2024-04-01T09:21:06Z</time>
      </trkpt>
      <trkpt lat="49.92359" lon="4.14181">
        <ele>196.8</ele>
        <time>2024-04-01T09:21:07Z</time>
      </trkpt>
      <trkpt lat="49.92361" lon="4.14184">
        <ele>196.8</ele>
        <time>2024-04-01T09:21:08Z</time>
      </trkpt>
      <trkpt lat="49.92364" lon="4.14188">
        <ele>197.2</ele>
        <time>2024-04-01T09:21:09Z</time>
      </trkpt>
      <trkpt lat="49.92367" lon="4.14192">
        <ele>197.4</ele>
        <time>2024-04-01T09:21:10Z</time>
      </trkpt>
      <trkpt lat="49.92369" lon="4.14195">
        <ele>197.6</ele>
        <time>2024-04-01T09:21:11Z</time>
      </trkpt>
      <trkpt lat="49.92372" lon="4.14199">
        <ele>198</ele>
        <time>2024-04-01T09:21:12Z</time>
      </trkpt>
      <trkpt lat="49.92374" lon="4.14203">
        <ele>198.2</ele>
        <time>2024-04-01T09:21:13Z</time>
      </trkpt>
      <trkpt lat="49.92377" lon="4.14207">
        <ele>198.4</ele>
        <time>2024-04-01T09:21:14Z</time>
      </trkpt>
      <trkpt lat="49.92379" lon="4.1421">
        <ele>198.6</ele>
        <time>2024-04-01T09:21:15Z</time>
      </trkpt>
      <trkpt lat="49.92381" lon="4.14214">
        <ele>198.6</ele>
        <time>2024-04-01T09:21:16Z</time>
      </trkpt>
      <trkpt lat="49.92384" lon="4.14218">
        <ele>198.8</ele>
        <time>2024-04-01T09:21:17Z</time>
      </trkpt>
      <trkpt lat="49.92386" lon="4.14222">
        <ele>198.8</ele>
        <time>2024-04-01T09:21:18Z</time>
      </trkpt>
      <trkpt lat="49.92389" lon="4.14226">
        <ele>198.8</ele>
        <time>2024-04-01T09:21:19Z</time>
      </trkpt>
      <trkpt lat="49.92391" lon="4.1423">
        <ele>199</ele>
        <time>2024-04-01T09:21:20Z</time>
      </trkpt>
      <trkpt lat="49.92394" lon="4.14234">
        <ele>199.2</ele>
        <time>2024-04-01T09:21:21Z</time>
      </trkpt>
      <trkpt lat="49.92396" lon="4.14238">
        <ele>199.4</ele>
        <time>2024-04-01T09:21:22Z</time>
      </trkpt>
      <trkpt lat="49.92399" lon="4.14242">
        <ele>199.4</ele>
        <time>2024-04-01T09:21:23Z</time>
      </trkpt>
      <trkpt lat="49.92401" lon="4.14246">
        <ele>199.6</ele>
        <time>2024-04-01T09:21:24Z</time>
      </trkpt>
      <trkpt lat="49.92404" lon="4.1425">
        <ele>199.8</ele>
        <time>2024-04-01T09:21:25Z</time>
      </trkpt>
      <trkpt lat="49.92406" lon="4.14254">
        <ele>200</ele>
        <time>2024-04-01T09:21:26Z</time>
      </trkpt>
      <trkpt lat="49.92408" lon="4.14258">
        <ele>200.2</ele>
        <time>2024-04-01T09:21:27Z</time>
      </trkpt>
      <trkpt lat="49.92411" lon="4.14262">
        <ele>200.4</ele>
        <time>2024-04-01T09:21:28Z</time>
      </trkpt>
      <trkpt lat="49.92413" lon="4.14266">
        <ele>201.2</ele>
        <time>2024-04-01T09:21:29Z</time>
      </trkpt>
      <trkpt lat="49.92416" lon="4.14269">
        <ele>201.8</ele>
        <time>2024-04-01T09:21:30Z</time>
      </trkpt>
      <trkpt lat="49.92418" lon="4.14273">
        <ele>202.2</ele>
        <time>2024-04-01T09:21:31Z</time>
      </trkpt>
      <trkpt lat="49.92421" lon="4.14277">
        <ele>202.6</ele>
        <time>2024-04-01T09:21:32Z</time>
      </trkpt>
      <trkpt lat="49.92423" lon="4.1428">
        <ele>203</ele>
        <time>2024-04-01T09:21:33Z</time>
      </trkpt>
      <trkpt lat="49.92426" lon="4.14284">
        <ele>203.2</ele>
        <time>2024-04-01T09:21:34Z</time>
      </trkpt>
      <trkpt lat="49.92428" lon="4.14288">
        <ele>203.2</ele>
        <time>2024-04-01T09:21:35Z</time>
      </trkpt>
      <trkpt lat="49.92431" lon="4.14291">
        <ele>203.4</ele>
        <time>2024-04-01T09:21:36Z</time>
      </trkpt>
      <trkpt lat="49.92434" lon="4.14295">
        <ele>203.6</ele>
        <time>2024-04-01T09:21:37Z</time>
      </trkpt>
      <trkpt lat="49.92436" lon="4.14298">
        <ele>203.6</ele>
        <time>2024-04-01T09:21:38Z</time>
      </trkpt>
      <trkpt lat="49.92439" lon="4.14302">
        <ele>203.8</ele>
        <time>2024-04-01T09:21:39Z</time>
      </trkpt>
      <trkpt lat="49.92442" lon="4.14305">
        <ele>204.2</ele>
        <time>2024-04-01T09:21:40Z</time>
      </trkpt>
      <trkpt lat="49.92444" lon="4.14309">
        <ele>204.6</ele>
        <time>2024-04-01T09:21:41Z</time>
      </trkpt>
      <trkpt lat="49.92447" lon="4.14312">
        <ele>205</ele>
        <time>2024-04-01T09:21:42Z</time>
      </trkpt>
      <trkpt lat="49.92449" lon="4.14315">
        <ele>205.2</ele>
        <time>2024-04-01T09:21:43Z</time>
      </trkpt>
      <trkpt lat="49.92452" lon="4.14318">
        <ele>205.2</ele>
        <time>2024-04-01T09:21:44Z</time>
      </trkpt>
      <trkpt lat="49.92454" lon="4.14321">
        <ele>205.4</ele>
        <time>2024-04-01T09:21:45Z</time>
      </trkpt>
      <trkpt lat="49.92456" lon="4.14324">
        <ele>205.8</ele>
        <time>2024-04-01T09:21:46Z</time>
      </trkpt>
      <trkpt lat="49.92459" lon="4.14327">
        <ele>206</ele>
        <time>2024-04-01T09:21:47Z</time>
      </trkpt>
      <trkpt lat="49.92461" lon="4.1433">
        <ele>206.2</ele>
        <time>2024-04-01T09:21:48Z</time>
      </trkpt>
      <trkpt lat="49.92463" lon="4.14333">
        <ele>206.2</ele>
        <time>2024-04-01T09:21:49Z</time>
      </trkpt>
      <trkpt lat="49.92465" lon="4.14336">
        <ele>206.4</ele>
        <time>2024-04-01T09:21:50Z</time>
      </trkpt>
      <trkpt lat="49.92467" lon="4.1434">
        <ele>206.6</ele>
        <time>2024-04-01T09:21:51Z</time>
      </trkpt>
      <trkpt lat="49.92469" lon="4.14343">
        <ele>206.6</ele>
        <time>2024-04-01T09:21:52Z</time>
      </trkpt>
      <trkpt lat="49.9247" lon="4.14346">
        <ele>206.6</ele>
        <time>2024-04-01T09:21:53Z</time>
      </trkpt>
      <trkpt lat="49.92473" lon="4.1435">
        <ele>207</ele>
        <time>2024-04-01T09:21:54Z</time>
      </trkpt>
      <trkpt lat="49.92475" lon="4.14354">
        <ele>207.4</ele>
        <time>2024-04-01T09:21:55Z</time>
      </trkpt>
      <trkpt lat="49.92477" lon="4.14358">
        <ele>208</ele>
        <time>2024-04-01T09:21:56Z</time>
      </trkpt>
      <trkpt lat="49.92478" lon="4.14364">
        <ele>208.2</ele>
        <time>2024-04-01T09:21:57Z</time>
      </trkpt>
      <trkpt lat="49.92479" lon="4.14369">
        <ele>208.6</ele>
        <time>2024-04-01T09:21:58Z</time>
      </trkpt>
      <trkpt lat="49.9248" lon="4.14374">
        <ele>208.8</ele>
        <time>2024-04-01T09:21:59Z</time>
      </trkpt>
      <trkpt lat="49.92481" lon="4.14379">
        <ele>208.8</ele>
        <time>2024-04-01T09:22:00Z</time>
      </trkpt>
      <trkpt lat="49.92482" lon="4.14384">
        <ele>209</ele>
        <time>2024-04-01T09:22:01Z</time>
      </trkpt>
      <trkpt lat="49.92483" lon="4.14389">
        <ele>209</ele>
        <time>2024-04-01T09:22:02Z</time>
      </trkpt>
      <trkpt lat="49.92484" lon="4.14394">
        <ele>209.4</ele>
        <time>2024-04-01T09:22:03Z</time>
      </trkpt>
      <trkpt lat="49.92484" lon="4.144">
        <ele>209.8</ele>
        <time>2024-04-01T09:22:04Z</time>
      </trkpt>
      <trkpt lat="49.92485" lon="4.14405">
        <ele>210.2</ele>
        <time>2024-04-01T09:22:05Z</time>
      </trkpt>
      <trkpt lat="49.92487" lon="4.14411">
        <ele>210.4</ele>
        <time>2024-04-01T09:22:06Z</time>
      </trkpt>
      <trkpt lat="49.92488" lon="4.14416">
        <ele>210.8</ele>
        <time>2024-04-01T09:22:07Z</time>
      </trkpt>
      <trkpt lat="49.92489" lon="4.14422">
        <ele>210.8</ele>
        <time>2024-04-01T09:22:08Z</time>
      </trkpt>
      <trkpt lat="49.92491" lon="4.14427">
        <ele>211</ele>
        <time>2024-04-01T09:22:09Z</time>
      </trkpt>
      <trkpt lat="49.92493" lon="4.14432">
        <ele>211.4</ele>
        <time>2024-04-01T09:22:10Z</time>
      </trkpt>
      <trkpt lat="49.92496" lon="4.14436">
        <ele>211.8</ele>
        <time>2024-04-01T09:22:11Z</time>
      </trkpt>
      <trkpt lat="49.92498" lon="4.14441">
        <ele>212</ele>
        <time>2024-04-01T09:22:12Z</time>
      </trkpt>
      <trkpt lat="49.925" lon="4.14445">
        <ele>212.2</ele>
        <time>2024-04-01T09:22:13Z</time>
      </trkpt>
      <trkpt lat="49.92503" lon="4.14449">
        <ele>212.6</ele>
        <time>2024-04-01T09:22:14Z</time>
      </trkpt>
      <trkpt lat="49.92506" lon="4.14453">
        <ele>212.6</ele>
        <time>2024-04-01T09:22:15Z</time>
      </trkpt>
      <trkpt lat="49.92508" lon="4.14457">
        <ele>212.8</ele>
        <time>2024-04-01T09:22:16Z</time>
      </trkpt>
      <trkpt lat="49.92511" lon="4.1446">
        <ele>213.2</ele>
        <time>2024-04-01T09:22:17Z</time>
      </trkpt>
      <trkpt lat="49.92513" lon="4.14464">
        <ele>213.2</ele>
        <time>2024-04-01T09:22:18Z</time>
      </trkpt>
      <trkpt lat="49.92516" lon="4.14468">
        <ele>213.4</ele>
        <time>2024-04-01T09:22:19Z</time>
      </trkpt>
      <trkpt lat="49.92519" lon="4.14471">
        <ele>213.4</ele>
        <time>2024-04-01T09:22:20Z</time>
      </trkpt>
      <trkpt lat="49.92522" lon="4.14475">
        <ele>213.6</ele>
        <time>2024-04-01T09:22:21Z</time>
      </trkpt>
      <trkpt lat="49.92524" lon="4.14478">
        <ele>214</ele>
        <time>2024-04-01T09:22:22Z</time>
      </trkpt>
      <trkpt lat="49.92527" lon="4.14482">
        <ele>214.4</ele>
        <time>2024-04-01T09:22:23Z</time>
      </trkpt>
      <trkpt lat="49.9253" lon="4.14485">
        <ele>214.4</ele>
        <time>2024-04-01T09:22:24Z</time>
      </trkpt>
      <trkpt lat="49.92532" lon="4.14489">
        <ele>214.4</ele>
        <time>2024-04-01T09:22:25Z</time>
      </trkpt>
      <trkpt lat="49.92535" lon="4.14492">
        <ele>215</ele>
        <time>2024-04-01T09:22:26Z</time>
      </trkpt>
      <trkpt lat="49.92538" lon="4.14496">
        <ele>215.2</ele>
        <time>2024-04-01T09:22:27Z</time>
      </trkpt>
      <trkpt lat="49.9254" lon="4.14499">
        <ele>215.4</ele>
        <time>2024-04-01T09:22:28Z</time>
      </trkpt>
      <trkpt lat="49.92543" lon="4.14503">
        <ele>215.4</ele>
        <time>2024-04-01T09:22:29Z</time>
      </trkpt>
      <trkpt lat="49.92545" lon="4.14507">
        <ele>215.6</ele>
        <time>2024-04-01T09:22:30Z</time>
      </trkpt>
      <trkpt lat="49.92548" lon="4.1451">
        <ele>216</ele>
        <time>2024-04-01T09:22:31Z</time>
      </trkpt>
      <trkpt lat="49.92551" lon="4.14514">
        <ele>216.2</ele>
        <time>2024-04-01T09:22:32Z</time>
      </trkpt>
      <trkpt lat="49.92554" lon="4.14517">
        <ele>216.4</ele>
        <time>2024-04-01T09:22:33Z</time>
      </trkpt>
      <trkpt lat="49.92557" lon="4.14521">
        <ele>216.8</ele>
        <time>2024-04-01T09:22:34Z</time>
      </trkpt>
      <trkpt lat="49.9256" lon="4.14525">
        <ele>217</ele>
        <time>2024-04-01T09:22:35Z</time>
      </trkpt>
      <trkpt lat="49.92563" lon="4.14529">
        <ele>217</ele>
        <time>2024-04-01T09:22:36Z</time>
      </trkpt>
      <trkpt lat="49.92565" lon="4.14532">
        <ele>217.6</ele>
        <time>2024-04-01T09:22:37Z</time>
      </trkpt>
      <trkpt lat="49.92568" lon="4.14536">
        <ele>218</ele>
        <time>2024-04-01T09:22:38Z</time>
      </trkpt>
      <trkpt lat="49.92571" lon="4.14539">
        <ele>218</ele>
        <time>2024-04-01T09:22:39Z</time>
      </trkpt>
      <trkpt lat="49.92574" lon="4.14543">
        <ele>218</ele>
        <time>2024-04-01T09:22:40Z</time>
      </trkpt>
      <trkpt lat="49.92577" lon="4.14547">
        <ele>218.2</ele>
        <time>2024-04-01T09:22:41Z</time>
      </trkpt>
      <trkpt lat="49.92579" lon="4.1455">
        <ele>218.4</ele>
        <time>2024-04-01T09:22:42Z</time>
      </trkpt>
      <trkpt lat="49.92582" lon="4.14554">
        <ele>218.4</ele>
        <time>2024-04-01T09:22:43Z</time>
      </trkpt>
      <trkpt lat="49.92585" lon="4.14558">
        <ele>218.6</ele>
        <time>2024-04-01T09:22:44Z</time>
      </trkpt>
      <trkpt lat="49.92588" lon="4.14561">
        <ele>218.6</ele>
        <time>2024-04-01T09:22:45Z</time>
      </trkpt>
      <trkpt lat="49.9259" lon="4.14565">
        <ele>219</ele>
        <time>2024-04-01T09:22:46Z</time>
      </trkpt>
      <trkpt lat="49.92593" lon="4.1457">
        <ele>219</ele>
        <time>2024-04-01T09:22:47Z</time>
      </trkpt>
      <trkpt lat="49.92596" lon="4.14574">
        <ele>219.2</ele>
        <time>2024-04-01T09:22:48Z</time>
      </trkpt>
      <trkpt lat="49.92598" lon="4.14579">
        <ele>219.4</ele>
        <time>2024-04-01T09:22:49Z</time>
      </trkpt>
      <trkpt lat="49.92601" lon="4.14584">
        <ele>219.4</ele>
        <time>2024-04-01T09:22:50Z</time>
      </trkpt>
      <trkpt lat="49.92603" lon="4.14589">
        <ele>219.6</ele>
        <time>2024-04-01T09:22:51Z</time>
      </trkpt>
      <trkpt lat="49.92605" lon="4.14593">
        <ele>219.6</ele>
        <time>2024-04-01T09:22:52Z</time>
      </trkpt>
      <trkpt lat="49.92608" lon="4.14598">
        <ele>219.8</ele>
        <time>2024-04-01T09:22:53Z</time>
      </trkpt>
      <trkpt lat="49.9261" lon="4.14603">
        <ele>220</ele>
        <time>2024-04-01T09:22:54Z</time>
      </trkpt>
      <trkpt lat="49.92612" lon="4.14607">
        <ele>220</ele>
        <time>2024-04-01T09:22:55Z</time>
      </trkpt>
      <trkpt lat="49.92614" lon="4.14612">
        <ele>220.2</ele>
        <time>2024-04-01T09:22:56Z</time>
      </trkpt>
      <trkpt lat="49.92616" lon="4.14617">
        <ele>220.2</ele>
        <time>2024-04-01T09:22:57Z</time>
      </trkpt>
      <trkpt lat="49.92619" lon="4.14621">
        <ele>220</ele>
        <time>2024-04-01T09:22:58Z</time>
      </trkpt>
      <trkpt lat="49.92621" lon="4.14626">
        <ele>220</ele>
        <time>2024-04-01T09:22:59Z</time>
      </trkpt>
      <trkpt lat="49.92624" lon="4.14631">
        <ele>220.2</ele>
        <time>2024-04-01T09:23:00Z</time>
      </trkpt>
      <trkpt lat="49.92626" lon="4.14636">
        <ele>220.2</ele>
        <time>2024-04-01T09:23:01Z</time>
      </trkpt>
      <trkpt lat="49.92629" lon="4.14642">
        <ele>220.4</ele>
        <time>2024-04-01T09:23:02Z</time>
      </trkpt>
      <trkpt lat="49.92632" lon="4.14647">
        <ele>220.4</ele>
        <time>2024-04-01T09:23:03Z</time>
      </trkpt>
      <trkpt lat="49.92634" lon="4.14652">
        <ele>220.4</ele>
        <time>2024-04-01T09:23:04Z</time>
      </trkpt>
      <trkpt lat="49.92637" lon="4.14657">
        <ele>220.6</ele>
        <time>2024-04-01T09:23:05Z</time>
      </trkpt>
      <trkpt lat="49.9264" lon="4.14662">
        <ele>221</ele>
        <time>2024-04-01T09:23:06Z</time>
      </trkpt>
      <trkpt lat="49.92643" lon="4.14668">
        <ele>221.2</ele>
        <time>2024-04-01T09:23:07Z</time>
      </trkpt>
      <trkpt lat="49.92646" lon="4.14673">
        <ele>221.2</ele>
        <time>2024-04-01T09:23:08Z</time>
      </trkpt>
      <trkpt lat="49.92649" lon="4.14679">
        <ele>221.2</ele>
        <time>2024-04-01T09:23:09Z</time>
      </trkpt>
      <trkpt lat="49.92652" lon="4.14684">
        <ele>221.2</ele>
        <time>2024-04-01T09:23:10Z</time>
      </trkpt>
      <trkpt lat="49.92656" lon="4.1469">
        <ele>221.4</ele>
        <time>2024-04-01T09:23:11Z</time>
      </trkpt>
      <trkpt lat="49.9266" lon="4.14695">
        <ele>221.6</ele>
        <time>2024-04-01T09:23:12Z</time>
      </trkpt>
      <trkpt lat="49.92665" lon="4.147">
        <ele>221.6</ele>
        <time>2024-04-01T09:23:13Z</time>
      </trkpt>
      <trkpt lat="49.9267" lon="4.14704">
        <ele>221.8</ele>
        <time>2024-04-01T09:23:14Z</time>
      </trkpt>
      <trkpt lat="49.92675" lon="4.14707">
        <ele>221.8</ele>
        <time>2024-04-01T09:23:15Z</time>
      </trkpt>
      <trkpt lat="49.92679" lon="4.14711">
        <ele>221.8</ele>
        <time>2024-04-01T09:23:16Z</time>
      </trkpt>
      <trkpt lat="49.92684" lon="4.14715">
        <ele>221.8</ele>
        <time>2024-04-01T09:23:17Z</time>
      </trkpt>
      <trkpt lat="49.92688" lon="4.14718">
        <ele>222</ele>
        <time>2024-04-01T09:23:18Z</time>
      </trkpt>
      <trkpt lat="49.92693" lon="4.14722">
        <ele>222</ele>
        <time>2024-04-01T09:23:19Z</time>
      </trkpt>
      <trkpt lat="49.92697" lon="4.14726">
        <ele>222</ele>
        <time>2024-04-01T09:23:20Z</time>
      </trkpt>
      <trkpt lat="49.92702" lon="4.1473">
        <ele>222.2</ele>
        <time>2024-04-01T09:23:21Z</time>
      </trkpt>
      <trkpt lat="49.92706" lon="4.14735">
        <ele>222.2</ele>
        <time>2024-04-01T09:23:22Z</time>
      </trkpt>
      <trkpt lat="49.92711" lon="4.14739">
        <ele>222.6</ele>
        <time>2024-04-01T09:23:23Z</time>
      </trkpt>
      <trkpt lat="49.92715" lon="4.14743">
        <ele>222.8</ele>
        <time>2024-04-01T09:23:24Z</time>
      </trkpt>
      <trkpt lat="49.92719" lon="4.14748">
        <ele>222.8</ele>
        <time>2024-04-01T09:23:25Z</time>
      </trkpt>
      <trkpt lat="49.92724" lon="4.14752">
        <ele>223</ele>
        <time>2024-04-01T09:23:26Z</time>
      </trkpt>
      <trkpt lat="49.92728" lon="4.14756">
        <ele>223.2</ele>
        <time>2024-04-01T09:23:27Z</time>
      </trkpt>
      <trkpt lat="49.92732" lon="4.14761">
        <ele>223.6</ele>
        <time>2024-04-01T09:23:28Z</time>
      </trkpt>
      <trkpt lat="49.92736" lon="4.14765">
        <ele>223.6</ele>
        <time>2024-04-01T09:23:29Z</time>
      </trkpt>
      <trkpt lat="49.92741" lon="4.14769">
        <ele>223.6</ele>
        <time>2024-04-01T09:23:30Z</time>
      </trkpt>
      <trkpt lat="49.92745" lon="4.14774">
        <ele>223.6</ele>
        <time>2024-04-01T09:23:31Z</time>
      </trkpt>
      <trkpt lat="49.9275" lon="4.14778">
        <ele>223.8</ele>
        <time>2024-04-01T09:23:32Z</time>
      </trkpt>
      <trkpt lat="49.92754" lon="4.14783">
        <ele>224</ele>
        <time>2024-04-01T09:23:33Z</time>
      </trkpt>
      <trkpt lat="49.92759" lon="4.14787">
        <ele>224</ele>
        <time>2024-04-01T09:23:34Z</time>
      </trkpt>
      <trkpt lat="49.92763" lon="4.14792">
        <ele>224</ele>
        <time>2024-04-01T09:23:35Z</time>
      </trkpt>
      <trkpt lat="49.92768" lon="4.14796">
        <ele>224.2</ele>
        <time>2024-04-01T09:23:36Z</time>
      </trkpt>
      <trkpt lat="49.92773" lon="4.14801">
        <ele>224.2</ele>
        <time>2024-04-01T09:23:37Z</time>
      </trkpt>
      <trkpt lat="49.92778" lon="4.14805">
        <ele>224.2</ele>
        <time>2024-04-01T09:23:38Z</time>
      </trkpt>
      <trkpt lat="49.92783" lon="4.14809">
        <ele>224.6</ele>
        <time>2024-04-01T09:23:39Z</time>
      </trkpt>
      <trkpt lat="49.92788" lon="4.14812">
        <ele>224.6</ele>
        <time>2024-04-01T09:23:40Z</time>
      </trkpt>
      <trkpt lat="49.92793" lon="4.14816">
        <ele>224.6</ele>
        <time>2024-04-01T09:23:41Z</time>
      </trkpt>
      <trkpt lat="49.92798" lon="4.14819">
        <ele>224.8</ele>
        <time>2024-04-01T09:23:42Z</time>
      </trkpt>
      <trkpt lat="49.92803" lon="4.14822">
        <ele>224.8</ele>
        <time>2024-04-01T09:23:43Z</time>
      </trkpt>
      <trkpt lat="49.92808" lon="4.14825">
        <ele>225.2</ele>
        <time>2024-04-01T09:23:44Z</time>
      </trkpt>
      <trkpt lat="49.92813" lon="4.14828">
        <ele>225</ele>
        <time>2024-04-01T09:23:45Z</time>
      </trkpt>
      <trkpt lat="49.92817" lon="4.14831">
        <ele>225.2</ele>
        <time>2024-04-01T09:23:46Z</time>
      </trkpt>
      <trkpt lat="49.92822" lon="4.14835">
        <ele>225.2</ele>
        <time>2024-04-01T09:23:47Z</time>
      </trkpt>
      <trkpt lat="49.92826" lon="4.14838">
        <ele>225.4</ele>
        <time>2024-04-01T09:23:48Z</time>
      </trkpt>
      <trkpt lat="49.92831" lon="4.14842">
        <ele>225.4</ele>
        <time>2024-04-01T09:23:49Z</time>
      </trkpt>
      <trkpt lat="49.92835" lon="4.14845">
        <ele>225.4</ele>
        <time>2024-04-01T09:23:50Z</time>
      </trkpt>
      <trkpt lat="49.9284" lon="4.14849">
        <ele>225.4</ele>
        <time>2024-04-01T09:23:51Z</time>
      </trkpt>
      <trkpt lat="49.92844" lon="4.14852">
        <ele>225.4</ele>
        <time>2024-04-01T09:23:52Z</time>
      </trkpt>
      <trkpt lat="49.92849" lon="4.14855">
        <ele>225.4</ele>
        <time>2024-04-01T09:23:53Z</time>
      </trkpt>
      <trkpt lat="49.92854" lon="4.14858">
        <ele>225.6</ele>
        <time>2024-04-01T09:23:54Z</time>
      </trkpt>
      <trkpt lat="49.92858" lon="4.14861">
        <ele>225.8</ele>
        <time>2024-04-01T09:23:55Z</time>
      </trkpt>
      <trkpt lat="49.92863" lon="4.14863">
        <ele>226</ele>
        <time>2024-04-01T09:23:56Z</time>
      </trkpt>
      <trkpt lat="49.92868" lon="4.14866">
        <ele>226.2</ele>
        <time>2024-04-01T09:23:57Z</time>
      </trkpt>
      <trkpt lat="49.92873" lon="4.14868">
        <ele>226.4</ele>
        <time>2024-04-01T09:23:58Z</time>
      </trkpt>
      <trkpt lat="49.92878" lon="4.1487">
        <ele>226.4</ele>
        <time>2024-04-01T09:23:59Z</time>
      </trkpt>
      <trkpt lat="49.92883" lon="4.14872">
        <ele>226.4</ele>
        <time>2024-04-01T09:24:00Z</time>
      </trkpt>
      <trkpt lat="49.92888" lon="4.14873">
        <ele>226.6</ele>
        <time>2024-04-01T09:24:01Z</time>
      </trkpt>
      <trkpt lat="49.92893" lon="4.14874">
        <ele>226.6</ele>
        <time>2024-04-01T09:24:02Z</time>
      </trkpt>
      <trkpt lat="49.92898" lon="4.14875">
        <ele>226.8</ele>
        <time>2024-04-01T09:24:03Z</time>
      </trkpt>
      <trkpt lat="49.92903" lon="4.14875">
        <ele>227.2</ele>
        <time>2024-04-01T09:24:04Z</time>
      </trkpt>
      <trkpt lat="49.92907" lon="4.14874">
        <ele>227.2</ele>
        <time>2024-04-01T09:24:05Z</time>
      </trkpt>
      <trkpt lat="49.92912" lon="4.14873">
        <ele>227.4</ele>
        <time>2024-04-01T09:24:06Z</time>
      </trkpt>
      <trkpt lat="49.92917" lon="4.14872">
        <ele>227.4</ele>
        <time>2024-04-01T09:24:07Z</time>
      </trkpt>
      <trkpt lat="49.92922" lon="4.14869">
        <ele>227.8</ele>
        <time>2024-04-01T09:24:08Z</time>
      </trkpt>
      <trkpt lat="49.92926" lon="4.14867">
        <ele>227.8</ele>
        <time>2024-04-01T09:24:09Z</time>
      </trkpt>
      <trkpt lat="49.92931" lon="4.14864">
        <ele>228.4</ele>
        <time>2024-04-01T09:24:10Z</time>
      </trkpt>
      <trkpt lat="49.92935" lon="4.14861">
        <ele>228.4</ele>
        <time>2024-04-01T09:24:11Z</time>
      </trkpt>
      <trkpt lat="49.92939" lon="4.14858">
        <ele>228.6</ele>
        <time>2024-04-01T09:24:12Z</time>
      </trkpt>
      <trkpt lat="49.92944" lon="4.14855">
        <ele>228.8</ele>
        <time>2024-04-01T09:24:13Z</time>
      </trkpt>
      <trkpt lat="49.92948" lon="4.14852">
        <ele>229</ele>
        <time>2024-04-01T09:24:14Z</time>
      </trkpt>
      <trkpt lat="49.92952" lon="4.14849">
        <ele>229.6</ele>
        <time>2024-04-01T09:24:15Z</time>
      </trkpt>
      <trkpt lat="49.92957" lon="4.14846">
        <ele>230</ele>
        <time>2024-04-01T09:24:16Z</time>
      </trkpt>
      <trkpt lat="49.92961" lon="4.14844">
        <ele>230.2</ele>
        <time>2024-04-01T09:24:17Z</time>
      </trkpt>
      <trkpt lat="49.92966" lon="4.14841">
        <ele>230.6</ele>
        <time>2024-04-01T09:24:18Z</time>
      </trkpt>
      <trkpt lat="49.92971" lon="4.14839">
        <ele>230.8</ele>
        <time>2024-04-01T09:24:19Z</time>
      </trkpt>
      <trkpt lat="49.92975" lon="4.14838">
        <ele>231</ele>
        <time>2024-04-01T09:24:20Z</time>
      </trkpt>
      <trkpt lat="49.9298" lon="4.14837">
        <ele>231</ele>
        <time>2024-04-01T09:24:21Z</time>
      </trkpt>
      <trkpt lat="49.92984" lon="4.14836">
        <ele>231</ele>
        <time>2024-04-01T09:24:22Z</time>
      </trkpt>
      <trkpt lat="49.92988" lon="4.14835">
        <ele>231.2</ele>
        <time>2024-04-01T09:24:23Z</time>
      </trkpt>
      <trkpt lat="49.92993" lon="4.14834">
        <ele>231.6</ele>
        <time>2024-04-01T09:24:24Z</time>
      </trkpt>
      <trkpt lat="49.92998" lon="4.14834">
        <ele>231.8</ele>
        <time>2024-04-01T09:24:25Z</time>
      </trkpt>
      <trkpt lat="49.93002" lon="4.14833">
        <ele>232</ele>
        <time>2024-04-01T09:24:26Z</time>
      </trkpt>
      <trkpt lat="49.93007" lon="4.14832">
        <ele>232</ele>
        <time>2024-04-01T09:24:27Z</time>
      </trkpt>
      <trkpt lat="49.93012" lon="4.14831">
        <ele>232</ele>
        <time>2024-04-01T09:24:28Z</time>
      </trkpt>
      <trkpt lat="49.93016" lon="4.1483">
        <ele>232.2</ele>
        <time>2024-04-01T09:24:29Z</time>
      </trkpt>
      <trkpt lat="49.93021" lon="4.14829">
        <ele>232.2</ele>
        <time>2024-04-01T09:24:30Z</time>
      </trkpt>
      <trkpt lat="49.93025" lon="4.14828">
        <ele>232.2</ele>
        <time>2024-04-01T09:24:31Z</time>
      </trkpt>
      <trkpt lat="49.93029" lon="4.14826">
        <ele>232.6</ele>
        <time>2024-04-01T09:24:32Z</time>
      </trkpt>
      <trkpt lat="49.93034" lon="4.14825">
        <ele>232.8</ele>
        <time>2024-04-01T09:24:33Z</time>
      </trkpt>
      <trkpt lat="49.93039" lon="4.14823">
        <ele>233</ele>
        <time>2024-04-01T09:24:34Z</time>
      </trkpt>
      <trkpt lat="49.93043" lon="4.14821">
        <ele>233.2</ele>
        <time>2024-04-01T09:24:35Z</time>
      </trkpt>
      <trkpt lat="49.93047" lon="4.14819">
        <ele>233.2</ele>
        <time>2024-04-01T09:24:36Z</time>
      </trkpt>
      <trkpt lat="49.93052" lon="4.14818">
        <ele>233.4</ele>
        <time>2024-04-01T09:24:37Z</time>
      </trkpt>
      <trkpt lat="49.93056" lon="4.14817">
        <ele>233.6</ele>
        <time>2024-04-01T09:24:38Z</time>
      </trkpt>
      <trkpt lat="49.93061" lon="4.14815">
        <ele>234</ele>
        <time>2024-04-01T09:24:39Z</time>
      </trkpt>
      <trkpt lat="49.93065" lon="4.14814">
        <ele>234.6</ele>
        <time>2024-04-01T09:24:40Z</time>
      </trkpt>
      <trkpt lat="49.9307" lon="4.14814">
        <ele>234.8</ele>
        <time>2024-04-01T09:24:41Z</time>
      </trkpt>
      <trkpt lat="49.93075" lon="4.14814">
        <ele>235</ele>
        <time>2024-04-01T09:24:42Z</time>
      </trkpt>
      <trkpt lat="49.9308" lon="4.14815">
        <ele>235.6</ele>
        <time>2024-04-01T09:24:43Z</time>
      </trkpt>
      <trkpt lat="49.93085" lon="4.14816">
        <ele>236</ele>
        <time>2024-04-01T09:24:44Z</time>
      </trkpt>
      <trkpt lat="49.9309" lon="4.14818">
        <ele>236.4</ele>
        <time>2024-04-01T09:24:45Z</time>
      </trkpt>
      <trkpt lat="49.93095" lon="4.1482">
        <ele>236.8</ele>
        <time>2024-04-01T09:24:46Z</time>
      </trkpt>
      <trkpt lat="49.931" lon="4.14823">
        <ele>237</ele>
        <time>2024-04-01T09:24:47Z</time>
      </trkpt>
      <trkpt lat="49.93105" lon="4.14826">
        <ele>237</ele>
        <time>2024-04-01T09:24:48Z</time>
      </trkpt>
      <trkpt lat="49.9311" lon="4.14828">
        <ele>237.2</ele>
        <time>2024-04-01T09:24:49Z</time>
      </trkpt>
      <trkpt lat="49.93115" lon="4.14831">
        <ele>237.2</ele>
        <time>2024-04-01T09:24:50Z</time>
      </trkpt>
      <trkpt lat="49.9312" lon="4.14834">
        <ele>237.6</ele>
        <time>2024-04-01T09:24:51Z</time>
      </trkpt>
      <trkpt lat="49.93125" lon="4.14837">
        <ele>237.6</ele>
        <time>2024-04-01T09:24:52Z</time>
      </trkpt>
      <trkpt lat="49.93131" lon="4.14839">
        <ele>237.6</ele>
        <time>2024-04-01T09:24:53Z</time>
      </trkpt>
      <trkpt lat="49.93136" lon="4.14841">
        <ele>237.8</ele>
        <time>2024-04-01T09:24:54Z</time>
      </trkpt>
      <trkpt lat="49.93142" lon="4.14843">
        <ele>237.8</ele>
        <time>2024-04-01T09:24:55Z</time>
      </trkpt>
      <trkpt lat="49.93147" lon="4.14845">
        <ele>237.8</ele>
        <time>2024-04-01T09:24:56Z</time>
      </trkpt>
      <trkpt lat="49.93153" lon="4.14846">
        <ele>238</ele>
        <time>2024-04-01T09:24:57Z</time>
      </trkpt>
      <trkpt lat="49.93158" lon="4.14847">
        <ele>238</ele>
        <time>2024-04-01T09:24:58Z</time>
      </trkpt>
      <trkpt lat="49.93164" lon="4.14849">
        <ele>238</ele>
        <time>2024-04-01T09:24:59Z</time>
      </trkpt>
      <trkpt lat="49.9317" lon="4.1485">
        <ele>238</ele>
        <time>2024-04-01T09:25:00Z</time>
      </trkpt>
      <trkpt lat="49.93175" lon="4.14852">
        <ele>238.4</ele>
        <time>2024-04-01T09:25:01Z</time>
      </trkpt>
      <trkpt lat="49.93181" lon="4.14853">
        <ele>238.6</ele>
        <time>2024-04-01T09:25:02Z</time>
      </trkpt>
      <trkpt lat="49.93187" lon="4.14855">
        <ele>238.6</ele>
        <time>2024-04-01T09:25:03Z</time>
      </trkpt>
      <trkpt lat="49.93193" lon="4.14856">
        <ele>238.4</ele>
        <time>2024-04-01T09:25:04Z</time>
      </trkpt>
      <trkpt lat="49.93199" lon="4.14857">
        <ele>238.6</ele>
        <time>2024-04-01T09:25:05Z</time>
      </trkpt>
      <trkpt lat="49.93205" lon="4.14859">
        <ele>238.8</ele>
        <time>2024-04-01T09:25:06Z</time>
      </trkpt>
      <trkpt lat="49.9321" lon="4.14861">
        <ele>238.6</ele>
        <time>2024-04-01T09:25:07Z</time>
      </trkpt>
      <trkpt lat="49.93216" lon="4.14863">
        <ele>238.8</ele>
        <time>2024-04-01T09:25:08Z</time>
      </trkpt>
      <trkpt lat="49.93222" lon="4.14866">
        <ele>238.8</ele>
        <time>2024-04-01T09:25:09Z</time>
      </trkpt>
      <trkpt lat="49.93227" lon="4.14871">
        <ele>238.6</ele>
        <time>2024-04-01T09:25:10Z</time>
      </trkpt>
      <trkpt lat="49.93231" lon="4.14876">
        <ele>238.8</ele>
        <time>2024-04-01T09:25:11Z</time>
      </trkpt>
      <trkpt lat="49.93235" lon="4.14883">
        <ele>238.8</ele>
        <time>2024-04-01T09:25:12Z</time>
      </trkpt>
      <trkpt lat="49.93238" lon="4.1489">
        <ele>238.8</ele>
        <time>2024-04-01T09:25:13Z</time>
      </trkpt>
      <trkpt lat="49.93241" lon="4.14898">
        <ele>238.8</ele>
        <time>2024-04-01T09:25:14Z</time>
      </trkpt>
      <trkpt lat="49.93243" lon="4.14906">
        <ele>238.8</ele>
        <time>2024-04-01T09:25:15Z</time>
      </trkpt>
      <trkpt lat="49.93245" lon="4.14914">
        <ele>238.8</ele>
        <time>2024-04-01T09:25:16Z</time>
      </trkpt>
      <trkpt lat="49.93247" lon="4.14922">
        <ele>238.6</ele>
        <time>2024-04-01T09:25:17Z</time>
      </trkpt>
      <trkpt lat="49.93248" lon="4.1493">
        <ele>238.6</ele>
        <time>2024-04-01T09:25:18Z</time>
      </trkpt>
      <trkpt lat="49.9325" lon="4.14939">
        <ele>238.6</ele>
        <time>2024-04-01T09:25:19Z</time>
      </trkpt>
      <trkpt lat="49.93252" lon="4.14947">
        <ele>238.6</ele>
        <time>2024-04-01T09:25:20Z</time>
      </trkpt>
      <trkpt lat="49.93254" lon="4.14955">
        <ele>238.6</ele>
        <time>2024-04-01T09:25:21Z</time>
      </trkpt>
      <trkpt lat="49.93256" lon="4.14964">
        <ele>238.8</ele>
        <time>2024-04-01T09:25:22Z</time>
      </trkpt>
      <trkpt lat="49.93259" lon="4.14973">
        <ele>238.8</ele>
        <time>2024-04-01T09:25:23Z</time>
      </trkpt>
      <trkpt lat="49.93261" lon="4.14982">
        <ele>239</ele>
        <time>2024-04-01T09:25:24Z</time>
      </trkpt>
      <trkpt lat="49.93264" lon="4.14991">
        <ele>239</ele>
        <time>2024-04-01T09:25:25Z</time>
      </trkpt>
      <trkpt lat="49.93266" lon="4.15">
        <ele>239</ele>
        <time>2024-04-01T09:25:26Z</time>
      </trkpt>
      <trkpt lat="49.93269" lon="4.1501">
        <ele>238.8</ele>
        <time>2024-04-01T09:25:27Z</time>
      </trkpt>
      <trkpt lat="49.93272" lon="4.15019">
        <ele>238.6</ele>
        <time>2024-04-01T09:25:28Z</time>
      </trkpt>
      <trkpt lat="49.93274" lon="4.15029">
        <ele>238.6</ele>
        <time>2024-04-01T09:25:29Z</time>
      </trkpt>
      <trkpt lat="49.93277" lon="4.15039">
        <ele>238.6</ele>
        <time>2024-04-01T09:25:30Z</time>
      </trkpt>
      <trkpt lat="49.93281" lon="4.15048">
        <ele>238.4</ele>
        <time>2024-04-01T09:25:31Z</time>
      </trkpt>
      <trkpt lat="49.93284" lon="4.15058">
        <ele>238.2</ele>
        <time>2024-04-01T09:25:32Z</time>
      </trkpt>
      <trkpt lat="49.93289" lon="4.15067">
        <ele>238.2</ele>
        <time>2024-04-01T09:25:33Z</time>
      </trkpt>
      <trkpt lat="49.93293" lon="4.15076">
        <ele>238.4</ele>
        <time>2024-04-01T09:25:34Z</time>
      </trkpt>
      <trkpt lat="49.93299" lon="4.15083">
        <ele>238.4</ele>
        <time>2024-04-01T09:25:35Z</time>
      </trkpt>
      <trkpt lat="49.93305" lon="4.1509">
        <ele>238.4</ele>
        <time>2024-04-01T09:25:36Z</time>
      </trkpt>
      <trkpt lat="49.93311" lon="4.15095">
        <ele>238.4</ele>
        <time>2024-04-01T09:25:37Z</time>
      </trkpt>
      <trkpt lat="49.93317" lon="4.151">
        <ele>238.2</ele>
        <time>2024-04-01T09:25:38Z</time>
      </trkpt>
      <trkpt lat="49.93323" lon="4.15105">
        <ele>238.2</ele>
        <time>2024-04-01T09:25:39Z</time>
      </trkpt>
      <trkpt lat="49.93328" lon="4.1511">
        <ele>238.2</ele>
        <time>2024-04-01T09:25:40Z</time>
      </trkpt>
      <trkpt lat="49.93334" lon="4.15114">
        <ele>238.2</ele>
        <time>2024-04-01T09:25:41Z</time>
      </trkpt>
      <trkpt lat="49.9334" lon="4.15118">
        <ele>238.4</ele>
        <time>2024-04-01T09:25:42Z</time>
      </trkpt>
      <trkpt lat="49.93345" lon="4.15122">
        <ele>238.2</ele>
        <time>2024-04-01T09:25:43Z</time>
      </trkpt>
      <trkpt lat="49.93351" lon="4.15127">
        <ele>238.2</ele>
        <time>2024-04-01T09:25:44Z</time>
      </trkpt>
      <trkpt lat="49.93356" lon="4.15132">
        <ele>238.2</ele>
        <time>2024-04-01T09:25:45Z</time>
      </trkpt>
      <trkpt lat="49.93362" lon="4.15136">
        <ele>238.2</ele>
        <time>2024-04-01T09:25:46Z</time>
      </trkpt>
      <trkpt lat="49.93368" lon="4.1514">
        <ele>238.4</ele>
        <time>2024-04-01T09:25:47Z</time>
      </trkpt>
      <trkpt lat="49.93373" lon="4.15145">
        <ele>238.4</ele>
        <time>2024-04-01T09:25:48Z</time>
      </trkpt>
      <trkpt lat="49.93379" lon="4.15149">
        <ele>238.6</ele>
        <time>2024-04-01T09:25:49Z</time>
      </trkpt>
      <trkpt lat="49.93384" lon="4.15154">
        <ele>238.4</ele>
        <time>2024-04-01T09:25:50Z</time>
      </trkpt>
      <trkpt lat="49.9339" lon="4.15158">
        <ele>238.8</ele>
        <time>2024-04-01T09:25:51Z</time>
      </trkpt>
      <trkpt lat="49.93395" lon="4.15162">
        <ele>238.8</ele>
        <time>2024-04-01T09:25:52Z</time>
      </trkpt>
      <trkpt lat="49.93401" lon="4.15166">
        <ele>239</ele>
        <time>2024-04-01T09:25:53Z</time>
      </trkpt>
      <trkpt lat="49.93406" lon="4.1517">
        <ele>239</ele>
        <time>2024-04-01T09:25:54Z</time>
      </trkpt>
      <trkpt lat="49.93411" lon="4.15174">
        <ele>239.4</ele>
        <time>2024-04-01T09:25:55Z</time>
      </trkpt>
      <trkpt lat="49.93416" lon="4.15177">
        <ele>239.6</ele>
        <time>2024-04-01T09:25:56Z</time>
      </trkpt>
      <trkpt lat="49.93421" lon="4.15181">
        <ele>239.6</ele>
        <time>2024-04-01T09:25:57Z</time>
      </trkpt>
      <trkpt lat="49.93426" lon="4.15185">
        <ele>239.8</ele>
        <time>2024-04-01T09:25:58Z</time>
      </trkpt>
      <trkpt lat="49.93432" lon="4.1519">
        <ele>239.8</ele>
        <time>2024-04-01T09:25:59Z</time>
      </trkpt>
      <trkpt lat="49.93436" lon="4.15194">
        <ele>240</ele>
        <time>2024-04-01T09:26:00Z</time>
      </trkpt>
      <trkpt lat="49.93442" lon="4.15199">
        <ele>240.2</ele>
        <time>2024-04-01T09:26:01Z</time>
      </trkpt>
      <trkpt lat="49.93447" lon="4.15203">
        <ele>240.2</ele>
        <time>2024-04-01T09:26:02Z</time>
      </trkpt>
      <trkpt lat="49.93452" lon="4.15207">
        <ele>240.4</ele>
        <time>2024-04-01T09:26:03Z</time>
      </trkpt>
      <trkpt lat="49.93457" lon="4.15211">
        <ele>240.2</ele>
        <time>2024-04-01T09:26:04Z</time>
      </trkpt>
      <trkpt lat="49.93462" lon="4.15215">
        <ele>240.6</ele>
        <time>2024-04-01T09:26:05Z</time>
      </trkpt>
      <trkpt lat="49.93467" lon="4.15219">
        <ele>240.8</ele>
        <time>2024-04-01T09:26:06Z</time>
      </trkpt>
      <trkpt lat="49.93472" lon="4.15224">
        <ele>240.8</ele>
        <time>2024-04-01T09:26:07Z</time>
      </trkpt>
      <trkpt lat="49.93477" lon="4.15228">
        <ele>240.8</ele>
        <time>2024-04-01T09:26:08Z</time>
      </trkpt>
      <trkpt lat="49.93481" lon="4.15232">
        <ele>240.8</ele>
        <time>2024-04-01T09:26:09Z</time>
      </trkpt>
      <trkpt lat="49.93486" lon="4.15237">
        <ele>241</ele>
        <time>2024-04-01T09:26:10Z</time>
      </trkpt>
      <trkpt lat="49.93491" lon="4.15241">
        <ele>241</ele>
        <time>2024-04-01T09:26:11Z</time>
      </trkpt>
      <trkpt lat="49.93496" lon="4.15246">
        <ele>241.4</ele>
        <time>2024-04-01T09:26:12Z</time>
      </trkpt>
      <trkpt lat="49.93501" lon="4.1525">
        <ele>241.6</ele>
        <time>2024-04-01T09:26:13Z</time>
      </trkpt>
      <trkpt lat="49.93506" lon="4.15254">
        <ele>241.8</ele>
        <time>2024-04-01T09:26:14Z</time>
      </trkpt>
      <trkpt lat="49.9351" lon="4.15259">
        <ele>242.2</ele>
        <time>2024-04-01T09:26:15Z</time>
      </trkpt>
      <trkpt lat="49.93515" lon="4.15263">
        <ele>242.2</ele>
        <time>2024-04-01T09:26:16Z</time>
      </trkpt>
      <trkpt lat="49.9352" lon="4.15267">
        <ele>242.4</ele>
        <time>2024-04-01T09:26:17Z</time>
      </trkpt>
      <trkpt lat="49.93525" lon="4.15271">
        <ele>242.4</ele>
        <time>2024-04-01T09:26:18Z</time>
      </trkpt>
      <trkpt lat="49.93529" lon="4.15275">
        <ele>242.6</ele>
        <time>2024-04-01T09:26:19Z</time>
      </trkpt>
      <trkpt lat="49.93534" lon="4.15279">
        <ele>242.8</ele>
        <time>2024-04-01T09:26:20Z</time>
      </trkpt>
      <trkpt lat="49.93539" lon="4.15283">
        <ele>242.8</ele>
        <time>2024-04-01T09:26:21Z</time>
      </trkpt>
      <trkpt lat="49.93544" lon="4.15288">
        <ele>242.8</ele>
        <time>2024-04-01T09:26:22Z</time>
      </trkpt>
      <trkpt lat="49.93549" lon="4.15292">
        <ele>243</ele>
        <time>2024-04-01T09:26:23Z</time>
      </trkpt>
      <trkpt lat="49.93554" lon="4.15297">
        <ele>243</ele>
        <time>2024-04-01T09:26:24Z</time>
      </trkpt>
      <trkpt lat="49.93559" lon="4.15301">
        <ele>243.2</ele>
        <time>2024-04-01T09:26:25Z</time>
      </trkpt>
      <trkpt lat="49.93565" lon="4.15305">
        <ele>243.2</ele>
        <time>2024-04-01T09:26:26Z</time>
      </trkpt>
      <trkpt lat="49.9357" lon="4.15309">
        <ele>243.6</ele>
        <time>2024-04-01T09:26:27Z</time>
      </trkpt>
      <trkpt lat="49.93576" lon="4.15314">
        <ele>243.8</ele>
        <time>2024-04-01T09:26:28Z</time>
      </trkpt>
      <trkpt lat="49.93581" lon="4.15318">
        <ele>243.6</ele>
        <time>2024-04-01T09:26:29Z</time>
      </trkpt>
      <trkpt lat="49.93587" lon="4.15322">
        <ele>243.8</ele>
        <time>2024-04-01T09:26:30Z</time>
      </trkpt>
      <trkpt lat="49.93593" lon="4.15326">
        <ele>243.8</ele>
        <time>2024-04-01T09:26:31Z</time>
      </trkpt>
      <trkpt lat="49.93598" lon="4.15329">
        <ele>243.8</ele>
        <time>2024-04-01T09:26:32Z</time>
      </trkpt>
      <trkpt lat="49.93604" lon="4.15333">
        <ele>244</ele>
        <time>2024-04-01T09:26:33Z</time>
      </trkpt>
      <trkpt lat="49.9361" lon="4.15336">
        <ele>244</ele>
        <time>2024-04-01T09:26:34Z</time>
      </trkpt>
      <trkpt lat="49.93616" lon="4.15339">
        <ele>244</ele>
        <time>2024-04-01T09:26:35Z</time>
      </trkpt>
      <trkpt lat="49.93622" lon="4.15343">
        <ele>244</ele>
        <time>2024-04-01T09:26:36Z</time>
      </trkpt>
      <trkpt lat="49.93627" lon="4.15346">
        <ele>244</ele>
        <time>2024-04-01T09:26:37Z</time>
      </trkpt>
      <trkpt lat="49.93632" lon="4.15349">
        <ele>244.2</ele>
        <time>2024-04-01T09:26:38Z</time>
      </trkpt>
      <trkpt lat="49.93638" lon="4.15352">
        <ele>244.2</ele>
        <time>2024-04-01T09:26:39Z</time>
      </trkpt>
      <trkpt lat="49.93643" lon="4.15355">
        <ele>244.4</ele>
        <time>2024-04-01T09:26:40Z</time>
      </trkpt>
      <trkpt lat="49.93648" lon="4.15357">
        <ele>244.4</ele>
        <time>2024-04-01T09:26:41Z</time>
      </trkpt>
      <trkpt lat="49.93653" lon="4.1536">
        <ele>244.6</ele>
        <time>2024-04-01T09:26:42Z</time>
      </trkpt>
      <trkpt lat="49.93658" lon="4.15362">
        <ele>244.4</ele>
        <time>2024-04-01T09:26:43Z</time>
      </trkpt>
      <trkpt lat="49.93663" lon="4.15364">
        <ele>244.6</ele>
        <time>2024-04-01T09:26:44Z</time>
      </trkpt>
      <trkpt lat="49.93667" lon="4.15366">
        <ele>244.6</ele>
        <time>2024-04-01T09:26:45Z</time>
      </trkpt>
      <trkpt lat="49.93672" lon="4.15368">
        <ele>244.8</ele>
        <time>2024-04-01T09:26:46Z</time>
      </trkpt>
      <trkpt lat="49.93677" lon="4.15371">
        <ele>244.8</ele>
        <time>2024-04-01T09:26:47Z</time>
      </trkpt>
      <trkpt lat="49.93682" lon="4.15373">
        <ele>245</ele>
        <time>2024-04-01T09:26:48Z</time>
      </trkpt>
      <trkpt lat="49.93686" lon="4.15375">
        <ele>245</ele>
        <time>2024-04-01T09:26:49Z</time>
      </trkpt>
      <trkpt lat="49.93691" lon="4.15377">
        <ele>245.4</ele>
        <time>2024-04-01T09:26:50Z</time>
      </trkpt>
      <trkpt lat="49.93695" lon="4.15379">
        <ele>245.2</ele>
        <time>2024-04-01T09:26:51Z</time>
      </trkpt>
      <trkpt lat="49.93699" lon="4.15381">
        <ele>245.4</ele>
        <time>2024-04-01T09:26:52Z</time>
      </trkpt>
      <trkpt lat="49.93703" lon="4.15382">
        <ele>245.6</ele>
        <time>2024-04-01T09:26:53Z</time>
      </trkpt>
      <trkpt lat="49.93707" lon="4.15385">
        <ele>245.8</ele>
        <time>2024-04-01T09:26:54Z</time>
      </trkpt>
      <trkpt lat="49.93712" lon="4.15387">
        <ele>245.8</ele>
        <time>2024-04-01T09:26:55Z</time>
      </trkpt>
      <trkpt lat="49.93717" lon="4.15389">
        <ele>245.8</ele>
        <time>2024-04-01T09:26:56Z</time>
      </trkpt>
      <trkpt lat="49.93721" lon="4.15391">
        <ele>246</ele>
        <time>2024-04-01T09:26:57Z</time>
      </trkpt>
      <trkpt lat="49.93725" lon="4.15394">
        <ele>246.2</ele>
        <time>2024-04-01T09:26:58Z</time>
      </trkpt>
      <trkpt lat="49.93729" lon="4.15395">
        <ele>246.4</ele>
        <time>2024-04-01T09:26:59Z</time>
      </trkpt>
      <trkpt lat="49.93733" lon="4.15397">
        <ele>246.4</ele>
        <time>2024-04-01T09:27:00Z</time>
      </trkpt>
      <trkpt lat="49.93738" lon="4.154">
        <ele>246.4</ele>
        <time>2024-04-01T09:27:01Z</time>
      </trkpt>
      <trkpt lat="49.93742" lon="4.15401">
        <ele>246.4</ele>
        <time>2024-04-01T09:27:02Z</time>
      </trkpt>
      <trkpt lat="49.93747" lon="4.15403">
        <ele>246.6</ele>
        <time>2024-04-01T09:27:03Z</time>
      </trkpt>
      <trkpt lat="49.93751" lon="4.15405">
        <ele>247</ele>
        <time>2024-04-01T09:27:04Z</time>
      </trkpt>
      <trkpt lat="49.93756" lon="4.15407">
        <ele>247.2</ele>
        <time>2024-04-01T09:27:05Z</time>
      </trkpt>
      <trkpt lat="49.9376" lon="4.15409">
        <ele>247.4</ele>
        <time>2024-04-01T09:27:06Z</time>
      </trkpt>
      <trkpt lat="49.93764" lon="4.15411">
        <ele>247.4</ele>
        <time>2024-04-01T09:27:07Z</time>
      </trkpt>
      <trkpt lat="49.93769" lon="4.15413">
        <ele>247.6</ele>
        <time>2024-04-01T09:27:08Z</time>
      </trkpt>
      <trkpt lat="49.93774" lon="4.15415">
        <ele>247.4</ele>
        <time>2024-04-01T09:27:09Z</time>
      </trkpt>
      <trkpt lat="49.93778" lon="4.15416">
        <ele>247.6</ele>
        <time>2024-04-01T09:27:10Z</time>
      </trkpt>
      <trkpt lat="49.93782" lon="4.15418">
        <ele>247.6</ele>
        <time>2024-04-01T09:27:11Z</time>
      </trkpt>
      <trkpt lat="49.93787" lon="4.1542">
        <ele>247.8</ele>
        <time>2024-04-01T09:27:12Z</time>
      </trkpt>
      <trkpt lat="49.93792" lon="4.15422">
        <ele>248</ele>
        <time>2024-04-01T09:27:13Z</time>
      </trkpt>
      <trkpt lat="49.93796" lon="4.15424">
        <ele>248.2</ele>
        <time>2024-04-01T09:27:14Z</time>
      </trkpt>
      <trkpt lat="49.93801" lon="4.15426">
        <ele>248.4</ele>
        <time>2024-04-01T09:27:15Z</time>
      </trkpt>
      <trkpt lat="49.93806" lon="4.15429">
        <ele>248.4</ele>
        <time>2024-04-01T09:27:16Z</time>
      </trkpt>
      <trkpt lat="49.93811" lon="4.15431">
        <ele>248.6</ele>
        <time>2024-04-01T09:27:17Z</time>
      </trkpt>
      <trkpt lat="49.93816" lon="4.15433">
        <ele>248.6</ele>
        <time>2024-04-01T09:27:18Z</time>
      </trkpt>
      <trkpt lat="49.93821" lon="4.15435">
        <ele>248.8</ele>
        <time>2024-04-01T09:27:19Z</time>
      </trkpt>
      <trkpt lat="49.93826" lon="4.15437">
        <ele>248.8</ele>
        <time>2024-04-01T09:27:20Z</time>
      </trkpt>
      <trkpt lat="49.93831" lon="4.15439">
        <ele>249.2</ele>
        <time>2024-04-01T09:27:21Z</time>
      </trkpt>
      <trkpt lat="49.93836" lon="4.15441">
        <ele>249.4</ele>
        <time>2024-04-01T09:27:22Z</time>
      </trkpt>
      <trkpt lat="49.93841" lon="4.15443">
        <ele>249.4</ele>
        <time>2024-04-01T09:27:23Z</time>
      </trkpt>
      <trkpt lat="49.93845" lon="4.15445">
        <ele>249.4</ele>
        <time>2024-04-01T09:27:24Z</time>
      </trkpt>
      <trkpt lat="49.93849" lon="4.15447">
        <ele>249.6</ele>
        <time>2024-04-01T09:27:25Z</time>
      </trkpt>
      <trkpt lat="49.93854" lon="4.15449">
        <ele>249.8</ele>
        <time>2024-04-01T09:27:26Z</time>
      </trkpt>
      <trkpt lat="49.93858" lon="4.15452">
        <ele>249.8</ele>
        <time>2024-04-01T09:27:27Z</time>
      </trkpt>
      <trkpt lat="49.93861" lon="4.15454">
        <ele>249.8</ele>
        <time>2024-04-01T09:27:28Z</time>
      </trkpt>
      <trkpt lat="49.93863" lon="4.15456">
        <ele>249.8</ele>
        <time>2024-04-01T09:27:29Z</time>
      </trkpt>
      <trkpt lat="49.93865" lon="4.15459">
        <ele>250</ele>
        <time>2024-04-01T09:27:30Z</time>
      </trkpt>
      <trkpt lat="49.93867" lon="4.15462">
        <ele>250</ele>
        <time>2024-04-01T09:27:31Z</time>
      </trkpt>
      <trkpt lat="49.9387" lon="4.15464">
        <ele>250.2</ele>
        <time>2024-04-01T09:27:32Z</time>
      </trkpt>
      <trkpt lat="49.93872" lon="4.15465">
        <ele>250.2</ele>
        <time>2024-04-01T09:27:33Z</time>
      </trkpt>
      <trkpt lat="49.93873" lon="4.15465">
        <ele>250.4</ele>
        <time>2024-04-01T09:27:34Z</time>
      </trkpt>
      <trkpt lat="49.93875" lon="4.15466">
        <ele>250.6</ele>
        <time>2024-04-01T09:27:35Z</time>
      </trkpt>
      <trkpt lat="49.93876" lon="4.15467">
        <ele>250.8</ele>
        <time>2024-04-01T09:27:36Z</time>
      </trkpt>
      <trkpt lat="49.93878" lon="4.15468">
        <ele>251</ele>
        <time>2024-04-01T09:27:37Z</time>
      </trkpt>
      <trkpt lat="49.93884" lon="4.15478">
        <ele>252.2</ele>
        <time>2024-04-01T09:28:25Z</time>
      </trkpt>
      <trkpt lat="49.93885" lon="4.15481">
        <ele>252.2</ele>
        <time>2024-04-01T09:28:26Z</time>
      </trkpt>
      <trkpt lat="49.93886" lon="4.15485">
        <ele>252.2</ele>
        <time>2024-04-01T09:28:27Z</time>
      </trkpt>
      <trkpt lat="49.93887" lon="4.15489">
        <ele>252.2</ele>
        <time>2024-04-01T09:28:28Z</time>
      </trkpt>
      <trkpt lat="49.93888" lon="4.15493">
        <ele>252</ele>
        <time>2024-04-01T09:28:29Z</time>
      </trkpt>
      <trkpt lat="49.93889" lon="4.15498">
        <ele>252</ele>
        <time>2024-04-01T09:28:30Z</time>
      </trkpt>
      <trkpt lat="49.9389" lon="4.15503">
        <ele>252.2</ele>
        <time>2024-04-01T09:28:31Z</time>
      </trkpt>
      <trkpt lat="49.93891" lon="4.15509">
        <ele>252</ele>
        <time>2024-04-01T09:28:32Z</time>
      </trkpt>
      <trkpt lat="49.93892" lon="4.15515">
        <ele>252.2</ele>
        <time>2024-04-01T09:28:33Z</time>
      </trkpt>
      <trkpt lat="49.93893" lon="4.15522">
        <ele>252</ele>
        <time>2024-04-01T09:28:34Z</time>
      </trkpt>
      <trkpt lat="49.93893" lon="4.15529">
        <ele>252.2</ele>
        <time>2024-04-01T09:28:35Z</time>
      </trkpt>
      <trkpt lat="49.93894" lon="4.15535">
        <ele>252.2</ele>
        <time>2024-04-01T09:28:36Z</time>
      </trkpt>
      <trkpt lat="49.93895" lon="4.15543">
        <ele>252</ele>
        <time>2024-04-01T09:28:37Z</time>
      </trkpt>
      <trkpt lat="49.93896" lon="4.15552">
        <ele>252</ele>
        <time>2024-04-01T09:28:38Z</time>
      </trkpt>
      <trkpt lat="49.93898" lon="4.1556">
        <ele>252</ele>
        <time>2024-04-01T09:28:39Z</time>
      </trkpt>
      <trkpt lat="49.93899" lon="4.15568">
        <ele>252</ele>
        <time>2024-04-01T09:28:40Z</time>
      </trkpt>
      <trkpt lat="49.939" lon="4.15576">
        <ele>252</ele>
        <time>2024-04-01T09:28:41Z</time>
      </trkpt>
      <trkpt lat="49.93901" lon="4.15585">
        <ele>252</ele>
        <time>2024-04-01T09:28:42Z</time>
      </trkpt>
      <trkpt lat="49.93901" lon="4.15595">
        <ele>252</ele>
        <time>2024-04-01T09:28:43Z</time>
      </trkpt>
      <trkpt lat="49.93903" lon="4.15604">
        <ele>252</ele>
        <time>2024-04-01T09:28:44Z</time>
      </trkpt>
      <trkpt lat="49.93904" lon="4.15614">
        <ele>251.8</ele>
        <time>2024-04-01T09:28:45Z</time>
      </trkpt>
      <trkpt lat="49.93905" lon="4.15623">
        <ele>251.8</ele>
        <time>2024-04-01T09:28:46Z</time>
      </trkpt>
      <trkpt lat="49.93906" lon="4.15633">
        <ele>251.4</ele>
        <time>2024-04-01T09:28:47Z</time>
      </trkpt>
      <trkpt lat="49.93907" lon="4.15643">
        <ele>251.2</ele>
        <time>2024-04-01T09:28:48Z</time>
      </trkpt>
      <trkpt lat="49.93908" lon="4.15653">
        <ele>250.8</ele>
        <time>2024-04-01T09:28:49Z</time>
      </trkpt>
      <trkpt lat="49.9391" lon="4.15663">
        <ele>250.6</ele>
        <time>2024-04-01T09:28:50Z</time>
      </trkpt>
      <trkpt lat="49.93911" lon="4.15673">
        <ele>250.4</ele>
        <time>2024-04-01T09:28:51Z</time>
      </trkpt>
      <trkpt lat="49.93912" lon="4.15683">
        <ele>250.2</ele>
        <time>2024-04-01T09:28:52Z</time>
      </trkpt>
      <trkpt lat="49.93913" lon="4.15694">
        <ele>250</ele>
        <time>2024-04-01T09:28:53Z</time>
      </trkpt>
      <trkpt lat="49.93915" lon="4.15704">
        <ele>249.8</ele>
        <time>2024-04-01T09:28:54Z</time>
      </trkpt>
      <trkpt lat="49.93916" lon="4.15715">
        <ele>249.6</ele>
        <time>2024-04-01T09:28:55Z</time>
      </trkpt>
      <trkpt lat="49.93917" lon="4.15726">
        <ele>249.6</ele>
        <time>2024-04-01T09:28:56Z</time>
      </trkpt>
      <trkpt lat="49.93919" lon="4.15736">
        <ele>249.6</ele>
        <time>2024-04-01T09:28:57Z</time>
      </trkpt>
      <trkpt lat="49.9392" lon="4.15747">
        <ele>249.6</ele>
        <time>2024-04-01T09:28:58Z</time>
      </trkpt>
      <trkpt lat="49.93921" lon="4.15756">
        <ele>249.6</ele>
        <time>2024-04-01T09:28:59Z</time>
      </trkpt>
      <trkpt lat="49.93922" lon="4.15766">
        <ele>249.6</ele>
        <time>2024-04-01T09:29:00Z</time>
      </trkpt>
      <trkpt lat="49.93923" lon="4.15775">
        <ele>249.6</ele>
        <time>2024-04-01T09:29:01Z</time>
      </trkpt>
      <trkpt lat="49.93924" lon="4.15784">
        <ele>249.6</ele>
        <time>2024-04-01T09:29:02Z</time>
      </trkpt>
      <trkpt lat="49.93925" lon="4.15793">
        <ele>249.6</ele>
        <time>2024-04-01T09:29:03Z</time>
      </trkpt>
      <trkpt lat="49.93926" lon="4.15803">
        <ele>250</ele>
        <time>2024-04-01T09:29:04Z</time>
      </trkpt>
      <trkpt lat="49.93927" lon="4.15812">
        <ele>250.2</ele>
        <time>2024-04-01T09:29:05Z</time>
      </trkpt>
      <trkpt lat="49.93927" lon="4.15821">
        <ele>250.4</ele>
        <time>2024-04-01T09:29:06Z</time>
      </trkpt>
      <trkpt lat="49.93928" lon="4.1583">
        <ele>250.4</ele>
        <time>2024-04-01T09:29:07Z</time>
      </trkpt>
      <trkpt lat="49.93929" lon="4.15839">
        <ele>250.8</ele>
        <time>2024-04-01T09:29:08Z</time>
      </trkpt>
      <trkpt lat="49.9393" lon="4.15848">
        <ele>251</ele>
        <time>2024-04-01T09:29:09Z</time>
      </trkpt>
      <trkpt lat="49.93931" lon="4.15857">
        <ele>251.2</ele>
        <time>2024-04-01T09:29:10Z</time>
      </trkpt>
      <trkpt lat="49.93932" lon="4.15866">
        <ele>251.6</ele>
        <time>2024-04-01T09:29:11Z</time>
      </trkpt>
      <trkpt lat="49.93933" lon="4.15875">
        <ele>251.6</ele>
        <time>2024-04-01T09:29:12Z</time>
      </trkpt>
      <trkpt lat="49.93933" lon="4.15883">
        <ele>252</ele>
        <time>2024-04-01T09:29:13Z</time>
      </trkpt>
      <trkpt lat="49.93934" lon="4.15892">
        <ele>252.4</ele>
        <time>2024-04-01T09:29:14Z</time>
      </trkpt>
      <trkpt lat="49.93934" lon="4.15901">
        <ele>252.6</ele>
        <time>2024-04-01T09:29:15Z</time>
      </trkpt>
      <trkpt lat="49.93935" lon="4.15909">
        <ele>252.6</ele>
        <time>2024-04-01T09:29:16Z</time>
      </trkpt>
      <trkpt lat="49.93935" lon="4.15918">
        <ele>252.8</ele>
        <time>2024-04-01T09:29:17Z</time>
      </trkpt>
      <trkpt lat="49.93936" lon="4.15926">
        <ele>252.8</ele>
        <time>2024-04-01T09:29:18Z</time>
      </trkpt>
      <trkpt lat="49.93937" lon="4.15935">
        <ele>253</ele>
        <time>2024-04-01T09:29:19Z</time>
      </trkpt>
      <trkpt lat="49.93937" lon="4.15943">
        <ele>252.8</ele>
        <time>2024-04-01T09:29:20Z</time>
      </trkpt>
      <trkpt lat="49.93938" lon="4.15952">
        <ele>253.2</ele>
        <time>2024-04-01T09:29:21Z</time>
      </trkpt>
      <trkpt lat="49.93938" lon="4.15962">
        <ele>253.2</ele>
        <time>2024-04-01T09:29:22Z</time>
      </trkpt>
      <trkpt lat="49.93938" lon="4.15971">
        <ele>253.2</ele>
        <time>2024-04-01T09:29:23Z</time>
      </trkpt>
      <trkpt lat="49.93939" lon="4.15981">
        <ele>253</ele>
        <time>2024-04-01T09:29:24Z</time>
      </trkpt>
      <trkpt lat="49.93939" lon="4.15991">
        <ele>253.2</ele>
        <time>2024-04-01T09:29:25Z</time>
      </trkpt>
      <trkpt lat="49.9394" lon="4.16001">
        <ele>253</ele>
        <time>2024-04-01T09:29:26Z</time>
      </trkpt>
      <trkpt lat="49.93942" lon="4.16011">
        <ele>253</ele>
        <time>2024-04-01T09:29:27Z</time>
      </trkpt>
      <trkpt lat="49.93942" lon="4.16022">
        <ele>253</ele>
        <time>2024-04-01T09:29:28Z</time>
      </trkpt>
      <trkpt lat="49.93943" lon="4.16034">
        <ele>253</ele>
        <time>2024-04-01T09:29:29Z</time>
      </trkpt>
      <trkpt lat="49.93944" lon="4.16046">
        <ele>253</ele>
        <time>2024-04-01T09:29:30Z</time>
      </trkpt>
      <trkpt lat="49.93944" lon="4.16057">
        <ele>253</ele>
        <time>2024-04-01T09:29:31Z</time>
      </trkpt>
      <trkpt lat="49.93945" lon="4.16069">
        <ele>252.8</ele>
        <time>2024-04-01T09:29:32Z</time>
      </trkpt>
      <trkpt lat="49.93945" lon="4.16081">
        <ele>252.6</ele>
        <time>2024-04-01T09:29:33Z</time>
      </trkpt>
      <trkpt lat="49.93946" lon="4.16093">
        <ele>252.6</ele>
        <time>2024-04-01T09:29:34Z</time>
      </trkpt>
      <trkpt lat="49.93946" lon="4.16105">
        <ele>252</ele>
        <time>2024-04-01T09:29:35Z</time>
      </trkpt>
      <trkpt lat="49.93947" lon="4.16117">
        <ele>251.6</ele>
        <time>2024-04-01T09:29:36Z</time>
      </trkpt>
      <trkpt lat="49.93947" lon="4.1613">
        <ele>251</ele>
        <time>2024-04-01T09:29:37Z</time>
      </trkpt>
      <trkpt lat="49.93948" lon="4.16142">
        <ele>250.6</ele>
        <time>2024-04-01T09:29:38Z</time>
      </trkpt>
      <trkpt lat="49.93949" lon="4.16155">
        <ele>250.2</ele>
        <time>2024-04-01T09:29:39Z</time>
      </trkpt>
      <trkpt lat="49.93953" lon="4.16167">
        <ele>250</ele>
        <time>2024-04-01T09:29:40Z</time>
      </trkpt>
      <trkpt lat="49.93959" lon="4.16177">
        <ele>249.6</ele>
        <time>2024-04-01T09:29:41Z</time>
      </trkpt>
      <trkpt lat="49.93967" lon="4.16186">
        <ele>249.4</ele>
        <time>2024-04-01T09:29:42Z</time>
      </trkpt>
      <trkpt lat="49.93975" lon="4.16194">
        <ele>249.2</ele>
        <time>2024-04-01T09:29:43Z</time>
      </trkpt>
      <trkpt lat="49.93984" lon="4.16201">
        <ele>248.8</ele>
        <time>2024-04-01T09:29:44Z</time>
      </trkpt>
      <trkpt lat="49.93992" lon="4.16207">
        <ele>248.8</ele>
        <time>2024-04-01T09:29:45Z</time>
      </trkpt>
      <trkpt lat="49.94" lon="4.16212">
        <ele>248</ele>
        <time>2024-04-01T09:29:46Z</time>
      </trkpt>
      <trkpt lat="49.94007" lon="4.16216">
        <ele>247.8</ele>
        <time>2024-04-01T09:29:47Z</time>
      </trkpt>
      <trkpt lat="49.94014" lon="4.16221">
        <ele>247.4</ele>
        <time>2024-04-01T09:29:48Z</time>
      </trkpt>
      <trkpt lat="49.94022" lon="4.16226">
        <ele>247.2</ele>
        <time>2024-04-01T09:29:49Z</time>
      </trkpt>
      <trkpt lat="49.94029" lon="4.1623">
        <ele>247</ele>
        <time>2024-04-01T09:29:50Z</time>
      </trkpt>
      <trkpt lat="49.94036" lon="4.16235">
        <ele>247</ele>
        <time>2024-04-01T09:29:51Z</time>
      </trkpt>
      <trkpt lat="49.94042" lon="4.1624">
        <ele>246.8</ele>
        <time>2024-04-01T09:29:52Z</time>
      </trkpt>
      <trkpt lat="49.94048" lon="4.16245">
        <ele>246.4</ele>
        <time>2024-04-01T09:29:53Z</time>
      </trkpt>
      <trkpt lat="49.94055" lon="4.16249">
        <ele>246.2</ele>
        <time>2024-04-01T09:29:54Z</time>
      </trkpt>
      <trkpt lat="49.94062" lon="4.16254">
        <ele>246</ele>
        <time>2024-04-01T09:29:55Z</time>
      </trkpt>
      <trkpt lat="49.94068" lon="4.16259">
        <ele>246</ele>
        <time>2024-04-01T09:29:56Z</time>
      </trkpt>
      <trkpt lat="49.94074" lon="4.16263">
        <ele>246</ele>
        <time>2024-04-01T09:29:57Z</time>
      </trkpt>
      <trkpt lat="49.94081" lon="4.16268">
        <ele>246</ele>
        <time>2024-04-01T09:29:58Z</time>
      </trkpt>
      <trkpt lat="49.94087" lon="4.16272">
        <ele>246</ele>
        <time>2024-04-01T09:29:59Z</time>
      </trkpt>
      <trkpt lat="49.94093" lon="4.16276">
        <ele>246.2</ele>
        <time>2024-04-01T09:30:00Z</time>
      </trkpt>
      <trkpt lat="49.94099" lon="4.1628">
        <ele>246.2</ele>
        <time>2024-04-01T09:30:01Z</time>
      </trkpt>
      <trkpt lat="49.94105" lon="4.16284">
        <ele>246.2</ele>
        <time>2024-04-01T09:30:02Z</time>
      </trkpt>
      <trkpt lat="49.94111" lon="4.16287">
        <ele>246.4</ele>
        <time>2024-04-01T09:30:03Z</time>
      </trkpt>
      <trkpt lat="49.94116" lon="4.16291">
        <ele>246.6</ele>
        <time>2024-04-01T09:30:04Z</time>
      </trkpt>
      <trkpt lat="49.94122" lon="4.16295">
        <ele>246.6</ele>
        <time>2024-04-01T09:30:05Z</time>
      </trkpt>
      <trkpt lat="49.94128" lon="4.163">
        <ele>246.8</ele>
        <time>2024-04-01T09:30:06Z</time>
      </trkpt>
      <trkpt lat="49.94133" lon="4.16303">
        <ele>246.8</ele>
        <time>2024-04-01T09:30:07Z</time>
      </trkpt>
      <trkpt lat="49.94139" lon="4.16307">
        <ele>246.8</ele>
        <time>2024-04-01T09:30:08Z</time>
      </trkpt>
      <trkpt lat="49.94145" lon="4.16311">
        <ele>246.8</ele>
        <time>2024-04-01T09:30:09Z</time>
      </trkpt>
      <trkpt lat="49.94151" lon="4.16316">
        <ele>246.6</ele>
        <time>2024-04-01T09:30:10Z</time>
      </trkpt>
      <trkpt lat="49.94157" lon="4.1632">
        <ele>246.8</ele>
        <time>2024-04-01T09:30:11Z</time>
      </trkpt>
      <trkpt lat="49.94164" lon="4.16324">
        <ele>246.6</ele>
        <time>2024-04-01T09:30:12Z</time>
      </trkpt>
      <trkpt lat="49.9417" lon="4.16329">
        <ele>246.8</ele>
        <time>2024-04-01T09:30:13Z</time>
      </trkpt>
      <trkpt lat="49.94176" lon="4.16333">
        <ele>247</ele>
        <time>2024-04-01T09:30:14Z</time>
      </trkpt>
      <trkpt lat="49.94182" lon="4.16337">
        <ele>247.2</ele>
        <time>2024-04-01T09:30:15Z</time>
      </trkpt>
      <trkpt lat="49.94187" lon="4.16341">
        <ele>247.2</ele>
        <time>2024-04-01T09:30:16Z</time>
      </trkpt>
      <trkpt lat="49.94193" lon="4.16345">
        <ele>247.2</ele>
        <time>2024-04-01T09:30:17Z</time>
      </trkpt>
      <trkpt lat="49.94198" lon="4.1635">
        <ele>247.4</ele>
        <time>2024-04-01T09:30:18Z</time>
      </trkpt>
      <trkpt lat="49.94204" lon="4.16353">
        <ele>247.4</ele>
        <time>2024-04-01T09:30:19Z</time>
      </trkpt>
      <trkpt lat="49.94209" lon="4.16357">
        <ele>247.6</ele>
        <time>2024-04-01T09:30:20Z</time>
      </trkpt>
      <trkpt lat="49.94215" lon="4.16361">
        <ele>247.6</ele>
        <time>2024-04-01T09:30:21Z</time>
      </trkpt>
      <trkpt lat="49.9422" lon="4.16364">
        <ele>247.4</ele>
        <time>2024-04-01T09:30:22Z</time>
      </trkpt>
      <trkpt lat="49.94226" lon="4.16368">
        <ele>247.4</ele>
        <time>2024-04-01T09:30:23Z</time>
      </trkpt>
      <trkpt lat="49.94231" lon="4.16372">
        <ele>247.6</ele>
        <time>2024-04-01T09:30:24Z</time>
      </trkpt>
      <trkpt lat="49.94236" lon="4.16375">
        <ele>247.8</ele>
        <time>2024-04-01T09:30:25Z</time>
      </trkpt>
      <trkpt lat="49.94241" lon="4.16379">
        <ele>247.8</ele>
        <time>2024-04-01T09:30:26Z</time>
      </trkpt>
      <trkpt lat="49.94247" lon="4.16382">
        <ele>248</ele>
        <time>2024-04-01T09:30:27Z</time>
      </trkpt>
      <trkpt lat="49.94253" lon="4.16386">
        <ele>248</ele>
        <time>2024-04-01T09:30:28Z</time>
      </trkpt>
      <trkpt lat="49.94258" lon="4.16389">
        <ele>248.4</ele>
        <time>2024-04-01T09:30:29Z</time>
      </trkpt>
      <trkpt lat="49.94264" lon="4.16393">
        <ele>248.8</ele>
        <time>2024-04-01T09:30:30Z</time>
      </trkpt>
      <trkpt lat="49.94269" lon="4.16397">
        <ele>248.6</ele>
        <time>2024-04-01T09:30:31Z</time>
      </trkpt>
      <trkpt lat="49.94275" lon="4.164">
        <ele>248.8</ele>
        <time>2024-04-01T09:30:32Z</time>
      </trkpt>
      <trkpt lat="49.9428" lon="4.16404">
        <ele>248.8</ele>
        <time>2024-04-01T09:30:33Z</time>
      </trkpt>
      <trkpt lat="49.94285" lon="4.16408">
        <ele>248.8</ele>
        <time>2024-04-01T09:30:34Z</time>
      </trkpt>
      <trkpt lat="49.9429" lon="4.16412">
        <ele>249.2</ele>
        <time>2024-04-01T09:30:35Z</time>
      </trkpt>
      <trkpt lat="49.94295" lon="4.16415">
        <ele>249.4</ele>
        <time>2024-04-01T09:30:36Z</time>
      </trkpt>
      <trkpt lat="49.943" lon="4.16419">
        <ele>249.8</ele>
        <time>2024-04-01T09:30:37Z</time>
      </trkpt>
      <trkpt lat="49.94305" lon="4.16422">
        <ele>250</ele>
        <time>2024-04-01T09:30:38Z</time>
      </trkpt>
      <trkpt lat="49.9431" lon="4.16425">
        <ele>250.4</ele>
        <time>2024-04-01T09:30:39Z</time>
      </trkpt>
      <trkpt lat="49.94314" lon="4.16429">
        <ele>250.8</ele>
        <time>2024-04-01T09:30:40Z</time>
      </trkpt>
      <trkpt lat="49.94319" lon="4.16432">
        <ele>251</ele>
        <time>2024-04-01T09:30:41Z</time>
      </trkpt>
      <trkpt lat="49.94324" lon="4.16436">
        <ele>251.2</ele>
        <time>2024-04-01T09:30:42Z</time>
      </trkpt>
      <trkpt lat="49.9433" lon="4.16439">
        <ele>251.4</ele>
        <time>2024-04-01T09:30:43Z</time>
      </trkpt>
      <trkpt lat="49.94335" lon="4.16442">
        <ele>251.6</ele>
        <time>2024-04-01T09:30:44Z</time>
      </trkpt>
      <trkpt lat="49.9434" lon="4.16446">
        <ele>251.8</ele>
        <time>2024-04-01T09:30:45Z</time>
      </trkpt>
      <trkpt lat="49.94345" lon="4.1645">
        <ele>252</ele>
        <time>2024-04-01T09:30:46Z</time>
      </trkpt>
      <trkpt lat="49.94351" lon="4.16453">
        <ele>252.2</ele>
        <time>2024-04-01T09:30:47Z</time>
      </trkpt>
      <trkpt lat="49.94356" lon="4.16457">
        <ele>252.4</ele>
        <time>2024-04-01T09:30:48Z</time>
      </trkpt>
      <trkpt lat="49.94361" lon="4.1646">
        <ele>252.4</ele>
        <time>2024-04-01T09:30:49Z</time>
      </trkpt>
      <trkpt lat="49.94367" lon="4.16464">
        <ele>252.4</ele>
        <time>2024-04-01T09:30:50Z</time>
      </trkpt>
      <trkpt lat="49.94373" lon="4.16468">
        <ele>252.4</ele>
        <time>2024-04-01T09:30:51Z</time>
      </trkpt>
      <trkpt lat="49.94379" lon="4.16471">
        <ele>252.6</ele>
        <time>2024-04-01T09:30:52Z</time>
      </trkpt>
      <trkpt lat="49.94384" lon="4.16475">
        <ele>252.8</ele>
        <time>2024-04-01T09:30:53Z</time>
      </trkpt>
      <trkpt lat="49.9439" lon="4.16478">
        <ele>253.2</ele>
        <time>2024-04-01T09:30:54Z</time>
      </trkpt>
      <trkpt lat="49.94396" lon="4.16482">
        <ele>253.2</ele>
        <time>2024-04-01T09:30:55Z</time>
      </trkpt>
      <trkpt lat="49.94402" lon="4.16485">
        <ele>253.2</ele>
        <time>2024-04-01T09:30:56Z</time>
      </trkpt>
      <trkpt lat="49.94408" lon="4.16489">
        <ele>253.4</ele>
        <time>2024-04-01T09:30:57Z</time>
      </trkpt>
      <trkpt lat="49.94414" lon="4.16494">
        <ele>253.4</ele>
        <time>2024-04-01T09:30:58Z</time>
      </trkpt>
      <trkpt lat="49.9442" lon="4.16498">
        <ele>253.6</ele>
        <time>2024-04-01T09:30:59Z</time>
      </trkpt>
      <trkpt lat="49.94426" lon="4.16502">
        <ele>253.8</ele>
        <time>2024-04-01T09:31:00Z</time>
      </trkpt>
      <trkpt lat="49.94432" lon="4.16506">
        <ele>253.8</ele>
        <time>2024-04-01T09:31:01Z</time>
      </trkpt>
      <trkpt lat="49.94438" lon="4.1651">
        <ele>254</ele>
        <time>2024-04-01T09:31:02Z</time>
      </trkpt>
      <trkpt lat="49.94444" lon="4.16514">
        <ele>254.2</ele>
        <time>2024-04-01T09:31:03Z</time>
      </trkpt>
      <trkpt lat="49.94449" lon="4.16518">
        <ele>254</ele>
        <time>2024-04-01T09:31:04Z</time>
      </trkpt>
      <trkpt lat="49.94455" lon="4.16522">
        <ele>254.2</ele>
        <time>2024-04-01T09:31:05Z</time>
      </trkpt>
      <trkpt lat="49.94461" lon="4.16526">
        <ele>254.2</ele>
        <time>2024-04-01T09:31:06Z</time>
      </trkpt>
      <trkpt lat="49.94467" lon="4.1653">
        <ele>254.2</ele>
        <time>2024-04-01T09:31:07Z</time>
      </trkpt>
      <trkpt lat="49.94472" lon="4.16534">
        <ele>254.4</ele>
        <time>2024-04-01T09:31:08Z</time>
      </trkpt>
      <trkpt lat="49.94477" lon="4.16537">
        <ele>254.2</ele>
        <time>2024-04-01T09:31:09Z</time>
      </trkpt>
      <trkpt lat="49.94481" lon="4.1654">
        <ele>254.4</ele>
        <time>2024-04-01T09:31:10Z</time>
      </trkpt>
      <trkpt lat="49.94486" lon="4.16544">
        <ele>254.2</ele>
        <time>2024-04-01T09:31:11Z</time>
      </trkpt>
      <trkpt lat="49.94491" lon="4.16547">
        <ele>254.4</ele>
        <time>2024-04-01T09:31:12Z</time>
      </trkpt>
      <trkpt lat="49.94496" lon="4.1655">
        <ele>254.4</ele>
        <time>2024-04-01T09:31:13Z</time>
      </trkpt>
      <trkpt lat="49.945" lon="4.16554">
        <ele>254.4</ele>
        <time>2024-04-01T09:31:14Z</time>
      </trkpt>
      <trkpt lat="49.94505" lon="4.16557">
        <ele>254.4</ele>
        <time>2024-04-01T09:31:15Z</time>
      </trkpt>
      <trkpt lat="49.9451" lon="4.16561">
        <ele>254.6</ele>
        <time>2024-04-01T09:31:16Z</time>
      </trkpt>
      <trkpt lat="49.94516" lon="4.16565">
        <ele>254.6</ele>
        <time>2024-04-01T09:31:17Z</time>
      </trkpt>
      <trkpt lat="49.94521" lon="4.16568">
        <ele>254.8</ele>
        <time>2024-04-01T09:31:18Z</time>
      </trkpt>
      <trkpt lat="49.94526" lon="4.16571">
        <ele>254.8</ele>
        <time>2024-04-01T09:31:19Z</time>
      </trkpt>
      <trkpt lat="49.94531" lon="4.16574">
        <ele>254.8</ele>
        <time>2024-04-01T09:31:20Z</time>
      </trkpt>
      <trkpt lat="49.94536" lon="4.16578">
        <ele>255</ele>
        <time>2024-04-01T09:31:21Z</time>
      </trkpt>
      <trkpt lat="49.94541" lon="4.16581">
        <ele>255</ele>
        <time>2024-04-01T09:31:22Z</time>
      </trkpt>
      <trkpt lat="49.94546" lon="4.16585">
        <ele>255</ele>
        <time>2024-04-01T09:31:23Z</time>
      </trkpt>
      <trkpt lat="49.94551" lon="4.16588">
        <ele>255</ele>
        <time>2024-04-01T09:31:24Z</time>
      </trkpt>
      <trkpt lat="49.94556" lon="4.16592">
        <ele>255.2</ele>
        <time>2024-04-01T09:31:25Z</time>
      </trkpt>
      <trkpt lat="49.94561" lon="4.16595">
        <ele>255.4</ele>
        <time>2024-04-01T09:31:26Z</time>
      </trkpt>
      <trkpt lat="49.94566" lon="4.16599">
        <ele>255.6</ele>
        <time>2024-04-01T09:31:27Z</time>
      </trkpt>
      <trkpt lat="49.94571" lon="4.16602">
        <ele>255.8</ele>
        <time>2024-04-01T09:31:28Z</time>
      </trkpt>
      <trkpt lat="49.94576" lon="4.16606">
        <ele>255.8</ele>
        <time>2024-04-01T09:31:29Z</time>
      </trkpt>
      <trkpt lat="49.94581" lon="4.16609">
        <ele>255.8</ele>
        <time>2024-04-01T09:31:30Z</time>
      </trkpt>
      <trkpt lat="49.94585" lon="4.16612">
        <ele>256</ele>
        <time>2024-04-01T09:31:31Z</time>
      </trkpt>
      <trkpt lat="49.9459" lon="4.16616">
        <ele>256</ele>
        <time>2024-04-01T09:31:32Z</time>
      </trkpt>
      <trkpt lat="49.94595" lon="4.16619">
        <ele>256.2</ele>
        <time>2024-04-01T09:31:33Z</time>
      </trkpt>
      <trkpt lat="49.946" lon="4.16622">
        <ele>256.4</ele>
        <time>2024-04-01T09:31:34Z</time>
      </trkpt>
      <trkpt lat="49.94605" lon="4.16622">
        <ele>256.4</ele>
        <time>2024-04-01T09:31:35Z</time>
      </trkpt>
      <trkpt lat="49.9461" lon="4.1662">
        <ele>256.6</ele>
        <time>2024-04-01T09:31:36Z</time>
      </trkpt>
      <trkpt lat="49.94615" lon="4.16615">
        <ele>256.6</ele>
        <time>2024-04-01T09:31:37Z</time>
      </trkpt>
      <trkpt lat="49.94618" lon="4.16608">
        <ele>256.4</ele>
        <time>2024-04-01T09:31:38Z</time>
      </trkpt>
      <trkpt lat="49.94622" lon="4.166">
        <ele>256.6</ele>
        <time>2024-04-01T09:31:39Z</time>
      </trkpt>
      <trkpt lat="49.94625" lon="4.16592">
        <ele>256.6</ele>
        <time>2024-04-01T09:31:40Z</time>
      </trkpt>
      <trkpt lat="49.94627" lon="4.16583">
        <ele>256.6</ele>
        <time>2024-04-01T09:31:41Z</time>
      </trkpt>
      <trkpt lat="49.9463" lon="4.16574">
        <ele>256.6</ele>
        <time>2024-04-01T09:31:42Z</time>
      </trkpt>
      <trkpt lat="49.94633" lon="4.16565">
        <ele>256.6</ele>
        <time>2024-04-01T09:31:43Z</time>
      </trkpt>
      <trkpt lat="49.94636" lon="4.16556">
        <ele>256.8</ele>
        <time>2024-04-01T09:31:44Z</time>
      </trkpt>
      <trkpt lat="49.9464" lon="4.16547">
        <ele>256.6</ele>
        <time>2024-04-01T09:31:45Z</time>
      </trkpt>
      <trkpt lat="49.94643" lon="4.16537">
        <ele>256.6</ele>
        <time>2024-04-01T09:31:46Z</time>
      </trkpt>
      <trkpt lat="49.94646" lon="4.16526">
        <ele>256.4</ele>
        <time>2024-04-01T09:31:47Z</time>
      </trkpt>
      <trkpt lat="49.9465" lon="4.16515">
        <ele>256.4</ele>
        <time>2024-04-01T09:31:48Z</time>
      </trkpt>
      <trkpt lat="49.94653" lon="4.16504">
        <ele>256.2</ele>
        <time>2024-04-01T09:31:49Z</time>
      </trkpt>
      <trkpt lat="49.94656" lon="4.16493">
        <ele>256</ele>
        <time>2024-04-01T09:31:50Z</time>
      </trkpt>
      <trkpt lat="49.94659" lon="4.16482">
        <ele>255.8</ele>
        <time>2024-04-01T09:31:51Z</time>
      </trkpt>
      <trkpt lat="49.94663" lon="4.16471">
        <ele>255.6</ele>
        <time>2024-04-01T09:31:52Z</time>
      </trkpt>
      <trkpt lat="49.94666" lon="4.1646">
        <ele>255.2</ele>
        <time>2024-04-01T09:31:53Z</time>
      </trkpt>
      <trkpt lat="49.94669" lon="4.16449">
        <ele>255</ele>
        <time>2024-04-01T09:31:54Z</time>
      </trkpt>
      <trkpt lat="49.94672" lon="4.16438">
        <ele>254.8</ele>
        <time>2024-04-01T09:31:55Z</time>
      </trkpt>
      <trkpt lat="49.94676" lon="4.16427">
        <ele>254</ele>
        <time>2024-04-01T09:31:56Z</time>
      </trkpt>
      <trkpt lat="49.94679" lon="4.16417">
        <ele>254</ele>
        <time>2024-04-01T09:31:57Z</time>
      </trkpt>
      <trkpt lat="49.94682" lon="4.16406">
        <ele>253.6</ele>
        <time>2024-04-01T09:31:58Z</time>
      </trkpt>
      <trkpt lat="49.94686" lon="4.16395">
        <ele>253.4</ele>
        <time>2024-04-01T09:31:59Z</time>
      </trkpt>
      <trkpt lat="49.94689" lon="4.16384">
        <ele>253.2</ele>
        <time>2024-04-01T09:32:00Z</time>
      </trkpt>
      <trkpt lat="49.94692" lon="4.16374">
        <ele>253.2</ele>
        <time>2024-04-01T09:32:01Z</time>
      </trkpt>
      <trkpt lat="49.94695" lon="4.16363">
        <ele>253</ele>
        <time>2024-04-01T09:32:02Z</time>
      </trkpt>
      <trkpt lat="49.94698" lon="4.16354">
        <ele>252.6</ele>
        <time>2024-04-01T09:32:03Z</time>
      </trkpt>
      <trkpt lat="49.94701" lon="4.16344">
        <ele>252.6</ele>
        <time>2024-04-01T09:32:04Z</time>
      </trkpt>
      <trkpt lat="49.94704" lon="4.16334">
        <ele>252.2</ele>
        <time>2024-04-01T09:32:05Z</time>
      </trkpt>
      <trkpt lat="49.94708" lon="4.16324">
        <ele>252</ele>
        <time>2024-04-01T09:32:06Z</time>
      </trkpt>
      <trkpt lat="49.94711" lon="4.16314">
        <ele>252</ele>
        <time>2024-04-01T09:32:07Z</time>
      </trkpt>
      <trkpt lat="49.94714" lon="4.16303">
        <ele>251.6</ele>
        <time>2024-04-01T09:32:08Z</time>
      </trkpt>
      <trkpt lat="49.94717" lon="4.16292">
        <ele>251.4</ele>
        <time>2024-04-01T09:32:09Z</time>
      </trkpt>
      <trkpt lat="49.9472" lon="4.16281">
        <ele>251</ele>
        <time>2024-04-01T09:32:10Z</time>
      </trkpt>
      <trkpt lat="49.94724" lon="4.1627">
        <ele>250.8</ele>
        <time>2024-04-01T09:32:11Z</time>
      </trkpt>
      <trkpt lat="49.94727" lon="4.16259">
        <ele>250.6</ele>
        <time>2024-04-01T09:32:12Z</time>
      </trkpt>
      <trkpt lat="49.9473" lon="4.16248">
        <ele>250.6</ele>
        <time>2024-04-01T09:32:13Z</time>
      </trkpt>
      <trkpt lat="49.94733" lon="4.16237">
        <ele>250.2</ele>
        <time>2024-04-01T09:32:14Z</time>
      </trkpt>
      <trkpt lat="49.94737" lon="4.16225">
        <ele>250.2</ele>
        <time>2024-04-01T09:32:15Z</time>
      </trkpt>
      <trkpt lat="49.94739" lon="4.16213">
        <ele>249.8</ele>
        <time>2024-04-01T09:32:16Z</time>
      </trkpt>
      <trkpt lat="49.94742" lon="4.16201">
        <ele>249.4</ele>
        <time>2024-04-01T09:32:17Z</time>
      </trkpt>
      <trkpt lat="49.94746" lon="4.16189">
        <ele>249</ele>
        <time>2024-04-01T09:32:18Z</time>
      </trkpt>
      <trkpt lat="49.94749" lon="4.16177">
        <ele>248.6</ele>
        <time>2024-04-01T09:32:19Z</time>
      </trkpt>
      <trkpt lat="49.94753" lon="4.16165">
        <ele>248</ele>
        <time>2024-04-01T09:32:20Z</time>
      </trkpt>
      <trkpt lat="49.94756" lon="4.16153">
        <ele>247.4</ele>
        <time>2024-04-01T09:32:21Z</time>
      </trkpt>
      <trkpt lat="49.94759" lon="4.1614">
        <ele>247</ele>
        <time>2024-04-01T09:32:22Z</time>
      </trkpt>
      <trkpt lat="49.94762" lon="4.16127">
        <ele>246.6</ele>
        <time>2024-04-01T09:32:23Z</time>
      </trkpt>
      <trkpt lat="49.94765" lon="4.16114">
        <ele>246.4</ele>
        <time>2024-04-01T09:32:24Z</time>
      </trkpt>
      <trkpt lat="49.94767" lon="4.161">
        <ele>246.2</ele>
        <time>2024-04-01T09:32:25Z</time>
      </trkpt>
      <trkpt lat="49.94769" lon="4.16087">
        <ele>245.2</ele>
        <time>2024-04-01T09:32:26Z</time>
      </trkpt>
      <trkpt lat="49.94771" lon="4.16073">
        <ele>244.2</ele>
        <time>2024-04-01T09:32:27Z</time>
      </trkpt>
      <trkpt lat="49.94773" lon="4.16059">
        <ele>243.6</ele>
        <time>2024-04-01T09:32:28Z</time>
      </trkpt>
      <trkpt lat="49.94775" lon="4.16046">
        <ele>243.2</ele>
        <time>2024-04-01T09:32:29Z</time>
      </trkpt>
      <trkpt lat="49.94777" lon="4.16032">
        <ele>243.2</ele>
        <time>2024-04-01T09:32:30Z</time>
      </trkpt>
      <trkpt lat="49.94778" lon="4.1602">
        <ele>242.4</ele>
        <time>2024-04-01T09:32:31Z</time>
      </trkpt>
      <trkpt lat="49.9478" lon="4.16007">
        <ele>241.8</ele>
        <time>2024-04-01T09:32:32Z</time>
      </trkpt>
      <trkpt lat="49.94782" lon="4.15993">
        <ele>241</ele>
        <time>2024-04-01T09:32:33Z</time>
      </trkpt>
      <trkpt lat="49.94783" lon="4.15979">
        <ele>240</ele>
        <time>2024-04-01T09:32:34Z</time>
      </trkpt>
      <trkpt lat="49.94785" lon="4.15966">
        <ele>239.8</ele>
        <time>2024-04-01T09:32:35Z</time>
      </trkpt>
      <trkpt lat="49.94787" lon="4.15951">
        <ele>239.4</ele>
        <time>2024-04-01T09:32:36Z</time>
      </trkpt>
      <trkpt lat="49.94789" lon="4.15937">
        <ele>239</ele>
        <time>2024-04-01T09:32:37Z</time>
      </trkpt>
      <trkpt lat="49.94791" lon="4.15922">
        <ele>238.8</ele>
        <time>2024-04-01T09:32:38Z</time>
      </trkpt>
      <trkpt lat="49.94794" lon="4.15907">
        <ele>238.6</ele>
        <time>2024-04-01T09:32:39Z</time>
      </trkpt>
      <trkpt lat="49.94796" lon="4.15893">
        <ele>238.4</ele>
        <time>2024-04-01T09:32:40Z</time>
      </trkpt>
      <trkpt lat="49.94798" lon="4.15878">
        <ele>238.4</ele>
        <time>2024-04-01T09:32:41Z</time>
      </trkpt>
      <trkpt lat="49.948" lon="4.15862">
        <ele>238</ele>
        <time>2024-04-01T09:32:42Z</time>
      </trkpt>
      <trkpt lat="49.94802" lon="4.15845">
        <ele>237.6</ele>
        <time>2024-04-01T09:32:43Z</time>
      </trkpt>
      <trkpt lat="49.94804" lon="4.15829">
        <ele>236.8</ele>
        <time>2024-04-01T09:32:44Z</time>
      </trkpt>
      <trkpt lat="49.94806" lon="4.15813">
        <ele>236.4</ele>
        <time>2024-04-01T09:32:45Z</time>
      </trkpt>
      <trkpt lat="49.94808" lon="4.15797">
        <ele>235.4</ele>
        <time>2024-04-01T09:32:46Z</time>
      </trkpt>
      <trkpt lat="49.9481" lon="4.15781">
        <ele>235.2</ele>
        <time>2024-04-01T09:32:47Z</time>
      </trkpt>
      <trkpt lat="49.94811" lon="4.15766">
        <ele>235.2</ele>
        <time>2024-04-01T09:32:48Z</time>
      </trkpt>
      <trkpt lat="49.94813" lon="4.15751">
        <ele>233.8</ele>
        <time>2024-04-01T09:32:49Z</time>
      </trkpt>
      <trkpt lat="49.94814" lon="4.15737">
        <ele>233</ele>
        <time>2024-04-01T09:32:50Z</time>
      </trkpt>
      <trkpt lat="49.94816" lon="4.15724">
        <ele>232</ele>
        <time>2024-04-01T09:32:51Z</time>
      </trkpt>
      <trkpt lat="49.94817" lon="4.15712">
        <ele>231.6</ele>
        <time>2024-04-01T09:32:52Z</time>
      </trkpt>
      <trkpt lat="49.94819" lon="4.15702">
        <ele>231.4</ele>
        <time>2024-04-01T09:32:53Z</time>
      </trkpt>
      <trkpt lat="49.94821" lon="4.15692">
        <ele>231.2</ele>
        <time>2024-04-01T09:32:54Z</time>
      </trkpt>
      <trkpt lat="49.94823" lon="4.15684">
        <ele>231.2</ele>
        <time>2024-04-01T09:32:55Z</time>
      </trkpt>
      <trkpt lat="49.94825" lon="4.15675">
        <ele>231.2</ele>
        <time>2024-04-01T09:32:56Z</time>
      </trkpt>
      <trkpt lat="49.94827" lon="4.15666">
        <ele>231</ele>
        <time>2024-04-01T09:32:57Z</time>
      </trkpt>
      <trkpt lat="49.94829" lon="4.15659">
        <ele>231</ele>
        <time>2024-04-01T09:32:58Z</time>
      </trkpt>
      <trkpt lat="49.94831" lon="4.15652">
        <ele>231</ele>
        <time>2024-04-01T09:32:59Z</time>
      </trkpt>
      <trkpt lat="49.94831" lon="4.15644">
        <ele>231</ele>
        <time>2024-04-01T09:33:00Z</time>
      </trkpt>
      <trkpt lat="49.94833" lon="4.15637">
        <ele>231.2</ele>
        <time>2024-04-01T09:33:01Z</time>
      </trkpt>
      <trkpt lat="49.94834" lon="4.1563">
        <ele>231.8</ele>
        <time>2024-04-01T09:33:02Z</time>
      </trkpt>
      <trkpt lat="49.94835" lon="4.15623">
        <ele>232.6</ele>
        <time>2024-04-01T09:33:03Z</time>
      </trkpt>
      <trkpt lat="49.94836" lon="4.15617">
        <ele>233.2</ele>
        <time>2024-04-01T09:33:04Z</time>
      </trkpt>
      <trkpt lat="49.94838" lon="4.15609">
        <ele>233.6</ele>
        <time>2024-04-01T09:33:05Z</time>
      </trkpt>
      <trkpt lat="49.94838" lon="4.15601">
        <ele>233.8</ele>
        <time>2024-04-01T09:33:06Z</time>
      </trkpt>
      <trkpt lat="49.94839" lon="4.15593">
        <ele>233.8</ele>
        <time>2024-04-01T09:33:07Z</time>
      </trkpt>
      <trkpt lat="49.94839" lon="4.15586">
        <ele>234</ele>
        <time>2024-04-01T09:33:08Z</time>
      </trkpt>
      <trkpt lat="49.9484" lon="4.15578">
        <ele>234.4</ele>
        <time>2024-04-01T09:33:09Z</time>
      </trkpt>
      <trkpt lat="49.94841" lon="4.15571">
        <ele>235</ele>
        <time>2024-04-01T09:33:10Z</time>
      </trkpt>
      <trkpt lat="49.94842" lon="4.15564">
        <ele>235.4</ele>
        <time>2024-04-01T09:33:11Z</time>
      </trkpt>
      <trkpt lat="49.94843" lon="4.15557">
        <ele>236</ele>
        <time>2024-04-01T09:33:12Z</time>
      </trkpt>
      <trkpt lat="49.94843" lon="4.15551">
        <ele>237</ele>
        <time>2024-04-01T09:33:13Z</time>
      </trkpt>
      <trkpt lat="49.94844" lon="4.15544">
        <ele>237.4</ele>
        <time>2024-04-01T09:33:14Z</time>
      </trkpt>
      <trkpt lat="49.94844" lon="4.15538">
        <ele>237.6</ele>
        <time>2024-04-01T09:33:15Z</time>
      </trkpt>
      <trkpt lat="49.94845" lon="4.15532">
        <ele>238.2</ele>
        <time>2024-04-01T09:33:16Z</time>
      </trkpt>
      <trkpt lat="49.94846" lon="4.15525">
        <ele>238.6</ele>
        <time>2024-04-01T09:33:17Z</time>
      </trkpt>
      <trkpt lat="49.94846" lon="4.15519">
        <ele>238.8</ele>
        <time>2024-04-01T09:33:18Z</time>
      </trkpt>
      <trkpt lat="49.94847" lon="4.15512">
        <ele>239</ele>
        <time>2024-04-01T09:33:19Z</time>
      </trkpt>
      <trkpt lat="49.94848" lon="4.15505">
        <ele>239.4</ele>
        <time>2024-04-01T09:33:20Z</time>
      </trkpt>
      <trkpt lat="49.94849" lon="4.15499">
        <ele>239.6</ele>
        <time>2024-04-01T09:33:21Z</time>
      </trkpt>
      <trkpt lat="49.9485" lon="4.15492">
        <ele>239.6</ele>
        <time>2024-04-01T09:33:22Z</time>
      </trkpt>
      <trkpt lat="49.94851" lon="4.15486">
        <ele>240</ele>
        <time>2024-04-01T09:33:23Z</time>
      </trkpt>
      <trkpt lat="49.94852" lon="4.1548">
        <ele>240</ele>
        <time>2024-04-01T09:33:24Z</time>
      </trkpt>
      <trkpt lat="49.94853" lon="4.15473">
        <ele>240.2</ele>
        <time>2024-04-01T09:33:25Z</time>
      </trkpt>
      <trkpt lat="49.94854" lon="4.15466">
        <ele>240.2</ele>
        <time>2024-04-01T09:33:26Z</time>
      </trkpt>
      <trkpt lat="49.94855" lon="4.15459">
        <ele>240.4</ele>
        <time>2024-04-01T09:33:27Z</time>
      </trkpt>
      <trkpt lat="49.94856" lon="4.15452">
        <ele>240.6</ele>
        <time>2024-04-01T09:33:28Z</time>
      </trkpt>
      <trkpt lat="49.94856" lon="4.15445">
        <ele>240.8</ele>
        <time>2024-04-01T09:33:29Z</time>
      </trkpt>
      <trkpt lat="49.94857" lon="4.15438">
        <ele>241</ele>
        <time>2024-04-01T09:33:30Z</time>
      </trkpt>
      <trkpt lat="49.94857" lon="4.15432">
        <ele>241</ele>
        <time>2024-04-01T09:33:31Z</time>
      </trkpt>
      <trkpt lat="49.94858" lon="4.15426">
        <ele>241.4</ele>
        <time>2024-04-01T09:33:32Z</time>
      </trkpt>
      <trkpt lat="49.94859" lon="4.15419">
        <ele>241.4</ele>
        <time>2024-04-01T09:33:33Z</time>
      </trkpt>
      <trkpt lat="49.9486" lon="4.15412">
        <ele>241.6</ele>
        <time>2024-04-01T09:33:34Z</time>
      </trkpt>
      <trkpt lat="49.94861" lon="4.15405">
        <ele>241.8</ele>
        <time>2024-04-01T09:33:35Z</time>
      </trkpt>
      <trkpt lat="49.94861" lon="4.15399">
        <ele>241.8</ele>
        <time>2024-04-01T09:33:36Z</time>
      </trkpt>
      <trkpt lat="49.94862" lon="4.15392">
        <ele>242.2</ele>
        <time>2024-04-01T09:33:37Z</time>
      </trkpt>
      <trkpt lat="49.94863" lon="4.15385">
        <ele>242.4</ele>
        <time>2024-04-01T09:33:38Z</time>
      </trkpt>
      <trkpt lat="49.94863" lon="4.15379">
        <ele>242.4</ele>
        <time>2024-04-01T09:33:39Z</time>
      </trkpt>
      <trkpt lat="49.94864" lon="4.15372">
        <ele>242.6</ele>
        <time>2024-04-01T09:33:40Z</time>
      </trkpt>
      <trkpt lat="49.94864" lon="4.15365">
        <ele>242.8</ele>
        <time>2024-04-01T09:33:41Z</time>
      </trkpt>
      <trkpt lat="49.94865" lon="4.15358">
        <ele>242.8</ele>
        <time>2024-04-01T09:33:42Z</time>
      </trkpt>
      <trkpt lat="49.94866" lon="4.15351">
        <ele>243</ele>
        <time>2024-04-01T09:33:43Z</time>
      </trkpt>
      <trkpt lat="49.94867" lon="4.15343">
        <ele>243.2</ele>
        <time>2024-04-01T09:33:44Z</time>
      </trkpt>
      <trkpt lat="49.94868" lon="4.15335">
        <ele>243.4</ele>
        <time>2024-04-01T09:33:45Z</time>
      </trkpt>
      <trkpt lat="49.94869" lon="4.15327">
        <ele>243.4</ele>
        <time>2024-04-01T09:33:46Z</time>
      </trkpt>
      <trkpt lat="49.9487" lon="4.15319">
        <ele>243.6</ele>
        <time>2024-04-01T09:33:47Z</time>
      </trkpt>
      <trkpt lat="49.94871" lon="4.15311">
        <ele>243.8</ele>
        <time>2024-04-01T09:33:48Z</time>
      </trkpt>
      <trkpt lat="49.94871" lon="4.15303">
        <ele>244</ele>
        <time>2024-04-01T09:33:49Z</time>
      </trkpt>
      <trkpt lat="49.94873" lon="4.15295">
        <ele>244.2</ele>
        <time>2024-04-01T09:33:50Z</time>
      </trkpt>
      <trkpt lat="49.94873" lon="4.15287">
        <ele>244.2</ele>
        <time>2024-04-01T09:33:51Z</time>
      </trkpt>
      <trkpt lat="49.94875" lon="4.1528">
        <ele>244.6</ele>
        <time>2024-04-01T09:33:52Z</time>
      </trkpt>
      <trkpt lat="49.94875" lon="4.15271">
        <ele>244.4</ele>
        <time>2024-04-01T09:33:53Z</time>
      </trkpt>
      <trkpt lat="49.94876" lon="4.15264">
        <ele>244.6</ele>
        <time>2024-04-01T09:33:54Z</time>
      </trkpt>
      <trkpt lat="49.94877" lon="4.15256">
        <ele>244.8</ele>
        <time>2024-04-01T09:33:55Z</time>
      </trkpt>
      <trkpt lat="49.94878" lon="4.15248">
        <ele>244.8</ele>
        <time>2024-04-01T09:33:56Z</time>
      </trkpt>
      <trkpt lat="49.94879" lon="4.1524">
        <ele>244.8</ele>
        <time>2024-04-01T09:33:57Z</time>
      </trkpt>
      <trkpt lat="49.9488" lon="4.15232">
        <ele>244.8</ele>
        <time>2024-04-01T09:33:58Z</time>
      </trkpt>
      <trkpt lat="49.94881" lon="4.15223">
        <ele>244.8</ele>
        <time>2024-04-01T09:33:59Z</time>
      </trkpt>
      <trkpt lat="49.94883" lon="4.15216">
        <ele>245</ele>
        <time>2024-04-01T09:34:00Z</time>
      </trkpt>
      <trkpt lat="49.94884" lon="4.15208">
        <ele>244.8</ele>
        <time>2024-04-01T09:34:01Z</time>
      </trkpt>
      <trkpt lat="49.94886" lon="4.15201">
        <ele>245</ele>
        <time>2024-04-01T09:34:02Z</time>
      </trkpt>
      <trkpt lat="49.94887" lon="4.15194">
        <ele>245</ele>
        <time>2024-04-01T09:34:03Z</time>
      </trkpt>
      <trkpt lat="49.94888" lon="4.15186">
        <ele>245</ele>
        <time>2024-04-01T09:34:04Z</time>
      </trkpt>
      <trkpt lat="49.94888" lon="4.15178">
        <ele>245</ele>
        <time>2024-04-01T09:34:05Z</time>
      </trkpt>
      <trkpt lat="49.94889" lon="4.15171">
        <ele>245.2</ele>
        <time>2024-04-01T09:34:06Z</time>
      </trkpt>
      <trkpt lat="49.94889" lon="4.15162">
        <ele>245.4</ele>
        <time>2024-04-01T09:34:07Z</time>
      </trkpt>
      <trkpt lat="49.9489" lon="4.15154">
        <ele>245.4</ele>
        <time>2024-04-01T09:34:08Z</time>
      </trkpt>
      <trkpt lat="49.94891" lon="4.15145">
        <ele>245.4</ele>
        <time>2024-04-01T09:34:09Z</time>
      </trkpt>
      <trkpt lat="49.94891" lon="4.15137">
        <ele>245.4</ele>
        <time>2024-04-01T09:34:10Z</time>
      </trkpt>
      <trkpt lat="49.94892" lon="4.15129">
        <ele>245.4</ele>
        <time>2024-04-01T09:34:11Z</time>
      </trkpt>
      <trkpt lat="49.94892" lon="4.15121">
        <ele>245.4</ele>
        <time>2024-04-01T09:34:12Z</time>
      </trkpt>
      <trkpt lat="49.94893" lon="4.15113">
        <ele>245.6</ele>
        <time>2024-04-01T09:34:13Z</time>
      </trkpt>
      <trkpt lat="49.94894" lon="4.15106">
        <ele>245.6</ele>
        <time>2024-04-01T09:34:14Z</time>
      </trkpt>
      <trkpt lat="49.94895" lon="4.15098">
        <ele>245.6</ele>
        <time>2024-04-01T09:34:15Z</time>
      </trkpt>
      <trkpt lat="49.94896" lon="4.1509">
        <ele>245.6</ele>
        <time>2024-04-01T09:34:16Z</time>
      </trkpt>
      <trkpt lat="49.94897" lon="4.15081">
        <ele>245.6</ele>
        <time>2024-04-01T09:34:17Z</time>
      </trkpt>
      <trkpt lat="49.94898" lon="4.15072">
        <ele>245.8</ele>
        <time>2024-04-01T09:34:18Z</time>
      </trkpt>
      <trkpt lat="49.94899" lon="4.15064">
        <ele>245.8</ele>
        <time>2024-04-01T09:34:19Z</time>
      </trkpt>
      <trkpt lat="49.949" lon="4.15055">
        <ele>246</ele>
        <time>2024-04-01T09:34:20Z</time>
      </trkpt>
      <trkpt lat="49.94901" lon="4.15046">
        <ele>246</ele>
        <time>2024-04-01T09:34:21Z</time>
      </trkpt>
      <trkpt lat="49.94903" lon="4.15037">
        <ele>246</ele>
        <time>2024-04-01T09:34:22Z</time>
      </trkpt>
      <trkpt lat="49.94904" lon="4.15028">
        <ele>246</ele>
        <time>2024-04-01T09:34:23Z</time>
      </trkpt>
      <trkpt lat="49.94905" lon="4.1502">
        <ele>246</ele>
        <time>2024-04-01T09:34:24Z</time>
      </trkpt>
      <trkpt lat="49.94906" lon="4.15012">
        <ele>246.2</ele>
        <time>2024-04-01T09:34:25Z</time>
      </trkpt>
      <trkpt lat="49.94908" lon="4.15003">
        <ele>246</ele>
        <time>2024-04-01T09:34:26Z</time>
      </trkpt>
      <trkpt lat="49.94909" lon="4.14995">
        <ele>246</ele>
        <time>2024-04-01T09:34:27Z</time>
      </trkpt>
      <trkpt lat="49.94911" lon="4.14987">
        <ele>246.2</ele>
        <time>2024-04-01T09:34:28Z</time>
      </trkpt>
      <trkpt lat="49.94912" lon="4.14979">
        <ele>246</ele>
        <time>2024-04-01T09:34:29Z</time>
      </trkpt>
      <trkpt lat="49.94914" lon="4.14971">
        <ele>246.2</ele>
        <time>2024-04-01T09:34:30Z</time>
      </trkpt>
      <trkpt lat="49.94916" lon="4.14963">
        <ele>246.2</ele>
        <time>2024-04-01T09:34:31Z</time>
      </trkpt>
      <trkpt lat="49.94918" lon="4.14954">
        <ele>246</ele>
        <time>2024-04-01T09:34:32Z</time>
      </trkpt>
      <trkpt lat="49.9492" lon="4.14946">
        <ele>246</ele>
        <time>2024-04-01T09:34:33Z</time>
      </trkpt>
      <trkpt lat="49.94923" lon="4.14938">
        <ele>246.2</ele>
        <time>2024-04-01T09:34:34Z</time>
      </trkpt>
      <trkpt lat="49.94926" lon="4.14931">
        <ele>246.2</ele>
        <time>2024-04-01T09:34:35Z</time>
      </trkpt>
      <trkpt lat="49.9493" lon="4.14927">
        <ele>246</ele>
        <time>2024-04-01T09:34:36Z</time>
      </trkpt>
      <trkpt lat="49.94934" lon="4.14926">
        <ele>246.2</ele>
        <time>2024-04-01T09:34:37Z</time>
      </trkpt>
      <trkpt lat="49.94938" lon="4.14929">
        <ele>246.2</ele>
        <time>2024-04-01T09:34:38Z</time>
      </trkpt>
      <trkpt lat="49.94942" lon="4.14933">
        <ele>246.2</ele>
        <time>2024-04-01T09:34:39Z</time>
      </trkpt>
      <trkpt lat="49.94945" lon="4.14937">
        <ele>246</ele>
        <time>2024-04-01T09:34:40Z</time>
      </trkpt>
      <trkpt lat="49.94949" lon="4.14942">
        <ele>246.4</ele>
        <time>2024-04-01T09:34:41Z</time>
      </trkpt>
      <trkpt lat="49.94953" lon="4.14946">
        <ele>246.2</ele>
        <time>2024-04-01T09:34:42Z</time>
      </trkpt>
      <trkpt lat="49.94957" lon="4.14951">
        <ele>246.2</ele>
        <time>2024-04-01T09:34:43Z</time>
      </trkpt>
      <trkpt lat="49.94961" lon="4.14956">
        <ele>246.4</ele>
        <time>2024-04-01T09:34:44Z</time>
      </trkpt>
      <trkpt lat="49.94965" lon="4.1496">
        <ele>246.6</ele>
        <time>2024-04-01T09:34:45Z</time>
      </trkpt>
      <trkpt lat="49.94969" lon="4.14965">
        <ele>246.8</ele>
        <time>2024-04-01T09:34:46Z</time>
      </trkpt>
      <trkpt lat="49.94974" lon="4.1497">
        <ele>246.8</ele>
        <time>2024-04-01T09:34:47Z</time>
      </trkpt>
      <trkpt lat="49.94978" lon="4.14975">
        <ele>246.8</ele>
        <time>2024-04-01T09:34:48Z</time>
      </trkpt>
      <trkpt lat="49.94983" lon="4.1498">
        <ele>247</ele>
        <time>2024-04-01T09:34:49Z</time>
      </trkpt>
      <trkpt lat="49.94988" lon="4.14986">
        <ele>246.8</ele>
        <time>2024-04-01T09:34:50Z</time>
      </trkpt>
      <trkpt lat="49.94993" lon="4.14991">
        <ele>247.2</ele>
        <time>2024-04-01T09:34:51Z</time>
      </trkpt>
      <trkpt lat="49.94998" lon="4.14996">
        <ele>247.2</ele>
        <time>2024-04-01T09:34:52Z</time>
      </trkpt>
      <trkpt lat="49.95003" lon="4.15">
        <ele>247.2</ele>
        <time>2024-04-01T09:34:53Z</time>
      </trkpt>
      <trkpt lat="49.95008" lon="4.15005">
        <ele>247.2</ele>
        <time>2024-04-01T09:34:54Z</time>
      </trkpt>
      <trkpt lat="49.95013" lon="4.15009">
        <ele>247.8</ele>
        <time>2024-04-01T09:34:55Z</time>
      </trkpt>
      <trkpt lat="49.95019" lon="4.15014">
        <ele>248</ele>
        <time>2024-04-01T09:34:56Z</time>
      </trkpt>
      <trkpt lat="49.95024" lon="4.15019">
        <ele>248.2</ele>
        <time>2024-04-01T09:34:57Z</time>
      </trkpt>
      <trkpt lat="49.95029" lon="4.15023">
        <ele>248.2</ele>
        <time>2024-04-01T09:34:58Z</time>
      </trkpt>
      <trkpt lat="49.95035" lon="4.15027">
        <ele>248.4</ele>
        <time>2024-04-01T09:34:59Z</time>
      </trkpt>
      <trkpt lat="49.9504" lon="4.15032">
        <ele>248.6</ele>
        <time>2024-04-01T09:35:00Z</time>
      </trkpt>
      <trkpt lat="49.95046" lon="4.15036">
        <ele>248.6</ele>
        <time>2024-04-01T09:35:01Z</time>
      </trkpt>
      <trkpt lat="49.95051" lon="4.1504">
        <ele>248.8</ele>
        <time>2024-04-01T09:35:02Z</time>
      </trkpt>
      <trkpt lat="49.95057" lon="4.15044">
        <ele>248.8</ele>
        <time>2024-04-01T09:35:03Z</time>
      </trkpt>
      <trkpt lat="49.95063" lon="4.15048">
        <ele>249.2</ele>
        <time>2024-04-01T09:35:04Z</time>
      </trkpt>
      <trkpt lat="49.9507" lon="4.15051">
        <ele>249</ele>
        <time>2024-04-01T09:35:05Z</time>
      </trkpt>
      <trkpt lat="49.95076" lon="4.15055">
        <ele>249</ele>
        <time>2024-04-01T09:35:06Z</time>
      </trkpt>
      <trkpt lat="49.95082" lon="4.15059">
        <ele>249.2</ele>
        <time>2024-04-01T09:35:07Z</time>
      </trkpt>
      <trkpt lat="49.95089" lon="4.15063">
        <ele>249.2</ele>
        <time>2024-04-01T09:35:08Z</time>
      </trkpt>
      <trkpt lat="49.95095" lon="4.15067">
        <ele>249</ele>
        <time>2024-04-01T09:35:09Z</time>
      </trkpt>
      <trkpt lat="49.95102" lon="4.15071">
        <ele>249.2</ele>
        <time>2024-04-01T09:35:10Z</time>
      </trkpt>
      <trkpt lat="49.95109" lon="4.15075">
        <ele>249.2</ele>
        <time>2024-04-01T09:35:11Z</time>
      </trkpt>
      <trkpt lat="49.95115" lon="4.15079">
        <ele>249.2</ele>
        <time>2024-04-01T09:35:12Z</time>
      </trkpt>
      <trkpt lat="49.95122" lon="4.15083">
        <ele>249.2</ele>
        <time>2024-04-01T09:35:13Z</time>
      </trkpt>
      <trkpt lat="49.95128" lon="4.15087">
        <ele>249.2</ele>
        <time>2024-04-01T09:35:14Z</time>
      </trkpt>
      <trkpt lat="49.95135" lon="4.15091">
        <ele>249.2</ele>
        <time>2024-04-01T09:35:15Z</time>
      </trkpt>
      <trkpt lat="49.95141" lon="4.15095">
        <ele>249.2</ele>
        <time>2024-04-01T09:35:16Z</time>
      </trkpt>
      <trkpt lat="49.95148" lon="4.151">
        <ele>249.2</ele>
        <time>2024-04-01T09:35:17Z</time>
      </trkpt>
      <trkpt lat="49.95154" lon="4.15104">
        <ele>249.2</ele>
        <time>2024-04-01T09:35:18Z</time>
      </trkpt>
      <trkpt lat="49.95161" lon="4.15107">
        <ele>249.2</ele>
        <time>2024-04-01T09:35:19Z</time>
      </trkpt>
      <trkpt lat="49.95167" lon="4.15111">
        <ele>249</ele>
        <time>2024-04-01T09:35:20Z</time>
      </trkpt>
      <trkpt lat="49.95173" lon="4.15115">
        <ele>249</ele>
        <time>2024-04-01T09:35:21Z</time>
      </trkpt>
      <trkpt lat="49.9518" lon="4.15119">
        <ele>249.2</ele>
        <time>2024-04-01T09:35:22Z</time>
      </trkpt>
      <trkpt lat="49.95186" lon="4.15123">
        <ele>249</ele>
        <time>2024-04-01T09:35:23Z</time>
      </trkpt>
      <trkpt lat="49.95193" lon="4.15127">
        <ele>249</ele>
        <time>2024-04-01T09:35:24Z</time>
      </trkpt>
      <trkpt lat="49.952" lon="4.15132">
        <ele>249</ele>
        <time>2024-04-01T09:35:25Z</time>
      </trkpt>
      <trkpt lat="49.95207" lon="4.15136">
        <ele>249</ele>
        <time>2024-04-01T09:35:26Z</time>
      </trkpt>
      <trkpt lat="49.95213" lon="4.1514">
        <ele>249</ele>
        <time>2024-04-01T09:35:27Z</time>
      </trkpt>
      <trkpt lat="49.95221" lon="4.15145">
        <ele>249</ele>
        <time>2024-04-01T09:35:28Z</time>
      </trkpt>
      <trkpt lat="49.95228" lon="4.1515">
        <ele>249</ele>
        <time>2024-04-01T09:35:29Z</time>
      </trkpt>
      <trkpt lat="49.95235" lon="4.15154">
        <ele>248.8</ele>
        <time>2024-04-01T09:35:30Z</time>
      </trkpt>
      <trkpt lat="49.95242" lon="4.15158">
        <ele>248.6</ele>
        <time>2024-04-01T09:35:31Z</time>
      </trkpt>
      <trkpt lat="49.9525" lon="4.15163">
        <ele>248.6</ele>
        <time>2024-04-01T09:35:32Z</time>
      </trkpt>
      <trkpt lat="49.95257" lon="4.15168">
        <ele>248.6</ele>
        <time>2024-04-01T09:35:33Z</time>
      </trkpt>
      <trkpt lat="49.95265" lon="4.15174">
        <ele>248.4</ele>
        <time>2024-04-01T09:35:34Z</time>
      </trkpt>
      <trkpt lat="49.95274" lon="4.15179">
        <ele>248.4</ele>
        <time>2024-04-01T09:35:35Z</time>
      </trkpt>
      <trkpt lat="49.95282" lon="4.15185">
        <ele>248.4</ele>
        <time>2024-04-01T09:35:36Z</time>
      </trkpt>
      <trkpt lat="49.95291" lon="4.15191">
        <ele>248.2</ele>
        <time>2024-04-01T09:35:37Z</time>
      </trkpt>
      <trkpt lat="49.95299" lon="4.15197">
        <ele>248.2</ele>
        <time>2024-04-01T09:35:38Z</time>
      </trkpt>
      <trkpt lat="49.95307" lon="4.15202">
        <ele>248</ele>
        <time>2024-04-01T09:35:39Z</time>
      </trkpt>
      <trkpt lat="49.95315" lon="4.15207">
        <ele>247.8</ele>
        <time>2024-04-01T09:35:40Z</time>
      </trkpt>
      <trkpt lat="49.95322" lon="4.15212">
        <ele>247.8</ele>
        <time>2024-04-01T09:35:41Z</time>
      </trkpt>
      <trkpt lat="49.9533" lon="4.15217">
        <ele>247.8</ele>
        <time>2024-04-01T09:35:42Z</time>
      </trkpt>
      <trkpt lat="49.95337" lon="4.15222">
        <ele>247.8</ele>
        <time>2024-04-01T09:35:43Z</time>
      </trkpt>
      <trkpt lat="49.95344" lon="4.15227">
        <ele>248</ele>
        <time>2024-04-01T09:35:44Z</time>
      </trkpt>
      <trkpt lat="49.95351" lon="4.15232">
        <ele>247.8</ele>
        <time>2024-04-01T09:35:45Z</time>
      </trkpt>
      <trkpt lat="49.95359" lon="4.15237">
        <ele>247.8</ele>
        <time>2024-04-01T09:35:46Z</time>
      </trkpt>
      <trkpt lat="49.95365" lon="4.15242">
        <ele>247.8</ele>
        <time>2024-04-01T09:35:47Z</time>
      </trkpt>
      <trkpt lat="49.95372" lon="4.15246">
        <ele>247.8</ele>
        <time>2024-04-01T09:35:48Z</time>
      </trkpt>
      <trkpt lat="49.95379" lon="4.15251">
        <ele>247.8</ele>
        <time>2024-04-01T09:35:49Z</time>
      </trkpt>
      <trkpt lat="49.95386" lon="4.15256">
        <ele>247.8</ele>
        <time>2024-04-01T09:35:50Z</time>
      </trkpt>
      <trkpt lat="49.95392" lon="4.1526">
        <ele>247.8</ele>
        <time>2024-04-01T09:35:51Z</time>
      </trkpt>
      <trkpt lat="49.95399" lon="4.15265">
        <ele>247.8</ele>
        <time>2024-04-01T09:35:52Z</time>
      </trkpt>
      <trkpt lat="49.95406" lon="4.15269">
        <ele>248</ele>
        <time>2024-04-01T09:35:53Z</time>
      </trkpt>
      <trkpt lat="49.95412" lon="4.15274">
        <ele>248.2</ele>
        <time>2024-04-01T09:35:54Z</time>
      </trkpt>
      <trkpt lat="49.95419" lon="4.15278">
        <ele>248.6</ele>
        <time>2024-04-01T09:35:55Z</time>
      </trkpt>
      <trkpt lat="49.95425" lon="4.15283">
        <ele>248.8</ele>
        <time>2024-04-01T09:35:56Z</time>
      </trkpt>
      <trkpt lat="49.95432" lon="4.15287">
        <ele>249</ele>
        <time>2024-04-01T09:35:57Z</time>
      </trkpt>
      <trkpt lat="49.95439" lon="4.15292">
        <ele>249.2</ele>
        <time>2024-04-01T09:35:58Z</time>
      </trkpt>
      <trkpt lat="49.95446" lon="4.15296">
        <ele>249.4</ele>
        <time>2024-04-01T09:35:59Z</time>
      </trkpt>
      <trkpt lat="49.95453" lon="4.15301">
        <ele>249.4</ele>
        <time>2024-04-01T09:36:00Z</time>
      </trkpt>
      <trkpt lat="49.95459" lon="4.15306">
        <ele>249.2</ele>
        <time>2024-04-01T09:36:01Z</time>
      </trkpt>
      <trkpt lat="49.95466" lon="4.1531">
        <ele>249.6</ele>
        <time>2024-04-01T09:36:02Z</time>
      </trkpt>
      <trkpt lat="49.95473" lon="4.15315">
        <ele>249.6</ele>
        <time>2024-04-01T09:36:03Z</time>
      </trkpt>
      <trkpt lat="49.9548" lon="4.15319">
        <ele>249.8</ele>
        <time>2024-04-01T09:36:04Z</time>
      </trkpt>
      <trkpt lat="49.95487" lon="4.15324">
        <ele>249.8</ele>
        <time>2024-04-01T09:36:05Z</time>
      </trkpt>
      <trkpt lat="49.95494" lon="4.15329">
        <ele>249.8</ele>
        <time>2024-04-01T09:36:06Z</time>
      </trkpt>
      <trkpt lat="49.95501" lon="4.15333">
        <ele>250</ele>
        <time>2024-04-01T09:36:07Z</time>
      </trkpt>
      <trkpt lat="49.95508" lon="4.15338">
        <ele>250.2</ele>
        <time>2024-04-01T09:36:08Z</time>
      </trkpt>
      <trkpt lat="49.95515" lon="4.15342">
        <ele>250.2</ele>
        <time>2024-04-01T09:36:09Z</time>
      </trkpt>
      <trkpt lat="49.95522" lon="4.15347">
        <ele>250.4</ele>
        <time>2024-04-01T09:36:10Z</time>
      </trkpt>
      <trkpt lat="49.95528" lon="4.15352">
        <ele>250.2</ele>
        <time>2024-04-01T09:36:11Z</time>
      </trkpt>
      <trkpt lat="49.95536" lon="4.15357">
        <ele>250.4</ele>
        <time>2024-04-01T09:36:12Z</time>
      </trkpt>
      <trkpt lat="49.95543" lon="4.15362">
        <ele>250.2</ele>
        <time>2024-04-01T09:36:13Z</time>
      </trkpt>
      <trkpt lat="49.95551" lon="4.15367">
        <ele>250</ele>
        <time>2024-04-01T09:36:14Z</time>
      </trkpt>
      <trkpt lat="49.95558" lon="4.15372">
        <ele>250</ele>
        <time>2024-04-01T09:36:15Z</time>
      </trkpt>
      <trkpt lat="49.95566" lon="4.15377">
        <ele>250</ele>
        <time>2024-04-01T09:36:16Z</time>
      </trkpt>
      <trkpt lat="49.95574" lon="4.15382">
        <ele>249.8</ele>
        <time>2024-04-01T09:36:17Z</time>
      </trkpt>
      <trkpt lat="49.95582" lon="4.15388">
        <ele>249.6</ele>
        <time>2024-04-01T09:36:18Z</time>
      </trkpt>
      <trkpt lat="49.9559" lon="4.15393">
        <ele>249.6</ele>
        <time>2024-04-01T09:36:19Z</time>
      </trkpt>
      <trkpt lat="49.95598" lon="4.15398">
        <ele>249.6</ele>
        <time>2024-04-01T09:36:20Z</time>
      </trkpt>
      <trkpt lat="49.95606" lon="4.15404">
        <ele>249.6</ele>
        <time>2024-04-01T09:36:21Z</time>
      </trkpt>
      <trkpt lat="49.95613" lon="4.15409">
        <ele>249.4</ele>
        <time>2024-04-01T09:36:22Z</time>
      </trkpt>
      <trkpt lat="49.95621" lon="4.15414">
        <ele>249.2</ele>
        <time>2024-04-01T09:36:23Z</time>
      </trkpt>
      <trkpt lat="49.9563" lon="4.1542">
        <ele>248.8</ele>
        <time>2024-04-01T09:36:24Z</time>
      </trkpt>
      <trkpt lat="49.95638" lon="4.15425">
        <ele>248.2</ele>
        <time>2024-04-01T09:36:25Z</time>
      </trkpt>
      <trkpt lat="49.95646" lon="4.15431">
        <ele>248</ele>
        <time>2024-04-01T09:36:26Z</time>
      </trkpt>
      <trkpt lat="49.95654" lon="4.15436">
        <ele>247.6</ele>
        <time>2024-04-01T09:36:27Z</time>
      </trkpt>
      <trkpt lat="49.95663" lon="4.15442">
        <ele>247.6</ele>
        <time>2024-04-01T09:36:28Z</time>
      </trkpt>
      <trkpt lat="49.95671" lon="4.15447">
        <ele>247.4</ele>
        <time>2024-04-01T09:36:29Z</time>
      </trkpt>
      <trkpt lat="49.95679" lon="4.15453">
        <ele>247</ele>
        <time>2024-04-01T09:36:30Z</time>
      </trkpt>
      <trkpt lat="49.95687" lon="4.15458">
        <ele>247</ele>
        <time>2024-04-01T09:36:31Z</time>
      </trkpt>
      <trkpt lat="49.95695" lon="4.15464">
        <ele>247</ele>
        <time>2024-04-01T09:36:32Z</time>
      </trkpt>
      <trkpt lat="49.95704" lon="4.15469">
        <ele>247</ele>
        <time>2024-04-01T09:36:33Z</time>
      </trkpt>
      <trkpt lat="49.95712" lon="4.15475">
        <ele>247</ele>
        <time>2024-04-01T09:36:34Z</time>
      </trkpt>
      <trkpt lat="49.9572" lon="4.1548">
        <ele>246.6</ele>
        <time>2024-04-01T09:36:35Z</time>
      </trkpt>
      <trkpt lat="49.95728" lon="4.15485">
        <ele>246.8</ele>
        <time>2024-04-01T09:36:36Z</time>
      </trkpt>
      <trkpt lat="49.95736" lon="4.1549">
        <ele>246.6</ele>
        <time>2024-04-01T09:36:37Z</time>
      </trkpt>
      <trkpt lat="49.95744" lon="4.15495">
        <ele>246.4</ele>
        <time>2024-04-01T09:36:38Z</time>
      </trkpt>
      <trkpt lat="49.95752" lon="4.15501">
        <ele>246.4</ele>
        <time>2024-04-01T09:36:39Z</time>
      </trkpt>
      <trkpt lat="49.9576" lon="4.15506">
        <ele>246.2</ele>
        <time>2024-04-01T09:36:40Z</time>
      </trkpt>
      <trkpt lat="49.95768" lon="4.15512">
        <ele>246.2</ele>
        <time>2024-04-01T09:36:41Z</time>
      </trkpt>
      <trkpt lat="49.95776" lon="4.15517">
        <ele>246.2</ele>
        <time>2024-04-01T09:36:42Z</time>
      </trkpt>
      <trkpt lat="49.95784" lon="4.15522">
        <ele>246.4</ele>
        <time>2024-04-01T09:36:43Z</time>
      </trkpt>
      <trkpt lat="49.95791" lon="4.15527">
        <ele>246.2</ele>
        <time>2024-04-01T09:36:44Z</time>
      </trkpt>
      <trkpt lat="49.95799" lon="4.15533">
        <ele>246.2</ele>
        <time>2024-04-01T09:36:45Z</time>
      </trkpt>
      <trkpt lat="49.95807" lon="4.15538">
        <ele>246.2</ele>
        <time>2024-04-01T09:36:46Z</time>
      </trkpt>
      <trkpt lat="49.95814" lon="4.15543">
        <ele>246.2</ele>
        <time>2024-04-01T09:36:47Z</time>
      </trkpt>
      <trkpt lat="49.95822" lon="4.15549">
        <ele>246.2</ele>
        <time>2024-04-01T09:36:48Z</time>
      </trkpt>
      <trkpt lat="49.95829" lon="4.15554">
        <ele>246.4</ele>
        <time>2024-04-01T09:36:49Z</time>
      </trkpt>
      <trkpt lat="49.95837" lon="4.15558">
        <ele>246.2</ele>
        <time>2024-04-01T09:36:50Z</time>
      </trkpt>
      <trkpt lat="49.95844" lon="4.15563">
        <ele>246.4</ele>
        <time>2024-04-01T09:36:51Z</time>
      </trkpt>
      <trkpt lat="49.95852" lon="4.15568">
        <ele>246.4</ele>
        <time>2024-04-01T09:36:52Z</time>
      </trkpt>
      <trkpt lat="49.95859" lon="4.15573">
        <ele>246.2</ele>
        <time>2024-04-01T09:36:53Z</time>
      </trkpt>
      <trkpt lat="49.95866" lon="4.15578">
        <ele>246.4</ele>
        <time>2024-04-01T09:36:54Z</time>
      </trkpt>
      <trkpt lat="49.95873" lon="4.15582">
        <ele>246.4</ele>
        <time>2024-04-01T09:36:55Z</time>
      </trkpt>
      <trkpt lat="49.9588" lon="4.15587">
        <ele>246.4</ele>
        <time>2024-04-01T09:36:56Z</time>
      </trkpt>
      <trkpt lat="49.95887" lon="4.15591">
        <ele>246.4</ele>
        <time>2024-04-01T09:36:57Z</time>
      </trkpt>
      <trkpt lat="49.95894" lon="4.15596">
        <ele>246.8</ele>
        <time>2024-04-01T09:36:58Z</time>
      </trkpt>
      <trkpt lat="49.95901" lon="4.156">
        <ele>247</ele>
        <time>2024-04-01T09:36:59Z</time>
      </trkpt>
      <trkpt lat="49.95907" lon="4.15604">
        <ele>247</ele>
        <time>2024-04-01T09:37:00Z</time>
      </trkpt>
      <trkpt lat="49.95914" lon="4.15608">
        <ele>247.4</ele>
        <time>2024-04-01T09:37:01Z</time>
      </trkpt>
      <trkpt lat="49.95921" lon="4.15613">
        <ele>247.4</ele>
        <time>2024-04-01T09:37:02Z</time>
      </trkpt>
      <trkpt lat="49.95927" lon="4.15617">
        <ele>247.4</ele>
        <time>2024-04-01T09:37:03Z</time>
      </trkpt>
      <trkpt lat="49.95934" lon="4.15622">
        <ele>247.6</ele>
        <time>2024-04-01T09:37:04Z</time>
      </trkpt>
      <trkpt lat="49.95941" lon="4.15626">
        <ele>247.8</ele>
        <time>2024-04-01T09:37:05Z</time>
      </trkpt>
      <trkpt lat="49.95947" lon="4.15631">
        <ele>248.2</ele>
        <time>2024-04-01T09:37:06Z</time>
      </trkpt>
      <trkpt lat="49.95954" lon="4.15635">
        <ele>248.2</ele>
        <time>2024-04-01T09:37:07Z</time>
      </trkpt>
      <trkpt lat="49.95961" lon="4.1564">
        <ele>248.6</ele>
        <time>2024-04-01T09:37:08Z</time>
      </trkpt>
      <trkpt lat="49.95967" lon="4.15644">
        <ele>248.6</ele>
        <time>2024-04-01T09:37:09Z</time>
      </trkpt>
      <trkpt lat="49.95974" lon="4.15648">
        <ele>248.8</ele>
        <time>2024-04-01T09:37:10Z</time>
      </trkpt>
      <trkpt lat="49.9598" lon="4.15653">
        <ele>249</ele>
        <time>2024-04-01T09:37:11Z</time>
      </trkpt>
      <trkpt lat="49.95987" lon="4.15657">
        <ele>249.2</ele>
        <time>2024-04-01T09:37:12Z</time>
      </trkpt>
      <trkpt lat="49.95993" lon="4.15661">
        <ele>249.6</ele>
        <time>2024-04-01T09:37:13Z</time>
      </trkpt>
      <trkpt lat="49.96" lon="4.15665">
        <ele>249.8</ele>
        <time>2024-04-01T09:37:14Z</time>
      </trkpt>
      <trkpt lat="49.96006" lon="4.15669">
        <ele>249.8</ele>
        <time>2024-04-01T09:37:15Z</time>
      </trkpt>
      <trkpt lat="49.96012" lon="4.15673">
        <ele>250</ele>
        <time>2024-04-01T09:37:16Z</time>
      </trkpt>
      <trkpt lat="49.96019" lon="4.15677">
        <ele>250</ele>
        <time>2024-04-01T09:37:17Z</time>
      </trkpt>
      <trkpt lat="49.96025" lon="4.15682">
        <ele>250</ele>
        <time>2024-04-01T09:37:18Z</time>
      </trkpt>
      <trkpt lat="49.9603" lon="4.15685">
        <ele>250.2</ele>
        <time>2024-04-01T09:37:19Z</time>
      </trkpt>
      <trkpt lat="49.96036" lon="4.15689">
        <ele>250.2</ele>
        <time>2024-04-01T09:37:20Z</time>
      </trkpt>
      <trkpt lat="49.96042" lon="4.15693">
        <ele>250.4</ele>
        <time>2024-04-01T09:37:21Z</time>
      </trkpt>
      <trkpt lat="49.96048" lon="4.15697">
        <ele>250.6</ele>
        <time>2024-04-01T09:37:22Z</time>
      </trkpt>
      <trkpt lat="49.96054" lon="4.15701">
        <ele>250.8</ele>
        <time>2024-04-01T09:37:23Z</time>
      </trkpt>
      <trkpt lat="49.9606" lon="4.15705">
        <ele>251.2</ele>
        <time>2024-04-01T09:37:24Z</time>
      </trkpt>
      <trkpt lat="49.96066" lon="4.15709">
        <ele>251.2</ele>
        <time>2024-04-01T09:37:25Z</time>
      </trkpt>
      <trkpt lat="49.96072" lon="4.15714">
        <ele>251.6</ele>
        <time>2024-04-01T09:37:26Z</time>
      </trkpt>
      <trkpt lat="49.96079" lon="4.15718">
        <ele>251.6</ele>
        <time>2024-04-01T09:37:27Z</time>
      </trkpt>
      <trkpt lat="49.96086" lon="4.15723">
        <ele>251.6</ele>
        <time>2024-04-01T09:37:28Z</time>
      </trkpt>
      <trkpt lat="49.96093" lon="4.15727">
        <ele>252</ele>
        <time>2024-04-01T09:37:29Z</time>
      </trkpt>
      <trkpt lat="49.961" lon="4.15732">
        <ele>251.8</ele>
        <time>2024-04-01T09:37:30Z</time>
      </trkpt>
      <trkpt lat="49.96107" lon="4.15737">
        <ele>252.2</ele>
        <time>2024-04-01T09:37:31Z</time>
      </trkpt>
      <trkpt lat="49.96115" lon="4.15742">
        <ele>252.2</ele>
        <time>2024-04-01T09:37:32Z</time>
      </trkpt>
      <trkpt lat="49.96122" lon="4.15747">
        <ele>252.4</ele>
        <time>2024-04-01T09:37:33Z</time>
      </trkpt>
      <trkpt lat="49.9613" lon="4.15751">
        <ele>252.2</ele>
        <time>2024-04-01T09:37:34Z</time>
      </trkpt>
      <trkpt lat="49.96138" lon="4.15756">
        <ele>252.2</ele>
        <time>2024-04-01T09:37:35Z</time>
      </trkpt>
      <trkpt lat="49.96146" lon="4.15762">
        <ele>252.2</ele>
        <time>2024-04-01T09:37:36Z</time>
      </trkpt>
      <trkpt lat="49.96154" lon="4.15768">
        <ele>252.2</ele>
        <time>2024-04-01T09:37:37Z</time>
      </trkpt>
      <trkpt lat="49.96162" lon="4.15774">
        <ele>252.2</ele>
        <time>2024-04-01T09:37:38Z</time>
      </trkpt>
      <trkpt lat="49.9617" lon="4.15779">
        <ele>252.2</ele>
        <time>2024-04-01T09:37:39Z</time>
      </trkpt>
      <trkpt lat="49.96178" lon="4.15785">
        <ele>252</ele>
        <time>2024-04-01T09:37:40Z</time>
      </trkpt>
      <trkpt lat="49.96186" lon="4.15791">
        <ele>252.2</ele>
        <time>2024-04-01T09:37:41Z</time>
      </trkpt>
      <trkpt lat="49.96194" lon="4.15796">
        <ele>251.8</ele>
        <time>2024-04-01T09:37:42Z</time>
      </trkpt>
      <trkpt lat="49.96202" lon="4.15803">
        <ele>251.8</ele>
        <time>2024-04-01T09:37:43Z</time>
      </trkpt>
      <trkpt lat="49.9621" lon="4.15809">
        <ele>251.8</ele>
        <time>2024-04-01T09:37:44Z</time>
      </trkpt>
      <trkpt lat="49.96218" lon="4.15814">
        <ele>251.6</ele>
        <time>2024-04-01T09:37:45Z</time>
      </trkpt>
      <trkpt lat="49.96227" lon="4.1582">
        <ele>251</ele>
        <time>2024-04-01T09:37:46Z</time>
      </trkpt>
      <trkpt lat="49.96235" lon="4.15826">
        <ele>250.8</ele>
        <time>2024-04-01T09:37:47Z</time>
      </trkpt>
      <trkpt lat="49.96242" lon="4.15831">
        <ele>250.6</ele>
        <time>2024-04-01T09:37:48Z</time>
      </trkpt>
      <trkpt lat="49.9625" lon="4.15836">
        <ele>250.6</ele>
        <time>2024-04-01T09:37:49Z</time>
      </trkpt>
      <trkpt lat="49.96257" lon="4.15841">
        <ele>250.4</ele>
        <time>2024-04-01T09:37:50Z</time>
      </trkpt>
      <trkpt lat="49.96264" lon="4.15845">
        <ele>250.2</ele>
        <time>2024-04-01T09:37:51Z</time>
      </trkpt>
      <trkpt lat="49.96271" lon="4.1585">
        <ele>250</ele>
        <time>2024-04-01T09:37:52Z</time>
      </trkpt>
      <trkpt lat="49.96278" lon="4.15854">
        <ele>250</ele>
        <time>2024-04-01T09:37:53Z</time>
      </trkpt>
      <trkpt lat="49.96285" lon="4.15859">
        <ele>250</ele>
        <time>2024-04-01T09:37:54Z</time>
      </trkpt>
      <trkpt lat="49.96291" lon="4.15864">
        <ele>250.2</ele>
        <time>2024-04-01T09:37:55Z</time>
      </trkpt>
      <trkpt lat="49.96298" lon="4.15868">
        <ele>250</ele>
        <time>2024-04-01T09:37:56Z</time>
      </trkpt>
      <trkpt lat="49.96304" lon="4.15872">
        <ele>250</ele>
        <time>2024-04-01T09:37:57Z</time>
      </trkpt>
      <trkpt lat="49.96311" lon="4.15877">
        <ele>250</ele>
        <time>2024-04-01T09:37:58Z</time>
      </trkpt>
      <trkpt lat="49.96317" lon="4.15881">
        <ele>250</ele>
        <time>2024-04-01T09:37:59Z</time>
      </trkpt>
      <trkpt lat="49.96324" lon="4.15885">
        <ele>250</ele>
        <time>2024-04-01T09:38:00Z</time>
      </trkpt>
      <trkpt lat="49.9633" lon="4.1589">
        <ele>250.2</ele>
        <time>2024-04-01T09:38:01Z</time>
      </trkpt>
      <trkpt lat="49.96337" lon="4.15894">
        <ele>250.2</ele>
        <time>2024-04-01T09:38:02Z</time>
      </trkpt>
      <trkpt lat="49.96343" lon="4.15898">
        <ele>250.2</ele>
        <time>2024-04-01T09:38:03Z</time>
      </trkpt>
      <trkpt lat="49.96349" lon="4.15903">
        <ele>250.4</ele>
        <time>2024-04-01T09:38:04Z</time>
      </trkpt>
      <trkpt lat="49.96355" lon="4.15907">
        <ele>250.6</ele>
        <time>2024-04-01T09:38:05Z</time>
      </trkpt>
      <trkpt lat="49.96362" lon="4.15911">
        <ele>251</ele>
        <time>2024-04-01T09:38:06Z</time>
      </trkpt>
      <trkpt lat="49.96368" lon="4.15915">
        <ele>251.2</ele>
        <time>2024-04-01T09:38:07Z</time>
      </trkpt>
      <trkpt lat="49.96374" lon="4.1592">
        <ele>251.6</ele>
        <time>2024-04-01T09:38:08Z</time>
      </trkpt>
      <trkpt lat="49.9638" lon="4.15924">
        <ele>251.8</ele>
        <time>2024-04-01T09:38:09Z</time>
      </trkpt>
      <trkpt lat="49.96386" lon="4.15928">
        <ele>252</ele>
        <time>2024-04-01T09:38:10Z</time>
      </trkpt>
      <trkpt lat="49.96393" lon="4.15932">
        <ele>252.4</ele>
        <time>2024-04-01T09:38:11Z</time>
      </trkpt>
      <trkpt lat="49.96399" lon="4.15936">
        <ele>252.8</ele>
        <time>2024-04-01T09:38:12Z</time>
      </trkpt>
      <trkpt lat="49.96406" lon="4.1594">
        <ele>253</ele>
        <time>2024-04-01T09:38:13Z</time>
      </trkpt>
      <trkpt lat="49.96412" lon="4.15944">
        <ele>253</ele>
        <time>2024-04-01T09:38:14Z</time>
      </trkpt>
      <trkpt lat="49.96419" lon="4.15949">
        <ele>253</ele>
        <time>2024-04-01T09:38:15Z</time>
      </trkpt>
      <trkpt lat="49.96426" lon="4.15953">
        <ele>253.4</ele>
        <time>2024-04-01T09:38:16Z</time>
      </trkpt>
      <trkpt lat="49.96433" lon="4.15958">
        <ele>253.4</ele>
        <time>2024-04-01T09:38:17Z</time>
      </trkpt>
      <trkpt lat="49.9644" lon="4.15963">
        <ele>253.6</ele>
        <time>2024-04-01T09:38:18Z</time>
      </trkpt>
      <trkpt lat="49.96447" lon="4.15968">
        <ele>253.8</ele>
        <time>2024-04-01T09:38:19Z</time>
      </trkpt>
      <trkpt lat="49.96454" lon="4.15972">
        <ele>253.8</ele>
        <time>2024-04-01T09:38:20Z</time>
      </trkpt>
      <trkpt lat="49.96461" lon="4.15977">
        <ele>253.8</ele>
        <time>2024-04-01T09:38:21Z</time>
      </trkpt>
      <trkpt lat="49.96468" lon="4.15982">
        <ele>253.8</ele>
        <time>2024-04-01T09:38:22Z</time>
      </trkpt>
      <trkpt lat="49.96475" lon="4.15987">
        <ele>254</ele>
        <time>2024-04-01T09:38:23Z</time>
      </trkpt>
      <trkpt lat="49.96482" lon="4.15992">
        <ele>253.8</ele>
        <time>2024-04-01T09:38:24Z</time>
      </trkpt>
      <trkpt lat="49.9649" lon="4.15997">
        <ele>254</ele>
        <time>2024-04-01T09:38:25Z</time>
      </trkpt>
      <trkpt lat="49.96497" lon="4.16002">
        <ele>254</ele>
        <time>2024-04-01T09:38:26Z</time>
      </trkpt>
      <trkpt lat="49.96504" lon="4.16007">
        <ele>254</ele>
        <time>2024-04-01T09:38:27Z</time>
      </trkpt>
      <trkpt lat="49.96512" lon="4.16012">
        <ele>253.8</ele>
        <time>2024-04-01T09:38:28Z</time>
      </trkpt>
      <trkpt lat="49.96519" lon="4.16017">
        <ele>253.6</ele>
        <time>2024-04-01T09:38:29Z</time>
      </trkpt>
      <trkpt lat="49.96527" lon="4.16022">
        <ele>253.6</ele>
        <time>2024-04-01T09:38:30Z</time>
      </trkpt>
      <trkpt lat="49.96534" lon="4.16027">
        <ele>253.6</ele>
        <time>2024-04-01T09:38:31Z</time>
      </trkpt>
      <trkpt lat="49.96542" lon="4.16032">
        <ele>253.6</ele>
        <time>2024-04-01T09:38:32Z</time>
      </trkpt>
      <trkpt lat="49.9655" lon="4.16037">
        <ele>253.2</ele>
        <time>2024-04-01T09:38:33Z</time>
      </trkpt>
      <trkpt lat="49.96557" lon="4.16043">
        <ele>253</ele>
        <time>2024-04-01T09:38:34Z</time>
      </trkpt>
      <trkpt lat="49.96565" lon="4.16048">
        <ele>253</ele>
        <time>2024-04-01T09:38:35Z</time>
      </trkpt>
      <trkpt lat="49.96573" lon="4.16053">
        <ele>252.6</ele>
        <time>2024-04-01T09:38:36Z</time>
      </trkpt>
      <trkpt lat="49.96581" lon="4.16058">
        <ele>252.2</ele>
        <time>2024-04-01T09:38:37Z</time>
      </trkpt>
      <trkpt lat="49.96588" lon="4.16063">
        <ele>252</ele>
        <time>2024-04-01T09:38:38Z</time>
      </trkpt>
      <trkpt lat="49.96596" lon="4.16068">
        <ele>252</ele>
        <time>2024-04-01T09:38:39Z</time>
      </trkpt>
      <trkpt lat="49.96604" lon="4.16073">
        <ele>251.8</ele>
        <time>2024-04-01T09:38:40Z</time>
      </trkpt>
      <trkpt lat="49.96611" lon="4.16078">
        <ele>251.6</ele>
        <time>2024-04-01T09:38:41Z</time>
      </trkpt>
      <trkpt lat="49.96618" lon="4.16083">
        <ele>251.6</ele>
        <time>2024-04-01T09:38:42Z</time>
      </trkpt>
      <trkpt lat="49.96626" lon="4.16088">
        <ele>251.6</ele>
        <time>2024-04-01T09:38:43Z</time>
      </trkpt>
      <trkpt lat="49.96633" lon="4.16093">
        <ele>251.6</ele>
        <time>2024-04-01T09:38:44Z</time>
      </trkpt>
      <trkpt lat="49.9664" lon="4.16098">
        <ele>251.6</ele>
        <time>2024-04-01T09:38:45Z</time>
      </trkpt>
      <trkpt lat="49.96648" lon="4.16103">
        <ele>251.8</ele>
        <time>2024-04-01T09:38:46Z</time>
      </trkpt>
      <trkpt lat="49.96655" lon="4.16107">
        <ele>251.6</ele>
        <time>2024-04-01T09:38:47Z</time>
      </trkpt>
      <trkpt lat="49.96662" lon="4.16112">
        <ele>251.6</ele>
        <time>2024-04-01T09:38:48Z</time>
      </trkpt>
      <trkpt lat="49.96669" lon="4.16117">
        <ele>251.6</ele>
        <time>2024-04-01T09:38:49Z</time>
      </trkpt>
      <trkpt lat="49.96676" lon="4.16122">
        <ele>251.6</ele>
        <time>2024-04-01T09:38:50Z</time>
      </trkpt>
      <trkpt lat="49.96683" lon="4.16126">
        <ele>251.6</ele>
        <time>2024-04-01T09:38:51Z</time>
      </trkpt>
      <trkpt lat="49.9669" lon="4.16131">
        <ele>251.6</ele>
        <time>2024-04-01T09:38:52Z</time>
      </trkpt>
      <trkpt lat="49.96697" lon="4.16136">
        <ele>251.8</ele>
        <time>2024-04-01T09:38:53Z</time>
      </trkpt>
      <trkpt lat="49.96704" lon="4.1614">
        <ele>251.8</ele>
        <time>2024-04-01T09:38:54Z</time>
      </trkpt>
      <trkpt lat="49.96711" lon="4.16145">
        <ele>251.8</ele>
        <time>2024-04-01T09:38:55Z</time>
      </trkpt>
      <trkpt lat="49.96718" lon="4.1615">
        <ele>251.8</ele>
        <time>2024-04-01T09:38:56Z</time>
      </trkpt>
      <trkpt lat="49.96725" lon="4.16155">
        <ele>251.8</ele>
        <time>2024-04-01T09:38:57Z</time>
      </trkpt>
      <trkpt lat="49.96732" lon="4.16159">
        <ele>252</ele>
        <time>2024-04-01T09:38:58Z</time>
      </trkpt>
      <trkpt lat="49.9674" lon="4.16164">
        <ele>252</ele>
        <time>2024-04-01T09:38:59Z</time>
      </trkpt>
      <trkpt lat="49.96747" lon="4.16169">
        <ele>252</ele>
        <time>2024-04-01T09:39:00Z</time>
      </trkpt>
      <trkpt lat="49.96754" lon="4.16173">
        <ele>252</ele>
        <time>2024-04-01T09:39:01Z</time>
      </trkpt>
      <trkpt lat="49.96761" lon="4.16178">
        <ele>252</ele>
        <time>2024-04-01T09:39:02Z</time>
      </trkpt>
      <trkpt lat="49.96768" lon="4.16183">
        <ele>252.2</ele>
        <time>2024-04-01T09:39:03Z</time>
      </trkpt>
      <trkpt lat="49.96775" lon="4.16187">
        <ele>252.2</ele>
        <time>2024-04-01T09:39:04Z</time>
      </trkpt>
      <trkpt lat="49.96781" lon="4.16192">
        <ele>252</ele>
        <time>2024-04-01T09:39:05Z</time>
      </trkpt>
      <trkpt lat="49.96788" lon="4.16196">
        <ele>252.2</ele>
        <time>2024-04-01T09:39:06Z</time>
      </trkpt>
      <trkpt lat="49.96794" lon="4.16201">
        <ele>252.2</ele>
        <time>2024-04-01T09:39:07Z</time>
      </trkpt>
      <trkpt lat="49.96801" lon="4.16205">
        <ele>252.4</ele>
        <time>2024-04-01T09:39:08Z</time>
      </trkpt>
      <trkpt lat="49.96807" lon="4.16209">
        <ele>252.4</ele>
        <time>2024-04-01T09:39:09Z</time>
      </trkpt>
      <trkpt lat="49.96814" lon="4.16213">
        <ele>252.6</ele>
        <time>2024-04-01T09:39:10Z</time>
      </trkpt>
      <trkpt lat="49.9682" lon="4.16217">
        <ele>252.6</ele>
        <time>2024-04-01T09:39:11Z</time>
      </trkpt>
      <trkpt lat="49.96826" lon="4.16221">
        <ele>252.8</ele>
        <time>2024-04-01T09:39:12Z</time>
      </trkpt>
      <trkpt lat="49.96833" lon="4.16225">
        <ele>252.8</ele>
        <time>2024-04-01T09:39:13Z</time>
      </trkpt>
      <trkpt lat="49.96839" lon="4.16229">
        <ele>252.8</ele>
        <time>2024-04-01T09:39:14Z</time>
      </trkpt>
      <trkpt lat="49.96846" lon="4.16233">
        <ele>253</ele>
        <time>2024-04-01T09:39:15Z</time>
      </trkpt>
      <trkpt lat="49.96852" lon="4.16237">
        <ele>253</ele>
        <time>2024-04-01T09:39:16Z</time>
      </trkpt>
      <trkpt lat="49.96858" lon="4.16241">
        <ele>253</ele>
        <time>2024-04-01T09:39:17Z</time>
      </trkpt>
      <trkpt lat="49.96865" lon="4.16245">
        <ele>253.2</ele>
        <time>2024-04-01T09:39:18Z</time>
      </trkpt>
      <trkpt lat="49.96872" lon="4.16249">
        <ele>253.2</ele>
        <time>2024-04-01T09:39:19Z</time>
      </trkpt>
      <trkpt lat="49.96878" lon="4.16253">
        <ele>253.2</ele>
        <time>2024-04-01T09:39:20Z</time>
      </trkpt>
      <trkpt lat="49.96885" lon="4.16258">
        <ele>253.6</ele>
        <time>2024-04-01T09:39:21Z</time>
      </trkpt>
      <trkpt lat="49.96891" lon="4.16262">
        <ele>253.6</ele>
        <time>2024-04-01T09:39:22Z</time>
      </trkpt>
      <trkpt lat="49.96898" lon="4.16267">
        <ele>254</ele>
        <time>2024-04-01T09:39:23Z</time>
      </trkpt>
      <trkpt lat="49.96904" lon="4.16271">
        <ele>254</ele>
        <time>2024-04-01T09:39:24Z</time>
      </trkpt>
      <trkpt lat="49.9691" lon="4.16276">
        <ele>254</ele>
        <time>2024-04-01T09:39:25Z</time>
      </trkpt>
      <trkpt lat="49.96917" lon="4.1628">
        <ele>254.2</ele>
        <time>2024-04-01T09:39:26Z</time>
      </trkpt>
      <trkpt lat="49.96924" lon="4.16284">
        <ele>254.8</ele>
        <time>2024-04-01T09:39:27Z</time>
      </trkpt>
      <trkpt lat="49.96931" lon="4.16289">
        <ele>254.8</ele>
        <time>2024-04-01T09:39:28Z</time>
      </trkpt>
      <trkpt lat="49.96938" lon="4.16294">
        <ele>255</ele>
        <time>2024-04-01T09:39:29Z</time>
      </trkpt>
      <trkpt lat="49.96944" lon="4.16298">
        <ele>255</ele>
        <time>2024-04-01T09:39:30Z</time>
      </trkpt>
      <trkpt lat="49.96951" lon="4.16303">
        <ele>255.2</ele>
        <time>2024-04-01T09:39:31Z</time>
      </trkpt>
      <trkpt lat="49.96957" lon="4.16307">
        <ele>255.2</ele>
        <time>2024-04-01T09:39:32Z</time>
      </trkpt>
      <trkpt lat="49.96963" lon="4.16311">
        <ele>255.4</ele>
        <time>2024-04-01T09:39:33Z</time>
      </trkpt>
      <trkpt lat="49.9697" lon="4.16315">
        <ele>255.4</ele>
        <time>2024-04-01T09:39:34Z</time>
      </trkpt>
      <trkpt lat="49.96976" lon="4.1632">
        <ele>255.2</ele>
        <time>2024-04-01T09:39:35Z</time>
      </trkpt>
      <trkpt lat="49.96982" lon="4.16324">
        <ele>255.6</ele>
        <time>2024-04-01T09:39:36Z</time>
      </trkpt>
      <trkpt lat="49.96989" lon="4.16329">
        <ele>255.4</ele>
        <time>2024-04-01T09:39:37Z</time>
      </trkpt>
      <trkpt lat="49.96995" lon="4.16333">
        <ele>255.6</ele>
        <time>2024-04-01T09:39:38Z</time>
      </trkpt>
      <trkpt lat="49.97001" lon="4.16337">
        <ele>255.6</ele>
        <time>2024-04-01T09:39:39Z</time>
      </trkpt>
      <trkpt lat="49.97007" lon="4.16341">
        <ele>255.8</ele>
        <time>2024-04-01T09:39:40Z</time>
      </trkpt>
      <trkpt lat="49.97013" lon="4.16345">
        <ele>255.6</ele>
        <time>2024-04-01T09:39:41Z</time>
      </trkpt>
      <trkpt lat="49.9702" lon="4.16349">
        <ele>255.8</ele>
        <time>2024-04-01T09:39:42Z</time>
      </trkpt>
      <trkpt lat="49.97026" lon="4.16354">
        <ele>255.8</ele>
        <time>2024-04-01T09:39:43Z</time>
      </trkpt>
      <trkpt lat="49.97033" lon="4.16358">
        <ele>256</ele>
        <time>2024-04-01T09:39:44Z</time>
      </trkpt>
      <trkpt lat="49.97039" lon="4.16363">
        <ele>256</ele>
        <time>2024-04-01T09:39:45Z</time>
      </trkpt>
      <trkpt lat="49.97045" lon="4.16368">
        <ele>256.2</ele>
        <time>2024-04-01T09:39:46Z</time>
      </trkpt>
      <trkpt lat="49.97052" lon="4.16372">
        <ele>256</ele>
        <time>2024-04-01T09:39:47Z</time>
      </trkpt>
      <trkpt lat="49.97058" lon="4.16375">
        <ele>256.2</ele>
        <time>2024-04-01T09:39:48Z</time>
      </trkpt>
      <trkpt lat="49.97064" lon="4.1638">
        <ele>256</ele>
        <time>2024-04-01T09:39:49Z</time>
      </trkpt>
      <trkpt lat="49.9707" lon="4.16384">
        <ele>256.2</ele>
        <time>2024-04-01T09:39:50Z</time>
      </trkpt>
      <trkpt lat="49.97076" lon="4.16388">
        <ele>256.2</ele>
        <time>2024-04-01T09:39:51Z</time>
      </trkpt>
      <trkpt lat="49.97082" lon="4.16392">
        <ele>256.2</ele>
        <time>2024-04-01T09:39:52Z</time>
      </trkpt>
      <trkpt lat="49.97089" lon="4.16396">
        <ele>256.2</ele>
        <time>2024-04-01T09:39:53Z</time>
      </trkpt>
      <trkpt lat="49.97095" lon="4.164">
        <ele>256.2</ele>
        <time>2024-04-01T09:39:54Z</time>
      </trkpt>
      <trkpt lat="49.97101" lon="4.16404">
        <ele>256.2</ele>
        <time>2024-04-01T09:39:55Z</time>
      </trkpt>
      <trkpt lat="49.97108" lon="4.16408">
        <ele>256.2</ele>
        <time>2024-04-01T09:39:56Z</time>
      </trkpt>
      <trkpt lat="49.97114" lon="4.16413">
        <ele>256.4</ele>
        <time>2024-04-01T09:39:57Z</time>
      </trkpt>
      <trkpt lat="49.97121" lon="4.16417">
        <ele>256.4</ele>
        <time>2024-04-01T09:39:58Z</time>
      </trkpt>
      <trkpt lat="49.97127" lon="4.16422">
        <ele>256.6</ele>
        <time>2024-04-01T09:39:59Z</time>
      </trkpt>
      <trkpt lat="49.97134" lon="4.16426">
        <ele>256.4</ele>
        <time>2024-04-01T09:40:00Z</time>
      </trkpt>
      <trkpt lat="49.9714" lon="4.16431">
        <ele>257</ele>
        <time>2024-04-01T09:40:01Z</time>
      </trkpt>
      <trkpt lat="49.97147" lon="4.16435">
        <ele>257.4</ele>
        <time>2024-04-01T09:40:02Z</time>
      </trkpt>
      <trkpt lat="49.97154" lon="4.16439">
        <ele>258</ele>
        <time>2024-04-01T09:40:03Z</time>
      </trkpt>
      <trkpt lat="49.9716" lon="4.16444">
        <ele>258</ele>
        <time>2024-04-01T09:40:04Z</time>
      </trkpt>
      <trkpt lat="49.97167" lon="4.16448">
        <ele>258.2</ele>
        <time>2024-04-01T09:40:05Z</time>
      </trkpt>
      <trkpt lat="49.97174" lon="4.16453">
        <ele>258</ele>
        <time>2024-04-01T09:40:06Z</time>
      </trkpt>
      <trkpt lat="49.9718" lon="4.16457">
        <ele>258</ele>
        <time>2024-04-01T09:40:07Z</time>
      </trkpt>
      <trkpt lat="49.97187" lon="4.16462">
        <ele>258.2</ele>
        <time>2024-04-01T09:40:08Z</time>
      </trkpt>
      <trkpt lat="49.97193" lon="4.16466">
        <ele>258.2</ele>
        <time>2024-04-01T09:40:09Z</time>
      </trkpt>
      <trkpt lat="49.97199" lon="4.1647">
        <ele>258.2</ele>
        <time>2024-04-01T09:40:10Z</time>
      </trkpt>
      <trkpt lat="49.97206" lon="4.16474">
        <ele>258.2</ele>
        <time>2024-04-01T09:40:11Z</time>
      </trkpt>
      <trkpt lat="49.97213" lon="4.16479">
        <ele>258.2</ele>
        <time>2024-04-01T09:40:12Z</time>
      </trkpt>
      <trkpt lat="49.9722" lon="4.16483">
        <ele>258.2</ele>
        <time>2024-04-01T09:40:13Z</time>
      </trkpt>
      <trkpt lat="49.97228" lon="4.16489">
        <ele>258.2</ele>
        <time>2024-04-01T09:40:14Z</time>
      </trkpt>
      <trkpt lat="49.97235" lon="4.16494">
        <ele>258</ele>
        <time>2024-04-01T09:40:15Z</time>
      </trkpt>
      <trkpt lat="49.97243" lon="4.16499">
        <ele>258</ele>
        <time>2024-04-01T09:40:16Z</time>
      </trkpt>
      <trkpt lat="49.97251" lon="4.16505">
        <ele>257.6</ele>
        <time>2024-04-01T09:40:17Z</time>
      </trkpt>
      <trkpt lat="49.97259" lon="4.16511">
        <ele>257.2</ele>
        <time>2024-04-01T09:40:18Z</time>
      </trkpt>
      <trkpt lat="49.97267" lon="4.16516">
        <ele>256.8</ele>
        <time>2024-04-01T09:40:19Z</time>
      </trkpt>
      <trkpt lat="49.97274" lon="4.16523">
        <ele>256.8</ele>
        <time>2024-04-01T09:40:20Z</time>
      </trkpt>
      <trkpt lat="49.97282" lon="4.1653">
        <ele>256.4</ele>
        <time>2024-04-01T09:40:21Z</time>
      </trkpt>
      <trkpt lat="49.9729" lon="4.16537">
        <ele>255.8</ele>
        <time>2024-04-01T09:40:22Z</time>
      </trkpt>
      <trkpt lat="49.97298" lon="4.16545">
        <ele>255.4</ele>
        <time>2024-04-01T09:40:23Z</time>
      </trkpt>
      <trkpt lat="49.97307" lon="4.16553">
        <ele>255.2</ele>
        <time>2024-04-01T09:40:24Z</time>
      </trkpt>
      <trkpt lat="49.97314" lon="4.16562">
        <ele>255</ele>
        <time>2024-04-01T09:40:25Z</time>
      </trkpt>
      <trkpt lat="49.97322" lon="4.16571">
        <ele>254.8</ele>
        <time>2024-04-01T09:40:26Z</time>
      </trkpt>
      <trkpt lat="49.97329" lon="4.1658">
        <ele>254.6</ele>
        <time>2024-04-01T09:40:27Z</time>
      </trkpt>
      <trkpt lat="49.97336" lon="4.16588">
        <ele>254.6</ele>
        <time>2024-04-01T09:40:28Z</time>
      </trkpt>
      <trkpt lat="49.97344" lon="4.16598">
        <ele>254.4</ele>
        <time>2024-04-01T09:40:29Z</time>
      </trkpt>
      <trkpt lat="49.97351" lon="4.16607">
        <ele>253.6</ele>
        <time>2024-04-01T09:40:30Z</time>
      </trkpt>
      <trkpt lat="49.97359" lon="4.16618">
        <ele>253</ele>
        <time>2024-04-01T09:40:31Z</time>
      </trkpt>
      <trkpt lat="49.97366" lon="4.16629">
        <ele>252.6</ele>
        <time>2024-04-01T09:40:32Z</time>
      </trkpt>
      <trkpt lat="49.97373" lon="4.1664">
        <ele>252</ele>
        <time>2024-04-01T09:40:33Z</time>
      </trkpt>
      <trkpt lat="49.9738" lon="4.16652">
        <ele>251.6</ele>
        <time>2024-04-01T09:40:34Z</time>
      </trkpt>
      <trkpt lat="49.97386" lon="4.16664">
        <ele>251.2</ele>
        <time>2024-04-01T09:40:35Z</time>
      </trkpt>
      <trkpt lat="49.97393" lon="4.16676">
        <ele>250.4</ele>
        <time>2024-04-01T09:40:36Z</time>
      </trkpt>
      <trkpt lat="49.974" lon="4.16689">
        <ele>249.8</ele>
        <time>2024-04-01T09:40:37Z</time>
      </trkpt>
      <trkpt lat="49.97407" lon="4.16703">
        <ele>249.6</ele>
        <time>2024-04-01T09:40:38Z</time>
      </trkpt>
      <trkpt lat="49.97414" lon="4.16716">
        <ele>249</ele>
        <time>2024-04-01T09:40:39Z</time>
      </trkpt>
      <trkpt lat="49.97421" lon="4.1673">
        <ele>248.4</ele>
        <time>2024-04-01T09:40:40Z</time>
      </trkpt>
      <trkpt lat="49.97427" lon="4.16744">
        <ele>247.2</ele>
        <time>2024-04-01T09:40:41Z</time>
      </trkpt>
      <trkpt lat="49.97433" lon="4.16758">
        <ele>246.4</ele>
        <time>2024-04-01T09:40:42Z</time>
      </trkpt>
      <trkpt lat="49.97439" lon="4.16773">
        <ele>245.4</ele>
        <time>2024-04-01T09:40:43Z</time>
      </trkpt>
      <trkpt lat="49.97445" lon="4.16787">
        <ele>245</ele>
        <time>2024-04-01T09:40:44Z</time>
      </trkpt>
      <trkpt lat="49.97451" lon="4.16802">
        <ele>245</ele>
        <time>2024-04-01T09:40:45Z</time>
      </trkpt>
      <trkpt lat="49.97456" lon="4.16817">
        <ele>244</ele>
        <time>2024-04-01T09:40:46Z</time>
      </trkpt>
      <trkpt lat="49.97462" lon="4.16832">
        <ele>243.2</ele>
        <time>2024-04-01T09:40:47Z</time>
      </trkpt>
      <trkpt lat="49.97467" lon="4.16847">
        <ele>242.2</ele>
        <time>2024-04-01T09:40:48Z</time>
      </trkpt>
      <trkpt lat="49.97471" lon="4.16862">
        <ele>241.8</ele>
        <time>2024-04-01T09:40:49Z</time>
      </trkpt>
      <trkpt lat="49.97476" lon="4.16877">
        <ele>241</ele>
        <time>2024-04-01T09:40:50Z</time>
      </trkpt>
      <trkpt lat="49.9748" lon="4.16892">
        <ele>240.2</ele>
        <time>2024-04-01T09:40:51Z</time>
      </trkpt>
      <trkpt lat="49.97485" lon="4.16907">
        <ele>239.2</ele>
        <time>2024-04-01T09:40:52Z</time>
      </trkpt>
      <trkpt lat="49.97489" lon="4.16922">
        <ele>238.4</ele>
        <time>2024-04-01T09:40:53Z</time>
      </trkpt>
      <trkpt lat="49.97493" lon="4.16937">
        <ele>238</ele>
        <time>2024-04-01T09:40:54Z</time>
      </trkpt>
      <trkpt lat="49.97497" lon="4.16953">
        <ele>237.2</ele>
        <time>2024-04-01T09:40:55Z</time>
      </trkpt>
      <trkpt lat="49.97501" lon="4.16968">
        <ele>236.4</ele>
        <time>2024-04-01T09:40:56Z</time>
      </trkpt>
      <trkpt lat="49.97505" lon="4.16984">
        <ele>236</ele>
        <time>2024-04-01T09:40:57Z</time>
      </trkpt>
      <trkpt lat="49.9751" lon="4.16999">
        <ele>235.4</ele>
        <time>2024-04-01T09:40:58Z</time>
      </trkpt>
      <trkpt lat="49.97514" lon="4.17014">
        <ele>234.6</ele>
        <time>2024-04-01T09:40:59Z</time>
      </trkpt>
      <trkpt lat="49.97518" lon="4.1703">
        <ele>234</ele>
        <time>2024-04-01T09:41:00Z</time>
      </trkpt>
      <trkpt lat="49.97521" lon="4.17044">
        <ele>233</ele>
        <time>2024-04-01T09:41:01Z</time>
      </trkpt>
      <trkpt lat="49.97525" lon="4.1706">
        <ele>233</ele>
        <time>2024-04-01T09:41:02Z</time>
      </trkpt>
      <trkpt lat="49.97529" lon="4.17074">
        <ele>232.2</ele>
        <time>2024-04-01T09:41:03Z</time>
      </trkpt>
      <trkpt lat="49.97533" lon="4.17089">
        <ele>231.2</ele>
        <time>2024-04-01T09:41:04Z</time>
      </trkpt>
      <trkpt lat="49.97537" lon="4.17103">
        <ele>230.8</ele>
        <time>2024-04-01T09:41:05Z</time>
      </trkpt>
      <trkpt lat="49.97542" lon="4.17118">
        <ele>230.4</ele>
        <time>2024-04-01T09:41:06Z</time>
      </trkpt>
      <trkpt lat="49.97547" lon="4.17133">
        <ele>230</ele>
        <time>2024-04-01T09:41:07Z</time>
      </trkpt>
      <trkpt lat="49.97552" lon="4.17148">
        <ele>229.8</ele>
        <time>2024-04-01T09:41:08Z</time>
      </trkpt>
      <trkpt lat="49.97558" lon="4.17164">
        <ele>229.4</ele>
        <time>2024-04-01T09:41:09Z</time>
      </trkpt>
      <trkpt lat="49.97563" lon="4.1718">
        <ele>229</ele>
        <time>2024-04-01T09:41:10Z</time>
      </trkpt>
      <trkpt lat="49.97569" lon="4.17196">
        <ele>228.8</ele>
        <time>2024-04-01T09:41:11Z</time>
      </trkpt>
      <trkpt lat="49.97575" lon="4.17212">
        <ele>228.4</ele>
        <time>2024-04-01T09:41:12Z</time>
      </trkpt>
      <trkpt lat="49.97581" lon="4.17228">
        <ele>228.2</ele>
        <time>2024-04-01T09:41:13Z</time>
      </trkpt>
      <trkpt lat="49.97588" lon="4.17244">
        <ele>228.2</ele>
        <time>2024-04-01T09:41:14Z</time>
      </trkpt>
      <trkpt lat="49.97595" lon="4.1726">
        <ele>227.6</ele>
        <time>2024-04-01T09:41:15Z</time>
      </trkpt>
      <trkpt lat="49.97602" lon="4.17274">
        <ele>227</ele>
        <time>2024-04-01T09:41:16Z</time>
      </trkpt>
      <trkpt lat="49.97609" lon="4.17288">
        <ele>226.2</ele>
        <time>2024-04-01T09:41:17Z</time>
      </trkpt>
      <trkpt lat="49.97615" lon="4.17302">
        <ele>225.2</ele>
        <time>2024-04-01T09:41:18Z</time>
      </trkpt>
      <trkpt lat="49.97623" lon="4.17315">
        <ele>224.6</ele>
        <time>2024-04-01T09:41:19Z</time>
      </trkpt>
      <trkpt lat="49.9763" lon="4.17327">
        <ele>224.6</ele>
        <time>2024-04-01T09:41:20Z</time>
      </trkpt>
      <trkpt lat="49.97636" lon="4.17338">
        <ele>224.2</ele>
        <time>2024-04-01T09:41:21Z</time>
      </trkpt>
      <trkpt lat="49.97643" lon="4.17349">
        <ele>223.2</ele>
        <time>2024-04-01T09:41:22Z</time>
      </trkpt>
      <trkpt lat="49.97649" lon="4.17361">
        <ele>222.2</ele>
        <time>2024-04-01T09:41:23Z</time>
      </trkpt>
      <trkpt lat="49.97655" lon="4.17371">
        <ele>221.4</ele>
        <time>2024-04-01T09:41:24Z</time>
      </trkpt>
      <trkpt lat="49.97661" lon="4.17379">
        <ele>221</ele>
        <time>2024-04-01T09:41:25Z</time>
      </trkpt>
      <trkpt lat="49.97666" lon="4.17388">
        <ele>220.6</ele>
        <time>2024-04-01T09:41:26Z</time>
      </trkpt>
      <trkpt lat="49.97672" lon="4.17395">
        <ele>220.4</ele>
        <time>2024-04-01T09:41:27Z</time>
      </trkpt>
      <trkpt lat="49.97676" lon="4.17403">
        <ele>220.4</ele>
        <time>2024-04-01T09:41:28Z</time>
      </trkpt>
      <trkpt lat="49.9768" lon="4.17409">
        <ele>220.4</ele>
        <time>2024-04-01T09:41:29Z</time>
      </trkpt>
      <trkpt lat="49.97683" lon="4.17414">
        <ele>220.4</ele>
        <time>2024-04-01T09:41:30Z</time>
      </trkpt>
      <trkpt lat="49.97687" lon="4.17417">
        <ele>220.4</ele>
        <time>2024-04-01T09:41:31Z</time>
      </trkpt>
      <trkpt lat="49.97691" lon="4.17418">
        <ele>220.4</ele>
        <time>2024-04-01T09:41:32Z</time>
      </trkpt>
      <trkpt lat="49.97695" lon="4.17417">
        <ele>220.4</ele>
        <time>2024-04-01T09:41:33Z</time>
      </trkpt>
      <trkpt lat="49.97698" lon="4.17412">
        <ele>220.4</ele>
        <time>2024-04-01T09:41:34Z</time>
      </trkpt>
      <trkpt lat="49.97701" lon="4.17405">
        <ele>220.4</ele>
        <time>2024-04-01T09:41:35Z</time>
      </trkpt>
      <trkpt lat="49.97704" lon="4.17397">
        <ele>220.4</ele>
        <time>2024-04-01T09:41:36Z</time>
      </trkpt>
      <trkpt lat="49.97707" lon="4.17389">
        <ele>220.4</ele>
        <time>2024-04-01T09:41:37Z</time>
      </trkpt>
      <trkpt lat="49.97709" lon="4.17381">
        <ele>220.4</ele>
        <time>2024-04-01T09:41:38Z</time>
      </trkpt>
      <trkpt lat="49.97712" lon="4.17372">
        <ele>220.4</ele>
        <time>2024-04-01T09:41:39Z</time>
      </trkpt>
      <trkpt lat="49.97715" lon="4.17363">
        <ele>220.4</ele>
        <time>2024-04-01T09:41:40Z</time>
      </trkpt>
      <trkpt lat="49.97717" lon="4.17354">
        <ele>220.4</ele>
        <time>2024-04-01T09:41:41Z</time>
      </trkpt>
      <trkpt lat="49.9772" lon="4.17346">
        <ele>220.2</ele>
        <time>2024-04-01T09:41:42Z</time>
      </trkpt>
      <trkpt lat="49.97722" lon="4.17337">
        <ele>220.4</ele>
        <time>2024-04-01T09:41:43Z</time>
      </trkpt>
      <trkpt lat="49.97725" lon="4.17328">
        <ele>220.2</ele>
        <time>2024-04-01T09:41:44Z</time>
      </trkpt>
      <trkpt lat="49.97727" lon="4.17319">
        <ele>220.2</ele>
        <time>2024-04-01T09:41:45Z</time>
      </trkpt>
      <trkpt lat="49.9773" lon="4.17311">
        <ele>220.2</ele>
        <time>2024-04-01T09:41:46Z</time>
      </trkpt>
      <trkpt lat="49.97733" lon="4.17302">
        <ele>220.2</ele>
        <time>2024-04-01T09:41:47Z</time>
      </trkpt>
      <trkpt lat="49.97735" lon="4.17293">
        <ele>220.4</ele>
        <time>2024-04-01T09:41:48Z</time>
      </trkpt>
      <trkpt lat="49.97738" lon="4.17285">
        <ele>220</ele>
        <time>2024-04-01T09:41:49Z</time>
      </trkpt>
      <trkpt lat="49.97741" lon="4.17276">
        <ele>220</ele>
        <time>2024-04-01T09:41:50Z</time>
      </trkpt>
      <trkpt lat="49.97744" lon="4.17269">
        <ele>220</ele>
        <time>2024-04-01T09:41:51Z</time>
      </trkpt>
      <trkpt lat="49.97748" lon="4.17262">
        <ele>220</ele>
        <time>2024-04-01T09:41:52Z</time>
      </trkpt>
      <trkpt lat="49.97752" lon="4.17255">
        <ele>220</ele>
        <time>2024-04-01T09:41:53Z</time>
      </trkpt>
      <trkpt lat="49.97756" lon="4.1725">
        <ele>219.8</ele>
        <time>2024-04-01T09:41:54Z</time>
      </trkpt>
      <trkpt lat="49.97759" lon="4.17244">
        <ele>220</ele>
        <time>2024-04-01T09:41:55Z</time>
      </trkpt>
      <trkpt lat="49.97761" lon="4.17238">
        <ele>219.8</ele>
        <time>2024-04-01T09:41:56Z</time>
      </trkpt>
      <trkpt lat="49.97762" lon="4.17232">
        <ele>220.2</ele>
        <time>2024-04-01T09:41:57Z</time>
      </trkpt>
      <trkpt lat="49.97762" lon="4.17225">
        <ele>220.2</ele>
        <time>2024-04-01T09:41:58Z</time>
      </trkpt>
      <trkpt lat="49.97762" lon="4.17218">
        <ele>220.4</ele>
        <time>2024-04-01T09:41:59Z</time>
      </trkpt>
      <trkpt lat="49.97763" lon="4.17211">
        <ele>220.4</ele>
        <time>2024-04-01T09:42:00Z</time>
      </trkpt>
      <trkpt lat="49.97765" lon="4.17204">
        <ele>220.4</ele>
        <time>2024-04-01T09:42:01Z</time>
      </trkpt>
      <trkpt lat="49.97766" lon="4.17197">
        <ele>220.6</ele>
        <time>2024-04-01T09:42:02Z</time>
      </trkpt>
      <trkpt lat="49.97768" lon="4.1719">
        <ele>220.6</ele>
        <time>2024-04-01T09:42:03Z</time>
      </trkpt>
      <trkpt lat="49.9777" lon="4.17184">
        <ele>220.6</ele>
        <time>2024-04-01T09:42:04Z</time>
      </trkpt>
      <trkpt lat="49.97772" lon="4.17177">
        <ele>221</ele>
        <time>2024-04-01T09:42:05Z</time>
      </trkpt>
      <trkpt lat="49.97774" lon="4.17172">
        <ele>221.4</ele>
        <time>2024-04-01T09:42:06Z</time>
      </trkpt>
      <trkpt lat="49.97776" lon="4.17166">
        <ele>221.4</ele>
        <time>2024-04-01T09:42:07Z</time>
      </trkpt>
      <trkpt lat="49.97777" lon="4.1716">
        <ele>221.8</ele>
        <time>2024-04-01T09:42:08Z</time>
      </trkpt>
      <trkpt lat="49.97779" lon="4.17154">
        <ele>221.8</ele>
        <time>2024-04-01T09:42:09Z</time>
      </trkpt>
      <trkpt lat="49.97781" lon="4.17148">
        <ele>221.8</ele>
        <time>2024-04-01T09:42:10Z</time>
      </trkpt>
      <trkpt lat="49.97783" lon="4.17142">
        <ele>221.8</ele>
        <time>2024-04-01T09:42:11Z</time>
      </trkpt>
      <trkpt lat="49.97784" lon="4.17136">
        <ele>222</ele>
        <time>2024-04-01T09:42:12Z</time>
      </trkpt>
      <trkpt lat="49.97786" lon="4.17131">
        <ele>222.4</ele>
        <time>2024-04-01T09:42:13Z</time>
      </trkpt>
      <trkpt lat="49.97788" lon="4.17124">
        <ele>223</ele>
        <time>2024-04-01T09:42:14Z</time>
      </trkpt>
      <trkpt lat="49.9779" lon="4.17119">
        <ele>223.4</ele>
        <time>2024-04-01T09:42:15Z</time>
      </trkpt>
      <trkpt lat="49.97791" lon="4.17113">
        <ele>223.6</ele>
        <time>2024-04-01T09:42:16Z</time>
      </trkpt>
      <trkpt lat="49.97793" lon="4.17107">
        <ele>223.8</ele>
        <time>2024-04-01T09:42:17Z</time>
      </trkpt>
      <trkpt lat="49.97795" lon="4.17102">
        <ele>224</ele>
        <time>2024-04-01T09:42:18Z</time>
      </trkpt>
      <trkpt lat="49.97797" lon="4.17096">
        <ele>224.2</ele>
        <time>2024-04-01T09:42:19Z</time>
      </trkpt>
      <trkpt lat="49.97798" lon="4.1709">
        <ele>224.2</ele>
        <time>2024-04-01T09:42:20Z</time>
      </trkpt>
      <trkpt lat="49.97799" lon="4.17083">
        <ele>224.4</ele>
        <time>2024-04-01T09:42:21Z</time>
      </trkpt>
      <trkpt lat="49.978" lon="4.17076">
        <ele>224.6</ele>
        <time>2024-04-01T09:42:22Z</time>
      </trkpt>
      <trkpt lat="49.97801" lon="4.1707">
        <ele>224.8</ele>
        <time>2024-04-01T09:42:23Z</time>
      </trkpt>
      <trkpt lat="49.97803" lon="4.17063">
        <ele>225</ele>
        <time>2024-04-01T09:42:24Z</time>
      </trkpt>
      <trkpt lat="49.97804" lon="4.17056">
        <ele>225</ele>
        <time>2024-04-01T09:42:25Z</time>
      </trkpt>
      <trkpt lat="49.97804" lon="4.17047">
        <ele>225</ele>
        <time>2024-04-01T09:42:26Z</time>
      </trkpt>
      <trkpt lat="49.97804" lon="4.17039">
        <ele>225.4</ele>
        <time>2024-04-01T09:42:27Z</time>
      </trkpt>
      <trkpt lat="49.97804" lon="4.17031">
        <ele>225.4</ele>
        <time>2024-04-01T09:42:28Z</time>
      </trkpt>
      <trkpt lat="49.97805" lon="4.17022">
        <ele>225.4</ele>
        <time>2024-04-01T09:42:29Z</time>
      </trkpt>
      <trkpt lat="49.97805" lon="4.17014">
        <ele>225.6</ele>
        <time>2024-04-01T09:42:30Z</time>
      </trkpt>
      <trkpt lat="49.97805" lon="4.17005">
        <ele>225.8</ele>
        <time>2024-04-01T09:42:31Z</time>
      </trkpt>
      <trkpt lat="49.97805" lon="4.16997">
        <ele>225.8</ele>
        <time>2024-04-01T09:42:32Z</time>
      </trkpt>
      <trkpt lat="49.97805" lon="4.16989">
        <ele>225.8</ele>
        <time>2024-04-01T09:42:33Z</time>
      </trkpt>
      <trkpt lat="49.97805" lon="4.1698">
        <ele>226</ele>
        <time>2024-04-01T09:42:34Z</time>
      </trkpt>
      <trkpt lat="49.97805" lon="4.16972">
        <ele>226</ele>
        <time>2024-04-01T09:42:35Z</time>
      </trkpt>
      <trkpt lat="49.97805" lon="4.16963">
        <ele>226</ele>
        <time>2024-04-01T09:42:36Z</time>
      </trkpt>
      <trkpt lat="49.97805" lon="4.16955">
        <ele>226.2</ele>
        <time>2024-04-01T09:42:37Z</time>
      </trkpt>
      <trkpt lat="49.97804" lon="4.16947">
        <ele>226.2</ele>
        <time>2024-04-01T09:42:38Z</time>
      </trkpt>
      <trkpt lat="49.97804" lon="4.16939">
        <ele>226.2</ele>
        <time>2024-04-01T09:42:39Z</time>
      </trkpt>
      <trkpt lat="49.97804" lon="4.16932">
        <ele>226.2</ele>
        <time>2024-04-01T09:42:40Z</time>
      </trkpt>
      <trkpt lat="49.97804" lon="4.16924">
        <ele>226.4</ele>
        <time>2024-04-01T09:42:41Z</time>
      </trkpt>
      <trkpt lat="49.97804" lon="4.16916">
        <ele>226.4</ele>
        <time>2024-04-01T09:42:42Z</time>
      </trkpt>
      <trkpt lat="49.97804" lon="4.16908">
        <ele>226.4</ele>
        <time>2024-04-01T09:42:43Z</time>
      </trkpt>
      <trkpt lat="49.97804" lon="4.16899">
        <ele>226.6</ele>
        <time>2024-04-01T09:42:44Z</time>
      </trkpt>
      <trkpt lat="49.97804" lon="4.16892">
        <ele>226.6</ele>
        <time>2024-04-01T09:42:45Z</time>
      </trkpt>
      <trkpt lat="49.97804" lon="4.16885">
        <ele>226.8</ele>
        <time>2024-04-01T09:42:46Z</time>
      </trkpt>
      <trkpt lat="49.97804" lon="4.16877">
        <ele>226.6</ele>
        <time>2024-04-01T09:42:47Z</time>
      </trkpt>
      <trkpt lat="49.97804" lon="4.16869">
        <ele>226.6</ele>
        <time>2024-04-01T09:42:48Z</time>
      </trkpt>
      <trkpt lat="49.97804" lon="4.16861">
        <ele>227</ele>
        <time>2024-04-01T09:42:49Z</time>
      </trkpt>
      <trkpt lat="49.97805" lon="4.16853">
        <ele>227.4</ele>
        <time>2024-04-01T09:42:50Z</time>
      </trkpt>
      <trkpt lat="49.97805" lon="4.16845">
        <ele>227.6</ele>
        <time>2024-04-01T09:42:51Z</time>
      </trkpt>
      <trkpt lat="49.97804" lon="4.16837">
        <ele>228</ele>
        <time>2024-04-01T09:42:52Z</time>
      </trkpt>
      <trkpt lat="49.97804" lon="4.16829">
        <ele>228</ele>
        <time>2024-04-01T09:42:53Z</time>
      </trkpt>
      <trkpt lat="49.97804" lon="4.16821">
        <ele>228.6</ele>
        <time>2024-04-01T09:42:54Z</time>
      </trkpt>
      <trkpt lat="49.97804" lon="4.16813">
        <ele>228.8</ele>
        <time>2024-04-01T09:42:55Z</time>
      </trkpt>
      <trkpt lat="49.97804" lon="4.16804">
        <ele>229</ele>
        <time>2024-04-01T09:42:56Z</time>
      </trkpt>
      <trkpt lat="49.97803" lon="4.16795">
        <ele>229.2</ele>
        <time>2024-04-01T09:42:57Z</time>
      </trkpt>
      <trkpt lat="49.97803" lon="4.16788">
        <ele>229.2</ele>
        <time>2024-04-01T09:42:58Z</time>
      </trkpt>
      <trkpt lat="49.97803" lon="4.1678">
        <ele>229.2</ele>
        <time>2024-04-01T09:42:59Z</time>
      </trkpt>
      <trkpt lat="49.97803" lon="4.16771">
        <ele>229.4</ele>
        <time>2024-04-01T09:43:00Z</time>
      </trkpt>
      <trkpt lat="49.97802" lon="4.16762">
        <ele>229.4</ele>
        <time>2024-04-01T09:43:01Z</time>
      </trkpt>
      <trkpt lat="49.97802" lon="4.16754">
        <ele>229.4</ele>
        <time>2024-04-01T09:43:02Z</time>
      </trkpt>
      <trkpt lat="49.97801" lon="4.16745">
        <ele>229.4</ele>
        <time>2024-04-01T09:43:03Z</time>
      </trkpt>
      <trkpt lat="49.97801" lon="4.16737">
        <ele>229.8</ele>
        <time>2024-04-01T09:43:04Z</time>
      </trkpt>
      <trkpt lat="49.978" lon="4.16729">
        <ele>229.8</ele>
        <time>2024-04-01T09:43:05Z</time>
      </trkpt>
      <trkpt lat="49.978" lon="4.16721">
        <ele>230</ele>
        <time>2024-04-01T09:43:06Z</time>
      </trkpt>
      <trkpt lat="49.978" lon="4.16714">
        <ele>230</ele>
        <time>2024-04-01T09:43:07Z</time>
      </trkpt>
      <trkpt lat="49.97799" lon="4.16706">
        <ele>230.2</ele>
        <time>2024-04-01T09:43:08Z</time>
      </trkpt>
      <trkpt lat="49.97799" lon="4.16698">
        <ele>230.2</ele>
        <time>2024-04-01T09:43:09Z</time>
      </trkpt>
      <trkpt lat="49.97799" lon="4.16691">
        <ele>230.2</ele>
        <time>2024-04-01T09:43:10Z</time>
      </trkpt>
      <trkpt lat="49.97799" lon="4.16683">
        <ele>230.2</ele>
        <time>2024-04-01T09:43:11Z</time>
      </trkpt>
      <trkpt lat="49.97799" lon="4.16676">
        <ele>230.4</ele>
        <time>2024-04-01T09:43:12Z</time>
      </trkpt>
      <trkpt lat="49.97799" lon="4.16669">
        <ele>230.4</ele>
        <time>2024-04-01T09:43:13Z</time>
      </trkpt>
      <trkpt lat="49.97799" lon="4.16661">
        <ele>230.4</ele>
        <time>2024-04-01T09:43:14Z</time>
      </trkpt>
      <trkpt lat="49.97799" lon="4.16653">
        <ele>230.4</ele>
        <time>2024-04-01T09:43:15Z</time>
      </trkpt>
      <trkpt lat="49.97798" lon="4.16644">
        <ele>230.4</ele>
        <time>2024-04-01T09:43:16Z</time>
      </trkpt>
      <trkpt lat="49.97798" lon="4.16635">
        <ele>230.4</ele>
        <time>2024-04-01T09:43:17Z</time>
      </trkpt>
      <trkpt lat="49.97798" lon="4.16626">
        <ele>230.4</ele>
        <time>2024-04-01T09:43:18Z</time>
      </trkpt>
      <trkpt lat="49.97797" lon="4.16617">
        <ele>230.6</ele>
        <time>2024-04-01T09:43:19Z</time>
      </trkpt>
      <trkpt lat="49.97797" lon="4.16609">
        <ele>230.6</ele>
        <time>2024-04-01T09:43:20Z</time>
      </trkpt>
      <trkpt lat="49.97796" lon="4.16601">
        <ele>230.6</ele>
        <time>2024-04-01T09:43:21Z</time>
      </trkpt>
      <trkpt lat="49.97796" lon="4.16593">
        <ele>230.6</ele>
        <time>2024-04-01T09:43:22Z</time>
      </trkpt>
      <trkpt lat="49.97795" lon="4.16584">
        <ele>230.8</ele>
        <time>2024-04-01T09:43:23Z</time>
      </trkpt>
      <trkpt lat="49.97795" lon="4.16577">
        <ele>231</ele>
        <time>2024-04-01T09:43:24Z</time>
      </trkpt>
      <trkpt lat="49.97795" lon="4.1657">
        <ele>231.2</ele>
        <time>2024-04-01T09:43:25Z</time>
      </trkpt>
      <trkpt lat="49.97794" lon="4.16563">
        <ele>231</ele>
        <time>2024-04-01T09:43:26Z</time>
      </trkpt>
      <trkpt lat="49.97793" lon="4.16557">
        <ele>231.2</ele>
        <time>2024-04-01T09:43:27Z</time>
      </trkpt>
      <trkpt lat="49.97793" lon="4.1655">
        <ele>231.2</ele>
        <time>2024-04-01T09:43:28Z</time>
      </trkpt>
      <trkpt lat="49.97793" lon="4.16543">
        <ele>231.4</ele>
        <time>2024-04-01T09:43:29Z</time>
      </trkpt>
      <trkpt lat="49.97793" lon="4.16536">
        <ele>231.4</ele>
        <time>2024-04-01T09:43:30Z</time>
      </trkpt>
      <trkpt lat="49.97793" lon="4.1653">
        <ele>231.6</ele>
        <time>2024-04-01T09:43:31Z</time>
      </trkpt>
      <trkpt lat="49.97792" lon="4.16524">
        <ele>231.6</ele>
        <time>2024-04-01T09:43:32Z</time>
      </trkpt>
      <trkpt lat="49.97792" lon="4.16517">
        <ele>231.6</ele>
        <time>2024-04-01T09:43:33Z</time>
      </trkpt>
      <trkpt lat="49.97792" lon="4.16511">
        <ele>231.8</ele>
        <time>2024-04-01T09:43:34Z</time>
      </trkpt>
      <trkpt lat="49.97792" lon="4.16504">
        <ele>232</ele>
        <time>2024-04-01T09:43:35Z</time>
      </trkpt>
      <trkpt lat="49.97792" lon="4.16496">
        <ele>232.2</ele>
        <time>2024-04-01T09:43:36Z</time>
      </trkpt>
      <trkpt lat="49.97793" lon="4.16489">
        <ele>232.2</ele>
        <time>2024-04-01T09:43:37Z</time>
      </trkpt>
      <trkpt lat="49.97793" lon="4.16482">
        <ele>232.4</ele>
        <time>2024-04-01T09:43:38Z</time>
      </trkpt>
      <trkpt lat="49.97793" lon="4.16473">
        <ele>232.6</ele>
        <time>2024-04-01T09:43:39Z</time>
      </trkpt>
      <trkpt lat="49.97793" lon="4.16465">
        <ele>232.6</ele>
        <time>2024-04-01T09:43:40Z</time>
      </trkpt>
      <trkpt lat="49.97793" lon="4.16457">
        <ele>232.8</ele>
        <time>2024-04-01T09:43:41Z</time>
      </trkpt>
      <trkpt lat="49.97793" lon="4.16449">
        <ele>233</ele>
        <time>2024-04-01T09:43:42Z</time>
      </trkpt>
      <trkpt lat="49.97793" lon="4.16441">
        <ele>233</ele>
        <time>2024-04-01T09:43:43Z</time>
      </trkpt>
      <trkpt lat="49.97793" lon="4.16433">
        <ele>233</ele>
        <time>2024-04-01T09:43:44Z</time>
      </trkpt>
      <trkpt lat="49.97793" lon="4.16426">
        <ele>233.2</ele>
        <time>2024-04-01T09:43:45Z</time>
      </trkpt>
      <trkpt lat="49.97794" lon="4.16419">
        <ele>233.2</ele>
        <time>2024-04-01T09:43:46Z</time>
      </trkpt>
      <trkpt lat="49.97793" lon="4.16411">
        <ele>233.4</ele>
        <time>2024-04-01T09:43:47Z</time>
      </trkpt>
      <trkpt lat="49.97793" lon="4.16403">
        <ele>233.4</ele>
        <time>2024-04-01T09:43:48Z</time>
      </trkpt>
      <trkpt lat="49.97793" lon="4.16395">
        <ele>233.6</ele>
        <time>2024-04-01T09:43:49Z</time>
      </trkpt>
      <trkpt lat="49.97794" lon="4.16386">
        <ele>233.6</ele>
        <time>2024-04-01T09:43:50Z</time>
      </trkpt>
      <trkpt lat="49.97793" lon="4.16376">
        <ele>233.6</ele>
        <time>2024-04-01T09:43:51Z</time>
      </trkpt>
      <trkpt lat="49.97793" lon="4.16367">
        <ele>233.8</ele>
        <time>2024-04-01T09:43:52Z</time>
      </trkpt>
      <trkpt lat="49.97792" lon="4.16357">
        <ele>233.8</ele>
        <time>2024-04-01T09:43:53Z</time>
      </trkpt>
      <trkpt lat="49.97792" lon="4.16347">
        <ele>233.8</ele>
        <time>2024-04-01T09:43:54Z</time>
      </trkpt>
      <trkpt lat="49.97792" lon="4.16337">
        <ele>233.8</ele>
        <time>2024-04-01T09:43:55Z</time>
      </trkpt>
      <trkpt lat="49.97792" lon="4.16327">
        <ele>234</ele>
        <time>2024-04-01T09:43:56Z</time>
      </trkpt>
      <trkpt lat="49.97791" lon="4.16317">
        <ele>234</ele>
        <time>2024-04-01T09:43:57Z</time>
      </trkpt>
      <trkpt lat="49.97791" lon="4.16307">
        <ele>233.8</ele>
        <time>2024-04-01T09:43:58Z</time>
      </trkpt>
      <trkpt lat="49.9779" lon="4.16295">
        <ele>234</ele>
        <time>2024-04-01T09:43:59Z</time>
      </trkpt>
      <trkpt lat="49.9779" lon="4.16284">
        <ele>234</ele>
        <time>2024-04-01T09:44:00Z</time>
      </trkpt>
      <trkpt lat="49.9779" lon="4.16274">
        <ele>234</ele>
        <time>2024-04-01T09:44:01Z</time>
      </trkpt>
      <trkpt lat="49.9779" lon="4.16264">
        <ele>234</ele>
        <time>2024-04-01T09:44:02Z</time>
      </trkpt>
      <trkpt lat="49.97789" lon="4.16253">
        <ele>233.8</ele>
        <time>2024-04-01T09:44:03Z</time>
      </trkpt>
      <trkpt lat="49.97789" lon="4.16243">
        <ele>233.6</ele>
        <time>2024-04-01T09:44:04Z</time>
      </trkpt>
      <trkpt lat="49.97788" lon="4.16233">
        <ele>233.4</ele>
        <time>2024-04-01T09:44:05Z</time>
      </trkpt>
      <trkpt lat="49.97787" lon="4.16223">
        <ele>233.4</ele>
        <time>2024-04-01T09:44:06Z</time>
      </trkpt>
      <trkpt lat="49.97787" lon="4.16213">
        <ele>233.2</ele>
        <time>2024-04-01T09:44:07Z</time>
      </trkpt>
      <trkpt lat="49.97786" lon="4.16203">
        <ele>233</ele>
        <time>2024-04-01T09:44:08Z</time>
      </trkpt>
      <trkpt lat="49.97786" lon="4.16192">
        <ele>232.6</ele>
        <time>2024-04-01T09:44:09Z</time>
      </trkpt>
      <trkpt lat="49.97786" lon="4.16182">
        <ele>232.2</ele>
        <time>2024-04-01T09:44:10Z</time>
      </trkpt>
      <trkpt lat="49.97786" lon="4.16172">
        <ele>232.2</ele>
        <time>2024-04-01T09:44:11Z</time>
      </trkpt>
      <trkpt lat="49.97785" lon="4.16162">
        <ele>232</ele>
        <time>2024-04-01T09:44:12Z</time>
      </trkpt>
      <trkpt lat="49.97784" lon="4.16152">
        <ele>231.8</ele>
        <time>2024-04-01T09:44:13Z</time>
      </trkpt>
      <trkpt lat="49.97783" lon="4.16141">
        <ele>231.6</ele>
        <time>2024-04-01T09:44:14Z</time>
      </trkpt>
      <trkpt lat="49.97783" lon="4.1613">
        <ele>231.6</ele>
        <time>2024-04-01T09:44:15Z</time>
      </trkpt>
      <trkpt lat="49.97782" lon="4.16119">
        <ele>231.4</ele>
        <time>2024-04-01T09:44:16Z</time>
      </trkpt>
      <trkpt lat="49.97782" lon="4.16109">
        <ele>231.4</ele>
        <time>2024-04-01T09:44:17Z</time>
      </trkpt>
      <trkpt lat="49.97781" lon="4.16098">
        <ele>231.4</ele>
        <time>2024-04-01T09:44:18Z</time>
      </trkpt>
      <trkpt lat="49.97782" lon="4.16087">
        <ele>230.8</ele>
        <time>2024-04-01T09:44:19Z</time>
      </trkpt>
      <trkpt lat="49.97782" lon="4.16077">
        <ele>230.2</ele>
        <time>2024-04-01T09:44:20Z</time>
      </trkpt>
      <trkpt lat="49.97782" lon="4.16066">
        <ele>229.4</ele>
        <time>2024-04-01T09:44:21Z</time>
      </trkpt>
      <trkpt lat="49.97782" lon="4.16055">
        <ele>228.8</ele>
        <time>2024-04-01T09:44:22Z</time>
      </trkpt>
      <trkpt lat="49.97782" lon="4.16044">
        <ele>228.8</ele>
        <time>2024-04-01T09:44:23Z</time>
      </trkpt>
      <trkpt lat="49.97781" lon="4.16033">
        <ele>228.6</ele>
        <time>2024-04-01T09:44:24Z</time>
      </trkpt>
      <trkpt lat="49.97781" lon="4.16022">
        <ele>228.4</ele>
        <time>2024-04-01T09:44:25Z</time>
      </trkpt>
      <trkpt lat="49.97781" lon="4.16011">
        <ele>228.2</ele>
        <time>2024-04-01T09:44:26Z</time>
      </trkpt>
      <trkpt lat="49.97781" lon="4.16">
        <ele>228</ele>
        <time>2024-04-01T09:44:27Z</time>
      </trkpt>
      <trkpt lat="49.97781" lon="4.1599">
        <ele>227.4</ele>
        <time>2024-04-01T09:44:28Z</time>
      </trkpt>
      <trkpt lat="49.9778" lon="4.15979">
        <ele>227</ele>
        <time>2024-04-01T09:44:29Z</time>
      </trkpt>
      <trkpt lat="49.9778" lon="4.15968">
        <ele>226.6</ele>
        <time>2024-04-01T09:44:30Z</time>
      </trkpt>
      <trkpt lat="49.97779" lon="4.15956">
        <ele>226.6</ele>
        <time>2024-04-01T09:44:31Z</time>
      </trkpt>
      <trkpt lat="49.97779" lon="4.15944">
        <ele>226.4</ele>
        <time>2024-04-01T09:44:32Z</time>
      </trkpt>
      <trkpt lat="49.97779" lon="4.15932">
        <ele>226.4</ele>
        <time>2024-04-01T09:44:33Z</time>
      </trkpt>
      <trkpt lat="49.97778" lon="4.1592">
        <ele>226</ele>
        <time>2024-04-01T09:44:34Z</time>
      </trkpt>
      <trkpt lat="49.97778" lon="4.15907">
        <ele>226</ele>
        <time>2024-04-01T09:44:35Z</time>
      </trkpt>
      <trkpt lat="49.97778" lon="4.15895">
        <ele>225.8</ele>
        <time>2024-04-01T09:44:36Z</time>
      </trkpt>
      <trkpt lat="49.97778" lon="4.15884">
        <ele>225.4</ele>
        <time>2024-04-01T09:44:37Z</time>
      </trkpt>
      <trkpt lat="49.97778" lon="4.15873">
        <ele>225.4</ele>
        <time>2024-04-01T09:44:38Z</time>
      </trkpt>
      <trkpt lat="49.97778" lon="4.15862">
        <ele>225.4</ele>
        <time>2024-04-01T09:44:39Z</time>
      </trkpt>
      <trkpt lat="49.97778" lon="4.1585">
        <ele>225</ele>
        <time>2024-04-01T09:44:40Z</time>
      </trkpt>
      <trkpt lat="49.97777" lon="4.15838">
        <ele>224.8</ele>
        <time>2024-04-01T09:44:41Z</time>
      </trkpt>
      <trkpt lat="49.97777" lon="4.15826">
        <ele>224.6</ele>
        <time>2024-04-01T09:44:42Z</time>
      </trkpt>
      <trkpt lat="49.97777" lon="4.15813">
        <ele>224.2</ele>
        <time>2024-04-01T09:44:43Z</time>
      </trkpt>
      <trkpt lat="49.97777" lon="4.15801">
        <ele>224.2</ele>
        <time>2024-04-01T09:44:44Z</time>
      </trkpt>
      <trkpt lat="49.97777" lon="4.15789">
        <ele>224</ele>
        <time>2024-04-01T09:44:45Z</time>
      </trkpt>
      <trkpt lat="49.97776" lon="4.15777">
        <ele>223.8</ele>
        <time>2024-04-01T09:44:46Z</time>
      </trkpt>
      <trkpt lat="49.97775" lon="4.15765">
        <ele>223.6</ele>
        <time>2024-04-01T09:44:47Z</time>
      </trkpt>
      <trkpt lat="49.97775" lon="4.15753">
        <ele>223.4</ele>
        <time>2024-04-01T09:44:48Z</time>
      </trkpt>
      <trkpt lat="49.97775" lon="4.15741">
        <ele>223.4</ele>
        <time>2024-04-01T09:44:49Z</time>
      </trkpt>
      <trkpt lat="49.97775" lon="4.15729">
        <ele>223.2</ele>
        <time>2024-04-01T09:44:50Z</time>
      </trkpt>
      <trkpt lat="49.97774" lon="4.15717">
        <ele>223</ele>
        <time>2024-04-01T09:44:51Z</time>
      </trkpt>
      <trkpt lat="49.97774" lon="4.15706">
        <ele>222.6</ele>
        <time>2024-04-01T09:44:52Z</time>
      </trkpt>
      <trkpt lat="49.97773" lon="4.15693">
        <ele>222.4</ele>
        <time>2024-04-01T09:44:53Z</time>
      </trkpt>
      <trkpt lat="49.97772" lon="4.15681">
        <ele>222</ele>
        <time>2024-04-01T09:44:54Z</time>
      </trkpt>
      <trkpt lat="49.97771" lon="4.15669">
        <ele>221.8</ele>
        <time>2024-04-01T09:44:55Z</time>
      </trkpt>
      <trkpt lat="49.97771" lon="4.15657">
        <ele>221.8</ele>
        <time>2024-04-01T09:44:56Z</time>
      </trkpt>
      <trkpt lat="49.9777" lon="4.15647">
        <ele>221.6</ele>
        <time>2024-04-01T09:44:57Z</time>
      </trkpt>
      <trkpt lat="49.97771" lon="4.15636">
        <ele>221.4</ele>
        <time>2024-04-01T09:44:58Z</time>
      </trkpt>
      <trkpt lat="49.9777" lon="4.15625">
        <ele>221.4</ele>
        <time>2024-04-01T09:44:59Z</time>
      </trkpt>
      <trkpt lat="49.9777" lon="4.15614">
        <ele>221.2</ele>
        <time>2024-04-01T09:45:00Z</time>
      </trkpt>
      <trkpt lat="49.9777" lon="4.15602">
        <ele>221</ele>
        <time>2024-04-01T09:45:01Z</time>
      </trkpt>
      <trkpt lat="49.97769" lon="4.15591">
        <ele>221</ele>
        <time>2024-04-01T09:45:03Z</time>
      </trkpt>
      <trkpt lat="49.97769" lon="4.15579">
        <ele>221</ele>
        <time>2024-04-01T09:45:04Z</time>
      </trkpt>
      <trkpt lat="49.97768" lon="4.15567">
        <ele>221</ele>
        <time>2024-04-01T09:45:05Z</time>
      </trkpt>
      <trkpt lat="49.97768" lon="4.15556">
        <ele>220.8</ele>
        <time>2024-04-01T09:45:06Z</time>
      </trkpt>
      <trkpt lat="49.97768" lon="4.15545">
        <ele>220.8</ele>
        <time>2024-04-01T09:45:07Z</time>
      </trkpt>
      <trkpt lat="49.97768" lon="4.15534">
        <ele>220.8</ele>
        <time>2024-04-01T09:45:08Z</time>
      </trkpt>
      <trkpt lat="49.97768" lon="4.15524">
        <ele>220.8</ele>
        <time>2024-04-01T09:45:09Z</time>
      </trkpt>
      <trkpt lat="49.97768" lon="4.15514">
        <ele>220.8</ele>
        <time>2024-04-01T09:45:10Z</time>
      </trkpt>
      <trkpt lat="49.97769" lon="4.15505">
        <ele>220.8</ele>
        <time>2024-04-01T09:45:11Z</time>
      </trkpt>
      <trkpt lat="49.9777" lon="4.15496">
        <ele>221</ele>
        <time>2024-04-01T09:45:12Z</time>
      </trkpt>
      <trkpt lat="49.97771" lon="4.15488">
        <ele>220.8</ele>
        <time>2024-04-01T09:45:13Z</time>
      </trkpt>
      <trkpt lat="49.97772" lon="4.15479">
        <ele>220.8</ele>
        <time>2024-04-01T09:45:14Z</time>
      </trkpt>
      <trkpt lat="49.97772" lon="4.15471">
        <ele>221</ele>
        <time>2024-04-01T09:45:15Z</time>
      </trkpt>
      <trkpt lat="49.97772" lon="4.15463">
        <ele>220.8</ele>
        <time>2024-04-01T09:45:16Z</time>
      </trkpt>
      <trkpt lat="49.97772" lon="4.15454">
        <ele>220.8</ele>
        <time>2024-04-01T09:45:17Z</time>
      </trkpt>
      <trkpt lat="49.97771" lon="4.15446">
        <ele>221</ele>
        <time>2024-04-01T09:45:18Z</time>
      </trkpt>
      <trkpt lat="49.97769" lon="4.15438">
        <ele>221.2</ele>
        <time>2024-04-01T09:45:19Z</time>
      </trkpt>
      <trkpt lat="49.97768" lon="4.15429">
        <ele>221.8</ele>
        <time>2024-04-01T09:45:20Z</time>
      </trkpt>
      <trkpt lat="49.97766" lon="4.1542">
        <ele>222.6</ele>
        <time>2024-04-01T09:45:21Z</time>
      </trkpt>
      <trkpt lat="49.97765" lon="4.15412">
        <ele>222.8</ele>
        <time>2024-04-01T09:45:22Z</time>
      </trkpt>
      <trkpt lat="49.97764" lon="4.15403">
        <ele>223</ele>
        <time>2024-04-01T09:45:23Z</time>
      </trkpt>
      <trkpt lat="49.97762" lon="4.15394">
        <ele>223.2</ele>
        <time>2024-04-01T09:45:24Z</time>
      </trkpt>
      <trkpt lat="49.9776" lon="4.15385">
        <ele>223.4</ele>
        <time>2024-04-01T09:45:25Z</time>
      </trkpt>
      <trkpt lat="49.97757" lon="4.15376">
        <ele>223.2</ele>
        <time>2024-04-01T09:45:26Z</time>
      </trkpt>
      <trkpt lat="49.97753" lon="4.15366">
        <ele>223.2</ele>
        <time>2024-04-01T09:45:27Z</time>
      </trkpt>
      <trkpt lat="49.9775" lon="4.15357">
        <ele>223.2</ele>
        <time>2024-04-01T09:45:28Z</time>
      </trkpt>
      <trkpt lat="49.97747" lon="4.15348">
        <ele>223.2</ele>
        <time>2024-04-01T09:45:29Z</time>
      </trkpt>
      <trkpt lat="49.97744" lon="4.15338">
        <ele>223.2</ele>
        <time>2024-04-01T09:45:30Z</time>
      </trkpt>
      <trkpt lat="49.97741" lon="4.15329">
        <ele>222.8</ele>
        <time>2024-04-01T09:45:31Z</time>
      </trkpt>
      <trkpt lat="49.97738" lon="4.15319">
        <ele>222.8</ele>
        <time>2024-04-01T09:45:32Z</time>
      </trkpt>
      <trkpt lat="49.97736" lon="4.15309">
        <ele>222.6</ele>
        <time>2024-04-01T09:45:33Z</time>
      </trkpt>
      <trkpt lat="49.97734" lon="4.15298">
        <ele>221.8</ele>
        <time>2024-04-01T09:45:34Z</time>
      </trkpt>
      <trkpt lat="49.97732" lon="4.15285">
        <ele>221</ele>
        <time>2024-04-01T09:45:35Z</time>
      </trkpt>
      <trkpt lat="49.9773" lon="4.15271">
        <ele>220.4</ele>
        <time>2024-04-01T09:45:36Z</time>
      </trkpt>
      <trkpt lat="49.97727" lon="4.15254">
        <ele>219.8</ele>
        <time>2024-04-01T09:45:37Z</time>
      </trkpt>
      <trkpt lat="49.97725" lon="4.15234">
        <ele>219.2</ele>
        <time>2024-04-01T09:45:38Z</time>
      </trkpt>
      <trkpt lat="49.97723" lon="4.15212">
        <ele>218.6</ele>
        <time>2024-04-01T09:45:39Z</time>
      </trkpt>
      <trkpt lat="49.97723" lon="4.15193">
        <ele>217.8</ele>
        <time>2024-04-01T09:45:40Z</time>
      </trkpt>
      <trkpt lat="49.97725" lon="4.15176">
        <ele>217.2</ele>
        <time>2024-04-01T09:45:41Z</time>
      </trkpt>
      <trkpt lat="49.97729" lon="4.15159">
        <ele>215.8</ele>
        <time>2024-04-01T09:45:42Z</time>
      </trkpt>
      <trkpt lat="49.97735" lon="4.15147">
        <ele>214.4</ele>
        <time>2024-04-01T09:45:43Z</time>
      </trkpt>
      <trkpt lat="49.97741" lon="4.15138">
        <ele>212.8</ele>
        <time>2024-04-01T09:45:44Z</time>
      </trkpt>
      <trkpt lat="49.97747" lon="4.15132">
        <ele>212</ele>
        <time>2024-04-01T09:45:45Z</time>
      </trkpt>
      <trkpt lat="49.97754" lon="4.15128">
        <ele>211.6</ele>
        <time>2024-04-01T09:45:46Z</time>
      </trkpt>
      <trkpt lat="49.9776" lon="4.15124">
        <ele>211.6</ele>
        <time>2024-04-01T09:45:47Z</time>
      </trkpt>
      <trkpt lat="49.97766" lon="4.1512">
        <ele>211.6</ele>
        <time>2024-04-01T09:45:48Z</time>
      </trkpt>
      <trkpt lat="49.97771" lon="4.15117">
        <ele>211.6</ele>
        <time>2024-04-01T09:45:49Z</time>
      </trkpt>
      <trkpt lat="49.97776" lon="4.15114">
        <ele>211.4</ele>
        <time>2024-04-01T09:45:50Z</time>
      </trkpt>
      <trkpt lat="49.9778" lon="4.15111">
        <ele>211.4</ele>
        <time>2024-04-01T09:45:51Z</time>
      </trkpt>
      <trkpt lat="49.97785" lon="4.1511">
        <ele>211.4</ele>
        <time>2024-04-01T09:45:52Z</time>
      </trkpt>
      <trkpt lat="49.97789" lon="4.15108">
        <ele>211.4</ele>
        <time>2024-04-01T09:45:53Z</time>
      </trkpt>
      <trkpt lat="49.97793" lon="4.15107">
        <ele>211.2</ele>
        <time>2024-04-01T09:45:54Z</time>
      </trkpt>
      <trkpt lat="49.97796" lon="4.15106">
        <ele>211.8</ele>
        <time>2024-04-01T09:45:55Z</time>
      </trkpt>
      <trkpt lat="49.978" lon="4.15104">
        <ele>212.6</ele>
        <time>2024-04-01T09:45:56Z</time>
      </trkpt>
      <trkpt lat="49.97804" lon="4.15103">
        <ele>213</ele>
        <time>2024-04-01T09:45:57Z</time>
      </trkpt>
      <trkpt lat="49.97807" lon="4.15101">
        <ele>213.4</ele>
        <time>2024-04-01T09:45:58Z</time>
      </trkpt>
      <trkpt lat="49.97811" lon="4.15099">
        <ele>214.2</ele>
        <time>2024-04-01T09:45:59Z</time>
      </trkpt>
      <trkpt lat="49.97814" lon="4.15097">
        <ele>214.8</ele>
        <time>2024-04-01T09:46:00Z</time>
      </trkpt>
      <trkpt lat="49.97817" lon="4.15096">
        <ele>215.2</ele>
        <time>2024-04-01T09:46:01Z</time>
      </trkpt>
      <trkpt lat="49.9782" lon="4.15094">
        <ele>215.4</ele>
        <time>2024-04-01T09:46:02Z</time>
      </trkpt>
      <trkpt lat="49.97823" lon="4.15092">
        <ele>215.8</ele>
        <time>2024-04-01T09:46:03Z</time>
      </trkpt>
      <trkpt lat="49.97825" lon="4.1509">
        <ele>216.4</ele>
        <time>2024-04-01T09:46:04Z</time>
      </trkpt>
      <trkpt lat="49.97828" lon="4.15088">
        <ele>216.4</ele>
        <time>2024-04-01T09:46:05Z</time>
      </trkpt>
      <trkpt lat="49.9783" lon="4.15085">
        <ele>216.6</ele>
        <time>2024-04-01T09:46:06Z</time>
      </trkpt>
      <trkpt lat="49.97832" lon="4.15083">
        <ele>217</ele>
        <time>2024-04-01T09:46:07Z</time>
      </trkpt>
      <trkpt lat="49.97834" lon="4.1508">
        <ele>217.2</ele>
        <time>2024-04-01T09:46:08Z</time>
      </trkpt>
      <trkpt lat="49.97837" lon="4.15079">
        <ele>217.8</ele>
        <time>2024-04-01T09:46:09Z</time>
      </trkpt>
      <trkpt lat="49.97839" lon="4.15076">
        <ele>218.4</ele>
        <time>2024-04-01T09:46:10Z</time>
      </trkpt>
      <trkpt lat="49.97841" lon="4.15074">
        <ele>218.8</ele>
        <time>2024-04-01T09:46:11Z</time>
      </trkpt>
      <trkpt lat="49.97843" lon="4.15072">
        <ele>218.8</ele>
        <time>2024-04-01T09:46:12Z</time>
      </trkpt>
      <trkpt lat="49.97846" lon="4.15069">
        <ele>219.2</ele>
        <time>2024-04-01T09:46:13Z</time>
      </trkpt>
      <trkpt lat="49.97848" lon="4.15065">
        <ele>219.8</ele>
        <time>2024-04-01T09:46:14Z</time>
      </trkpt>
      <trkpt lat="49.97851" lon="4.15062">
        <ele>220</ele>
        <time>2024-04-01T09:46:15Z</time>
      </trkpt>
      <trkpt lat="49.97853" lon="4.15059">
        <ele>220.2</ele>
        <time>2024-04-01T09:46:16Z</time>
      </trkpt>
      <trkpt lat="49.97856" lon="4.15055">
        <ele>220.6</ele>
        <time>2024-04-01T09:46:17Z</time>
      </trkpt>
      <trkpt lat="49.97858" lon="4.15052">
        <ele>221</ele>
        <time>2024-04-01T09:46:18Z</time>
      </trkpt>
      <trkpt lat="49.97861" lon="4.1505">
        <ele>221.4</ele>
        <time>2024-04-01T09:46:19Z</time>
      </trkpt>
      <trkpt lat="49.97864" lon="4.15047">
        <ele>221.8</ele>
        <time>2024-04-01T09:46:20Z</time>
      </trkpt>
      <trkpt lat="49.97866" lon="4.15044">
        <ele>222</ele>
        <time>2024-04-01T09:46:21Z</time>
      </trkpt>
      <trkpt lat="49.97869" lon="4.1504">
        <ele>222</ele>
        <time>2024-04-01T09:46:22Z</time>
      </trkpt>
      <trkpt lat="49.97871" lon="4.15036">
        <ele>222.2</ele>
        <time>2024-04-01T09:46:23Z</time>
      </trkpt>
      <trkpt lat="49.97873" lon="4.15032">
        <ele>222.2</ele>
        <time>2024-04-01T09:46:24Z</time>
      </trkpt>
      <trkpt lat="49.97875" lon="4.15028">
        <ele>222.4</ele>
        <time>2024-04-01T09:46:25Z</time>
      </trkpt>
      <trkpt lat="49.97877" lon="4.15025">
        <ele>222.8</ele>
        <time>2024-04-01T09:46:26Z</time>
      </trkpt>
      <trkpt lat="49.97879" lon="4.15022">
        <ele>223</ele>
        <time>2024-04-01T09:46:27Z</time>
      </trkpt>
      <trkpt lat="49.97881" lon="4.15018">
        <ele>223</ele>
        <time>2024-04-01T09:46:28Z</time>
      </trkpt>
      <trkpt lat="49.97883" lon="4.15015">
        <ele>223</ele>
        <time>2024-04-01T09:46:29Z</time>
      </trkpt>
      <trkpt lat="49.97885" lon="4.15011">
        <ele>223.2</ele>
        <time>2024-04-01T09:46:30Z</time>
      </trkpt>
      <trkpt lat="49.97887" lon="4.15008">
        <ele>223.4</ele>
        <time>2024-04-01T09:46:31Z</time>
      </trkpt>
      <trkpt lat="49.97889" lon="4.15005">
        <ele>223.6</ele>
        <time>2024-04-01T09:46:32Z</time>
      </trkpt>
      <trkpt lat="49.97891" lon="4.15002">
        <ele>223.8</ele>
        <time>2024-04-01T09:46:33Z</time>
      </trkpt>
      <trkpt lat="49.97893" lon="4.14999">
        <ele>224.2</ele>
        <time>2024-04-01T09:46:34Z</time>
      </trkpt>
      <trkpt lat="49.97894" lon="4.14995">
        <ele>224.2</ele>
        <time>2024-04-01T09:46:35Z</time>
      </trkpt>
      <trkpt lat="49.97896" lon="4.14992">
        <ele>224.2</ele>
        <time>2024-04-01T09:46:36Z</time>
      </trkpt>
      <trkpt lat="49.97897" lon="4.14989">
        <ele>224.4</ele>
        <time>2024-04-01T09:46:37Z</time>
      </trkpt>
      <trkpt lat="49.97899" lon="4.14985">
        <ele>224.6</ele>
        <time>2024-04-01T09:46:38Z</time>
      </trkpt>
      <trkpt lat="49.979" lon="4.14981">
        <ele>224.8</ele>
        <time>2024-04-01T09:46:39Z</time>
      </trkpt>
      <trkpt lat="49.97902" lon="4.14977">
        <ele>225</ele>
        <time>2024-04-01T09:46:40Z</time>
      </trkpt>
      <trkpt lat="49.97903" lon="4.14973">
        <ele>225.2</ele>
        <time>2024-04-01T09:46:41Z</time>
      </trkpt>
      <trkpt lat="49.97905" lon="4.14969">
        <ele>225.2</ele>
        <time>2024-04-01T09:46:42Z</time>
      </trkpt>
      <trkpt lat="49.97906" lon="4.14965">
        <ele>225.4</ele>
        <time>2024-04-01T09:46:43Z</time>
      </trkpt>
      <trkpt lat="49.97907" lon="4.14961">
        <ele>225.6</ele>
        <time>2024-04-01T09:46:44Z</time>
      </trkpt>
      <trkpt lat="49.97909" lon="4.14957">
        <ele>225.6</ele>
        <time>2024-04-01T09:46:45Z</time>
      </trkpt>
      <trkpt lat="49.9791" lon="4.14953">
        <ele>225.6</ele>
        <time>2024-04-01T09:46:46Z</time>
      </trkpt>
      <trkpt lat="49.97911" lon="4.14949">
        <ele>226</ele>
        <time>2024-04-01T09:46:47Z</time>
      </trkpt>
      <trkpt lat="49.97912" lon="4.14944">
        <ele>226.2</ele>
        <time>2024-04-01T09:46:48Z</time>
      </trkpt>
      <trkpt lat="49.97913" lon="4.1494">
        <ele>226.6</ele>
        <time>2024-04-01T09:46:49Z</time>
      </trkpt>
      <trkpt lat="49.97914" lon="4.14936">
        <ele>227</ele>
        <time>2024-04-01T09:46:50Z</time>
      </trkpt>
      <trkpt lat="49.97915" lon="4.14932">
        <ele>227.4</ele>
        <time>2024-04-01T09:46:51Z</time>
      </trkpt>
      <trkpt lat="49.97916" lon="4.14928">
        <ele>227.6</ele>
        <time>2024-04-01T09:46:52Z</time>
      </trkpt>
      <trkpt lat="49.97917" lon="4.14924">
        <ele>228</ele>
        <time>2024-04-01T09:46:53Z</time>
      </trkpt>
      <trkpt lat="49.97918" lon="4.14919">
        <ele>228.4</ele>
        <time>2024-04-01T09:46:54Z</time>
      </trkpt>
      <trkpt lat="49.9792" lon="4.14915">
        <ele>228.6</ele>
        <time>2024-04-01T09:46:55Z</time>
      </trkpt>
      <trkpt lat="49.97921" lon="4.14911">
        <ele>228.8</ele>
        <time>2024-04-01T09:46:56Z</time>
      </trkpt>
      <trkpt lat="49.97922" lon="4.14907">
        <ele>229</ele>
        <time>2024-04-01T09:46:57Z</time>
      </trkpt>
      <trkpt lat="49.97923" lon="4.14902">
        <ele>229.2</ele>
        <time>2024-04-01T09:46:58Z</time>
      </trkpt>
      <trkpt lat="49.97924" lon="4.14898">
        <ele>229.6</ele>
        <time>2024-04-01T09:46:59Z</time>
      </trkpt>
      <trkpt lat="49.97925" lon="4.14894">
        <ele>229.8</ele>
        <time>2024-04-01T09:47:00Z</time>
      </trkpt>
      <trkpt lat="49.97927" lon="4.1489">
        <ele>229.8</ele>
        <time>2024-04-01T09:47:01Z</time>
      </trkpt>
      <trkpt lat="49.97928" lon="4.14886">
        <ele>230</ele>
        <time>2024-04-01T09:47:02Z</time>
      </trkpt>
      <trkpt lat="49.97929" lon="4.14881">
        <ele>230</ele>
        <time>2024-04-01T09:47:03Z</time>
      </trkpt>
      <trkpt lat="49.9793" lon="4.14877">
        <ele>230.2</ele>
        <time>2024-04-01T09:47:04Z</time>
      </trkpt>
      <trkpt lat="49.97931" lon="4.14873">
        <ele>230.2</ele>
        <time>2024-04-01T09:47:05Z</time>
      </trkpt>
      <trkpt lat="49.97932" lon="4.14868">
        <ele>230.2</ele>
        <time>2024-04-01T09:47:06Z</time>
      </trkpt>
      <trkpt lat="49.97934" lon="4.14864">
        <ele>230.2</ele>
        <time>2024-04-01T09:47:07Z</time>
      </trkpt>
      <trkpt lat="49.97936" lon="4.14859">
        <ele>230.4</ele>
        <time>2024-04-01T09:47:08Z</time>
      </trkpt>
      <trkpt lat="49.97937" lon="4.14856">
        <ele>230.4</ele>
        <time>2024-04-01T09:47:09Z</time>
      </trkpt>
      <trkpt lat="49.97939" lon="4.14851">
        <ele>230.4</ele>
        <time>2024-04-01T09:47:10Z</time>
      </trkpt>
      <trkpt lat="49.9794" lon="4.14847">
        <ele>230.6</ele>
        <time>2024-04-01T09:47:11Z</time>
      </trkpt>
      <trkpt lat="49.97942" lon="4.14842">
        <ele>230.8</ele>
        <time>2024-04-01T09:47:12Z</time>
      </trkpt>
      <trkpt lat="49.97943" lon="4.14837">
        <ele>231</ele>
        <time>2024-04-01T09:47:13Z</time>
      </trkpt>
      <trkpt lat="49.97945" lon="4.14831">
        <ele>231</ele>
        <time>2024-04-01T09:47:14Z</time>
      </trkpt>
      <trkpt lat="49.97946" lon="4.14826">
        <ele>231.2</ele>
        <time>2024-04-01T09:47:15Z</time>
      </trkpt>
      <trkpt lat="49.97948" lon="4.1482">
        <ele>231.2</ele>
        <time>2024-04-01T09:47:16Z</time>
      </trkpt>
      <trkpt lat="49.97949" lon="4.14814">
        <ele>231.6</ele>
        <time>2024-04-01T09:47:17Z</time>
      </trkpt>
      <trkpt lat="49.97951" lon="4.14807">
        <ele>231.8</ele>
        <time>2024-04-01T09:47:18Z</time>
      </trkpt>
      <trkpt lat="49.97952" lon="4.14801">
        <ele>231.8</ele>
        <time>2024-04-01T09:47:19Z</time>
      </trkpt>
      <trkpt lat="49.97954" lon="4.14794">
        <ele>232</ele>
        <time>2024-04-01T09:47:20Z</time>
      </trkpt>
      <trkpt lat="49.97956" lon="4.14786">
        <ele>232.2</ele>
        <time>2024-04-01T09:47:21Z</time>
      </trkpt>
      <trkpt lat="49.97957" lon="4.14779">
        <ele>232.2</ele>
        <time>2024-04-01T09:47:22Z</time>
      </trkpt>
      <trkpt lat="49.97958" lon="4.14771">
        <ele>232</ele>
        <time>2024-04-01T09:47:23Z</time>
      </trkpt>
      <trkpt lat="49.97959" lon="4.14762">
        <ele>232</ele>
        <time>2024-04-01T09:47:24Z</time>
      </trkpt>
      <trkpt lat="49.9796" lon="4.14753">
        <ele>232.2</ele>
        <time>2024-04-01T09:47:25Z</time>
      </trkpt>
      <trkpt lat="49.97961" lon="4.14745">
        <ele>232</ele>
        <time>2024-04-01T09:47:26Z</time>
      </trkpt>
      <trkpt lat="49.97964" lon="4.14737">
        <ele>232</ele>
        <time>2024-04-01T09:47:27Z</time>
      </trkpt>
      <trkpt lat="49.97969" lon="4.14731">
        <ele>232.2</ele>
        <time>2024-04-01T09:47:28Z</time>
      </trkpt>
      <trkpt lat="49.97974" lon="4.14728">
        <ele>232</ele>
        <time>2024-04-01T09:47:29Z</time>
      </trkpt>
      <trkpt lat="49.97979" lon="4.14728">
        <ele>232</ele>
        <time>2024-04-01T09:47:30Z</time>
      </trkpt>
      <trkpt lat="49.97984" lon="4.1473">
        <ele>231.8</ele>
        <time>2024-04-01T09:47:31Z</time>
      </trkpt>
      <trkpt lat="49.97988" lon="4.14733">
        <ele>231.8</ele>
        <time>2024-04-01T09:47:32Z</time>
      </trkpt>
      <trkpt lat="49.97992" lon="4.14737">
        <ele>231.6</ele>
        <time>2024-04-01T09:47:33Z</time>
      </trkpt>
      <trkpt lat="49.97996" lon="4.14741">
        <ele>231.4</ele>
        <time>2024-04-01T09:47:34Z</time>
      </trkpt>
      <trkpt lat="49.98" lon="4.14745">
        <ele>231.4</ele>
        <time>2024-04-01T09:47:35Z</time>
      </trkpt>
      <trkpt lat="49.98004" lon="4.14749">
        <ele>231.4</ele>
        <time>2024-04-01T09:47:36Z</time>
      </trkpt>
      <trkpt lat="49.98008" lon="4.14753">
        <ele>231</ele>
        <time>2024-04-01T09:47:37Z</time>
      </trkpt>
      <trkpt lat="49.98011" lon="4.14756">
        <ele>231</ele>
        <time>2024-04-01T09:47:38Z</time>
      </trkpt>
      <trkpt lat="49.98015" lon="4.1476">
        <ele>230.8</ele>
        <time>2024-04-01T09:47:39Z</time>
      </trkpt>
      <trkpt lat="49.98019" lon="4.14764">
        <ele>230.8</ele>
        <time>2024-04-01T09:47:40Z</time>
      </trkpt>
      <trkpt lat="49.98022" lon="4.14768">
        <ele>230.8</ele>
        <time>2024-04-01T09:47:41Z</time>
      </trkpt>
      <trkpt lat="49.98026" lon="4.14771">
        <ele>230.8</ele>
        <time>2024-04-01T09:47:42Z</time>
      </trkpt>
      <trkpt lat="49.9803" lon="4.14775">
        <ele>230.6</ele>
        <time>2024-04-01T09:47:43Z</time>
      </trkpt>
      <trkpt lat="49.98033" lon="4.14779">
        <ele>230.8</ele>
        <time>2024-04-01T09:47:44Z</time>
      </trkpt>
      <trkpt lat="49.98037" lon="4.14782">
        <ele>230.8</ele>
        <time>2024-04-01T09:47:45Z</time>
      </trkpt>
      <trkpt lat="49.98041" lon="4.14786">
        <ele>230.8</ele>
        <time>2024-04-01T09:47:46Z</time>
      </trkpt>
      <trkpt lat="49.98044" lon="4.1479">
        <ele>231</ele>
        <time>2024-04-01T09:47:47Z</time>
      </trkpt>
      <trkpt lat="49.98048" lon="4.14793">
        <ele>231.2</ele>
        <time>2024-04-01T09:47:48Z</time>
      </trkpt>
      <trkpt lat="49.98052" lon="4.14797">
        <ele>231.2</ele>
        <time>2024-04-01T09:47:49Z</time>
      </trkpt>
      <trkpt lat="49.98056" lon="4.14801">
        <ele>231.4</ele>
        <time>2024-04-01T09:47:50Z</time>
      </trkpt>
      <trkpt lat="49.9806" lon="4.14805">
        <ele>231.4</ele>
        <time>2024-04-01T09:47:51Z</time>
      </trkpt>
      <trkpt lat="49.98063" lon="4.14809">
        <ele>231.4</ele>
        <time>2024-04-01T09:47:52Z</time>
      </trkpt>
      <trkpt lat="49.98067" lon="4.14813">
        <ele>231.6</ele>
        <time>2024-04-01T09:47:53Z</time>
      </trkpt>
      <trkpt lat="49.98071" lon="4.14816">
        <ele>231.8</ele>
        <time>2024-04-01T09:47:54Z</time>
      </trkpt>
      <trkpt lat="49.98074" lon="4.1482">
        <ele>232.2</ele>
        <time>2024-04-01T09:47:55Z</time>
      </trkpt>
      <trkpt lat="49.98078" lon="4.14824">
        <ele>232.6</ele>
        <time>2024-04-01T09:47:56Z</time>
      </trkpt>
      <trkpt lat="49.98082" lon="4.14828">
        <ele>232.6</ele>
        <time>2024-04-01T09:47:57Z</time>
      </trkpt>
      <trkpt lat="49.98085" lon="4.14832">
        <ele>232.6</ele>
        <time>2024-04-01T09:47:58Z</time>
      </trkpt>
      <trkpt lat="49.98089" lon="4.14836">
        <ele>232.8</ele>
        <time>2024-04-01T09:47:59Z</time>
      </trkpt>
      <trkpt lat="49.98092" lon="4.14839">
        <ele>233</ele>
        <time>2024-04-01T09:48:00Z</time>
      </trkpt>
      <trkpt lat="49.98096" lon="4.14843">
        <ele>233.4</ele>
        <time>2024-04-01T09:48:01Z</time>
      </trkpt>
      <trkpt lat="49.981" lon="4.14847">
        <ele>233.6</ele>
        <time>2024-04-01T09:48:02Z</time>
      </trkpt>
      <trkpt lat="49.98103" lon="4.1485">
        <ele>234.2</ele>
        <time>2024-04-01T09:48:03Z</time>
      </trkpt>
      <trkpt lat="49.98107" lon="4.14854">
        <ele>235</ele>
        <time>2024-04-01T09:48:04Z</time>
      </trkpt>
      <trkpt lat="49.98111" lon="4.14858">
        <ele>235.6</ele>
        <time>2024-04-01T09:48:05Z</time>
      </trkpt>
      <trkpt lat="49.98114" lon="4.14862">
        <ele>235.8</ele>
        <time>2024-04-01T09:48:06Z</time>
      </trkpt>
      <trkpt lat="49.98118" lon="4.14866">
        <ele>236</ele>
        <time>2024-04-01T09:48:07Z</time>
      </trkpt>
      <trkpt lat="49.98122" lon="4.1487">
        <ele>236</ele>
        <time>2024-04-01T09:48:08Z</time>
      </trkpt>
      <trkpt lat="49.98125" lon="4.14874">
        <ele>236.2</ele>
        <time>2024-04-01T09:48:09Z</time>
      </trkpt>
      <trkpt lat="49.98128" lon="4.14878">
        <ele>236.2</ele>
        <time>2024-04-01T09:48:10Z</time>
      </trkpt>
      <trkpt lat="49.98132" lon="4.14881">
        <ele>236.2</ele>
        <time>2024-04-01T09:48:11Z</time>
      </trkpt>
      <trkpt lat="49.98135" lon="4.14885">
        <ele>236.4</ele>
        <time>2024-04-01T09:48:12Z</time>
      </trkpt>
      <trkpt lat="49.98139" lon="4.14888">
        <ele>236.6</ele>
        <time>2024-04-01T09:48:13Z</time>
      </trkpt>
      <trkpt lat="49.98143" lon="4.14892">
        <ele>236.8</ele>
        <time>2024-04-01T09:48:14Z</time>
      </trkpt>
      <trkpt lat="49.98147" lon="4.14896">
        <ele>236.8</ele>
        <time>2024-04-01T09:48:15Z</time>
      </trkpt>
      <trkpt lat="49.9815" lon="4.14899">
        <ele>236.8</ele>
        <time>2024-04-01T09:48:16Z</time>
      </trkpt>
      <trkpt lat="49.98154" lon="4.14903">
        <ele>237</ele>
        <time>2024-04-01T09:48:17Z</time>
      </trkpt>
      <trkpt lat="49.98158" lon="4.14906">
        <ele>237.2</ele>
        <time>2024-04-01T09:48:18Z</time>
      </trkpt>
      <trkpt lat="49.98161" lon="4.1491">
        <ele>237.2</ele>
        <time>2024-04-01T09:48:19Z</time>
      </trkpt>
      <trkpt lat="49.98166" lon="4.14915">
        <ele>237.4</ele>
        <time>2024-04-01T09:48:20Z</time>
      </trkpt>
      <trkpt lat="49.9817" lon="4.14919">
        <ele>237.4</ele>
        <time>2024-04-01T09:48:21Z</time>
      </trkpt>
      <trkpt lat="49.98173" lon="4.14923">
        <ele>238.2</ele>
        <time>2024-04-01T09:48:22Z</time>
      </trkpt>
      <trkpt lat="49.98177" lon="4.14927">
        <ele>238.8</ele>
        <time>2024-04-01T09:48:23Z</time>
      </trkpt>
      <trkpt lat="49.98181" lon="4.14931">
        <ele>238.8</ele>
        <time>2024-04-01T09:48:24Z</time>
      </trkpt>
      <trkpt lat="49.98185" lon="4.14935">
        <ele>239.2</ele>
        <time>2024-04-01T09:48:25Z</time>
      </trkpt>
      <trkpt lat="49.98189" lon="4.14939">
        <ele>239.4</ele>
        <time>2024-04-01T09:48:26Z</time>
      </trkpt>
      <trkpt lat="49.98192" lon="4.14943">
        <ele>239.6</ele>
        <time>2024-04-01T09:48:27Z</time>
      </trkpt>
      <trkpt lat="49.98196" lon="4.14947">
        <ele>239.8</ele>
        <time>2024-04-01T09:48:28Z</time>
      </trkpt>
      <trkpt lat="49.982" lon="4.14952">
        <ele>240.2</ele>
        <time>2024-04-01T09:48:29Z</time>
      </trkpt>
      <trkpt lat="49.98204" lon="4.14957">
        <ele>240.2</ele>
        <time>2024-04-01T09:48:30Z</time>
      </trkpt>
      <trkpt lat="49.98208" lon="4.14962">
        <ele>240.2</ele>
        <time>2024-04-01T09:48:31Z</time>
      </trkpt>
      <trkpt lat="49.98212" lon="4.14968">
        <ele>240.2</ele>
        <time>2024-04-01T09:48:32Z</time>
      </trkpt>
      <trkpt lat="49.98216" lon="4.14974">
        <ele>240.4</ele>
        <time>2024-04-01T09:48:33Z</time>
      </trkpt>
      <trkpt lat="49.98219" lon="4.14981">
        <ele>240.4</ele>
        <time>2024-04-01T09:48:34Z</time>
      </trkpt>
      <trkpt lat="49.98222" lon="4.14988">
        <ele>240.6</ele>
        <time>2024-04-01T09:48:35Z</time>
      </trkpt>
      <trkpt lat="49.98225" lon="4.14995">
        <ele>240.6</ele>
        <time>2024-04-01T09:48:36Z</time>
      </trkpt>
      <trkpt lat="49.98227" lon="4.15002">
        <ele>240.6</ele>
        <time>2024-04-01T09:48:37Z</time>
      </trkpt>
      <trkpt lat="49.9823" lon="4.1501">
        <ele>240.6</ele>
        <time>2024-04-01T09:48:38Z</time>
      </trkpt>
      <trkpt lat="49.98233" lon="4.15018">
        <ele>240.6</ele>
        <time>2024-04-01T09:48:39Z</time>
      </trkpt>
      <trkpt lat="49.98235" lon="4.15025">
        <ele>240.8</ele>
        <time>2024-04-01T09:48:40Z</time>
      </trkpt>
      <trkpt lat="49.98238" lon="4.15033">
        <ele>240.8</ele>
        <time>2024-04-01T09:48:41Z</time>
      </trkpt>
      <trkpt lat="49.98241" lon="4.1504">
        <ele>241</ele>
        <time>2024-04-01T09:48:42Z</time>
      </trkpt>
      <trkpt lat="49.98243" lon="4.15048">
        <ele>241.2</ele>
        <time>2024-04-01T09:48:43Z</time>
      </trkpt>
      <trkpt lat="49.98246" lon="4.15055">
        <ele>241.2</ele>
        <time>2024-04-01T09:48:44Z</time>
      </trkpt>
      <trkpt lat="49.98248" lon="4.15063">
        <ele>241.2</ele>
        <time>2024-04-01T09:48:45Z</time>
      </trkpt>
      <trkpt lat="49.98251" lon="4.1507">
        <ele>241.2</ele>
        <time>2024-04-01T09:48:46Z</time>
      </trkpt>
      <trkpt lat="49.98253" lon="4.15078">
        <ele>241.2</ele>
        <time>2024-04-01T09:48:47Z</time>
      </trkpt>
      <trkpt lat="49.98256" lon="4.15086">
        <ele>241.4</ele>
        <time>2024-04-01T09:48:48Z</time>
      </trkpt>
      <trkpt lat="49.98259" lon="4.15094">
        <ele>241.2</ele>
        <time>2024-04-01T09:48:49Z</time>
      </trkpt>
      <trkpt lat="49.98261" lon="4.15102">
        <ele>241.4</ele>
        <time>2024-04-01T09:48:50Z</time>
      </trkpt>
      <trkpt lat="49.98264" lon="4.15109">
        <ele>241.4</ele>
        <time>2024-04-01T09:48:51Z</time>
      </trkpt>
      <trkpt lat="49.98267" lon="4.15117">
        <ele>241.4</ele>
        <time>2024-04-01T09:48:52Z</time>
      </trkpt>
      <trkpt lat="49.98269" lon="4.15125">
        <ele>241.2</ele>
        <time>2024-04-01T09:48:53Z</time>
      </trkpt>
      <trkpt lat="49.98272" lon="4.15133">
        <ele>241.4</ele>
        <time>2024-04-01T09:48:54Z</time>
      </trkpt>
      <trkpt lat="49.98274" lon="4.15141">
        <ele>241.6</ele>
        <time>2024-04-01T09:48:55Z</time>
      </trkpt>
      <trkpt lat="49.98276" lon="4.15149">
        <ele>241.6</ele>
        <time>2024-04-01T09:48:56Z</time>
      </trkpt>
      <trkpt lat="49.98279" lon="4.15156">
        <ele>241.8</ele>
        <time>2024-04-01T09:48:57Z</time>
      </trkpt>
      <trkpt lat="49.98281" lon="4.15164">
        <ele>241.8</ele>
        <time>2024-04-01T09:48:58Z</time>
      </trkpt>
      <trkpt lat="49.98284" lon="4.15172">
        <ele>241.8</ele>
        <time>2024-04-01T09:48:59Z</time>
      </trkpt>
      <trkpt lat="49.98286" lon="4.1518">
        <ele>242</ele>
        <time>2024-04-01T09:49:00Z</time>
      </trkpt>
      <trkpt lat="49.98289" lon="4.15188">
        <ele>242</ele>
        <time>2024-04-01T09:49:01Z</time>
      </trkpt>
      <trkpt lat="49.98291" lon="4.15196">
        <ele>241.8</ele>
        <time>2024-04-01T09:49:02Z</time>
      </trkpt>
      <trkpt lat="49.98294" lon="4.15204">
        <ele>241.8</ele>
        <time>2024-04-01T09:49:03Z</time>
      </trkpt>
      <trkpt lat="49.98296" lon="4.15211">
        <ele>241.8</ele>
        <time>2024-04-01T09:49:04Z</time>
      </trkpt>
      <trkpt lat="49.98299" lon="4.15219">
        <ele>242</ele>
        <time>2024-04-01T09:49:05Z</time>
      </trkpt>
      <trkpt lat="49.98302" lon="4.15228">
        <ele>242</ele>
        <time>2024-04-01T09:49:06Z</time>
      </trkpt>
      <trkpt lat="49.98304" lon="4.15236">
        <ele>242.2</ele>
        <time>2024-04-01T09:49:07Z</time>
      </trkpt>
      <trkpt lat="49.98307" lon="4.15244">
        <ele>242</ele>
        <time>2024-04-01T09:49:08Z</time>
      </trkpt>
      <trkpt lat="49.98309" lon="4.15252">
        <ele>242</ele>
        <time>2024-04-01T09:49:09Z</time>
      </trkpt>
      <trkpt lat="49.98312" lon="4.1526">
        <ele>242.2</ele>
        <time>2024-04-01T09:49:10Z</time>
      </trkpt>
      <trkpt lat="49.98314" lon="4.15269">
        <ele>242.2</ele>
        <time>2024-04-01T09:49:11Z</time>
      </trkpt>
      <trkpt lat="49.98317" lon="4.15277">
        <ele>242.2</ele>
        <time>2024-04-01T09:49:12Z</time>
      </trkpt>
      <trkpt lat="49.9832" lon="4.15286">
        <ele>242.2</ele>
        <time>2024-04-01T09:49:13Z</time>
      </trkpt>
      <trkpt lat="49.98323" lon="4.15294">
        <ele>242.2</ele>
        <time>2024-04-01T09:49:14Z</time>
      </trkpt>
      <trkpt lat="49.98325" lon="4.15303">
        <ele>242.2</ele>
        <time>2024-04-01T09:49:15Z</time>
      </trkpt>
      <trkpt lat="49.98328" lon="4.15312">
        <ele>242.2</ele>
        <time>2024-04-01T09:49:16Z</time>
      </trkpt>
      <trkpt lat="49.98331" lon="4.15321">
        <ele>242.2</ele>
        <time>2024-04-01T09:49:17Z</time>
      </trkpt>
      <trkpt lat="49.98334" lon="4.1533">
        <ele>242</ele>
        <time>2024-04-01T09:49:18Z</time>
      </trkpt>
      <trkpt lat="49.98337" lon="4.15339">
        <ele>242</ele>
        <time>2024-04-01T09:49:19Z</time>
      </trkpt>
      <trkpt lat="49.9834" lon="4.15347">
        <ele>242.2</ele>
        <time>2024-04-01T09:49:20Z</time>
      </trkpt>
      <trkpt lat="49.98343" lon="4.15356">
        <ele>242.2</ele>
        <time>2024-04-01T09:49:21Z</time>
      </trkpt>
      <trkpt lat="49.98346" lon="4.15364">
        <ele>242</ele>
        <time>2024-04-01T09:49:22Z</time>
      </trkpt>
      <trkpt lat="49.98348" lon="4.15373">
        <ele>242.2</ele>
        <time>2024-04-01T09:49:23Z</time>
      </trkpt>
      <trkpt lat="49.98351" lon="4.15382">
        <ele>242.2</ele>
        <time>2024-04-01T09:49:24Z</time>
      </trkpt>
      <trkpt lat="49.98354" lon="4.1539">
        <ele>242</ele>
        <time>2024-04-01T09:49:25Z</time>
      </trkpt>
      <trkpt lat="49.98357" lon="4.15399">
        <ele>241.8</ele>
        <time>2024-04-01T09:49:26Z</time>
      </trkpt>
      <trkpt lat="49.9836" lon="4.15408">
        <ele>241.8</ele>
        <time>2024-04-01T09:49:27Z</time>
      </trkpt>
      <trkpt lat="49.98363" lon="4.15418">
        <ele>241.8</ele>
        <time>2024-04-01T09:49:28Z</time>
      </trkpt>
      <trkpt lat="49.98366" lon="4.15427">
        <ele>241.6</ele>
        <time>2024-04-01T09:49:29Z</time>
      </trkpt>
      <trkpt lat="49.98369" lon="4.15437">
        <ele>241.6</ele>
        <time>2024-04-01T09:49:30Z</time>
      </trkpt>
      <trkpt lat="49.98372" lon="4.15447">
        <ele>241.4</ele>
        <time>2024-04-01T09:49:31Z</time>
      </trkpt>
      <trkpt lat="49.98376" lon="4.15457">
        <ele>241.4</ele>
        <time>2024-04-01T09:49:32Z</time>
      </trkpt>
      <trkpt lat="49.98379" lon="4.15467">
        <ele>241.4</ele>
        <time>2024-04-01T09:49:33Z</time>
      </trkpt>
      <trkpt lat="49.98383" lon="4.15477">
        <ele>241.4</ele>
        <time>2024-04-01T09:49:34Z</time>
      </trkpt>
      <trkpt lat="49.98386" lon="4.15487">
        <ele>241.2</ele>
        <time>2024-04-01T09:49:35Z</time>
      </trkpt>
      <trkpt lat="49.9839" lon="4.15497">
        <ele>241.2</ele>
        <time>2024-04-01T09:49:36Z</time>
      </trkpt>
      <trkpt lat="49.98393" lon="4.15508">
        <ele>241.2</ele>
        <time>2024-04-01T09:49:37Z</time>
      </trkpt>
      <trkpt lat="49.98397" lon="4.15519">
        <ele>241</ele>
        <time>2024-04-01T09:49:38Z</time>
      </trkpt>
      <trkpt lat="49.98401" lon="4.15529">
        <ele>240.6</ele>
        <time>2024-04-01T09:49:39Z</time>
      </trkpt>
      <trkpt lat="49.98404" lon="4.15539">
        <ele>240.4</ele>
        <time>2024-04-01T09:49:40Z</time>
      </trkpt>
      <trkpt lat="49.98408" lon="4.1555">
        <ele>240</ele>
        <time>2024-04-01T09:49:41Z</time>
      </trkpt>
      <trkpt lat="49.98411" lon="4.1556">
        <ele>239.6</ele>
        <time>2024-04-01T09:49:42Z</time>
      </trkpt>
      <trkpt lat="49.98415" lon="4.1557">
        <ele>239.4</ele>
        <time>2024-04-01T09:49:43Z</time>
      </trkpt>
      <trkpt lat="49.98418" lon="4.15581">
        <ele>239</ele>
        <time>2024-04-01T09:49:44Z</time>
      </trkpt>
      <trkpt lat="49.98422" lon="4.15591">
        <ele>238.8</ele>
        <time>2024-04-01T09:49:45Z</time>
      </trkpt>
      <trkpt lat="49.98425" lon="4.156">
        <ele>238.6</ele>
        <time>2024-04-01T09:49:46Z</time>
      </trkpt>
      <trkpt lat="49.98429" lon="4.1561">
        <ele>238</ele>
        <time>2024-04-01T09:49:47Z</time>
      </trkpt>
      <trkpt lat="49.98432" lon="4.1562">
        <ele>237.8</ele>
        <time>2024-04-01T09:49:48Z</time>
      </trkpt>
      <trkpt lat="49.98435" lon="4.1563">
        <ele>237.8</ele>
        <time>2024-04-01T09:49:49Z</time>
      </trkpt>
      <trkpt lat="49.98438" lon="4.15639">
        <ele>237.8</ele>
        <time>2024-04-01T09:49:50Z</time>
      </trkpt>
      <trkpt lat="49.98442" lon="4.15649">
        <ele>237.8</ele>
        <time>2024-04-01T09:49:51Z</time>
      </trkpt>
      <trkpt lat="49.98445" lon="4.15659">
        <ele>237.8</ele>
        <time>2024-04-01T09:49:52Z</time>
      </trkpt>
      <trkpt lat="49.98449" lon="4.1567">
        <ele>237.6</ele>
        <time>2024-04-01T09:49:53Z</time>
      </trkpt>
      <trkpt lat="49.98452" lon="4.1568">
        <ele>237.6</ele>
        <time>2024-04-01T09:49:54Z</time>
      </trkpt>
      <trkpt lat="49.98456" lon="4.15691">
        <ele>237.8</ele>
        <time>2024-04-01T09:49:55Z</time>
      </trkpt>
      <trkpt lat="49.9846" lon="4.15702">
        <ele>237.6</ele>
        <time>2024-04-01T09:49:56Z</time>
      </trkpt>
      <trkpt lat="49.98463" lon="4.15713">
        <ele>237.4</ele>
        <time>2024-04-01T09:49:57Z</time>
      </trkpt>
      <trkpt lat="49.98467" lon="4.15725">
        <ele>237.6</ele>
        <time>2024-04-01T09:49:58Z</time>
      </trkpt>
      <trkpt lat="49.98471" lon="4.15736">
        <ele>237.6</ele>
        <time>2024-04-01T09:49:59Z</time>
      </trkpt>
      <trkpt lat="49.98475" lon="4.15748">
        <ele>237.6</ele>
        <time>2024-04-01T09:50:00Z</time>
      </trkpt>
      <trkpt lat="49.98479" lon="4.1576">
        <ele>237.6</ele>
        <time>2024-04-01T09:50:01Z</time>
      </trkpt>
      <trkpt lat="49.98483" lon="4.15773">
        <ele>237.4</ele>
        <time>2024-04-01T09:50:02Z</time>
      </trkpt>
      <trkpt lat="49.98487" lon="4.15784">
        <ele>237.2</ele>
        <time>2024-04-01T09:50:03Z</time>
      </trkpt>
      <trkpt lat="49.98491" lon="4.15796">
        <ele>237.4</ele>
        <time>2024-04-01T09:50:04Z</time>
      </trkpt>
      <trkpt lat="49.98495" lon="4.15807">
        <ele>237.2</ele>
        <time>2024-04-01T09:50:05Z</time>
      </trkpt>
      <trkpt lat="49.98499" lon="4.15819">
        <ele>236.8</ele>
        <time>2024-04-01T09:50:06Z</time>
      </trkpt>
      <trkpt lat="49.98503" lon="4.1583">
        <ele>236.8</ele>
        <time>2024-04-01T09:50:07Z</time>
      </trkpt>
      <trkpt lat="49.98506" lon="4.15841">
        <ele>236.4</ele>
        <time>2024-04-01T09:50:08Z</time>
      </trkpt>
      <trkpt lat="49.9851" lon="4.15851">
        <ele>236.2</ele>
        <time>2024-04-01T09:50:09Z</time>
      </trkpt>
      <trkpt lat="49.98513" lon="4.15862">
        <ele>236.2</ele>
        <time>2024-04-01T09:50:10Z</time>
      </trkpt>
      <trkpt lat="49.98517" lon="4.15872">
        <ele>235.8</ele>
        <time>2024-04-01T09:50:11Z</time>
      </trkpt>
      <trkpt lat="49.9852" lon="4.15883">
        <ele>235.8</ele>
        <time>2024-04-01T09:50:12Z</time>
      </trkpt>
      <trkpt lat="49.98524" lon="4.15893">
        <ele>235.6</ele>
        <time>2024-04-01T09:50:13Z</time>
      </trkpt>
      <trkpt lat="49.98527" lon="4.15904">
        <ele>235.6</ele>
        <time>2024-04-01T09:50:14Z</time>
      </trkpt>
      <trkpt lat="49.98531" lon="4.15914">
        <ele>235.4</ele>
        <time>2024-04-01T09:50:15Z</time>
      </trkpt>
      <trkpt lat="49.98534" lon="4.15924">
        <ele>235.4</ele>
        <time>2024-04-01T09:50:16Z</time>
      </trkpt>
      <trkpt lat="49.98536" lon="4.15933">
        <ele>235.4</ele>
        <time>2024-04-01T09:50:17Z</time>
      </trkpt>
      <trkpt lat="49.98539" lon="4.15943">
        <ele>235.4</ele>
        <time>2024-04-01T09:50:18Z</time>
      </trkpt>
      <trkpt lat="49.98542" lon="4.15952">
        <ele>235.4</ele>
        <time>2024-04-01T09:50:19Z</time>
      </trkpt>
      <trkpt lat="49.98545" lon="4.15961">
        <ele>235.2</ele>
        <time>2024-04-01T09:50:20Z</time>
      </trkpt>
      <trkpt lat="49.98547" lon="4.15971">
        <ele>235.4</ele>
        <time>2024-04-01T09:50:21Z</time>
      </trkpt>
      <trkpt lat="49.9855" lon="4.1598">
        <ele>235.6</ele>
        <time>2024-04-01T09:50:22Z</time>
      </trkpt>
      <trkpt lat="49.98553" lon="4.15989">
        <ele>235.8</ele>
        <time>2024-04-01T09:50:23Z</time>
      </trkpt>
      <trkpt lat="49.98555" lon="4.15998">
        <ele>235.8</ele>
        <time>2024-04-01T09:50:24Z</time>
      </trkpt>
      <trkpt lat="49.98558" lon="4.16006">
        <ele>235.8</ele>
        <time>2024-04-01T09:50:25Z</time>
      </trkpt>
      <trkpt lat="49.98561" lon="4.16015">
        <ele>235.8</ele>
        <time>2024-04-01T09:50:26Z</time>
      </trkpt>
      <trkpt lat="49.98565" lon="4.16022">
        <ele>236</ele>
        <time>2024-04-01T09:50:27Z</time>
      </trkpt>
      <trkpt lat="49.98569" lon="4.16029">
        <ele>236.2</ele>
        <time>2024-04-01T09:50:28Z</time>
      </trkpt>
      <trkpt lat="49.98572" lon="4.16035">
        <ele>236.4</ele>
        <time>2024-04-01T09:50:29Z</time>
      </trkpt>
      <trkpt lat="49.98577" lon="4.16041">
        <ele>236.4</ele>
        <time>2024-04-01T09:50:30Z</time>
      </trkpt>
      <trkpt lat="49.98582" lon="4.16046">
        <ele>236.4</ele>
        <time>2024-04-01T09:50:31Z</time>
      </trkpt>
      <trkpt lat="49.98587" lon="4.1605">
        <ele>236.6</ele>
        <time>2024-04-01T09:50:32Z</time>
      </trkpt>
      <trkpt lat="49.98592" lon="4.16054">
        <ele>236.8</ele>
        <time>2024-04-01T09:50:33Z</time>
      </trkpt>
      <trkpt lat="49.98598" lon="4.16057">
        <ele>237</ele>
        <time>2024-04-01T09:50:34Z</time>
      </trkpt>
      <trkpt lat="49.98604" lon="4.16059">
        <ele>237.2</ele>
        <time>2024-04-01T09:50:35Z</time>
      </trkpt>
      <trkpt lat="49.98611" lon="4.16062">
        <ele>237.4</ele>
        <time>2024-04-01T09:50:36Z</time>
      </trkpt>
      <trkpt lat="49.98617" lon="4.16065">
        <ele>237.6</ele>
        <time>2024-04-01T09:50:37Z</time>
      </trkpt>
      <trkpt lat="49.98624" lon="4.16068">
        <ele>238</ele>
        <time>2024-04-01T09:50:38Z</time>
      </trkpt>
      <trkpt lat="49.9863" lon="4.16071">
        <ele>238</ele>
        <time>2024-04-01T09:50:39Z</time>
      </trkpt>
      <trkpt lat="49.98637" lon="4.16074">
        <ele>238</ele>
        <time>2024-04-01T09:50:40Z</time>
      </trkpt>
      <trkpt lat="49.98644" lon="4.16077">
        <ele>238.2</ele>
        <time>2024-04-01T09:50:41Z</time>
      </trkpt>
      <trkpt lat="49.98651" lon="4.1608">
        <ele>238.4</ele>
        <time>2024-04-01T09:50:42Z</time>
      </trkpt>
      <trkpt lat="49.98658" lon="4.16083">
        <ele>238.2</ele>
        <time>2024-04-01T09:50:43Z</time>
      </trkpt>
      <trkpt lat="49.98665" lon="4.16086">
        <ele>238.4</ele>
        <time>2024-04-01T09:50:44Z</time>
      </trkpt>
      <trkpt lat="49.98672" lon="4.16088">
        <ele>238.4</ele>
        <time>2024-04-01T09:50:45Z</time>
      </trkpt>
      <trkpt lat="49.98678" lon="4.16091">
        <ele>238.2</ele>
        <time>2024-04-01T09:50:46Z</time>
      </trkpt>
      <trkpt lat="49.98685" lon="4.16094">
        <ele>238.4</ele>
        <time>2024-04-01T09:50:47Z</time>
      </trkpt>
      <trkpt lat="49.98691" lon="4.16096">
        <ele>238.4</ele>
        <time>2024-04-01T09:50:48Z</time>
      </trkpt>
      <trkpt lat="49.98697" lon="4.16099">
        <ele>238.6</ele>
        <time>2024-04-01T09:50:49Z</time>
      </trkpt>
      <trkpt lat="49.98702" lon="4.16101">
        <ele>238.4</ele>
        <time>2024-04-01T09:50:50Z</time>
      </trkpt>
      <trkpt lat="49.98707" lon="4.16103">
        <ele>238.4</ele>
        <time>2024-04-01T09:50:51Z</time>
      </trkpt>
      <trkpt lat="49.98712" lon="4.16105">
        <ele>238.6</ele>
        <time>2024-04-01T09:50:52Z</time>
      </trkpt>
      <trkpt lat="49.98717" lon="4.16107">
        <ele>238.6</ele>
        <time>2024-04-01T09:50:53Z</time>
      </trkpt>
      <trkpt lat="49.98722" lon="4.16108">
        <ele>238.8</ele>
        <time>2024-04-01T09:50:54Z</time>
      </trkpt>
      <trkpt lat="49.98726" lon="4.1611">
        <ele>239</ele>
        <time>2024-04-01T09:50:55Z</time>
      </trkpt>
      <trkpt lat="49.9873" lon="4.16112">
        <ele>239.4</ele>
        <time>2024-04-01T09:50:56Z</time>
      </trkpt>
      <trkpt lat="49.98734" lon="4.16113">
        <ele>239.4</ele>
        <time>2024-04-01T09:50:57Z</time>
      </trkpt>
      <trkpt lat="49.98739" lon="4.16115">
        <ele>239.4</ele>
        <time>2024-04-01T09:50:58Z</time>
      </trkpt>
      <trkpt lat="49.98743" lon="4.16116">
        <ele>239.8</ele>
        <time>2024-04-01T09:50:59Z</time>
      </trkpt>
      <trkpt lat="49.98747" lon="4.16118">
        <ele>240.2</ele>
        <time>2024-04-01T09:51:00Z</time>
      </trkpt>
      <trkpt lat="49.98751" lon="4.1612">
        <ele>240.6</ele>
        <time>2024-04-01T09:51:01Z</time>
      </trkpt>
      <trkpt lat="49.98755" lon="4.16122">
        <ele>241</ele>
        <time>2024-04-01T09:51:02Z</time>
      </trkpt>
      <trkpt lat="49.98759" lon="4.16124">
        <ele>241.2</ele>
        <time>2024-04-01T09:51:03Z</time>
      </trkpt>
      <trkpt lat="49.98765" lon="4.16125">
        <ele>241.4</ele>
        <time>2024-04-01T09:51:04Z</time>
      </trkpt>
      <trkpt lat="49.98769" lon="4.16127">
        <ele>241.8</ele>
        <time>2024-04-01T09:51:05Z</time>
      </trkpt>
      <trkpt lat="49.98774" lon="4.16129">
        <ele>242.4</ele>
        <time>2024-04-01T09:51:06Z</time>
      </trkpt>
      <trkpt lat="49.98778" lon="4.16131">
        <ele>242.8</ele>
        <time>2024-04-01T09:51:07Z</time>
      </trkpt>
      <trkpt lat="49.98782" lon="4.16133">
        <ele>243</ele>
        <time>2024-04-01T09:51:08Z</time>
      </trkpt>
      <trkpt lat="49.98787" lon="4.16134">
        <ele>243</ele>
        <time>2024-04-01T09:51:09Z</time>
      </trkpt>
      <trkpt lat="49.98791" lon="4.16136">
        <ele>243.8</ele>
        <time>2024-04-01T09:51:10Z</time>
      </trkpt>
      <trkpt lat="49.98795" lon="4.16138">
        <ele>244.2</ele>
        <time>2024-04-01T09:51:11Z</time>
      </trkpt>
      <trkpt lat="49.98799" lon="4.1614">
        <ele>244.2</ele>
        <time>2024-04-01T09:51:12Z</time>
      </trkpt>
      <trkpt lat="49.98803" lon="4.16141">
        <ele>244.2</ele>
        <time>2024-04-01T09:51:13Z</time>
      </trkpt>
      <trkpt lat="49.98807" lon="4.16143">
        <ele>244.8</ele>
        <time>2024-04-01T09:51:14Z</time>
      </trkpt>
      <trkpt lat="49.98811" lon="4.16145">
        <ele>245</ele>
        <time>2024-04-01T09:51:15Z</time>
      </trkpt>
      <trkpt lat="49.98815" lon="4.16146">
        <ele>245.2</ele>
        <time>2024-04-01T09:51:16Z</time>
      </trkpt>
      <trkpt lat="49.98819" lon="4.16148">
        <ele>245.4</ele>
        <time>2024-04-01T09:51:17Z</time>
      </trkpt>
      <trkpt lat="49.98823" lon="4.16149">
        <ele>245.4</ele>
        <time>2024-04-01T09:51:18Z</time>
      </trkpt>
      <trkpt lat="49.98827" lon="4.16151">
        <ele>245.6</ele>
        <time>2024-04-01T09:51:19Z</time>
      </trkpt>
      <trkpt lat="49.98831" lon="4.16152">
        <ele>245.8</ele>
        <time>2024-04-01T09:51:20Z</time>
      </trkpt>
      <trkpt lat="49.98835" lon="4.16153">
        <ele>246.2</ele>
        <time>2024-04-01T09:51:21Z</time>
      </trkpt>
      <trkpt lat="49.98838" lon="4.16155">
        <ele>246.4</ele>
        <time>2024-04-01T09:51:22Z</time>
      </trkpt>
      <trkpt lat="49.98842" lon="4.16156">
        <ele>246.8</ele>
        <time>2024-04-01T09:51:23Z</time>
      </trkpt>
      <trkpt lat="49.98845" lon="4.16158">
        <ele>247</ele>
        <time>2024-04-01T09:51:24Z</time>
      </trkpt>
      <trkpt lat="49.98848" lon="4.16159">
        <ele>247.2</ele>
        <time>2024-04-01T09:51:25Z</time>
      </trkpt>
      <trkpt lat="49.98852" lon="4.1616">
        <ele>247.4</ele>
        <time>2024-04-01T09:51:26Z</time>
      </trkpt>
      <trkpt lat="49.98855" lon="4.16162">
        <ele>247.6</ele>
        <time>2024-04-01T09:51:27Z</time>
      </trkpt>
      <trkpt lat="49.98859" lon="4.16163">
        <ele>248</ele>
        <time>2024-04-01T09:51:28Z</time>
      </trkpt>
      <trkpt lat="49.98862" lon="4.16165">
        <ele>248.2</ele>
        <time>2024-04-01T09:51:29Z</time>
      </trkpt>
      <trkpt lat="49.98866" lon="4.16166">
        <ele>248.2</ele>
        <time>2024-04-01T09:51:30Z</time>
      </trkpt>
      <trkpt lat="49.9887" lon="4.16168">
        <ele>248.2</ele>
        <time>2024-04-01T09:51:31Z</time>
      </trkpt>
      <trkpt lat="49.98873" lon="4.16169">
        <ele>248.6</ele>
        <time>2024-04-01T09:51:32Z</time>
      </trkpt>
      <trkpt lat="49.98877" lon="4.16171">
        <ele>248.6</ele>
        <time>2024-04-01T09:51:33Z</time>
      </trkpt>
      <trkpt lat="49.9888" lon="4.16173">
        <ele>249</ele>
        <time>2024-04-01T09:51:34Z</time>
      </trkpt>
      <trkpt lat="49.98884" lon="4.16175">
        <ele>249.2</ele>
        <time>2024-04-01T09:51:35Z</time>
      </trkpt>
      <trkpt lat="49.98887" lon="4.16176">
        <ele>249.2</ele>
        <time>2024-04-01T09:51:36Z</time>
      </trkpt>
      <trkpt lat="49.98891" lon="4.16178">
        <ele>249.4</ele>
        <time>2024-04-01T09:51:37Z</time>
      </trkpt>
      <trkpt lat="49.98894" lon="4.1618">
        <ele>249.4</ele>
        <time>2024-04-01T09:51:38Z</time>
      </trkpt>
      <trkpt lat="49.98897" lon="4.16182">
        <ele>249.4</ele>
        <time>2024-04-01T09:51:39Z</time>
      </trkpt>
      <trkpt lat="49.98901" lon="4.16185">
        <ele>249.6</ele>
        <time>2024-04-01T09:51:40Z</time>
      </trkpt>
      <trkpt lat="49.98904" lon="4.16187">
        <ele>249.6</ele>
        <time>2024-04-01T09:51:41Z</time>
      </trkpt>
      <trkpt lat="49.98908" lon="4.16191">
        <ele>249.8</ele>
        <time>2024-04-01T09:51:42Z</time>
      </trkpt>
      <trkpt lat="49.98911" lon="4.16194">
        <ele>249.8</ele>
        <time>2024-04-01T09:51:43Z</time>
      </trkpt>
      <trkpt lat="49.98914" lon="4.16198">
        <ele>250</ele>
        <time>2024-04-01T09:51:44Z</time>
      </trkpt>
      <trkpt lat="49.98918" lon="4.16202">
        <ele>250</ele>
        <time>2024-04-01T09:51:45Z</time>
      </trkpt>
      <trkpt lat="49.98921" lon="4.16206">
        <ele>250</ele>
        <time>2024-04-01T09:51:46Z</time>
      </trkpt>
      <trkpt lat="49.98925" lon="4.16211">
        <ele>250</ele>
        <time>2024-04-01T09:51:47Z</time>
      </trkpt>
      <trkpt lat="49.98929" lon="4.16216">
        <ele>250</ele>
        <time>2024-04-01T09:51:48Z</time>
      </trkpt>
      <trkpt lat="49.98932" lon="4.16221">
        <ele>250.2</ele>
        <time>2024-04-01T09:51:49Z</time>
      </trkpt>
      <trkpt lat="49.98935" lon="4.16227">
        <ele>250.2</ele>
        <time>2024-04-01T09:51:50Z</time>
      </trkpt>
      <trkpt lat="49.98938" lon="4.16232">
        <ele>250.4</ele>
        <time>2024-04-01T09:51:51Z</time>
      </trkpt>
      <trkpt lat="49.98941" lon="4.16238">
        <ele>250.6</ele>
        <time>2024-04-01T09:51:52Z</time>
      </trkpt>
      <trkpt lat="49.98944" lon="4.16244">
        <ele>250.8</ele>
        <time>2024-04-01T09:51:53Z</time>
      </trkpt>
      <trkpt lat="49.98947" lon="4.1625">
        <ele>251</ele>
        <time>2024-04-01T09:51:54Z</time>
      </trkpt>
      <trkpt lat="49.9895" lon="4.16256">
        <ele>251</ele>
        <time>2024-04-01T09:51:55Z</time>
      </trkpt>
      <trkpt lat="49.98953" lon="4.16261">
        <ele>251</ele>
        <time>2024-04-01T09:51:56Z</time>
      </trkpt>
      <trkpt lat="49.98956" lon="4.16267">
        <ele>251.2</ele>
        <time>2024-04-01T09:51:57Z</time>
      </trkpt>
      <trkpt lat="49.98959" lon="4.16273">
        <ele>251.4</ele>
        <time>2024-04-01T09:51:58Z</time>
      </trkpt>
      <trkpt lat="49.98963" lon="4.16279">
        <ele>251.8</ele>
        <time>2024-04-01T09:51:59Z</time>
      </trkpt>
      <trkpt lat="49.98965" lon="4.16285">
        <ele>252.4</ele>
        <time>2024-04-01T09:52:00Z</time>
      </trkpt>
      <trkpt lat="49.98969" lon="4.16291">
        <ele>252.6</ele>
        <time>2024-04-01T09:52:01Z</time>
      </trkpt>
      <trkpt lat="49.98972" lon="4.16296">
        <ele>252.6</ele>
        <time>2024-04-01T09:52:02Z</time>
      </trkpt>
      <trkpt lat="49.98975" lon="4.16302">
        <ele>252.6</ele>
        <time>2024-04-01T09:52:03Z</time>
      </trkpt>
      <trkpt lat="49.98979" lon="4.16308">
        <ele>252.6</ele>
        <time>2024-04-01T09:52:04Z</time>
      </trkpt>
      <trkpt lat="49.98982" lon="4.16314">
        <ele>253</ele>
        <time>2024-04-01T09:52:05Z</time>
      </trkpt>
      <trkpt lat="49.98985" lon="4.1632">
        <ele>253</ele>
        <time>2024-04-01T09:52:06Z</time>
      </trkpt>
      <trkpt lat="49.98988" lon="4.16325">
        <ele>253</ele>
        <time>2024-04-01T09:52:07Z</time>
      </trkpt>
      <trkpt lat="49.98991" lon="4.16331">
        <ele>253.2</ele>
        <time>2024-04-01T09:52:08Z</time>
      </trkpt>
      <trkpt lat="49.98994" lon="4.16337">
        <ele>253.2</ele>
        <time>2024-04-01T09:52:09Z</time>
      </trkpt>
      <trkpt lat="49.98997" lon="4.16342">
        <ele>253.2</ele>
        <time>2024-04-01T09:52:10Z</time>
      </trkpt>
      <trkpt lat="49.99001" lon="4.16349">
        <ele>253.2</ele>
        <time>2024-04-01T09:52:11Z</time>
      </trkpt>
      <trkpt lat="49.99004" lon="4.16355">
        <ele>253.6</ele>
        <time>2024-04-01T09:52:12Z</time>
      </trkpt>
      <trkpt lat="49.99007" lon="4.16361">
        <ele>253.6</ele>
        <time>2024-04-01T09:52:13Z</time>
      </trkpt>
      <trkpt lat="49.9901" lon="4.16367">
        <ele>253.8</ele>
        <time>2024-04-01T09:52:14Z</time>
      </trkpt>
      <trkpt lat="49.99014" lon="4.16372">
        <ele>254</ele>
        <time>2024-04-01T09:52:15Z</time>
      </trkpt>
      <trkpt lat="49.99017" lon="4.16378">
        <ele>254.2</ele>
        <time>2024-04-01T09:52:16Z</time>
      </trkpt>
      <trkpt lat="49.9902" lon="4.16384">
        <ele>254.4</ele>
        <time>2024-04-01T09:52:17Z</time>
      </trkpt>
      <trkpt lat="49.99023" lon="4.1639">
        <ele>254.4</ele>
        <time>2024-04-01T09:52:18Z</time>
      </trkpt>
      <trkpt lat="49.99026" lon="4.16396">
        <ele>254.6</ele>
        <time>2024-04-01T09:52:19Z</time>
      </trkpt>
      <trkpt lat="49.9903" lon="4.16401">
        <ele>254.6</ele>
        <time>2024-04-01T09:52:20Z</time>
      </trkpt>
      <trkpt lat="49.99034" lon="4.16407">
        <ele>254.8</ele>
        <time>2024-04-01T09:52:21Z</time>
      </trkpt>
      <trkpt lat="49.99038" lon="4.16413">
        <ele>255</ele>
        <time>2024-04-01T09:52:22Z</time>
      </trkpt>
      <trkpt lat="49.99042" lon="4.16418">
        <ele>255.2</ele>
        <time>2024-04-01T09:52:23Z</time>
      </trkpt>
      <trkpt lat="49.99046" lon="4.16423">
        <ele>255.2</ele>
        <time>2024-04-01T09:52:24Z</time>
      </trkpt>
      <trkpt lat="49.99051" lon="4.16428">
        <ele>255.2</ele>
        <time>2024-04-01T09:52:25Z</time>
      </trkpt>
      <trkpt lat="49.99056" lon="4.16432">
        <ele>255.4</ele>
        <time>2024-04-01T09:52:26Z</time>
      </trkpt>
      <trkpt lat="49.99061" lon="4.16435">
        <ele>255.4</ele>
        <time>2024-04-01T09:52:27Z</time>
      </trkpt>
      <trkpt lat="49.99065" lon="4.16439">
        <ele>255.4</ele>
        <time>2024-04-01T09:52:28Z</time>
      </trkpt>
      <trkpt lat="49.9907" lon="4.16443">
        <ele>255.8</ele>
        <time>2024-04-01T09:52:29Z</time>
      </trkpt>
      <trkpt lat="49.99075" lon="4.16446">
        <ele>255.8</ele>
        <time>2024-04-01T09:52:30Z</time>
      </trkpt>
      <trkpt lat="49.9908" lon="4.16449">
        <ele>256</ele>
        <time>2024-04-01T09:52:31Z</time>
      </trkpt>
      <trkpt lat="49.99085" lon="4.16453">
        <ele>255.8</ele>
        <time>2024-04-01T09:52:32Z</time>
      </trkpt>
      <trkpt lat="49.9909" lon="4.16456">
        <ele>256</ele>
        <time>2024-04-01T09:52:33Z</time>
      </trkpt>
      <trkpt lat="49.99095" lon="4.1646">
        <ele>256</ele>
        <time>2024-04-01T09:52:34Z</time>
      </trkpt>
      <trkpt lat="49.99101" lon="4.16463">
        <ele>255.8</ele>
        <time>2024-04-01T09:52:35Z</time>
      </trkpt>
      <trkpt lat="49.99106" lon="4.16466">
        <ele>256</ele>
        <time>2024-04-01T09:52:36Z</time>
      </trkpt>
      <trkpt lat="49.9911" lon="4.1647">
        <ele>256</ele>
        <time>2024-04-01T09:52:37Z</time>
      </trkpt>
      <trkpt lat="49.99116" lon="4.16473">
        <ele>255.8</ele>
        <time>2024-04-01T09:52:38Z</time>
      </trkpt>
      <trkpt lat="49.99121" lon="4.16476">
        <ele>256</ele>
        <time>2024-04-01T09:52:39Z</time>
      </trkpt>
      <trkpt lat="49.99126" lon="4.1648">
        <ele>256</ele>
        <time>2024-04-01T09:52:40Z</time>
      </trkpt>
      <trkpt lat="49.99131" lon="4.16483">
        <ele>256</ele>
        <time>2024-04-01T09:52:41Z</time>
      </trkpt>
      <trkpt lat="49.99136" lon="4.16487">
        <ele>256</ele>
        <time>2024-04-01T09:52:42Z</time>
      </trkpt>
      <trkpt lat="49.99141" lon="4.1649">
        <ele>256</ele>
        <time>2024-04-01T09:52:43Z</time>
      </trkpt>
      <trkpt lat="49.99146" lon="4.16493">
        <ele>256</ele>
        <time>2024-04-01T09:52:44Z</time>
      </trkpt>
      <trkpt lat="49.99151" lon="4.16496">
        <ele>256</ele>
        <time>2024-04-01T09:52:45Z</time>
      </trkpt>
      <trkpt lat="49.99156" lon="4.16499">
        <ele>256</ele>
        <time>2024-04-01T09:52:46Z</time>
      </trkpt>
      <trkpt lat="49.9916" lon="4.16502">
        <ele>256</ele>
        <time>2024-04-01T09:52:47Z</time>
      </trkpt>
      <trkpt lat="49.99165" lon="4.16505">
        <ele>256</ele>
        <time>2024-04-01T09:52:48Z</time>
      </trkpt>
      <trkpt lat="49.9917" lon="4.16508">
        <ele>256</ele>
        <time>2024-04-01T09:52:49Z</time>
      </trkpt>
      <trkpt lat="49.99174" lon="4.16512">
        <ele>256.2</ele>
        <time>2024-04-01T09:52:50Z</time>
      </trkpt>
      <trkpt lat="49.99179" lon="4.16515">
        <ele>256</ele>
        <time>2024-04-01T09:52:51Z</time>
      </trkpt>
      <trkpt lat="49.99183" lon="4.16519">
        <ele>256.8</ele>
        <time>2024-04-01T09:52:52Z</time>
      </trkpt>
      <trkpt lat="49.99188" lon="4.16522">
        <ele>257.4</ele>
        <time>2024-04-01T09:52:53Z</time>
      </trkpt>
      <trkpt lat="49.99194" lon="4.16525">
        <ele>257.6</ele>
        <time>2024-04-01T09:52:54Z</time>
      </trkpt>
      <trkpt lat="49.99199" lon="4.16528">
        <ele>257.8</ele>
        <time>2024-04-01T09:52:55Z</time>
      </trkpt>
      <trkpt lat="49.99205" lon="4.16532">
        <ele>258</ele>
        <time>2024-04-01T09:52:56Z</time>
      </trkpt>
      <trkpt lat="49.99209" lon="4.16535">
        <ele>258.4</ele>
        <time>2024-04-01T09:52:57Z</time>
      </trkpt>
      <trkpt lat="49.99214" lon="4.16538">
        <ele>258.6</ele>
        <time>2024-04-01T09:52:58Z</time>
      </trkpt>
      <trkpt lat="49.99219" lon="4.16542">
        <ele>258.6</ele>
        <time>2024-04-01T09:52:59Z</time>
      </trkpt>
      <trkpt lat="49.99224" lon="4.16545">
        <ele>258.6</ele>
        <time>2024-04-01T09:53:00Z</time>
      </trkpt>
      <trkpt lat="49.9923" lon="4.16548">
        <ele>258.6</ele>
        <time>2024-04-01T09:53:01Z</time>
      </trkpt>
      <trkpt lat="49.99235" lon="4.16551">
        <ele>258.8</ele>
        <time>2024-04-01T09:53:02Z</time>
      </trkpt>
      <trkpt lat="49.99241" lon="4.16555">
        <ele>259</ele>
        <time>2024-04-01T09:53:03Z</time>
      </trkpt>
      <trkpt lat="49.99245" lon="4.16558">
        <ele>259</ele>
        <time>2024-04-01T09:53:04Z</time>
      </trkpt>
      <trkpt lat="49.99251" lon="4.16561">
        <ele>259</ele>
        <time>2024-04-01T09:53:05Z</time>
      </trkpt>
      <trkpt lat="49.99256" lon="4.16564">
        <ele>259</ele>
        <time>2024-04-01T09:53:06Z</time>
      </trkpt>
      <trkpt lat="49.99262" lon="4.16567">
        <ele>259.2</ele>
        <time>2024-04-01T09:53:07Z</time>
      </trkpt>
      <trkpt lat="49.99267" lon="4.16571">
        <ele>259.2</ele>
        <time>2024-04-01T09:53:08Z</time>
      </trkpt>
      <trkpt lat="49.99273" lon="4.16574">
        <ele>259.2</ele>
        <time>2024-04-01T09:53:09Z</time>
      </trkpt>
      <trkpt lat="49.99278" lon="4.16577">
        <ele>259.4</ele>
        <time>2024-04-01T09:53:10Z</time>
      </trkpt>
      <trkpt lat="49.99284" lon="4.16581">
        <ele>259.4</ele>
        <time>2024-04-01T09:53:11Z</time>
      </trkpt>
      <trkpt lat="49.9929" lon="4.16584">
        <ele>259.4</ele>
        <time>2024-04-01T09:53:12Z</time>
      </trkpt>
      <trkpt lat="49.99296" lon="4.16587">
        <ele>259.4</ele>
        <time>2024-04-01T09:53:13Z</time>
      </trkpt>
      <trkpt lat="49.99301" lon="4.1659">
        <ele>259.4</ele>
        <time>2024-04-01T09:53:14Z</time>
      </trkpt>
      <trkpt lat="49.99307" lon="4.16593">
        <ele>259.6</ele>
        <time>2024-04-01T09:53:15Z</time>
      </trkpt>
      <trkpt lat="49.99313" lon="4.16596">
        <ele>259.6</ele>
        <time>2024-04-01T09:53:16Z</time>
      </trkpt>
      <trkpt lat="49.99319" lon="4.16599">
        <ele>259.6</ele>
        <time>2024-04-01T09:53:17Z</time>
      </trkpt>
      <trkpt lat="49.99325" lon="4.16602">
        <ele>259.8</ele>
        <time>2024-04-01T09:53:18Z</time>
      </trkpt>
      <trkpt lat="49.99331" lon="4.16605">
        <ele>259.8</ele>
        <time>2024-04-01T09:53:19Z</time>
      </trkpt>
      <trkpt lat="49.99337" lon="4.16609">
        <ele>259.6</ele>
        <time>2024-04-01T09:53:20Z</time>
      </trkpt>
      <trkpt lat="49.99344" lon="4.16612">
        <ele>259.8</ele>
        <time>2024-04-01T09:53:21Z</time>
      </trkpt>
      <trkpt lat="49.9935" lon="4.16616">
        <ele>259.8</ele>
        <time>2024-04-01T09:53:22Z</time>
      </trkpt>
      <trkpt lat="49.99357" lon="4.16619">
        <ele>259.8</ele>
        <time>2024-04-01T09:53:23Z</time>
      </trkpt>
      <trkpt lat="49.99363" lon="4.16623">
        <ele>259.8</ele>
        <time>2024-04-01T09:53:24Z</time>
      </trkpt>
      <trkpt lat="49.99369" lon="4.16626">
        <ele>259.8</ele>
        <time>2024-04-01T09:53:25Z</time>
      </trkpt>
      <trkpt lat="49.99375" lon="4.16629">
        <ele>259.8</ele>
        <time>2024-04-01T09:53:26Z</time>
      </trkpt>
      <trkpt lat="49.99382" lon="4.16632">
        <ele>259.8</ele>
        <time>2024-04-01T09:53:27Z</time>
      </trkpt>
      <trkpt lat="49.99388" lon="4.16636">
        <ele>259.8</ele>
        <time>2024-04-01T09:53:28Z</time>
      </trkpt>
      <trkpt lat="49.99395" lon="4.16639">
        <ele>259.8</ele>
        <time>2024-04-01T09:53:29Z</time>
      </trkpt>
      <trkpt lat="49.99402" lon="4.16642">
        <ele>259.6</ele>
        <time>2024-04-01T09:53:30Z</time>
      </trkpt>
      <trkpt lat="49.99409" lon="4.16646">
        <ele>259.4</ele>
        <time>2024-04-01T09:53:31Z</time>
      </trkpt>
      <trkpt lat="49.99415" lon="4.16649">
        <ele>259.4</ele>
        <time>2024-04-01T09:53:32Z</time>
      </trkpt>
      <trkpt lat="49.99422" lon="4.16652">
        <ele>259.2</ele>
        <time>2024-04-01T09:53:33Z</time>
      </trkpt>
      <trkpt lat="49.99428" lon="4.16656">
        <ele>259.2</ele>
        <time>2024-04-01T09:53:34Z</time>
      </trkpt>
      <trkpt lat="49.99435" lon="4.16659">
        <ele>259.2</ele>
        <time>2024-04-01T09:53:35Z</time>
      </trkpt>
      <trkpt lat="49.99442" lon="4.16662">
        <ele>258.8</ele>
        <time>2024-04-01T09:53:36Z</time>
      </trkpt>
      <trkpt lat="49.99448" lon="4.16666">
        <ele>258.8</ele>
        <time>2024-04-01T09:53:37Z</time>
      </trkpt>
      <trkpt lat="49.99455" lon="4.16669">
        <ele>258.8</ele>
        <time>2024-04-01T09:53:38Z</time>
      </trkpt>
      <trkpt lat="49.99462" lon="4.16672">
        <ele>258.8</ele>
        <time>2024-04-01T09:53:39Z</time>
      </trkpt>
      <trkpt lat="49.99469" lon="4.16676">
        <ele>258.4</ele>
        <time>2024-04-01T09:53:40Z</time>
      </trkpt>
      <trkpt lat="49.99476" lon="4.16679">
        <ele>258.2</ele>
        <time>2024-04-01T09:53:41Z</time>
      </trkpt>
      <trkpt lat="49.99482" lon="4.16682">
        <ele>258</ele>
        <time>2024-04-01T09:53:42Z</time>
      </trkpt>
      <trkpt lat="49.99489" lon="4.16686">
        <ele>257.8</ele>
        <time>2024-04-01T09:53:43Z</time>
      </trkpt>
      <trkpt lat="49.99495" lon="4.16689">
        <ele>257.8</ele>
        <time>2024-04-01T09:53:44Z</time>
      </trkpt>
      <trkpt lat="49.99502" lon="4.16692">
        <ele>257.8</ele>
        <time>2024-04-01T09:53:45Z</time>
      </trkpt>
      <trkpt lat="49.99508" lon="4.16695">
        <ele>257.6</ele>
        <time>2024-04-01T09:53:46Z</time>
      </trkpt>
      <trkpt lat="49.99514" lon="4.16698">
        <ele>257.4</ele>
        <time>2024-04-01T09:53:47Z</time>
      </trkpt>
      <trkpt lat="49.9952" lon="4.16702">
        <ele>257.2</ele>
        <time>2024-04-01T09:53:48Z</time>
      </trkpt>
      <trkpt lat="49.99526" lon="4.16705">
        <ele>257</ele>
        <time>2024-04-01T09:53:49Z</time>
      </trkpt>
      <trkpt lat="49.99532" lon="4.16708">
        <ele>257</ele>
        <time>2024-04-01T09:53:50Z</time>
      </trkpt>
      <trkpt lat="49.99538" lon="4.16711">
        <ele>256.8</ele>
        <time>2024-04-01T09:53:51Z</time>
      </trkpt>
      <trkpt lat="49.99544" lon="4.16715">
        <ele>256.6</ele>
        <time>2024-04-01T09:53:52Z</time>
      </trkpt>
      <trkpt lat="49.9955" lon="4.16717">
        <ele>256.6</ele>
        <time>2024-04-01T09:53:53Z</time>
      </trkpt>
      <trkpt lat="49.99556" lon="4.16721">
        <ele>256.8</ele>
        <time>2024-04-01T09:53:54Z</time>
      </trkpt>
      <trkpt lat="49.99561" lon="4.16724">
        <ele>256.6</ele>
        <time>2024-04-01T09:53:55Z</time>
      </trkpt>
      <trkpt lat="49.99566" lon="4.16726">
        <ele>256.4</ele>
        <time>2024-04-01T09:53:56Z</time>
      </trkpt>
      <trkpt lat="49.99571" lon="4.16729">
        <ele>256.4</ele>
        <time>2024-04-01T09:53:57Z</time>
      </trkpt>
      <trkpt lat="49.99576" lon="4.16732">
        <ele>256.4</ele>
        <time>2024-04-01T09:53:58Z</time>
      </trkpt>
      <trkpt lat="49.99581" lon="4.16734">
        <ele>256.4</ele>
        <time>2024-04-01T09:53:59Z</time>
      </trkpt>
      <trkpt lat="49.99585" lon="4.16737">
        <ele>256.4</ele>
        <time>2024-04-01T09:54:00Z</time>
      </trkpt>
      <trkpt lat="49.99589" lon="4.16741">
        <ele>256.4</ele>
        <time>2024-04-01T09:54:01Z</time>
      </trkpt>
      <trkpt lat="49.99593" lon="4.16744">
        <ele>256.4</ele>
        <time>2024-04-01T09:54:02Z</time>
      </trkpt>
      <trkpt lat="49.99596" lon="4.16748">
        <ele>256.4</ele>
        <time>2024-04-01T09:54:03Z</time>
      </trkpt>
      <trkpt lat="49.99598" lon="4.16751">
        <ele>256.6</ele>
        <time>2024-04-01T09:54:04Z</time>
      </trkpt>
      <trkpt lat="49.99602" lon="4.16753">
        <ele>256.6</ele>
        <time>2024-04-01T09:54:05Z</time>
      </trkpt>
      <trkpt lat="49.99606" lon="4.16753">
        <ele>256.4</ele>
        <time>2024-04-01T09:54:06Z</time>
      </trkpt>
      <trkpt lat="49.9961" lon="4.16751">
        <ele>256.4</ele>
        <time>2024-04-01T09:54:07Z</time>
      </trkpt>
      <trkpt lat="49.99615" lon="4.16748">
        <ele>256.6</ele>
        <time>2024-04-01T09:54:08Z</time>
      </trkpt>
      <trkpt lat="49.9962" lon="4.16744">
        <ele>256.4</ele>
        <time>2024-04-01T09:54:09Z</time>
      </trkpt>
      <trkpt lat="49.99625" lon="4.1674">
        <ele>256.4</ele>
        <time>2024-04-01T09:54:10Z</time>
      </trkpt>
      <trkpt lat="49.9963" lon="4.16736">
        <ele>256.6</ele>
        <time>2024-04-01T09:54:11Z</time>
      </trkpt>
      <trkpt lat="49.99636" lon="4.16732">
        <ele>256.6</ele>
        <time>2024-04-01T09:54:12Z</time>
      </trkpt>
      <trkpt lat="49.99641" lon="4.16728">
        <ele>256.8</ele>
        <time>2024-04-01T09:54:13Z</time>
      </trkpt>
      <trkpt lat="49.99646" lon="4.16724">
        <ele>256.8</ele>
        <time>2024-04-01T09:54:14Z</time>
      </trkpt>
      <trkpt lat="49.99651" lon="4.1672">
        <ele>256.8</ele>
        <time>2024-04-01T09:54:15Z</time>
      </trkpt>
      <trkpt lat="49.99657" lon="4.16716">
        <ele>257</ele>
        <time>2024-04-01T09:54:16Z</time>
      </trkpt>
      <trkpt lat="49.99662" lon="4.16712">
        <ele>257.2</ele>
        <time>2024-04-01T09:54:17Z</time>
      </trkpt>
      <trkpt lat="49.99667" lon="4.16708">
        <ele>257</ele>
        <time>2024-04-01T09:54:18Z</time>
      </trkpt>
      <trkpt lat="49.99672" lon="4.16704">
        <ele>257.2</ele>
        <time>2024-04-01T09:54:19Z</time>
      </trkpt>
      <trkpt lat="49.99678" lon="4.16699">
        <ele>257.2</ele>
        <time>2024-04-01T09:54:20Z</time>
      </trkpt>
      <trkpt lat="49.99684" lon="4.16695">
        <ele>257.4</ele>
        <time>2024-04-01T09:54:21Z</time>
      </trkpt>
      <trkpt lat="49.99689" lon="4.16691">
        <ele>257.6</ele>
        <time>2024-04-01T09:54:22Z</time>
      </trkpt>
      <trkpt lat="49.99695" lon="4.16687">
        <ele>257.6</ele>
        <time>2024-04-01T09:54:23Z</time>
      </trkpt>
      <trkpt lat="49.99701" lon="4.16682">
        <ele>257.8</ele>
        <time>2024-04-01T09:54:24Z</time>
      </trkpt>
      <trkpt lat="49.99706" lon="4.16678">
        <ele>258</ele>
        <time>2024-04-01T09:54:25Z</time>
      </trkpt>
      <trkpt lat="49.99712" lon="4.16674">
        <ele>258</ele>
        <time>2024-04-01T09:54:26Z</time>
      </trkpt>
      <trkpt lat="49.99717" lon="4.1667">
        <ele>258.4</ele>
        <time>2024-04-01T09:54:27Z</time>
      </trkpt>
      <trkpt lat="49.99723" lon="4.16665">
        <ele>258.4</ele>
        <time>2024-04-01T09:54:28Z</time>
      </trkpt>
      <trkpt lat="49.99729" lon="4.16661">
        <ele>258.4</ele>
        <time>2024-04-01T09:54:29Z</time>
      </trkpt>
      <trkpt lat="49.99735" lon="4.16657">
        <ele>258.4</ele>
        <time>2024-04-01T09:54:30Z</time>
      </trkpt>
      <trkpt lat="49.9974" lon="4.16652">
        <ele>258.4</ele>
        <time>2024-04-01T09:54:31Z</time>
      </trkpt>
      <trkpt lat="49.99746" lon="4.16648">
        <ele>258.4</ele>
        <time>2024-04-01T09:54:32Z</time>
      </trkpt>
      <trkpt lat="49.99752" lon="4.16643">
        <ele>258.6</ele>
        <time>2024-04-01T09:54:33Z</time>
      </trkpt>
      <trkpt lat="49.99758" lon="4.16638">
        <ele>258.6</ele>
        <time>2024-04-01T09:54:34Z</time>
      </trkpt>
      <trkpt lat="49.99764" lon="4.16634">
        <ele>258.6</ele>
        <time>2024-04-01T09:54:35Z</time>
      </trkpt>
      <trkpt lat="49.99771" lon="4.16629">
        <ele>258.4</ele>
        <time>2024-04-01T09:54:36Z</time>
      </trkpt>
      <trkpt lat="49.99777" lon="4.16624">
        <ele>258.4</ele>
        <time>2024-04-01T09:54:37Z</time>
      </trkpt>
      <trkpt lat="49.99783" lon="4.16619">
        <ele>258.2</ele>
        <time>2024-04-01T09:54:38Z</time>
      </trkpt>
      <trkpt lat="49.9979" lon="4.16614">
        <ele>258</ele>
        <time>2024-04-01T09:54:39Z</time>
      </trkpt>
      <trkpt lat="49.99796" lon="4.16609">
        <ele>258</ele>
        <time>2024-04-01T09:54:40Z</time>
      </trkpt>
      <trkpt lat="49.99802" lon="4.16603">
        <ele>258</ele>
        <time>2024-04-01T09:54:41Z</time>
      </trkpt>
      <trkpt lat="49.99809" lon="4.16598">
        <ele>257.8</ele>
        <time>2024-04-01T09:54:42Z</time>
      </trkpt>
      <trkpt lat="49.99815" lon="4.16594">
        <ele>257.6</ele>
        <time>2024-04-01T09:54:43Z</time>
      </trkpt>
      <trkpt lat="49.99821" lon="4.16589">
        <ele>257.6</ele>
        <time>2024-04-01T09:54:44Z</time>
      </trkpt>
      <trkpt lat="49.99828" lon="4.16584">
        <ele>257.6</ele>
        <time>2024-04-01T09:54:45Z</time>
      </trkpt>
      <trkpt lat="49.99834" lon="4.16579">
        <ele>257.8</ele>
        <time>2024-04-01T09:54:46Z</time>
      </trkpt>
      <trkpt lat="49.9984" lon="4.16574">
        <ele>257.8</ele>
        <time>2024-04-01T09:54:47Z</time>
      </trkpt>
      <trkpt lat="49.99846" lon="4.16569">
        <ele>257.6</ele>
        <time>2024-04-01T09:54:48Z</time>
      </trkpt>
      <trkpt lat="49.99853" lon="4.16564">
        <ele>257.4</ele>
        <time>2024-04-01T09:54:49Z</time>
      </trkpt>
      <trkpt lat="49.99859" lon="4.16559">
        <ele>257.4</ele>
        <time>2024-04-01T09:54:50Z</time>
      </trkpt>
      <trkpt lat="49.99865" lon="4.16554">
        <ele>257.2</ele>
        <time>2024-04-01T09:54:51Z</time>
      </trkpt>
      <trkpt lat="49.99872" lon="4.16549">
        <ele>257.2</ele>
        <time>2024-04-01T09:54:52Z</time>
      </trkpt>
      <trkpt lat="49.99878" lon="4.16545">
        <ele>257</ele>
        <time>2024-04-01T09:54:53Z</time>
      </trkpt>
      <trkpt lat="49.99885" lon="4.1654">
        <ele>256.8</ele>
        <time>2024-04-01T09:54:54Z</time>
      </trkpt>
      <trkpt lat="49.99891" lon="4.16535">
        <ele>256.8</ele>
        <time>2024-04-01T09:54:55Z</time>
      </trkpt>
      <trkpt lat="49.99898" lon="4.1653">
        <ele>256.8</ele>
        <time>2024-04-01T09:54:56Z</time>
      </trkpt>
      <trkpt lat="49.99904" lon="4.16524">
        <ele>256.6</ele>
        <time>2024-04-01T09:54:57Z</time>
      </trkpt>
      <trkpt lat="49.99911" lon="4.16519">
        <ele>256.6</ele>
        <time>2024-04-01T09:54:58Z</time>
      </trkpt>
      <trkpt lat="49.99918" lon="4.16514">
        <ele>256.6</ele>
        <time>2024-04-01T09:54:59Z</time>
      </trkpt>
      <trkpt lat="49.99924" lon="4.16509">
        <ele>256.6</ele>
        <time>2024-04-01T09:55:00Z</time>
      </trkpt>
      <trkpt lat="49.99931" lon="4.16504">
        <ele>256.4</ele>
        <time>2024-04-01T09:55:01Z</time>
      </trkpt>
      <trkpt lat="49.99938" lon="4.16499">
        <ele>256.2</ele>
        <time>2024-04-01T09:55:02Z</time>
      </trkpt>
      <trkpt lat="49.99945" lon="4.16494">
        <ele>256.2</ele>
        <time>2024-04-01T09:55:03Z</time>
      </trkpt>
      <trkpt lat="49.99952" lon="4.16488">
        <ele>256.4</ele>
        <time>2024-04-01T09:55:04Z</time>
      </trkpt>
      <trkpt lat="49.99959" lon="4.16483">
        <ele>256.4</ele>
        <time>2024-04-01T09:55:05Z</time>
      </trkpt>
      <trkpt lat="49.99966" lon="4.16478">
        <ele>256</ele>
        <time>2024-04-01T09:55:06Z</time>
      </trkpt>
      <trkpt lat="49.99974" lon="4.16472">
        <ele>255.8</ele>
        <time>2024-04-01T09:55:07Z</time>
      </trkpt>
      <trkpt lat="49.99981" lon="4.16467">
        <ele>255.8</ele>
        <time>2024-04-01T09:55:08Z</time>
      </trkpt>
      <trkpt lat="49.99988" lon="4.16461">
        <ele>255.4</ele>
        <time>2024-04-01T09:55:09Z</time>
      </trkpt>
      <trkpt lat="49.99995" lon="4.16455">
        <ele>255.4</ele>
        <time>2024-04-01T09:55:10Z</time>
      </trkpt>
      <trkpt lat="50.00002" lon="4.1645">
        <ele>255.2</ele>
        <time>2024-04-01T09:55:11Z</time>
      </trkpt>
      <trkpt lat="50.0001" lon="4.16444">
        <ele>255.2</ele>
        <time>2024-04-01T09:55:12Z</time>
      </trkpt>
      <trkpt lat="50.00017" lon="4.16439">
        <ele>255.2</ele>
        <time>2024-04-01T09:55:13Z</time>
      </trkpt>
      <trkpt lat="50.00025" lon="4.16433">
        <ele>255.2</ele>
        <time>2024-04-01T09:55:14Z</time>
      </trkpt>
      <trkpt lat="50.00032" lon="4.16427">
        <ele>255</ele>
        <time>2024-04-01T09:55:15Z</time>
      </trkpt>
      <trkpt lat="50.0004" lon="4.16421">
        <ele>254.8</ele>
        <time>2024-04-01T09:55:16Z</time>
      </trkpt>
      <trkpt lat="50.00048" lon="4.16415">
        <ele>254.6</ele>
        <time>2024-04-01T09:55:17Z</time>
      </trkpt>
      <trkpt lat="50.00056" lon="4.16409">
        <ele>254.4</ele>
        <time>2024-04-01T09:55:18Z</time>
      </trkpt>
      <trkpt lat="50.00063" lon="4.16403">
        <ele>254.2</ele>
        <time>2024-04-01T09:55:19Z</time>
      </trkpt>
      <trkpt lat="50.00072" lon="4.16396">
        <ele>254</ele>
        <time>2024-04-01T09:55:20Z</time>
      </trkpt>
      <trkpt lat="50.0008" lon="4.1639">
        <ele>254</ele>
        <time>2024-04-01T09:55:21Z</time>
      </trkpt>
      <trkpt lat="50.00088" lon="4.16384">
        <ele>253.8</ele>
        <time>2024-04-01T09:55:22Z</time>
      </trkpt>
      <trkpt lat="50.00096" lon="4.16378">
        <ele>253.8</ele>
        <time>2024-04-01T09:55:23Z</time>
      </trkpt>
      <trkpt lat="50.00104" lon="4.16371">
        <ele>253.8</ele>
        <time>2024-04-01T09:55:24Z</time>
      </trkpt>
      <trkpt lat="50.00112" lon="4.16365">
        <ele>253.6</ele>
        <time>2024-04-01T09:55:25Z</time>
      </trkpt>
      <trkpt lat="50.0012" lon="4.16359">
        <ele>253.4</ele>
        <time>2024-04-01T09:55:26Z</time>
      </trkpt>
      <trkpt lat="50.00128" lon="4.16353">
        <ele>252.8</ele>
        <time>2024-04-01T09:55:27Z</time>
      </trkpt>
      <trkpt lat="50.00136" lon="4.16346">
        <ele>252.4</ele>
        <time>2024-04-01T09:55:28Z</time>
      </trkpt>
      <trkpt lat="50.00144" lon="4.1634">
        <ele>251.8</ele>
        <time>2024-04-01T09:55:29Z</time>
      </trkpt>
      <trkpt lat="50.00152" lon="4.16334">
        <ele>251.6</ele>
        <time>2024-04-01T09:55:30Z</time>
      </trkpt>
      <trkpt lat="50.0016" lon="4.16328">
        <ele>251.2</ele>
        <time>2024-04-01T09:55:31Z</time>
      </trkpt>
      <trkpt lat="50.00168" lon="4.16322">
        <ele>251</ele>
        <time>2024-04-01T09:55:32Z</time>
      </trkpt>
      <trkpt lat="50.00175" lon="4.16317">
        <ele>251</ele>
        <time>2024-04-01T09:55:33Z</time>
      </trkpt>
      <trkpt lat="50.00183" lon="4.16311">
        <ele>250.6</ele>
        <time>2024-04-01T09:55:34Z</time>
      </trkpt>
      <trkpt lat="50.0019" lon="4.16305">
        <ele>250.2</ele>
        <time>2024-04-01T09:55:35Z</time>
      </trkpt>
      <trkpt lat="50.00197" lon="4.163">
        <ele>250</ele>
        <time>2024-04-01T09:55:36Z</time>
      </trkpt>
      <trkpt lat="50.00204" lon="4.16295">
        <ele>249.8</ele>
        <time>2024-04-01T09:55:37Z</time>
      </trkpt>
      <trkpt lat="50.00212" lon="4.16291">
        <ele>249.6</ele>
        <time>2024-04-01T09:55:38Z</time>
      </trkpt>
      <trkpt lat="50.00219" lon="4.1629">
        <ele>249.4</ele>
        <time>2024-04-01T09:55:39Z</time>
      </trkpt>
      <trkpt lat="50.00227" lon="4.1629">
        <ele>249.4</ele>
        <time>2024-04-01T09:55:40Z</time>
      </trkpt>
      <trkpt lat="50.00235" lon="4.16291">
        <ele>249.4</ele>
        <time>2024-04-01T09:55:41Z</time>
      </trkpt>
      <trkpt lat="50.00243" lon="4.16291">
        <ele>249.2</ele>
        <time>2024-04-01T09:55:42Z</time>
      </trkpt>
      <trkpt lat="50.00251" lon="4.16292">
        <ele>249.2</ele>
        <time>2024-04-01T09:55:43Z</time>
      </trkpt>
      <trkpt lat="50.00259" lon="4.16293">
        <ele>249</ele>
        <time>2024-04-01T09:55:44Z</time>
      </trkpt>
      <trkpt lat="50.00267" lon="4.16293">
        <ele>249</ele>
        <time>2024-04-01T09:55:45Z</time>
      </trkpt>
      <trkpt lat="50.00275" lon="4.16294">
        <ele>248.8</ele>
        <time>2024-04-01T09:55:46Z</time>
      </trkpt>
      <trkpt lat="50.00283" lon="4.16294">
        <ele>248.6</ele>
        <time>2024-04-01T09:55:47Z</time>
      </trkpt>
      <trkpt lat="50.00292" lon="4.16295">
        <ele>248.6</ele>
        <time>2024-04-01T09:55:48Z</time>
      </trkpt>
      <trkpt lat="50.003" lon="4.16296">
        <ele>248.6</ele>
        <time>2024-04-01T09:55:49Z</time>
      </trkpt>
      <trkpt lat="50.00308" lon="4.16297">
        <ele>248.2</ele>
        <time>2024-04-01T09:55:50Z</time>
      </trkpt>
      <trkpt lat="50.00317" lon="4.16298">
        <ele>248</ele>
        <time>2024-04-01T09:55:51Z</time>
      </trkpt>
      <trkpt lat="50.00325" lon="4.16299">
        <ele>248</ele>
        <time>2024-04-01T09:55:52Z</time>
      </trkpt>
      <trkpt lat="50.00334" lon="4.163">
        <ele>247.6</ele>
        <time>2024-04-01T09:55:53Z</time>
      </trkpt>
      <trkpt lat="50.00342" lon="4.163">
        <ele>247.4</ele>
        <time>2024-04-01T09:55:54Z</time>
      </trkpt>
      <trkpt lat="50.00351" lon="4.16301">
        <ele>247.2</ele>
        <time>2024-04-01T09:55:55Z</time>
      </trkpt>
      <trkpt lat="50.00359" lon="4.16302">
        <ele>247.2</ele>
        <time>2024-04-01T09:55:56Z</time>
      </trkpt>
      <trkpt lat="50.00368" lon="4.16303">
        <ele>246.8</ele>
        <time>2024-04-01T09:55:57Z</time>
      </trkpt>
      <trkpt lat="50.00376" lon="4.16304">
        <ele>246.6</ele>
        <time>2024-04-01T09:55:58Z</time>
      </trkpt>
      <trkpt lat="50.00385" lon="4.16305">
        <ele>246.6</ele>
        <time>2024-04-01T09:55:59Z</time>
      </trkpt>
      <trkpt lat="50.00393" lon="4.16305">
        <ele>246.6</ele>
        <time>2024-04-01T09:56:00Z</time>
      </trkpt>
      <trkpt lat="50.00402" lon="4.16306">
        <ele>246.2</ele>
        <time>2024-04-01T09:56:01Z</time>
      </trkpt>
      <trkpt lat="50.0041" lon="4.16306">
        <ele>246.2</ele>
        <time>2024-04-01T09:56:02Z</time>
      </trkpt>
      <trkpt lat="50.00419" lon="4.16306">
        <ele>246</ele>
        <time>2024-04-01T09:56:03Z</time>
      </trkpt>
      <trkpt lat="50.00428" lon="4.16305">
        <ele>245.8</ele>
        <time>2024-04-01T09:56:04Z</time>
      </trkpt>
      <trkpt lat="50.00437" lon="4.16304">
        <ele>246</ele>
        <time>2024-04-01T09:56:05Z</time>
      </trkpt>
      <trkpt lat="50.00446" lon="4.16302">
        <ele>245.8</ele>
        <time>2024-04-01T09:56:06Z</time>
      </trkpt>
      <trkpt lat="50.00455" lon="4.163">
        <ele>245.6</ele>
        <time>2024-04-01T09:56:07Z</time>
      </trkpt>
      <trkpt lat="50.00464" lon="4.16298">
        <ele>245.6</ele>
        <time>2024-04-01T09:56:08Z</time>
      </trkpt>
      <trkpt lat="50.00473" lon="4.16296">
        <ele>245.4</ele>
        <time>2024-04-01T09:56:09Z</time>
      </trkpt>
      <trkpt lat="50.00482" lon="4.16295">
        <ele>245.4</ele>
        <time>2024-04-01T09:56:10Z</time>
      </trkpt>
      <trkpt lat="50.00491" lon="4.16295">
        <ele>245.4</ele>
        <time>2024-04-01T09:56:11Z</time>
      </trkpt>
      <trkpt lat="50.005" lon="4.16295">
        <ele>245.2</ele>
        <time>2024-04-01T09:56:12Z</time>
      </trkpt>
      <trkpt lat="50.00509" lon="4.16297">
        <ele>245.4</ele>
        <time>2024-04-01T09:56:13Z</time>
      </trkpt>
      <trkpt lat="50.00518" lon="4.163">
        <ele>245.4</ele>
        <time>2024-04-01T09:56:14Z</time>
      </trkpt>
      <trkpt lat="50.00527" lon="4.16302">
        <ele>244.8</ele>
        <time>2024-04-01T09:56:15Z</time>
      </trkpt>
      <trkpt lat="50.00535" lon="4.16304">
        <ele>244.6</ele>
        <time>2024-04-01T09:56:16Z</time>
      </trkpt>
      <trkpt lat="50.00544" lon="4.16306">
        <ele>244.2</ele>
        <time>2024-04-01T09:56:17Z</time>
      </trkpt>
      <trkpt lat="50.00553" lon="4.16308">
        <ele>243.4</ele>
        <time>2024-04-01T09:56:18Z</time>
      </trkpt>
      <trkpt lat="50.00561" lon="4.16309">
        <ele>242.8</ele>
        <time>2024-04-01T09:56:19Z</time>
      </trkpt>
      <trkpt lat="50.0057" lon="4.16311">
        <ele>242.8</ele>
        <time>2024-04-01T09:56:20Z</time>
      </trkpt>
      <trkpt lat="50.00578" lon="4.16314">
        <ele>242.4</ele>
        <time>2024-04-01T09:56:21Z</time>
      </trkpt>
      <trkpt lat="50.00586" lon="4.16317">
        <ele>242.2</ele>
        <time>2024-04-01T09:56:22Z</time>
      </trkpt>
      <trkpt lat="50.00594" lon="4.16319">
        <ele>242.2</ele>
        <time>2024-04-01T09:56:23Z</time>
      </trkpt>
      <trkpt lat="50.00602" lon="4.16322">
        <ele>242</ele>
        <time>2024-04-01T09:56:24Z</time>
      </trkpt>
      <trkpt lat="50.00609" lon="4.16326">
        <ele>242</ele>
        <time>2024-04-01T09:56:25Z</time>
      </trkpt>
      <trkpt lat="50.00617" lon="4.1633">
        <ele>242</ele>
        <time>2024-04-01T09:56:26Z</time>
      </trkpt>
      <trkpt lat="50.00624" lon="4.16334">
        <ele>242</ele>
        <time>2024-04-01T09:56:27Z</time>
      </trkpt>
      <trkpt lat="50.00631" lon="4.16339">
        <ele>242</ele>
        <time>2024-04-01T09:56:28Z</time>
      </trkpt>
      <trkpt lat="50.00638" lon="4.16343">
        <ele>241.8</ele>
        <time>2024-04-01T09:56:29Z</time>
      </trkpt>
      <trkpt lat="50.00646" lon="4.16347">
        <ele>241.8</ele>
        <time>2024-04-01T09:56:30Z</time>
      </trkpt>
      <trkpt lat="50.00653" lon="4.16351">
        <ele>241.8</ele>
        <time>2024-04-01T09:56:31Z</time>
      </trkpt>
      <trkpt lat="50.0066" lon="4.16356">
        <ele>242</ele>
        <time>2024-04-01T09:56:32Z</time>
      </trkpt>
      <trkpt lat="50.00666" lon="4.1636">
        <ele>241.8</ele>
        <time>2024-04-01T09:56:33Z</time>
      </trkpt>
      <trkpt lat="50.00674" lon="4.16365">
        <ele>242</ele>
        <time>2024-04-01T09:56:34Z</time>
      </trkpt>
      <trkpt lat="50.00681" lon="4.16369">
        <ele>242</ele>
        <time>2024-04-01T09:56:35Z</time>
      </trkpt>
      <trkpt lat="50.00688" lon="4.16373">
        <ele>242</ele>
        <time>2024-04-01T09:56:36Z</time>
      </trkpt>
      <trkpt lat="50.00695" lon="4.16378">
        <ele>242.2</ele>
        <time>2024-04-01T09:56:37Z</time>
      </trkpt>
      <trkpt lat="50.00703" lon="4.16383">
        <ele>242.2</ele>
        <time>2024-04-01T09:56:38Z</time>
      </trkpt>
      <trkpt lat="50.0071" lon="4.16388">
        <ele>242.2</ele>
        <time>2024-04-01T09:56:39Z</time>
      </trkpt>
      <trkpt lat="50.00718" lon="4.16392">
        <ele>242.2</ele>
        <time>2024-04-01T09:56:40Z</time>
      </trkpt>
      <trkpt lat="50.00726" lon="4.16397">
        <ele>242.2</ele>
        <time>2024-04-01T09:56:41Z</time>
      </trkpt>
      <trkpt lat="50.00733" lon="4.16402">
        <ele>242</ele>
        <time>2024-04-01T09:56:42Z</time>
      </trkpt>
      <trkpt lat="50.0074" lon="4.16407">
        <ele>242.2</ele>
        <time>2024-04-01T09:56:43Z</time>
      </trkpt>
      <trkpt lat="50.00748" lon="4.16412">
        <ele>242</ele>
        <time>2024-04-01T09:56:44Z</time>
      </trkpt>
      <trkpt lat="50.00755" lon="4.16418">
        <ele>242</ele>
        <time>2024-04-01T09:56:45Z</time>
      </trkpt>
      <trkpt lat="50.00763" lon="4.16423">
        <ele>242</ele>
        <time>2024-04-01T09:56:46Z</time>
      </trkpt>
      <trkpt lat="50.00771" lon="4.16428">
        <ele>241.8</ele>
        <time>2024-04-01T09:56:47Z</time>
      </trkpt>
      <trkpt lat="50.00778" lon="4.16433">
        <ele>241.8</ele>
        <time>2024-04-01T09:56:48Z</time>
      </trkpt>
      <trkpt lat="50.00786" lon="4.16438">
        <ele>242</ele>
        <time>2024-04-01T09:56:49Z</time>
      </trkpt>
      <trkpt lat="50.00793" lon="4.16441">
        <ele>241.8</ele>
        <time>2024-04-01T09:56:50Z</time>
      </trkpt>
      <trkpt lat="50.00801" lon="4.16444">
        <ele>241.8</ele>
        <time>2024-04-01T09:56:51Z</time>
      </trkpt>
      <trkpt lat="50.00809" lon="4.16447">
        <ele>241.6</ele>
        <time>2024-04-01T09:56:52Z</time>
      </trkpt>
      <trkpt lat="50.00817" lon="4.16449">
        <ele>241.6</ele>
        <time>2024-04-01T09:56:53Z</time>
      </trkpt>
      <trkpt lat="50.00824" lon="4.16451">
        <ele>241.4</ele>
        <time>2024-04-01T09:56:54Z</time>
      </trkpt>
      <trkpt lat="50.00832" lon="4.16452">
        <ele>241.2</ele>
        <time>2024-04-01T09:56:55Z</time>
      </trkpt>
      <trkpt lat="50.00839" lon="4.16453">
        <ele>241</ele>
        <time>2024-04-01T09:56:56Z</time>
      </trkpt>
      <trkpt lat="50.00846" lon="4.16454">
        <ele>241</ele>
        <time>2024-04-01T09:56:57Z</time>
      </trkpt>
      <trkpt lat="50.00853" lon="4.16454">
        <ele>240.8</ele>
        <time>2024-04-01T09:56:58Z</time>
      </trkpt>
      <trkpt lat="50.0086" lon="4.16455">
        <ele>240.8</ele>
        <time>2024-04-01T09:56:59Z</time>
      </trkpt>
      <trkpt lat="50.00866" lon="4.16456">
        <ele>240.8</ele>
        <time>2024-04-01T09:57:00Z</time>
      </trkpt>
      <trkpt lat="50.00872" lon="4.16457">
        <ele>240.8</ele>
        <time>2024-04-01T09:57:01Z</time>
      </trkpt>
      <trkpt lat="50.00878" lon="4.16457">
        <ele>241</ele>
        <time>2024-04-01T09:57:02Z</time>
      </trkpt>
      <trkpt lat="50.00884" lon="4.16457">
        <ele>241</ele>
        <time>2024-04-01T09:57:03Z</time>
      </trkpt>
      <trkpt lat="50.0089" lon="4.16458">
        <ele>240.8</ele>
        <time>2024-04-01T09:57:04Z</time>
      </trkpt>
      <trkpt lat="50.00895" lon="4.16458">
        <ele>241</ele>
        <time>2024-04-01T09:57:05Z</time>
      </trkpt>
      <trkpt lat="50.00901" lon="4.16458">
        <ele>241</ele>
        <time>2024-04-01T09:57:06Z</time>
      </trkpt>
      <trkpt lat="50.00907" lon="4.16459">
        <ele>241</ele>
        <time>2024-04-01T09:57:07Z</time>
      </trkpt>
      <trkpt lat="50.00912" lon="4.16459">
        <ele>241.4</ele>
        <time>2024-04-01T09:57:08Z</time>
      </trkpt>
      <trkpt lat="50.00918" lon="4.1646">
        <ele>242</ele>
        <time>2024-04-01T09:57:09Z</time>
      </trkpt>
      <trkpt lat="50.00923" lon="4.1646">
        <ele>242.4</ele>
        <time>2024-04-01T09:57:10Z</time>
      </trkpt>
      <trkpt lat="50.00928" lon="4.16461">
        <ele>242.6</ele>
        <time>2024-04-01T09:57:11Z</time>
      </trkpt>
      <trkpt lat="50.00933" lon="4.16461">
        <ele>243</ele>
        <time>2024-04-01T09:57:12Z</time>
      </trkpt>
      <trkpt lat="50.00938" lon="4.16462">
        <ele>243.2</ele>
        <time>2024-04-01T09:57:13Z</time>
      </trkpt>
      <trkpt lat="50.00943" lon="4.16462">
        <ele>243.6</ele>
        <time>2024-04-01T09:57:14Z</time>
      </trkpt>
      <trkpt lat="50.00948" lon="4.16463">
        <ele>244.8</ele>
        <time>2024-04-01T09:57:15Z</time>
      </trkpt>
      <trkpt lat="50.00953" lon="4.16463">
        <ele>245.4</ele>
        <time>2024-04-01T09:57:16Z</time>
      </trkpt>
      <trkpt lat="50.00957" lon="4.16464">
        <ele>245.8</ele>
        <time>2024-04-01T09:57:17Z</time>
      </trkpt>
      <trkpt lat="50.00963" lon="4.16465">
        <ele>246.2</ele>
        <time>2024-04-01T09:57:18Z</time>
      </trkpt>
      <trkpt lat="50.00968" lon="4.16466">
        <ele>246.6</ele>
        <time>2024-04-01T09:57:19Z</time>
      </trkpt>
      <trkpt lat="50.00973" lon="4.16466">
        <ele>246.8</ele>
        <time>2024-04-01T09:57:20Z</time>
      </trkpt>
      <trkpt lat="50.00979" lon="4.16467">
        <ele>247.2</ele>
        <time>2024-04-01T09:57:21Z</time>
      </trkpt>
      <trkpt lat="50.00984" lon="4.16468">
        <ele>247.2</ele>
        <time>2024-04-01T09:57:22Z</time>
      </trkpt>
      <trkpt lat="50.00989" lon="4.16469">
        <ele>247.2</ele>
        <time>2024-04-01T09:57:23Z</time>
      </trkpt>
      <trkpt lat="50.00994" lon="4.16469">
        <ele>247.6</ele>
        <time>2024-04-01T09:57:24Z</time>
      </trkpt>
      <trkpt lat="50.01" lon="4.1647">
        <ele>247.8</ele>
        <time>2024-04-01T09:57:25Z</time>
      </trkpt>
      <trkpt lat="50.01005" lon="4.16471">
        <ele>247.8</ele>
        <time>2024-04-01T09:57:26Z</time>
      </trkpt>
      <trkpt lat="50.01011" lon="4.16472">
        <ele>248</ele>
        <time>2024-04-01T09:57:27Z</time>
      </trkpt>
      <trkpt lat="50.01016" lon="4.16474">
        <ele>248.2</ele>
        <time>2024-04-01T09:57:28Z</time>
      </trkpt>
      <trkpt lat="50.01022" lon="4.16475">
        <ele>248.2</ele>
        <time>2024-04-01T09:57:29Z</time>
      </trkpt>
      <trkpt lat="50.01027" lon="4.16478">
        <ele>248.6</ele>
        <time>2024-04-01T09:57:30Z</time>
      </trkpt>
      <trkpt lat="50.01032" lon="4.16481">
        <ele>248.6</ele>
        <time>2024-04-01T09:57:31Z</time>
      </trkpt>
      <trkpt lat="50.01038" lon="4.16484">
        <ele>248.8</ele>
        <time>2024-04-01T09:57:32Z</time>
      </trkpt>
      <trkpt lat="50.01043" lon="4.16488">
        <ele>249.4</ele>
        <time>2024-04-01T09:57:33Z</time>
      </trkpt>
      <trkpt lat="50.01048" lon="4.16493">
        <ele>250</ele>
        <time>2024-04-01T09:57:34Z</time>
      </trkpt>
      <trkpt lat="50.01053" lon="4.16497">
        <ele>250.4</ele>
        <time>2024-04-01T09:57:35Z</time>
      </trkpt>
      <trkpt lat="50.01058" lon="4.16502">
        <ele>250.6</ele>
        <time>2024-04-01T09:57:36Z</time>
      </trkpt>
      <trkpt lat="50.01063" lon="4.16507">
        <ele>250.6</ele>
        <time>2024-04-01T09:57:37Z</time>
      </trkpt>
      <trkpt lat="50.01067" lon="4.16513">
        <ele>250.8</ele>
        <time>2024-04-01T09:57:38Z</time>
      </trkpt>
      <trkpt lat="50.01072" lon="4.16519">
        <ele>250.8</ele>
        <time>2024-04-01T09:57:39Z</time>
      </trkpt>
      <trkpt lat="50.01076" lon="4.16526">
        <ele>251</ele>
        <time>2024-04-01T09:57:40Z</time>
      </trkpt>
      <trkpt lat="50.01081" lon="4.16532">
        <ele>251.2</ele>
        <time>2024-04-01T09:57:41Z</time>
      </trkpt>
      <trkpt lat="50.01086" lon="4.16538">
        <ele>251.4</ele>
        <time>2024-04-01T09:57:42Z</time>
      </trkpt>
      <trkpt lat="50.0109" lon="4.16544">
        <ele>251.6</ele>
        <time>2024-04-01T09:57:43Z</time>
      </trkpt>
      <trkpt lat="50.01095" lon="4.1655">
        <ele>251.6</ele>
        <time>2024-04-01T09:57:44Z</time>
      </trkpt>
      <trkpt lat="50.011" lon="4.16557">
        <ele>251.8</ele>
        <time>2024-04-01T09:57:45Z</time>
      </trkpt>
      <trkpt lat="50.01105" lon="4.16563">
        <ele>251.6</ele>
        <time>2024-04-01T09:57:46Z</time>
      </trkpt>
      <trkpt lat="50.0111" lon="4.1657">
        <ele>251.8</ele>
        <time>2024-04-01T09:57:47Z</time>
      </trkpt>
      <trkpt lat="50.01114" lon="4.16576">
        <ele>251.8</ele>
        <time>2024-04-01T09:57:48Z</time>
      </trkpt>
      <trkpt lat="50.01119" lon="4.16583">
        <ele>251.8</ele>
        <time>2024-04-01T09:57:49Z</time>
      </trkpt>
      <trkpt lat="50.01124" lon="4.1659">
        <ele>251.8</ele>
        <time>2024-04-01T09:57:50Z</time>
      </trkpt>
      <trkpt lat="50.01129" lon="4.16596">
        <ele>252</ele>
        <time>2024-04-01T09:57:51Z</time>
      </trkpt>
      <trkpt lat="50.01134" lon="4.16603">
        <ele>252</ele>
        <time>2024-04-01T09:57:52Z</time>
      </trkpt>
      <trkpt lat="50.01139" lon="4.1661">
        <ele>251.8</ele>
        <time>2024-04-01T09:57:53Z</time>
      </trkpt>
      <trkpt lat="50.01144" lon="4.16617">
        <ele>251.8</ele>
        <time>2024-04-01T09:57:54Z</time>
      </trkpt>
      <trkpt lat="50.01149" lon="4.16624">
        <ele>252</ele>
        <time>2024-04-01T09:57:55Z</time>
      </trkpt>
      <trkpt lat="50.01154" lon="4.16631">
        <ele>252</ele>
        <time>2024-04-01T09:57:56Z</time>
      </trkpt>
      <trkpt lat="50.01159" lon="4.16638">
        <ele>252</ele>
        <time>2024-04-01T09:57:57Z</time>
      </trkpt>
      <trkpt lat="50.01164" lon="4.16645">
        <ele>252</ele>
        <time>2024-04-01T09:57:58Z</time>
      </trkpt>
      <trkpt lat="50.0117" lon="4.16652">
        <ele>252</ele>
        <time>2024-04-01T09:57:59Z</time>
      </trkpt>
      <trkpt lat="50.01175" lon="4.16659">
        <ele>252</ele>
        <time>2024-04-01T09:58:00Z</time>
      </trkpt>
      <trkpt lat="50.0118" lon="4.16665">
        <ele>252</ele>
        <time>2024-04-01T09:58:01Z</time>
      </trkpt>
      <trkpt lat="50.01185" lon="4.16672">
        <ele>252</ele>
        <time>2024-04-01T09:58:02Z</time>
      </trkpt>
      <trkpt lat="50.0119" lon="4.16679">
        <ele>252.2</ele>
        <time>2024-04-01T09:58:03Z</time>
      </trkpt>
      <trkpt lat="50.01195" lon="4.16686">
        <ele>252.2</ele>
        <time>2024-04-01T09:58:04Z</time>
      </trkpt>
      <trkpt lat="50.012" lon="4.16693">
        <ele>252.2</ele>
        <time>2024-04-01T09:58:05Z</time>
      </trkpt>
      <trkpt lat="50.01205" lon="4.16699">
        <ele>252.2</ele>
        <time>2024-04-01T09:58:06Z</time>
      </trkpt>
      <trkpt lat="50.0121" lon="4.16706">
        <ele>252.2</ele>
        <time>2024-04-01T09:58:07Z</time>
      </trkpt>
      <trkpt lat="50.01215" lon="4.16713">
        <ele>252</ele>
        <time>2024-04-01T09:58:08Z</time>
      </trkpt>
      <trkpt lat="50.0122" lon="4.1672">
        <ele>252.4</ele>
        <time>2024-04-01T09:58:09Z</time>
      </trkpt>
      <trkpt lat="50.01225" lon="4.16727">
        <ele>252.2</ele>
        <time>2024-04-01T09:58:10Z</time>
      </trkpt>
      <trkpt lat="50.01231" lon="4.16734">
        <ele>252.2</ele>
        <time>2024-04-01T09:58:11Z</time>
      </trkpt>
      <trkpt lat="50.01236" lon="4.16741">
        <ele>252.2</ele>
        <time>2024-04-01T09:58:12Z</time>
      </trkpt>
      <trkpt lat="50.01241" lon="4.16748">
        <ele>252.4</ele>
        <time>2024-04-01T09:58:13Z</time>
      </trkpt>
      <trkpt lat="50.01246" lon="4.16755">
        <ele>252.4</ele>
        <time>2024-04-01T09:58:14Z</time>
      </trkpt>
      <trkpt lat="50.01251" lon="4.16762">
        <ele>252.4</ele>
        <time>2024-04-01T09:58:15Z</time>
      </trkpt>
      <trkpt lat="50.01256" lon="4.16769">
        <ele>252.8</ele>
        <time>2024-04-01T09:58:16Z</time>
      </trkpt>
      <trkpt lat="50.01261" lon="4.16776">
        <ele>252.8</ele>
        <time>2024-04-01T09:58:17Z</time>
      </trkpt>
      <trkpt lat="50.01266" lon="4.16784">
        <ele>252.8</ele>
        <time>2024-04-01T09:58:18Z</time>
      </trkpt>
      <trkpt lat="50.0127" lon="4.16791">
        <ele>252.8</ele>
        <time>2024-04-01T09:58:19Z</time>
      </trkpt>
      <trkpt lat="50.01275" lon="4.16799">
        <ele>253</ele>
        <time>2024-04-01T09:58:20Z</time>
      </trkpt>
      <trkpt lat="50.01279" lon="4.16807">
        <ele>253</ele>
        <time>2024-04-01T09:58:21Z</time>
      </trkpt>
      <trkpt lat="50.01284" lon="4.16815">
        <ele>252.8</ele>
        <time>2024-04-01T09:58:22Z</time>
      </trkpt>
      <trkpt lat="50.01289" lon="4.16823">
        <ele>252.8</ele>
        <time>2024-04-01T09:58:23Z</time>
      </trkpt>
      <trkpt lat="50.01293" lon="4.16831">
        <ele>252.8</ele>
        <time>2024-04-01T09:58:24Z</time>
      </trkpt>
      <trkpt lat="50.01297" lon="4.16839">
        <ele>252.8</ele>
        <time>2024-04-01T09:58:25Z</time>
      </trkpt>
      <trkpt lat="50.01301" lon="4.16847">
        <ele>252.8</ele>
        <time>2024-04-01T09:58:26Z</time>
      </trkpt>
      <trkpt lat="50.01305" lon="4.16856">
        <ele>252.8</ele>
        <time>2024-04-01T09:58:27Z</time>
      </trkpt>
      <trkpt lat="50.01309" lon="4.16864">
        <ele>252.8</ele>
        <time>2024-04-01T09:58:28Z</time>
      </trkpt>
      <trkpt lat="50.01313" lon="4.16873">
        <ele>252.8</ele>
        <time>2024-04-01T09:58:29Z</time>
      </trkpt>
      <trkpt lat="50.01317" lon="4.16882">
        <ele>252.8</ele>
        <time>2024-04-01T09:58:30Z</time>
      </trkpt>
      <trkpt lat="50.0132" lon="4.16891">
        <ele>252.8</ele>
        <time>2024-04-01T09:58:31Z</time>
      </trkpt>
      <trkpt lat="50.01324" lon="4.169">
        <ele>252.6</ele>
        <time>2024-04-01T09:58:32Z</time>
      </trkpt>
      <trkpt lat="50.01327" lon="4.16909">
        <ele>252.6</ele>
        <time>2024-04-01T09:58:33Z</time>
      </trkpt>
      <trkpt lat="50.01331" lon="4.16919">
        <ele>252.8</ele>
        <time>2024-04-01T09:58:34Z</time>
      </trkpt>
      <trkpt lat="50.01334" lon="4.16928">
        <ele>252.6</ele>
        <time>2024-04-01T09:58:35Z</time>
      </trkpt>
      <trkpt lat="50.01337" lon="4.16937">
        <ele>252.6</ele>
        <time>2024-04-01T09:58:36Z</time>
      </trkpt>
      <trkpt lat="50.01341" lon="4.16946">
        <ele>252.6</ele>
        <time>2024-04-01T09:58:37Z</time>
      </trkpt>
      <trkpt lat="50.01344" lon="4.16956">
        <ele>252.6</ele>
        <time>2024-04-01T09:58:38Z</time>
      </trkpt>
      <trkpt lat="50.01347" lon="4.16965">
        <ele>252.6</ele>
        <time>2024-04-01T09:58:39Z</time>
      </trkpt>
      <trkpt lat="50.0135" lon="4.16974">
        <ele>252.6</ele>
        <time>2024-04-01T09:58:40Z</time>
      </trkpt>
      <trkpt lat="50.01353" lon="4.16984">
        <ele>252.6</ele>
        <time>2024-04-01T09:58:41Z</time>
      </trkpt>
      <trkpt lat="50.01356" lon="4.16994">
        <ele>252.6</ele>
        <time>2024-04-01T09:58:42Z</time>
      </trkpt>
      <trkpt lat="50.01358" lon="4.17005">
        <ele>252.8</ele>
        <time>2024-04-01T09:58:43Z</time>
      </trkpt>
      <trkpt lat="50.0136" lon="4.17015">
        <ele>252.8</ele>
        <time>2024-04-01T09:58:44Z</time>
      </trkpt>
      <trkpt lat="50.01361" lon="4.17026">
        <ele>253</ele>
        <time>2024-04-01T09:58:45Z</time>
      </trkpt>
      <trkpt lat="50.01362" lon="4.17036">
        <ele>253</ele>
        <time>2024-04-01T09:58:46Z</time>
      </trkpt>
      <trkpt lat="50.01363" lon="4.17047">
        <ele>253</ele>
        <time>2024-04-01T09:58:47Z</time>
      </trkpt>
      <trkpt lat="50.01364" lon="4.17058">
        <ele>253</ele>
        <time>2024-04-01T09:58:48Z</time>
      </trkpt>
      <trkpt lat="50.01364" lon="4.17068">
        <ele>253.2</ele>
        <time>2024-04-01T09:58:49Z</time>
      </trkpt>
      <trkpt lat="50.01365" lon="4.17079">
        <ele>253.4</ele>
        <time>2024-04-01T09:58:50Z</time>
      </trkpt>
      <trkpt lat="50.01365" lon="4.1709">
        <ele>253.8</ele>
        <time>2024-04-01T09:58:51Z</time>
      </trkpt>
      <trkpt lat="50.01365" lon="4.17101">
        <ele>254</ele>
        <time>2024-04-01T09:58:52Z</time>
      </trkpt>
      <trkpt lat="50.01365" lon="4.17112">
        <ele>254.2</ele>
        <time>2024-04-01T09:58:53Z</time>
      </trkpt>
      <trkpt lat="50.01364" lon="4.17123">
        <ele>254.2</ele>
        <time>2024-04-01T09:58:54Z</time>
      </trkpt>
      <trkpt lat="50.01363" lon="4.17134">
        <ele>254.4</ele>
        <time>2024-04-01T09:58:55Z</time>
      </trkpt>
      <trkpt lat="50.01362" lon="4.17144">
        <ele>254.4</ele>
        <time>2024-04-01T09:58:56Z</time>
      </trkpt>
      <trkpt lat="50.01361" lon="4.17155">
        <ele>254.4</ele>
        <time>2024-04-01T09:58:57Z</time>
      </trkpt>
      <trkpt lat="50.01359" lon="4.17166">
        <ele>254.2</ele>
        <time>2024-04-01T09:58:58Z</time>
      </trkpt>
      <trkpt lat="50.01358" lon="4.17177">
        <ele>254.4</ele>
        <time>2024-04-01T09:58:59Z</time>
      </trkpt>
      <trkpt lat="50.01357" lon="4.17188">
        <ele>254.4</ele>
        <time>2024-04-01T09:59:00Z</time>
      </trkpt>
      <trkpt lat="50.01357" lon="4.17199">
        <ele>254.4</ele>
        <time>2024-04-01T09:59:01Z</time>
      </trkpt>
      <trkpt lat="50.01357" lon="4.1721">
        <ele>254.4</ele>
        <time>2024-04-01T09:59:02Z</time>
      </trkpt>
      <trkpt lat="50.01358" lon="4.17221">
        <ele>254.4</ele>
        <time>2024-04-01T09:59:03Z</time>
      </trkpt>
      <trkpt lat="50.01359" lon="4.17232">
        <ele>254.6</ele>
        <time>2024-04-01T09:59:04Z</time>
      </trkpt>
      <trkpt lat="50.0136" lon="4.17243">
        <ele>254.6</ele>
        <time>2024-04-01T09:59:05Z</time>
      </trkpt>
      <trkpt lat="50.01361" lon="4.17254">
        <ele>254.6</ele>
        <time>2024-04-01T09:59:06Z</time>
      </trkpt>
      <trkpt lat="50.01362" lon="4.17265">
        <ele>254.6</ele>
        <time>2024-04-01T09:59:07Z</time>
      </trkpt>
      <trkpt lat="50.01363" lon="4.17275">
        <ele>254.6</ele>
        <time>2024-04-01T09:59:08Z</time>
      </trkpt>
      <trkpt lat="50.01364" lon="4.17286">
        <ele>254.6</ele>
        <time>2024-04-01T09:59:09Z</time>
      </trkpt>
      <trkpt lat="50.01365" lon="4.17297">
        <ele>254.6</ele>
        <time>2024-04-01T09:59:10Z</time>
      </trkpt>
      <trkpt lat="50.01366" lon="4.17308">
        <ele>254.6</ele>
        <time>2024-04-01T09:59:11Z</time>
      </trkpt>
      <trkpt lat="50.01367" lon="4.17318">
        <ele>254.6</ele>
        <time>2024-04-01T09:59:12Z</time>
      </trkpt>
      <trkpt lat="50.01368" lon="4.17329">
        <ele>254.8</ele>
        <time>2024-04-01T09:59:13Z</time>
      </trkpt>
      <trkpt lat="50.01369" lon="4.17339">
        <ele>254.8</ele>
        <time>2024-04-01T09:59:14Z</time>
      </trkpt>
      <trkpt lat="50.0137" lon="4.1735">
        <ele>255</ele>
        <time>2024-04-01T09:59:15Z</time>
      </trkpt>
      <trkpt lat="50.01371" lon="4.1736">
        <ele>255</ele>
        <time>2024-04-01T09:59:16Z</time>
      </trkpt>
      <trkpt lat="50.01372" lon="4.1737">
        <ele>255</ele>
        <time>2024-04-01T09:59:17Z</time>
      </trkpt>
      <trkpt lat="50.01373" lon="4.1738">
        <ele>255</ele>
        <time>2024-04-01T09:59:18Z</time>
      </trkpt>
      <trkpt lat="50.01375" lon="4.1739">
        <ele>255.2</ele>
        <time>2024-04-01T09:59:19Z</time>
      </trkpt>
      <trkpt lat="50.01379" lon="4.17399">
        <ele>255.4</ele>
        <time>2024-04-01T09:59:20Z</time>
      </trkpt>
      <trkpt lat="50.01384" lon="4.17406">
        <ele>255.4</ele>
        <time>2024-04-01T09:59:21Z</time>
      </trkpt>
      <trkpt lat="50.0139" lon="4.1741">
        <ele>255.4</ele>
        <time>2024-04-01T09:59:22Z</time>
      </trkpt>
      <trkpt lat="50.01398" lon="4.17412">
        <ele>255.2</ele>
        <time>2024-04-01T09:59:23Z</time>
      </trkpt>
      <trkpt lat="50.01405" lon="4.17412">
        <ele>255.4</ele>
        <time>2024-04-01T09:59:24Z</time>
      </trkpt>
      <trkpt lat="50.01413" lon="4.17412">
        <ele>255.4</ele>
        <time>2024-04-01T09:59:25Z</time>
      </trkpt>
      <trkpt lat="50.01421" lon="4.1741">
        <ele>255.4</ele>
        <time>2024-04-01T09:59:26Z</time>
      </trkpt>
      <trkpt lat="50.01429" lon="4.17409">
        <ele>255.4</ele>
        <time>2024-04-01T09:59:27Z</time>
      </trkpt>
      <trkpt lat="50.01436" lon="4.17408">
        <ele>255.6</ele>
        <time>2024-04-01T09:59:28Z</time>
      </trkpt>
      <trkpt lat="50.01444" lon="4.17406">
        <ele>255.4</ele>
        <time>2024-04-01T09:59:29Z</time>
      </trkpt>
      <trkpt lat="50.01452" lon="4.17405">
        <ele>255.4</ele>
        <time>2024-04-01T09:59:30Z</time>
      </trkpt>
      <trkpt lat="50.0146" lon="4.17403">
        <ele>255.4</ele>
        <time>2024-04-01T09:59:31Z</time>
      </trkpt>
      <trkpt lat="50.01468" lon="4.17402">
        <ele>255.2</ele>
        <time>2024-04-01T09:59:32Z</time>
      </trkpt>
      <trkpt lat="50.01476" lon="4.17401">
        <ele>254.8</ele>
        <time>2024-04-01T09:59:33Z</time>
      </trkpt>
      <trkpt lat="50.01485" lon="4.17399">
        <ele>254.6</ele>
        <time>2024-04-01T09:59:34Z</time>
      </trkpt>
      <trkpt lat="50.01493" lon="4.17398">
        <ele>254</ele>
        <time>2024-04-01T09:59:35Z</time>
      </trkpt>
      <trkpt lat="50.01501" lon="4.17397">
        <ele>254</ele>
        <time>2024-04-01T09:59:36Z</time>
      </trkpt>
      <trkpt lat="50.0151" lon="4.17395">
        <ele>253.6</ele>
        <time>2024-04-01T09:59:37Z</time>
      </trkpt>
      <trkpt lat="50.01518" lon="4.17393">
        <ele>253.4</ele>
        <time>2024-04-01T09:59:38Z</time>
      </trkpt>
      <trkpt lat="50.01527" lon="4.17392">
        <ele>253.2</ele>
        <time>2024-04-01T09:59:39Z</time>
      </trkpt>
      <trkpt lat="50.01535" lon="4.1739">
        <ele>252.8</ele>
        <time>2024-04-01T09:59:40Z</time>
      </trkpt>
      <trkpt lat="50.01544" lon="4.17389">
        <ele>252.8</ele>
        <time>2024-04-01T09:59:41Z</time>
      </trkpt>
      <trkpt lat="50.01552" lon="4.17388">
        <ele>252.6</ele>
        <time>2024-04-01T09:59:42Z</time>
      </trkpt>
      <trkpt lat="50.0156" lon="4.17387">
        <ele>252.4</ele>
        <time>2024-04-01T09:59:43Z</time>
      </trkpt>
      <trkpt lat="50.01569" lon="4.17387">
        <ele>252</ele>
        <time>2024-04-01T09:59:44Z</time>
      </trkpt>
      <trkpt lat="50.01577" lon="4.17386">
        <ele>251.4</ele>
        <time>2024-04-01T09:59:45Z</time>
      </trkpt>
      <trkpt lat="50.01586" lon="4.17386">
        <ele>250.8</ele>
        <time>2024-04-01T09:59:46Z</time>
      </trkpt>
      <trkpt lat="50.01594" lon="4.17385">
        <ele>250.2</ele>
        <time>2024-04-01T09:59:47Z</time>
      </trkpt>
      <trkpt lat="50.01603" lon="4.17385">
        <ele>250</ele>
        <time>2024-04-01T09:59:48Z</time>
      </trkpt>
      <trkpt lat="50.01612" lon="4.17384">
        <ele>249.8</ele>
        <time>2024-04-01T09:59:49Z</time>
      </trkpt>
      <trkpt lat="50.01622" lon="4.17384">
        <ele>249.6</ele>
        <time>2024-04-01T09:59:50Z</time>
      </trkpt>
      <trkpt lat="50.01631" lon="4.17383">
        <ele>249.4</ele>
        <time>2024-04-01T09:59:51Z</time>
      </trkpt>
      <trkpt lat="50.0164" lon="4.17383">
        <ele>248.8</ele>
        <time>2024-04-01T09:59:52Z</time>
      </trkpt>
      <trkpt lat="50.0165" lon="4.17383">
        <ele>248.8</ele>
        <time>2024-04-01T09:59:53Z</time>
      </trkpt>
      <trkpt lat="50.01659" lon="4.17383">
        <ele>248</ele>
        <time>2024-04-01T09:59:54Z</time>
      </trkpt>
      <trkpt lat="50.01669" lon="4.17384">
        <ele>247.6</ele>
        <time>2024-04-01T09:59:55Z</time>
      </trkpt>
      <trkpt lat="50.01678" lon="4.17384">
        <ele>247.2</ele>
        <time>2024-04-01T09:59:56Z</time>
      </trkpt>
      <trkpt lat="50.01686" lon="4.17385">
        <ele>246.8</ele>
        <time>2024-04-01T09:59:57Z</time>
      </trkpt>
      <trkpt lat="50.01694" lon="4.17385">
        <ele>246.6</ele>
        <time>2024-04-01T09:59:58Z</time>
      </trkpt>
      <trkpt lat="50.01701" lon="4.17387">
        <ele>246.2</ele>
        <time>2024-04-01T09:59:59Z</time>
      </trkpt>
      <trkpt lat="50.01706" lon="4.17391">
        <ele>245.8</ele>
        <time>2024-04-01T10:00:00Z</time>
      </trkpt>
      <trkpt lat="50.01709" lon="4.17398">
        <ele>245.6</ele>
        <time>2024-04-01T10:00:01Z</time>
      </trkpt>
      <trkpt lat="50.01709" lon="4.17407">
        <ele>244.8</ele>
        <time>2024-04-01T10:00:02Z</time>
      </trkpt>
      <trkpt lat="50.01708" lon="4.17416">
        <ele>244.6</ele>
        <time>2024-04-01T10:00:03Z</time>
      </trkpt>
      <trkpt lat="50.01706" lon="4.17425">
        <ele>243.8</ele>
        <time>2024-04-01T10:00:04Z</time>
      </trkpt>
      <trkpt lat="50.01703" lon="4.17435">
        <ele>243.4</ele>
        <time>2024-04-01T10:00:05Z</time>
      </trkpt>
      <trkpt lat="50.01701" lon="4.17444">
        <ele>243</ele>
        <time>2024-04-01T10:00:06Z</time>
      </trkpt>
      <trkpt lat="50.01698" lon="4.17454">
        <ele>242.8</ele>
        <time>2024-04-01T10:00:07Z</time>
      </trkpt>
      <trkpt lat="50.01696" lon="4.17464">
        <ele>242.6</ele>
        <time>2024-04-01T10:00:08Z</time>
      </trkpt>
      <trkpt lat="50.01694" lon="4.17474">
        <ele>242.2</ele>
        <time>2024-04-01T10:00:09Z</time>
      </trkpt>
      <trkpt lat="50.01691" lon="4.17484">
        <ele>242.2</ele>
        <time>2024-04-01T10:00:10Z</time>
      </trkpt>
      <trkpt lat="50.01689" lon="4.17495">
        <ele>242</ele>
        <time>2024-04-01T10:00:11Z</time>
      </trkpt>
      <trkpt lat="50.01687" lon="4.17505">
        <ele>241.8</ele>
        <time>2024-04-01T10:00:12Z</time>
      </trkpt>
      <trkpt lat="50.01685" lon="4.17516">
        <ele>241.6</ele>
        <time>2024-04-01T10:00:13Z</time>
      </trkpt>
      <trkpt lat="50.01682" lon="4.17526">
        <ele>241.6</ele>
        <time>2024-04-01T10:00:14Z</time>
      </trkpt>
      <trkpt lat="50.0168" lon="4.17536">
        <ele>241.4</ele>
        <time>2024-04-01T10:00:15Z</time>
      </trkpt>
      <trkpt lat="50.01678" lon="4.17547">
        <ele>241.4</ele>
        <time>2024-04-01T10:00:16Z</time>
      </trkpt>
      <trkpt lat="50.01675" lon="4.17557">
        <ele>241.6</ele>
        <time>2024-04-01T10:00:17Z</time>
      </trkpt>
      <trkpt lat="50.01673" lon="4.17567">
        <ele>241.4</ele>
        <time>2024-04-01T10:00:18Z</time>
      </trkpt>
      <trkpt lat="50.01671" lon="4.17577">
        <ele>241.6</ele>
        <time>2024-04-01T10:00:19Z</time>
      </trkpt>
      <trkpt lat="50.0167" lon="4.17587">
        <ele>241.4</ele>
        <time>2024-04-01T10:00:20Z</time>
      </trkpt>
      <trkpt lat="50.01668" lon="4.17596">
        <ele>241.6</ele>
        <time>2024-04-01T10:00:21Z</time>
      </trkpt>
      <trkpt lat="50.01667" lon="4.17605">
        <ele>241.6</ele>
        <time>2024-04-01T10:00:22Z</time>
      </trkpt>
      <trkpt lat="50.01666" lon="4.17614">
        <ele>241.8</ele>
        <time>2024-04-01T10:00:23Z</time>
      </trkpt>
      <trkpt lat="50.01665" lon="4.17622">
        <ele>241.8</ele>
        <time>2024-04-01T10:00:24Z</time>
      </trkpt>
      <trkpt lat="50.01666" lon="4.17631">
        <ele>242.6</ele>
        <time>2024-04-01T10:00:25Z</time>
      </trkpt>
      <trkpt lat="50.01666" lon="4.17639">
        <ele>243</ele>
        <time>2024-04-01T10:00:26Z</time>
      </trkpt>
      <trkpt lat="50.01666" lon="4.17648">
        <ele>243.6</ele>
        <time>2024-04-01T10:00:27Z</time>
      </trkpt>
      <trkpt lat="50.01666" lon="4.17656">
        <ele>243.6</ele>
        <time>2024-04-01T10:00:28Z</time>
      </trkpt>
      <trkpt lat="50.01666" lon="4.17664">
        <ele>243.6</ele>
        <time>2024-04-01T10:00:29Z</time>
      </trkpt>
      <trkpt lat="50.01666" lon="4.17671">
        <ele>244.2</ele>
        <time>2024-04-01T10:00:30Z</time>
      </trkpt>
      <trkpt lat="50.01666" lon="4.17679">
        <ele>244.4</ele>
        <time>2024-04-01T10:00:31Z</time>
      </trkpt>
      <trkpt lat="50.01666" lon="4.17687">
        <ele>244.8</ele>
        <time>2024-04-01T10:00:32Z</time>
      </trkpt>
      <trkpt lat="50.01667" lon="4.17695">
        <ele>245.4</ele>
        <time>2024-04-01T10:00:33Z</time>
      </trkpt>
      <trkpt lat="50.01667" lon="4.17703">
        <ele>245.8</ele>
        <time>2024-04-01T10:00:34Z</time>
      </trkpt>
      <trkpt lat="50.01667" lon="4.17711">
        <ele>246.2</ele>
        <time>2024-04-01T10:00:35Z</time>
      </trkpt>
      <trkpt lat="50.01666" lon="4.17719">
        <ele>246.2</ele>
        <time>2024-04-01T10:00:36Z</time>
      </trkpt>
      <trkpt lat="50.01666" lon="4.17727">
        <ele>246.4</ele>
        <time>2024-04-01T10:00:37Z</time>
      </trkpt>
      <trkpt lat="50.01666" lon="4.17735">
        <ele>246.4</ele>
        <time>2024-04-01T10:00:38Z</time>
      </trkpt>
      <trkpt lat="50.01666" lon="4.17742">
        <ele>246.6</ele>
        <time>2024-04-01T10:00:39Z</time>
      </trkpt>
      <trkpt lat="50.01666" lon="4.1775">
        <ele>246.6</ele>
        <time>2024-04-01T10:00:40Z</time>
      </trkpt>
      <trkpt lat="50.01665" lon="4.17758">
        <ele>247</ele>
        <time>2024-04-01T10:00:41Z</time>
      </trkpt>
      <trkpt lat="50.01665" lon="4.17766">
        <ele>247.2</ele>
        <time>2024-04-01T10:00:42Z</time>
      </trkpt>
      <trkpt lat="50.01664" lon="4.17774">
        <ele>247.6</ele>
        <time>2024-04-01T10:00:43Z</time>
      </trkpt>
      <trkpt lat="50.01664" lon="4.17782">
        <ele>247.6</ele>
        <time>2024-04-01T10:00:44Z</time>
      </trkpt>
      <trkpt lat="50.01664" lon="4.1779">
        <ele>247.6</ele>
        <time>2024-04-01T10:00:45Z</time>
      </trkpt>
      <trkpt lat="50.01663" lon="4.17798">
        <ele>247.8</ele>
        <time>2024-04-01T10:00:46Z</time>
      </trkpt>
      <trkpt lat="50.01663" lon="4.17806">
        <ele>248.4</ele>
        <time>2024-04-01T10:00:47Z</time>
      </trkpt>
      <trkpt lat="50.01663" lon="4.17815">
        <ele>249</ele>
        <time>2024-04-01T10:00:48Z</time>
      </trkpt>
      <trkpt lat="50.01662" lon="4.17823">
        <ele>249.6</ele>
        <time>2024-04-01T10:00:49Z</time>
      </trkpt>
      <trkpt lat="50.01662" lon="4.17831">
        <ele>250</ele>
        <time>2024-04-01T10:00:50Z</time>
      </trkpt>
      <trkpt lat="50.01662" lon="4.1784">
        <ele>250.4</ele>
        <time>2024-04-01T10:00:51Z</time>
      </trkpt>
      <trkpt lat="50.01662" lon="4.17848">
        <ele>250.4</ele>
        <time>2024-04-01T10:00:52Z</time>
      </trkpt>
      <trkpt lat="50.01662" lon="4.17856">
        <ele>250.6</ele>
        <time>2024-04-01T10:00:53Z</time>
      </trkpt>
      <trkpt lat="50.01662" lon="4.17865">
        <ele>250.6</ele>
        <time>2024-04-01T10:00:54Z</time>
      </trkpt>
      <trkpt lat="50.01663" lon="4.17873">
        <ele>250.8</ele>
        <time>2024-04-01T10:00:55Z</time>
      </trkpt>
      <trkpt lat="50.01663" lon="4.17882">
        <ele>250.8</ele>
        <time>2024-04-01T10:00:56Z</time>
      </trkpt>
      <trkpt lat="50.01663" lon="4.17891">
        <ele>250.8</ele>
        <time>2024-04-01T10:00:57Z</time>
      </trkpt>
      <trkpt lat="50.01664" lon="4.179">
        <ele>251</ele>
        <time>2024-04-01T10:00:58Z</time>
      </trkpt>
      <trkpt lat="50.01664" lon="4.17909">
        <ele>250.8</ele>
        <time>2024-04-01T10:00:59Z</time>
      </trkpt>
      <trkpt lat="50.01665" lon="4.17918">
        <ele>250.8</ele>
        <time>2024-04-01T10:01:00Z</time>
      </trkpt>
      <trkpt lat="50.01665" lon="4.17928">
        <ele>250.8</ele>
        <time>2024-04-01T10:01:01Z</time>
      </trkpt>
      <trkpt lat="50.01666" lon="4.17938">
        <ele>250.8</ele>
        <time>2024-04-01T10:01:02Z</time>
      </trkpt>
      <trkpt lat="50.01666" lon="4.17948">
        <ele>250.8</ele>
        <time>2024-04-01T10:01:03Z</time>
      </trkpt>
      <trkpt lat="50.01666" lon="4.17958">
        <ele>250.8</ele>
        <time>2024-04-01T10:01:04Z</time>
      </trkpt>
      <trkpt lat="50.01666" lon="4.17969">
        <ele>250.8</ele>
        <time>2024-04-01T10:01:05Z</time>
      </trkpt>
      <trkpt lat="50.01665" lon="4.1798">
        <ele>250.8</ele>
        <time>2024-04-01T10:01:06Z</time>
      </trkpt>
      <trkpt lat="50.01663" lon="4.1799">
        <ele>250.8</ele>
        <time>2024-04-01T10:01:07Z</time>
      </trkpt>
      <trkpt lat="50.0166" lon="4.18001">
        <ele>250.6</ele>
        <time>2024-04-01T10:01:08Z</time>
      </trkpt>
      <trkpt lat="50.01657" lon="4.18011">
        <ele>250.4</ele>
        <time>2024-04-01T10:01:09Z</time>
      </trkpt>
      <trkpt lat="50.01653" lon="4.18021">
        <ele>250.4</ele>
        <time>2024-04-01T10:01:10Z</time>
      </trkpt>
      <trkpt lat="50.01649" lon="4.18031">
        <ele>250.4</ele>
        <time>2024-04-01T10:01:11Z</time>
      </trkpt>
      <trkpt lat="50.01646" lon="4.18041">
        <ele>250.2</ele>
        <time>2024-04-01T10:01:12Z</time>
      </trkpt>
      <trkpt lat="50.01642" lon="4.18052">
        <ele>250.2</ele>
        <time>2024-04-01T10:01:13Z</time>
      </trkpt>
      <trkpt lat="50.01638" lon="4.18062">
        <ele>250.2</ele>
        <time>2024-04-01T10:01:14Z</time>
      </trkpt>
      <trkpt lat="50.01634" lon="4.18072">
        <ele>250</ele>
        <time>2024-04-01T10:01:15Z</time>
      </trkpt>
      <trkpt lat="50.0163" lon="4.18082">
        <ele>250</ele>
        <time>2024-04-01T10:01:16Z</time>
      </trkpt>
      <trkpt lat="50.01626" lon="4.18091">
        <ele>250</ele>
        <time>2024-04-01T10:01:17Z</time>
      </trkpt>
      <trkpt lat="50.01623" lon="4.18101">
        <ele>250</ele>
        <time>2024-04-01T10:01:18Z</time>
      </trkpt>
      <trkpt lat="50.01624" lon="4.18112">
        <ele>249.6</ele>
        <time>2024-04-01T10:01:19Z</time>
      </trkpt>
      <trkpt lat="50.01627" lon="4.18123">
        <ele>249.6</ele>
        <time>2024-04-01T10:01:20Z</time>
      </trkpt>
      <trkpt lat="50.01632" lon="4.18132">
        <ele>249.2</ele>
        <time>2024-04-01T10:01:21Z</time>
      </trkpt>
      <trkpt lat="50.01638" lon="4.18141">
        <ele>249.2</ele>
        <time>2024-04-01T10:01:22Z</time>
      </trkpt>
      <trkpt lat="50.01644" lon="4.18151">
        <ele>249</ele>
        <time>2024-04-01T10:01:23Z</time>
      </trkpt>
      <trkpt lat="50.0165" lon="4.18161">
        <ele>248.8</ele>
        <time>2024-04-01T10:01:24Z</time>
      </trkpt>
      <trkpt lat="50.01656" lon="4.18171">
        <ele>248.8</ele>
        <time>2024-04-01T10:01:25Z</time>
      </trkpt>
      <trkpt lat="50.01663" lon="4.18181">
        <ele>248.6</ele>
        <time>2024-04-01T10:01:26Z</time>
      </trkpt>
      <trkpt lat="50.01669" lon="4.18192">
        <ele>248.4</ele>
        <time>2024-04-01T10:01:27Z</time>
      </trkpt>
      <trkpt lat="50.01676" lon="4.18202">
        <ele>247.8</ele>
        <time>2024-04-01T10:01:28Z</time>
      </trkpt>
      <trkpt lat="50.01682" lon="4.18213">
        <ele>247.4</ele>
        <time>2024-04-01T10:01:29Z</time>
      </trkpt>
      <trkpt lat="50.01689" lon="4.18224">
        <ele>246.6</ele>
        <time>2024-04-01T10:01:30Z</time>
      </trkpt>
      <trkpt lat="50.01696" lon="4.18234">
        <ele>245.6</ele>
        <time>2024-04-01T10:01:31Z</time>
      </trkpt>
      <trkpt lat="50.01702" lon="4.18245">
        <ele>245.6</ele>
        <time>2024-04-01T10:01:32Z</time>
      </trkpt>
      <trkpt lat="50.01709" lon="4.18256">
        <ele>244.6</ele>
        <time>2024-04-01T10:01:33Z</time>
      </trkpt>
      <trkpt lat="50.01716" lon="4.18267">
        <ele>243.4</ele>
        <time>2024-04-01T10:01:34Z</time>
      </trkpt>
      <trkpt lat="50.01722" lon="4.18278">
        <ele>243</ele>
        <time>2024-04-01T10:01:35Z</time>
      </trkpt>
      <trkpt lat="50.01729" lon="4.1829">
        <ele>242.6</ele>
        <time>2024-04-01T10:01:36Z</time>
      </trkpt>
      <trkpt lat="50.01737" lon="4.18302">
        <ele>242.4</ele>
        <time>2024-04-01T10:01:37Z</time>
      </trkpt>
      <trkpt lat="50.01744" lon="4.18313">
        <ele>242.2</ele>
        <time>2024-04-01T10:01:38Z</time>
      </trkpt>
      <trkpt lat="50.01751" lon="4.18325">
        <ele>242</ele>
        <time>2024-04-01T10:01:39Z</time>
      </trkpt>
      <trkpt lat="50.01758" lon="4.18337">
        <ele>241</ele>
        <time>2024-04-01T10:01:40Z</time>
      </trkpt>
      <trkpt lat="50.01765" lon="4.18349">
        <ele>240.2</ele>
        <time>2024-04-01T10:01:41Z</time>
      </trkpt>
      <trkpt lat="50.01773" lon="4.1836">
        <ele>239.8</ele>
        <time>2024-04-01T10:01:42Z</time>
      </trkpt>
      <trkpt lat="50.0178" lon="4.18372">
        <ele>239.4</ele>
        <time>2024-04-01T10:01:43Z</time>
      </trkpt>
      <trkpt lat="50.01787" lon="4.18384">
        <ele>238.8</ele>
        <time>2024-04-01T10:01:44Z</time>
      </trkpt>
      <trkpt lat="50.01794" lon="4.18396">
        <ele>238.2</ele>
        <time>2024-04-01T10:01:45Z</time>
      </trkpt>
      <trkpt lat="50.01801" lon="4.18407">
        <ele>237.8</ele>
        <time>2024-04-01T10:01:46Z</time>
      </trkpt>
      <trkpt lat="50.01808" lon="4.18418">
        <ele>237.2</ele>
        <time>2024-04-01T10:01:47Z</time>
      </trkpt>
      <trkpt lat="50.01815" lon="4.18429">
        <ele>236.6</ele>
        <time>2024-04-01T10:01:48Z</time>
      </trkpt>
      <trkpt lat="50.01822" lon="4.1844">
        <ele>236.2</ele>
        <time>2024-04-01T10:01:49Z</time>
      </trkpt>
      <trkpt lat="50.01829" lon="4.18451">
        <ele>236.2</ele>
        <time>2024-04-01T10:01:50Z</time>
      </trkpt>
      <trkpt lat="50.01835" lon="4.18462">
        <ele>236</ele>
        <time>2024-04-01T10:01:51Z</time>
      </trkpt>
      <trkpt lat="50.01842" lon="4.18473">
        <ele>235.8</ele>
        <time>2024-04-01T10:01:52Z</time>
      </trkpt>
      <trkpt lat="50.01848" lon="4.18483">
        <ele>235.8</ele>
        <time>2024-04-01T10:01:53Z</time>
      </trkpt>
      <trkpt lat="50.01854" lon="4.18492">
        <ele>235.6</ele>
        <time>2024-04-01T10:01:54Z</time>
      </trkpt>
      <trkpt lat="50.0186" lon="4.18501">
        <ele>235.8</ele>
        <time>2024-04-01T10:01:55Z</time>
      </trkpt>
      <trkpt lat="50.01865" lon="4.1851">
        <ele>235.6</ele>
        <time>2024-04-01T10:01:56Z</time>
      </trkpt>
      <trkpt lat="50.0187" lon="4.18518">
        <ele>235.6</ele>
        <time>2024-04-01T10:01:57Z</time>
      </trkpt>
      <trkpt lat="50.01875" lon="4.18526">
        <ele>235.6</ele>
        <time>2024-04-01T10:01:58Z</time>
      </trkpt>
      <trkpt lat="50.01879" lon="4.18533">
        <ele>235.8</ele>
        <time>2024-04-01T10:01:59Z</time>
      </trkpt>
      <trkpt lat="50.01883" lon="4.18541">
        <ele>235.6</ele>
        <time>2024-04-01T10:02:00Z</time>
      </trkpt>
      <trkpt lat="50.01888" lon="4.18547">
        <ele>235.8</ele>
        <time>2024-04-01T10:02:01Z</time>
      </trkpt>
      <trkpt lat="50.01891" lon="4.18554">
        <ele>235.8</ele>
        <time>2024-04-01T10:02:02Z</time>
      </trkpt>
      <trkpt lat="50.01895" lon="4.1856">
        <ele>236.2</ele>
        <time>2024-04-01T10:02:03Z</time>
      </trkpt>
      <trkpt lat="50.01898" lon="4.18567">
        <ele>237.2</ele>
        <time>2024-04-01T10:02:04Z</time>
      </trkpt>
      <trkpt lat="50.01902" lon="4.18572">
        <ele>237.8</ele>
        <time>2024-04-01T10:02:05Z</time>
      </trkpt>
      <trkpt lat="50.01905" lon="4.18578">
        <ele>238.4</ele>
        <time>2024-04-01T10:02:06Z</time>
      </trkpt>
      <trkpt lat="50.01907" lon="4.18583">
        <ele>238.4</ele>
        <time>2024-04-01T10:02:07Z</time>
      </trkpt>
      <trkpt lat="50.01908" lon="4.18588">
        <ele>239.4</ele>
        <time>2024-04-01T10:02:08Z</time>
      </trkpt>
      <trkpt lat="50.01909" lon="4.18594">
        <ele>239.8</ele>
        <time>2024-04-01T10:02:09Z</time>
      </trkpt>
      <trkpt lat="50.01907" lon="4.186">
        <ele>240.4</ele>
        <time>2024-04-01T10:02:10Z</time>
      </trkpt>
      <trkpt lat="50.01906" lon="4.18605">
        <ele>241</ele>
        <time>2024-04-01T10:02:11Z</time>
      </trkpt>
      <trkpt lat="50.01904" lon="4.1861">
        <ele>241.6</ele>
        <time>2024-04-01T10:02:12Z</time>
      </trkpt>
      <trkpt lat="50.01901" lon="4.18616">
        <ele>242.2</ele>
        <time>2024-04-01T10:02:13Z</time>
      </trkpt>
      <trkpt lat="50.01899" lon="4.18621">
        <ele>242.4</ele>
        <time>2024-04-01T10:02:14Z</time>
      </trkpt>
      <trkpt lat="50.01897" lon="4.18626">
        <ele>242.6</ele>
        <time>2024-04-01T10:02:15Z</time>
      </trkpt>
      <trkpt lat="50.01895" lon="4.18632">
        <ele>242.8</ele>
        <time>2024-04-01T10:02:16Z</time>
      </trkpt>
      <trkpt lat="50.01893" lon="4.18638">
        <ele>242.8</ele>
        <time>2024-04-01T10:02:17Z</time>
      </trkpt>
      <trkpt lat="50.0189" lon="4.18644">
        <ele>243</ele>
        <time>2024-04-01T10:02:18Z</time>
      </trkpt>
      <trkpt lat="50.01887" lon="4.1865">
        <ele>243.2</ele>
        <time>2024-04-01T10:02:19Z</time>
      </trkpt>
      <trkpt lat="50.01885" lon="4.18656">
        <ele>243.2</ele>
        <time>2024-04-01T10:02:20Z</time>
      </trkpt>
      <trkpt lat="50.01882" lon="4.18663">
        <ele>243.2</ele>
        <time>2024-04-01T10:02:21Z</time>
      </trkpt>
      <trkpt lat="50.01879" lon="4.1867">
        <ele>243.6</ele>
        <time>2024-04-01T10:02:22Z</time>
      </trkpt>
      <trkpt lat="50.01877" lon="4.18677">
        <ele>243.8</ele>
        <time>2024-04-01T10:02:23Z</time>
      </trkpt>
      <trkpt lat="50.01874" lon="4.18683">
        <ele>244.4</ele>
        <time>2024-04-01T10:02:24Z</time>
      </trkpt>
      <trkpt lat="50.01871" lon="4.1869">
        <ele>244.4</ele>
        <time>2024-04-01T10:02:25Z</time>
      </trkpt>
      <trkpt lat="50.01868" lon="4.18697">
        <ele>244.4</ele>
        <time>2024-04-01T10:02:26Z</time>
      </trkpt>
      <trkpt lat="50.01865" lon="4.18704">
        <ele>244.4</ele>
        <time>2024-04-01T10:02:27Z</time>
      </trkpt>
      <trkpt lat="50.01862" lon="4.18711">
        <ele>244.6</ele>
        <time>2024-04-01T10:02:28Z</time>
      </trkpt>
      <trkpt lat="50.01859" lon="4.18717">
        <ele>244.8</ele>
        <time>2024-04-01T10:02:29Z</time>
      </trkpt>
      <trkpt lat="50.01857" lon="4.18724">
        <ele>245</ele>
        <time>2024-04-01T10:02:30Z</time>
      </trkpt>
      <trkpt lat="50.01854" lon="4.18731">
        <ele>245.2</ele>
        <time>2024-04-01T10:02:31Z</time>
      </trkpt>
      <trkpt lat="50.01851" lon="4.18738">
        <ele>245.6</ele>
        <time>2024-04-01T10:02:32Z</time>
      </trkpt>
      <trkpt lat="50.01848" lon="4.18745">
        <ele>245.8</ele>
        <time>2024-04-01T10:02:33Z</time>
      </trkpt>
      <trkpt lat="50.01845" lon="4.18752">
        <ele>246.4</ele>
        <time>2024-04-01T10:02:34Z</time>
      </trkpt>
      <trkpt lat="50.01842" lon="4.18759">
        <ele>246.8</ele>
        <time>2024-04-01T10:02:35Z</time>
      </trkpt>
      <trkpt lat="50.01839" lon="4.18766">
        <ele>247</ele>
        <time>2024-04-01T10:02:36Z</time>
      </trkpt>
      <trkpt lat="50.01837" lon="4.18773">
        <ele>247.2</ele>
        <time>2024-04-01T10:02:37Z</time>
      </trkpt>
      <trkpt lat="50.01834" lon="4.1878">
        <ele>247.2</ele>
        <time>2024-04-01T10:02:38Z</time>
      </trkpt>
      <trkpt lat="50.01831" lon="4.18787">
        <ele>247.2</ele>
        <time>2024-04-01T10:02:39Z</time>
      </trkpt>
      <trkpt lat="50.01828" lon="4.18794">
        <ele>247.2</ele>
        <time>2024-04-01T10:02:40Z</time>
      </trkpt>
      <trkpt lat="50.01825" lon="4.18801">
        <ele>247.2</ele>
        <time>2024-04-01T10:02:41Z</time>
      </trkpt>
      <trkpt lat="50.01822" lon="4.18808">
        <ele>247.6</ele>
        <time>2024-04-01T10:02:42Z</time>
      </trkpt>
      <trkpt lat="50.01819" lon="4.18815">
        <ele>247.6</ele>
        <time>2024-04-01T10:02:43Z</time>
      </trkpt>
      <trkpt lat="50.01817" lon="4.18822">
        <ele>247.6</ele>
        <time>2024-04-01T10:02:44Z</time>
      </trkpt>
      <trkpt lat="50.01814" lon="4.18829">
        <ele>247.6</ele>
        <time>2024-04-01T10:02:45Z</time>
      </trkpt>
      <trkpt lat="50.01811" lon="4.18836">
        <ele>247.6</ele>
        <time>2024-04-01T10:02:46Z</time>
      </trkpt>
      <trkpt lat="50.01808" lon="4.18843">
        <ele>247.6</ele>
        <time>2024-04-01T10:02:47Z</time>
      </trkpt>
      <trkpt lat="50.01805" lon="4.1885">
        <ele>247.8</ele>
        <time>2024-04-01T10:02:48Z</time>
      </trkpt>
      <trkpt lat="50.01802" lon="4.18857">
        <ele>247.8</ele>
        <time>2024-04-01T10:02:49Z</time>
      </trkpt>
      <trkpt lat="50.01799" lon="4.18865">
        <ele>247.8</ele>
        <time>2024-04-01T10:02:50Z</time>
      </trkpt>
      <trkpt lat="50.01796" lon="4.18872">
        <ele>248</ele>
        <time>2024-04-01T10:02:51Z</time>
      </trkpt>
      <trkpt lat="50.01794" lon="4.1888">
        <ele>248</ele>
        <time>2024-04-01T10:02:52Z</time>
      </trkpt>
      <trkpt lat="50.01791" lon="4.18888">
        <ele>248.2</ele>
        <time>2024-04-01T10:02:53Z</time>
      </trkpt>
      <trkpt lat="50.01789" lon="4.18896">
        <ele>248.2</ele>
        <time>2024-04-01T10:02:54Z</time>
      </trkpt>
      <trkpt lat="50.01787" lon="4.18904">
        <ele>248.4</ele>
        <time>2024-04-01T10:02:55Z</time>
      </trkpt>
      <trkpt lat="50.01785" lon="4.18912">
        <ele>248.2</ele>
        <time>2024-04-01T10:02:56Z</time>
      </trkpt>
      <trkpt lat="50.01783" lon="4.18921">
        <ele>248.6</ele>
        <time>2024-04-01T10:02:57Z</time>
      </trkpt>
      <trkpt lat="50.01781" lon="4.18929">
        <ele>248.6</ele>
        <time>2024-04-01T10:02:58Z</time>
      </trkpt>
      <trkpt lat="50.01779" lon="4.18939">
        <ele>249</ele>
        <time>2024-04-01T10:02:59Z</time>
      </trkpt>
      <trkpt lat="50.01777" lon="4.18947">
        <ele>249.4</ele>
        <time>2024-04-01T10:03:00Z</time>
      </trkpt>
      <trkpt lat="50.01776" lon="4.18957">
        <ele>249.4</ele>
        <time>2024-04-01T10:03:01Z</time>
      </trkpt>
      <trkpt lat="50.01774" lon="4.18966">
        <ele>249.4</ele>
        <time>2024-04-01T10:03:02Z</time>
      </trkpt>
      <trkpt lat="50.01772" lon="4.18976">
        <ele>249.4</ele>
        <time>2024-04-01T10:03:03Z</time>
      </trkpt>
      <trkpt lat="50.0177" lon="4.18986">
        <ele>249.4</ele>
        <time>2024-04-01T10:03:04Z</time>
      </trkpt>
      <trkpt lat="50.01768" lon="4.18996">
        <ele>249.6</ele>
        <time>2024-04-01T10:03:05Z</time>
      </trkpt>
      <trkpt lat="50.01766" lon="4.19007">
        <ele>249.6</ele>
        <time>2024-04-01T10:03:06Z</time>
      </trkpt>
      <trkpt lat="50.01764" lon="4.19018">
        <ele>249.4</ele>
        <time>2024-04-01T10:03:07Z</time>
      </trkpt>
      <trkpt lat="50.01762" lon="4.19029">
        <ele>249.6</ele>
        <time>2024-04-01T10:03:08Z</time>
      </trkpt>
      <trkpt lat="50.01759" lon="4.1904">
        <ele>249.4</ele>
        <time>2024-04-01T10:03:09Z</time>
      </trkpt>
      <trkpt lat="50.01757" lon="4.19052">
        <ele>249.4</ele>
        <time>2024-04-01T10:03:10Z</time>
      </trkpt>
      <trkpt lat="50.01755" lon="4.19064">
        <ele>249.4</ele>
        <time>2024-04-01T10:03:11Z</time>
      </trkpt>
      <trkpt lat="50.01752" lon="4.19077">
        <ele>249.4</ele>
        <time>2024-04-01T10:03:12Z</time>
      </trkpt>
      <trkpt lat="50.0175" lon="4.19089">
        <ele>249.4</ele>
        <time>2024-04-01T10:03:13Z</time>
      </trkpt>
      <trkpt lat="50.01747" lon="4.19103">
        <ele>249.2</ele>
        <time>2024-04-01T10:03:14Z</time>
      </trkpt>
      <trkpt lat="50.01744" lon="4.19116">
        <ele>249</ele>
        <time>2024-04-01T10:03:15Z</time>
      </trkpt>
      <trkpt lat="50.01741" lon="4.1913">
        <ele>249</ele>
        <time>2024-04-01T10:03:16Z</time>
      </trkpt>
      <trkpt lat="50.01738" lon="4.19144">
        <ele>248.6</ele>
        <time>2024-04-01T10:03:17Z</time>
      </trkpt>
      <trkpt lat="50.01736" lon="4.19159">
        <ele>248.2</ele>
        <time>2024-04-01T10:03:18Z</time>
      </trkpt>
      <trkpt lat="50.01732" lon="4.19173">
        <ele>247.6</ele>
        <time>2024-04-01T10:03:19Z</time>
      </trkpt>
      <trkpt lat="50.01726" lon="4.19186">
        <ele>247.2</ele>
        <time>2024-04-01T10:03:20Z</time>
      </trkpt>
      <trkpt lat="50.01718" lon="4.19196">
        <ele>246.8</ele>
        <time>2024-04-01T10:03:21Z</time>
      </trkpt>
      <trkpt lat="50.01709" lon="4.19203">
        <ele>246.4</ele>
        <time>2024-04-01T10:03:22Z</time>
      </trkpt>
      <trkpt lat="50.01699" lon="4.19208">
        <ele>245.8</ele>
        <time>2024-04-01T10:03:23Z</time>
      </trkpt>
      <trkpt lat="50.0169" lon="4.19212">
        <ele>245.2</ele>
        <time>2024-04-01T10:03:24Z</time>
      </trkpt>
      <trkpt lat="50.01681" lon="4.19216">
        <ele>244.6</ele>
        <time>2024-04-01T10:03:25Z</time>
      </trkpt>
      <trkpt lat="50.01672" lon="4.19219">
        <ele>243</ele>
        <time>2024-04-01T10:03:26Z</time>
      </trkpt>
      <trkpt lat="50.01664" lon="4.19223">
        <ele>242</ele>
        <time>2024-04-01T10:03:27Z</time>
      </trkpt>
      <trkpt lat="50.01656" lon="4.19226">
        <ele>241.6</ele>
        <time>2024-04-01T10:03:28Z</time>
      </trkpt>
      <trkpt lat="50.01649" lon="4.19229">
        <ele>241.2</ele>
        <time>2024-04-01T10:03:29Z</time>
      </trkpt>
      <trkpt lat="50.01642" lon="4.19232">
        <ele>241</ele>
        <time>2024-04-01T10:03:30Z</time>
      </trkpt>
      <trkpt lat="50.01636" lon="4.19236">
        <ele>241.2</ele>
        <time>2024-04-01T10:03:31Z</time>
      </trkpt>
      <trkpt lat="50.0163" lon="4.1924">
        <ele>241</ele>
        <time>2024-04-01T10:03:32Z</time>
      </trkpt>
      <trkpt lat="50.01624" lon="4.19244">
        <ele>241</ele>
        <time>2024-04-01T10:03:33Z</time>
      </trkpt>
      <trkpt lat="50.01619" lon="4.19248">
        <ele>241</ele>
        <time>2024-04-01T10:03:34Z</time>
      </trkpt>
      <trkpt lat="50.01613" lon="4.19252">
        <ele>241</ele>
        <time>2024-04-01T10:03:35Z</time>
      </trkpt>
      <trkpt lat="50.01609" lon="4.19257">
        <ele>241</ele>
        <time>2024-04-01T10:03:36Z</time>
      </trkpt>
      <trkpt lat="50.01604" lon="4.19261">
        <ele>241</ele>
        <time>2024-04-01T10:03:37Z</time>
      </trkpt>
      <trkpt lat="50.01599" lon="4.19266">
        <ele>241</ele>
        <time>2024-04-01T10:03:38Z</time>
      </trkpt>
      <trkpt lat="50.01595" lon="4.19271">
        <ele>241.4</ele>
        <time>2024-04-01T10:03:39Z</time>
      </trkpt>
      <trkpt lat="50.01591" lon="4.19275">
        <ele>242</ele>
        <time>2024-04-01T10:03:40Z</time>
      </trkpt>
      <trkpt lat="50.01586" lon="4.19279">
        <ele>242.4</ele>
        <time>2024-04-01T10:03:41Z</time>
      </trkpt>
      <trkpt lat="50.01582" lon="4.19283">
        <ele>243.2</ele>
        <time>2024-04-01T10:03:42Z</time>
      </trkpt>
      <trkpt lat="50.01578" lon="4.19288">
        <ele>244</ele>
        <time>2024-04-01T10:03:43Z</time>
      </trkpt>
      <trkpt lat="50.01574" lon="4.19292">
        <ele>244.8</ele>
        <time>2024-04-01T10:03:44Z</time>
      </trkpt>
      <trkpt lat="50.0157" lon="4.19296">
        <ele>245.4</ele>
        <time>2024-04-01T10:03:45Z</time>
      </trkpt>
      <trkpt lat="50.01566" lon="4.193">
        <ele>245.6</ele>
        <time>2024-04-01T10:03:46Z</time>
      </trkpt>
      <trkpt lat="50.01563" lon="4.19304">
        <ele>246</ele>
        <time>2024-04-01T10:03:47Z</time>
      </trkpt>
      <trkpt lat="50.01559" lon="4.19308">
        <ele>246.4</ele>
        <time>2024-04-01T10:03:48Z</time>
      </trkpt>
      <trkpt lat="50.01555" lon="4.19312">
        <ele>246.6</ele>
        <time>2024-04-01T10:03:49Z</time>
      </trkpt>
      <trkpt lat="50.01552" lon="4.19316">
        <ele>247.2</ele>
        <time>2024-04-01T10:03:50Z</time>
      </trkpt>
      <trkpt lat="50.01548" lon="4.1932">
        <ele>247.2</ele>
        <time>2024-04-01T10:03:51Z</time>
      </trkpt>
      <trkpt lat="50.01544" lon="4.19324">
        <ele>247.2</ele>
        <time>2024-04-01T10:03:52Z</time>
      </trkpt>
      <trkpt lat="50.0154" lon="4.19327">
        <ele>247.4</ele>
        <time>2024-04-01T10:03:53Z</time>
      </trkpt>
      <trkpt lat="50.01537" lon="4.19331">
        <ele>248</ele>
        <time>2024-04-01T10:03:54Z</time>
      </trkpt>
      <trkpt lat="50.01533" lon="4.19334">
        <ele>248.6</ele>
        <time>2024-04-01T10:03:55Z</time>
      </trkpt>
      <trkpt lat="50.0153" lon="4.19338">
        <ele>248.8</ele>
        <time>2024-04-01T10:03:56Z</time>
      </trkpt>
      <trkpt lat="50.01526" lon="4.19342">
        <ele>249.4</ele>
        <time>2024-04-01T10:03:57Z</time>
      </trkpt>
      <trkpt lat="50.01522" lon="4.19345">
        <ele>249.6</ele>
        <time>2024-04-01T10:03:58Z</time>
      </trkpt>
      <trkpt lat="50.01519" lon="4.19349">
        <ele>249.8</ele>
        <time>2024-04-01T10:03:59Z</time>
      </trkpt>
      <trkpt lat="50.01515" lon="4.19352">
        <ele>250</ele>
        <time>2024-04-01T10:04:00Z</time>
      </trkpt>
      <trkpt lat="50.01512" lon="4.19356">
        <ele>250</ele>
        <time>2024-04-01T10:04:01Z</time>
      </trkpt>
      <trkpt lat="50.01508" lon="4.19359">
        <ele>250.4</ele>
        <time>2024-04-01T10:04:02Z</time>
      </trkpt>
      <trkpt lat="50.01505" lon="4.19363">
        <ele>250.4</ele>
        <time>2024-04-01T10:04:03Z</time>
      </trkpt>
      <trkpt lat="50.01502" lon="4.19367">
        <ele>250.6</ele>
        <time>2024-04-01T10:04:04Z</time>
      </trkpt>
      <trkpt lat="50.01498" lon="4.1937">
        <ele>250.8</ele>
        <time>2024-04-01T10:04:05Z</time>
      </trkpt>
      <trkpt lat="50.01495" lon="4.19374">
        <ele>250.8</ele>
        <time>2024-04-01T10:04:06Z</time>
      </trkpt>
      <trkpt lat="50.01491" lon="4.19377">
        <ele>251</ele>
        <time>2024-04-01T10:04:07Z</time>
      </trkpt>
      <trkpt lat="50.01488" lon="4.19381">
        <ele>251.6</ele>
        <time>2024-04-01T10:04:08Z</time>
      </trkpt>
      <trkpt lat="50.01484" lon="4.19385">
        <ele>251.8</ele>
        <time>2024-04-01T10:04:09Z</time>
      </trkpt>
      <trkpt lat="50.01481" lon="4.19389">
        <ele>252</ele>
        <time>2024-04-01T10:04:10Z</time>
      </trkpt>
      <trkpt lat="50.01477" lon="4.19393">
        <ele>252</ele>
        <time>2024-04-01T10:04:11Z</time>
      </trkpt>
      <trkpt lat="50.01473" lon="4.19397">
        <ele>252.4</ele>
        <time>2024-04-01T10:04:12Z</time>
      </trkpt>
      <trkpt lat="50.0147" lon="4.19401">
        <ele>252.4</ele>
        <time>2024-04-01T10:04:13Z</time>
      </trkpt>
      <trkpt lat="50.01466" lon="4.19405">
        <ele>252.8</ele>
        <time>2024-04-01T10:04:14Z</time>
      </trkpt>
      <trkpt lat="50.01463" lon="4.19409">
        <ele>252.8</ele>
        <time>2024-04-01T10:04:15Z</time>
      </trkpt>
      <trkpt lat="50.01459" lon="4.19412">
        <ele>253.2</ele>
        <time>2024-04-01T10:04:16Z</time>
      </trkpt>
      <trkpt lat="50.01455" lon="4.19416">
        <ele>253.2</ele>
        <time>2024-04-01T10:04:17Z</time>
      </trkpt>
      <trkpt lat="50.01451" lon="4.1942">
        <ele>253.4</ele>
        <time>2024-04-01T10:04:18Z</time>
      </trkpt>
      <trkpt lat="50.01448" lon="4.19423">
        <ele>253.6</ele>
        <time>2024-04-01T10:04:19Z</time>
      </trkpt>
      <trkpt lat="50.01445" lon="4.19427">
        <ele>254</ele>
        <time>2024-04-01T10:04:20Z</time>
      </trkpt>
      <trkpt lat="50.01441" lon="4.1943">
        <ele>254.6</ele>
        <time>2024-04-01T10:04:21Z</time>
      </trkpt>
      <trkpt lat="50.01438" lon="4.19434">
        <ele>255</ele>
        <time>2024-04-01T10:04:22Z</time>
      </trkpt>
      <trkpt lat="50.01435" lon="4.19437">
        <ele>255.4</ele>
        <time>2024-04-01T10:04:23Z</time>
      </trkpt>
      <trkpt lat="50.01431" lon="4.19441">
        <ele>255.4</ele>
        <time>2024-04-01T10:04:24Z</time>
      </trkpt>
      <trkpt lat="50.01428" lon="4.19444">
        <ele>255.8</ele>
        <time>2024-04-01T10:04:25Z</time>
      </trkpt>
      <trkpt lat="50.01425" lon="4.19447">
        <ele>256</ele>
        <time>2024-04-01T10:04:26Z</time>
      </trkpt>
      <trkpt lat="50.01422" lon="4.19451">
        <ele>256.2</ele>
        <time>2024-04-01T10:04:27Z</time>
      </trkpt>
      <trkpt lat="50.01418" lon="4.19454">
        <ele>256.4</ele>
        <time>2024-04-01T10:04:28Z</time>
      </trkpt>
      <trkpt lat="50.01415" lon="4.19457">
        <ele>256.4</ele>
        <time>2024-04-01T10:04:29Z</time>
      </trkpt>
      <trkpt lat="50.01411" lon="4.19461">
        <ele>256.6</ele>
        <time>2024-04-01T10:04:30Z</time>
      </trkpt>
      <trkpt lat="50.01407" lon="4.19465">
        <ele>256.8</ele>
        <time>2024-04-01T10:04:31Z</time>
      </trkpt>
      <trkpt lat="50.01404" lon="4.19468">
        <ele>257.2</ele>
        <time>2024-04-01T10:04:32Z</time>
      </trkpt>
      <trkpt lat="50.014" lon="4.19473">
        <ele>257.4</ele>
        <time>2024-04-01T10:04:33Z</time>
      </trkpt>
      <trkpt lat="50.01396" lon="4.19477">
        <ele>257.6</ele>
        <time>2024-04-01T10:04:34Z</time>
      </trkpt>
      <trkpt lat="50.01392" lon="4.19481">
        <ele>257.8</ele>
        <time>2024-04-01T10:04:35Z</time>
      </trkpt>
      <trkpt lat="50.01388" lon="4.19485">
        <ele>258</ele>
        <time>2024-04-01T10:04:36Z</time>
      </trkpt>
      <trkpt lat="50.01384" lon="4.19489">
        <ele>258.2</ele>
        <time>2024-04-01T10:04:37Z</time>
      </trkpt>
      <trkpt lat="50.0138" lon="4.19493">
        <ele>258.2</ele>
        <time>2024-04-01T10:04:38Z</time>
      </trkpt>
      <trkpt lat="50.01376" lon="4.19497">
        <ele>258.4</ele>
        <time>2024-04-01T10:04:39Z</time>
      </trkpt>
      <trkpt lat="50.01373" lon="4.19501">
        <ele>258.6</ele>
        <time>2024-04-01T10:04:40Z</time>
      </trkpt>
      <trkpt lat="50.01369" lon="4.19504">
        <ele>258.8</ele>
        <time>2024-04-01T10:04:41Z</time>
      </trkpt>
      <trkpt lat="50.01365" lon="4.19508">
        <ele>258.8</ele>
        <time>2024-04-01T10:04:42Z</time>
      </trkpt>
      <trkpt lat="50.01361" lon="4.19512">
        <ele>259</ele>
        <time>2024-04-01T10:04:43Z</time>
      </trkpt>
      <trkpt lat="50.01357" lon="4.19516">
        <ele>259</ele>
        <time>2024-04-01T10:04:44Z</time>
      </trkpt>
      <trkpt lat="50.01354" lon="4.19519">
        <ele>259</ele>
        <time>2024-04-01T10:04:45Z</time>
      </trkpt>
      <trkpt lat="50.0135" lon="4.19523">
        <ele>259.2</ele>
        <time>2024-04-01T10:04:46Z</time>
      </trkpt>
      <trkpt lat="50.01346" lon="4.19527">
        <ele>259.2</ele>
        <time>2024-04-01T10:04:47Z</time>
      </trkpt>
      <trkpt lat="50.01343" lon="4.19531">
        <ele>259.4</ele>
        <time>2024-04-01T10:04:48Z</time>
      </trkpt>
      <trkpt lat="50.01339" lon="4.19535">
        <ele>259.4</ele>
        <time>2024-04-01T10:04:49Z</time>
      </trkpt>
      <trkpt lat="50.01335" lon="4.19538">
        <ele>259.6</ele>
        <time>2024-04-01T10:04:50Z</time>
      </trkpt>
      <trkpt lat="50.01331" lon="4.19542">
        <ele>259.8</ele>
        <time>2024-04-01T10:04:51Z</time>
      </trkpt>
      <trkpt lat="50.01327" lon="4.19546">
        <ele>260.2</ele>
        <time>2024-04-01T10:04:52Z</time>
      </trkpt>
      <trkpt lat="50.01324" lon="4.1955">
        <ele>260.2</ele>
        <time>2024-04-01T10:04:53Z</time>
      </trkpt>
      <trkpt lat="50.0132" lon="4.19553">
        <ele>260.2</ele>
        <time>2024-04-01T10:04:54Z</time>
      </trkpt>
      <trkpt lat="50.01317" lon="4.19557">
        <ele>260.6</ele>
        <time>2024-04-01T10:04:55Z</time>
      </trkpt>
      <trkpt lat="50.01313" lon="4.19561">
        <ele>260.8</ele>
        <time>2024-04-01T10:04:56Z</time>
      </trkpt>
      <trkpt lat="50.0131" lon="4.19565">
        <ele>260.8</ele>
        <time>2024-04-01T10:04:57Z</time>
      </trkpt>
      <trkpt lat="50.01306" lon="4.19568">
        <ele>261</ele>
        <time>2024-04-01T10:04:58Z</time>
      </trkpt>
      <trkpt lat="50.01303" lon="4.19572">
        <ele>261.2</ele>
        <time>2024-04-01T10:04:59Z</time>
      </trkpt>
      <trkpt lat="50.01299" lon="4.19576">
        <ele>261.4</ele>
        <time>2024-04-01T10:05:00Z</time>
      </trkpt>
      <trkpt lat="50.01295" lon="4.19579">
        <ele>261.4</ele>
        <time>2024-04-01T10:05:01Z</time>
      </trkpt>
      <trkpt lat="50.01291" lon="4.19583">
        <ele>261.6</ele>
        <time>2024-04-01T10:05:02Z</time>
      </trkpt>
      <trkpt lat="50.01288" lon="4.19587">
        <ele>261.6</ele>
        <time>2024-04-01T10:05:03Z</time>
      </trkpt>
      <trkpt lat="50.01284" lon="4.19591">
        <ele>261.8</ele>
        <time>2024-04-01T10:05:04Z</time>
      </trkpt>
      <trkpt lat="50.0128" lon="4.19595">
        <ele>262.2</ele>
        <time>2024-04-01T10:05:05Z</time>
      </trkpt>
      <trkpt lat="50.01276" lon="4.19599">
        <ele>262.2</ele>
        <time>2024-04-01T10:05:06Z</time>
      </trkpt>
      <trkpt lat="50.01273" lon="4.19603">
        <ele>262.4</ele>
        <time>2024-04-01T10:05:07Z</time>
      </trkpt>
      <trkpt lat="50.01269" lon="4.19607">
        <ele>262.6</ele>
        <time>2024-04-01T10:05:08Z</time>
      </trkpt>
      <trkpt lat="50.01266" lon="4.19612">
        <ele>262.8</ele>
        <time>2024-04-01T10:05:09Z</time>
      </trkpt>
      <trkpt lat="50.01262" lon="4.19616">
        <ele>262.8</ele>
        <time>2024-04-01T10:05:10Z</time>
      </trkpt>
      <trkpt lat="50.01258" lon="4.19621">
        <ele>263.2</ele>
        <time>2024-04-01T10:05:11Z</time>
      </trkpt>
      <trkpt lat="50.01255" lon="4.19625">
        <ele>263.2</ele>
        <time>2024-04-01T10:05:12Z</time>
      </trkpt>
      <trkpt lat="50.01251" lon="4.1963">
        <ele>263.4</ele>
        <time>2024-04-01T10:05:13Z</time>
      </trkpt>
      <trkpt lat="50.01248" lon="4.19634">
        <ele>263.8</ele>
        <time>2024-04-01T10:05:14Z</time>
      </trkpt>
      <trkpt lat="50.01245" lon="4.19639">
        <ele>264</ele>
        <time>2024-04-01T10:05:15Z</time>
      </trkpt>
      <trkpt lat="50.01241" lon="4.19644">
        <ele>264.2</ele>
        <time>2024-04-01T10:05:16Z</time>
      </trkpt>
      <trkpt lat="50.01238" lon="4.19648">
        <ele>264.2</ele>
        <time>2024-04-01T10:05:17Z</time>
      </trkpt>
      <trkpt lat="50.01234" lon="4.19653">
        <ele>264.4</ele>
        <time>2024-04-01T10:05:18Z</time>
      </trkpt>
      <trkpt lat="50.01231" lon="4.19658">
        <ele>264.4</ele>
        <time>2024-04-01T10:05:19Z</time>
      </trkpt>
      <trkpt lat="50.01228" lon="4.19664">
        <ele>264.8</ele>
        <time>2024-04-01T10:05:20Z</time>
      </trkpt>
      <trkpt lat="50.01225" lon="4.19669">
        <ele>264.8</ele>
        <time>2024-04-01T10:05:21Z</time>
      </trkpt>
      <trkpt lat="50.01221" lon="4.19674">
        <ele>265</ele>
        <time>2024-04-01T10:05:22Z</time>
      </trkpt>
      <trkpt lat="50.01218" lon="4.19679">
        <ele>265</ele>
        <time>2024-04-01T10:05:23Z</time>
      </trkpt>
      <trkpt lat="50.01215" lon="4.19684">
        <ele>265.4</ele>
        <time>2024-04-01T10:05:24Z</time>
      </trkpt>
      <trkpt lat="50.01212" lon="4.1969">
        <ele>265.4</ele>
        <time>2024-04-01T10:05:25Z</time>
      </trkpt>
      <trkpt lat="50.01209" lon="4.19695">
        <ele>265.4</ele>
        <time>2024-04-01T10:05:26Z</time>
      </trkpt>
      <trkpt lat="50.01206" lon="4.197">
        <ele>265.6</ele>
        <time>2024-04-01T10:05:27Z</time>
      </trkpt>
      <trkpt lat="50.01203" lon="4.19705">
        <ele>265.8</ele>
        <time>2024-04-01T10:05:28Z</time>
      </trkpt>
      <trkpt lat="50.012" lon="4.1971">
        <ele>266</ele>
        <time>2024-04-01T10:05:29Z</time>
      </trkpt>
      <trkpt lat="50.01197" lon="4.19716">
        <ele>266</ele>
        <time>2024-04-01T10:05:30Z</time>
      </trkpt>
      <trkpt lat="50.01194" lon="4.19721">
        <ele>266.2</ele>
        <time>2024-04-01T10:05:31Z</time>
      </trkpt>
      <trkpt lat="50.01191" lon="4.19726">
        <ele>266.4</ele>
        <time>2024-04-01T10:05:32Z</time>
      </trkpt>
      <trkpt lat="50.01188" lon="4.19732">
        <ele>266.8</ele>
        <time>2024-04-01T10:05:33Z</time>
      </trkpt>
      <trkpt lat="50.01186" lon="4.19738">
        <ele>266.8</ele>
        <time>2024-04-01T10:05:34Z</time>
      </trkpt>
      <trkpt lat="50.01183" lon="4.19744">
        <ele>267.2</ele>
        <time>2024-04-01T10:05:35Z</time>
      </trkpt>
      <trkpt lat="50.0118" lon="4.1975">
        <ele>267.4</ele>
        <time>2024-04-01T10:05:36Z</time>
      </trkpt>
      <trkpt lat="50.01177" lon="4.19756">
        <ele>267.6</ele>
        <time>2024-04-01T10:05:37Z</time>
      </trkpt>
      <trkpt lat="50.01174" lon="4.19762">
        <ele>268</ele>
        <time>2024-04-01T10:05:38Z</time>
      </trkpt>
      <trkpt lat="50.01172" lon="4.19768">
        <ele>268.4</ele>
        <time>2024-04-01T10:05:39Z</time>
      </trkpt>
      <trkpt lat="50.01169" lon="4.19775">
        <ele>268.6</ele>
        <time>2024-04-01T10:05:40Z</time>
      </trkpt>
      <trkpt lat="50.01167" lon="4.19781">
        <ele>268.8</ele>
        <time>2024-04-01T10:05:41Z</time>
      </trkpt>
      <trkpt lat="50.01165" lon="4.19788">
        <ele>268.8</ele>
        <time>2024-04-01T10:05:42Z</time>
      </trkpt>
      <trkpt lat="50.01163" lon="4.19795">
        <ele>269</ele>
        <time>2024-04-01T10:05:43Z</time>
      </trkpt>
      <trkpt lat="50.01161" lon="4.19801">
        <ele>269</ele>
        <time>2024-04-01T10:05:44Z</time>
      </trkpt>
      <trkpt lat="50.01159" lon="4.19808">
        <ele>269.2</ele>
        <time>2024-04-01T10:05:45Z</time>
      </trkpt>
      <trkpt lat="50.01157" lon="4.19815">
        <ele>269.2</ele>
        <time>2024-04-01T10:05:46Z</time>
      </trkpt>
      <trkpt lat="50.01155" lon="4.19822">
        <ele>269.2</ele>
        <time>2024-04-01T10:05:47Z</time>
      </trkpt>
      <trkpt lat="50.01153" lon="4.19829">
        <ele>269.2</ele>
        <time>2024-04-01T10:05:48Z</time>
      </trkpt>
      <trkpt lat="50.01151" lon="4.19836">
        <ele>269.2</ele>
        <time>2024-04-01T10:05:49Z</time>
      </trkpt>
      <trkpt lat="50.01149" lon="4.19843">
        <ele>269.6</ele>
        <time>2024-04-01T10:05:50Z</time>
      </trkpt>
      <trkpt lat="50.01148" lon="4.1985">
        <ele>269.8</ele>
        <time>2024-04-01T10:05:51Z</time>
      </trkpt>
      <trkpt lat="50.01146" lon="4.19858">
        <ele>269.6</ele>
        <time>2024-04-01T10:05:52Z</time>
      </trkpt>
      <trkpt lat="50.01145" lon="4.19865">
        <ele>269.8</ele>
        <time>2024-04-01T10:05:53Z</time>
      </trkpt>
      <trkpt lat="50.01144" lon="4.19873">
        <ele>269.8</ele>
        <time>2024-04-01T10:05:54Z</time>
      </trkpt>
      <trkpt lat="50.01142" lon="4.1988">
        <ele>269.8</ele>
        <time>2024-04-01T10:05:55Z</time>
      </trkpt>
      <trkpt lat="50.0114" lon="4.19888">
        <ele>270</ele>
        <time>2024-04-01T10:05:56Z</time>
      </trkpt>
      <trkpt lat="50.01139" lon="4.19896">
        <ele>270</ele>
        <time>2024-04-01T10:05:57Z</time>
      </trkpt>
      <trkpt lat="50.01137" lon="4.19903">
        <ele>270.2</ele>
        <time>2024-04-01T10:05:58Z</time>
      </trkpt>
      <trkpt lat="50.01135" lon="4.19911">
        <ele>270.2</ele>
        <time>2024-04-01T10:05:59Z</time>
      </trkpt>
      <trkpt lat="50.01133" lon="4.19919">
        <ele>270.4</ele>
        <time>2024-04-01T10:06:00Z</time>
      </trkpt>
      <trkpt lat="50.01132" lon="4.19927">
        <ele>270.6</ele>
        <time>2024-04-01T10:06:01Z</time>
      </trkpt>
      <trkpt lat="50.0113" lon="4.19935">
        <ele>270.6</ele>
        <time>2024-04-01T10:06:02Z</time>
      </trkpt>
      <trkpt lat="50.01128" lon="4.19944">
        <ele>270.6</ele>
        <time>2024-04-01T10:06:03Z</time>
      </trkpt>
      <trkpt lat="50.01126" lon="4.19953">
        <ele>270.4</ele>
        <time>2024-04-01T10:06:04Z</time>
      </trkpt>
      <trkpt lat="50.01125" lon="4.19961">
        <ele>270.4</ele>
        <time>2024-04-01T10:06:05Z</time>
      </trkpt>
      <trkpt lat="50.01123" lon="4.19969">
        <ele>270.4</ele>
        <time>2024-04-01T10:06:06Z</time>
      </trkpt>
      <trkpt lat="50.01121" lon="4.19978">
        <ele>270.4</ele>
        <time>2024-04-01T10:06:07Z</time>
      </trkpt>
      <trkpt lat="50.01118" lon="4.19986">
        <ele>270.4</ele>
        <time>2024-04-01T10:06:08Z</time>
      </trkpt>
      <trkpt lat="50.01116" lon="4.19995">
        <ele>270.4</ele>
        <time>2024-04-01T10:06:09Z</time>
      </trkpt>
      <trkpt lat="50.01114" lon="4.20004">
        <ele>270.2</ele>
        <time>2024-04-01T10:06:10Z</time>
      </trkpt>
      <trkpt lat="50.01112" lon="4.20013">
        <ele>270.2</ele>
        <time>2024-04-01T10:06:11Z</time>
      </trkpt>
      <trkpt lat="50.01109" lon="4.20022">
        <ele>270.2</ele>
        <time>2024-04-01T10:06:12Z</time>
      </trkpt>
      <trkpt lat="50.01107" lon="4.20031">
        <ele>270.4</ele>
        <time>2024-04-01T10:06:13Z</time>
      </trkpt>
      <trkpt lat="50.01105" lon="4.2004">
        <ele>270.4</ele>
        <time>2024-04-01T10:06:14Z</time>
      </trkpt>
      <trkpt lat="50.01103" lon="4.20049">
        <ele>270.2</ele>
        <time>2024-04-01T10:06:15Z</time>
      </trkpt>
      <trkpt lat="50.01102" lon="4.20058">
        <ele>270.2</ele>
        <time>2024-04-01T10:06:16Z</time>
      </trkpt>
      <trkpt lat="50.01099" lon="4.20067">
        <ele>270</ele>
        <time>2024-04-01T10:06:17Z</time>
      </trkpt>
      <trkpt lat="50.01097" lon="4.20076">
        <ele>270.2</ele>
        <time>2024-04-01T10:06:18Z</time>
      </trkpt>
      <trkpt lat="50.01095" lon="4.20085">
        <ele>270</ele>
        <time>2024-04-01T10:06:19Z</time>
      </trkpt>
      <trkpt lat="50.01093" lon="4.20094">
        <ele>270</ele>
        <time>2024-04-01T10:06:20Z</time>
      </trkpt>
      <trkpt lat="50.0109" lon="4.20104">
        <ele>270</ele>
        <time>2024-04-01T10:06:21Z</time>
      </trkpt>
      <trkpt lat="50.01088" lon="4.20114">
        <ele>270</ele>
        <time>2024-04-01T10:06:22Z</time>
      </trkpt>
      <trkpt lat="50.01086" lon="4.20124">
        <ele>269.8</ele>
        <time>2024-04-01T10:06:23Z</time>
      </trkpt>
      <trkpt lat="50.01083" lon="4.20134">
        <ele>269.8</ele>
        <time>2024-04-01T10:06:24Z</time>
      </trkpt>
      <trkpt lat="50.01081" lon="4.20144">
        <ele>269.6</ele>
        <time>2024-04-01T10:06:25Z</time>
      </trkpt>
      <trkpt lat="50.01078" lon="4.20155">
        <ele>269.4</ele>
        <time>2024-04-01T10:06:26Z</time>
      </trkpt>
      <trkpt lat="50.01076" lon="4.20165">
        <ele>269.4</ele>
        <time>2024-04-01T10:06:27Z</time>
      </trkpt>
      <trkpt lat="50.01073" lon="4.20176">
        <ele>269.2</ele>
        <time>2024-04-01T10:06:28Z</time>
      </trkpt>
      <trkpt lat="50.01071" lon="4.20187">
        <ele>269.2</ele>
        <time>2024-04-01T10:06:29Z</time>
      </trkpt>
      <trkpt lat="50.01069" lon="4.20198">
        <ele>268.8</ele>
        <time>2024-04-01T10:06:30Z</time>
      </trkpt>
      <trkpt lat="50.01066" lon="4.20209">
        <ele>268.6</ele>
        <time>2024-04-01T10:06:31Z</time>
      </trkpt>
      <trkpt lat="50.01064" lon="4.2022">
        <ele>268.6</ele>
        <time>2024-04-01T10:06:32Z</time>
      </trkpt>
      <trkpt lat="50.01062" lon="4.2023">
        <ele>268.6</ele>
        <time>2024-04-01T10:06:33Z</time>
      </trkpt>
      <trkpt lat="50.01059" lon="4.20241">
        <ele>268.2</ele>
        <time>2024-04-01T10:06:34Z</time>
      </trkpt>
      <trkpt lat="50.01057" lon="4.20251">
        <ele>268.4</ele>
        <time>2024-04-01T10:06:35Z</time>
      </trkpt>
      <trkpt lat="50.01054" lon="4.20263">
        <ele>268.2</ele>
        <time>2024-04-01T10:06:36Z</time>
      </trkpt>
      <trkpt lat="50.01052" lon="4.20273">
        <ele>268</ele>
        <time>2024-04-01T10:06:37Z</time>
      </trkpt>
      <trkpt lat="50.0105" lon="4.20284">
        <ele>268</ele>
        <time>2024-04-01T10:06:38Z</time>
      </trkpt>
      <trkpt lat="50.01047" lon="4.20295">
        <ele>267.6</ele>
        <time>2024-04-01T10:06:39Z</time>
      </trkpt>
      <trkpt lat="50.01045" lon="4.20306">
        <ele>267.4</ele>
        <time>2024-04-01T10:06:40Z</time>
      </trkpt>
      <trkpt lat="50.01043" lon="4.20317">
        <ele>267.2</ele>
        <time>2024-04-01T10:06:41Z</time>
      </trkpt>
      <trkpt lat="50.01041" lon="4.20328">
        <ele>266.8</ele>
        <time>2024-04-01T10:06:42Z</time>
      </trkpt>
      <trkpt lat="50.01039" lon="4.2034">
        <ele>265.6</ele>
        <time>2024-04-01T10:06:43Z</time>
      </trkpt>
      <trkpt lat="50.01037" lon="4.20351">
        <ele>264.8</ele>
        <time>2024-04-01T10:06:44Z</time>
      </trkpt>
      <trkpt lat="50.01036" lon="4.20363">
        <ele>264.6</ele>
        <time>2024-04-01T10:06:45Z</time>
      </trkpt>
      <trkpt lat="50.01035" lon="4.20375">
        <ele>264.4</ele>
        <time>2024-04-01T10:06:46Z</time>
      </trkpt>
      <trkpt lat="50.01034" lon="4.20387">
        <ele>264.2</ele>
        <time>2024-04-01T10:06:47Z</time>
      </trkpt>
      <trkpt lat="50.01033" lon="4.20399">
        <ele>263.8</ele>
        <time>2024-04-01T10:06:48Z</time>
      </trkpt>
      <trkpt lat="50.01034" lon="4.20412">
        <ele>263.6</ele>
        <time>2024-04-01T10:06:49Z</time>
      </trkpt>
      <trkpt lat="50.01034" lon="4.20425">
        <ele>263.4</ele>
        <time>2024-04-01T10:06:50Z</time>
      </trkpt>
      <trkpt lat="50.01035" lon="4.20438">
        <ele>263.4</ele>
        <time>2024-04-01T10:06:51Z</time>
      </trkpt>
      <trkpt lat="50.01037" lon="4.2045">
        <ele>263.4</ele>
        <time>2024-04-01T10:06:52Z</time>
      </trkpt>
      <trkpt lat="50.01038" lon="4.20463">
        <ele>263.4</ele>
        <time>2024-04-01T10:06:53Z</time>
      </trkpt>
      <trkpt lat="50.0104" lon="4.20475">
        <ele>263.2</ele>
        <time>2024-04-01T10:06:54Z</time>
      </trkpt>
      <trkpt lat="50.01041" lon="4.20488">
        <ele>263.2</ele>
        <time>2024-04-01T10:06:55Z</time>
      </trkpt>
      <trkpt lat="50.01043" lon="4.205">
        <ele>263.2</ele>
        <time>2024-04-01T10:06:56Z</time>
      </trkpt>
      <trkpt lat="50.01044" lon="4.20512">
        <ele>263.4</ele>
        <time>2024-04-01T10:06:57Z</time>
      </trkpt>
      <trkpt lat="50.01046" lon="4.20525">
        <ele>263.2</ele>
        <time>2024-04-01T10:06:58Z</time>
      </trkpt>
      <trkpt lat="50.01047" lon="4.20538">
        <ele>263.2</ele>
        <time>2024-04-01T10:06:59Z</time>
      </trkpt>
      <trkpt lat="50.01049" lon="4.2055">
        <ele>263</ele>
        <time>2024-04-01T10:07:00Z</time>
      </trkpt>
      <trkpt lat="50.0105" lon="4.20563">
        <ele>262.8</ele>
        <time>2024-04-01T10:07:01Z</time>
      </trkpt>
      <trkpt lat="50.01052" lon="4.20575">
        <ele>262.6</ele>
        <time>2024-04-01T10:07:02Z</time>
      </trkpt>
      <trkpt lat="50.01053" lon="4.20588">
        <ele>262.6</ele>
        <time>2024-04-01T10:07:03Z</time>
      </trkpt>
      <trkpt lat="50.01055" lon="4.20601">
        <ele>262.4</ele>
        <time>2024-04-01T10:07:04Z</time>
      </trkpt>
      <trkpt lat="50.01056" lon="4.20614">
        <ele>262.4</ele>
        <time>2024-04-01T10:07:05Z</time>
      </trkpt>
      <trkpt lat="50.01058" lon="4.20627">
        <ele>262.2</ele>
        <time>2024-04-01T10:07:06Z</time>
      </trkpt>
      <trkpt lat="50.0106" lon="4.2064">
        <ele>262.2</ele>
        <time>2024-04-01T10:07:07Z</time>
      </trkpt>
      <trkpt lat="50.01061" lon="4.20653">
        <ele>262.2</ele>
        <time>2024-04-01T10:07:08Z</time>
      </trkpt>
      <trkpt lat="50.01063" lon="4.20666">
        <ele>262.2</ele>
        <time>2024-04-01T10:07:09Z</time>
      </trkpt>
      <trkpt lat="50.01064" lon="4.20679">
        <ele>261.8</ele>
        <time>2024-04-01T10:07:10Z</time>
      </trkpt>
      <trkpt lat="50.01066" lon="4.20692">
        <ele>261.8</ele>
        <time>2024-04-01T10:07:11Z</time>
      </trkpt>
      <trkpt lat="50.01067" lon="4.20705">
        <ele>261.8</ele>
        <time>2024-04-01T10:07:12Z</time>
      </trkpt>
      <trkpt lat="50.01068" lon="4.20717">
        <ele>261.6</ele>
        <time>2024-04-01T10:07:13Z</time>
      </trkpt>
      <trkpt lat="50.0107" lon="4.2073">
        <ele>261.6</ele>
        <time>2024-04-01T10:07:14Z</time>
      </trkpt>
      <trkpt lat="50.01071" lon="4.20742">
        <ele>261.6</ele>
        <time>2024-04-01T10:07:15Z</time>
      </trkpt>
      <trkpt lat="50.01073" lon="4.20754">
        <ele>261.6</ele>
        <time>2024-04-01T10:07:16Z</time>
      </trkpt>
      <trkpt lat="50.01074" lon="4.20766">
        <ele>261.6</ele>
        <time>2024-04-01T10:07:17Z</time>
      </trkpt>
      <trkpt lat="50.01075" lon="4.20778">
        <ele>261.6</ele>
        <time>2024-04-01T10:07:18Z</time>
      </trkpt>
      <trkpt lat="50.01077" lon="4.2079">
        <ele>261.6</ele>
        <time>2024-04-01T10:07:19Z</time>
      </trkpt>
      <trkpt lat="50.01078" lon="4.20802">
        <ele>261.6</ele>
        <time>2024-04-01T10:07:20Z</time>
      </trkpt>
      <trkpt lat="50.0108" lon="4.20813">
        <ele>261.8</ele>
        <time>2024-04-01T10:07:21Z</time>
      </trkpt>
      <trkpt lat="50.01081" lon="4.20825">
        <ele>261.8</ele>
        <time>2024-04-01T10:07:22Z</time>
      </trkpt>
      <trkpt lat="50.01082" lon="4.20836">
        <ele>261.6</ele>
        <time>2024-04-01T10:07:23Z</time>
      </trkpt>
      <trkpt lat="50.01084" lon="4.20847">
        <ele>261.6</ele>
        <time>2024-04-01T10:07:24Z</time>
      </trkpt>
      <trkpt lat="50.01085" lon="4.20858">
        <ele>262</ele>
        <time>2024-04-01T10:07:25Z</time>
      </trkpt>
      <trkpt lat="50.01086" lon="4.20869">
        <ele>262</ele>
        <time>2024-04-01T10:07:26Z</time>
      </trkpt>
      <trkpt lat="50.01088" lon="4.2088">
        <ele>262.2</ele>
        <time>2024-04-01T10:07:27Z</time>
      </trkpt>
      <trkpt lat="50.01089" lon="4.20891">
        <ele>262.2</ele>
        <time>2024-04-01T10:07:28Z</time>
      </trkpt>
      <trkpt lat="50.0109" lon="4.20902">
        <ele>262.4</ele>
        <time>2024-04-01T10:07:29Z</time>
      </trkpt>
      <trkpt lat="50.01092" lon="4.20913">
        <ele>262.2</ele>
        <time>2024-04-01T10:07:30Z</time>
      </trkpt>
      <trkpt lat="50.01093" lon="4.20924">
        <ele>262.4</ele>
        <time>2024-04-01T10:07:31Z</time>
      </trkpt>
      <trkpt lat="50.01094" lon="4.20935">
        <ele>262.4</ele>
        <time>2024-04-01T10:07:32Z</time>
      </trkpt>
      <trkpt lat="50.01096" lon="4.20946">
        <ele>262.4</ele>
        <time>2024-04-01T10:07:33Z</time>
      </trkpt>
      <trkpt lat="50.01097" lon="4.20956">
        <ele>262.4</ele>
        <time>2024-04-01T10:07:34Z</time>
      </trkpt>
      <trkpt lat="50.01098" lon="4.20967">
        <ele>262.4</ele>
        <time>2024-04-01T10:07:35Z</time>
      </trkpt>
      <trkpt lat="50.01099" lon="4.20978">
        <ele>262.4</ele>
        <time>2024-04-01T10:07:36Z</time>
      </trkpt>
      <trkpt lat="50.011" lon="4.20989">
        <ele>262.6</ele>
        <time>2024-04-01T10:07:37Z</time>
      </trkpt>
      <trkpt lat="50.01101" lon="4.21">
        <ele>262.6</ele>
        <time>2024-04-01T10:07:38Z</time>
      </trkpt>
      <trkpt lat="50.01101" lon="4.2101">
        <ele>262.4</ele>
        <time>2024-04-01T10:07:39Z</time>
      </trkpt>
      <trkpt lat="50.01102" lon="4.21021">
        <ele>262.6</ele>
        <time>2024-04-01T10:07:40Z</time>
      </trkpt>
      <trkpt lat="50.01102" lon="4.21032">
        <ele>262.6</ele>
        <time>2024-04-01T10:07:41Z</time>
      </trkpt>
      <trkpt lat="50.01102" lon="4.21043">
        <ele>262.6</ele>
        <time>2024-04-01T10:07:42Z</time>
      </trkpt>
      <trkpt lat="50.01102" lon="4.21053">
        <ele>262.6</ele>
        <time>2024-04-01T10:07:43Z</time>
      </trkpt>
      <trkpt lat="50.01101" lon="4.21064">
        <ele>262.6</ele>
        <time>2024-04-01T10:07:44Z</time>
      </trkpt>
      <trkpt lat="50.011" lon="4.21075">
        <ele>262.6</ele>
        <time>2024-04-01T10:07:45Z</time>
      </trkpt>
      <trkpt lat="50.01099" lon="4.21085">
        <ele>262.6</ele>
        <time>2024-04-01T10:07:46Z</time>
      </trkpt>
      <trkpt lat="50.01098" lon="4.21096">
        <ele>262.6</ele>
        <time>2024-04-01T10:07:47Z</time>
      </trkpt>
      <trkpt lat="50.01096" lon="4.21106">
        <ele>262.6</ele>
        <time>2024-04-01T10:07:48Z</time>
      </trkpt>
      <trkpt lat="50.01094" lon="4.21117">
        <ele>262.8</ele>
        <time>2024-04-01T10:07:49Z</time>
      </trkpt>
      <trkpt lat="50.01093" lon="4.21128">
        <ele>262.8</ele>
        <time>2024-04-01T10:07:50Z</time>
      </trkpt>
      <trkpt lat="50.01091" lon="4.21138">
        <ele>262.8</ele>
        <time>2024-04-01T10:07:51Z</time>
      </trkpt>
      <trkpt lat="50.01089" lon="4.21149">
        <ele>262.6</ele>
        <time>2024-04-01T10:07:52Z</time>
      </trkpt>
      <trkpt lat="50.01087" lon="4.2116">
        <ele>263</ele>
        <time>2024-04-01T10:07:53Z</time>
      </trkpt>
      <trkpt lat="50.01084" lon="4.21171">
        <ele>263</ele>
        <time>2024-04-01T10:07:54Z</time>
      </trkpt>
      <trkpt lat="50.01082" lon="4.21182">
        <ele>263</ele>
        <time>2024-04-01T10:07:55Z</time>
      </trkpt>
      <trkpt lat="50.0108" lon="4.21193">
        <ele>263</ele>
        <time>2024-04-01T10:07:56Z</time>
      </trkpt>
      <trkpt lat="50.01078" lon="4.21204">
        <ele>263</ele>
        <time>2024-04-01T10:07:57Z</time>
      </trkpt>
      <trkpt lat="50.01075" lon="4.21215">
        <ele>263</ele>
        <time>2024-04-01T10:07:58Z</time>
      </trkpt>
      <trkpt lat="50.01073" lon="4.21226">
        <ele>263</ele>
        <time>2024-04-01T10:07:59Z</time>
      </trkpt>
      <trkpt lat="50.0107" lon="4.21238">
        <ele>263</ele>
        <time>2024-04-01T10:08:00Z</time>
      </trkpt>
      <trkpt lat="50.01068" lon="4.21249">
        <ele>263.2</ele>
        <time>2024-04-01T10:08:01Z</time>
      </trkpt>
      <trkpt lat="50.01065" lon="4.21261">
        <ele>263.4</ele>
        <time>2024-04-01T10:08:02Z</time>
      </trkpt>
      <trkpt lat="50.01063" lon="4.21273">
        <ele>263.4</ele>
        <time>2024-04-01T10:08:03Z</time>
      </trkpt>
      <trkpt lat="50.0106" lon="4.21285">
        <ele>263.4</ele>
        <time>2024-04-01T10:08:04Z</time>
      </trkpt>
      <trkpt lat="50.01057" lon="4.21297">
        <ele>263.4</ele>
        <time>2024-04-01T10:08:05Z</time>
      </trkpt>
      <trkpt lat="50.01055" lon="4.21309">
        <ele>263.2</ele>
        <time>2024-04-01T10:08:06Z</time>
      </trkpt>
      <trkpt lat="50.01052" lon="4.21322">
        <ele>262.8</ele>
        <time>2024-04-01T10:08:07Z</time>
      </trkpt>
      <trkpt lat="50.0105" lon="4.21334">
        <ele>262.8</ele>
        <time>2024-04-01T10:08:08Z</time>
      </trkpt>
      <trkpt lat="50.01048" lon="4.21347">
        <ele>262.6</ele>
        <time>2024-04-01T10:08:09Z</time>
      </trkpt>
      <trkpt lat="50.01046" lon="4.2136">
        <ele>262.4</ele>
        <time>2024-04-01T10:08:10Z</time>
      </trkpt>
      <trkpt lat="50.01044" lon="4.21373">
        <ele>262.6</ele>
        <time>2024-04-01T10:08:11Z</time>
      </trkpt>
      <trkpt lat="50.01042" lon="4.21386">
        <ele>262.6</ele>
        <time>2024-04-01T10:08:12Z</time>
      </trkpt>
      <trkpt lat="50.0104" lon="4.21399">
        <ele>262.4</ele>
        <time>2024-04-01T10:08:13Z</time>
      </trkpt>
      <trkpt lat="50.01039" lon="4.21412">
        <ele>262.2</ele>
        <time>2024-04-01T10:08:14Z</time>
      </trkpt>
      <trkpt lat="50.01038" lon="4.21425">
        <ele>262.2</ele>
        <time>2024-04-01T10:08:15Z</time>
      </trkpt>
      <trkpt lat="50.01037" lon="4.21439">
        <ele>261.8</ele>
        <time>2024-04-01T10:08:16Z</time>
      </trkpt>
      <trkpt lat="50.01036" lon="4.21452">
        <ele>261.8</ele>
        <time>2024-04-01T10:08:17Z</time>
      </trkpt>
      <trkpt lat="50.01035" lon="4.21465">
        <ele>261.4</ele>
        <time>2024-04-01T10:08:18Z</time>
      </trkpt>
      <trkpt lat="50.01034" lon="4.21478">
        <ele>261.4</ele>
        <time>2024-04-01T10:08:19Z</time>
      </trkpt>
      <trkpt lat="50.01034" lon="4.2149">
        <ele>261</ele>
        <time>2024-04-01T10:08:20Z</time>
      </trkpt>
      <trkpt lat="50.01033" lon="4.21503">
        <ele>261.2</ele>
        <time>2024-04-01T10:08:21Z</time>
      </trkpt>
      <trkpt lat="50.01032" lon="4.21515">
        <ele>261</ele>
        <time>2024-04-01T10:08:22Z</time>
      </trkpt>
      <trkpt lat="50.01032" lon="4.21528">
        <ele>260.8</ele>
        <time>2024-04-01T10:08:23Z</time>
      </trkpt>
      <trkpt lat="50.01031" lon="4.2154">
        <ele>260.8</ele>
        <time>2024-04-01T10:08:24Z</time>
      </trkpt>
      <trkpt lat="50.01031" lon="4.21551">
        <ele>260.6</ele>
        <time>2024-04-01T10:08:25Z</time>
      </trkpt>
      <trkpt lat="50.0103" lon="4.21563">
        <ele>260.6</ele>
        <time>2024-04-01T10:08:26Z</time>
      </trkpt>
      <trkpt lat="50.01029" lon="4.21574">
        <ele>260.6</ele>
        <time>2024-04-01T10:08:27Z</time>
      </trkpt>
      <trkpt lat="50.01029" lon="4.21585">
        <ele>260.4</ele>
        <time>2024-04-01T10:08:28Z</time>
      </trkpt>
      <trkpt lat="50.01028" lon="4.21596">
        <ele>260.6</ele>
        <time>2024-04-01T10:08:29Z</time>
      </trkpt>
      <trkpt lat="50.01027" lon="4.21606">
        <ele>260.6</ele>
        <time>2024-04-01T10:08:30Z</time>
      </trkpt>
      <trkpt lat="50.01027" lon="4.21617">
        <ele>260.6</ele>
        <time>2024-04-01T10:08:31Z</time>
      </trkpt>
      <trkpt lat="50.01027" lon="4.21628">
        <ele>260.6</ele>
        <time>2024-04-01T10:08:32Z</time>
      </trkpt>
      <trkpt lat="50.01025" lon="4.21639">
        <ele>260.6</ele>
        <time>2024-04-01T10:08:33Z</time>
      </trkpt>
      <trkpt lat="50.01024" lon="4.2165">
        <ele>260.6</ele>
        <time>2024-04-01T10:08:34Z</time>
      </trkpt>
      <trkpt lat="50.01024" lon="4.2166">
        <ele>260.6</ele>
        <time>2024-04-01T10:08:35Z</time>
      </trkpt>
      <trkpt lat="50.01024" lon="4.2167">
        <ele>260.6</ele>
        <time>2024-04-01T10:08:36Z</time>
      </trkpt>
      <trkpt lat="50.01023" lon="4.2168">
        <ele>260.6</ele>
        <time>2024-04-01T10:08:37Z</time>
      </trkpt>
      <trkpt lat="50.01023" lon="4.2169">
        <ele>260.6</ele>
        <time>2024-04-01T10:08:38Z</time>
      </trkpt>
      <trkpt lat="50.01022" lon="4.217">
        <ele>260.8</ele>
        <time>2024-04-01T10:08:39Z</time>
      </trkpt>
      <trkpt lat="50.01022" lon="4.2171">
        <ele>260.6</ele>
        <time>2024-04-01T10:08:40Z</time>
      </trkpt>
      <trkpt lat="50.01022" lon="4.21719">
        <ele>260.8</ele>
        <time>2024-04-01T10:08:41Z</time>
      </trkpt>
      <trkpt lat="50.01022" lon="4.21729">
        <ele>261</ele>
        <time>2024-04-01T10:08:42Z</time>
      </trkpt>
      <trkpt lat="50.01022" lon="4.21738">
        <ele>261</ele>
        <time>2024-04-01T10:08:43Z</time>
      </trkpt>
      <trkpt lat="50.01022" lon="4.21748">
        <ele>261.2</ele>
        <time>2024-04-01T10:08:44Z</time>
      </trkpt>
      <trkpt lat="50.01022" lon="4.21758">
        <ele>261.2</ele>
        <time>2024-04-01T10:08:45Z</time>
      </trkpt>
      <trkpt lat="50.01021" lon="4.21768">
        <ele>261.4</ele>
        <time>2024-04-01T10:08:46Z</time>
      </trkpt>
      <trkpt lat="50.01021" lon="4.21777">
        <ele>261.6</ele>
        <time>2024-04-01T10:08:47Z</time>
      </trkpt>
      <trkpt lat="50.0102" lon="4.21787">
        <ele>261.6</ele>
        <time>2024-04-01T10:08:48Z</time>
      </trkpt>
      <trkpt lat="50.0102" lon="4.21796">
        <ele>261.6</ele>
        <time>2024-04-01T10:08:49Z</time>
      </trkpt>
      <trkpt lat="50.0102" lon="4.21805">
        <ele>261.8</ele>
        <time>2024-04-01T10:08:50Z</time>
      </trkpt>
      <trkpt lat="50.01019" lon="4.21814">
        <ele>262.2</ele>
        <time>2024-04-01T10:08:51Z</time>
      </trkpt>
      <trkpt lat="50.01019" lon="4.21824">
        <ele>262</ele>
        <time>2024-04-01T10:08:52Z</time>
      </trkpt>
      <trkpt lat="50.01019" lon="4.21833">
        <ele>262.4</ele>
        <time>2024-04-01T10:08:53Z</time>
      </trkpt>
      <trkpt lat="50.01019" lon="4.21843">
        <ele>262.6</ele>
        <time>2024-04-01T10:08:54Z</time>
      </trkpt>
      <trkpt lat="50.01018" lon="4.21851">
        <ele>263</ele>
        <time>2024-04-01T10:08:55Z</time>
      </trkpt>
      <trkpt lat="50.01018" lon="4.2186">
        <ele>263</ele>
        <time>2024-04-01T10:08:56Z</time>
      </trkpt>
      <trkpt lat="50.01017" lon="4.21869">
        <ele>263</ele>
        <time>2024-04-01T10:08:57Z</time>
      </trkpt>
      <trkpt lat="50.01017" lon="4.21877">
        <ele>263.2</ele>
        <time>2024-04-01T10:08:58Z</time>
      </trkpt>
      <trkpt lat="50.01017" lon="4.21886">
        <ele>263.2</ele>
        <time>2024-04-01T10:08:59Z</time>
      </trkpt>
      <trkpt lat="50.01016" lon="4.21895">
        <ele>263.2</ele>
        <time>2024-04-01T10:09:00Z</time>
      </trkpt>
      <trkpt lat="50.01016" lon="4.21904">
        <ele>263.2</ele>
        <time>2024-04-01T10:09:01Z</time>
      </trkpt>
      <trkpt lat="50.01016" lon="4.21912">
        <ele>263.4</ele>
        <time>2024-04-01T10:09:02Z</time>
      </trkpt>
      <trkpt lat="50.01015" lon="4.21922">
        <ele>263.4</ele>
        <time>2024-04-01T10:09:03Z</time>
      </trkpt>
      <trkpt lat="50.01015" lon="4.21931">
        <ele>263.6</ele>
        <time>2024-04-01T10:09:04Z</time>
      </trkpt>
      <trkpt lat="50.01015" lon="4.21941">
        <ele>263.6</ele>
        <time>2024-04-01T10:09:05Z</time>
      </trkpt>
      <trkpt lat="50.01015" lon="4.2195">
        <ele>263.6</ele>
        <time>2024-04-01T10:09:06Z</time>
      </trkpt>
      <trkpt lat="50.01014" lon="4.21959">
        <ele>264</ele>
        <time>2024-04-01T10:09:07Z</time>
      </trkpt>
      <trkpt lat="50.01014" lon="4.21969">
        <ele>264.2</ele>
        <time>2024-04-01T10:09:08Z</time>
      </trkpt>
      <trkpt lat="50.01014" lon="4.21978">
        <ele>264.4</ele>
        <time>2024-04-01T10:09:09Z</time>
      </trkpt>
      <trkpt lat="50.01014" lon="4.21988">
        <ele>264.6</ele>
        <time>2024-04-01T10:09:10Z</time>
      </trkpt>
      <trkpt lat="50.01014" lon="4.21998">
        <ele>265</ele>
        <time>2024-04-01T10:09:11Z</time>
      </trkpt>
      <trkpt lat="50.01014" lon="4.22007">
        <ele>265.2</ele>
        <time>2024-04-01T10:09:12Z</time>
      </trkpt>
      <trkpt lat="50.01014" lon="4.22015">
        <ele>265.6</ele>
        <time>2024-04-01T10:09:13Z</time>
      </trkpt>
      <trkpt lat="50.01014" lon="4.22024">
        <ele>266.2</ele>
        <time>2024-04-01T10:09:14Z</time>
      </trkpt>
      <trkpt lat="50.01014" lon="4.22033">
        <ele>266.6</ele>
        <time>2024-04-01T10:09:15Z</time>
      </trkpt>
      <trkpt lat="50.01014" lon="4.22043">
        <ele>266.8</ele>
        <time>2024-04-01T10:09:16Z</time>
      </trkpt>
      <trkpt lat="50.01013" lon="4.22052">
        <ele>267.2</ele>
        <time>2024-04-01T10:09:17Z</time>
      </trkpt>
      <trkpt lat="50.01013" lon="4.22062">
        <ele>267.2</ele>
        <time>2024-04-01T10:09:18Z</time>
      </trkpt>
      <trkpt lat="50.01013" lon="4.22072">
        <ele>267.4</ele>
        <time>2024-04-01T10:09:19Z</time>
      </trkpt>
      <trkpt lat="50.01013" lon="4.22082">
        <ele>267.6</ele>
        <time>2024-04-01T10:09:20Z</time>
      </trkpt>
      <trkpt lat="50.01012" lon="4.22091">
        <ele>267.6</ele>
        <time>2024-04-01T10:09:21Z</time>
      </trkpt>
      <trkpt lat="50.01012" lon="4.221">
        <ele>267.6</ele>
        <time>2024-04-01T10:09:22Z</time>
      </trkpt>
      <trkpt lat="50.01012" lon="4.2211">
        <ele>267.8</ele>
        <time>2024-04-01T10:09:23Z</time>
      </trkpt>
      <trkpt lat="50.01012" lon="4.2212">
        <ele>268</ele>
        <time>2024-04-01T10:09:24Z</time>
      </trkpt>
      <trkpt lat="50.01011" lon="4.22129">
        <ele>268</ele>
        <time>2024-04-01T10:09:25Z</time>
      </trkpt>
      <trkpt lat="50.01011" lon="4.22139">
        <ele>268</ele>
        <time>2024-04-01T10:09:26Z</time>
      </trkpt>
      <trkpt lat="50.01011" lon="4.22148">
        <ele>268</ele>
        <time>2024-04-01T10:09:27Z</time>
      </trkpt>
      <trkpt lat="50.0101" lon="4.22158">
        <ele>268</ele>
        <time>2024-04-01T10:09:28Z</time>
      </trkpt>
      <trkpt lat="50.0101" lon="4.22168">
        <ele>268</ele>
        <time>2024-04-01T10:09:29Z</time>
      </trkpt>
      <trkpt lat="50.0101" lon="4.22177">
        <ele>268</ele>
        <time>2024-04-01T10:09:30Z</time>
      </trkpt>
      <trkpt lat="50.01009" lon="4.22187">
        <ele>268.2</ele>
        <time>2024-04-01T10:09:31Z</time>
      </trkpt>
      <trkpt lat="50.01009" lon="4.22197">
        <ele>268</ele>
        <time>2024-04-01T10:09:32Z</time>
      </trkpt>
      <trkpt lat="50.01009" lon="4.22206">
        <ele>268.2</ele>
        <time>2024-04-01T10:09:33Z</time>
      </trkpt>
      <trkpt lat="50.01009" lon="4.22216">
        <ele>268.2</ele>
        <time>2024-04-01T10:09:34Z</time>
      </trkpt>
      <trkpt lat="50.01008" lon="4.22226">
        <ele>268.4</ele>
        <time>2024-04-01T10:09:35Z</time>
      </trkpt>
      <trkpt lat="50.01008" lon="4.22236">
        <ele>268.4</ele>
        <time>2024-04-01T10:09:36Z</time>
      </trkpt>
      <trkpt lat="50.01008" lon="4.22245">
        <ele>268.6</ele>
        <time>2024-04-01T10:09:37Z</time>
      </trkpt>
      <trkpt lat="50.01008" lon="4.22255">
        <ele>268.8</ele>
        <time>2024-04-01T10:09:38Z</time>
      </trkpt>
      <trkpt lat="50.01007" lon="4.22265">
        <ele>268.8</ele>
        <time>2024-04-01T10:09:39Z</time>
      </trkpt>
      <trkpt lat="50.01007" lon="4.22274">
        <ele>268.8</ele>
        <time>2024-04-01T10:09:40Z</time>
      </trkpt>
      <trkpt lat="50.01006" lon="4.22284">
        <ele>269.4</ele>
        <time>2024-04-01T10:09:41Z</time>
      </trkpt>
      <trkpt lat="50.01006" lon="4.22293">
        <ele>269.4</ele>
        <time>2024-04-01T10:09:42Z</time>
      </trkpt>
      <trkpt lat="50.01006" lon="4.22303">
        <ele>269.6</ele>
        <time>2024-04-01T10:09:43Z</time>
      </trkpt>
      <trkpt lat="50.01005" lon="4.22313">
        <ele>269.8</ele>
        <time>2024-04-01T10:09:44Z</time>
      </trkpt>
      <trkpt lat="50.01005" lon="4.22322">
        <ele>269.8</ele>
        <time>2024-04-01T10:09:45Z</time>
      </trkpt>
      <trkpt lat="50.01005" lon="4.22332">
        <ele>269.8</ele>
        <time>2024-04-01T10:09:46Z</time>
      </trkpt>
      <trkpt lat="50.01004" lon="4.22342">
        <ele>269.8</ele>
        <time>2024-04-01T10:09:47Z</time>
      </trkpt>
      <trkpt lat="50.01004" lon="4.22351">
        <ele>270</ele>
        <time>2024-04-01T10:09:48Z</time>
      </trkpt>
      <trkpt lat="50.01004" lon="4.2236">
        <ele>270.2</ele>
        <time>2024-04-01T10:09:49Z</time>
      </trkpt>
      <trkpt lat="50.01003" lon="4.2237">
        <ele>270.4</ele>
        <time>2024-04-01T10:09:50Z</time>
      </trkpt>
      <trkpt lat="50.01003" lon="4.22379">
        <ele>270.6</ele>
        <time>2024-04-01T10:09:51Z</time>
      </trkpt>
      <trkpt lat="50.01003" lon="4.22388">
        <ele>270.6</ele>
        <time>2024-04-01T10:09:52Z</time>
      </trkpt>
      <trkpt lat="50.01002" lon="4.22397">
        <ele>270.6</ele>
        <time>2024-04-01T10:09:53Z</time>
      </trkpt>
      <trkpt lat="50.01002" lon="4.22406">
        <ele>270.6</ele>
        <time>2024-04-01T10:09:54Z</time>
      </trkpt>
      <trkpt lat="50.01002" lon="4.22415">
        <ele>270.6</ele>
        <time>2024-04-01T10:09:55Z</time>
      </trkpt>
      <trkpt lat="50.01002" lon="4.22424">
        <ele>270.8</ele>
        <time>2024-04-01T10:09:56Z</time>
      </trkpt>
      <trkpt lat="50.01001" lon="4.22433">
        <ele>270.6</ele>
        <time>2024-04-01T10:09:57Z</time>
      </trkpt>
      <trkpt lat="50.01001" lon="4.22443">
        <ele>270.8</ele>
        <time>2024-04-01T10:09:58Z</time>
      </trkpt>
      <trkpt lat="50.01001" lon="4.22452">
        <ele>270.8</ele>
        <time>2024-04-01T10:09:59Z</time>
      </trkpt>
      <trkpt lat="50.01" lon="4.22462">
        <ele>271</ele>
        <time>2024-04-01T10:10:00Z</time>
      </trkpt>
      <trkpt lat="50.00999" lon="4.22472">
        <ele>271</ele>
        <time>2024-04-01T10:10:01Z</time>
      </trkpt>
      <trkpt lat="50.00999" lon="4.22482">
        <ele>271</ele>
        <time>2024-04-01T10:10:02Z</time>
      </trkpt>
      <trkpt lat="50.00999" lon="4.22491">
        <ele>271</ele>
        <time>2024-04-01T10:10:03Z</time>
      </trkpt>
      <trkpt lat="50.00998" lon="4.225">
        <ele>271.2</ele>
        <time>2024-04-01T10:10:04Z</time>
      </trkpt>
      <trkpt lat="50.00998" lon="4.22509">
        <ele>271.2</ele>
        <time>2024-04-01T10:10:05Z</time>
      </trkpt>
      <trkpt lat="50.00998" lon="4.22518">
        <ele>271.6</ele>
        <time>2024-04-01T10:10:06Z</time>
      </trkpt>
      <trkpt lat="50.00998" lon="4.22527">
        <ele>271.4</ele>
        <time>2024-04-01T10:10:07Z</time>
      </trkpt>
      <trkpt lat="50.00998" lon="4.22536">
        <ele>271.8</ele>
        <time>2024-04-01T10:10:08Z</time>
      </trkpt>
      <trkpt lat="50.00999" lon="4.22544">
        <ele>272</ele>
        <time>2024-04-01T10:10:09Z</time>
      </trkpt>
      <trkpt lat="50.00998" lon="4.22554">
        <ele>271.8</ele>
        <time>2024-04-01T10:10:10Z</time>
      </trkpt>
      <trkpt lat="50.00998" lon="4.22563">
        <ele>271.8</ele>
        <time>2024-04-01T10:10:11Z</time>
      </trkpt>
      <trkpt lat="50.00997" lon="4.22573">
        <ele>272</ele>
        <time>2024-04-01T10:10:12Z</time>
      </trkpt>
      <trkpt lat="50.00997" lon="4.22582">
        <ele>272.2</ele>
        <time>2024-04-01T10:10:13Z</time>
      </trkpt>
      <trkpt lat="50.00997" lon="4.22591">
        <ele>272.4</ele>
        <time>2024-04-01T10:10:14Z</time>
      </trkpt>
      <trkpt lat="50.00996" lon="4.22601">
        <ele>272.6</ele>
        <time>2024-04-01T10:10:15Z</time>
      </trkpt>
      <trkpt lat="50.00996" lon="4.2261">
        <ele>272.6</ele>
        <time>2024-04-01T10:10:16Z</time>
      </trkpt>
      <trkpt lat="50.00995" lon="4.2262">
        <ele>272.6</ele>
        <time>2024-04-01T10:10:17Z</time>
      </trkpt>
      <trkpt lat="50.00995" lon="4.22629">
        <ele>272.6</ele>
        <time>2024-04-01T10:10:18Z</time>
      </trkpt>
      <trkpt lat="50.00994" lon="4.22638">
        <ele>273</ele>
        <time>2024-04-01T10:10:19Z</time>
      </trkpt>
      <trkpt lat="50.00994" lon="4.22648">
        <ele>273.2</ele>
        <time>2024-04-01T10:10:20Z</time>
      </trkpt>
      <trkpt lat="50.00994" lon="4.22657">
        <ele>273.4</ele>
        <time>2024-04-01T10:10:21Z</time>
      </trkpt>
      <trkpt lat="50.00993" lon="4.22667">
        <ele>273.8</ele>
        <time>2024-04-01T10:10:22Z</time>
      </trkpt>
      <trkpt lat="50.00993" lon="4.22676">
        <ele>274</ele>
        <time>2024-04-01T10:10:23Z</time>
      </trkpt>
      <trkpt lat="50.00993" lon="4.22686">
        <ele>274</ele>
        <time>2024-04-01T10:10:24Z</time>
      </trkpt>
      <trkpt lat="50.00992" lon="4.22695">
        <ele>274.2</ele>
        <time>2024-04-01T10:10:25Z</time>
      </trkpt>
      <trkpt lat="50.00992" lon="4.22704">
        <ele>274.2</ele>
        <time>2024-04-01T10:10:26Z</time>
      </trkpt>
      <trkpt lat="50.00992" lon="4.22713">
        <ele>274.4</ele>
        <time>2024-04-01T10:10:27Z</time>
      </trkpt>
      <trkpt lat="50.00992" lon="4.22723">
        <ele>274.4</ele>
        <time>2024-04-01T10:10:28Z</time>
      </trkpt>
      <trkpt lat="50.00991" lon="4.22732">
        <ele>274.2</ele>
        <time>2024-04-01T10:10:29Z</time>
      </trkpt>
      <trkpt lat="50.00991" lon="4.22742">
        <ele>274.4</ele>
        <time>2024-04-01T10:10:30Z</time>
      </trkpt>
      <trkpt lat="50.00991" lon="4.22751">
        <ele>274.4</ele>
        <time>2024-04-01T10:10:31Z</time>
      </trkpt>
      <trkpt lat="50.00991" lon="4.22761">
        <ele>274.4</ele>
        <time>2024-04-01T10:10:32Z</time>
      </trkpt>
      <trkpt lat="50.0099" lon="4.22771">
        <ele>274.4</ele>
        <time>2024-04-01T10:10:33Z</time>
      </trkpt>
      <trkpt lat="50.0099" lon="4.22781">
        <ele>274.4</ele>
        <time>2024-04-01T10:10:34Z</time>
      </trkpt>
      <trkpt lat="50.00989" lon="4.2279">
        <ele>274.2</ele>
        <time>2024-04-01T10:10:35Z</time>
      </trkpt>
      <trkpt lat="50.00989" lon="4.228">
        <ele>274.4</ele>
        <time>2024-04-01T10:10:36Z</time>
      </trkpt>
      <trkpt lat="50.00989" lon="4.2281">
        <ele>274.2</ele>
        <time>2024-04-01T10:10:37Z</time>
      </trkpt>
      <trkpt lat="50.00988" lon="4.2282">
        <ele>274.4</ele>
        <time>2024-04-01T10:10:38Z</time>
      </trkpt>
      <trkpt lat="50.00988" lon="4.22831">
        <ele>274.2</ele>
        <time>2024-04-01T10:10:39Z</time>
      </trkpt>
      <trkpt lat="50.00988" lon="4.22841">
        <ele>274</ele>
        <time>2024-04-01T10:10:40Z</time>
      </trkpt>
      <trkpt lat="50.00987" lon="4.22852">
        <ele>273.8</ele>
        <time>2024-04-01T10:10:41Z</time>
      </trkpt>
      <trkpt lat="50.00987" lon="4.22862">
        <ele>273.6</ele>
        <time>2024-04-01T10:10:42Z</time>
      </trkpt>
      <trkpt lat="50.00987" lon="4.22873">
        <ele>273.6</ele>
        <time>2024-04-01T10:10:43Z</time>
      </trkpt>
      <trkpt lat="50.00986" lon="4.22884">
        <ele>273.6</ele>
        <time>2024-04-01T10:10:44Z</time>
      </trkpt>
      <trkpt lat="50.00986" lon="4.22895">
        <ele>273.4</ele>
        <time>2024-04-01T10:10:45Z</time>
      </trkpt>
      <trkpt lat="50.00985" lon="4.22906">
        <ele>273.6</ele>
        <time>2024-04-01T10:10:46Z</time>
      </trkpt>
      <trkpt lat="50.00985" lon="4.22917">
        <ele>273.6</ele>
        <time>2024-04-01T10:10:47Z</time>
      </trkpt>
      <trkpt lat="50.00985" lon="4.22928">
        <ele>273.2</ele>
        <time>2024-04-01T10:10:48Z</time>
      </trkpt>
      <trkpt lat="50.00984" lon="4.22939">
        <ele>273.2</ele>
        <time>2024-04-01T10:10:49Z</time>
      </trkpt>
      <trkpt lat="50.00984" lon="4.2295">
        <ele>273</ele>
        <time>2024-04-01T10:10:50Z</time>
      </trkpt>
      <trkpt lat="50.00983" lon="4.22961">
        <ele>272.8</ele>
        <time>2024-04-01T10:10:51Z</time>
      </trkpt>
      <trkpt lat="50.00983" lon="4.22972">
        <ele>272.8</ele>
        <time>2024-04-01T10:10:52Z</time>
      </trkpt>
      <trkpt lat="50.00983" lon="4.22984">
        <ele>272.6</ele>
        <time>2024-04-01T10:10:53Z</time>
      </trkpt>
      <trkpt lat="50.00982" lon="4.22995">
        <ele>272.8</ele>
        <time>2024-04-01T10:10:54Z</time>
      </trkpt>
      <trkpt lat="50.00982" lon="4.23006">
        <ele>272.6</ele>
        <time>2024-04-01T10:10:55Z</time>
      </trkpt>
      <trkpt lat="50.00981" lon="4.23018">
        <ele>272.6</ele>
        <time>2024-04-01T10:10:56Z</time>
      </trkpt>
      <trkpt lat="50.00981" lon="4.23029">
        <ele>272.6</ele>
        <time>2024-04-01T10:10:57Z</time>
      </trkpt>
      <trkpt lat="50.0098" lon="4.23041">
        <ele>272.6</ele>
        <time>2024-04-01T10:10:58Z</time>
      </trkpt>
      <trkpt lat="50.0098" lon="4.23053">
        <ele>272.6</ele>
        <time>2024-04-01T10:10:59Z</time>
      </trkpt>
      <trkpt lat="50.00979" lon="4.23065">
        <ele>272.8</ele>
        <time>2024-04-01T10:11:00Z</time>
      </trkpt>
      <trkpt lat="50.00979" lon="4.23078">
        <ele>272.6</ele>
        <time>2024-04-01T10:11:01Z</time>
      </trkpt>
      <trkpt lat="50.00978" lon="4.2309">
        <ele>272.6</ele>
        <time>2024-04-01T10:11:02Z</time>
      </trkpt>
      <trkpt lat="50.00978" lon="4.23102">
        <ele>272.6</ele>
        <time>2024-04-01T10:11:03Z</time>
      </trkpt>
      <trkpt lat="50.00977" lon="4.23115">
        <ele>272.4</ele>
        <time>2024-04-01T10:11:04Z</time>
      </trkpt>
      <trkpt lat="50.00977" lon="4.23127">
        <ele>272.6</ele>
        <time>2024-04-01T10:11:05Z</time>
      </trkpt>
      <trkpt lat="50.00977" lon="4.2314">
        <ele>272.6</ele>
        <time>2024-04-01T10:11:06Z</time>
      </trkpt>
      <trkpt lat="50.00976" lon="4.23152">
        <ele>272.8</ele>
        <time>2024-04-01T10:11:07Z</time>
      </trkpt>
      <trkpt lat="50.00976" lon="4.23165">
        <ele>272.8</ele>
        <time>2024-04-01T10:11:08Z</time>
      </trkpt>
      <trkpt lat="50.00975" lon="4.23178">
        <ele>273</ele>
        <time>2024-04-01T10:11:09Z</time>
      </trkpt>
      <trkpt lat="50.00975" lon="4.23191">
        <ele>273.2</ele>
        <time>2024-04-01T10:11:10Z</time>
      </trkpt>
      <trkpt lat="50.00975" lon="4.23203">
        <ele>273</ele>
        <time>2024-04-01T10:11:11Z</time>
      </trkpt>
      <trkpt lat="50.00974" lon="4.23216">
        <ele>273.2</ele>
        <time>2024-04-01T10:11:12Z</time>
      </trkpt>
      <trkpt lat="50.00974" lon="4.23229">
        <ele>273.2</ele>
        <time>2024-04-01T10:11:13Z</time>
      </trkpt>
      <trkpt lat="50.00973" lon="4.23241">
        <ele>273.2</ele>
        <time>2024-04-01T10:11:14Z</time>
      </trkpt>
      <trkpt lat="50.00973" lon="4.23254">
        <ele>273</ele>
        <time>2024-04-01T10:11:15Z</time>
      </trkpt>
      <trkpt lat="50.00973" lon="4.23266">
        <ele>272.4</ele>
        <time>2024-04-01T10:11:16Z</time>
      </trkpt>
      <trkpt lat="50.00972" lon="4.23278">
        <ele>272.4</ele>
        <time>2024-04-01T10:11:17Z</time>
      </trkpt>
      <trkpt lat="50.00972" lon="4.23291">
        <ele>272.2</ele>
        <time>2024-04-01T10:11:18Z</time>
      </trkpt>
      <trkpt lat="50.00971" lon="4.23303">
        <ele>272</ele>
        <time>2024-04-01T10:11:19Z</time>
      </trkpt>
      <trkpt lat="50.00971" lon="4.23315">
        <ele>272</ele>
        <time>2024-04-01T10:11:20Z</time>
      </trkpt>
      <trkpt lat="50.0097" lon="4.23328">
        <ele>271.8</ele>
        <time>2024-04-01T10:11:21Z</time>
      </trkpt>
      <trkpt lat="50.0097" lon="4.2334">
        <ele>271.6</ele>
        <time>2024-04-01T10:11:22Z</time>
      </trkpt>
      <trkpt lat="50.0097" lon="4.23352">
        <ele>271.4</ele>
        <time>2024-04-01T10:11:23Z</time>
      </trkpt>
      <trkpt lat="50.00969" lon="4.23364">
        <ele>271.4</ele>
        <time>2024-04-01T10:11:24Z</time>
      </trkpt>
      <trkpt lat="50.00969" lon="4.23377">
        <ele>271.4</ele>
        <time>2024-04-01T10:11:25Z</time>
      </trkpt>
      <trkpt lat="50.00969" lon="4.23389">
        <ele>271</ele>
        <time>2024-04-01T10:11:26Z</time>
      </trkpt>
      <trkpt lat="50.00968" lon="4.23402">
        <ele>270.8</ele>
        <time>2024-04-01T10:11:27Z</time>
      </trkpt>
      <trkpt lat="50.00968" lon="4.23414">
        <ele>270.6</ele>
        <time>2024-04-01T10:11:28Z</time>
      </trkpt>
      <trkpt lat="50.00968" lon="4.23426">
        <ele>270.6</ele>
        <time>2024-04-01T10:11:29Z</time>
      </trkpt>
      <trkpt lat="50.00967" lon="4.23438">
        <ele>270.4</ele>
        <time>2024-04-01T10:11:30Z</time>
      </trkpt>
      <trkpt lat="50.00967" lon="4.23451">
        <ele>270.4</ele>
        <time>2024-04-01T10:11:31Z</time>
      </trkpt>
      <trkpt lat="50.00966" lon="4.23463">
        <ele>270.4</ele>
        <time>2024-04-01T10:11:32Z</time>
      </trkpt>
      <trkpt lat="50.00966" lon="4.23475">
        <ele>270.4</ele>
        <time>2024-04-01T10:11:33Z</time>
      </trkpt>
      <trkpt lat="50.00965" lon="4.23488">
        <ele>270.4</ele>
        <time>2024-04-01T10:11:34Z</time>
      </trkpt>
      <trkpt lat="50.00965" lon="4.235">
        <ele>270.4</ele>
        <time>2024-04-01T10:11:35Z</time>
      </trkpt>
      <trkpt lat="50.00965" lon="4.23513">
        <ele>270.4</ele>
        <time>2024-04-01T10:11:36Z</time>
      </trkpt>
      <trkpt lat="50.00964" lon="4.23525">
        <ele>270.4</ele>
        <time>2024-04-01T10:11:37Z</time>
      </trkpt>
      <trkpt lat="50.00964" lon="4.23538">
        <ele>270.4</ele>
        <time>2024-04-01T10:11:38Z</time>
      </trkpt>
      <trkpt lat="50.00963" lon="4.2355">
        <ele>270.4</ele>
        <time>2024-04-01T10:11:39Z</time>
      </trkpt>
      <trkpt lat="50.00963" lon="4.23562">
        <ele>270.2</ele>
        <time>2024-04-01T10:11:40Z</time>
      </trkpt>
      <trkpt lat="50.00963" lon="4.23575">
        <ele>270.2</ele>
        <time>2024-04-01T10:11:41Z</time>
      </trkpt>
      <trkpt lat="50.00962" lon="4.23587">
        <ele>270.2</ele>
        <time>2024-04-01T10:11:42Z</time>
      </trkpt>
      <trkpt lat="50.00962" lon="4.23599">
        <ele>270.2</ele>
        <time>2024-04-01T10:11:43Z</time>
      </trkpt>
      <trkpt lat="50.00962" lon="4.23612">
        <ele>270</ele>
        <time>2024-04-01T10:11:44Z</time>
      </trkpt>
      <trkpt lat="50.00961" lon="4.23624">
        <ele>270.2</ele>
        <time>2024-04-01T10:11:45Z</time>
      </trkpt>
      <trkpt lat="50.00961" lon="4.23636">
        <ele>270.2</ele>
        <time>2024-04-01T10:11:46Z</time>
      </trkpt>
      <trkpt lat="50.0096" lon="4.23649">
        <ele>270</ele>
        <time>2024-04-01T10:11:47Z</time>
      </trkpt>
      <trkpt lat="50.0096" lon="4.23661">
        <ele>270.2</ele>
        <time>2024-04-01T10:11:48Z</time>
      </trkpt>
      <trkpt lat="50.0096" lon="4.23673">
        <ele>270.2</ele>
        <time>2024-04-01T10:11:49Z</time>
      </trkpt>
      <trkpt lat="50.00959" lon="4.23686">
        <ele>270.2</ele>
        <time>2024-04-01T10:11:50Z</time>
      </trkpt>
      <trkpt lat="50.00959" lon="4.23698">
        <ele>270.4</ele>
        <time>2024-04-01T10:11:51Z</time>
      </trkpt>
      <trkpt lat="50.00959" lon="4.2371">
        <ele>270</ele>
        <time>2024-04-01T10:11:52Z</time>
      </trkpt>
      <trkpt lat="50.00958" lon="4.23723">
        <ele>270</ele>
        <time>2024-04-01T10:11:53Z</time>
      </trkpt>
      <trkpt lat="50.00958" lon="4.23735">
        <ele>270</ele>
        <time>2024-04-01T10:11:54Z</time>
      </trkpt>
      <trkpt lat="50.00957" lon="4.23747">
        <ele>269.8</ele>
        <time>2024-04-01T10:11:55Z</time>
      </trkpt>
      <trkpt lat="50.00957" lon="4.23759">
        <ele>270</ele>
        <time>2024-04-01T10:11:56Z</time>
      </trkpt>
      <trkpt lat="50.00957" lon="4.23771">
        <ele>269.8</ele>
        <time>2024-04-01T10:11:57Z</time>
      </trkpt>
      <trkpt lat="50.00956" lon="4.23783">
        <ele>269.8</ele>
        <time>2024-04-01T10:11:58Z</time>
      </trkpt>
      <trkpt lat="50.00956" lon="4.23796">
        <ele>269.8</ele>
        <time>2024-04-01T10:11:59Z</time>
      </trkpt>
      <trkpt lat="50.00956" lon="4.23808">
        <ele>269.8</ele>
        <time>2024-04-01T10:12:00Z</time>
      </trkpt>
      <trkpt lat="50.00955" lon="4.2382">
        <ele>270</ele>
        <time>2024-04-01T10:12:01Z</time>
      </trkpt>
      <trkpt lat="50.00955" lon="4.23832">
        <ele>269.8</ele>
        <time>2024-04-01T10:12:02Z</time>
      </trkpt>
      <trkpt lat="50.00954" lon="4.23844">
        <ele>269.8</ele>
        <time>2024-04-01T10:12:03Z</time>
      </trkpt>
      <trkpt lat="50.00954" lon="4.23855">
        <ele>269.8</ele>
        <time>2024-04-01T10:12:04Z</time>
      </trkpt>
      <trkpt lat="50.00954" lon="4.23867">
        <ele>269.8</ele>
        <time>2024-04-01T10:12:05Z</time>
      </trkpt>
      <trkpt lat="50.00953" lon="4.23879">
        <ele>269.8</ele>
        <time>2024-04-01T10:12:06Z</time>
      </trkpt>
      <trkpt lat="50.00953" lon="4.2389">
        <ele>269.8</ele>
        <time>2024-04-01T10:12:07Z</time>
      </trkpt>
      <trkpt lat="50.00952" lon="4.23901">
        <ele>269.8</ele>
        <time>2024-04-01T10:12:08Z</time>
      </trkpt>
      <trkpt lat="50.00952" lon="4.23913">
        <ele>269.8</ele>
        <time>2024-04-01T10:12:09Z</time>
      </trkpt>
      <trkpt lat="50.00952" lon="4.23924">
        <ele>269.8</ele>
        <time>2024-04-01T10:12:10Z</time>
      </trkpt>
      <trkpt lat="50.00951" lon="4.23935">
        <ele>269.6</ele>
        <time>2024-04-01T10:12:11Z</time>
      </trkpt>
      <trkpt lat="50.00951" lon="4.23946">
        <ele>269.6</ele>
        <time>2024-04-01T10:12:12Z</time>
      </trkpt>
      <trkpt lat="50.00952" lon="4.23956">
        <ele>269.6</ele>
        <time>2024-04-01T10:12:13Z</time>
      </trkpt>
      <trkpt lat="50.00955" lon="4.23963">
        <ele>269.6</ele>
        <time>2024-04-01T10:12:14Z</time>
      </trkpt>
      <trkpt lat="50.0096" lon="4.23968">
        <ele>269.6</ele>
        <time>2024-04-01T10:12:15Z</time>
      </trkpt>
      <trkpt lat="50.00966" lon="4.23969">
        <ele>269.6</ele>
        <time>2024-04-01T10:12:16Z</time>
      </trkpt>
      <trkpt lat="50.00973" lon="4.23969">
        <ele>269.6</ele>
        <time>2024-04-01T10:12:17Z</time>
      </trkpt>
      <trkpt lat="50.0098" lon="4.23967">
        <ele>269.4</ele>
        <time>2024-04-01T10:12:18Z</time>
      </trkpt>
      <trkpt lat="50.00987" lon="4.23965">
        <ele>269.6</ele>
        <time>2024-04-01T10:12:19Z</time>
      </trkpt>
      <trkpt lat="50.00994" lon="4.23963">
        <ele>269.4</ele>
        <time>2024-04-01T10:12:20Z</time>
      </trkpt>
      <trkpt lat="50.01002" lon="4.23961">
        <ele>269.2</ele>
        <time>2024-04-01T10:12:21Z</time>
      </trkpt>
      <trkpt lat="50.0101" lon="4.23959">
        <ele>269.2</ele>
        <time>2024-04-01T10:12:22Z</time>
      </trkpt>
      <trkpt lat="50.01019" lon="4.23956">
        <ele>269</ele>
        <time>2024-04-01T10:12:23Z</time>
      </trkpt>
      <trkpt lat="50.01027" lon="4.23954">
        <ele>269</ele>
        <time>2024-04-01T10:12:24Z</time>
      </trkpt>
      <trkpt lat="50.01035" lon="4.23951">
        <ele>269</ele>
        <time>2024-04-01T10:12:25Z</time>
      </trkpt>
      <trkpt lat="50.01043" lon="4.23948">
        <ele>268.8</ele>
        <time>2024-04-01T10:12:26Z</time>
      </trkpt>
      <trkpt lat="50.01051" lon="4.23946">
        <ele>268.8</ele>
        <time>2024-04-01T10:12:27Z</time>
      </trkpt>
      <trkpt lat="50.01059" lon="4.23944">
        <ele>268.8</ele>
        <time>2024-04-01T10:12:28Z</time>
      </trkpt>
      <trkpt lat="50.01067" lon="4.23942">
        <ele>268.8</ele>
        <time>2024-04-01T10:12:29Z</time>
      </trkpt>
      <trkpt lat="50.01075" lon="4.2394">
        <ele>268.8</ele>
        <time>2024-04-01T10:12:30Z</time>
      </trkpt>
      <trkpt lat="50.01084" lon="4.23937">
        <ele>268.6</ele>
        <time>2024-04-01T10:12:31Z</time>
      </trkpt>
      <trkpt lat="50.01092" lon="4.23935">
        <ele>268.6</ele>
        <time>2024-04-01T10:12:32Z</time>
      </trkpt>
      <trkpt lat="50.011" lon="4.23933">
        <ele>268.6</ele>
        <time>2024-04-01T10:12:33Z</time>
      </trkpt>
      <trkpt lat="50.01109" lon="4.2393">
        <ele>268.2</ele>
        <time>2024-04-01T10:12:34Z</time>
      </trkpt>
      <trkpt lat="50.01117" lon="4.23928">
        <ele>268</ele>
        <time>2024-04-01T10:12:35Z</time>
      </trkpt>
      <trkpt lat="50.01125" lon="4.23925">
        <ele>267.8</ele>
        <time>2024-04-01T10:12:36Z</time>
      </trkpt>
      <trkpt lat="50.01134" lon="4.23923">
        <ele>267.6</ele>
        <time>2024-04-01T10:12:37Z</time>
      </trkpt>
      <trkpt lat="50.01142" lon="4.2392">
        <ele>267.4</ele>
        <time>2024-04-01T10:12:38Z</time>
      </trkpt>
      <trkpt lat="50.01151" lon="4.23917">
        <ele>267.2</ele>
        <time>2024-04-01T10:12:39Z</time>
      </trkpt>
      <trkpt lat="50.01159" lon="4.23915">
        <ele>267</ele>
        <time>2024-04-01T10:12:40Z</time>
      </trkpt>
      <trkpt lat="50.01168" lon="4.23912">
        <ele>267</ele>
        <time>2024-04-01T10:12:41Z</time>
      </trkpt>
      <trkpt lat="50.01177" lon="4.23909">
        <ele>266.8</ele>
        <time>2024-04-01T10:12:42Z</time>
      </trkpt>
      <trkpt lat="50.01185" lon="4.23907">
        <ele>266.6</ele>
        <time>2024-04-01T10:12:43Z</time>
      </trkpt>
      <trkpt lat="50.01194" lon="4.23904">
        <ele>266.6</ele>
        <time>2024-04-01T10:12:44Z</time>
      </trkpt>
      <trkpt lat="50.01203" lon="4.23901">
        <ele>266.4</ele>
        <time>2024-04-01T10:12:45Z</time>
      </trkpt>
      <trkpt lat="50.01211" lon="4.23898">
        <ele>266.2</ele>
        <time>2024-04-01T10:12:46Z</time>
      </trkpt>
      <trkpt lat="50.0122" lon="4.23895">
        <ele>266.2</ele>
        <time>2024-04-01T10:12:47Z</time>
      </trkpt>
      <trkpt lat="50.01228" lon="4.23893">
        <ele>266</ele>
        <time>2024-04-01T10:12:48Z</time>
      </trkpt>
      <trkpt lat="50.01237" lon="4.2389">
        <ele>265.8</ele>
        <time>2024-04-01T10:12:49Z</time>
      </trkpt>
      <trkpt lat="50.01246" lon="4.23887">
        <ele>265.6</ele>
        <time>2024-04-01T10:12:50Z</time>
      </trkpt>
      <trkpt lat="50.01255" lon="4.23884">
        <ele>265.4</ele>
        <time>2024-04-01T10:12:51Z</time>
      </trkpt>
      <trkpt lat="50.01263" lon="4.23881">
        <ele>265.4</ele>
        <time>2024-04-01T10:12:52Z</time>
      </trkpt>
      <trkpt lat="50.01272" lon="4.23879">
        <ele>265.2</ele>
        <time>2024-04-01T10:12:53Z</time>
      </trkpt>
      <trkpt lat="50.01281" lon="4.23876">
        <ele>265.2</ele>
        <time>2024-04-01T10:12:54Z</time>
      </trkpt>
      <trkpt lat="50.01289" lon="4.23874">
        <ele>265.2</ele>
        <time>2024-04-01T10:12:55Z</time>
      </trkpt>
      <trkpt lat="50.01298" lon="4.23872">
        <ele>265</ele>
        <time>2024-04-01T10:12:56Z</time>
      </trkpt>
      <trkpt lat="50.01307" lon="4.2387">
        <ele>264.8</ele>
        <time>2024-04-01T10:12:57Z</time>
      </trkpt>
      <trkpt lat="50.01316" lon="4.23869">
        <ele>264.4</ele>
        <time>2024-04-01T10:12:58Z</time>
      </trkpt>
      <trkpt lat="50.01324" lon="4.23868">
        <ele>264.4</ele>
        <time>2024-04-01T10:12:59Z</time>
      </trkpt>
      <trkpt lat="50.01333" lon="4.23867">
        <ele>264</ele>
        <time>2024-04-01T10:13:00Z</time>
      </trkpt>
      <trkpt lat="50.01342" lon="4.23866">
        <ele>264</ele>
        <time>2024-04-01T10:13:01Z</time>
      </trkpt>
      <trkpt lat="50.0135" lon="4.23866">
        <ele>264</ele>
        <time>2024-04-01T10:13:02Z</time>
      </trkpt>
      <trkpt lat="50.01359" lon="4.23866">
        <ele>263.8</ele>
        <time>2024-04-01T10:13:03Z</time>
      </trkpt>
      <trkpt lat="50.01367" lon="4.23866">
        <ele>263.4</ele>
        <time>2024-04-01T10:13:04Z</time>
      </trkpt>
      <trkpt lat="50.01376" lon="4.23866">
        <ele>263.4</ele>
        <time>2024-04-01T10:13:05Z</time>
      </trkpt>
      <trkpt lat="50.01385" lon="4.23865">
        <ele>263.2</ele>
        <time>2024-04-01T10:13:06Z</time>
      </trkpt>
      <trkpt lat="50.01394" lon="4.23865">
        <ele>263</ele>
        <time>2024-04-01T10:13:07Z</time>
      </trkpt>
      <trkpt lat="50.01403" lon="4.23865">
        <ele>263.2</ele>
        <time>2024-04-01T10:13:08Z</time>
      </trkpt>
      <trkpt lat="50.01412" lon="4.23865">
        <ele>263</ele>
        <time>2024-04-01T10:13:09Z</time>
      </trkpt>
      <trkpt lat="50.0142" lon="4.23865">
        <ele>263.2</ele>
        <time>2024-04-01T10:13:10Z</time>
      </trkpt>
      <trkpt lat="50.01429" lon="4.23865">
        <ele>263.2</ele>
        <time>2024-04-01T10:13:11Z</time>
      </trkpt>
      <trkpt lat="50.01438" lon="4.23864">
        <ele>263.2</ele>
        <time>2024-04-01T10:13:12Z</time>
      </trkpt>
      <trkpt lat="50.01447" lon="4.23865">
        <ele>263</ele>
        <time>2024-04-01T10:13:13Z</time>
      </trkpt>
      <trkpt lat="50.01455" lon="4.23865">
        <ele>263</ele>
        <time>2024-04-01T10:13:14Z</time>
      </trkpt>
      <trkpt lat="50.01464" lon="4.23865">
        <ele>263</ele>
        <time>2024-04-01T10:13:15Z</time>
      </trkpt>
      <trkpt lat="50.01473" lon="4.23864">
        <ele>263</ele>
        <time>2024-04-01T10:13:16Z</time>
      </trkpt>
      <trkpt lat="50.01481" lon="4.23864">
        <ele>263</ele>
        <time>2024-04-01T10:13:17Z</time>
      </trkpt>
      <trkpt lat="50.0149" lon="4.23864">
        <ele>262.8</ele>
        <time>2024-04-01T10:13:18Z</time>
      </trkpt>
      <trkpt lat="50.01498" lon="4.23864">
        <ele>262.8</ele>
        <time>2024-04-01T10:13:19Z</time>
      </trkpt>
      <trkpt lat="50.01507" lon="4.23864">
        <ele>262.8</ele>
        <time>2024-04-01T10:13:20Z</time>
      </trkpt>
      <trkpt lat="50.01515" lon="4.23864">
        <ele>262.8</ele>
        <time>2024-04-01T10:13:21Z</time>
      </trkpt>
      <trkpt lat="50.01523" lon="4.23864">
        <ele>262.8</ele>
        <time>2024-04-01T10:13:22Z</time>
      </trkpt>
      <trkpt lat="50.01531" lon="4.23864">
        <ele>262.6</ele>
        <time>2024-04-01T10:13:23Z</time>
      </trkpt>
      <trkpt lat="50.01539" lon="4.23863">
        <ele>262.8</ele>
        <time>2024-04-01T10:13:24Z</time>
      </trkpt>
      <trkpt lat="50.01547" lon="4.23863">
        <ele>262.8</ele>
        <time>2024-04-01T10:13:25Z</time>
      </trkpt>
      <trkpt lat="50.01555" lon="4.23862">
        <ele>262.4</ele>
        <time>2024-04-01T10:13:26Z</time>
      </trkpt>
      <trkpt lat="50.01563" lon="4.23861">
        <ele>262.6</ele>
        <time>2024-04-01T10:13:27Z</time>
      </trkpt>
      <trkpt lat="50.01571" lon="4.2386">
        <ele>262.4</ele>
        <time>2024-04-01T10:13:28Z</time>
      </trkpt>
      <trkpt lat="50.01579" lon="4.2386">
        <ele>262.2</ele>
        <time>2024-04-01T10:13:29Z</time>
      </trkpt>
      <trkpt lat="50.01587" lon="4.23858">
        <ele>262</ele>
        <time>2024-04-01T10:13:30Z</time>
      </trkpt>
      <trkpt lat="50.01595" lon="4.23857">
        <ele>261.8</ele>
        <time>2024-04-01T10:13:31Z</time>
      </trkpt>
      <trkpt lat="50.01603" lon="4.23856">
        <ele>261.8</ele>
        <time>2024-04-01T10:13:32Z</time>
      </trkpt>
      <trkpt lat="50.0161" lon="4.23855">
        <ele>261.6</ele>
        <time>2024-04-01T10:13:33Z</time>
      </trkpt>
      <trkpt lat="50.01618" lon="4.23854">
        <ele>261.4</ele>
        <time>2024-04-01T10:13:34Z</time>
      </trkpt>
      <trkpt lat="50.01625" lon="4.23852">
        <ele>261.4</ele>
        <time>2024-04-01T10:13:35Z</time>
      </trkpt>
      <trkpt lat="50.01633" lon="4.23851">
        <ele>261.4</ele>
        <time>2024-04-01T10:13:36Z</time>
      </trkpt>
      <trkpt lat="50.0164" lon="4.2385">
        <ele>261.4</ele>
        <time>2024-04-01T10:13:37Z</time>
      </trkpt>
      <trkpt lat="50.01647" lon="4.2385">
        <ele>261.2</ele>
        <time>2024-04-01T10:13:38Z</time>
      </trkpt>
      <trkpt lat="50.01654" lon="4.23851">
        <ele>261.2</ele>
        <time>2024-04-01T10:13:39Z</time>
      </trkpt>
      <trkpt lat="50.0166" lon="4.23853">
        <ele>261</ele>
        <time>2024-04-01T10:13:40Z</time>
      </trkpt>
      <trkpt lat="50.01666" lon="4.23856">
        <ele>261</ele>
        <time>2024-04-01T10:13:41Z</time>
      </trkpt>
      <trkpt lat="50.01671" lon="4.23857">
        <ele>260.8</ele>
        <time>2024-04-01T10:13:42Z</time>
      </trkpt>
      <trkpt lat="50.01676" lon="4.23855">
        <ele>260.8</ele>
        <time>2024-04-01T10:13:43Z</time>
      </trkpt>
      <trkpt lat="50.01679" lon="4.23852">
        <ele>260.6</ele>
        <time>2024-04-01T10:13:44Z</time>
      </trkpt>
      <trkpt lat="50.01682" lon="4.23846">
        <ele>260.6</ele>
        <time>2024-04-01T10:13:45Z</time>
      </trkpt>
      <trkpt lat="50.01684" lon="4.2384">
        <ele>260.6</ele>
        <time>2024-04-01T10:13:46Z</time>
      </trkpt>
      <trkpt lat="50.01687" lon="4.23833">
        <ele>260.6</ele>
        <time>2024-04-01T10:13:47Z</time>
      </trkpt>
      <trkpt lat="50.01689" lon="4.23826">
        <ele>260.6</ele>
        <time>2024-04-01T10:13:48Z</time>
      </trkpt>
      <trkpt lat="50.01692" lon="4.23819">
        <ele>260.6</ele>
        <time>2024-04-01T10:13:49Z</time>
      </trkpt>
      <trkpt lat="50.01695" lon="4.23812">
        <ele>260.8</ele>
        <time>2024-04-01T10:13:50Z</time>
      </trkpt>
      <trkpt lat="50.01698" lon="4.23804">
        <ele>260.8</ele>
        <time>2024-04-01T10:13:51Z</time>
      </trkpt>
      <trkpt lat="50.017" lon="4.23797">
        <ele>260.8</ele>
        <time>2024-04-01T10:13:52Z</time>
      </trkpt>
      <trkpt lat="50.01703" lon="4.23789">
        <ele>260.8</ele>
        <time>2024-04-01T10:13:53Z</time>
      </trkpt>
      <trkpt lat="50.01705" lon="4.23782">
        <ele>260.8</ele>
        <time>2024-04-01T10:13:54Z</time>
      </trkpt>
      <trkpt lat="50.01708" lon="4.23774">
        <ele>260.8</ele>
        <time>2024-04-01T10:13:55Z</time>
      </trkpt>
      <trkpt lat="50.0171" lon="4.23767">
        <ele>261</ele>
        <time>2024-04-01T10:13:56Z</time>
      </trkpt>
      <trkpt lat="50.01713" lon="4.23759">
        <ele>261</ele>
        <time>2024-04-01T10:13:57Z</time>
      </trkpt>
      <trkpt lat="50.01716" lon="4.23753">
        <ele>261.6</ele>
        <time>2024-04-01T10:13:58Z</time>
      </trkpt>
      <trkpt lat="50.01718" lon="4.23745">
        <ele>261.6</ele>
        <time>2024-04-01T10:13:59Z</time>
      </trkpt>
      <trkpt lat="50.01721" lon="4.23738">
        <ele>262</ele>
        <time>2024-04-01T10:14:00Z</time>
      </trkpt>
      <trkpt lat="50.01724" lon="4.23731">
        <ele>262.2</ele>
        <time>2024-04-01T10:14:01Z</time>
      </trkpt>
      <trkpt lat="50.01727" lon="4.23723">
        <ele>262.2</ele>
        <time>2024-04-01T10:14:02Z</time>
      </trkpt>
      <trkpt lat="50.01729" lon="4.23716">
        <ele>262.2</ele>
        <time>2024-04-01T10:14:03Z</time>
      </trkpt>
      <trkpt lat="50.01731" lon="4.23708">
        <ele>262.2</ele>
        <time>2024-04-01T10:14:04Z</time>
      </trkpt>
      <trkpt lat="50.01734" lon="4.237">
        <ele>262.4</ele>
        <time>2024-04-01T10:14:05Z</time>
      </trkpt>
      <trkpt lat="50.01737" lon="4.23693">
        <ele>262.4</ele>
        <time>2024-04-01T10:14:06Z</time>
      </trkpt>
      <trkpt lat="50.0174" lon="4.23685">
        <ele>262.4</ele>
        <time>2024-04-01T10:14:07Z</time>
      </trkpt>
      <trkpt lat="50.01742" lon="4.23677">
        <ele>262.2</ele>
        <time>2024-04-01T10:14:08Z</time>
      </trkpt>
      <trkpt lat="50.01745" lon="4.23669">
        <ele>262.4</ele>
        <time>2024-04-01T10:14:09Z</time>
      </trkpt>
      <trkpt lat="50.01747" lon="4.23661">
        <ele>262.6</ele>
        <time>2024-04-01T10:14:10Z</time>
      </trkpt>
      <trkpt lat="50.0175" lon="4.23653">
        <ele>262.6</ele>
        <time>2024-04-01T10:14:11Z</time>
      </trkpt>
      <trkpt lat="50.01752" lon="4.23645">
        <ele>262.8</ele>
        <time>2024-04-01T10:14:12Z</time>
      </trkpt>
      <trkpt lat="50.01755" lon="4.23636">
        <ele>263</ele>
        <time>2024-04-01T10:14:13Z</time>
      </trkpt>
      <trkpt lat="50.01757" lon="4.23628">
        <ele>262.8</ele>
        <time>2024-04-01T10:14:14Z</time>
      </trkpt>
      <trkpt lat="50.01759" lon="4.23619">
        <ele>263</ele>
        <time>2024-04-01T10:14:15Z</time>
      </trkpt>
      <trkpt lat="50.01761" lon="4.2361">
        <ele>262.8</ele>
        <time>2024-04-01T10:14:16Z</time>
      </trkpt>
      <trkpt lat="50.01763" lon="4.23602">
        <ele>263</ele>
        <time>2024-04-01T10:14:17Z</time>
      </trkpt>
      <trkpt lat="50.01765" lon="4.23593">
        <ele>262.8</ele>
        <time>2024-04-01T10:14:18Z</time>
      </trkpt>
      <trkpt lat="50.01767" lon="4.23584">
        <ele>262.8</ele>
        <time>2024-04-01T10:14:19Z</time>
      </trkpt>
      <trkpt lat="50.0177" lon="4.23575">
        <ele>262.8</ele>
        <time>2024-04-01T10:14:20Z</time>
      </trkpt>
      <trkpt lat="50.01772" lon="4.23566">
        <ele>262.6</ele>
        <time>2024-04-01T10:14:21Z</time>
      </trkpt>
      <trkpt lat="50.01773" lon="4.23558">
        <ele>262.8</ele>
        <time>2024-04-01T10:14:22Z</time>
      </trkpt>
      <trkpt lat="50.01775" lon="4.2355">
        <ele>262.8</ele>
        <time>2024-04-01T10:14:23Z</time>
      </trkpt>
      <trkpt lat="50.01777" lon="4.23542">
        <ele>262.8</ele>
        <time>2024-04-01T10:14:24Z</time>
      </trkpt>
      <trkpt lat="50.01779" lon="4.23534">
        <ele>263</ele>
        <time>2024-04-01T10:14:25Z</time>
      </trkpt>
      <trkpt lat="50.01781" lon="4.23526">
        <ele>263</ele>
        <time>2024-04-01T10:14:26Z</time>
      </trkpt>
      <trkpt lat="50.01783" lon="4.23519">
        <ele>263</ele>
        <time>2024-04-01T10:14:27Z</time>
      </trkpt>
      <trkpt lat="50.01785" lon="4.23511">
        <ele>263</ele>
        <time>2024-04-01T10:14:28Z</time>
      </trkpt>
      <trkpt lat="50.01787" lon="4.23503">
        <ele>263</ele>
        <time>2024-04-01T10:14:29Z</time>
      </trkpt>
      <trkpt lat="50.01788" lon="4.23496">
        <ele>263</ele>
        <time>2024-04-01T10:14:30Z</time>
      </trkpt>
      <trkpt lat="50.0179" lon="4.23489">
        <ele>263.2</ele>
        <time>2024-04-01T10:14:31Z</time>
      </trkpt>
      <trkpt lat="50.01792" lon="4.23482">
        <ele>263.2</ele>
        <time>2024-04-01T10:14:32Z</time>
      </trkpt>
      <trkpt lat="50.01794" lon="4.23475">
        <ele>263.2</ele>
        <time>2024-04-01T10:14:33Z</time>
      </trkpt>
      <trkpt lat="50.01796" lon="4.23469">
        <ele>263.6</ele>
        <time>2024-04-01T10:14:34Z</time>
      </trkpt>
      <trkpt lat="50.01798" lon="4.23463">
        <ele>263.8</ele>
        <time>2024-04-01T10:14:35Z</time>
      </trkpt>
      <trkpt lat="50.01799" lon="4.23456">
        <ele>263.8</ele>
        <time>2024-04-01T10:14:36Z</time>
      </trkpt>
      <trkpt lat="50.01801" lon="4.23449">
        <ele>264.2</ele>
        <time>2024-04-01T10:14:37Z</time>
      </trkpt>
      <trkpt lat="50.01803" lon="4.23444">
        <ele>264.6</ele>
        <time>2024-04-01T10:14:38Z</time>
      </trkpt>
      <trkpt lat="50.01805" lon="4.23437">
        <ele>265.8</ele>
        <time>2024-04-01T10:14:39Z</time>
      </trkpt>
      <trkpt lat="50.01807" lon="4.23431">
        <ele>266.4</ele>
        <time>2024-04-01T10:14:40Z</time>
      </trkpt>
      <trkpt lat="50.01808" lon="4.23425">
        <ele>266.6</ele>
        <time>2024-04-01T10:14:41Z</time>
      </trkpt>
      <trkpt lat="50.0181" lon="4.23419">
        <ele>266.8</ele>
        <time>2024-04-01T10:14:42Z</time>
      </trkpt>
      <trkpt lat="50.01812" lon="4.23413">
        <ele>267</ele>
        <time>2024-04-01T10:14:43Z</time>
      </trkpt>
      <trkpt lat="50.01813" lon="4.23407">
        <ele>267.4</ele>
        <time>2024-04-01T10:14:44Z</time>
      </trkpt>
      <trkpt lat="50.01814" lon="4.23401">
        <ele>267.6</ele>
        <time>2024-04-01T10:14:45Z</time>
      </trkpt>
      <trkpt lat="50.01816" lon="4.23394">
        <ele>267.8</ele>
        <time>2024-04-01T10:14:46Z</time>
      </trkpt>
      <trkpt lat="50.01817" lon="4.23388">
        <ele>268.2</ele>
        <time>2024-04-01T10:14:47Z</time>
      </trkpt>
      <trkpt lat="50.01819" lon="4.23381">
        <ele>268.4</ele>
        <time>2024-04-01T10:14:48Z</time>
      </trkpt>
      <trkpt lat="50.01821" lon="4.23374">
        <ele>268.4</ele>
        <time>2024-04-01T10:14:49Z</time>
      </trkpt>
      <trkpt lat="50.01822" lon="4.23368">
        <ele>268.8</ele>
        <time>2024-04-01T10:14:50Z</time>
      </trkpt>
      <trkpt lat="50.01823" lon="4.23361">
        <ele>268.8</ele>
        <time>2024-04-01T10:14:51Z</time>
      </trkpt>
      <trkpt lat="50.01824" lon="4.23355">
        <ele>268.8</ele>
        <time>2024-04-01T10:14:52Z</time>
      </trkpt>
      <trkpt lat="50.01825" lon="4.23348">
        <ele>269.2</ele>
        <time>2024-04-01T10:14:53Z</time>
      </trkpt>
      <trkpt lat="50.01826" lon="4.23342">
        <ele>269.6</ele>
        <time>2024-04-01T10:14:54Z</time>
      </trkpt>
      <trkpt lat="50.01828" lon="4.23336">
        <ele>269.8</ele>
        <time>2024-04-01T10:14:55Z</time>
      </trkpt>
      <trkpt lat="50.0183" lon="4.2333">
        <ele>270</ele>
        <time>2024-04-01T10:14:56Z</time>
      </trkpt>
      <trkpt lat="50.01831" lon="4.23324">
        <ele>270.6</ele>
        <time>2024-04-01T10:14:57Z</time>
      </trkpt>
      <trkpt lat="50.01833" lon="4.23318">
        <ele>270.6</ele>
        <time>2024-04-01T10:14:58Z</time>
      </trkpt>
      <trkpt lat="50.01834" lon="4.23312">
        <ele>270.8</ele>
        <time>2024-04-01T10:14:59Z</time>
      </trkpt>
      <trkpt lat="50.01836" lon="4.23306">
        <ele>271.2</ele>
        <time>2024-04-01T10:15:00Z</time>
      </trkpt>
      <trkpt lat="50.01838" lon="4.23299">
        <ele>271.4</ele>
        <time>2024-04-01T10:15:01Z</time>
      </trkpt>
      <trkpt lat="50.0184" lon="4.23294">
        <ele>271.4</ele>
        <time>2024-04-01T10:15:02Z</time>
      </trkpt>
      <trkpt lat="50.01841" lon="4.23287">
        <ele>271.8</ele>
        <time>2024-04-01T10:15:03Z</time>
      </trkpt>
      <trkpt lat="50.01843" lon="4.23281">
        <ele>271.8</ele>
        <time>2024-04-01T10:15:04Z</time>
      </trkpt>
      <trkpt lat="50.01844" lon="4.23275">
        <ele>272</ele>
        <time>2024-04-01T10:15:05Z</time>
      </trkpt>
      <trkpt lat="50.01846" lon="4.23269">
        <ele>272</ele>
        <time>2024-04-01T10:15:06Z</time>
      </trkpt>
      <trkpt lat="50.01847" lon="4.23264">
        <ele>272.2</ele>
        <time>2024-04-01T10:15:07Z</time>
      </trkpt>
      <trkpt lat="50.01849" lon="4.23258">
        <ele>272.2</ele>
        <time>2024-04-01T10:15:08Z</time>
      </trkpt>
      <trkpt lat="50.0185" lon="4.23252">
        <ele>272.2</ele>
        <time>2024-04-01T10:15:09Z</time>
      </trkpt>
      <trkpt lat="50.01852" lon="4.23246">
        <ele>272.2</ele>
        <time>2024-04-01T10:15:10Z</time>
      </trkpt>
      <trkpt lat="50.01855" lon="4.2324">
        <ele>272.2</ele>
        <time>2024-04-01T10:15:11Z</time>
      </trkpt>
      <trkpt lat="50.01857" lon="4.23235">
        <ele>272.4</ele>
        <time>2024-04-01T10:15:12Z</time>
      </trkpt>
      <trkpt lat="50.01859" lon="4.2323">
        <ele>272.6</ele>
        <time>2024-04-01T10:15:13Z</time>
      </trkpt>
      <trkpt lat="50.01862" lon="4.23224">
        <ele>272.8</ele>
        <time>2024-04-01T10:15:14Z</time>
      </trkpt>
      <trkpt lat="50.01864" lon="4.23219">
        <ele>273</ele>
        <time>2024-04-01T10:15:15Z</time>
      </trkpt>
      <trkpt lat="50.01866" lon="4.23214">
        <ele>273</ele>
        <time>2024-04-01T10:15:16Z</time>
      </trkpt>
      <trkpt lat="50.01867" lon="4.2321">
        <ele>273.6</ele>
        <time>2024-04-01T10:15:17Z</time>
      </trkpt>
      <trkpt lat="50.01869" lon="4.23206">
        <ele>273.8</ele>
        <time>2024-04-01T10:15:18Z</time>
      </trkpt>
      <trkpt lat="50.01872" lon="4.23202">
        <ele>273.8</ele>
        <time>2024-04-01T10:15:19Z</time>
      </trkpt>
      <trkpt lat="50.01874" lon="4.23197">
        <ele>274</ele>
        <time>2024-04-01T10:15:20Z</time>
      </trkpt>
      <trkpt lat="50.01877" lon="4.23193">
        <ele>274</ele>
        <time>2024-04-01T10:15:21Z</time>
      </trkpt>
      <trkpt lat="50.0188" lon="4.2319">
        <ele>274.2</ele>
        <time>2024-04-01T10:15:22Z</time>
      </trkpt>
      <trkpt lat="50.01883" lon="4.23186">
        <ele>274.2</ele>
        <time>2024-04-01T10:15:23Z</time>
      </trkpt>
      <trkpt lat="50.01885" lon="4.23182">
        <ele>274.4</ele>
        <time>2024-04-01T10:15:24Z</time>
      </trkpt>
      <trkpt lat="50.01889" lon="4.2318">
        <ele>274.4</ele>
        <time>2024-04-01T10:15:25Z</time>
      </trkpt>
      <trkpt lat="50.01893" lon="4.23177">
        <ele>274.4</ele>
        <time>2024-04-01T10:15:26Z</time>
      </trkpt>
      <trkpt lat="50.01896" lon="4.23174">
        <ele>274.6</ele>
        <time>2024-04-01T10:15:27Z</time>
      </trkpt>
      <trkpt lat="50.019" lon="4.23171">
        <ele>274.8</ele>
        <time>2024-04-01T10:15:28Z</time>
      </trkpt>
      <trkpt lat="50.01904" lon="4.23169">
        <ele>274.8</ele>
        <time>2024-04-01T10:15:29Z</time>
      </trkpt>
      <trkpt lat="50.01909" lon="4.23166">
        <ele>275.2</ele>
        <time>2024-04-01T10:15:30Z</time>
      </trkpt>
      <trkpt lat="50.01914" lon="4.23164">
        <ele>275.2</ele>
        <time>2024-04-01T10:15:31Z</time>
      </trkpt>
      <trkpt lat="50.0192" lon="4.23161">
        <ele>275.4</ele>
        <time>2024-04-01T10:15:32Z</time>
      </trkpt>
      <trkpt lat="50.01925" lon="4.23158">
        <ele>275.8</ele>
        <time>2024-04-01T10:15:33Z</time>
      </trkpt>
      <trkpt lat="50.01931" lon="4.23155">
        <ele>275.8</ele>
        <time>2024-04-01T10:15:34Z</time>
      </trkpt>
      <trkpt lat="50.01936" lon="4.23153">
        <ele>276</ele>
        <time>2024-04-01T10:15:35Z</time>
      </trkpt>
      <trkpt lat="50.01941" lon="4.2315">
        <ele>276.4</ele>
        <time>2024-04-01T10:15:36Z</time>
      </trkpt>
      <trkpt lat="50.01946" lon="4.23147">
        <ele>276.4</ele>
        <time>2024-04-01T10:15:37Z</time>
      </trkpt>
      <trkpt lat="50.01951" lon="4.23145">
        <ele>276.6</ele>
        <time>2024-04-01T10:15:38Z</time>
      </trkpt>
      <trkpt lat="50.01957" lon="4.23143">
        <ele>276.6</ele>
        <time>2024-04-01T10:15:39Z</time>
      </trkpt>
      <trkpt lat="50.01962" lon="4.23141">
        <ele>276.6</ele>
        <time>2024-04-01T10:15:40Z</time>
      </trkpt>
      <trkpt lat="50.01967" lon="4.23139">
        <ele>276.6</ele>
        <time>2024-04-01T10:15:41Z</time>
      </trkpt>
      <trkpt lat="50.01973" lon="4.23136">
        <ele>276.6</ele>
        <time>2024-04-01T10:15:42Z</time>
      </trkpt>
      <trkpt lat="50.01978" lon="4.23133">
        <ele>276.8</ele>
        <time>2024-04-01T10:15:43Z</time>
      </trkpt>
      <trkpt lat="50.01984" lon="4.2313">
        <ele>276.8</ele>
        <time>2024-04-01T10:15:44Z</time>
      </trkpt>
      <trkpt lat="50.0199" lon="4.23128">
        <ele>277</ele>
        <time>2024-04-01T10:15:45Z</time>
      </trkpt>
      <trkpt lat="50.01996" lon="4.23125">
        <ele>277</ele>
        <time>2024-04-01T10:15:46Z</time>
      </trkpt>
      <trkpt lat="50.02001" lon="4.23123">
        <ele>277</ele>
        <time>2024-04-01T10:15:47Z</time>
      </trkpt>
      <trkpt lat="50.02007" lon="4.2312">
        <ele>277</ele>
        <time>2024-04-01T10:15:48Z</time>
      </trkpt>
      <trkpt lat="50.02013" lon="4.23117">
        <ele>277</ele>
        <time>2024-04-01T10:15:49Z</time>
      </trkpt>
      <trkpt lat="50.02019" lon="4.23114">
        <ele>277.2</ele>
        <time>2024-04-01T10:15:50Z</time>
      </trkpt>
      <trkpt lat="50.02025" lon="4.23112">
        <ele>277.2</ele>
        <time>2024-04-01T10:15:51Z</time>
      </trkpt>
      <trkpt lat="50.0203" lon="4.2311">
        <ele>277.2</ele>
        <time>2024-04-01T10:15:52Z</time>
      </trkpt>
      <trkpt lat="50.02035" lon="4.23108">
        <ele>277.4</ele>
        <time>2024-04-01T10:15:53Z</time>
      </trkpt>
      <trkpt lat="50.02042" lon="4.23106">
        <ele>277.2</ele>
        <time>2024-04-01T10:15:54Z</time>
      </trkpt>
      <trkpt lat="50.02048" lon="4.23103">
        <ele>277.2</ele>
        <time>2024-04-01T10:15:55Z</time>
      </trkpt>
      <trkpt lat="50.02055" lon="4.23101">
        <ele>277.2</ele>
        <time>2024-04-01T10:15:56Z</time>
      </trkpt>
      <trkpt lat="50.0206" lon="4.23098">
        <ele>277.2</ele>
        <time>2024-04-01T10:15:57Z</time>
      </trkpt>
      <trkpt lat="50.02066" lon="4.23096">
        <ele>277.2</ele>
        <time>2024-04-01T10:15:58Z</time>
      </trkpt>
      <trkpt lat="50.02072" lon="4.23094">
        <ele>277.2</ele>
        <time>2024-04-01T10:15:59Z</time>
      </trkpt>
      <trkpt lat="50.02078" lon="4.23091">
        <ele>277.2</ele>
        <time>2024-04-01T10:16:00Z</time>
      </trkpt>
      <trkpt lat="50.02084" lon="4.23089">
        <ele>277.2</ele>
        <time>2024-04-01T10:16:01Z</time>
      </trkpt>
      <trkpt lat="50.0209" lon="4.23087">
        <ele>277.2</ele>
        <time>2024-04-01T10:16:02Z</time>
      </trkpt>
      <trkpt lat="50.02096" lon="4.23084">
        <ele>276.8</ele>
        <time>2024-04-01T10:16:03Z</time>
      </trkpt>
      <trkpt lat="50.02102" lon="4.23082">
        <ele>276.8</ele>
        <time>2024-04-01T10:16:04Z</time>
      </trkpt>
      <trkpt lat="50.02108" lon="4.23079">
        <ele>276.6</ele>
        <time>2024-04-01T10:16:05Z</time>
      </trkpt>
      <trkpt lat="50.02115" lon="4.23076">
        <ele>276.6</ele>
        <time>2024-04-01T10:16:06Z</time>
      </trkpt>
      <trkpt lat="50.02121" lon="4.23074">
        <ele>276.6</ele>
        <time>2024-04-01T10:16:07Z</time>
      </trkpt>
      <trkpt lat="50.02128" lon="4.23071">
        <ele>276.6</ele>
        <time>2024-04-01T10:16:08Z</time>
      </trkpt>
      <trkpt lat="50.02134" lon="4.23069">
        <ele>276.6</ele>
        <time>2024-04-01T10:16:09Z</time>
      </trkpt>
      <trkpt lat="50.0214" lon="4.23066">
        <ele>276.8</ele>
        <time>2024-04-01T10:16:10Z</time>
      </trkpt>
      <trkpt lat="50.02146" lon="4.23063">
        <ele>276.6</ele>
        <time>2024-04-01T10:16:11Z</time>
      </trkpt>
      <trkpt lat="50.02153" lon="4.23061">
        <ele>276.6</ele>
        <time>2024-04-01T10:16:12Z</time>
      </trkpt>
      <trkpt lat="50.0216" lon="4.23058">
        <ele>276.6</ele>
        <time>2024-04-01T10:16:13Z</time>
      </trkpt>
      <trkpt lat="50.02166" lon="4.23055">
        <ele>276.6</ele>
        <time>2024-04-01T10:16:14Z</time>
      </trkpt>
      <trkpt lat="50.02173" lon="4.23053">
        <ele>276.6</ele>
        <time>2024-04-01T10:16:15Z</time>
      </trkpt>
      <trkpt lat="50.02179" lon="4.23051">
        <ele>277</ele>
        <time>2024-04-01T10:16:16Z</time>
      </trkpt>
      <trkpt lat="50.02186" lon="4.23048">
        <ele>277.2</ele>
        <time>2024-04-01T10:16:17Z</time>
      </trkpt>
      <trkpt lat="50.02192" lon="4.23046">
        <ele>277.4</ele>
        <time>2024-04-01T10:16:18Z</time>
      </trkpt>
      <trkpt lat="50.02198" lon="4.23044">
        <ele>277.4</ele>
        <time>2024-04-01T10:16:19Z</time>
      </trkpt>
      <trkpt lat="50.02203" lon="4.23041">
        <ele>277.2</ele>
        <time>2024-04-01T10:16:20Z</time>
      </trkpt>
      <trkpt lat="50.0221" lon="4.23039">
        <ele>277.4</ele>
        <time>2024-04-01T10:16:21Z</time>
      </trkpt>
      <trkpt lat="50.02217" lon="4.23036">
        <ele>277.4</ele>
        <time>2024-04-01T10:16:22Z</time>
      </trkpt>
      <trkpt lat="50.02224" lon="4.23034">
        <ele>277.4</ele>
        <time>2024-04-01T10:16:23Z</time>
      </trkpt>
      <trkpt lat="50.02231" lon="4.23031">
        <ele>277.2</ele>
        <time>2024-04-01T10:16:24Z</time>
      </trkpt>
      <trkpt lat="50.02237" lon="4.23028">
        <ele>277.4</ele>
        <time>2024-04-01T10:16:25Z</time>
      </trkpt>
      <trkpt lat="50.02244" lon="4.23025">
        <ele>277.4</ele>
        <time>2024-04-01T10:16:26Z</time>
      </trkpt>
      <trkpt lat="50.0225" lon="4.23022">
        <ele>277.4</ele>
        <time>2024-04-01T10:16:27Z</time>
      </trkpt>
      <trkpt lat="50.02257" lon="4.2302">
        <ele>277.2</ele>
        <time>2024-04-01T10:16:28Z</time>
      </trkpt>
      <trkpt lat="50.02264" lon="4.23019">
        <ele>277.4</ele>
        <time>2024-04-01T10:16:29Z</time>
      </trkpt>
      <trkpt lat="50.0227" lon="4.23017">
        <ele>277.2</ele>
        <time>2024-04-01T10:16:30Z</time>
      </trkpt>
      <trkpt lat="50.02277" lon="4.23014">
        <ele>277.2</ele>
        <time>2024-04-01T10:16:31Z</time>
      </trkpt>
      <trkpt lat="50.02283" lon="4.23012">
        <ele>277.2</ele>
        <time>2024-04-01T10:16:32Z</time>
      </trkpt>
      <trkpt lat="50.02289" lon="4.23009">
        <ele>276.6</ele>
        <time>2024-04-01T10:16:33Z</time>
      </trkpt>
      <trkpt lat="50.02295" lon="4.23007">
        <ele>276.4</ele>
        <time>2024-04-01T10:16:34Z</time>
      </trkpt>
      <trkpt lat="50.02302" lon="4.23005">
        <ele>276</ele>
        <time>2024-04-01T10:16:35Z</time>
      </trkpt>
      <trkpt lat="50.02308" lon="4.23002">
        <ele>276</ele>
        <time>2024-04-01T10:16:36Z</time>
      </trkpt>
      <trkpt lat="50.02314" lon="4.22999">
        <ele>276</ele>
        <time>2024-04-01T10:16:37Z</time>
      </trkpt>
      <trkpt lat="50.02321" lon="4.22997">
        <ele>275.8</ele>
        <time>2024-04-01T10:16:38Z</time>
      </trkpt>
      <trkpt lat="50.02328" lon="4.22995">
        <ele>275.8</ele>
        <time>2024-04-01T10:16:39Z</time>
      </trkpt>
      <trkpt lat="50.02334" lon="4.22992">
        <ele>275.6</ele>
        <time>2024-04-01T10:16:40Z</time>
      </trkpt>
      <trkpt lat="50.02341" lon="4.2299">
        <ele>275.6</ele>
        <time>2024-04-01T10:16:41Z</time>
      </trkpt>
      <trkpt lat="50.02348" lon="4.22986">
        <ele>275.8</ele>
        <time>2024-04-01T10:16:42Z</time>
      </trkpt>
      <trkpt lat="50.02356" lon="4.22984">
        <ele>275.6</ele>
        <time>2024-04-01T10:16:43Z</time>
      </trkpt>
      <trkpt lat="50.02363" lon="4.22982">
        <ele>275.6</ele>
        <time>2024-04-01T10:16:44Z</time>
      </trkpt>
      <trkpt lat="50.0237" lon="4.2298">
        <ele>275.6</ele>
        <time>2024-04-01T10:16:45Z</time>
      </trkpt>
      <trkpt lat="50.02376" lon="4.22978">
        <ele>275.4</ele>
        <time>2024-04-01T10:16:46Z</time>
      </trkpt>
      <trkpt lat="50.02383" lon="4.22976">
        <ele>275.4</ele>
        <time>2024-04-01T10:16:47Z</time>
      </trkpt>
      <trkpt lat="50.02391" lon="4.22974">
        <ele>275.4</ele>
        <time>2024-04-01T10:16:48Z</time>
      </trkpt>
      <trkpt lat="50.02398" lon="4.22971">
        <ele>275.4</ele>
        <time>2024-04-01T10:16:49Z</time>
      </trkpt>
      <trkpt lat="50.02404" lon="4.22968">
        <ele>275.4</ele>
        <time>2024-04-01T10:16:50Z</time>
      </trkpt>
      <trkpt lat="50.02411" lon="4.22966">
        <ele>275.4</ele>
        <time>2024-04-01T10:16:51Z</time>
      </trkpt>
      <trkpt lat="50.02418" lon="4.22962">
        <ele>275.4</ele>
        <time>2024-04-01T10:16:52Z</time>
      </trkpt>
      <trkpt lat="50.02425" lon="4.22959">
        <ele>275.4</ele>
        <time>2024-04-01T10:16:53Z</time>
      </trkpt>
      <trkpt lat="50.02433" lon="4.22956">
        <ele>275.4</ele>
        <time>2024-04-01T10:16:54Z</time>
      </trkpt>
      <trkpt lat="50.02441" lon="4.22951">
        <ele>275</ele>
        <time>2024-04-01T10:16:55Z</time>
      </trkpt>
      <trkpt lat="50.0245" lon="4.22946">
        <ele>275</ele>
        <time>2024-04-01T10:16:56Z</time>
      </trkpt>
      <trkpt lat="50.02459" lon="4.22941">
        <ele>275</ele>
        <time>2024-04-01T10:16:57Z</time>
      </trkpt>
      <trkpt lat="50.02468" lon="4.22937">
        <ele>274.8</ele>
        <time>2024-04-01T10:16:58Z</time>
      </trkpt>
      <trkpt lat="50.02476" lon="4.22933">
        <ele>274.4</ele>
        <time>2024-04-01T10:16:59Z</time>
      </trkpt>
      <trkpt lat="50.02485" lon="4.22929">
        <ele>274.4</ele>
        <time>2024-04-01T10:17:00Z</time>
      </trkpt>
      <trkpt lat="50.02493" lon="4.22925">
        <ele>274.2</ele>
        <time>2024-04-01T10:17:01Z</time>
      </trkpt>
      <trkpt lat="50.02499" lon="4.22923">
        <ele>274</ele>
        <time>2024-04-01T10:17:02Z</time>
      </trkpt>
      <trkpt lat="50.02508" lon="4.22921">
        <ele>274</ele>
        <time>2024-04-01T10:17:03Z</time>
      </trkpt>
      <trkpt lat="50.02516" lon="4.22918">
        <ele>273.8</ele>
        <time>2024-04-01T10:17:04Z</time>
      </trkpt>
      <trkpt lat="50.02524" lon="4.22915">
        <ele>273.6</ele>
        <time>2024-04-01T10:17:05Z</time>
      </trkpt>
      <trkpt lat="50.02532" lon="4.22912">
        <ele>273.4</ele>
        <time>2024-04-01T10:17:06Z</time>
      </trkpt>
      <trkpt lat="50.0254" lon="4.2291">
        <ele>273.4</ele>
        <time>2024-04-01T10:17:07Z</time>
      </trkpt>
      <trkpt lat="50.02547" lon="4.22907">
        <ele>273.4</ele>
        <time>2024-04-01T10:17:08Z</time>
      </trkpt>
      <trkpt lat="50.02555" lon="4.22904">
        <ele>273.4</ele>
        <time>2024-04-01T10:17:09Z</time>
      </trkpt>
      <trkpt lat="50.02563" lon="4.22902">
        <ele>273.4</ele>
        <time>2024-04-01T10:17:10Z</time>
      </trkpt>
      <trkpt lat="50.0257" lon="4.22898">
        <ele>273.2</ele>
        <time>2024-04-01T10:17:11Z</time>
      </trkpt>
      <trkpt lat="50.02577" lon="4.22895">
        <ele>272.6</ele>
        <time>2024-04-01T10:17:12Z</time>
      </trkpt>
      <trkpt lat="50.02584" lon="4.22892">
        <ele>272.4</ele>
        <time>2024-04-01T10:17:13Z</time>
      </trkpt>
      <trkpt lat="50.02591" lon="4.22889">
        <ele>272.2</ele>
        <time>2024-04-01T10:17:14Z</time>
      </trkpt>
      <trkpt lat="50.02598" lon="4.22886">
        <ele>272</ele>
        <time>2024-04-01T10:17:15Z</time>
      </trkpt>
      <trkpt lat="50.02606" lon="4.22883">
        <ele>271.6</ele>
        <time>2024-04-01T10:17:16Z</time>
      </trkpt>
      <trkpt lat="50.02614" lon="4.22881">
        <ele>271.6</ele>
        <time>2024-04-01T10:17:17Z</time>
      </trkpt>
      <trkpt lat="50.02622" lon="4.22878">
        <ele>271.2</ele>
        <time>2024-04-01T10:17:18Z</time>
      </trkpt>
      <trkpt lat="50.0263" lon="4.22875">
        <ele>271.2</ele>
        <time>2024-04-01T10:17:19Z</time>
      </trkpt>
      <trkpt lat="50.02639" lon="4.22873">
        <ele>271.2</ele>
        <time>2024-04-01T10:17:20Z</time>
      </trkpt>
      <trkpt lat="50.02648" lon="4.2287">
        <ele>270.8</ele>
        <time>2024-04-01T10:17:21Z</time>
      </trkpt>
      <trkpt lat="50.02656" lon="4.22867">
        <ele>270.8</ele>
        <time>2024-04-01T10:17:22Z</time>
      </trkpt>
      <trkpt lat="50.02664" lon="4.22864">
        <ele>270.6</ele>
        <time>2024-04-01T10:17:23Z</time>
      </trkpt>
      <trkpt lat="50.02671" lon="4.22861">
        <ele>270.4</ele>
        <time>2024-04-01T10:17:24Z</time>
      </trkpt>
      <trkpt lat="50.02679" lon="4.22858">
        <ele>270.6</ele>
        <time>2024-04-01T10:17:25Z</time>
      </trkpt>
      <trkpt lat="50.02688" lon="4.22854">
        <ele>270.6</ele>
        <time>2024-04-01T10:17:26Z</time>
      </trkpt>
      <trkpt lat="50.02696" lon="4.2285">
        <ele>270.2</ele>
        <time>2024-04-01T10:17:27Z</time>
      </trkpt>
      <trkpt lat="50.02704" lon="4.22847">
        <ele>269.8</ele>
        <time>2024-04-01T10:17:28Z</time>
      </trkpt>
      <trkpt lat="50.02713" lon="4.22843">
        <ele>269.4</ele>
        <time>2024-04-01T10:17:29Z</time>
      </trkpt>
      <trkpt lat="50.02722" lon="4.2284">
        <ele>268.6</ele>
        <time>2024-04-01T10:17:30Z</time>
      </trkpt>
      <trkpt lat="50.02731" lon="4.22836">
        <ele>268.4</ele>
        <time>2024-04-01T10:17:31Z</time>
      </trkpt>
      <trkpt lat="50.0274" lon="4.22833">
        <ele>268.2</ele>
        <time>2024-04-01T10:17:32Z</time>
      </trkpt>
      <trkpt lat="50.02749" lon="4.2283">
        <ele>267.8</ele>
        <time>2024-04-01T10:17:33Z</time>
      </trkpt>
      <trkpt lat="50.02759" lon="4.22826">
        <ele>267.6</ele>
        <time>2024-04-01T10:17:34Z</time>
      </trkpt>
      <trkpt lat="50.02767" lon="4.22823">
        <ele>267.4</ele>
        <time>2024-04-01T10:17:35Z</time>
      </trkpt>
      <trkpt lat="50.02776" lon="4.22819">
        <ele>266.8</ele>
        <time>2024-04-01T10:17:36Z</time>
      </trkpt>
      <trkpt lat="50.02785" lon="4.22816">
        <ele>266.6</ele>
        <time>2024-04-01T10:17:37Z</time>
      </trkpt>
      <trkpt lat="50.02793" lon="4.22813">
        <ele>266.4</ele>
        <time>2024-04-01T10:17:38Z</time>
      </trkpt>
      <trkpt lat="50.02802" lon="4.2281">
        <ele>265.8</ele>
        <time>2024-04-01T10:17:39Z</time>
      </trkpt>
      <trkpt lat="50.02811" lon="4.22806">
        <ele>265.8</ele>
        <time>2024-04-01T10:17:40Z</time>
      </trkpt>
      <trkpt lat="50.02819" lon="4.22802">
        <ele>265.2</ele>
        <time>2024-04-01T10:17:41Z</time>
      </trkpt>
      <trkpt lat="50.02828" lon="4.228">
        <ele>265</ele>
        <time>2024-04-01T10:17:42Z</time>
      </trkpt>
      <trkpt lat="50.02836" lon="4.22796">
        <ele>264.4</ele>
        <time>2024-04-01T10:17:43Z</time>
      </trkpt>
      <trkpt lat="50.02845" lon="4.22793">
        <ele>264</ele>
        <time>2024-04-01T10:17:44Z</time>
      </trkpt>
      <trkpt lat="50.02853" lon="4.2279">
        <ele>264</ele>
        <time>2024-04-01T10:17:45Z</time>
      </trkpt>
      <trkpt lat="50.02861" lon="4.22787">
        <ele>263.4</ele>
        <time>2024-04-01T10:17:46Z</time>
      </trkpt>
      <trkpt lat="50.02869" lon="4.22785">
        <ele>263</ele>
        <time>2024-04-01T10:17:47Z</time>
      </trkpt>
      <trkpt lat="50.02877" lon="4.22782">
        <ele>263</ele>
        <time>2024-04-01T10:17:48Z</time>
      </trkpt>
      <trkpt lat="50.02884" lon="4.2278">
        <ele>262.8</ele>
        <time>2024-04-01T10:17:49Z</time>
      </trkpt>
      <trkpt lat="50.02891" lon="4.22777">
        <ele>262.8</ele>
        <time>2024-04-01T10:17:50Z</time>
      </trkpt>
      <trkpt lat="50.02899" lon="4.22775">
        <ele>262.8</ele>
        <time>2024-04-01T10:17:51Z</time>
      </trkpt>
      <trkpt lat="50.02905" lon="4.22772">
        <ele>262.8</ele>
        <time>2024-04-01T10:17:52Z</time>
      </trkpt>
      <trkpt lat="50.02912" lon="4.22769">
        <ele>262.8</ele>
        <time>2024-04-01T10:17:53Z</time>
      </trkpt>
      <trkpt lat="50.02919" lon="4.22766">
        <ele>262.8</ele>
        <time>2024-04-01T10:17:54Z</time>
      </trkpt>
      <trkpt lat="50.02926" lon="4.22763">
        <ele>262.8</ele>
        <time>2024-04-01T10:17:55Z</time>
      </trkpt>
      <trkpt lat="50.02933" lon="4.2276">
        <ele>262.8</ele>
        <time>2024-04-01T10:17:56Z</time>
      </trkpt>
      <trkpt lat="50.0294" lon="4.22758">
        <ele>262.8</ele>
        <time>2024-04-01T10:17:57Z</time>
      </trkpt>
      <trkpt lat="50.02947" lon="4.22756">
        <ele>262.8</ele>
        <time>2024-04-01T10:17:58Z</time>
      </trkpt>
      <trkpt lat="50.02954" lon="4.22754">
        <ele>262.8</ele>
        <time>2024-04-01T10:17:59Z</time>
      </trkpt>
      <trkpt lat="50.02961" lon="4.22751">
        <ele>263</ele>
        <time>2024-04-01T10:18:00Z</time>
      </trkpt>
      <trkpt lat="50.02967" lon="4.22748">
        <ele>263.4</ele>
        <time>2024-04-01T10:18:01Z</time>
      </trkpt>
      <trkpt lat="50.02973" lon="4.22745">
        <ele>263.4</ele>
        <time>2024-04-01T10:18:02Z</time>
      </trkpt>
      <trkpt lat="50.02979" lon="4.22743">
        <ele>263.6</ele>
        <time>2024-04-01T10:18:03Z</time>
      </trkpt>
      <trkpt lat="50.02984" lon="4.2274">
        <ele>263.8</ele>
        <time>2024-04-01T10:18:04Z</time>
      </trkpt>
      <trkpt lat="50.02991" lon="4.22738">
        <ele>264</ele>
        <time>2024-04-01T10:18:05Z</time>
      </trkpt>
      <trkpt lat="50.02997" lon="4.22736">
        <ele>264</ele>
        <time>2024-04-01T10:18:06Z</time>
      </trkpt>
      <trkpt lat="50.03003" lon="4.22733">
        <ele>264.2</ele>
        <time>2024-04-01T10:18:07Z</time>
      </trkpt>
      <trkpt lat="50.03009" lon="4.2273">
        <ele>264.4</ele>
        <time>2024-04-01T10:18:08Z</time>
      </trkpt>
      <trkpt lat="50.03016" lon="4.22727">
        <ele>264.8</ele>
        <time>2024-04-01T10:18:09Z</time>
      </trkpt>
      <trkpt lat="50.03022" lon="4.22725">
        <ele>264.8</ele>
        <time>2024-04-01T10:18:10Z</time>
      </trkpt>
      <trkpt lat="50.03029" lon="4.22723">
        <ele>265.4</ele>
        <time>2024-04-01T10:18:11Z</time>
      </trkpt>
      <trkpt lat="50.03036" lon="4.22721">
        <ele>265.8</ele>
        <time>2024-04-01T10:18:12Z</time>
      </trkpt>
      <trkpt lat="50.03042" lon="4.22718">
        <ele>266.2</ele>
        <time>2024-04-01T10:18:13Z</time>
      </trkpt>
      <trkpt lat="50.03049" lon="4.22716">
        <ele>266.2</ele>
        <time>2024-04-01T10:18:14Z</time>
      </trkpt>
      <trkpt lat="50.03056" lon="4.22714">
        <ele>266.6</ele>
        <time>2024-04-01T10:18:15Z</time>
      </trkpt>
      <trkpt lat="50.03063" lon="4.22711">
        <ele>266.8</ele>
        <time>2024-04-01T10:18:16Z</time>
      </trkpt>
      <trkpt lat="50.03069" lon="4.22708">
        <ele>267</ele>
        <time>2024-04-01T10:18:17Z</time>
      </trkpt>
      <trkpt lat="50.03075" lon="4.22706">
        <ele>267.2</ele>
        <time>2024-04-01T10:18:18Z</time>
      </trkpt>
      <trkpt lat="50.03082" lon="4.22703">
        <ele>267.4</ele>
        <time>2024-04-01T10:18:19Z</time>
      </trkpt>
      <trkpt lat="50.03088" lon="4.22701">
        <ele>267.6</ele>
        <time>2024-04-01T10:18:20Z</time>
      </trkpt>
      <trkpt lat="50.03095" lon="4.22698">
        <ele>267.6</ele>
        <time>2024-04-01T10:18:21Z</time>
      </trkpt>
      <trkpt lat="50.03101" lon="4.22696">
        <ele>267.6</ele>
        <time>2024-04-01T10:18:22Z</time>
      </trkpt>
      <trkpt lat="50.03107" lon="4.22693">
        <ele>267.8</ele>
        <time>2024-04-01T10:18:23Z</time>
      </trkpt>
      <trkpt lat="50.03113" lon="4.22691">
        <ele>267.8</ele>
        <time>2024-04-01T10:18:24Z</time>
      </trkpt>
      <trkpt lat="50.0312" lon="4.22689">
        <ele>267.8</ele>
        <time>2024-04-01T10:18:25Z</time>
      </trkpt>
      <trkpt lat="50.03128" lon="4.22686">
        <ele>267.8</ele>
        <time>2024-04-01T10:18:26Z</time>
      </trkpt>
      <trkpt lat="50.03135" lon="4.22683">
        <ele>267.8</ele>
        <time>2024-04-01T10:18:27Z</time>
      </trkpt>
      <trkpt lat="50.03142" lon="4.2268">
        <ele>267.8</ele>
        <time>2024-04-01T10:18:28Z</time>
      </trkpt>
      <trkpt lat="50.03149" lon="4.22678">
        <ele>267.8</ele>
        <time>2024-04-01T10:18:29Z</time>
      </trkpt>
      <trkpt lat="50.03156" lon="4.22679">
        <ele>267.8</ele>
        <time>2024-04-01T10:18:30Z</time>
      </trkpt>
      <trkpt lat="50.03162" lon="4.22683">
        <ele>267.6</ele>
        <time>2024-04-01T10:18:31Z</time>
      </trkpt>
      <trkpt lat="50.03168" lon="4.22689">
        <ele>267.8</ele>
        <time>2024-04-01T10:18:32Z</time>
      </trkpt>
      <trkpt lat="50.03172" lon="4.22697">
        <ele>267.6</ele>
        <time>2024-04-01T10:18:33Z</time>
      </trkpt>
      <trkpt lat="50.03177" lon="4.22705">
        <ele>267.6</ele>
        <time>2024-04-01T10:18:34Z</time>
      </trkpt>
      <trkpt lat="50.03182" lon="4.22713">
        <ele>267.6</ele>
        <time>2024-04-01T10:18:35Z</time>
      </trkpt>
      <trkpt lat="50.03187" lon="4.22721">
        <ele>267.6</ele>
        <time>2024-04-01T10:18:36Z</time>
      </trkpt>
      <trkpt lat="50.03192" lon="4.22728">
        <ele>267.6</ele>
        <time>2024-04-01T10:18:37Z</time>
      </trkpt>
      <trkpt lat="50.03198" lon="4.22736">
        <ele>267.4</ele>
        <time>2024-04-01T10:18:38Z</time>
      </trkpt>
      <trkpt lat="50.03203" lon="4.22743">
        <ele>267.4</ele>
        <time>2024-04-01T10:18:39Z</time>
      </trkpt>
      <trkpt lat="50.03208" lon="4.22751">
        <ele>267.2</ele>
        <time>2024-04-01T10:18:40Z</time>
      </trkpt>
      <trkpt lat="50.03213" lon="4.22758">
        <ele>267.2</ele>
        <time>2024-04-01T10:18:41Z</time>
      </trkpt>
      <trkpt lat="50.03219" lon="4.22765">
        <ele>267</ele>
        <time>2024-04-01T10:18:42Z</time>
      </trkpt>
      <trkpt lat="50.03225" lon="4.22772">
        <ele>267</ele>
        <time>2024-04-01T10:18:43Z</time>
      </trkpt>
      <trkpt lat="50.03231" lon="4.22779">
        <ele>266.8</ele>
        <time>2024-04-01T10:18:44Z</time>
      </trkpt>
      <trkpt lat="50.03238" lon="4.22785">
        <ele>266.6</ele>
        <time>2024-04-01T10:18:45Z</time>
      </trkpt>
      <trkpt lat="50.03245" lon="4.2279">
        <ele>266.6</ele>
        <time>2024-04-01T10:18:46Z</time>
      </trkpt>
      <trkpt lat="50.03252" lon="4.22795">
        <ele>266.4</ele>
        <time>2024-04-01T10:18:47Z</time>
      </trkpt>
      <trkpt lat="50.03259" lon="4.22801">
        <ele>266.4</ele>
        <time>2024-04-01T10:18:48Z</time>
      </trkpt>
      <trkpt lat="50.03266" lon="4.22806">
        <ele>266.2</ele>
        <time>2024-04-01T10:18:49Z</time>
      </trkpt>
      <trkpt lat="50.03273" lon="4.22811">
        <ele>266</ele>
        <time>2024-04-01T10:18:50Z</time>
      </trkpt>
      <trkpt lat="50.0328" lon="4.22816">
        <ele>266</ele>
        <time>2024-04-01T10:18:51Z</time>
      </trkpt>
      <trkpt lat="50.03287" lon="4.22822">
        <ele>265.8</ele>
        <time>2024-04-01T10:18:52Z</time>
      </trkpt>
      <trkpt lat="50.03295" lon="4.22827">
        <ele>265.8</ele>
        <time>2024-04-01T10:18:53Z</time>
      </trkpt>
      <trkpt lat="50.03302" lon="4.22832">
        <ele>265.8</ele>
        <time>2024-04-01T10:18:54Z</time>
      </trkpt>
      <trkpt lat="50.03309" lon="4.22837">
        <ele>265.8</ele>
        <time>2024-04-01T10:18:55Z</time>
      </trkpt>
      <trkpt lat="50.03316" lon="4.22843">
        <ele>265.6</ele>
        <time>2024-04-01T10:18:56Z</time>
      </trkpt>
      <trkpt lat="50.03324" lon="4.22848">
        <ele>265.4</ele>
        <time>2024-04-01T10:18:57Z</time>
      </trkpt>
      <trkpt lat="50.03331" lon="4.22853">
        <ele>265.4</ele>
        <time>2024-04-01T10:18:58Z</time>
      </trkpt>
      <trkpt lat="50.03339" lon="4.22859">
        <ele>265.4</ele>
        <time>2024-04-01T10:18:59Z</time>
      </trkpt>
      <trkpt lat="50.03346" lon="4.22864">
        <ele>265.4</ele>
        <time>2024-04-01T10:19:00Z</time>
      </trkpt>
      <trkpt lat="50.03353" lon="4.2287">
        <ele>265.4</ele>
        <time>2024-04-01T10:19:01Z</time>
      </trkpt>
      <trkpt lat="50.03361" lon="4.22876">
        <ele>265.2</ele>
        <time>2024-04-01T10:19:02Z</time>
      </trkpt>
      <trkpt lat="50.03368" lon="4.22881">
        <ele>265.2</ele>
        <time>2024-04-01T10:19:03Z</time>
      </trkpt>
      <trkpt lat="50.03376" lon="4.22887">
        <ele>265.2</ele>
        <time>2024-04-01T10:19:04Z</time>
      </trkpt>
      <trkpt lat="50.03384" lon="4.22892">
        <ele>265</ele>
        <time>2024-04-01T10:19:05Z</time>
      </trkpt>
      <trkpt lat="50.03391" lon="4.22898">
        <ele>265</ele>
        <time>2024-04-01T10:19:06Z</time>
      </trkpt>
      <trkpt lat="50.03399" lon="4.22904">
        <ele>265</ele>
        <time>2024-04-01T10:19:07Z</time>
      </trkpt>
      <trkpt lat="50.03407" lon="4.22909">
        <ele>264.8</ele>
        <time>2024-04-01T10:19:08Z</time>
      </trkpt>
      <trkpt lat="50.03415" lon="4.22915">
        <ele>264.6</ele>
        <time>2024-04-01T10:19:09Z</time>
      </trkpt>
      <trkpt lat="50.03422" lon="4.2292">
        <ele>264.6</ele>
        <time>2024-04-01T10:19:10Z</time>
      </trkpt>
      <trkpt lat="50.0343" lon="4.22927">
        <ele>264.4</ele>
        <time>2024-04-01T10:19:11Z</time>
      </trkpt>
      <trkpt lat="50.03438" lon="4.22933">
        <ele>264.4</ele>
        <time>2024-04-01T10:19:12Z</time>
      </trkpt>
      <trkpt lat="50.03445" lon="4.2294">
        <ele>264.2</ele>
        <time>2024-04-01T10:19:13Z</time>
      </trkpt>
      <trkpt lat="50.03452" lon="4.22948">
        <ele>264.2</ele>
        <time>2024-04-01T10:19:14Z</time>
      </trkpt>
      <trkpt lat="50.03457" lon="4.22958">
        <ele>264.2</ele>
        <time>2024-04-01T10:19:15Z</time>
      </trkpt>
      <trkpt lat="50.0346" lon="4.2297">
        <ele>263.8</ele>
        <time>2024-04-01T10:19:16Z</time>
      </trkpt>
      <trkpt lat="50.03464" lon="4.22983">
        <ele>263.6</ele>
        <time>2024-04-01T10:19:17Z</time>
      </trkpt>
      <trkpt lat="50.03468" lon="4.22996">
        <ele>263.2</ele>
        <time>2024-04-01T10:19:18Z</time>
      </trkpt>
      <trkpt lat="50.03473" lon="4.23009">
        <ele>263</ele>
        <time>2024-04-01T10:19:19Z</time>
      </trkpt>
      <trkpt lat="50.0348" lon="4.23021">
        <ele>262.6</ele>
        <time>2024-04-01T10:19:20Z</time>
      </trkpt>
      <trkpt lat="50.03488" lon="4.23031">
        <ele>262</ele>
        <time>2024-04-01T10:19:21Z</time>
      </trkpt>
      <trkpt lat="50.03496" lon="4.23041">
        <ele>261</ele>
        <time>2024-04-01T10:19:22Z</time>
      </trkpt>
      <trkpt lat="50.03504" lon="4.23049">
        <ele>259.8</ele>
        <time>2024-04-01T10:19:23Z</time>
      </trkpt>
      <trkpt lat="50.03513" lon="4.23057">
        <ele>259</ele>
        <time>2024-04-01T10:19:24Z</time>
      </trkpt>
      <trkpt lat="50.03522" lon="4.23065">
        <ele>258.6</ele>
        <time>2024-04-01T10:19:25Z</time>
      </trkpt>
      <trkpt lat="50.03531" lon="4.23072">
        <ele>257.8</ele>
        <time>2024-04-01T10:19:26Z</time>
      </trkpt>
      <trkpt lat="50.0354" lon="4.23079">
        <ele>257.4</ele>
        <time>2024-04-01T10:19:27Z</time>
      </trkpt>
      <trkpt lat="50.03549" lon="4.23086">
        <ele>257.4</ele>
        <time>2024-04-01T10:19:28Z</time>
      </trkpt>
      <trkpt lat="50.03558" lon="4.23093">
        <ele>257</ele>
        <time>2024-04-01T10:19:29Z</time>
      </trkpt>
      <trkpt lat="50.03567" lon="4.231">
        <ele>256.8</ele>
        <time>2024-04-01T10:19:30Z</time>
      </trkpt>
      <trkpt lat="50.03577" lon="4.23106">
        <ele>256.4</ele>
        <time>2024-04-01T10:19:31Z</time>
      </trkpt>
      <trkpt lat="50.03586" lon="4.23113">
        <ele>256</ele>
        <time>2024-04-01T10:19:32Z</time>
      </trkpt>
      <trkpt lat="50.03595" lon="4.2312">
        <ele>255.8</ele>
        <time>2024-04-01T10:19:33Z</time>
      </trkpt>
      <trkpt lat="50.03604" lon="4.23128">
        <ele>255.8</ele>
        <time>2024-04-01T10:19:34Z</time>
      </trkpt>
      <trkpt lat="50.03613" lon="4.23135">
        <ele>255.4</ele>
        <time>2024-04-01T10:19:35Z</time>
      </trkpt>
      <trkpt lat="50.03623" lon="4.23142">
        <ele>255</ele>
        <time>2024-04-01T10:19:36Z</time>
      </trkpt>
      <trkpt lat="50.03632" lon="4.23149">
        <ele>254.2</ele>
        <time>2024-04-01T10:19:37Z</time>
      </trkpt>
      <trkpt lat="50.03641" lon="4.23155">
        <ele>253.8</ele>
        <time>2024-04-01T10:19:38Z</time>
      </trkpt>
      <trkpt lat="50.0365" lon="4.23162">
        <ele>253.2</ele>
        <time>2024-04-01T10:19:39Z</time>
      </trkpt>
      <trkpt lat="50.03658" lon="4.23169">
        <ele>253</ele>
        <time>2024-04-01T10:19:40Z</time>
      </trkpt>
      <trkpt lat="50.03667" lon="4.23175">
        <ele>253</ele>
        <time>2024-04-01T10:19:41Z</time>
      </trkpt>
      <trkpt lat="50.03676" lon="4.23182">
        <ele>252.8</ele>
        <time>2024-04-01T10:19:42Z</time>
      </trkpt>
      <trkpt lat="50.03684" lon="4.23188">
        <ele>252.8</ele>
        <time>2024-04-01T10:19:43Z</time>
      </trkpt>
      <trkpt lat="50.03693" lon="4.23195">
        <ele>252.6</ele>
        <time>2024-04-01T10:19:44Z</time>
      </trkpt>
      <trkpt lat="50.03701" lon="4.23201">
        <ele>252.4</ele>
        <time>2024-04-01T10:19:45Z</time>
      </trkpt>
      <trkpt lat="50.03709" lon="4.23207">
        <ele>252.2</ele>
        <time>2024-04-01T10:19:46Z</time>
      </trkpt>
      <trkpt lat="50.03718" lon="4.23214">
        <ele>252</ele>
        <time>2024-04-01T10:19:47Z</time>
      </trkpt>
      <trkpt lat="50.03726" lon="4.2322">
        <ele>251.8</ele>
        <time>2024-04-01T10:19:48Z</time>
      </trkpt>
      <trkpt lat="50.03734" lon="4.23226">
        <ele>251.6</ele>
        <time>2024-04-01T10:19:49Z</time>
      </trkpt>
      <trkpt lat="50.03742" lon="4.23233">
        <ele>251.4</ele>
        <time>2024-04-01T10:19:50Z</time>
      </trkpt>
      <trkpt lat="50.0375" lon="4.23239">
        <ele>251.4</ele>
        <time>2024-04-01T10:19:51Z</time>
      </trkpt>
      <trkpt lat="50.03759" lon="4.23246">
        <ele>251.6</ele>
        <time>2024-04-01T10:19:52Z</time>
      </trkpt>
      <trkpt lat="50.03766" lon="4.23252">
        <ele>251.2</ele>
        <time>2024-04-01T10:19:53Z</time>
      </trkpt>
      <trkpt lat="50.03774" lon="4.2326">
        <ele>251.4</ele>
        <time>2024-04-01T10:19:54Z</time>
      </trkpt>
      <trkpt lat="50.03782" lon="4.23268">
        <ele>251.4</ele>
        <time>2024-04-01T10:19:55Z</time>
      </trkpt>
      <trkpt lat="50.03789" lon="4.23276">
        <ele>251.2</ele>
        <time>2024-04-01T10:19:56Z</time>
      </trkpt>
      <trkpt lat="50.03796" lon="4.23285">
        <ele>251</ele>
        <time>2024-04-01T10:19:57Z</time>
      </trkpt>
      <trkpt lat="50.03803" lon="4.23294">
        <ele>251.2</ele>
        <time>2024-04-01T10:19:58Z</time>
      </trkpt>
      <trkpt lat="50.03809" lon="4.23304">
        <ele>251.2</ele>
        <time>2024-04-01T10:19:59Z</time>
      </trkpt>
      <trkpt lat="50.03815" lon="4.23315">
        <ele>251.2</ele>
        <time>2024-04-01T10:20:00Z</time>
      </trkpt>
      <trkpt lat="50.0382" lon="4.23326">
        <ele>251</ele>
        <time>2024-04-01T10:20:01Z</time>
      </trkpt>
      <trkpt lat="50.03826" lon="4.23338">
        <ele>251.2</ele>
        <time>2024-04-01T10:20:02Z</time>
      </trkpt>
      <trkpt lat="50.03831" lon="4.23349">
        <ele>251.2</ele>
        <time>2024-04-01T10:20:03Z</time>
      </trkpt>
      <trkpt lat="50.03836" lon="4.23361">
        <ele>251</ele>
        <time>2024-04-01T10:20:04Z</time>
      </trkpt>
      <trkpt lat="50.03841" lon="4.23373">
        <ele>251</ele>
        <time>2024-04-01T10:20:05Z</time>
      </trkpt>
      <trkpt lat="50.03846" lon="4.23385">
        <ele>251.2</ele>
        <time>2024-04-01T10:20:06Z</time>
      </trkpt>
      <trkpt lat="50.03851" lon="4.23398">
        <ele>251.2</ele>
        <time>2024-04-01T10:20:07Z</time>
      </trkpt>
      <trkpt lat="50.03855" lon="4.23411">
        <ele>251</ele>
        <time>2024-04-01T10:20:08Z</time>
      </trkpt>
      <trkpt lat="50.03858" lon="4.23425">
        <ele>250.8</ele>
        <time>2024-04-01T10:20:09Z</time>
      </trkpt>
      <trkpt lat="50.03859" lon="4.2344">
        <ele>251</ele>
        <time>2024-04-01T10:20:10Z</time>
      </trkpt>
      <trkpt lat="50.03858" lon="4.23454">
        <ele>250.4</ele>
        <time>2024-04-01T10:20:11Z</time>
      </trkpt>
      <trkpt lat="50.03855" lon="4.23469">
        <ele>250.2</ele>
        <time>2024-04-01T10:20:12Z</time>
      </trkpt>
      <trkpt lat="50.03852" lon="4.23484">
        <ele>249.8</ele>
        <time>2024-04-01T10:20:13Z</time>
      </trkpt>
      <trkpt lat="50.03849" lon="4.23499">
        <ele>249.8</ele>
        <time>2024-04-01T10:20:14Z</time>
      </trkpt>
      <trkpt lat="50.03845" lon="4.23513">
        <ele>249.2</ele>
        <time>2024-04-01T10:20:15Z</time>
      </trkpt>
      <trkpt lat="50.03842" lon="4.23527">
        <ele>249.2</ele>
        <time>2024-04-01T10:20:16Z</time>
      </trkpt>
      <trkpt lat="50.03839" lon="4.23542">
        <ele>248.8</ele>
        <time>2024-04-01T10:20:17Z</time>
      </trkpt>
      <trkpt lat="50.03837" lon="4.23556">
        <ele>248.2</ele>
        <time>2024-04-01T10:20:18Z</time>
      </trkpt>
      <trkpt lat="50.03834" lon="4.23571">
        <ele>247</ele>
        <time>2024-04-01T10:20:19Z</time>
      </trkpt>
      <trkpt lat="50.03831" lon="4.23585">
        <ele>246.4</ele>
        <time>2024-04-01T10:20:20Z</time>
      </trkpt>
      <trkpt lat="50.03829" lon="4.23599">
        <ele>245.8</ele>
        <time>2024-04-01T10:20:21Z</time>
      </trkpt>
      <trkpt lat="50.03826" lon="4.23613">
        <ele>245.2</ele>
        <time>2024-04-01T10:20:22Z</time>
      </trkpt>
      <trkpt lat="50.03823" lon="4.23627">
        <ele>244.8</ele>
        <time>2024-04-01T10:20:23Z</time>
      </trkpt>
      <trkpt lat="50.03822" lon="4.23641">
        <ele>244.6</ele>
        <time>2024-04-01T10:20:24Z</time>
      </trkpt>
      <trkpt lat="50.03821" lon="4.23655">
        <ele>244.6</ele>
        <time>2024-04-01T10:20:25Z</time>
      </trkpt>
      <trkpt lat="50.03822" lon="4.2367">
        <ele>244.6</ele>
        <time>2024-04-01T10:20:26Z</time>
      </trkpt>
      <trkpt lat="50.03825" lon="4.23684">
        <ele>244.2</ele>
        <time>2024-04-01T10:20:27Z</time>
      </trkpt>
      <trkpt lat="50.03828" lon="4.23698">
        <ele>244.2</ele>
        <time>2024-04-01T10:20:28Z</time>
      </trkpt>
      <trkpt lat="50.03831" lon="4.23712">
        <ele>244</ele>
        <time>2024-04-01T10:20:29Z</time>
      </trkpt>
      <trkpt lat="50.03833" lon="4.23727">
        <ele>243.6</ele>
        <time>2024-04-01T10:20:30Z</time>
      </trkpt>
      <trkpt lat="50.03834" lon="4.23741">
        <ele>243.2</ele>
        <time>2024-04-01T10:20:31Z</time>
      </trkpt>
      <trkpt lat="50.03834" lon="4.23756">
        <ele>243</ele>
        <time>2024-04-01T10:20:32Z</time>
      </trkpt>
      <trkpt lat="50.03834" lon="4.2377">
        <ele>242.8</ele>
        <time>2024-04-01T10:20:33Z</time>
      </trkpt>
      <trkpt lat="50.03834" lon="4.23785">
        <ele>242.6</ele>
        <time>2024-04-01T10:20:34Z</time>
      </trkpt>
      <trkpt lat="50.03832" lon="4.238">
        <ele>242.6</ele>
        <time>2024-04-01T10:20:35Z</time>
      </trkpt>
      <trkpt lat="50.0383" lon="4.23815">
        <ele>242.6</ele>
        <time>2024-04-01T10:20:36Z</time>
      </trkpt>
      <trkpt lat="50.03827" lon="4.23829">
        <ele>242.6</ele>
        <time>2024-04-01T10:20:37Z</time>
      </trkpt>
      <trkpt lat="50.03822" lon="4.23843">
        <ele>242</ele>
        <time>2024-04-01T10:20:38Z</time>
      </trkpt>
      <trkpt lat="50.03816" lon="4.23855">
        <ele>241.8</ele>
        <time>2024-04-01T10:20:39Z</time>
      </trkpt>
      <trkpt lat="50.03809" lon="4.23866">
        <ele>241.4</ele>
        <time>2024-04-01T10:20:40Z</time>
      </trkpt>
      <trkpt lat="50.03802" lon="4.23876">
        <ele>241</ele>
        <time>2024-04-01T10:20:41Z</time>
      </trkpt>
      <trkpt lat="50.03794" lon="4.23887">
        <ele>241</ele>
        <time>2024-04-01T10:20:42Z</time>
      </trkpt>
      <trkpt lat="50.03787" lon="4.23897">
        <ele>240.6</ele>
        <time>2024-04-01T10:20:43Z</time>
      </trkpt>
      <trkpt lat="50.03779" lon="4.23908">
        <ele>240.2</ele>
        <time>2024-04-01T10:20:44Z</time>
      </trkpt>
      <trkpt lat="50.03772" lon="4.23919">
        <ele>239.6</ele>
        <time>2024-04-01T10:20:45Z</time>
      </trkpt>
      <trkpt lat="50.03765" lon="4.23931">
        <ele>238.8</ele>
        <time>2024-04-01T10:20:46Z</time>
      </trkpt>
      <trkpt lat="50.03758" lon="4.23942">
        <ele>237.8</ele>
        <time>2024-04-01T10:20:47Z</time>
      </trkpt>
      <trkpt lat="50.03751" lon="4.23954">
        <ele>237.2</ele>
        <time>2024-04-01T10:20:48Z</time>
      </trkpt>
      <trkpt lat="50.03744" lon="4.23966">
        <ele>236.4</ele>
        <time>2024-04-01T10:20:49Z</time>
      </trkpt>
      <trkpt lat="50.03737" lon="4.23977">
        <ele>236</ele>
        <time>2024-04-01T10:20:50Z</time>
      </trkpt>
      <trkpt lat="50.03731" lon="4.23989">
        <ele>235.8</ele>
        <time>2024-04-01T10:20:51Z</time>
      </trkpt>
      <trkpt lat="50.03724" lon="4.24001">
        <ele>235.8</ele>
        <time>2024-04-01T10:20:52Z</time>
      </trkpt>
      <trkpt lat="50.03717" lon="4.24013">
        <ele>235.4</ele>
        <time>2024-04-01T10:20:53Z</time>
      </trkpt>
      <trkpt lat="50.03711" lon="4.24024">
        <ele>235.2</ele>
        <time>2024-04-01T10:20:54Z</time>
      </trkpt>
      <trkpt lat="50.03704" lon="4.24036">
        <ele>234.8</ele>
        <time>2024-04-01T10:20:55Z</time>
      </trkpt>
      <trkpt lat="50.03697" lon="4.24047">
        <ele>234.6</ele>
        <time>2024-04-01T10:20:56Z</time>
      </trkpt>
      <trkpt lat="50.0369" lon="4.24057">
        <ele>234.2</ele>
        <time>2024-04-01T10:20:57Z</time>
      </trkpt>
      <trkpt lat="50.03683" lon="4.24067">
        <ele>233.8</ele>
        <time>2024-04-01T10:20:58Z</time>
      </trkpt>
      <trkpt lat="50.03676" lon="4.24076">
        <ele>233.2</ele>
        <time>2024-04-01T10:20:59Z</time>
      </trkpt>
      <trkpt lat="50.03669" lon="4.24085">
        <ele>232.8</ele>
        <time>2024-04-01T10:21:00Z</time>
      </trkpt>
      <trkpt lat="50.03662" lon="4.24093">
        <ele>232.6</ele>
        <time>2024-04-01T10:21:01Z</time>
      </trkpt>
      <trkpt lat="50.03654" lon="4.24101">
        <ele>232</ele>
        <time>2024-04-01T10:21:02Z</time>
      </trkpt>
      <trkpt lat="50.03647" lon="4.24109">
        <ele>231.6</ele>
        <time>2024-04-01T10:21:03Z</time>
      </trkpt>
      <trkpt lat="50.0364" lon="4.24116">
        <ele>231.4</ele>
        <time>2024-04-01T10:21:04Z</time>
      </trkpt>
      <trkpt lat="50.03633" lon="4.24123">
        <ele>231</ele>
        <time>2024-04-01T10:21:05Z</time>
      </trkpt>
      <trkpt lat="50.03625" lon="4.2413">
        <ele>230.6</ele>
        <time>2024-04-01T10:21:06Z</time>
      </trkpt>
      <trkpt lat="50.03618" lon="4.24136">
        <ele>230.6</ele>
        <time>2024-04-01T10:21:07Z</time>
      </trkpt>
      <trkpt lat="50.0361" lon="4.24142">
        <ele>230.4</ele>
        <time>2024-04-01T10:21:08Z</time>
      </trkpt>
      <trkpt lat="50.03603" lon="4.24147">
        <ele>230.6</ele>
        <time>2024-04-01T10:21:09Z</time>
      </trkpt>
      <trkpt lat="50.03595" lon="4.24152">
        <ele>230.6</ele>
        <time>2024-04-01T10:21:10Z</time>
      </trkpt>
      <trkpt lat="50.03587" lon="4.24157">
        <ele>230.6</ele>
        <time>2024-04-01T10:21:11Z</time>
      </trkpt>
      <trkpt lat="50.03579" lon="4.24161">
        <ele>230.4</ele>
        <time>2024-04-01T10:21:12Z</time>
      </trkpt>
      <trkpt lat="50.03571" lon="4.24165">
        <ele>230.6</ele>
        <time>2024-04-01T10:21:13Z</time>
      </trkpt>
      <trkpt lat="50.03564" lon="4.2417">
        <ele>230.6</ele>
        <time>2024-04-01T10:21:14Z</time>
      </trkpt>
      <trkpt lat="50.03556" lon="4.24174">
        <ele>230.6</ele>
        <time>2024-04-01T10:21:15Z</time>
      </trkpt>
      <trkpt lat="50.03548" lon="4.24179">
        <ele>230.6</ele>
        <time>2024-04-01T10:21:16Z</time>
      </trkpt>
      <trkpt lat="50.03541" lon="4.24183">
        <ele>230.8</ele>
        <time>2024-04-01T10:21:17Z</time>
      </trkpt>
      <trkpt lat="50.03534" lon="4.24188">
        <ele>231.2</ele>
        <time>2024-04-01T10:21:18Z</time>
      </trkpt>
      <trkpt lat="50.03527" lon="4.24193">
        <ele>231.8</ele>
        <time>2024-04-01T10:21:19Z</time>
      </trkpt>
      <trkpt lat="50.0352" lon="4.24199">
        <ele>231.8</ele>
        <time>2024-04-01T10:21:20Z</time>
      </trkpt>
      <trkpt lat="50.03513" lon="4.24205">
        <ele>232</ele>
        <time>2024-04-01T10:21:21Z</time>
      </trkpt>
      <trkpt lat="50.03507" lon="4.24211">
        <ele>231.8</ele>
        <time>2024-04-01T10:21:22Z</time>
      </trkpt>
      <trkpt lat="50.03501" lon="4.24217">
        <ele>232</ele>
        <time>2024-04-01T10:21:23Z</time>
      </trkpt>
      <trkpt lat="50.03495" lon="4.24223">
        <ele>232</ele>
        <time>2024-04-01T10:21:24Z</time>
      </trkpt>
      <trkpt lat="50.03489" lon="4.24229">
        <ele>232</ele>
        <time>2024-04-01T10:21:25Z</time>
      </trkpt>
      <trkpt lat="50.03483" lon="4.24235">
        <ele>232</ele>
        <time>2024-04-01T10:21:26Z</time>
      </trkpt>
      <trkpt lat="50.03478" lon="4.24241">
        <ele>232.2</ele>
        <time>2024-04-01T10:21:27Z</time>
      </trkpt>
      <trkpt lat="50.03472" lon="4.24247">
        <ele>232.2</ele>
        <time>2024-04-01T10:21:28Z</time>
      </trkpt>
      <trkpt lat="50.03467" lon="4.24253">
        <ele>232.2</ele>
        <time>2024-04-01T10:21:29Z</time>
      </trkpt>
      <trkpt lat="50.03462" lon="4.24258">
        <ele>232.2</ele>
        <time>2024-04-01T10:21:30Z</time>
      </trkpt>
      <trkpt lat="50.03456" lon="4.24263">
        <ele>232.2</ele>
        <time>2024-04-01T10:21:31Z</time>
      </trkpt>
      <trkpt lat="50.03451" lon="4.24269">
        <ele>232.2</ele>
        <time>2024-04-01T10:21:32Z</time>
      </trkpt>
      <trkpt lat="50.03446" lon="4.24274">
        <ele>232.2</ele>
        <time>2024-04-01T10:21:33Z</time>
      </trkpt>
      <trkpt lat="50.03442" lon="4.24279">
        <ele>232.4</ele>
        <time>2024-04-01T10:21:34Z</time>
      </trkpt>
      <trkpt lat="50.03437" lon="4.24284">
        <ele>232.2</ele>
        <time>2024-04-01T10:21:35Z</time>
      </trkpt>
      <trkpt lat="50.03432" lon="4.24288">
        <ele>232.8</ele>
        <time>2024-04-01T10:21:36Z</time>
      </trkpt>
      <trkpt lat="50.03428" lon="4.24293">
        <ele>233</ele>
        <time>2024-04-01T10:21:37Z</time>
      </trkpt>
      <trkpt lat="50.03423" lon="4.24298">
        <ele>233.6</ele>
        <time>2024-04-01T10:21:38Z</time>
      </trkpt>
      <trkpt lat="50.03419" lon="4.24303">
        <ele>234</ele>
        <time>2024-04-01T10:21:39Z</time>
      </trkpt>
      <trkpt lat="50.03415" lon="4.24308">
        <ele>234.6</ele>
        <time>2024-04-01T10:21:40Z</time>
      </trkpt>
      <trkpt lat="50.0341" lon="4.24313">
        <ele>234.8</ele>
        <time>2024-04-01T10:21:41Z</time>
      </trkpt>
      <trkpt lat="50.03406" lon="4.24318">
        <ele>235.4</ele>
        <time>2024-04-01T10:21:42Z</time>
      </trkpt>
      <trkpt lat="50.03402" lon="4.24323">
        <ele>235.6</ele>
        <time>2024-04-01T10:21:43Z</time>
      </trkpt>
      <trkpt lat="50.03398" lon="4.24328">
        <ele>236</ele>
        <time>2024-04-01T10:21:44Z</time>
      </trkpt>
      <trkpt lat="50.03394" lon="4.24333">
        <ele>236</ele>
        <time>2024-04-01T10:21:45Z</time>
      </trkpt>
      <trkpt lat="50.0339" lon="4.24338">
        <ele>236.6</ele>
        <time>2024-04-01T10:21:46Z</time>
      </trkpt>
      <trkpt lat="50.03386" lon="4.24343">
        <ele>237</ele>
        <time>2024-04-01T10:21:47Z</time>
      </trkpt>
      <trkpt lat="50.03382" lon="4.24348">
        <ele>237.2</ele>
        <time>2024-04-01T10:21:48Z</time>
      </trkpt>
      <trkpt lat="50.03378" lon="4.24352">
        <ele>237.6</ele>
        <time>2024-04-01T10:21:49Z</time>
      </trkpt>
      <trkpt lat="50.03373" lon="4.24357">
        <ele>238.4</ele>
        <time>2024-04-01T10:21:50Z</time>
      </trkpt>
      <trkpt lat="50.03369" lon="4.24362">
        <ele>239.2</ele>
        <time>2024-04-01T10:21:51Z</time>
      </trkpt>
      <trkpt lat="50.03365" lon="4.24367">
        <ele>239.6</ele>
        <time>2024-04-01T10:21:52Z</time>
      </trkpt>
      <trkpt lat="50.0336" lon="4.24371">
        <ele>239.8</ele>
        <time>2024-04-01T10:21:53Z</time>
      </trkpt>
      <trkpt lat="50.03356" lon="4.24376">
        <ele>240.4</ele>
        <time>2024-04-01T10:21:54Z</time>
      </trkpt>
      <trkpt lat="50.03352" lon="4.24381">
        <ele>240.4</ele>
        <time>2024-04-01T10:21:55Z</time>
      </trkpt>
      <trkpt lat="50.03347" lon="4.24386">
        <ele>240.6</ele>
        <time>2024-04-01T10:21:56Z</time>
      </trkpt>
      <trkpt lat="50.03343" lon="4.24391">
        <ele>240.8</ele>
        <time>2024-04-01T10:21:57Z</time>
      </trkpt>
      <trkpt lat="50.03339" lon="4.24396">
        <ele>241.2</ele>
        <time>2024-04-01T10:21:58Z</time>
      </trkpt>
      <trkpt lat="50.03335" lon="4.24401">
        <ele>241.4</ele>
        <time>2024-04-01T10:21:59Z</time>
      </trkpt>
      <trkpt lat="50.0333" lon="4.24405">
        <ele>241.6</ele>
        <time>2024-04-01T10:22:00Z</time>
      </trkpt>
      <trkpt lat="50.03326" lon="4.2441">
        <ele>241.6</ele>
        <time>2024-04-01T10:22:01Z</time>
      </trkpt>
      <trkpt lat="50.03321" lon="4.24415">
        <ele>241.6</ele>
        <time>2024-04-01T10:22:02Z</time>
      </trkpt>
      <trkpt lat="50.03317" lon="4.2442">
        <ele>241.8</ele>
        <time>2024-04-01T10:22:03Z</time>
      </trkpt>
      <trkpt lat="50.03312" lon="4.24424">
        <ele>242.2</ele>
        <time>2024-04-01T10:22:04Z</time>
      </trkpt>
      <trkpt lat="50.03308" lon="4.24429">
        <ele>242.4</ele>
        <time>2024-04-01T10:22:05Z</time>
      </trkpt>
      <trkpt lat="50.03303" lon="4.24433">
        <ele>242.8</ele>
        <time>2024-04-01T10:22:06Z</time>
      </trkpt>
      <trkpt lat="50.03298" lon="4.24437">
        <ele>242.8</ele>
        <time>2024-04-01T10:22:07Z</time>
      </trkpt>
      <trkpt lat="50.03294" lon="4.24441">
        <ele>242.8</ele>
        <time>2024-04-01T10:22:08Z</time>
      </trkpt>
      <trkpt lat="50.03289" lon="4.24446">
        <ele>243</ele>
        <time>2024-04-01T10:22:09Z</time>
      </trkpt>
      <trkpt lat="50.03284" lon="4.2445">
        <ele>243</ele>
        <time>2024-04-01T10:22:10Z</time>
      </trkpt>
      <trkpt lat="50.03279" lon="4.24454">
        <ele>243</ele>
        <time>2024-04-01T10:22:11Z</time>
      </trkpt>
      <trkpt lat="50.03275" lon="4.24458">
        <ele>243.2</ele>
        <time>2024-04-01T10:22:12Z</time>
      </trkpt>
      <trkpt lat="50.0327" lon="4.24462">
        <ele>243.2</ele>
        <time>2024-04-01T10:22:13Z</time>
      </trkpt>
      <trkpt lat="50.03265" lon="4.24467">
        <ele>243.4</ele>
        <time>2024-04-01T10:22:14Z</time>
      </trkpt>
      <trkpt lat="50.0326" lon="4.24471">
        <ele>243.4</ele>
        <time>2024-04-01T10:22:15Z</time>
      </trkpt>
      <trkpt lat="50.03255" lon="4.24475">
        <ele>243.4</ele>
        <time>2024-04-01T10:22:16Z</time>
      </trkpt>
      <trkpt lat="50.03251" lon="4.24479">
        <ele>243.4</ele>
        <time>2024-04-01T10:22:17Z</time>
      </trkpt>
      <trkpt lat="50.03246" lon="4.24484">
        <ele>243.4</ele>
        <time>2024-04-01T10:22:18Z</time>
      </trkpt>
      <trkpt lat="50.03242" lon="4.24489">
        <ele>243.6</ele>
        <time>2024-04-01T10:22:19Z</time>
      </trkpt>
      <trkpt lat="50.03238" lon="4.24494">
        <ele>243.6</ele>
        <time>2024-04-01T10:22:20Z</time>
      </trkpt>
      <trkpt lat="50.03234" lon="4.24499">
        <ele>243.4</ele>
        <time>2024-04-01T10:22:21Z</time>
      </trkpt>
      <trkpt lat="50.0323" lon="4.24505">
        <ele>243.6</ele>
        <time>2024-04-01T10:22:22Z</time>
      </trkpt>
      <trkpt lat="50.03226" lon="4.2451">
        <ele>243.6</ele>
        <time>2024-04-01T10:22:23Z</time>
      </trkpt>
      <trkpt lat="50.03222" lon="4.24516">
        <ele>243.6</ele>
        <time>2024-04-01T10:22:24Z</time>
      </trkpt>
      <trkpt lat="50.03219" lon="4.24522">
        <ele>243.6</ele>
        <time>2024-04-01T10:22:25Z</time>
      </trkpt>
      <trkpt lat="50.03216" lon="4.24528">
        <ele>243.6</ele>
        <time>2024-04-01T10:22:26Z</time>
      </trkpt>
      <trkpt lat="50.03213" lon="4.24533">
        <ele>243.6</ele>
        <time>2024-04-01T10:22:27Z</time>
      </trkpt>
      <trkpt lat="50.0321" lon="4.24539">
        <ele>243.8</ele>
        <time>2024-04-01T10:22:28Z</time>
      </trkpt>
      <trkpt lat="50.03207" lon="4.24544">
        <ele>244</ele>
        <time>2024-04-01T10:22:29Z</time>
      </trkpt>
      <trkpt lat="50.03204" lon="4.2455">
        <ele>244.2</ele>
        <time>2024-04-01T10:22:30Z</time>
      </trkpt>
      <trkpt lat="50.03201" lon="4.24556">
        <ele>244.4</ele>
        <time>2024-04-01T10:22:31Z</time>
      </trkpt>
      <trkpt lat="50.03198" lon="4.24562">
        <ele>244.6</ele>
        <time>2024-04-01T10:22:32Z</time>
      </trkpt>
      <trkpt lat="50.03195" lon="4.24568">
        <ele>245.4</ele>
        <time>2024-04-01T10:22:33Z</time>
      </trkpt>
      <trkpt lat="50.03192" lon="4.24574">
        <ele>246</ele>
        <time>2024-04-01T10:22:34Z</time>
      </trkpt>
      <trkpt lat="50.0319" lon="4.2458">
        <ele>246.2</ele>
        <time>2024-04-01T10:22:35Z</time>
      </trkpt>
      <trkpt lat="50.03187" lon="4.24586">
        <ele>246.4</ele>
        <time>2024-04-01T10:22:36Z</time>
      </trkpt>
      <trkpt lat="50.03184" lon="4.24593">
        <ele>246.4</ele>
        <time>2024-04-01T10:22:37Z</time>
      </trkpt>
      <trkpt lat="50.03181" lon="4.24599">
        <ele>246.8</ele>
        <time>2024-04-01T10:22:38Z</time>
      </trkpt>
      <trkpt lat="50.03177" lon="4.24605">
        <ele>247</ele>
        <time>2024-04-01T10:22:39Z</time>
      </trkpt>
      <trkpt lat="50.03175" lon="4.24611">
        <ele>247.2</ele>
        <time>2024-04-01T10:22:40Z</time>
      </trkpt>
      <trkpt lat="50.03172" lon="4.24617">
        <ele>247.6</ele>
        <time>2024-04-01T10:22:41Z</time>
      </trkpt>
      <trkpt lat="50.03169" lon="4.24622">
        <ele>248</ele>
        <time>2024-04-01T10:22:42Z</time>
      </trkpt>
      <trkpt lat="50.03166" lon="4.24629">
        <ele>248.4</ele>
        <time>2024-04-01T10:22:43Z</time>
      </trkpt>
      <trkpt lat="50.03163" lon="4.24635">
        <ele>248.8</ele>
        <time>2024-04-01T10:22:44Z</time>
      </trkpt>
      <trkpt lat="50.0316" lon="4.2464">
        <ele>249.2</ele>
        <time>2024-04-01T10:22:45Z</time>
      </trkpt>
      <trkpt lat="50.03157" lon="4.24646">
        <ele>249.4</ele>
        <time>2024-04-01T10:22:46Z</time>
      </trkpt>
      <trkpt lat="50.03154" lon="4.24651">
        <ele>249.6</ele>
        <time>2024-04-01T10:22:47Z</time>
      </trkpt>
      <trkpt lat="50.03151" lon="4.24657">
        <ele>249.8</ele>
        <time>2024-04-01T10:22:48Z</time>
      </trkpt>
      <trkpt lat="50.03148" lon="4.24663">
        <ele>249.6</ele>
        <time>2024-04-01T10:22:49Z</time>
      </trkpt>
      <trkpt lat="50.03145" lon="4.24669">
        <ele>249.8</ele>
        <time>2024-04-01T10:22:50Z</time>
      </trkpt>
      <trkpt lat="50.03142" lon="4.24675">
        <ele>250</ele>
        <time>2024-04-01T10:22:51Z</time>
      </trkpt>
      <trkpt lat="50.03139" lon="4.24681">
        <ele>250.2</ele>
        <time>2024-04-01T10:22:52Z</time>
      </trkpt>
      <trkpt lat="50.03136" lon="4.24687">
        <ele>250.4</ele>
        <time>2024-04-01T10:22:53Z</time>
      </trkpt>
      <trkpt lat="50.03133" lon="4.24693">
        <ele>250.4</ele>
        <time>2024-04-01T10:22:54Z</time>
      </trkpt>
      <trkpt lat="50.0313" lon="4.24699">
        <ele>250.6</ele>
        <time>2024-04-01T10:22:55Z</time>
      </trkpt>
      <trkpt lat="50.03127" lon="4.24705">
        <ele>250.8</ele>
        <time>2024-04-01T10:22:56Z</time>
      </trkpt>
      <trkpt lat="50.03124" lon="4.24711">
        <ele>250.8</ele>
        <time>2024-04-01T10:22:57Z</time>
      </trkpt>
      <trkpt lat="50.03121" lon="4.24717">
        <ele>251</ele>
        <time>2024-04-01T10:22:58Z</time>
      </trkpt>
      <trkpt lat="50.03117" lon="4.24724">
        <ele>251</ele>
        <time>2024-04-01T10:22:59Z</time>
      </trkpt>
      <trkpt lat="50.03114" lon="4.2473">
        <ele>251</ele>
        <time>2024-04-01T10:23:00Z</time>
      </trkpt>
      <trkpt lat="50.03111" lon="4.24737">
        <ele>251</ele>
        <time>2024-04-01T10:23:01Z</time>
      </trkpt>
      <trkpt lat="50.03108" lon="4.24743">
        <ele>251</ele>
        <time>2024-04-01T10:23:02Z</time>
      </trkpt>
      <trkpt lat="50.03105" lon="4.2475">
        <ele>251.2</ele>
        <time>2024-04-01T10:23:03Z</time>
      </trkpt>
      <trkpt lat="50.03101" lon="4.24756">
        <ele>251.2</ele>
        <time>2024-04-01T10:23:04Z</time>
      </trkpt>
      <trkpt lat="50.03098" lon="4.24763">
        <ele>251.2</ele>
        <time>2024-04-01T10:23:05Z</time>
      </trkpt>
      <trkpt lat="50.03095" lon="4.24769">
        <ele>251</ele>
        <time>2024-04-01T10:23:06Z</time>
      </trkpt>
      <trkpt lat="50.03092" lon="4.24776">
        <ele>250.8</ele>
        <time>2024-04-01T10:23:07Z</time>
      </trkpt>
      <trkpt lat="50.03089" lon="4.24782">
        <ele>250.8</ele>
        <time>2024-04-01T10:23:08Z</time>
      </trkpt>
      <trkpt lat="50.03085" lon="4.24788">
        <ele>250.8</ele>
        <time>2024-04-01T10:23:09Z</time>
      </trkpt>
      <trkpt lat="50.03082" lon="4.24794">
        <ele>250.8</ele>
        <time>2024-04-01T10:23:10Z</time>
      </trkpt>
      <trkpt lat="50.03078" lon="4.248">
        <ele>250.6</ele>
        <time>2024-04-01T10:23:11Z</time>
      </trkpt>
      <trkpt lat="50.03075" lon="4.24805">
        <ele>250.6</ele>
        <time>2024-04-01T10:23:12Z</time>
      </trkpt>
      <trkpt lat="50.03071" lon="4.2481">
        <ele>250.6</ele>
        <time>2024-04-01T10:23:13Z</time>
      </trkpt>
      <trkpt lat="50.03068" lon="4.24816">
        <ele>250.4</ele>
        <time>2024-04-01T10:23:14Z</time>
      </trkpt>
      <trkpt lat="50.03067" lon="4.24822">
        <ele>250.4</ele>
        <time>2024-04-01T10:23:15Z</time>
      </trkpt>
      <trkpt lat="50.03066" lon="4.24829">
        <ele>250.2</ele>
        <time>2024-04-01T10:23:16Z</time>
      </trkpt>
      <trkpt lat="50.03066" lon="4.24837">
        <ele>250.2</ele>
        <time>2024-04-01T10:23:17Z</time>
      </trkpt>
      <trkpt lat="50.03067" lon="4.24845">
        <ele>250.4</ele>
        <time>2024-04-01T10:23:18Z</time>
      </trkpt>
      <trkpt lat="50.03068" lon="4.24854">
        <ele>250.4</ele>
        <time>2024-04-01T10:23:19Z</time>
      </trkpt>
      <trkpt lat="50.0307" lon="4.24862">
        <ele>250.4</ele>
        <time>2024-04-01T10:23:20Z</time>
      </trkpt>
      <trkpt lat="50.03072" lon="4.24871">
        <ele>250.6</ele>
        <time>2024-04-01T10:23:21Z</time>
      </trkpt>
      <trkpt lat="50.03074" lon="4.2488">
        <ele>250.4</ele>
        <time>2024-04-01T10:23:22Z</time>
      </trkpt>
      <trkpt lat="50.03076" lon="4.2489">
        <ele>250.6</ele>
        <time>2024-04-01T10:23:23Z</time>
      </trkpt>
      <trkpt lat="50.03078" lon="4.249">
        <ele>250.6</ele>
        <time>2024-04-01T10:23:24Z</time>
      </trkpt>
      <trkpt lat="50.0308" lon="4.2491">
        <ele>250.6</ele>
        <time>2024-04-01T10:23:25Z</time>
      </trkpt>
      <trkpt lat="50.03082" lon="4.2492">
        <ele>250.6</ele>
        <time>2024-04-01T10:23:26Z</time>
      </trkpt>
      <trkpt lat="50.03084" lon="4.2493">
        <ele>250.6</ele>
        <time>2024-04-01T10:23:27Z</time>
      </trkpt>
      <trkpt lat="50.03086" lon="4.24941">
        <ele>250.6</ele>
        <time>2024-04-01T10:23:28Z</time>
      </trkpt>
      <trkpt lat="50.03088" lon="4.24951">
        <ele>250.6</ele>
        <time>2024-04-01T10:23:29Z</time>
      </trkpt>
      <trkpt lat="50.0309" lon="4.24962">
        <ele>250.6</ele>
        <time>2024-04-01T10:23:30Z</time>
      </trkpt>
      <trkpt lat="50.03092" lon="4.24972">
        <ele>250.6</ele>
        <time>2024-04-01T10:23:31Z</time>
      </trkpt>
      <trkpt lat="50.03094" lon="4.24983">
        <ele>250.6</ele>
        <time>2024-04-01T10:23:32Z</time>
      </trkpt>
      <trkpt lat="50.03096" lon="4.24993">
        <ele>250.6</ele>
        <time>2024-04-01T10:23:33Z</time>
      </trkpt>
      <trkpt lat="50.03098" lon="4.25004">
        <ele>250.6</ele>
        <time>2024-04-01T10:23:34Z</time>
      </trkpt>
      <trkpt lat="50.03101" lon="4.25015">
        <ele>250.6</ele>
        <time>2024-04-01T10:23:35Z</time>
      </trkpt>
      <trkpt lat="50.03103" lon="4.25026">
        <ele>250.6</ele>
        <time>2024-04-01T10:23:36Z</time>
      </trkpt>
      <trkpt lat="50.03105" lon="4.25037">
        <ele>250.4</ele>
        <time>2024-04-01T10:23:37Z</time>
      </trkpt>
      <trkpt lat="50.03108" lon="4.25048">
        <ele>250.4</ele>
        <time>2024-04-01T10:23:38Z</time>
      </trkpt>
      <trkpt lat="50.0311" lon="4.2506">
        <ele>250.4</ele>
        <time>2024-04-01T10:23:39Z</time>
      </trkpt>
      <trkpt lat="50.03113" lon="4.25071">
        <ele>250.2</ele>
        <time>2024-04-01T10:23:40Z</time>
      </trkpt>
      <trkpt lat="50.03116" lon="4.25082">
        <ele>250.2</ele>
        <time>2024-04-01T10:23:41Z</time>
      </trkpt>
      <trkpt lat="50.03119" lon="4.25093">
        <ele>250.2</ele>
        <time>2024-04-01T10:23:42Z</time>
      </trkpt>
      <trkpt lat="50.03122" lon="4.25104">
        <ele>250</ele>
        <time>2024-04-01T10:23:43Z</time>
      </trkpt>
      <trkpt lat="50.03126" lon="4.25115">
        <ele>250</ele>
        <time>2024-04-01T10:23:44Z</time>
      </trkpt>
      <trkpt lat="50.0313" lon="4.25126">
        <ele>249.8</ele>
        <time>2024-04-01T10:23:45Z</time>
      </trkpt>
      <trkpt lat="50.03134" lon="4.25137">
        <ele>249.8</ele>
        <time>2024-04-01T10:23:46Z</time>
      </trkpt>
      <trkpt lat="50.03138" lon="4.25148">
        <ele>249.4</ele>
        <time>2024-04-01T10:23:47Z</time>
      </trkpt>
      <trkpt lat="50.03142" lon="4.25159">
        <ele>249.2</ele>
        <time>2024-04-01T10:23:48Z</time>
      </trkpt>
      <trkpt lat="50.03146" lon="4.2517">
        <ele>249.2</ele>
        <time>2024-04-01T10:23:49Z</time>
      </trkpt>
      <trkpt lat="50.0315" lon="4.25181">
        <ele>249</ele>
        <time>2024-04-01T10:23:50Z</time>
      </trkpt>
      <trkpt lat="50.03154" lon="4.25192">
        <ele>249</ele>
        <time>2024-04-01T10:23:51Z</time>
      </trkpt>
      <trkpt lat="50.03158" lon="4.25203">
        <ele>248.6</ele>
        <time>2024-04-01T10:23:52Z</time>
      </trkpt>
      <trkpt lat="50.03162" lon="4.25214">
        <ele>248</ele>
        <time>2024-04-01T10:23:53Z</time>
      </trkpt>
      <trkpt lat="50.03166" lon="4.25225">
        <ele>247.8</ele>
        <time>2024-04-01T10:23:54Z</time>
      </trkpt>
      <trkpt lat="50.0317" lon="4.25236">
        <ele>247.4</ele>
        <time>2024-04-01T10:23:55Z</time>
      </trkpt>
      <trkpt lat="50.03174" lon="4.25248">
        <ele>247.2</ele>
        <time>2024-04-01T10:23:56Z</time>
      </trkpt>
      <trkpt lat="50.03179" lon="4.25259">
        <ele>247</ele>
        <time>2024-04-01T10:23:57Z</time>
      </trkpt>
      <trkpt lat="50.03183" lon="4.2527">
        <ele>246.6</ele>
        <time>2024-04-01T10:23:58Z</time>
      </trkpt>
      <trkpt lat="50.03187" lon="4.25282">
        <ele>246.2</ele>
        <time>2024-04-01T10:23:59Z</time>
      </trkpt>
      <trkpt lat="50.03191" lon="4.25293">
        <ele>246.2</ele>
        <time>2024-04-01T10:24:00Z</time>
      </trkpt>
      <trkpt lat="50.03195" lon="4.25305">
        <ele>246.2</ele>
        <time>2024-04-01T10:24:01Z</time>
      </trkpt>
      <trkpt lat="50.03199" lon="4.25316">
        <ele>246</ele>
        <time>2024-04-01T10:24:02Z</time>
      </trkpt>
      <trkpt lat="50.03204" lon="4.25328">
        <ele>246</ele>
        <time>2024-04-01T10:24:03Z</time>
      </trkpt>
      <trkpt lat="50.03208" lon="4.25339">
        <ele>245.6</ele>
        <time>2024-04-01T10:24:04Z</time>
      </trkpt>
      <trkpt lat="50.03212" lon="4.25351">
        <ele>245.2</ele>
        <time>2024-04-01T10:24:05Z</time>
      </trkpt>
      <trkpt lat="50.03216" lon="4.25362">
        <ele>244.8</ele>
        <time>2024-04-01T10:24:06Z</time>
      </trkpt>
      <trkpt lat="50.0322" lon="4.25374">
        <ele>244.8</ele>
        <time>2024-04-01T10:24:07Z</time>
      </trkpt>
      <trkpt lat="50.03224" lon="4.25385">
        <ele>244.8</ele>
        <time>2024-04-01T10:24:08Z</time>
      </trkpt>
      <trkpt lat="50.03228" lon="4.25397">
        <ele>244.6</ele>
        <time>2024-04-01T10:24:09Z</time>
      </trkpt>
      <trkpt lat="50.03232" lon="4.25408">
        <ele>244.4</ele>
        <time>2024-04-01T10:24:10Z</time>
      </trkpt>
      <trkpt lat="50.03236" lon="4.25419">
        <ele>244.2</ele>
        <time>2024-04-01T10:24:11Z</time>
      </trkpt>
      <trkpt lat="50.0324" lon="4.2543">
        <ele>244</ele>
        <time>2024-04-01T10:24:12Z</time>
      </trkpt>
      <trkpt lat="50.03244" lon="4.25441">
        <ele>243.8</ele>
        <time>2024-04-01T10:24:13Z</time>
      </trkpt>
      <trkpt lat="50.03248" lon="4.25453">
        <ele>243.8</ele>
        <time>2024-04-01T10:24:14Z</time>
      </trkpt>
      <trkpt lat="50.03252" lon="4.25464">
        <ele>243.6</ele>
        <time>2024-04-01T10:24:15Z</time>
      </trkpt>
      <trkpt lat="50.03256" lon="4.25475">
        <ele>243.4</ele>
        <time>2024-04-01T10:24:16Z</time>
      </trkpt>
      <trkpt lat="50.0326" lon="4.25486">
        <ele>243.6</ele>
        <time>2024-04-01T10:24:17Z</time>
      </trkpt>
      <trkpt lat="50.03264" lon="4.25497">
        <ele>243.6</ele>
        <time>2024-04-01T10:24:18Z</time>
      </trkpt>
      <trkpt lat="50.03268" lon="4.25508">
        <ele>243.2</ele>
        <time>2024-04-01T10:24:19Z</time>
      </trkpt>
      <trkpt lat="50.03272" lon="4.25519">
        <ele>243.4</ele>
        <time>2024-04-01T10:24:20Z</time>
      </trkpt>
      <trkpt lat="50.03275" lon="4.2553">
        <ele>243.4</ele>
        <time>2024-04-01T10:24:21Z</time>
      </trkpt>
      <trkpt lat="50.03279" lon="4.2554">
        <ele>243.2</ele>
        <time>2024-04-01T10:24:22Z</time>
      </trkpt>
      <trkpt lat="50.03282" lon="4.25551">
        <ele>243</ele>
        <time>2024-04-01T10:24:23Z</time>
      </trkpt>
      <trkpt lat="50.03286" lon="4.25561">
        <ele>243</ele>
        <time>2024-04-01T10:24:24Z</time>
      </trkpt>
      <trkpt lat="50.0329" lon="4.25572">
        <ele>243</ele>
        <time>2024-04-01T10:24:25Z</time>
      </trkpt>
      <trkpt lat="50.03294" lon="4.25583">
        <ele>243</ele>
        <time>2024-04-01T10:24:26Z</time>
      </trkpt>
      <trkpt lat="50.03297" lon="4.25594">
        <ele>242.8</ele>
        <time>2024-04-01T10:24:27Z</time>
      </trkpt>
      <trkpt lat="50.03301" lon="4.25605">
        <ele>242.6</ele>
        <time>2024-04-01T10:24:28Z</time>
      </trkpt>
      <trkpt lat="50.03305" lon="4.25616">
        <ele>242.6</ele>
        <time>2024-04-01T10:24:29Z</time>
      </trkpt>
      <trkpt lat="50.0331" lon="4.25627">
        <ele>242.4</ele>
        <time>2024-04-01T10:24:30Z</time>
      </trkpt>
      <trkpt lat="50.03314" lon="4.25638">
        <ele>242.4</ele>
        <time>2024-04-01T10:24:31Z</time>
      </trkpt>
      <trkpt lat="50.03319" lon="4.2565">
        <ele>242.4</ele>
        <time>2024-04-01T10:24:32Z</time>
      </trkpt>
      <trkpt lat="50.03325" lon="4.25661">
        <ele>242.4</ele>
        <time>2024-04-01T10:24:33Z</time>
      </trkpt>
      <trkpt lat="50.03331" lon="4.25672">
        <ele>242.2</ele>
        <time>2024-04-01T10:24:34Z</time>
      </trkpt>
      <trkpt lat="50.03339" lon="4.25682">
        <ele>242.2</ele>
        <time>2024-04-01T10:24:35Z</time>
      </trkpt>
      <trkpt lat="50.03347" lon="4.25692">
        <ele>242.2</ele>
        <time>2024-04-01T10:24:36Z</time>
      </trkpt>
      <trkpt lat="50.03355" lon="4.25701">
        <ele>242.2</ele>
        <time>2024-04-01T10:24:37Z</time>
      </trkpt>
      <trkpt lat="50.03364" lon="4.25709">
        <ele>242.2</ele>
        <time>2024-04-01T10:24:38Z</time>
      </trkpt>
      <trkpt lat="50.03374" lon="4.25718">
        <ele>242</ele>
        <time>2024-04-01T10:24:39Z</time>
      </trkpt>
      <trkpt lat="50.03383" lon="4.25726">
        <ele>241.8</ele>
        <time>2024-04-01T10:24:40Z</time>
      </trkpt>
      <trkpt lat="50.03393" lon="4.25735">
        <ele>241.6</ele>
        <time>2024-04-01T10:24:41Z</time>
      </trkpt>
      <trkpt lat="50.03403" lon="4.25744">
        <ele>241.2</ele>
        <time>2024-04-01T10:24:42Z</time>
      </trkpt>
      <trkpt lat="50.03413" lon="4.25753">
        <ele>240.4</ele>
        <time>2024-04-01T10:24:43Z</time>
      </trkpt>
      <trkpt lat="50.03423" lon="4.25762">
        <ele>239.8</ele>
        <time>2024-04-01T10:24:44Z</time>
      </trkpt>
      <trkpt lat="50.03433" lon="4.25771">
        <ele>239</ele>
        <time>2024-04-01T10:24:45Z</time>
      </trkpt>
      <trkpt lat="50.03443" lon="4.25779">
        <ele>238</ele>
        <time>2024-04-01T10:24:46Z</time>
      </trkpt>
      <trkpt lat="50.03453" lon="4.25789">
        <ele>237.2</ele>
        <time>2024-04-01T10:24:47Z</time>
      </trkpt>
      <trkpt lat="50.03464" lon="4.25798">
        <ele>236.8</ele>
        <time>2024-04-01T10:24:48Z</time>
      </trkpt>
      <trkpt lat="50.03474" lon="4.25807">
        <ele>236.2</ele>
        <time>2024-04-01T10:24:49Z</time>
      </trkpt>
      <trkpt lat="50.03485" lon="4.25817">
        <ele>235.4</ele>
        <time>2024-04-01T10:24:50Z</time>
      </trkpt>
      <trkpt lat="50.03496" lon="4.25826">
        <ele>235.4</ele>
        <time>2024-04-01T10:24:51Z</time>
      </trkpt>
      <trkpt lat="50.03506" lon="4.25836">
        <ele>234.6</ele>
        <time>2024-04-01T10:24:52Z</time>
      </trkpt>
      <trkpt lat="50.03517" lon="4.25846">
        <ele>234</ele>
        <time>2024-04-01T10:24:53Z</time>
      </trkpt>
      <trkpt lat="50.03528" lon="4.25856">
        <ele>233.2</ele>
        <time>2024-04-01T10:24:54Z</time>
      </trkpt>
      <trkpt lat="50.03539" lon="4.25866">
        <ele>232.6</ele>
        <time>2024-04-01T10:24:55Z</time>
      </trkpt>
      <trkpt lat="50.0355" lon="4.25877">
        <ele>232.4</ele>
        <time>2024-04-01T10:24:56Z</time>
      </trkpt>
      <trkpt lat="50.03561" lon="4.25887">
        <ele>231.4</ele>
        <time>2024-04-01T10:24:57Z</time>
      </trkpt>
      <trkpt lat="50.03571" lon="4.25899">
        <ele>230.8</ele>
        <time>2024-04-01T10:24:58Z</time>
      </trkpt>
      <trkpt lat="50.03581" lon="4.25911">
        <ele>229.8</ele>
        <time>2024-04-01T10:24:59Z</time>
      </trkpt>
      <trkpt lat="50.0359" lon="4.25924">
        <ele>229.2</ele>
        <time>2024-04-01T10:25:00Z</time>
      </trkpt>
      <trkpt lat="50.03599" lon="4.25937">
        <ele>228</ele>
        <time>2024-04-01T10:25:01Z</time>
      </trkpt>
      <trkpt lat="50.03607" lon="4.25952">
        <ele>227.4</ele>
        <time>2024-04-01T10:25:02Z</time>
      </trkpt>
      <trkpt lat="50.03613" lon="4.25967">
        <ele>226.6</ele>
        <time>2024-04-01T10:25:03Z</time>
      </trkpt>
      <trkpt lat="50.03619" lon="4.25984">
        <ele>225.8</ele>
        <time>2024-04-01T10:25:04Z</time>
      </trkpt>
      <trkpt lat="50.03624" lon="4.26">
        <ele>225.4</ele>
        <time>2024-04-01T10:25:05Z</time>
      </trkpt>
      <trkpt lat="50.03628" lon="4.26016">
        <ele>225</ele>
        <time>2024-04-01T10:25:06Z</time>
      </trkpt>
      <trkpt lat="50.0363" lon="4.26032">
        <ele>224.8</ele>
        <time>2024-04-01T10:25:07Z</time>
      </trkpt>
      <trkpt lat="50.03631" lon="4.26049">
        <ele>224.6</ele>
        <time>2024-04-01T10:25:08Z</time>
      </trkpt>
      <trkpt lat="50.03629" lon="4.26065">
        <ele>224.6</ele>
        <time>2024-04-01T10:25:09Z</time>
      </trkpt>
      <trkpt lat="50.03626" lon="4.26079">
        <ele>224.4</ele>
        <time>2024-04-01T10:25:10Z</time>
      </trkpt>
      <trkpt lat="50.03622" lon="4.26092">
        <ele>224</ele>
        <time>2024-04-01T10:25:11Z</time>
      </trkpt>
      <trkpt lat="50.03616" lon="4.26103">
        <ele>223.8</ele>
        <time>2024-04-01T10:25:12Z</time>
      </trkpt>
      <trkpt lat="50.03611" lon="4.26111">
        <ele>223.6</ele>
        <time>2024-04-01T10:25:13Z</time>
      </trkpt>
      <trkpt lat="50.03607" lon="4.26119">
        <ele>223.6</ele>
        <time>2024-04-01T10:25:14Z</time>
      </trkpt>
      <trkpt lat="50.03604" lon="4.26126">
        <ele>223.4</ele>
        <time>2024-04-01T10:25:15Z</time>
      </trkpt>
      <trkpt lat="50.03605" lon="4.26133">
        <ele>222.8</ele>
        <time>2024-04-01T10:25:16Z</time>
      </trkpt>
      <trkpt lat="50.03607" lon="4.2614">
        <ele>222.6</ele>
        <time>2024-04-01T10:25:17Z</time>
      </trkpt>
      <trkpt lat="50.03611" lon="4.26145">
        <ele>222.4</ele>
        <time>2024-04-01T10:25:18Z</time>
      </trkpt>
      <trkpt lat="50.03615" lon="4.26151">
        <ele>222.4</ele>
        <time>2024-04-01T10:25:19Z</time>
      </trkpt>
      <trkpt lat="50.0362" lon="4.26157">
        <ele>222.2</ele>
        <time>2024-04-01T10:25:20Z</time>
      </trkpt>
      <trkpt lat="50.03624" lon="4.26163">
        <ele>222.2</ele>
        <time>2024-04-01T10:25:21Z</time>
      </trkpt>
      <trkpt lat="50.03628" lon="4.26168">
        <ele>222</ele>
        <time>2024-04-01T10:25:22Z</time>
      </trkpt>
      <trkpt lat="50.03632" lon="4.26174">
        <ele>221.8</ele>
        <time>2024-04-01T10:25:23Z</time>
      </trkpt>
      <trkpt lat="50.03636" lon="4.2618">
        <ele>221.4</ele>
        <time>2024-04-01T10:25:24Z</time>
      </trkpt>
      <trkpt lat="50.0364" lon="4.26186">
        <ele>221.6</ele>
        <time>2024-04-01T10:25:25Z</time>
      </trkpt>
      <trkpt lat="50.03644" lon="4.26191">
        <ele>221.4</ele>
        <time>2024-04-01T10:25:26Z</time>
      </trkpt>
      <trkpt lat="50.03648" lon="4.26196">
        <ele>221.2</ele>
        <time>2024-04-01T10:25:27Z</time>
      </trkpt>
      <trkpt lat="50.03652" lon="4.26202">
        <ele>221.2</ele>
        <time>2024-04-01T10:25:28Z</time>
      </trkpt>
      <trkpt lat="50.03656" lon="4.26208">
        <ele>221</ele>
        <time>2024-04-01T10:25:29Z</time>
      </trkpt>
      <trkpt lat="50.0366" lon="4.26215">
        <ele>220.8</ele>
        <time>2024-04-01T10:25:30Z</time>
      </trkpt>
      <trkpt lat="50.03665" lon="4.26222">
        <ele>220.8</ele>
        <time>2024-04-01T10:25:31Z</time>
      </trkpt>
      <trkpt lat="50.03669" lon="4.2623">
        <ele>220.6</ele>
        <time>2024-04-01T10:25:32Z</time>
      </trkpt>
      <trkpt lat="50.03674" lon="4.26237">
        <ele>220.8</ele>
        <time>2024-04-01T10:25:33Z</time>
      </trkpt>
      <trkpt lat="50.03679" lon="4.26245">
        <ele>220.6</ele>
        <time>2024-04-01T10:25:34Z</time>
      </trkpt>
      <trkpt lat="50.03684" lon="4.26252">
        <ele>220.4</ele>
        <time>2024-04-01T10:25:35Z</time>
      </trkpt>
      <trkpt lat="50.03689" lon="4.26259">
        <ele>220.2</ele>
        <time>2024-04-01T10:25:36Z</time>
      </trkpt>
      <trkpt lat="50.03694" lon="4.26266">
        <ele>220.2</ele>
        <time>2024-04-01T10:25:37Z</time>
      </trkpt>
      <trkpt lat="50.03699" lon="4.26273">
        <ele>220.2</ele>
        <time>2024-04-01T10:25:38Z</time>
      </trkpt>
      <trkpt lat="50.03705" lon="4.2628">
        <ele>220</ele>
        <time>2024-04-01T10:25:39Z</time>
      </trkpt>
      <trkpt lat="50.0371" lon="4.26286">
        <ele>219.6</ele>
        <time>2024-04-01T10:25:40Z</time>
      </trkpt>
      <trkpt lat="50.03716" lon="4.26293">
        <ele>219.4</ele>
        <time>2024-04-01T10:25:41Z</time>
      </trkpt>
      <trkpt lat="50.03722" lon="4.263">
        <ele>219.4</ele>
        <time>2024-04-01T10:25:42Z</time>
      </trkpt>
      <trkpt lat="50.03727" lon="4.26307">
        <ele>219.4</ele>
        <time>2024-04-01T10:25:43Z</time>
      </trkpt>
      <trkpt lat="50.03733" lon="4.26314">
        <ele>219.4</ele>
        <time>2024-04-01T10:25:44Z</time>
      </trkpt>
      <trkpt lat="50.03738" lon="4.26322">
        <ele>219.4</ele>
        <time>2024-04-01T10:25:45Z</time>
      </trkpt>
      <trkpt lat="50.03744" lon="4.26329">
        <ele>219.2</ele>
        <time>2024-04-01T10:25:46Z</time>
      </trkpt>
      <trkpt lat="50.0375" lon="4.26337">
        <ele>219.2</ele>
        <time>2024-04-01T10:25:47Z</time>
      </trkpt>
      <trkpt lat="50.03755" lon="4.26344">
        <ele>219.2</ele>
        <time>2024-04-01T10:25:48Z</time>
      </trkpt>
      <trkpt lat="50.03761" lon="4.26351">
        <ele>219.2</ele>
        <time>2024-04-01T10:25:49Z</time>
      </trkpt>
      <trkpt lat="50.03767" lon="4.26358">
        <ele>219.2</ele>
        <time>2024-04-01T10:25:50Z</time>
      </trkpt>
      <trkpt lat="50.03773" lon="4.26364">
        <ele>219.2</ele>
        <time>2024-04-01T10:25:51Z</time>
      </trkpt>
      <trkpt lat="50.0378" lon="4.26369">
        <ele>219.2</ele>
        <time>2024-04-01T10:25:52Z</time>
      </trkpt>
      <trkpt lat="50.03787" lon="4.26373">
        <ele>219.2</ele>
        <time>2024-04-01T10:25:53Z</time>
      </trkpt>
      <trkpt lat="50.03793" lon="4.26376">
        <ele>219.4</ele>
        <time>2024-04-01T10:25:54Z</time>
      </trkpt>
      <trkpt lat="50.038" lon="4.26378">
        <ele>219.4</ele>
        <time>2024-04-01T10:25:55Z</time>
      </trkpt>
      <trkpt lat="50.03806" lon="4.26381">
        <ele>219.8</ele>
        <time>2024-04-01T10:25:56Z</time>
      </trkpt>
      <trkpt lat="50.03813" lon="4.26382">
        <ele>219.8</ele>
        <time>2024-04-01T10:25:57Z</time>
      </trkpt>
      <trkpt lat="50.03819" lon="4.26384">
        <ele>219.8</ele>
        <time>2024-04-01T10:25:58Z</time>
      </trkpt>
      <trkpt lat="50.03824" lon="4.26387">
        <ele>219.8</ele>
        <time>2024-04-01T10:25:59Z</time>
      </trkpt>
      <trkpt lat="50.0383" lon="4.26388">
        <ele>219.8</ele>
        <time>2024-04-01T10:26:00Z</time>
      </trkpt>
      <trkpt lat="50.03836" lon="4.2639">
        <ele>219.8</ele>
        <time>2024-04-01T10:26:01Z</time>
      </trkpt>
      <trkpt lat="50.03842" lon="4.26392">
        <ele>220</ele>
        <time>2024-04-01T10:26:02Z</time>
      </trkpt>
      <trkpt lat="50.03848" lon="4.26394">
        <ele>220.2</ele>
        <time>2024-04-01T10:26:03Z</time>
      </trkpt>
      <trkpt lat="50.03854" lon="4.26396">
        <ele>220.2</ele>
        <time>2024-04-01T10:26:04Z</time>
      </trkpt>
      <trkpt lat="50.0386" lon="4.26398">
        <ele>220.2</ele>
        <time>2024-04-01T10:26:05Z</time>
      </trkpt>
      <trkpt lat="50.03865" lon="4.264">
        <ele>220.4</ele>
        <time>2024-04-01T10:26:06Z</time>
      </trkpt>
      <trkpt lat="50.03871" lon="4.26401">
        <ele>221.2</ele>
        <time>2024-04-01T10:26:07Z</time>
      </trkpt>
      <trkpt lat="50.03877" lon="4.26404">
        <ele>222</ele>
        <time>2024-04-01T10:26:08Z</time>
      </trkpt>
      <trkpt lat="50.03884" lon="4.26405">
        <ele>222.6</ele>
        <time>2024-04-01T10:26:09Z</time>
      </trkpt>
      <trkpt lat="50.0389" lon="4.26407">
        <ele>223</ele>
        <time>2024-04-01T10:26:10Z</time>
      </trkpt>
      <trkpt lat="50.03896" lon="4.2641">
        <ele>223.8</ele>
        <time>2024-04-01T10:26:11Z</time>
      </trkpt>
      <trkpt lat="50.03902" lon="4.26412">
        <ele>224</ele>
        <time>2024-04-01T10:26:12Z</time>
      </trkpt>
      <trkpt lat="50.03908" lon="4.26414">
        <ele>224.4</ele>
        <time>2024-04-01T10:26:13Z</time>
      </trkpt>
      <trkpt lat="50.03915" lon="4.26417">
        <ele>224.6</ele>
        <time>2024-04-01T10:26:14Z</time>
      </trkpt>
      <trkpt lat="50.03922" lon="4.26419">
        <ele>224.8</ele>
        <time>2024-04-01T10:26:15Z</time>
      </trkpt>
      <trkpt lat="50.03929" lon="4.26422">
        <ele>224.8</ele>
        <time>2024-04-01T10:26:16Z</time>
      </trkpt>
      <trkpt lat="50.03936" lon="4.26426">
        <ele>224.8</ele>
        <time>2024-04-01T10:26:17Z</time>
      </trkpt>
      <trkpt lat="50.03943" lon="4.2643">
        <ele>225</ele>
        <time>2024-04-01T10:26:18Z</time>
      </trkpt>
      <trkpt lat="50.03951" lon="4.26436">
        <ele>225</ele>
        <time>2024-04-01T10:26:19Z</time>
      </trkpt>
      <trkpt lat="50.03958" lon="4.26443">
        <ele>224.8</ele>
        <time>2024-04-01T10:26:20Z</time>
      </trkpt>
      <trkpt lat="50.03964" lon="4.26451">
        <ele>225</ele>
        <time>2024-04-01T10:26:21Z</time>
      </trkpt>
      <trkpt lat="50.03971" lon="4.2646">
        <ele>225</ele>
        <time>2024-04-01T10:26:22Z</time>
      </trkpt>
      <trkpt lat="50.03977" lon="4.2647">
        <ele>225</ele>
        <time>2024-04-01T10:26:23Z</time>
      </trkpt>
      <trkpt lat="50.03982" lon="4.26482">
        <ele>225</ele>
        <time>2024-04-01T10:26:24Z</time>
      </trkpt>
      <trkpt lat="50.03988" lon="4.26494">
        <ele>225</ele>
        <time>2024-04-01T10:26:25Z</time>
      </trkpt>
      <trkpt lat="50.03993" lon="4.26507">
        <ele>224.6</ele>
        <time>2024-04-01T10:26:26Z</time>
      </trkpt>
      <trkpt lat="50.03999" lon="4.26519">
        <ele>224.2</ele>
        <time>2024-04-01T10:26:27Z</time>
      </trkpt>
      <trkpt lat="50.04005" lon="4.26532">
        <ele>223.6</ele>
        <time>2024-04-01T10:26:28Z</time>
      </trkpt>
      <trkpt lat="50.04012" lon="4.26543">
        <ele>223</ele>
        <time>2024-04-01T10:26:29Z</time>
      </trkpt>
      <trkpt lat="50.04019" lon="4.26554">
        <ele>222.6</ele>
        <time>2024-04-01T10:26:30Z</time>
      </trkpt>
      <trkpt lat="50.04027" lon="4.26564">
        <ele>222</ele>
        <time>2024-04-01T10:26:31Z</time>
      </trkpt>
      <trkpt lat="50.04035" lon="4.26573">
        <ele>222</ele>
        <time>2024-04-01T10:26:32Z</time>
      </trkpt>
      <trkpt lat="50.04043" lon="4.26582">
        <ele>221.4</ele>
        <time>2024-04-01T10:26:33Z</time>
      </trkpt>
      <trkpt lat="50.04051" lon="4.2659">
        <ele>220.4</ele>
        <time>2024-04-01T10:26:34Z</time>
      </trkpt>
      <trkpt lat="50.04059" lon="4.26598">
        <ele>219.8</ele>
        <time>2024-04-01T10:26:35Z</time>
      </trkpt>
      <trkpt lat="50.04067" lon="4.26607">
        <ele>219.2</ele>
        <time>2024-04-01T10:26:36Z</time>
      </trkpt>
      <trkpt lat="50.04073" lon="4.26616">
        <ele>218.6</ele>
        <time>2024-04-01T10:26:37Z</time>
      </trkpt>
      <trkpt lat="50.04079" lon="4.26627">
        <ele>218.2</ele>
        <time>2024-04-01T10:26:38Z</time>
      </trkpt>
      <trkpt lat="50.04084" lon="4.26638">
        <ele>218.2</ele>
        <time>2024-04-01T10:26:39Z</time>
      </trkpt>
      <trkpt lat="50.04088" lon="4.2665">
        <ele>218</ele>
        <time>2024-04-01T10:26:40Z</time>
      </trkpt>
      <trkpt lat="50.04091" lon="4.26661">
        <ele>217.8</ele>
        <time>2024-04-01T10:26:41Z</time>
      </trkpt>
      <trkpt lat="50.04093" lon="4.26672">
        <ele>218</ele>
        <time>2024-04-01T10:26:42Z</time>
      </trkpt>
      <trkpt lat="50.04094" lon="4.26683">
        <ele>217.8</ele>
        <time>2024-04-01T10:26:43Z</time>
      </trkpt>
      <trkpt lat="50.04095" lon="4.26694">
        <ele>218</ele>
        <time>2024-04-01T10:26:44Z</time>
      </trkpt>
      <trkpt lat="50.04096" lon="4.26705">
        <ele>218</ele>
        <time>2024-04-01T10:26:45Z</time>
      </trkpt>
      <trkpt lat="50.04097" lon="4.26716">
        <ele>218</ele>
        <time>2024-04-01T10:26:46Z</time>
      </trkpt>
      <trkpt lat="50.04098" lon="4.26726">
        <ele>218.2</ele>
        <time>2024-04-01T10:26:47Z</time>
      </trkpt>
      <trkpt lat="50.04099" lon="4.26737">
        <ele>218.4</ele>
        <time>2024-04-01T10:26:48Z</time>
      </trkpt>
      <trkpt lat="50.041" lon="4.26748">
        <ele>218.8</ele>
        <time>2024-04-01T10:26:49Z</time>
      </trkpt>
      <trkpt lat="50.041" lon="4.26758">
        <ele>218.8</ele>
        <time>2024-04-01T10:26:50Z</time>
      </trkpt>
      <trkpt lat="50.04101" lon="4.26769">
        <ele>219.4</ele>
        <time>2024-04-01T10:26:51Z</time>
      </trkpt>
      <trkpt lat="50.04102" lon="4.2678">
        <ele>219.8</ele>
        <time>2024-04-01T10:26:52Z</time>
      </trkpt>
      <trkpt lat="50.04103" lon="4.2679">
        <ele>220.4</ele>
        <time>2024-04-01T10:26:53Z</time>
      </trkpt>
      <trkpt lat="50.04104" lon="4.26801">
        <ele>220.8</ele>
        <time>2024-04-01T10:26:54Z</time>
      </trkpt>
      <trkpt lat="50.04105" lon="4.26811">
        <ele>221.2</ele>
        <time>2024-04-01T10:26:55Z</time>
      </trkpt>
      <trkpt lat="50.04105" lon="4.26822">
        <ele>221.6</ele>
        <time>2024-04-01T10:26:56Z</time>
      </trkpt>
      <trkpt lat="50.04106" lon="4.26833">
        <ele>222</ele>
        <time>2024-04-01T10:26:57Z</time>
      </trkpt>
      <trkpt lat="50.04107" lon="4.26845">
        <ele>222</ele>
        <time>2024-04-01T10:26:58Z</time>
      </trkpt>
      <trkpt lat="50.04108" lon="4.26856">
        <ele>222.2</ele>
        <time>2024-04-01T10:26:59Z</time>
      </trkpt>
      <trkpt lat="50.04109" lon="4.26868">
        <ele>222.4</ele>
        <time>2024-04-01T10:27:00Z</time>
      </trkpt>
      <trkpt lat="50.0411" lon="4.2688">
        <ele>222.8</ele>
        <time>2024-04-01T10:27:01Z</time>
      </trkpt>
      <trkpt lat="50.04111" lon="4.26892">
        <ele>222.8</ele>
        <time>2024-04-01T10:27:02Z</time>
      </trkpt>
      <trkpt lat="50.04112" lon="4.26905">
        <ele>223</ele>
        <time>2024-04-01T10:27:03Z</time>
      </trkpt>
      <trkpt lat="50.04114" lon="4.26917">
        <ele>223</ele>
        <time>2024-04-01T10:27:04Z</time>
      </trkpt>
      <trkpt lat="50.04115" lon="4.2693">
        <ele>223</ele>
        <time>2024-04-01T10:27:05Z</time>
      </trkpt>
      <trkpt lat="50.04116" lon="4.26944">
        <ele>223</ele>
        <time>2024-04-01T10:27:06Z</time>
      </trkpt>
      <trkpt lat="50.04117" lon="4.26957">
        <ele>223</ele>
        <time>2024-04-01T10:27:07Z</time>
      </trkpt>
      <trkpt lat="50.04118" lon="4.26971">
        <ele>223</ele>
        <time>2024-04-01T10:27:08Z</time>
      </trkpt>
      <trkpt lat="50.04119" lon="4.26984">
        <ele>223</ele>
        <time>2024-04-01T10:27:09Z</time>
      </trkpt>
      <trkpt lat="50.04121" lon="4.26998">
        <ele>223</ele>
        <time>2024-04-01T10:27:10Z</time>
      </trkpt>
      <trkpt lat="50.04122" lon="4.27012">
        <ele>223</ele>
        <time>2024-04-01T10:27:11Z</time>
      </trkpt>
      <trkpt lat="50.04123" lon="4.27025">
        <ele>223</ele>
        <time>2024-04-01T10:27:12Z</time>
      </trkpt>
      <trkpt lat="50.04124" lon="4.27038">
        <ele>222.6</ele>
        <time>2024-04-01T10:27:13Z</time>
      </trkpt>
      <trkpt lat="50.04125" lon="4.27052">
        <ele>222.2</ele>
        <time>2024-04-01T10:27:14Z</time>
      </trkpt>
      <trkpt lat="50.04126" lon="4.27065">
        <ele>221.8</ele>
        <time>2024-04-01T10:27:15Z</time>
      </trkpt>
      <trkpt lat="50.04127" lon="4.27077">
        <ele>221.8</ele>
        <time>2024-04-01T10:27:16Z</time>
      </trkpt>
      <trkpt lat="50.04128" lon="4.2709">
        <ele>221.8</ele>
        <time>2024-04-01T10:27:17Z</time>
      </trkpt>
      <trkpt lat="50.0413" lon="4.27103">
        <ele>221.6</ele>
        <time>2024-04-01T10:27:18Z</time>
      </trkpt>
      <trkpt lat="50.04131" lon="4.27115">
        <ele>221.4</ele>
        <time>2024-04-01T10:27:19Z</time>
      </trkpt>
      <trkpt lat="50.04132" lon="4.27128">
        <ele>221.4</ele>
        <time>2024-04-01T10:27:20Z</time>
      </trkpt>
      <trkpt lat="50.04133" lon="4.2714">
        <ele>221.2</ele>
        <time>2024-04-01T10:27:21Z</time>
      </trkpt>
      <trkpt lat="50.04134" lon="4.27152">
        <ele>221.2</ele>
        <time>2024-04-01T10:27:22Z</time>
      </trkpt>
      <trkpt lat="50.04135" lon="4.27164">
        <ele>221.2</ele>
        <time>2024-04-01T10:27:23Z</time>
      </trkpt>
      <trkpt lat="50.04136" lon="4.27176">
        <ele>221.2</ele>
        <time>2024-04-01T10:27:24Z</time>
      </trkpt>
      <trkpt lat="50.04137" lon="4.27188">
        <ele>221.2</ele>
        <time>2024-04-01T10:27:25Z</time>
      </trkpt>
      <trkpt lat="50.04138" lon="4.272">
        <ele>221.2</ele>
        <time>2024-04-01T10:27:26Z</time>
      </trkpt>
      <trkpt lat="50.04139" lon="4.27212">
        <ele>221.2</ele>
        <time>2024-04-01T10:27:27Z</time>
      </trkpt>
      <trkpt lat="50.0414" lon="4.27224">
        <ele>221.2</ele>
        <time>2024-04-01T10:27:28Z</time>
      </trkpt>
      <trkpt lat="50.04141" lon="4.27236">
        <ele>221.4</ele>
        <time>2024-04-01T10:27:29Z</time>
      </trkpt>
      <trkpt lat="50.04143" lon="4.27247">
        <ele>221.6</ele>
        <time>2024-04-01T10:27:30Z</time>
      </trkpt>
      <trkpt lat="50.04144" lon="4.27259">
        <ele>221.8</ele>
        <time>2024-04-01T10:27:31Z</time>
      </trkpt>
      <trkpt lat="50.04146" lon="4.27271">
        <ele>222.2</ele>
        <time>2024-04-01T10:27:32Z</time>
      </trkpt>
      <trkpt lat="50.04147" lon="4.27282">
        <ele>222.6</ele>
        <time>2024-04-01T10:27:33Z</time>
      </trkpt>
      <trkpt lat="50.04149" lon="4.27294">
        <ele>223.2</ele>
        <time>2024-04-01T10:27:34Z</time>
      </trkpt>
      <trkpt lat="50.04151" lon="4.27305">
        <ele>223.4</ele>
        <time>2024-04-01T10:27:35Z</time>
      </trkpt>
      <trkpt lat="50.04153" lon="4.27317">
        <ele>223.6</ele>
        <time>2024-04-01T10:27:36Z</time>
      </trkpt>
      <trkpt lat="50.04155" lon="4.27328">
        <ele>223.8</ele>
        <time>2024-04-01T10:27:37Z</time>
      </trkpt>
      <trkpt lat="50.04158" lon="4.27339">
        <ele>224</ele>
        <time>2024-04-01T10:27:38Z</time>
      </trkpt>
      <trkpt lat="50.04161" lon="4.27351">
        <ele>224</ele>
        <time>2024-04-01T10:27:39Z</time>
      </trkpt>
      <trkpt lat="50.04164" lon="4.27362">
        <ele>224.4</ele>
        <time>2024-04-01T10:27:40Z</time>
      </trkpt>
      <trkpt lat="50.04168" lon="4.27373">
        <ele>224.6</ele>
        <time>2024-04-01T10:27:41Z</time>
      </trkpt>
      <trkpt lat="50.04171" lon="4.27384">
        <ele>224.6</ele>
        <time>2024-04-01T10:27:42Z</time>
      </trkpt>
      <trkpt lat="50.04175" lon="4.27395">
        <ele>224.6</ele>
        <time>2024-04-01T10:27:43Z</time>
      </trkpt>
      <trkpt lat="50.04178" lon="4.27407">
        <ele>224.6</ele>
        <time>2024-04-01T10:27:44Z</time>
      </trkpt>
      <trkpt lat="50.04182" lon="4.27418">
        <ele>224.6</ele>
        <time>2024-04-01T10:27:45Z</time>
      </trkpt>
      <trkpt lat="50.04186" lon="4.27429">
        <ele>224.8</ele>
        <time>2024-04-01T10:27:46Z</time>
      </trkpt>
      <trkpt lat="50.0419" lon="4.2744">
        <ele>224.6</ele>
        <time>2024-04-01T10:27:47Z</time>
      </trkpt>
      <trkpt lat="50.04193" lon="4.27451">
        <ele>224.6</ele>
        <time>2024-04-01T10:27:48Z</time>
      </trkpt>
      <trkpt lat="50.04197" lon="4.27461">
        <ele>224.6</ele>
        <time>2024-04-01T10:27:49Z</time>
      </trkpt>
      <trkpt lat="50.042" lon="4.27472">
        <ele>224.6</ele>
        <time>2024-04-01T10:27:50Z</time>
      </trkpt>
      <trkpt lat="50.04204" lon="4.27482">
        <ele>224.6</ele>
        <time>2024-04-01T10:27:51Z</time>
      </trkpt>
      <trkpt lat="50.04207" lon="4.27492">
        <ele>224.4</ele>
        <time>2024-04-01T10:27:52Z</time>
      </trkpt>
      <trkpt lat="50.04211" lon="4.27502">
        <ele>223.8</ele>
        <time>2024-04-01T10:27:53Z</time>
      </trkpt>
      <trkpt lat="50.04215" lon="4.27512">
        <ele>222.8</ele>
        <time>2024-04-01T10:27:54Z</time>
      </trkpt>
      <trkpt lat="50.04218" lon="4.27523">
        <ele>222.4</ele>
        <time>2024-04-01T10:27:55Z</time>
      </trkpt>
      <trkpt lat="50.04222" lon="4.27533">
        <ele>222.2</ele>
        <time>2024-04-01T10:27:56Z</time>
      </trkpt>
      <trkpt lat="50.04226" lon="4.27544">
        <ele>221.8</ele>
        <time>2024-04-01T10:27:57Z</time>
      </trkpt>
      <trkpt lat="50.0423" lon="4.27555">
        <ele>221.8</ele>
        <time>2024-04-01T10:27:58Z</time>
      </trkpt>
      <trkpt lat="50.04233" lon="4.27566">
        <ele>221.8</ele>
        <time>2024-04-01T10:27:59Z</time>
      </trkpt>
      <trkpt lat="50.04238" lon="4.27577">
        <ele>221.6</ele>
        <time>2024-04-01T10:28:00Z</time>
      </trkpt>
      <trkpt lat="50.04242" lon="4.27588">
        <ele>221.2</ele>
        <time>2024-04-01T10:28:01Z</time>
      </trkpt>
      <trkpt lat="50.04245" lon="4.27598">
        <ele>221</ele>
        <time>2024-04-01T10:28:02Z</time>
      </trkpt>
      <trkpt lat="50.04249" lon="4.27607">
        <ele>220.8</ele>
        <time>2024-04-01T10:28:03Z</time>
      </trkpt>
      <trkpt lat="50.04252" lon="4.27615">
        <ele>220.4</ele>
        <time>2024-04-01T10:28:04Z</time>
      </trkpt>
      <trkpt lat="50.04254" lon="4.27623">
        <ele>220.4</ele>
        <time>2024-04-01T10:28:05Z</time>
      </trkpt>
      <trkpt lat="50.04257" lon="4.2763">
        <ele>220.2</ele>
        <time>2024-04-01T10:28:06Z</time>
      </trkpt>
      <trkpt lat="50.04259" lon="4.27636">
        <ele>220</ele>
        <time>2024-04-01T10:28:07Z</time>
      </trkpt>
      <trkpt lat="50.04261" lon="4.27641">
        <ele>220</ele>
        <time>2024-04-01T10:28:08Z</time>
      </trkpt>
      <trkpt lat="50.04262" lon="4.27647">
        <ele>219.6</ele>
        <time>2024-04-01T10:28:09Z</time>
      </trkpt>
      <trkpt lat="50.04264" lon="4.27652">
        <ele>219.6</ele>
        <time>2024-04-01T10:28:10Z</time>
      </trkpt>
      <trkpt lat="50.04265" lon="4.27658">
        <ele>219.4</ele>
        <time>2024-04-01T10:28:11Z</time>
      </trkpt>
      <trkpt lat="50.04267" lon="4.27663">
        <ele>219.4</ele>
        <time>2024-04-01T10:28:12Z</time>
      </trkpt>
      <trkpt lat="50.04268" lon="4.27668">
        <ele>219.4</ele>
        <time>2024-04-01T10:28:13Z</time>
      </trkpt>
      <trkpt lat="50.04269" lon="4.27673">
        <ele>219.2</ele>
        <time>2024-04-01T10:28:14Z</time>
      </trkpt>
      <trkpt lat="50.0427" lon="4.27675">
        <ele>219</ele>
        <time>2024-04-01T10:28:15Z</time>
      </trkpt>
      <trkpt lat="50.04271" lon="4.27675">
        <ele>219</ele>
        <time>2024-04-01T10:28:16Z</time>
      </trkpt>
      <trkpt lat="50.04271" lon="4.27673">
        <ele>219</ele>
        <time>2024-04-01T10:28:17Z</time>
      </trkpt>
      <trkpt lat="50.04271" lon="4.27671">
        <ele>218.8</ele>
        <time>2024-04-01T10:28:18Z</time>
      </trkpt>
      <trkpt lat="50.0427" lon="4.27668">
        <ele>219</ele>
        <time>2024-04-01T10:28:19Z</time>
      </trkpt>
      <trkpt lat="50.04269" lon="4.27665">
        <ele>219</ele>
        <time>2024-04-01T10:28:20Z</time>
      </trkpt>
      <trkpt lat="50.04268" lon="4.27661">
        <ele>218.6</ele>
        <time>2024-04-01T10:28:21Z</time>
      </trkpt>
      <trkpt lat="50.04267" lon="4.27658">
        <ele>218.6</ele>
        <time>2024-04-01T10:28:22Z</time>
      </trkpt>
      <trkpt lat="50.04265" lon="4.27654">
        <ele>218.4</ele>
        <time>2024-04-01T10:28:23Z</time>
      </trkpt>
      <trkpt lat="50.04264" lon="4.27649">
        <ele>218.2</ele>
        <time>2024-04-01T10:28:24Z</time>
      </trkpt>
      <trkpt lat="50.04263" lon="4.27645">
        <ele>218.2</ele>
        <time>2024-04-01T10:28:25Z</time>
      </trkpt>
      <trkpt lat="50.04261" lon="4.27641">
        <ele>218.2</ele>
        <time>2024-04-01T10:28:26Z</time>
      </trkpt>
      <trkpt lat="50.0426" lon="4.27637">
        <ele>218</ele>
        <time>2024-04-01T10:28:27Z</time>
      </trkpt>
      <trkpt lat="50.04259" lon="4.27634">
        <ele>218.2</ele>
        <time>2024-04-01T10:28:28Z</time>
      </trkpt>
      <trkpt lat="50.04258" lon="4.2763">
        <ele>218</ele>
        <time>2024-04-01T10:28:29Z</time>
      </trkpt>
      <trkpt lat="50.04257" lon="4.27627">
        <ele>218</ele>
        <time>2024-04-01T10:28:30Z</time>
      </trkpt>
      <trkpt lat="50.04256" lon="4.27624">
        <ele>218</ele>
        <time>2024-04-01T10:28:31Z</time>
      </trkpt>
      <trkpt lat="50.04255" lon="4.27622">
        <ele>218</ele>
        <time>2024-04-01T10:28:32Z</time>
      </trkpt>
      <trkpt lat="50.04255" lon="4.2762">
        <ele>218</ele>
        <time>2024-04-01T10:28:33Z</time>
      </trkpt>
      <trkpt lat="50.04254" lon="4.27618">
        <ele>218</ele>
        <time>2024-04-01T10:28:34Z</time>
      </trkpt>
      <trkpt lat="50.04253" lon="4.27617">
        <ele>218</ele>
        <time>2024-04-01T10:28:35Z</time>
      </trkpt>
      <trkpt lat="50.04252" lon="4.27617">
        <ele>218.2</ele>
        <time>2024-04-01T10:28:36Z</time>
      </trkpt>
      <trkpt lat="50.04251" lon="4.27617">
        <ele>218.2</ele>
        <time>2024-04-01T10:28:37Z</time>
      </trkpt>
      <trkpt lat="50.04251" lon="4.27616">
        <ele>218.2</ele>
        <time>2024-04-01T10:28:38Z</time>
      </trkpt>
      <trkpt lat="50.0425" lon="4.27615">
        <ele>218.2</ele>
        <time>2024-04-01T10:28:39Z</time>
      </trkpt>
      <trkpt lat="50.04249" lon="4.27614">
        <ele>218.4</ele>
        <time>2024-04-01T10:28:40Z</time>
      </trkpt>
      <trkpt lat="50.04249" lon="4.27612">
        <ele>218.6</ele>
        <time>2024-04-01T10:28:41Z</time>
      </trkpt>
      <trkpt lat="50.0425" lon="4.27611">
        <ele>218.8</ele>
        <time>2024-04-01T10:28:42Z</time>
      </trkpt>
      <trkpt lat="50.04251" lon="4.2761">
        <ele>219</ele>
        <time>2024-04-01T10:28:43Z</time>
      </trkpt>
      <trkpt lat="50.04252" lon="4.2761">
        <ele>219.2</ele>
        <time>2024-04-01T10:28:44Z</time>
      </trkpt>
      <trkpt lat="50.04252" lon="4.27611">
        <ele>219.2</ele>
        <time>2024-04-01T10:28:45Z</time>
      </trkpt>
      <trkpt lat="50.04253" lon="4.27614">
        <ele>219.2</ele>
        <time>2024-04-01T10:28:46Z</time>
      </trkpt>
      <trkpt lat="50.04253" lon="4.27616">
        <ele>219.2</ele>
        <time>2024-04-01T10:28:47Z</time>
      </trkpt>
      <trkpt lat="50.04253" lon="4.27619">
        <ele>219.2</ele>
        <time>2024-04-01T10:28:48Z</time>
      </trkpt>
      <trkpt lat="50.04254" lon="4.27623">
        <ele>219.2</ele>
        <time>2024-04-01T10:28:49Z</time>
      </trkpt>
      <trkpt lat="50.04254" lon="4.27627">
        <ele>219.4</ele>
        <time>2024-04-01T10:28:50Z</time>
      </trkpt>
      <trkpt lat="50.04255" lon="4.2763">
        <ele>219.4</ele>
        <time>2024-04-01T10:28:51Z</time>
      </trkpt>
      <trkpt lat="50.04257" lon="4.27634">
        <ele>219.4</ele>
        <time>2024-04-01T10:28:52Z</time>
      </trkpt>
      <trkpt lat="50.04258" lon="4.27639">
        <ele>219.4</ele>
        <time>2024-04-01T10:28:53Z</time>
      </trkpt>
      <trkpt lat="50.0426" lon="4.27644">
        <ele>219.4</ele>
        <time>2024-04-01T10:28:54Z</time>
      </trkpt>
      <trkpt lat="50.04262" lon="4.2765">
        <ele>219.4</ele>
        <time>2024-04-01T10:28:55Z</time>
      </trkpt>
      <trkpt lat="50.04264" lon="4.27657">
        <ele>219.4</ele>
        <time>2024-04-01T10:28:56Z</time>
      </trkpt>
      <trkpt lat="50.04266" lon="4.27664">
        <ele>219.4</ele>
        <time>2024-04-01T10:28:57Z</time>
      </trkpt>
      <trkpt lat="50.04269" lon="4.27671">
        <ele>219.4</ele>
        <time>2024-04-01T10:28:58Z</time>
      </trkpt>
      <trkpt lat="50.04271" lon="4.27678">
        <ele>219.4</ele>
        <time>2024-04-01T10:28:59Z</time>
      </trkpt>
      <trkpt lat="50.04273" lon="4.27685">
        <ele>219.4</ele>
        <time>2024-04-01T10:29:00Z</time>
      </trkpt>
      <trkpt lat="50.04276" lon="4.27693">
        <ele>219</ele>
        <time>2024-04-01T10:29:01Z</time>
      </trkpt>
      <trkpt lat="50.04279" lon="4.27701">
        <ele>219</ele>
        <time>2024-04-01T10:29:02Z</time>
      </trkpt>
      <trkpt lat="50.04281" lon="4.27709">
        <ele>218.8</ele>
        <time>2024-04-01T10:29:03Z</time>
      </trkpt>
      <trkpt lat="50.04284" lon="4.27718">
        <ele>218.6</ele>
        <time>2024-04-01T10:29:04Z</time>
      </trkpt>
      <trkpt lat="50.04288" lon="4.27727">
        <ele>218.4</ele>
        <time>2024-04-01T10:29:05Z</time>
      </trkpt>
      <trkpt lat="50.04291" lon="4.27736">
        <ele>218</ele>
        <time>2024-04-01T10:29:06Z</time>
      </trkpt>
      <trkpt lat="50.04294" lon="4.27746">
        <ele>217.6</ele>
        <time>2024-04-01T10:29:07Z</time>
      </trkpt>
      <trkpt lat="50.04297" lon="4.27755">
        <ele>217.6</ele>
        <time>2024-04-01T10:29:08Z</time>
      </trkpt>
      <trkpt lat="50.043" lon="4.27765">
        <ele>217.2</ele>
        <time>2024-04-01T10:29:09Z</time>
      </trkpt>
      <trkpt lat="50.04303" lon="4.27775">
        <ele>216.8</ele>
        <time>2024-04-01T10:29:10Z</time>
      </trkpt>
      <trkpt lat="50.04307" lon="4.27786">
        <ele>216.8</ele>
        <time>2024-04-01T10:29:11Z</time>
      </trkpt>
      <trkpt lat="50.0431" lon="4.27796">
        <ele>216.4</ele>
        <time>2024-04-01T10:29:12Z</time>
      </trkpt>
      <trkpt lat="50.04314" lon="4.27806">
        <ele>216.2</ele>
        <time>2024-04-01T10:29:13Z</time>
      </trkpt>
      <trkpt lat="50.04317" lon="4.27816">
        <ele>216.2</ele>
        <time>2024-04-01T10:29:14Z</time>
      </trkpt>
      <trkpt lat="50.04321" lon="4.27827">
        <ele>216</ele>
        <time>2024-04-01T10:29:15Z</time>
      </trkpt>
      <trkpt lat="50.04325" lon="4.27837">
        <ele>215.8</ele>
        <time>2024-04-01T10:29:16Z</time>
      </trkpt>
      <trkpt lat="50.04328" lon="4.27847">
        <ele>215.6</ele>
        <time>2024-04-01T10:29:17Z</time>
      </trkpt>
      <trkpt lat="50.04332" lon="4.27858">
        <ele>215.6</ele>
        <time>2024-04-01T10:29:18Z</time>
      </trkpt>
      <trkpt lat="50.04335" lon="4.27868">
        <ele>215.2</ele>
        <time>2024-04-01T10:29:19Z</time>
      </trkpt>
      <trkpt lat="50.04339" lon="4.27879">
        <ele>215</ele>
        <time>2024-04-01T10:29:20Z</time>
      </trkpt>
      <trkpt lat="50.04342" lon="4.27889">
        <ele>214.8</ele>
        <time>2024-04-01T10:29:21Z</time>
      </trkpt>
      <trkpt lat="50.04345" lon="4.279">
        <ele>214.8</ele>
        <time>2024-04-01T10:29:22Z</time>
      </trkpt>
      <trkpt lat="50.04349" lon="4.2791">
        <ele>214.8</ele>
        <time>2024-04-01T10:29:23Z</time>
      </trkpt>
      <trkpt lat="50.04352" lon="4.2792">
        <ele>214.8</ele>
        <time>2024-04-01T10:29:24Z</time>
      </trkpt>
      <trkpt lat="50.04355" lon="4.2793">
        <ele>214.8</ele>
        <time>2024-04-01T10:29:25Z</time>
      </trkpt>
      <trkpt lat="50.04358" lon="4.27939">
        <ele>214.8</ele>
        <time>2024-04-01T10:29:26Z</time>
      </trkpt>
      <trkpt lat="50.04362" lon="4.27949">
        <ele>214.8</ele>
        <time>2024-04-01T10:29:27Z</time>
      </trkpt>
      <trkpt lat="50.04365" lon="4.27959">
        <ele>214.8</ele>
        <time>2024-04-01T10:29:28Z</time>
      </trkpt>
      <trkpt lat="50.04368" lon="4.27968">
        <ele>214.8</ele>
        <time>2024-04-01T10:29:29Z</time>
      </trkpt>
      <trkpt lat="50.04372" lon="4.27978">
        <ele>214.8</ele>
        <time>2024-04-01T10:29:30Z</time>
      </trkpt>
      <trkpt lat="50.04375" lon="4.27988">
        <ele>215</ele>
        <time>2024-04-01T10:29:31Z</time>
      </trkpt>
      <trkpt lat="50.04378" lon="4.27998">
        <ele>215</ele>
        <time>2024-04-01T10:29:32Z</time>
      </trkpt>
      <trkpt lat="50.04382" lon="4.28008">
        <ele>215</ele>
        <time>2024-04-01T10:29:33Z</time>
      </trkpt>
      <trkpt lat="50.04385" lon="4.28018">
        <ele>215</ele>
        <time>2024-04-01T10:29:34Z</time>
      </trkpt>
      <trkpt lat="50.04389" lon="4.28029">
        <ele>215</ele>
        <time>2024-04-01T10:29:35Z</time>
      </trkpt>
      <trkpt lat="50.04392" lon="4.28039">
        <ele>215.2</ele>
        <time>2024-04-01T10:29:36Z</time>
      </trkpt>
      <trkpt lat="50.04395" lon="4.2805">
        <ele>215</ele>
        <time>2024-04-01T10:29:37Z</time>
      </trkpt>
      <trkpt lat="50.04399" lon="4.2806">
        <ele>215.2</ele>
        <time>2024-04-01T10:29:38Z</time>
      </trkpt>
      <trkpt lat="50.04403" lon="4.28071">
        <ele>215.2</ele>
        <time>2024-04-01T10:29:39Z</time>
      </trkpt>
      <trkpt lat="50.04406" lon="4.28081">
        <ele>215</ele>
        <time>2024-04-01T10:29:40Z</time>
      </trkpt>
      <trkpt lat="50.0441" lon="4.28092">
        <ele>215</ele>
        <time>2024-04-01T10:29:41Z</time>
      </trkpt>
      <trkpt lat="50.04413" lon="4.28102">
        <ele>215.2</ele>
        <time>2024-04-01T10:29:42Z</time>
      </trkpt>
      <trkpt lat="50.04416" lon="4.28113">
        <ele>215</ele>
        <time>2024-04-01T10:29:43Z</time>
      </trkpt>
      <trkpt lat="50.0442" lon="4.28123">
        <ele>215</ele>
        <time>2024-04-01T10:29:44Z</time>
      </trkpt>
      <trkpt lat="50.04423" lon="4.28134">
        <ele>215</ele>
        <time>2024-04-01T10:29:45Z</time>
      </trkpt>
      <trkpt lat="50.04425" lon="4.28145">
        <ele>215</ele>
        <time>2024-04-01T10:29:46Z</time>
      </trkpt>
      <trkpt lat="50.04428" lon="4.28157">
        <ele>214.8</ele>
        <time>2024-04-01T10:29:47Z</time>
      </trkpt>
      <trkpt lat="50.0443" lon="4.28168">
        <ele>214.8</ele>
        <time>2024-04-01T10:29:48Z</time>
      </trkpt>
      <trkpt lat="50.04431" lon="4.2818">
        <ele>214.8</ele>
        <time>2024-04-01T10:29:49Z</time>
      </trkpt>
      <trkpt lat="50.04432" lon="4.28191">
        <ele>214.8</ele>
        <time>2024-04-01T10:29:50Z</time>
      </trkpt>
      <trkpt lat="50.04433" lon="4.28203">
        <ele>214.6</ele>
        <time>2024-04-01T10:29:51Z</time>
      </trkpt>
      <trkpt lat="50.04433" lon="4.28214">
        <ele>214.6</ele>
        <time>2024-04-01T10:29:52Z</time>
      </trkpt>
      <trkpt lat="50.04433" lon="4.28226">
        <ele>214.4</ele>
        <time>2024-04-01T10:29:53Z</time>
      </trkpt>
      <trkpt lat="50.04433" lon="4.28237">
        <ele>214.6</ele>
        <time>2024-04-01T10:29:54Z</time>
      </trkpt>
      <trkpt lat="50.04433" lon="4.28248">
        <ele>214.4</ele>
        <time>2024-04-01T10:29:55Z</time>
      </trkpt>
      <trkpt lat="50.04433" lon="4.2826">
        <ele>214.4</ele>
        <time>2024-04-01T10:29:56Z</time>
      </trkpt>
      <trkpt lat="50.04433" lon="4.28271">
        <ele>214.2</ele>
        <time>2024-04-01T10:29:57Z</time>
      </trkpt>
      <trkpt lat="50.04433" lon="4.28282">
        <ele>214.4</ele>
        <time>2024-04-01T10:29:58Z</time>
      </trkpt>
      <trkpt lat="50.04432" lon="4.28293">
        <ele>214.4</ele>
        <time>2024-04-01T10:29:59Z</time>
      </trkpt>
      <trkpt lat="50.04432" lon="4.28304">
        <ele>214.4</ele>
        <time>2024-04-01T10:30:00Z</time>
      </trkpt>
      <trkpt lat="50.04432" lon="4.28315">
        <ele>214.4</ele>
        <time>2024-04-01T10:30:01Z</time>
      </trkpt>
      <trkpt lat="50.04432" lon="4.28327">
        <ele>214.4</ele>
        <time>2024-04-01T10:30:02Z</time>
      </trkpt>
      <trkpt lat="50.04432" lon="4.28338">
        <ele>214.4</ele>
        <time>2024-04-01T10:30:03Z</time>
      </trkpt>
      <trkpt lat="50.04432" lon="4.28349">
        <ele>214.4</ele>
        <time>2024-04-01T10:30:04Z</time>
      </trkpt>
      <trkpt lat="50.04431" lon="4.2836">
        <ele>214.4</ele>
        <time>2024-04-01T10:30:05Z</time>
      </trkpt>
      <trkpt lat="50.04431" lon="4.28371">
        <ele>214.2</ele>
        <time>2024-04-01T10:30:06Z</time>
      </trkpt>
      <trkpt lat="50.04431" lon="4.28382">
        <ele>214.4</ele>
        <time>2024-04-01T10:30:07Z</time>
      </trkpt>
      <trkpt lat="50.04431" lon="4.28394">
        <ele>214.4</ele>
        <time>2024-04-01T10:30:08Z</time>
      </trkpt>
      <trkpt lat="50.0443" lon="4.28405">
        <ele>214.6</ele>
        <time>2024-04-01T10:30:09Z</time>
      </trkpt>
      <trkpt lat="50.0443" lon="4.28416">
        <ele>214.8</ele>
        <time>2024-04-01T10:30:10Z</time>
      </trkpt>
      <trkpt lat="50.04429" lon="4.28427">
        <ele>214.8</ele>
        <time>2024-04-01T10:30:11Z</time>
      </trkpt>
      <trkpt lat="50.04429" lon="4.28438">
        <ele>215</ele>
        <time>2024-04-01T10:30:12Z</time>
      </trkpt>
      <trkpt lat="50.04429" lon="4.28449">
        <ele>215.2</ele>
        <time>2024-04-01T10:30:13Z</time>
      </trkpt>
      <trkpt lat="50.04429" lon="4.2846">
        <ele>215.2</ele>
        <time>2024-04-01T10:30:14Z</time>
      </trkpt>
      <trkpt lat="50.04429" lon="4.28472">
        <ele>215.6</ele>
        <time>2024-04-01T10:30:15Z</time>
      </trkpt>
      <trkpt lat="50.0443" lon="4.28483">
        <ele>215.6</ele>
        <time>2024-04-01T10:30:16Z</time>
      </trkpt>
      <trkpt lat="50.04431" lon="4.28493">
        <ele>215.6</ele>
        <time>2024-04-01T10:30:17Z</time>
      </trkpt>
      <trkpt lat="50.04432" lon="4.28504">
        <ele>216</ele>
        <time>2024-04-01T10:30:18Z</time>
      </trkpt>
      <trkpt lat="50.04433" lon="4.28515">
        <ele>216</ele>
        <time>2024-04-01T10:30:19Z</time>
      </trkpt>
      <trkpt lat="50.04435" lon="4.28526">
        <ele>216</ele>
        <time>2024-04-01T10:30:20Z</time>
      </trkpt>
      <trkpt lat="50.04436" lon="4.28537">
        <ele>216</ele>
        <time>2024-04-01T10:30:21Z</time>
      </trkpt>
      <trkpt lat="50.04438" lon="4.28548">
        <ele>216.2</ele>
        <time>2024-04-01T10:30:22Z</time>
      </trkpt>
      <trkpt lat="50.04439" lon="4.28559">
        <ele>216.2</ele>
        <time>2024-04-01T10:30:23Z</time>
      </trkpt>
      <trkpt lat="50.04441" lon="4.2857">
        <ele>216.2</ele>
        <time>2024-04-01T10:30:24Z</time>
      </trkpt>
      <trkpt lat="50.04443" lon="4.28581">
        <ele>216.2</ele>
        <time>2024-04-01T10:30:25Z</time>
      </trkpt>
      <trkpt lat="50.04444" lon="4.28592">
        <ele>216.2</ele>
        <time>2024-04-01T10:30:26Z</time>
      </trkpt>
      <trkpt lat="50.04446" lon="4.28603">
        <ele>216.2</ele>
        <time>2024-04-01T10:30:27Z</time>
      </trkpt>
      <trkpt lat="50.04448" lon="4.28614">
        <ele>216.4</ele>
        <time>2024-04-01T10:30:28Z</time>
      </trkpt>
      <trkpt lat="50.04449" lon="4.28624">
        <ele>216.2</ele>
        <time>2024-04-01T10:30:29Z</time>
      </trkpt>
      <trkpt lat="50.04451" lon="4.28635">
        <ele>216.4</ele>
        <time>2024-04-01T10:30:30Z</time>
      </trkpt>
      <trkpt lat="50.04453" lon="4.28645">
        <ele>216.4</ele>
        <time>2024-04-01T10:30:31Z</time>
      </trkpt>
      <trkpt lat="50.04454" lon="4.28655">
        <ele>216.2</ele>
        <time>2024-04-01T10:30:32Z</time>
      </trkpt>
      <trkpt lat="50.04456" lon="4.28664">
        <ele>216.2</ele>
        <time>2024-04-01T10:30:33Z</time>
      </trkpt>
      <trkpt lat="50.04457" lon="4.28672">
        <ele>216.4</ele>
        <time>2024-04-01T10:30:34Z</time>
      </trkpt>
      <trkpt lat="50.04457" lon="4.28679">
        <ele>216.4</ele>
        <time>2024-04-01T10:30:35Z</time>
      </trkpt>
      <trkpt lat="50.04457" lon="4.28683">
        <ele>216.4</ele>
        <time>2024-04-01T10:30:36Z</time>
      </trkpt>
      <trkpt lat="50.04457" lon="4.28685">
        <ele>216.4</ele>
        <time>2024-04-01T10:30:37Z</time>
      </trkpt>
      <trkpt lat="50.04457" lon="4.28688">
        <ele>216.4</ele>
        <time>2024-04-01T10:30:38Z</time>
      </trkpt>
      <trkpt lat="50.04456" lon="4.2869">
        <ele>216.6</ele>
        <time>2024-04-01T10:30:39Z</time>
      </trkpt>
      <trkpt lat="50.04456" lon="4.28694">
        <ele>216.6</ele>
        <time>2024-04-01T10:30:40Z</time>
      </trkpt>
      <trkpt lat="50.04456" lon="4.28699">
        <ele>216.6</ele>
        <time>2024-04-01T10:30:41Z</time>
      </trkpt>
      <trkpt lat="50.04458" lon="4.28704">
        <ele>217</ele>
        <time>2024-04-01T10:30:42Z</time>
      </trkpt>
      <trkpt lat="50.0446" lon="4.2871">
        <ele>217</ele>
        <time>2024-04-01T10:30:43Z</time>
      </trkpt>
      <trkpt lat="50.04463" lon="4.28717">
        <ele>217.2</ele>
        <time>2024-04-01T10:30:44Z</time>
      </trkpt>
      <trkpt lat="50.04466" lon="4.28723">
        <ele>217.2</ele>
        <time>2024-04-01T10:30:45Z</time>
      </trkpt>
      <trkpt lat="50.04468" lon="4.28729">
        <ele>217.2</ele>
        <time>2024-04-01T10:30:46Z</time>
      </trkpt>
      <trkpt lat="50.04471" lon="4.28736">
        <ele>217.4</ele>
        <time>2024-04-01T10:30:47Z</time>
      </trkpt>
      <trkpt lat="50.04473" lon="4.28744">
        <ele>217.4</ele>
        <time>2024-04-01T10:30:48Z</time>
      </trkpt>
      <trkpt lat="50.04476" lon="4.28752">
        <ele>217.4</ele>
        <time>2024-04-01T10:30:49Z</time>
      </trkpt>
      <trkpt lat="50.04479" lon="4.2876">
        <ele>217.4</ele>
        <time>2024-04-01T10:30:50Z</time>
      </trkpt>
      <trkpt lat="50.04481" lon="4.28769">
        <ele>217.4</ele>
        <time>2024-04-01T10:30:51Z</time>
      </trkpt>
      <trkpt lat="50.04484" lon="4.28778">
        <ele>217.4</ele>
        <time>2024-04-01T10:30:52Z</time>
      </trkpt>
      <trkpt lat="50.04487" lon="4.28788">
        <ele>217.6</ele>
        <time>2024-04-01T10:30:53Z</time>
      </trkpt>
      <trkpt lat="50.04489" lon="4.28798">
        <ele>217.4</ele>
        <time>2024-04-01T10:30:54Z</time>
      </trkpt>
      <trkpt lat="50.04492" lon="4.28807">
        <ele>217.4</ele>
        <time>2024-04-01T10:30:55Z</time>
      </trkpt>
      <trkpt lat="50.04495" lon="4.28817">
        <ele>217.6</ele>
        <time>2024-04-01T10:30:56Z</time>
      </trkpt>
      <trkpt lat="50.04497" lon="4.28827">
        <ele>217.4</ele>
        <time>2024-04-01T10:30:57Z</time>
      </trkpt>
      <trkpt lat="50.045" lon="4.28837">
        <ele>217.4</ele>
        <time>2024-04-01T10:30:58Z</time>
      </trkpt>
      <trkpt lat="50.04503" lon="4.28847">
        <ele>217.4</ele>
        <time>2024-04-01T10:30:59Z</time>
      </trkpt>
      <trkpt lat="50.04506" lon="4.28857">
        <ele>217.4</ele>
        <time>2024-04-01T10:31:00Z</time>
      </trkpt>
      <trkpt lat="50.04508" lon="4.28866">
        <ele>217.6</ele>
        <time>2024-04-01T10:31:01Z</time>
      </trkpt>
      <trkpt lat="50.04511" lon="4.28875">
        <ele>217.4</ele>
        <time>2024-04-01T10:31:02Z</time>
      </trkpt>
      <trkpt lat="50.04513" lon="4.28883">
        <ele>217.6</ele>
        <time>2024-04-01T10:31:03Z</time>
      </trkpt>
      <trkpt lat="50.04515" lon="4.28891">
        <ele>217.6</ele>
        <time>2024-04-01T10:31:04Z</time>
      </trkpt>
      <trkpt lat="50.04517" lon="4.28899">
        <ele>217.6</ele>
        <time>2024-04-01T10:31:05Z</time>
      </trkpt>
      <trkpt lat="50.04519" lon="4.28907">
        <ele>217.4</ele>
        <time>2024-04-01T10:31:06Z</time>
      </trkpt>
      <trkpt lat="50.0452" lon="4.28914">
        <ele>217.6</ele>
        <time>2024-04-01T10:31:07Z</time>
      </trkpt>
      <trkpt lat="50.04522" lon="4.28921">
        <ele>217.6</ele>
        <time>2024-04-01T10:31:08Z</time>
      </trkpt>
      <trkpt lat="50.04524" lon="4.28928">
        <ele>217.8</ele>
        <time>2024-04-01T10:31:09Z</time>
      </trkpt>
      <trkpt lat="50.04525" lon="4.28935">
        <ele>218</ele>
        <time>2024-04-01T10:31:10Z</time>
      </trkpt>
      <trkpt lat="50.04527" lon="4.28942">
        <ele>218.2</ele>
        <time>2024-04-01T10:31:11Z</time>
      </trkpt>
      <trkpt lat="50.04528" lon="4.28949">
        <ele>218.6</ele>
        <time>2024-04-01T10:31:12Z</time>
      </trkpt>
      <trkpt lat="50.04529" lon="4.28956">
        <ele>219.2</ele>
        <time>2024-04-01T10:31:13Z</time>
      </trkpt>
      <trkpt lat="50.0453" lon="4.28963">
        <ele>219.6</ele>
        <time>2024-04-01T10:31:14Z</time>
      </trkpt>
      <trkpt lat="50.04531" lon="4.2897">
        <ele>220.2</ele>
        <time>2024-04-01T10:31:15Z</time>
      </trkpt>
      <trkpt lat="50.04532" lon="4.28977">
        <ele>220.6</ele>
        <time>2024-04-01T10:31:16Z</time>
      </trkpt>
      <trkpt lat="50.04533" lon="4.28985">
        <ele>221</ele>
        <time>2024-04-01T10:31:17Z</time>
      </trkpt>
      <trkpt lat="50.04534" lon="4.28992">
        <ele>221.4</ele>
        <time>2024-04-01T10:31:18Z</time>
      </trkpt>
      <trkpt lat="50.04534" lon="4.29">
        <ele>222</ele>
        <time>2024-04-01T10:31:19Z</time>
      </trkpt>
      <trkpt lat="50.04534" lon="4.29008">
        <ele>222.4</ele>
        <time>2024-04-01T10:31:20Z</time>
      </trkpt>
      <trkpt lat="50.04535" lon="4.29016">
        <ele>222.8</ele>
        <time>2024-04-01T10:31:21Z</time>
      </trkpt>
      <trkpt lat="50.04535" lon="4.29024">
        <ele>222.8</ele>
        <time>2024-04-01T10:31:22Z</time>
      </trkpt>
      <trkpt lat="50.04536" lon="4.29031">
        <ele>223.2</ele>
        <time>2024-04-01T10:31:23Z</time>
      </trkpt>
      <trkpt lat="50.04536" lon="4.29039">
        <ele>223.8</ele>
        <time>2024-04-01T10:31:24Z</time>
      </trkpt>
      <trkpt lat="50.04536" lon="4.29046">
        <ele>224.2</ele>
        <time>2024-04-01T10:31:25Z</time>
      </trkpt>
      <trkpt lat="50.04537" lon="4.29054">
        <ele>224.2</ele>
        <time>2024-04-01T10:31:26Z</time>
      </trkpt>
      <trkpt lat="50.04537" lon="4.29062">
        <ele>224.6</ele>
        <time>2024-04-01T10:31:27Z</time>
      </trkpt>
      <trkpt lat="50.04537" lon="4.2907">
        <ele>225</ele>
        <time>2024-04-01T10:31:28Z</time>
      </trkpt>
      <trkpt lat="50.04538" lon="4.29079">
        <ele>225.2</ele>
        <time>2024-04-01T10:31:29Z</time>
      </trkpt>
      <trkpt lat="50.04538" lon="4.29087">
        <ele>225.2</ele>
        <time>2024-04-01T10:31:30Z</time>
      </trkpt>
      <trkpt lat="50.04538" lon="4.29096">
        <ele>225.4</ele>
        <time>2024-04-01T10:31:31Z</time>
      </trkpt>
      <trkpt lat="50.04538" lon="4.29104">
        <ele>225.4</ele>
        <time>2024-04-01T10:31:32Z</time>
      </trkpt>
      <trkpt lat="50.04538" lon="4.29113">
        <ele>225.6</ele>
        <time>2024-04-01T10:31:33Z</time>
      </trkpt>
      <trkpt lat="50.04538" lon="4.29122">
        <ele>225.6</ele>
        <time>2024-04-01T10:31:34Z</time>
      </trkpt>
      <trkpt lat="50.04538" lon="4.29131">
        <ele>226</ele>
        <time>2024-04-01T10:31:35Z</time>
      </trkpt>
      <trkpt lat="50.04538" lon="4.2914">
        <ele>226.4</ele>
        <time>2024-04-01T10:31:36Z</time>
      </trkpt>
      <trkpt lat="50.04538" lon="4.2915">
        <ele>226.4</ele>
        <time>2024-04-01T10:31:37Z</time>
      </trkpt>
      <trkpt lat="50.04538" lon="4.29159">
        <ele>226.6</ele>
        <time>2024-04-01T10:31:38Z</time>
      </trkpt>
      <trkpt lat="50.04537" lon="4.29169">
        <ele>226.6</ele>
        <time>2024-04-01T10:31:39Z</time>
      </trkpt>
      <trkpt lat="50.04537" lon="4.29179">
        <ele>227</ele>
        <time>2024-04-01T10:31:40Z</time>
      </trkpt>
      <trkpt lat="50.04537" lon="4.29189">
        <ele>226.8</ele>
        <time>2024-04-01T10:31:41Z</time>
      </trkpt>
      <trkpt lat="50.04537" lon="4.29199">
        <ele>226.8</ele>
        <time>2024-04-01T10:31:42Z</time>
      </trkpt>
      <trkpt lat="50.04537" lon="4.2921">
        <ele>227</ele>
        <time>2024-04-01T10:31:43Z</time>
      </trkpt>
      <trkpt lat="50.04536" lon="4.2922">
        <ele>227</ele>
        <time>2024-04-01T10:31:44Z</time>
      </trkpt>
      <trkpt lat="50.04536" lon="4.29231">
        <ele>227</ele>
        <time>2024-04-01T10:31:45Z</time>
      </trkpt>
      <trkpt lat="50.04536" lon="4.29242">
        <ele>227</ele>
        <time>2024-04-01T10:31:46Z</time>
      </trkpt>
      <trkpt lat="50.04536" lon="4.29253">
        <ele>227</ele>
        <time>2024-04-01T10:31:47Z</time>
      </trkpt>
      <trkpt lat="50.04536" lon="4.29264">
        <ele>227</ele>
        <time>2024-04-01T10:31:48Z</time>
      </trkpt>
      <trkpt lat="50.04536" lon="4.29275">
        <ele>226.8</ele>
        <time>2024-04-01T10:31:49Z</time>
      </trkpt>
      <trkpt lat="50.04537" lon="4.29286">
        <ele>226.6</ele>
        <time>2024-04-01T10:31:50Z</time>
      </trkpt>
      <trkpt lat="50.04538" lon="4.29297">
        <ele>226.8</ele>
        <time>2024-04-01T10:31:51Z</time>
      </trkpt>
      <trkpt lat="50.04539" lon="4.29309">
        <ele>226.6</ele>
        <time>2024-04-01T10:31:52Z</time>
      </trkpt>
      <trkpt lat="50.04539" lon="4.2932">
        <ele>226.2</ele>
        <time>2024-04-01T10:31:53Z</time>
      </trkpt>
      <trkpt lat="50.04541" lon="4.29332">
        <ele>225.8</ele>
        <time>2024-04-01T10:31:54Z</time>
      </trkpt>
      <trkpt lat="50.04542" lon="4.29344">
        <ele>225.6</ele>
        <time>2024-04-01T10:31:55Z</time>
      </trkpt>
      <trkpt lat="50.04543" lon="4.29356">
        <ele>225.6</ele>
        <time>2024-04-01T10:31:56Z</time>
      </trkpt>
      <trkpt lat="50.04544" lon="4.29368">
        <ele>225.6</ele>
        <time>2024-04-01T10:31:57Z</time>
      </trkpt>
      <trkpt lat="50.04545" lon="4.29377">
        <ele>225.4</ele>
        <time>2024-04-01T10:31:58Z</time>
      </trkpt>
      <trkpt lat="50.04545" lon="4.29385">
        <ele>225.2</ele>
        <time>2024-04-01T10:31:59Z</time>
      </trkpt>
      <trkpt lat="50.04542" lon="4.29392">
        <ele>225</ele>
        <time>2024-04-01T10:32:00Z</time>
      </trkpt>
      <trkpt lat="50.04537" lon="4.29395">
        <ele>225</ele>
        <time>2024-04-01T10:32:01Z</time>
      </trkpt>
      <trkpt lat="50.04531" lon="4.29397">
        <ele>224.8</ele>
        <time>2024-04-01T10:32:02Z</time>
      </trkpt>
      <trkpt lat="50.04526" lon="4.294">
        <ele>224.6</ele>
        <time>2024-04-01T10:32:03Z</time>
      </trkpt>
      <trkpt lat="50.04521" lon="4.29406">
        <ele>224</ele>
        <time>2024-04-01T10:32:04Z</time>
      </trkpt>
      <trkpt lat="50.04517" lon="4.29414">
        <ele>224</ele>
        <time>2024-04-01T10:32:05Z</time>
      </trkpt>
      <trkpt lat="50.04515" lon="4.29424">
        <ele>223.8</ele>
        <time>2024-04-01T10:32:06Z</time>
      </trkpt>
      <trkpt lat="50.04514" lon="4.29435">
        <ele>223.4</ele>
        <time>2024-04-01T10:32:07Z</time>
      </trkpt>
      <trkpt lat="50.04513" lon="4.29447">
        <ele>223.2</ele>
        <time>2024-04-01T10:32:08Z</time>
      </trkpt>
      <trkpt lat="50.04513" lon="4.29459">
        <ele>223</ele>
        <time>2024-04-01T10:32:09Z</time>
      </trkpt>
      <trkpt lat="50.04512" lon="4.29472">
        <ele>222.4</ele>
        <time>2024-04-01T10:32:10Z</time>
      </trkpt>
      <trkpt lat="50.04512" lon="4.29485">
        <ele>221.8</ele>
        <time>2024-04-01T10:32:11Z</time>
      </trkpt>
      <trkpt lat="50.04513" lon="4.29497">
        <ele>221.2</ele>
        <time>2024-04-01T10:32:12Z</time>
      </trkpt>
      <trkpt lat="50.04512" lon="4.29509">
        <ele>221.2</ele>
        <time>2024-04-01T10:32:13Z</time>
      </trkpt>
      <trkpt lat="50.0451" lon="4.29521">
        <ele>219.8</ele>
        <time>2024-04-01T10:32:14Z</time>
      </trkpt>
      <trkpt lat="50.04507" lon="4.29532">
        <ele>218.4</ele>
        <time>2024-04-01T10:32:15Z</time>
      </trkpt>
      <trkpt lat="50.04503" lon="4.29544">
        <ele>217.6</ele>
        <time>2024-04-01T10:32:16Z</time>
      </trkpt>
      <trkpt lat="50.04498" lon="4.29557">
        <ele>217</ele>
        <time>2024-04-01T10:32:17Z</time>
      </trkpt>
      <trkpt lat="50.04492" lon="4.2957">
        <ele>216.4</ele>
        <time>2024-04-01T10:32:18Z</time>
      </trkpt>
      <trkpt lat="50.04485" lon="4.29584">
        <ele>216.2</ele>
        <time>2024-04-01T10:32:19Z</time>
      </trkpt>
      <trkpt lat="50.04478" lon="4.29596">
        <ele>216</ele>
        <time>2024-04-01T10:32:20Z</time>
      </trkpt>
      <trkpt lat="50.04468" lon="4.29608">
        <ele>215.6</ele>
        <time>2024-04-01T10:32:21Z</time>
      </trkpt>
      <trkpt lat="50.04457" lon="4.29616">
        <ele>215.4</ele>
        <time>2024-04-01T10:32:22Z</time>
      </trkpt>
      <trkpt lat="50.04446" lon="4.29622">
        <ele>215.2</ele>
        <time>2024-04-01T10:32:23Z</time>
      </trkpt>
      <trkpt lat="50.04435" lon="4.29628">
        <ele>213.8</ele>
        <time>2024-04-01T10:32:24Z</time>
      </trkpt>
      <trkpt lat="50.04424" lon="4.29634">
        <ele>212.6</ele>
        <time>2024-04-01T10:32:25Z</time>
      </trkpt>
      <trkpt lat="50.04415" lon="4.29639">
        <ele>210</ele>
        <time>2024-04-01T10:32:26Z</time>
      </trkpt>
      <trkpt lat="50.04408" lon="4.29646">
        <ele>208</ele>
        <time>2024-04-01T10:32:27Z</time>
      </trkpt>
      <trkpt lat="50.04402" lon="4.29654">
        <ele>206.2</ele>
        <time>2024-04-01T10:32:28Z</time>
      </trkpt>
      <trkpt lat="50.04398" lon="4.29664">
        <ele>205</ele>
        <time>2024-04-01T10:32:29Z</time>
      </trkpt>
      <trkpt lat="50.04395" lon="4.29676">
        <ele>205</ele>
        <time>2024-04-01T10:32:30Z</time>
      </trkpt>
      <trkpt lat="50.04393" lon="4.29688">
        <ele>204.2</ele>
        <time>2024-04-01T10:32:31Z</time>
      </trkpt>
      <trkpt lat="50.04389" lon="4.29698">
        <ele>204</ele>
        <time>2024-04-01T10:32:32Z</time>
      </trkpt>
      <trkpt lat="50.04385" lon="4.29707">
        <ele>204</ele>
        <time>2024-04-01T10:32:33Z</time>
      </trkpt>
      <trkpt lat="50.04379" lon="4.29714">
        <ele>203.8</ele>
        <time>2024-04-01T10:32:34Z</time>
      </trkpt>
      <trkpt lat="50.04373" lon="4.2972">
        <ele>203.6</ele>
        <time>2024-04-01T10:32:35Z</time>
      </trkpt>
      <trkpt lat="50.04368" lon="4.29725">
        <ele>203.8</ele>
        <time>2024-04-01T10:32:36Z</time>
      </trkpt>
      <trkpt lat="50.04362" lon="4.29729">
        <ele>203.6</ele>
        <time>2024-04-01T10:32:37Z</time>
      </trkpt>
      <trkpt lat="50.04357" lon="4.29732">
        <ele>203.8</ele>
        <time>2024-04-01T10:32:38Z</time>
      </trkpt>
      <trkpt lat="50.04351" lon="4.29735">
        <ele>203.8</ele>
        <time>2024-04-01T10:32:39Z</time>
      </trkpt>
      <trkpt lat="50.04346" lon="4.29739">
        <ele>203.6</ele>
        <time>2024-04-01T10:32:40Z</time>
      </trkpt>
      <trkpt lat="50.04341" lon="4.29741">
        <ele>203.8</ele>
        <time>2024-04-01T10:32:41Z</time>
      </trkpt>
      <trkpt lat="50.04337" lon="4.29744">
        <ele>203.8</ele>
        <time>2024-04-01T10:32:42Z</time>
      </trkpt>
      <trkpt lat="50.04332" lon="4.29746">
        <ele>204</ele>
        <time>2024-04-01T10:32:43Z</time>
      </trkpt>
      <trkpt lat="50.04327" lon="4.29747">
        <ele>204.4</ele>
        <time>2024-04-01T10:32:44Z</time>
      </trkpt>
      <trkpt lat="50.04323" lon="4.29749">
        <ele>204.4</ele>
        <time>2024-04-01T10:32:45Z</time>
      </trkpt>
      <trkpt lat="50.04319" lon="4.29751">
        <ele>204.8</ele>
        <time>2024-04-01T10:32:46Z</time>
      </trkpt>
      <trkpt lat="50.04314" lon="4.29752">
        <ele>204.8</ele>
        <time>2024-04-01T10:32:47Z</time>
      </trkpt>
      <trkpt lat="50.0431" lon="4.29753">
        <ele>205</ele>
        <time>2024-04-01T10:32:48Z</time>
      </trkpt>
      <trkpt lat="50.04306" lon="4.29755">
        <ele>205.2</ele>
        <time>2024-04-01T10:32:49Z</time>
      </trkpt>
      <trkpt lat="50.04301" lon="4.29756">
        <ele>205.2</ele>
        <time>2024-04-01T10:32:50Z</time>
      </trkpt>
      <trkpt lat="50.04297" lon="4.29757">
        <ele>205.8</ele>
        <time>2024-04-01T10:32:51Z</time>
      </trkpt>
      <trkpt lat="50.04293" lon="4.29758">
        <ele>206.2</ele>
        <time>2024-04-01T10:32:52Z</time>
      </trkpt>
      <trkpt lat="50.04289" lon="4.29758">
        <ele>206.6</ele>
        <time>2024-04-01T10:32:53Z</time>
      </trkpt>
      <trkpt lat="50.04284" lon="4.29759">
        <ele>207.2</ele>
        <time>2024-04-01T10:32:54Z</time>
      </trkpt>
      <trkpt lat="50.0428" lon="4.29759">
        <ele>208.2</ele>
        <time>2024-04-01T10:32:55Z</time>
      </trkpt>
      <trkpt lat="50.04276" lon="4.29759">
        <ele>208.8</ele>
        <time>2024-04-01T10:32:56Z</time>
      </trkpt>
      <trkpt lat="50.04272" lon="4.2976">
        <ele>209</ele>
        <time>2024-04-01T10:32:57Z</time>
      </trkpt>
      <trkpt lat="50.04267" lon="4.2976">
        <ele>209.2</ele>
        <time>2024-04-01T10:32:58Z</time>
      </trkpt>
      <trkpt lat="50.04263" lon="4.2976">
        <ele>209.4</ele>
        <time>2024-04-01T10:32:59Z</time>
      </trkpt>
      <trkpt lat="50.04259" lon="4.2976">
        <ele>209.6</ele>
        <time>2024-04-01T10:33:00Z</time>
      </trkpt>
      <trkpt lat="50.04255" lon="4.2976">
        <ele>209.6</ele>
        <time>2024-04-01T10:33:01Z</time>
      </trkpt>
      <trkpt lat="50.0425" lon="4.2976">
        <ele>209.6</ele>
        <time>2024-04-01T10:33:02Z</time>
      </trkpt>
      <trkpt lat="50.04246" lon="4.29761">
        <ele>210</ele>
        <time>2024-04-01T10:33:03Z</time>
      </trkpt>
      <trkpt lat="50.04242" lon="4.29761">
        <ele>210.2</ele>
        <time>2024-04-01T10:33:04Z</time>
      </trkpt>
      <trkpt lat="50.04238" lon="4.29761">
        <ele>210.4</ele>
        <time>2024-04-01T10:33:05Z</time>
      </trkpt>
      <trkpt lat="50.04233" lon="4.29761">
        <ele>210.4</ele>
        <time>2024-04-01T10:33:06Z</time>
      </trkpt>
      <trkpt lat="50.04229" lon="4.29762">
        <ele>210.4</ele>
        <time>2024-04-01T10:33:07Z</time>
      </trkpt>
      <trkpt lat="50.04225" lon="4.29762">
        <ele>210.4</ele>
        <time>2024-04-01T10:33:08Z</time>
      </trkpt>
      <trkpt lat="50.04221" lon="4.29762">
        <ele>210.8</ele>
        <time>2024-04-01T10:33:09Z</time>
      </trkpt>
      <trkpt lat="50.04217" lon="4.29762">
        <ele>211.4</ele>
        <time>2024-04-01T10:33:10Z</time>
      </trkpt>
      <trkpt lat="50.04213" lon="4.29763">
        <ele>211.8</ele>
        <time>2024-04-01T10:33:11Z</time>
      </trkpt>
      <trkpt lat="50.04209" lon="4.29763">
        <ele>212.2</ele>
        <time>2024-04-01T10:33:12Z</time>
      </trkpt>
      <trkpt lat="50.04204" lon="4.29763">
        <ele>212.4</ele>
        <time>2024-04-01T10:33:13Z</time>
      </trkpt>
      <trkpt lat="50.042" lon="4.29763">
        <ele>212.6</ele>
        <time>2024-04-01T10:33:14Z</time>
      </trkpt>
      <trkpt lat="50.04196" lon="4.29763">
        <ele>213</ele>
        <time>2024-04-01T10:33:15Z</time>
      </trkpt>
      <trkpt lat="50.04192" lon="4.29763">
        <ele>213</ele>
        <time>2024-04-01T10:33:16Z</time>
      </trkpt>
      <trkpt lat="50.04188" lon="4.29764">
        <ele>213</ele>
        <time>2024-04-01T10:33:17Z</time>
      </trkpt>
      <trkpt lat="50.04184" lon="4.29764">
        <ele>213.4</ele>
        <time>2024-04-01T10:33:18Z</time>
      </trkpt>
      <trkpt lat="50.0418" lon="4.29764">
        <ele>213.6</ele>
        <time>2024-04-01T10:33:19Z</time>
      </trkpt>
      <trkpt lat="50.04177" lon="4.29765">
        <ele>213.8</ele>
        <time>2024-04-01T10:33:20Z</time>
      </trkpt>
      <trkpt lat="50.04173" lon="4.29765">
        <ele>214</ele>
        <time>2024-04-01T10:33:21Z</time>
      </trkpt>
      <trkpt lat="50.04169" lon="4.29766">
        <ele>214.2</ele>
        <time>2024-04-01T10:33:22Z</time>
      </trkpt>
      <trkpt lat="50.04165" lon="4.29766">
        <ele>214.6</ele>
        <time>2024-04-01T10:33:23Z</time>
      </trkpt>
      <trkpt lat="50.04161" lon="4.29766">
        <ele>214.8</ele>
        <time>2024-04-01T10:33:24Z</time>
      </trkpt>
      <trkpt lat="50.04158" lon="4.29766">
        <ele>215</ele>
        <time>2024-04-01T10:33:25Z</time>
      </trkpt>
      <trkpt lat="50.04154" lon="4.29766">
        <ele>215.2</ele>
        <time>2024-04-01T10:33:26Z</time>
      </trkpt>
      <trkpt lat="50.0415" lon="4.29766">
        <ele>215.2</ele>
        <time>2024-04-01T10:33:27Z</time>
      </trkpt>
      <trkpt lat="50.04147" lon="4.29766">
        <ele>215.2</ele>
        <time>2024-04-01T10:33:28Z</time>
      </trkpt>
      <trkpt lat="50.04144" lon="4.29767">
        <ele>215.4</ele>
        <time>2024-04-01T10:33:29Z</time>
      </trkpt>
      <trkpt lat="50.0414" lon="4.29767">
        <ele>215.8</ele>
        <time>2024-04-01T10:33:30Z</time>
      </trkpt>
      <trkpt lat="50.04137" lon="4.29767">
        <ele>216.2</ele>
        <time>2024-04-01T10:33:31Z</time>
      </trkpt>
      <trkpt lat="50.04134" lon="4.29767">
        <ele>216.6</ele>
        <time>2024-04-01T10:33:32Z</time>
      </trkpt>
      <trkpt lat="50.0413" lon="4.29767">
        <ele>216.8</ele>
        <time>2024-04-01T10:33:33Z</time>
      </trkpt>
      <trkpt lat="50.04127" lon="4.29768">
        <ele>217.2</ele>
        <time>2024-04-01T10:33:34Z</time>
      </trkpt>
      <trkpt lat="50.04124" lon="4.29768">
        <ele>217.2</ele>
        <time>2024-04-01T10:33:35Z</time>
      </trkpt>
      <trkpt lat="50.04121" lon="4.29768">
        <ele>217.4</ele>
        <time>2024-04-01T10:33:36Z</time>
      </trkpt>
      <trkpt lat="50.04118" lon="4.29768">
        <ele>217.8</ele>
        <time>2024-04-01T10:33:37Z</time>
      </trkpt>
      <trkpt lat="50.04115" lon="4.29768">
        <ele>218</ele>
        <time>2024-04-01T10:33:38Z</time>
      </trkpt>
      <trkpt lat="50.04112" lon="4.29768">
        <ele>218.4</ele>
        <time>2024-04-01T10:33:39Z</time>
      </trkpt>
      <trkpt lat="50.04109" lon="4.29768">
        <ele>218.8</ele>
        <time>2024-04-01T10:33:40Z</time>
      </trkpt>
      <trkpt lat="50.04106" lon="4.29768">
        <ele>219.2</ele>
        <time>2024-04-01T10:33:41Z</time>
      </trkpt>
      <trkpt lat="50.04102" lon="4.29768">
        <ele>219.6</ele>
        <time>2024-04-01T10:33:42Z</time>
      </trkpt>
      <trkpt lat="50.04099" lon="4.29769">
        <ele>220</ele>
        <time>2024-04-01T10:33:43Z</time>
      </trkpt>
      <trkpt lat="50.04096" lon="4.29769">
        <ele>220.2</ele>
        <time>2024-04-01T10:33:44Z</time>
      </trkpt>
      <trkpt lat="50.04094" lon="4.29769">
        <ele>220.2</ele>
        <time>2024-04-01T10:33:45Z</time>
      </trkpt>
      <trkpt lat="50.04091" lon="4.29769">
        <ele>220.4</ele>
        <time>2024-04-01T10:33:46Z</time>
      </trkpt>
      <trkpt lat="50.04088" lon="4.2977">
        <ele>220.8</ele>
        <time>2024-04-01T10:33:47Z</time>
      </trkpt>
      <trkpt lat="50.04085" lon="4.2977">
        <ele>221</ele>
        <time>2024-04-01T10:33:48Z</time>
      </trkpt>
      <trkpt lat="50.04082" lon="4.2977">
        <ele>221.6</ele>
        <time>2024-04-01T10:33:49Z</time>
      </trkpt>
      <trkpt lat="50.04079" lon="4.2977">
        <ele>221.8</ele>
        <time>2024-04-01T10:33:50Z</time>
      </trkpt>
      <trkpt lat="50.04077" lon="4.2977">
        <ele>222.2</ele>
        <time>2024-04-01T10:33:51Z</time>
      </trkpt>
      <trkpt lat="50.04074" lon="4.29771">
        <ele>222.4</ele>
        <time>2024-04-01T10:33:52Z</time>
      </trkpt>
      <trkpt lat="50.04071" lon="4.29771">
        <ele>222.4</ele>
        <time>2024-04-01T10:33:53Z</time>
      </trkpt>
      <trkpt lat="50.04068" lon="4.29771">
        <ele>222.8</ele>
        <time>2024-04-01T10:33:54Z</time>
      </trkpt>
      <trkpt lat="50.04065" lon="4.29771">
        <ele>222.8</ele>
        <time>2024-04-01T10:33:55Z</time>
      </trkpt>
      <trkpt lat="50.04063" lon="4.29771">
        <ele>223</ele>
        <time>2024-04-01T10:33:56Z</time>
      </trkpt>
      <trkpt lat="50.0406" lon="4.29772">
        <ele>223.2</ele>
        <time>2024-04-01T10:33:57Z</time>
      </trkpt>
      <trkpt lat="50.04057" lon="4.29772">
        <ele>223.6</ele>
        <time>2024-04-01T10:33:58Z</time>
      </trkpt>
      <trkpt lat="50.04054" lon="4.29772">
        <ele>223.8</ele>
        <time>2024-04-01T10:33:59Z</time>
      </trkpt>
      <trkpt lat="50.04052" lon="4.29772">
        <ele>223.8</ele>
        <time>2024-04-01T10:34:00Z</time>
      </trkpt>
      <trkpt lat="50.04049" lon="4.29772">
        <ele>224.2</ele>
        <time>2024-04-01T10:34:01Z</time>
      </trkpt>
      <trkpt lat="50.04046" lon="4.29773">
        <ele>224.6</ele>
        <time>2024-04-01T10:34:02Z</time>
      </trkpt>
      <trkpt lat="50.04044" lon="4.29773">
        <ele>224.8</ele>
        <time>2024-04-01T10:34:03Z</time>
      </trkpt>
      <trkpt lat="50.04041" lon="4.29773">
        <ele>225</ele>
        <time>2024-04-01T10:34:04Z</time>
      </trkpt>
      <trkpt lat="50.04038" lon="4.29774">
        <ele>225.2</ele>
        <time>2024-04-01T10:34:05Z</time>
      </trkpt>
      <trkpt lat="50.04035" lon="4.29774">
        <ele>225.6</ele>
        <time>2024-04-01T10:34:06Z</time>
      </trkpt>
      <trkpt lat="50.04032" lon="4.29775">
        <ele>226</ele>
        <time>2024-04-01T10:34:07Z</time>
      </trkpt>
      <trkpt lat="50.04029" lon="4.29775">
        <ele>226</ele>
        <time>2024-04-01T10:34:08Z</time>
      </trkpt>
      <trkpt lat="50.04026" lon="4.29775">
        <ele>226</ele>
        <time>2024-04-01T10:34:09Z</time>
      </trkpt>
      <trkpt lat="50.04023" lon="4.29776">
        <ele>226</ele>
        <time>2024-04-01T10:34:10Z</time>
      </trkpt>
      <trkpt lat="50.0402" lon="4.29776">
        <ele>226.4</ele>
        <time>2024-04-01T10:34:11Z</time>
      </trkpt>
      <trkpt lat="50.04017" lon="4.29776">
        <ele>226.4</ele>
        <time>2024-04-01T10:34:12Z</time>
      </trkpt>
      <trkpt lat="50.04014" lon="4.29776">
        <ele>226.6</ele>
        <time>2024-04-01T10:34:13Z</time>
      </trkpt>
      <trkpt lat="50.04011" lon="4.29777">
        <ele>226.6</ele>
        <time>2024-04-01T10:34:14Z</time>
      </trkpt>
      <trkpt lat="50.04008" lon="4.29777">
        <ele>226.6</ele>
        <time>2024-04-01T10:34:15Z</time>
      </trkpt>
      <trkpt lat="50.04005" lon="4.29777">
        <ele>226.8</ele>
        <time>2024-04-01T10:34:16Z</time>
      </trkpt>
      <trkpt lat="50.04002" lon="4.29778">
        <ele>227</ele>
        <time>2024-04-01T10:34:17Z</time>
      </trkpt>
      <trkpt lat="50.04" lon="4.29778">
        <ele>227</ele>
        <time>2024-04-01T10:34:18Z</time>
      </trkpt>
      <trkpt lat="50.03997" lon="4.29778">
        <ele>227.2</ele>
        <time>2024-04-01T10:34:19Z</time>
      </trkpt>
      <trkpt lat="50.03994" lon="4.29779">
        <ele>227.4</ele>
        <time>2024-04-01T10:34:20Z</time>
      </trkpt>
      <trkpt lat="50.03991" lon="4.29779">
        <ele>227.6</ele>
        <time>2024-04-01T10:34:21Z</time>
      </trkpt>
      <trkpt lat="50.03988" lon="4.29779">
        <ele>227.8</ele>
        <time>2024-04-01T10:34:22Z</time>
      </trkpt>
      <trkpt lat="50.03985" lon="4.2978">
        <ele>227.8</ele>
        <time>2024-04-01T10:34:23Z</time>
      </trkpt>
      <trkpt lat="50.03982" lon="4.2978">
        <ele>227.8</ele>
        <time>2024-04-01T10:34:24Z</time>
      </trkpt>
      <trkpt lat="50.03979" lon="4.2978">
        <ele>227.8</ele>
        <time>2024-04-01T10:34:25Z</time>
      </trkpt>
      <trkpt lat="50.03976" lon="4.2978">
        <ele>228</ele>
        <time>2024-04-01T10:34:26Z</time>
      </trkpt>
      <trkpt lat="50.03973" lon="4.2978">
        <ele>228</ele>
        <time>2024-04-01T10:34:27Z</time>
      </trkpt>
      <trkpt lat="50.0397" lon="4.29781">
        <ele>228.2</ele>
        <time>2024-04-01T10:34:28Z</time>
      </trkpt>
      <trkpt lat="50.03967" lon="4.29781">
        <ele>228</ele>
        <time>2024-04-01T10:34:29Z</time>
      </trkpt>
      <trkpt lat="50.03964" lon="4.29781">
        <ele>228.4</ele>
        <time>2024-04-01T10:34:30Z</time>
      </trkpt>
      <trkpt lat="50.03961" lon="4.29782">
        <ele>228.8</ele>
        <time>2024-04-01T10:34:31Z</time>
      </trkpt>
      <trkpt lat="50.03958" lon="4.29782">
        <ele>229.2</ele>
        <time>2024-04-01T10:34:32Z</time>
      </trkpt>
      <trkpt lat="50.03954" lon="4.29782">
        <ele>229.6</ele>
        <time>2024-04-01T10:34:33Z</time>
      </trkpt>
      <trkpt lat="50.03951" lon="4.29783">
        <ele>229.8</ele>
        <time>2024-04-01T10:34:34Z</time>
      </trkpt>
      <trkpt lat="50.03948" lon="4.29783">
        <ele>230</ele>
        <time>2024-04-01T10:34:35Z</time>
      </trkpt>
      <trkpt lat="50.03945" lon="4.29783">
        <ele>230.6</ele>
        <time>2024-04-01T10:34:36Z</time>
      </trkpt>
      <trkpt lat="50.03942" lon="4.29784">
        <ele>230.6</ele>
        <time>2024-04-01T10:34:37Z</time>
      </trkpt>
      <trkpt lat="50.03939" lon="4.29784">
        <ele>231</ele>
        <time>2024-04-01T10:34:38Z</time>
      </trkpt>
      <trkpt lat="50.03936" lon="4.29784">
        <ele>231.2</ele>
        <time>2024-04-01T10:34:39Z</time>
      </trkpt>
      <trkpt lat="50.03933" lon="4.29784">
        <ele>231.2</ele>
        <time>2024-04-01T10:34:40Z</time>
      </trkpt>
      <trkpt lat="50.0393" lon="4.29785">
        <ele>231.2</ele>
        <time>2024-04-01T10:34:41Z</time>
      </trkpt>
      <trkpt lat="50.03927" lon="4.29785">
        <ele>231.4</ele>
        <time>2024-04-01T10:34:42Z</time>
      </trkpt>
      <trkpt lat="50.03924" lon="4.29785">
        <ele>231.6</ele>
        <time>2024-04-01T10:34:43Z</time>
      </trkpt>
      <trkpt lat="50.03921" lon="4.29786">
        <ele>231.6</ele>
        <time>2024-04-01T10:34:44Z</time>
      </trkpt>
      <trkpt lat="50.03918" lon="4.29786">
        <ele>231.6</ele>
        <time>2024-04-01T10:34:45Z</time>
      </trkpt>
      <trkpt lat="50.03915" lon="4.29786">
        <ele>231.6</ele>
        <time>2024-04-01T10:34:46Z</time>
      </trkpt>
      <trkpt lat="50.03912" lon="4.29786">
        <ele>231.8</ele>
        <time>2024-04-01T10:34:47Z</time>
      </trkpt>
      <trkpt lat="50.03909" lon="4.29786">
        <ele>231.8</ele>
        <time>2024-04-01T10:34:48Z</time>
      </trkpt>
      <trkpt lat="50.03906" lon="4.29787">
        <ele>231.8</ele>
        <time>2024-04-01T10:34:49Z</time>
      </trkpt>
      <trkpt lat="50.03903" lon="4.29787">
        <ele>231.8</ele>
        <time>2024-04-01T10:34:50Z</time>
      </trkpt>
      <trkpt lat="50.039" lon="4.29787">
        <ele>232</ele>
        <time>2024-04-01T10:34:51Z</time>
      </trkpt>
      <trkpt lat="50.03897" lon="4.29788">
        <ele>232</ele>
        <time>2024-04-01T10:34:52Z</time>
      </trkpt>
      <trkpt lat="50.03894" lon="4.29788">
        <ele>232</ele>
        <time>2024-04-01T10:34:53Z</time>
      </trkpt>
      <trkpt lat="50.03891" lon="4.29788">
        <ele>232</ele>
        <time>2024-04-01T10:34:54Z</time>
      </trkpt>
      <trkpt lat="50.03888" lon="4.29788">
        <ele>232</ele>
        <time>2024-04-01T10:34:55Z</time>
      </trkpt>
      <trkpt lat="50.03885" lon="4.29789">
        <ele>232</ele>
        <time>2024-04-01T10:34:56Z</time>
      </trkpt>
      <trkpt lat="50.03882" lon="4.29789">
        <ele>232.2</ele>
        <time>2024-04-01T10:34:57Z</time>
      </trkpt>
      <trkpt lat="50.03879" lon="4.29789">
        <ele>232.4</ele>
        <time>2024-04-01T10:34:58Z</time>
      </trkpt>
      <trkpt lat="50.03876" lon="4.2979">
        <ele>232.6</ele>
        <time>2024-04-01T10:34:59Z</time>
      </trkpt>
      <trkpt lat="50.03873" lon="4.2979">
        <ele>232.6</ele>
        <time>2024-04-01T10:35:00Z</time>
      </trkpt>
      <trkpt lat="50.0387" lon="4.2979">
        <ele>232.8</ele>
        <time>2024-04-01T10:35:01Z</time>
      </trkpt>
      <trkpt lat="50.03867" lon="4.2979">
        <ele>232.8</ele>
        <time>2024-04-01T10:35:02Z</time>
      </trkpt>
      <trkpt lat="50.03864" lon="4.2979">
        <ele>232.8</ele>
        <time>2024-04-01T10:35:03Z</time>
      </trkpt>
      <trkpt lat="50.0386" lon="4.2979">
        <ele>232.8</ele>
        <time>2024-04-01T10:35:04Z</time>
      </trkpt>
      <trkpt lat="50.03857" lon="4.29791">
        <ele>233</ele>
        <time>2024-04-01T10:35:05Z</time>
      </trkpt>
      <trkpt lat="50.03854" lon="4.29791">
        <ele>233.2</ele>
        <time>2024-04-01T10:35:06Z</time>
      </trkpt>
      <trkpt lat="50.03851" lon="4.29791">
        <ele>233.8</ele>
        <time>2024-04-01T10:35:07Z</time>
      </trkpt>
      <trkpt lat="50.03848" lon="4.29791">
        <ele>234.2</ele>
        <time>2024-04-01T10:35:08Z</time>
      </trkpt>
      <trkpt lat="50.03844" lon="4.29792">
        <ele>234.4</ele>
        <time>2024-04-01T10:35:09Z</time>
      </trkpt>
      <trkpt lat="50.03841" lon="4.29792">
        <ele>234.6</ele>
        <time>2024-04-01T10:35:10Z</time>
      </trkpt>
      <trkpt lat="50.03838" lon="4.29792">
        <ele>235</ele>
        <time>2024-04-01T10:35:11Z</time>
      </trkpt>
      <trkpt lat="50.03835" lon="4.29792">
        <ele>235.2</ele>
        <time>2024-04-01T10:35:12Z</time>
      </trkpt>
      <trkpt lat="50.03832" lon="4.29792">
        <ele>235.4</ele>
        <time>2024-04-01T10:35:13Z</time>
      </trkpt>
      <trkpt lat="50.03829" lon="4.29793">
        <ele>235.4</ele>
        <time>2024-04-01T10:35:14Z</time>
      </trkpt>
      <trkpt lat="50.03826" lon="4.29793">
        <ele>235.8</ele>
        <time>2024-04-01T10:35:15Z</time>
      </trkpt>
      <trkpt lat="50.03822" lon="4.29793">
        <ele>236</ele>
        <time>2024-04-01T10:35:16Z</time>
      </trkpt>
      <trkpt lat="50.03819" lon="4.29793">
        <ele>236.2</ele>
        <time>2024-04-01T10:35:17Z</time>
      </trkpt>
      <trkpt lat="50.03816" lon="4.29794">
        <ele>236.2</ele>
        <time>2024-04-01T10:35:18Z</time>
      </trkpt>
      <trkpt lat="50.03813" lon="4.29794">
        <ele>236.2</ele>
        <time>2024-04-01T10:35:19Z</time>
      </trkpt>
      <trkpt lat="50.0381" lon="4.29794">
        <ele>236.2</ele>
        <time>2024-04-01T10:35:20Z</time>
      </trkpt>
      <trkpt lat="50.03806" lon="4.29794">
        <ele>236.4</ele>
        <time>2024-04-01T10:35:21Z</time>
      </trkpt>
      <trkpt lat="50.03803" lon="4.29795">
        <ele>236.8</ele>
        <time>2024-04-01T10:35:22Z</time>
      </trkpt>
      <trkpt lat="50.038" lon="4.29795">
        <ele>236.8</ele>
        <time>2024-04-01T10:35:23Z</time>
      </trkpt>
      <trkpt lat="50.03797" lon="4.29795">
        <ele>236.8</ele>
        <time>2024-04-01T10:35:24Z</time>
      </trkpt>
      <trkpt lat="50.03793" lon="4.29795">
        <ele>237.2</ele>
        <time>2024-04-01T10:35:25Z</time>
      </trkpt>
      <trkpt lat="50.0379" lon="4.29796">
        <ele>237.4</ele>
        <time>2024-04-01T10:35:26Z</time>
      </trkpt>
      <trkpt lat="50.03787" lon="4.29796">
        <ele>237.8</ele>
        <time>2024-04-01T10:35:27Z</time>
      </trkpt>
      <trkpt lat="50.03784" lon="4.29796">
        <ele>238</ele>
        <time>2024-04-01T10:35:28Z</time>
      </trkpt>
      <trkpt lat="50.03781" lon="4.29797">
        <ele>238.2</ele>
        <time>2024-04-01T10:35:29Z</time>
      </trkpt>
      <trkpt lat="50.03778" lon="4.29797">
        <ele>238.2</ele>
        <time>2024-04-01T10:35:30Z</time>
      </trkpt>
      <trkpt lat="50.03775" lon="4.29798">
        <ele>238.4</ele>
        <time>2024-04-01T10:35:31Z</time>
      </trkpt>
      <trkpt lat="50.03772" lon="4.29798">
        <ele>238.4</ele>
        <time>2024-04-01T10:35:32Z</time>
      </trkpt>
      <trkpt lat="50.03769" lon="4.29798">
        <ele>238.8</ele>
        <time>2024-04-01T10:35:33Z</time>
      </trkpt>
      <trkpt lat="50.03766" lon="4.29798">
        <ele>238.8</ele>
        <time>2024-04-01T10:35:34Z</time>
      </trkpt>
      <trkpt lat="50.03763" lon="4.29799">
        <ele>238.8</ele>
        <time>2024-04-01T10:35:35Z</time>
      </trkpt>
      <trkpt lat="50.03759" lon="4.29799">
        <ele>238.8</ele>
        <time>2024-04-01T10:35:36Z</time>
      </trkpt>
      <trkpt lat="50.03756" lon="4.29799">
        <ele>238.8</ele>
        <time>2024-04-01T10:35:37Z</time>
      </trkpt>
      <trkpt lat="50.03753" lon="4.298">
        <ele>239</ele>
        <time>2024-04-01T10:35:38Z</time>
      </trkpt>
      <trkpt lat="50.0375" lon="4.298">
        <ele>239</ele>
        <time>2024-04-01T10:35:39Z</time>
      </trkpt>
      <trkpt lat="50.03747" lon="4.29801">
        <ele>238.8</ele>
        <time>2024-04-01T10:35:40Z</time>
      </trkpt>
      <trkpt lat="50.03744" lon="4.29801">
        <ele>239</ele>
        <time>2024-04-01T10:35:41Z</time>
      </trkpt>
      <trkpt lat="50.03741" lon="4.29802">
        <ele>239</ele>
        <time>2024-04-01T10:35:42Z</time>
      </trkpt>
      <trkpt lat="50.03738" lon="4.29802">
        <ele>239.2</ele>
        <time>2024-04-01T10:35:43Z</time>
      </trkpt>
      <trkpt lat="50.03734" lon="4.29802">
        <ele>239.2</ele>
        <time>2024-04-01T10:35:44Z</time>
      </trkpt>
      <trkpt lat="50.03731" lon="4.29802">
        <ele>239.2</ele>
        <time>2024-04-01T10:35:45Z</time>
      </trkpt>
      <trkpt lat="50.03728" lon="4.29802">
        <ele>239.2</ele>
        <time>2024-04-01T10:35:46Z</time>
      </trkpt>
      <trkpt lat="50.03725" lon="4.29802">
        <ele>239.2</ele>
        <time>2024-04-01T10:35:47Z</time>
      </trkpt>
      <trkpt lat="50.03722" lon="4.29802">
        <ele>239.6</ele>
        <time>2024-04-01T10:35:48Z</time>
      </trkpt>
      <trkpt lat="50.03718" lon="4.29803">
        <ele>239.8</ele>
        <time>2024-04-01T10:35:49Z</time>
      </trkpt>
      <trkpt lat="50.03715" lon="4.29803">
        <ele>240.2</ele>
        <time>2024-04-01T10:35:50Z</time>
      </trkpt>
      <trkpt lat="50.03712" lon="4.29803">
        <ele>240.4</ele>
        <time>2024-04-01T10:35:51Z</time>
      </trkpt>
      <trkpt lat="50.03709" lon="4.29804">
        <ele>241</ele>
        <time>2024-04-01T10:35:52Z</time>
      </trkpt>
      <trkpt lat="50.03706" lon="4.29804">
        <ele>241</ele>
        <time>2024-04-01T10:35:53Z</time>
      </trkpt>
      <trkpt lat="50.03703" lon="4.29804">
        <ele>241.4</ele>
        <time>2024-04-01T10:35:54Z</time>
      </trkpt>
      <trkpt lat="50.03699" lon="4.29805">
        <ele>241.4</ele>
        <time>2024-04-01T10:35:55Z</time>
      </trkpt>
      <trkpt lat="50.03696" lon="4.29805">
        <ele>241.8</ele>
        <time>2024-04-01T10:35:56Z</time>
      </trkpt>
      <trkpt lat="50.03693" lon="4.29805">
        <ele>241.8</ele>
        <time>2024-04-01T10:35:57Z</time>
      </trkpt>
      <trkpt lat="50.03689" lon="4.29806">
        <ele>242</ele>
        <time>2024-04-01T10:35:58Z</time>
      </trkpt>
      <trkpt lat="50.03686" lon="4.29806">
        <ele>242</ele>
        <time>2024-04-01T10:35:59Z</time>
      </trkpt>
      <trkpt lat="50.03682" lon="4.29807">
        <ele>242.4</ele>
        <time>2024-04-01T10:36:00Z</time>
      </trkpt>
      <trkpt lat="50.03679" lon="4.29807">
        <ele>242.2</ele>
        <time>2024-04-01T10:36:01Z</time>
      </trkpt>
      <trkpt lat="50.03675" lon="4.29807">
        <ele>242.4</ele>
        <time>2024-04-01T10:36:02Z</time>
      </trkpt>
      <trkpt lat="50.03672" lon="4.29808">
        <ele>242.6</ele>
        <time>2024-04-01T10:36:03Z</time>
      </trkpt>
      <trkpt lat="50.03669" lon="4.29808">
        <ele>242.8</ele>
        <time>2024-04-01T10:36:04Z</time>
      </trkpt>
      <trkpt lat="50.03666" lon="4.29808">
        <ele>242.8</ele>
        <time>2024-04-01T10:36:05Z</time>
      </trkpt>
      <trkpt lat="50.03662" lon="4.29809">
        <ele>243.4</ele>
        <time>2024-04-01T10:36:06Z</time>
      </trkpt>
      <trkpt lat="50.03659" lon="4.29809">
        <ele>243.2</ele>
        <time>2024-04-01T10:36:07Z</time>
      </trkpt>
      <trkpt lat="50.03656" lon="4.2981">
        <ele>243.4</ele>
        <time>2024-04-01T10:36:08Z</time>
      </trkpt>
      <trkpt lat="50.03652" lon="4.2981">
        <ele>243.6</ele>
        <time>2024-04-01T10:36:09Z</time>
      </trkpt>
      <trkpt lat="50.03649" lon="4.29811">
        <ele>243.8</ele>
        <time>2024-04-01T10:36:10Z</time>
      </trkpt>
      <trkpt lat="50.03646" lon="4.29811">
        <ele>243.8</ele>
        <time>2024-04-01T10:36:11Z</time>
      </trkpt>
      <trkpt lat="50.03642" lon="4.29811">
        <ele>243.8</ele>
        <time>2024-04-01T10:36:12Z</time>
      </trkpt>
      <trkpt lat="50.03639" lon="4.29812">
        <ele>244</ele>
        <time>2024-04-01T10:36:13Z</time>
      </trkpt>
      <trkpt lat="50.03636" lon="4.29812">
        <ele>244.2</ele>
        <time>2024-04-01T10:36:14Z</time>
      </trkpt>
      <trkpt lat="50.03632" lon="4.29812">
        <ele>244.4</ele>
        <time>2024-04-01T10:36:15Z</time>
      </trkpt>
      <trkpt lat="50.03629" lon="4.29812">
        <ele>244.6</ele>
        <time>2024-04-01T10:36:16Z</time>
      </trkpt>
      <trkpt lat="50.03625" lon="4.29812">
        <ele>244.6</ele>
        <time>2024-04-01T10:36:17Z</time>
      </trkpt>
      <trkpt lat="50.03622" lon="4.29813">
        <ele>244.6</ele>
        <time>2024-04-01T10:36:18Z</time>
      </trkpt>
      <trkpt lat="50.03618" lon="4.29813">
        <ele>244.8</ele>
        <time>2024-04-01T10:36:19Z</time>
      </trkpt>
      <trkpt lat="50.03614" lon="4.29813">
        <ele>244.8</ele>
        <time>2024-04-01T10:36:20Z</time>
      </trkpt>
      <trkpt lat="50.03611" lon="4.29814">
        <ele>244.8</ele>
        <time>2024-04-01T10:36:21Z</time>
      </trkpt>
      <trkpt lat="50.03607" lon="4.29814">
        <ele>244.8</ele>
        <time>2024-04-01T10:36:22Z</time>
      </trkpt>
      <trkpt lat="50.03603" lon="4.29814">
        <ele>245</ele>
        <time>2024-04-01T10:36:23Z</time>
      </trkpt>
      <trkpt lat="50.036" lon="4.29815">
        <ele>245</ele>
        <time>2024-04-01T10:36:24Z</time>
      </trkpt>
      <trkpt lat="50.03596" lon="4.29815">
        <ele>245</ele>
        <time>2024-04-01T10:36:25Z</time>
      </trkpt>
      <trkpt lat="50.03592" lon="4.29816">
        <ele>245</ele>
        <time>2024-04-01T10:36:26Z</time>
      </trkpt>
      <trkpt lat="50.03589" lon="4.29816">
        <ele>245.2</ele>
        <time>2024-04-01T10:36:27Z</time>
      </trkpt>
      <trkpt lat="50.03585" lon="4.29817">
        <ele>245.2</ele>
        <time>2024-04-01T10:36:28Z</time>
      </trkpt>
      <trkpt lat="50.03581" lon="4.29817">
        <ele>245.2</ele>
        <time>2024-04-01T10:36:29Z</time>
      </trkpt>
      <trkpt lat="50.03578" lon="4.29817">
        <ele>245.4</ele>
        <time>2024-04-01T10:36:30Z</time>
      </trkpt>
      <trkpt lat="50.03574" lon="4.29818">
        <ele>245.4</ele>
        <time>2024-04-01T10:36:31Z</time>
      </trkpt>
      <trkpt lat="50.03571" lon="4.29818">
        <ele>245.8</ele>
        <time>2024-04-01T10:36:32Z</time>
      </trkpt>
      <trkpt lat="50.03567" lon="4.29819">
        <ele>246</ele>
        <time>2024-04-01T10:36:33Z</time>
      </trkpt>
      <trkpt lat="50.03563" lon="4.29819">
        <ele>246.2</ele>
        <time>2024-04-01T10:36:34Z</time>
      </trkpt>
      <trkpt lat="50.0356" lon="4.29819">
        <ele>246.6</ele>
        <time>2024-04-01T10:36:35Z</time>
      </trkpt>
      <trkpt lat="50.03556" lon="4.2982">
        <ele>247</ele>
        <time>2024-04-01T10:36:36Z</time>
      </trkpt>
      <trkpt lat="50.03552" lon="4.2982">
        <ele>247</ele>
        <time>2024-04-01T10:36:37Z</time>
      </trkpt>
      <trkpt lat="50.03549" lon="4.2982">
        <ele>247.2</ele>
        <time>2024-04-01T10:36:38Z</time>
      </trkpt>
      <trkpt lat="50.03545" lon="4.2982">
        <ele>247.6</ele>
        <time>2024-04-01T10:36:39Z</time>
      </trkpt>
      <trkpt lat="50.03541" lon="4.29821">
        <ele>248</ele>
        <time>2024-04-01T10:36:40Z</time>
      </trkpt>
      <trkpt lat="50.03538" lon="4.29821">
        <ele>248.2</ele>
        <time>2024-04-01T10:36:41Z</time>
      </trkpt>
      <trkpt lat="50.03534" lon="4.29821">
        <ele>248.4</ele>
        <time>2024-04-01T10:36:42Z</time>
      </trkpt>
      <trkpt lat="50.03531" lon="4.29822">
        <ele>248.6</ele>
        <time>2024-04-01T10:36:43Z</time>
      </trkpt>
      <trkpt lat="50.03527" lon="4.29822">
        <ele>248.8</ele>
        <time>2024-04-01T10:36:44Z</time>
      </trkpt>
      <trkpt lat="50.03523" lon="4.29823">
        <ele>248.8</ele>
        <time>2024-04-01T10:36:45Z</time>
      </trkpt>
      <trkpt lat="50.0352" lon="4.29823">
        <ele>249</ele>
        <time>2024-04-01T10:36:46Z</time>
      </trkpt>
      <trkpt lat="50.03516" lon="4.29824">
        <ele>249</ele>
        <time>2024-04-01T10:36:47Z</time>
      </trkpt>
      <trkpt lat="50.03512" lon="4.29824">
        <ele>249</ele>
        <time>2024-04-01T10:36:48Z</time>
      </trkpt>
      <trkpt lat="50.03508" lon="4.29824">
        <ele>249</ele>
        <time>2024-04-01T10:36:49Z</time>
      </trkpt>
      <trkpt lat="50.03505" lon="4.29824">
        <ele>249</ele>
        <time>2024-04-01T10:36:50Z</time>
      </trkpt>
      <trkpt lat="50.03501" lon="4.29824">
        <ele>249.2</ele>
        <time>2024-04-01T10:36:51Z</time>
      </trkpt>
      <trkpt lat="50.03497" lon="4.29824">
        <ele>249.2</ele>
        <time>2024-04-01T10:36:52Z</time>
      </trkpt>
      <trkpt lat="50.03494" lon="4.29824">
        <ele>249.6</ele>
        <time>2024-04-01T10:36:53Z</time>
      </trkpt>
      <trkpt lat="50.0349" lon="4.29824">
        <ele>249.6</ele>
        <time>2024-04-01T10:36:54Z</time>
      </trkpt>
      <trkpt lat="50.03486" lon="4.29824">
        <ele>249.6</ele>
        <time>2024-04-01T10:36:55Z</time>
      </trkpt>
      <trkpt lat="50.03483" lon="4.29824">
        <ele>249.8</ele>
        <time>2024-04-01T10:36:56Z</time>
      </trkpt>
      <trkpt lat="50.03479" lon="4.29823">
        <ele>250</ele>
        <time>2024-04-01T10:36:57Z</time>
      </trkpt>
      <trkpt lat="50.03476" lon="4.29822">
        <ele>250</ele>
        <time>2024-04-01T10:36:58Z</time>
      </trkpt>
      <trkpt lat="50.03472" lon="4.29821">
        <ele>250.2</ele>
        <time>2024-04-01T10:36:59Z</time>
      </trkpt>
      <trkpt lat="50.03469" lon="4.2982">
        <ele>250.2</ele>
        <time>2024-04-01T10:37:00Z</time>
      </trkpt>
      <trkpt lat="50.03466" lon="4.29819">
        <ele>250.2</ele>
        <time>2024-04-01T10:37:01Z</time>
      </trkpt>
      <trkpt lat="50.03462" lon="4.29817">
        <ele>250.4</ele>
        <time>2024-04-01T10:37:02Z</time>
      </trkpt>
      <trkpt lat="50.03459" lon="4.29816">
        <ele>250.6</ele>
        <time>2024-04-01T10:37:03Z</time>
      </trkpt>
      <trkpt lat="50.03456" lon="4.29814">
        <ele>250.8</ele>
        <time>2024-04-01T10:37:04Z</time>
      </trkpt>
      <trkpt lat="50.03452" lon="4.29812">
        <ele>250.8</ele>
        <time>2024-04-01T10:37:05Z</time>
      </trkpt>
      <trkpt lat="50.03449" lon="4.2981">
        <ele>250.8</ele>
        <time>2024-04-01T10:37:06Z</time>
      </trkpt>
      <trkpt lat="50.03446" lon="4.29809">
        <ele>251.2</ele>
        <time>2024-04-01T10:37:07Z</time>
      </trkpt>
      <trkpt lat="50.03443" lon="4.29807">
        <ele>251.2</ele>
        <time>2024-04-01T10:37:08Z</time>
      </trkpt>
      <trkpt lat="50.0344" lon="4.29805">
        <ele>251.4</ele>
        <time>2024-04-01T10:37:09Z</time>
      </trkpt>
      <trkpt lat="50.03437" lon="4.29803">
        <ele>251.4</ele>
        <time>2024-04-01T10:37:10Z</time>
      </trkpt>
      <trkpt lat="50.03433" lon="4.29802">
        <ele>251.6</ele>
        <time>2024-04-01T10:37:11Z</time>
      </trkpt>
      <trkpt lat="50.0343" lon="4.298">
        <ele>251.8</ele>
        <time>2024-04-01T10:37:12Z</time>
      </trkpt>
      <trkpt lat="50.03427" lon="4.29798">
        <ele>252</ele>
        <time>2024-04-01T10:37:13Z</time>
      </trkpt>
      <trkpt lat="50.03424" lon="4.29796">
        <ele>252</ele>
        <time>2024-04-01T10:37:14Z</time>
      </trkpt>
      <trkpt lat="50.0342" lon="4.29794">
        <ele>252.2</ele>
        <time>2024-04-01T10:37:15Z</time>
      </trkpt>
      <trkpt lat="50.03417" lon="4.29792">
        <ele>252.2</ele>
        <time>2024-04-01T10:37:16Z</time>
      </trkpt>
      <trkpt lat="50.03414" lon="4.2979">
        <ele>252.4</ele>
        <time>2024-04-01T10:37:17Z</time>
      </trkpt>
      <trkpt lat="50.03411" lon="4.29788">
        <ele>252.8</ele>
        <time>2024-04-01T10:37:18Z</time>
      </trkpt>
      <trkpt lat="50.03408" lon="4.29787">
        <ele>253.2</ele>
        <time>2024-04-01T10:37:19Z</time>
      </trkpt>
      <trkpt lat="50.03404" lon="4.29785">
        <ele>253.4</ele>
        <time>2024-04-01T10:37:20Z</time>
      </trkpt>
      <trkpt lat="50.03401" lon="4.29783">
        <ele>253.4</ele>
        <time>2024-04-01T10:37:21Z</time>
      </trkpt>
      <trkpt lat="50.03398" lon="4.29781">
        <ele>253.6</ele>
        <time>2024-04-01T10:37:22Z</time>
      </trkpt>
      <trkpt lat="50.03395" lon="4.29779">
        <ele>253.6</ele>
        <time>2024-04-01T10:37:23Z</time>
      </trkpt>
      <trkpt lat="50.03391" lon="4.29778">
        <ele>253.8</ele>
        <time>2024-04-01T10:37:24Z</time>
      </trkpt>
      <trkpt lat="50.03388" lon="4.29776">
        <ele>253.8</ele>
        <time>2024-04-01T10:37:25Z</time>
      </trkpt>
      <trkpt lat="50.03385" lon="4.29774">
        <ele>254</ele>
        <time>2024-04-01T10:37:26Z</time>
      </trkpt>
      <trkpt lat="50.03382" lon="4.29772">
        <ele>254.4</ele>
        <time>2024-04-01T10:37:27Z</time>
      </trkpt>
      <trkpt lat="50.03378" lon="4.2977">
        <ele>254.4</ele>
        <time>2024-04-01T10:37:28Z</time>
      </trkpt>
      <trkpt lat="50.03375" lon="4.29768">
        <ele>254.6</ele>
        <time>2024-04-01T10:37:29Z</time>
      </trkpt>
      <trkpt lat="50.03372" lon="4.29767">
        <ele>254.6</ele>
        <time>2024-04-01T10:37:30Z</time>
      </trkpt>
      <trkpt lat="50.03369" lon="4.29765">
        <ele>255</ele>
        <time>2024-04-01T10:37:31Z</time>
      </trkpt>
      <trkpt lat="50.03365" lon="4.29763">
        <ele>254.8</ele>
        <time>2024-04-01T10:37:32Z</time>
      </trkpt>
      <trkpt lat="50.03362" lon="4.29761">
        <ele>254.8</ele>
        <time>2024-04-01T10:37:33Z</time>
      </trkpt>
      <trkpt lat="50.03359" lon="4.2976">
        <ele>255</ele>
        <time>2024-04-01T10:37:34Z</time>
      </trkpt>
      <trkpt lat="50.03356" lon="4.29758">
        <ele>255</ele>
        <time>2024-04-01T10:37:35Z</time>
      </trkpt>
      <trkpt lat="50.03352" lon="4.29756">
        <ele>255.2</ele>
        <time>2024-04-01T10:37:36Z</time>
      </trkpt>
      <trkpt lat="50.03349" lon="4.29754">
        <ele>255.4</ele>
        <time>2024-04-01T10:37:37Z</time>
      </trkpt>
      <trkpt lat="50.03346" lon="4.29752">
        <ele>255.8</ele>
        <time>2024-04-01T10:37:38Z</time>
      </trkpt>
      <trkpt lat="50.03343" lon="4.2975">
        <ele>255.8</ele>
        <time>2024-04-01T10:37:39Z</time>
      </trkpt>
      <trkpt lat="50.03339" lon="4.29749">
        <ele>256</ele>
        <time>2024-04-01T10:37:40Z</time>
      </trkpt>
      <trkpt lat="50.03336" lon="4.29747">
        <ele>256</ele>
        <time>2024-04-01T10:37:41Z</time>
      </trkpt>
      <trkpt lat="50.03333" lon="4.29745">
        <ele>256.2</ele>
        <time>2024-04-01T10:37:42Z</time>
      </trkpt>
      <trkpt lat="50.0333" lon="4.29743">
        <ele>256.4</ele>
        <time>2024-04-01T10:37:43Z</time>
      </trkpt>
      <trkpt lat="50.03327" lon="4.29742">
        <ele>256.8</ele>
        <time>2024-04-01T10:37:44Z</time>
      </trkpt>
      <trkpt lat="50.03324" lon="4.2974">
        <ele>257.4</ele>
        <time>2024-04-01T10:37:45Z</time>
      </trkpt>
      <trkpt lat="50.03321" lon="4.29738">
        <ele>258</ele>
        <time>2024-04-01T10:37:46Z</time>
      </trkpt>
      <trkpt lat="50.03317" lon="4.29736">
        <ele>258.2</ele>
        <time>2024-04-01T10:37:47Z</time>
      </trkpt>
      <trkpt lat="50.03314" lon="4.29734">
        <ele>258.4</ele>
        <time>2024-04-01T10:37:48Z</time>
      </trkpt>
      <trkpt lat="50.03311" lon="4.29733">
        <ele>258.6</ele>
        <time>2024-04-01T10:37:49Z</time>
      </trkpt>
      <trkpt lat="50.03308" lon="4.29731">
        <ele>258.8</ele>
        <time>2024-04-01T10:37:50Z</time>
      </trkpt>
      <trkpt lat="50.03305" lon="4.29729">
        <ele>258.8</ele>
        <time>2024-04-01T10:37:51Z</time>
      </trkpt>
      <trkpt lat="50.03302" lon="4.29727">
        <ele>259</ele>
        <time>2024-04-01T10:37:52Z</time>
      </trkpt>
      <trkpt lat="50.03299" lon="4.29725">
        <ele>259.2</ele>
        <time>2024-04-01T10:37:53Z</time>
      </trkpt>
      <trkpt lat="50.03296" lon="4.29724">
        <ele>259.2</ele>
        <time>2024-04-01T10:37:54Z</time>
      </trkpt>
      <trkpt lat="50.03293" lon="4.29722">
        <ele>259.2</ele>
        <time>2024-04-01T10:37:55Z</time>
      </trkpt>
      <trkpt lat="50.0329" lon="4.29721">
        <ele>259.4</ele>
        <time>2024-04-01T10:37:56Z</time>
      </trkpt>
      <trkpt lat="50.03287" lon="4.29719">
        <ele>259.4</ele>
        <time>2024-04-01T10:37:57Z</time>
      </trkpt>
      <trkpt lat="50.03284" lon="4.29717">
        <ele>259.4</ele>
        <time>2024-04-01T10:37:58Z</time>
      </trkpt>
      <trkpt lat="50.03281" lon="4.29716">
        <ele>259.4</ele>
        <time>2024-04-01T10:37:59Z</time>
      </trkpt>
      <trkpt lat="50.03278" lon="4.29714">
        <ele>259.6</ele>
        <time>2024-04-01T10:38:00Z</time>
      </trkpt>
      <trkpt lat="50.03275" lon="4.29712">
        <ele>259.8</ele>
        <time>2024-04-01T10:38:01Z</time>
      </trkpt>
      <trkpt lat="50.03272" lon="4.2971">
        <ele>260</ele>
        <time>2024-04-01T10:38:02Z</time>
      </trkpt>
      <trkpt lat="50.03269" lon="4.29709">
        <ele>260.2</ele>
        <time>2024-04-01T10:38:03Z</time>
      </trkpt>
      <trkpt lat="50.03266" lon="4.29707">
        <ele>260.4</ele>
        <time>2024-04-01T10:38:04Z</time>
      </trkpt>
      <trkpt lat="50.03263" lon="4.29705">
        <ele>260.4</ele>
        <time>2024-04-01T10:38:05Z</time>
      </trkpt>
      <trkpt lat="50.0326" lon="4.29703">
        <ele>260.6</ele>
        <time>2024-04-01T10:38:06Z</time>
      </trkpt>
      <trkpt lat="50.03257" lon="4.29701">
        <ele>261</ele>
        <time>2024-04-01T10:38:07Z</time>
      </trkpt>
      <trkpt lat="50.03254" lon="4.297">
        <ele>261.4</ele>
        <time>2024-04-01T10:38:08Z</time>
      </trkpt>
      <trkpt lat="50.03251" lon="4.29698">
        <ele>261.6</ele>
        <time>2024-04-01T10:38:09Z</time>
      </trkpt>
      <trkpt lat="50.03248" lon="4.29696">
        <ele>261.8</ele>
        <time>2024-04-01T10:38:10Z</time>
      </trkpt>
      <trkpt lat="50.03245" lon="4.29695">
        <ele>262</ele>
        <time>2024-04-01T10:38:11Z</time>
      </trkpt>
      <trkpt lat="50.03242" lon="4.29693">
        <ele>262.2</ele>
        <time>2024-04-01T10:38:12Z</time>
      </trkpt>
      <trkpt lat="50.03239" lon="4.29691">
        <ele>262.4</ele>
        <time>2024-04-01T10:38:13Z</time>
      </trkpt>
      <trkpt lat="50.03236" lon="4.29689">
        <ele>262.4</ele>
        <time>2024-04-01T10:38:14Z</time>
      </trkpt>
      <trkpt lat="50.03233" lon="4.29688">
        <ele>262.4</ele>
        <time>2024-04-01T10:38:15Z</time>
      </trkpt>
      <trkpt lat="50.0323" lon="4.29686">
        <ele>262.4</ele>
        <time>2024-04-01T10:38:16Z</time>
      </trkpt>
      <trkpt lat="50.03227" lon="4.29684">
        <ele>262.6</ele>
        <time>2024-04-01T10:38:17Z</time>
      </trkpt>
      <trkpt lat="50.03224" lon="4.29683">
        <ele>262.8</ele>
        <time>2024-04-01T10:38:18Z</time>
      </trkpt>
      <trkpt lat="50.03221" lon="4.29681">
        <ele>263.2</ele>
        <time>2024-04-01T10:38:19Z</time>
      </trkpt>
      <trkpt lat="50.03218" lon="4.29679">
        <ele>263.2</ele>
        <time>2024-04-01T10:38:20Z</time>
      </trkpt>
      <trkpt lat="50.03215" lon="4.29678">
        <ele>263.6</ele>
        <time>2024-04-01T10:38:21Z</time>
      </trkpt>
      <trkpt lat="50.03212" lon="4.29676">
        <ele>264</ele>
        <time>2024-04-01T10:38:22Z</time>
      </trkpt>
      <trkpt lat="50.03209" lon="4.29675">
        <ele>264.2</ele>
        <time>2024-04-01T10:38:23Z</time>
      </trkpt>
      <trkpt lat="50.03206" lon="4.29673">
        <ele>264.2</ele>
        <time>2024-04-01T10:38:24Z</time>
      </trkpt>
      <trkpt lat="50.03203" lon="4.29672">
        <ele>264.4</ele>
        <time>2024-04-01T10:38:25Z</time>
      </trkpt>
      <trkpt lat="50.032" lon="4.2967">
        <ele>264.2</ele>
        <time>2024-04-01T10:38:26Z</time>
      </trkpt>
      <trkpt lat="50.03197" lon="4.29669">
        <ele>264.4</ele>
        <time>2024-04-01T10:38:27Z</time>
      </trkpt>
      <trkpt lat="50.03194" lon="4.29668">
        <ele>264.4</ele>
        <time>2024-04-01T10:38:28Z</time>
      </trkpt>
      <trkpt lat="50.03191" lon="4.29667">
        <ele>264.4</ele>
        <time>2024-04-01T10:38:29Z</time>
      </trkpt>
      <trkpt lat="50.03188" lon="4.29665">
        <ele>264.6</ele>
        <time>2024-04-01T10:38:30Z</time>
      </trkpt>
      <trkpt lat="50.03185" lon="4.29664">
        <ele>264.6</ele>
        <time>2024-04-01T10:38:31Z</time>
      </trkpt>
      <trkpt lat="50.03181" lon="4.29662">
        <ele>264.8</ele>
        <time>2024-04-01T10:38:32Z</time>
      </trkpt>
      <trkpt lat="50.03178" lon="4.29661">
        <ele>264.8</ele>
        <time>2024-04-01T10:38:33Z</time>
      </trkpt>
      <trkpt lat="50.03175" lon="4.2966">
        <ele>264.8</ele>
        <time>2024-04-01T10:38:34Z</time>
      </trkpt>
      <trkpt lat="50.03172" lon="4.29659">
        <ele>264.8</ele>
        <time>2024-04-01T10:38:35Z</time>
      </trkpt>
      <trkpt lat="50.03168" lon="4.29658">
        <ele>264.8</ele>
        <time>2024-04-01T10:38:36Z</time>
      </trkpt>
      <trkpt lat="50.03165" lon="4.29657">
        <ele>265</ele>
        <time>2024-04-01T10:38:37Z</time>
      </trkpt>
      <trkpt lat="50.03162" lon="4.29656">
        <ele>265.2</ele>
        <time>2024-04-01T10:38:38Z</time>
      </trkpt>
      <trkpt lat="50.03159" lon="4.29656">
        <ele>265.4</ele>
        <time>2024-04-01T10:38:39Z</time>
      </trkpt>
      <trkpt lat="50.03155" lon="4.29655">
        <ele>265.6</ele>
        <time>2024-04-01T10:38:40Z</time>
      </trkpt>
      <trkpt lat="50.03152" lon="4.29654">
        <ele>265.6</ele>
        <time>2024-04-01T10:38:41Z</time>
      </trkpt>
      <trkpt lat="50.03149" lon="4.29653">
        <ele>265.8</ele>
        <time>2024-04-01T10:38:42Z</time>
      </trkpt>
      <trkpt lat="50.03145" lon="4.29652">
        <ele>266</ele>
        <time>2024-04-01T10:38:43Z</time>
      </trkpt>
      <trkpt lat="50.03142" lon="4.29651">
        <ele>265.8</ele>
        <time>2024-04-01T10:38:44Z</time>
      </trkpt>
      <trkpt lat="50.03138" lon="4.29651">
        <ele>266.2</ele>
        <time>2024-04-01T10:38:45Z</time>
      </trkpt>
      <trkpt lat="50.03134" lon="4.2965">
        <ele>266.2</ele>
        <time>2024-04-01T10:38:46Z</time>
      </trkpt>
      <trkpt lat="50.03131" lon="4.29649">
        <ele>266.4</ele>
        <time>2024-04-01T10:38:47Z</time>
      </trkpt>
      <trkpt lat="50.03127" lon="4.29649">
        <ele>266.6</ele>
        <time>2024-04-01T10:38:48Z</time>
      </trkpt>
      <trkpt lat="50.03124" lon="4.29648">
        <ele>266.8</ele>
        <time>2024-04-01T10:38:49Z</time>
      </trkpt>
      <trkpt lat="50.0312" lon="4.29647">
        <ele>266.8</ele>
        <time>2024-04-01T10:38:50Z</time>
      </trkpt>
      <trkpt lat="50.03116" lon="4.29646">
        <ele>267.4</ele>
        <time>2024-04-01T10:38:51Z</time>
      </trkpt>
      <trkpt lat="50.03113" lon="4.29645">
        <ele>267.8</ele>
        <time>2024-04-01T10:38:52Z</time>
      </trkpt>
      <trkpt lat="50.03109" lon="4.29645">
        <ele>268</ele>
        <time>2024-04-01T10:38:53Z</time>
      </trkpt>
      <trkpt lat="50.03105" lon="4.29644">
        <ele>268.2</ele>
        <time>2024-04-01T10:38:54Z</time>
      </trkpt>
      <trkpt lat="50.03101" lon="4.29644">
        <ele>268.2</ele>
        <time>2024-04-01T10:38:55Z</time>
      </trkpt>
      <trkpt lat="50.03097" lon="4.29644">
        <ele>268.4</ele>
        <time>2024-04-01T10:38:56Z</time>
      </trkpt>
      <trkpt lat="50.03093" lon="4.29644">
        <ele>268.4</ele>
        <time>2024-04-01T10:38:57Z</time>
      </trkpt>
      <trkpt lat="50.03089" lon="4.29644">
        <ele>268.4</ele>
        <time>2024-04-01T10:38:58Z</time>
      </trkpt>
      <trkpt lat="50.03085" lon="4.29644">
        <ele>268.4</ele>
        <time>2024-04-01T10:38:59Z</time>
      </trkpt>
      <trkpt lat="50.0308" lon="4.29643">
        <ele>268.4</ele>
        <time>2024-04-01T10:39:00Z</time>
      </trkpt>
      <trkpt lat="50.03076" lon="4.29642">
        <ele>268.4</ele>
        <time>2024-04-01T10:39:01Z</time>
      </trkpt>
      <trkpt lat="50.03071" lon="4.29641">
        <ele>268.4</ele>
        <time>2024-04-01T10:39:02Z</time>
      </trkpt>
      <trkpt lat="50.03067" lon="4.2964">
        <ele>268.4</ele>
        <time>2024-04-01T10:39:03Z</time>
      </trkpt>
      <trkpt lat="50.03062" lon="4.29639">
        <ele>268.6</ele>
        <time>2024-04-01T10:39:04Z</time>
      </trkpt>
      <trkpt lat="50.03058" lon="4.29638">
        <ele>268.6</ele>
        <time>2024-04-01T10:39:05Z</time>
      </trkpt>
      <trkpt lat="50.03053" lon="4.29637">
        <ele>268.8</ele>
        <time>2024-04-01T10:39:06Z</time>
      </trkpt>
      <trkpt lat="50.03049" lon="4.29636">
        <ele>268.8</ele>
        <time>2024-04-01T10:39:07Z</time>
      </trkpt>
      <trkpt lat="50.03044" lon="4.29635">
        <ele>268.8</ele>
        <time>2024-04-01T10:39:08Z</time>
      </trkpt>
      <trkpt lat="50.03039" lon="4.29634">
        <ele>268.8</ele>
        <time>2024-04-01T10:39:09Z</time>
      </trkpt>
      <trkpt lat="50.03034" lon="4.29632">
        <ele>269</ele>
        <time>2024-04-01T10:39:10Z</time>
      </trkpt>
      <trkpt lat="50.0303" lon="4.29631">
        <ele>269</ele>
        <time>2024-04-01T10:39:11Z</time>
      </trkpt>
      <trkpt lat="50.03025" lon="4.2963">
        <ele>268.6</ele>
        <time>2024-04-01T10:39:12Z</time>
      </trkpt>
      <trkpt lat="50.0302" lon="4.29628">
        <ele>268.6</ele>
        <time>2024-04-01T10:39:13Z</time>
      </trkpt>
      <trkpt lat="50.03015" lon="4.29627">
        <ele>268.6</ele>
        <time>2024-04-01T10:39:14Z</time>
      </trkpt>
      <trkpt lat="50.03009" lon="4.29625">
        <ele>268.4</ele>
        <time>2024-04-01T10:39:15Z</time>
      </trkpt>
      <trkpt lat="50.03004" lon="4.29624">
        <ele>268.4</ele>
        <time>2024-04-01T10:39:16Z</time>
      </trkpt>
      <trkpt lat="50.02998" lon="4.29623">
        <ele>268.4</ele>
        <time>2024-04-01T10:39:17Z</time>
      </trkpt>
      <trkpt lat="50.02993" lon="4.29621">
        <ele>268.4</ele>
        <time>2024-04-01T10:39:18Z</time>
      </trkpt>
      <trkpt lat="50.02987" lon="4.2962">
        <ele>268.4</ele>
        <time>2024-04-01T10:39:19Z</time>
      </trkpt>
      <trkpt lat="50.02982" lon="4.29619">
        <ele>268.2</ele>
        <time>2024-04-01T10:39:20Z</time>
      </trkpt>
      <trkpt lat="50.02976" lon="4.29617">
        <ele>268.4</ele>
        <time>2024-04-01T10:39:21Z</time>
      </trkpt>
      <trkpt lat="50.0297" lon="4.29616">
        <ele>268.4</ele>
        <time>2024-04-01T10:39:22Z</time>
      </trkpt>
      <trkpt lat="50.02965" lon="4.29614">
        <ele>268.2</ele>
        <time>2024-04-01T10:39:23Z</time>
      </trkpt>
      <trkpt lat="50.0296" lon="4.29612">
        <ele>268</ele>
        <time>2024-04-01T10:39:24Z</time>
      </trkpt>
      <trkpt lat="50.02954" lon="4.29611">
        <ele>268</ele>
        <time>2024-04-01T10:39:25Z</time>
      </trkpt>
      <trkpt lat="50.02949" lon="4.29609">
        <ele>268</ele>
        <time>2024-04-01T10:39:26Z</time>
      </trkpt>
      <trkpt lat="50.02943" lon="4.29608">
        <ele>267.6</ele>
        <time>2024-04-01T10:39:27Z</time>
      </trkpt>
      <trkpt lat="50.02938" lon="4.29606">
        <ele>267.6</ele>
        <time>2024-04-01T10:39:28Z</time>
      </trkpt>
      <trkpt lat="50.02932" lon="4.29605">
        <ele>267.2</ele>
        <time>2024-04-01T10:39:29Z</time>
      </trkpt>
      <trkpt lat="50.02927" lon="4.29603">
        <ele>267.2</ele>
        <time>2024-04-01T10:39:30Z</time>
      </trkpt>
      <trkpt lat="50.02921" lon="4.29601">
        <ele>267</ele>
        <time>2024-04-01T10:39:31Z</time>
      </trkpt>
      <trkpt lat="50.02915" lon="4.29599">
        <ele>266.8</ele>
        <time>2024-04-01T10:39:32Z</time>
      </trkpt>
      <trkpt lat="50.02909" lon="4.29598">
        <ele>267</ele>
        <time>2024-04-01T10:39:33Z</time>
      </trkpt>
      <trkpt lat="50.02904" lon="4.29596">
        <ele>266.6</ele>
        <time>2024-04-01T10:39:34Z</time>
      </trkpt>
      <trkpt lat="50.02898" lon="4.29593">
        <ele>266.6</ele>
        <time>2024-04-01T10:39:35Z</time>
      </trkpt>
      <trkpt lat="50.02892" lon="4.29591">
        <ele>266.4</ele>
        <time>2024-04-01T10:39:36Z</time>
      </trkpt>
      <trkpt lat="50.02887" lon="4.29589">
        <ele>266.4</ele>
        <time>2024-04-01T10:39:37Z</time>
      </trkpt>
      <trkpt lat="50.02881" lon="4.29586">
        <ele>266.4</ele>
        <time>2024-04-01T10:39:38Z</time>
      </trkpt>
      <trkpt lat="50.02876" lon="4.29584">
        <ele>265.8</ele>
        <time>2024-04-01T10:39:39Z</time>
      </trkpt>
      <trkpt lat="50.02871" lon="4.29581">
        <ele>265.6</ele>
        <time>2024-04-01T10:39:40Z</time>
      </trkpt>
      <trkpt lat="50.02866" lon="4.29579">
        <ele>265.4</ele>
        <time>2024-04-01T10:39:41Z</time>
      </trkpt>
      <trkpt lat="50.02861" lon="4.29577">
        <ele>265.4</ele>
        <time>2024-04-01T10:39:42Z</time>
      </trkpt>
      <trkpt lat="50.02856" lon="4.29574">
        <ele>265.4</ele>
        <time>2024-04-01T10:39:43Z</time>
      </trkpt>
      <trkpt lat="50.0285" lon="4.29572">
        <ele>265.6</ele>
        <time>2024-04-01T10:39:44Z</time>
      </trkpt>
      <trkpt lat="50.02845" lon="4.29569">
        <ele>265.4</ele>
        <time>2024-04-01T10:39:45Z</time>
      </trkpt>
      <trkpt lat="50.0284" lon="4.29567">
        <ele>265.4</ele>
        <time>2024-04-01T10:39:46Z</time>
      </trkpt>
      <trkpt lat="50.02834" lon="4.29564">
        <ele>265.4</ele>
        <time>2024-04-01T10:39:47Z</time>
      </trkpt>
      <trkpt lat="50.02829" lon="4.29561">
        <ele>265.4</ele>
        <time>2024-04-01T10:39:48Z</time>
      </trkpt>
      <trkpt lat="50.02824" lon="4.29559">
        <ele>265.4</ele>
        <time>2024-04-01T10:39:49Z</time>
      </trkpt>
      <trkpt lat="50.02819" lon="4.29556">
        <ele>265.6</ele>
        <time>2024-04-01T10:39:50Z</time>
      </trkpt>
      <trkpt lat="50.02813" lon="4.29554">
        <ele>265.6</ele>
        <time>2024-04-01T10:39:51Z</time>
      </trkpt>
      <trkpt lat="50.02808" lon="4.29551">
        <ele>265.8</ele>
        <time>2024-04-01T10:39:52Z</time>
      </trkpt>
      <trkpt lat="50.02803" lon="4.29549">
        <ele>265.8</ele>
        <time>2024-04-01T10:39:53Z</time>
      </trkpt>
      <trkpt lat="50.02798" lon="4.29546">
        <ele>266</ele>
        <time>2024-04-01T10:39:54Z</time>
      </trkpt>
      <trkpt lat="50.02792" lon="4.29543">
        <ele>266</ele>
        <time>2024-04-01T10:39:55Z</time>
      </trkpt>
      <trkpt lat="50.02787" lon="4.29541">
        <ele>266</ele>
        <time>2024-04-01T10:39:56Z</time>
      </trkpt>
      <trkpt lat="50.02782" lon="4.29538">
        <ele>266.2</ele>
        <time>2024-04-01T10:39:57Z</time>
      </trkpt>
      <trkpt lat="50.02777" lon="4.29536">
        <ele>266.2</ele>
        <time>2024-04-01T10:39:58Z</time>
      </trkpt>
      <trkpt lat="50.02771" lon="4.29534">
        <ele>266</ele>
        <time>2024-04-01T10:39:59Z</time>
      </trkpt>
      <trkpt lat="50.02766" lon="4.29531">
        <ele>266</ele>
        <time>2024-04-01T10:40:00Z</time>
      </trkpt>
      <trkpt lat="50.02761" lon="4.29529">
        <ele>266</ele>
        <time>2024-04-01T10:40:01Z</time>
      </trkpt>
      <trkpt lat="50.02755" lon="4.29526">
        <ele>266.2</ele>
        <time>2024-04-01T10:40:02Z</time>
      </trkpt>
      <trkpt lat="50.0275" lon="4.29524">
        <ele>266.2</ele>
        <time>2024-04-01T10:40:03Z</time>
      </trkpt>
      <trkpt lat="50.02744" lon="4.29521">
        <ele>266.2</ele>
        <time>2024-04-01T10:40:04Z</time>
      </trkpt>
      <trkpt lat="50.02738" lon="4.29519">
        <ele>266.4</ele>
        <time>2024-04-01T10:40:05Z</time>
      </trkpt>
      <trkpt lat="50.02733" lon="4.29517">
        <ele>266.2</ele>
        <time>2024-04-01T10:40:06Z</time>
      </trkpt>
      <trkpt lat="50.02726" lon="4.29515">
        <ele>266.4</ele>
        <time>2024-04-01T10:40:07Z</time>
      </trkpt>
      <trkpt lat="50.0272" lon="4.29513">
        <ele>266.2</ele>
        <time>2024-04-01T10:40:08Z</time>
      </trkpt>
      <trkpt lat="50.02714" lon="4.29511">
        <ele>266.2</ele>
        <time>2024-04-01T10:40:09Z</time>
      </trkpt>
      <trkpt lat="50.02707" lon="4.2951">
        <ele>266.2</ele>
        <time>2024-04-01T10:40:10Z</time>
      </trkpt>
      <trkpt lat="50.02701" lon="4.2951">
        <ele>266.2</ele>
        <time>2024-04-01T10:40:11Z</time>
      </trkpt>
      <trkpt lat="50.02694" lon="4.2951">
        <ele>266</ele>
        <time>2024-04-01T10:40:12Z</time>
      </trkpt>
      <trkpt lat="50.02688" lon="4.29511">
        <ele>265.8</ele>
        <time>2024-04-01T10:40:13Z</time>
      </trkpt>
      <trkpt lat="50.02681" lon="4.29513">
        <ele>265.8</ele>
        <time>2024-04-01T10:40:14Z</time>
      </trkpt>
      <trkpt lat="50.02675" lon="4.29515">
        <ele>266</ele>
        <time>2024-04-01T10:40:15Z</time>
      </trkpt>
      <trkpt lat="50.02669" lon="4.29517">
        <ele>266</ele>
        <time>2024-04-01T10:40:16Z</time>
      </trkpt>
      <trkpt lat="50.02664" lon="4.29519">
        <ele>266</ele>
        <time>2024-04-01T10:40:17Z</time>
      </trkpt>
      <trkpt lat="50.02658" lon="4.29521">
        <ele>266.2</ele>
        <time>2024-04-01T10:40:18Z</time>
      </trkpt>
      <trkpt lat="50.02653" lon="4.29523">
        <ele>266.2</ele>
        <time>2024-04-01T10:40:19Z</time>
      </trkpt>
      <trkpt lat="50.02648" lon="4.29525">
        <ele>266.2</ele>
        <time>2024-04-01T10:40:20Z</time>
      </trkpt>
      <trkpt lat="50.02642" lon="4.29526">
        <ele>266.2</ele>
        <time>2024-04-01T10:40:21Z</time>
      </trkpt>
      <trkpt lat="50.02638" lon="4.29527">
        <ele>266.2</ele>
        <time>2024-04-01T10:40:22Z</time>
      </trkpt>
      <trkpt lat="50.02633" lon="4.29528">
        <ele>266.2</ele>
        <time>2024-04-01T10:40:23Z</time>
      </trkpt>
      <trkpt lat="50.02628" lon="4.29528">
        <ele>266.2</ele>
        <time>2024-04-01T10:40:24Z</time>
      </trkpt>
      <trkpt lat="50.02624" lon="4.29528">
        <ele>266.2</ele>
        <time>2024-04-01T10:40:25Z</time>
      </trkpt>
      <trkpt lat="50.0262" lon="4.29529">
        <ele>266.2</ele>
        <time>2024-04-01T10:40:26Z</time>
      </trkpt>
      <trkpt lat="50.02616" lon="4.29529">
        <ele>266.4</ele>
        <time>2024-04-01T10:40:27Z</time>
      </trkpt>
      <trkpt lat="50.02612" lon="4.29529">
        <ele>266.6</ele>
        <time>2024-04-01T10:40:28Z</time>
      </trkpt>
      <trkpt lat="50.02607" lon="4.2953">
        <ele>266.8</ele>
        <time>2024-04-01T10:40:29Z</time>
      </trkpt>
      <trkpt lat="50.02603" lon="4.2953">
        <ele>267</ele>
        <time>2024-04-01T10:40:30Z</time>
      </trkpt>
      <trkpt lat="50.02599" lon="4.2953">
        <ele>267.4</ele>
        <time>2024-04-01T10:40:31Z</time>
      </trkpt>
      <trkpt lat="50.02594" lon="4.2953">
        <ele>267.4</ele>
        <time>2024-04-01T10:40:32Z</time>
      </trkpt>
      <trkpt lat="50.0259" lon="4.2953">
        <ele>267.8</ele>
        <time>2024-04-01T10:40:33Z</time>
      </trkpt>
      <trkpt lat="50.02585" lon="4.29531">
        <ele>268.2</ele>
        <time>2024-04-01T10:40:34Z</time>
      </trkpt>
      <trkpt lat="50.02581" lon="4.29531">
        <ele>268.8</ele>
        <time>2024-04-01T10:40:35Z</time>
      </trkpt>
      <trkpt lat="50.02577" lon="4.29532">
        <ele>269.2</ele>
        <time>2024-04-01T10:40:36Z</time>
      </trkpt>
      <trkpt lat="50.02572" lon="4.29533">
        <ele>269.6</ele>
        <time>2024-04-01T10:40:37Z</time>
      </trkpt>
      <trkpt lat="50.02567" lon="4.29534">
        <ele>269.8</ele>
        <time>2024-04-01T10:40:38Z</time>
      </trkpt>
      <trkpt lat="50.02563" lon="4.29535">
        <ele>270.2</ele>
        <time>2024-04-01T10:40:39Z</time>
      </trkpt>
      <trkpt lat="50.02558" lon="4.29536">
        <ele>270.2</ele>
        <time>2024-04-01T10:40:40Z</time>
      </trkpt>
      <trkpt lat="50.02554" lon="4.29536">
        <ele>270.6</ele>
        <time>2024-04-01T10:40:41Z</time>
      </trkpt>
      <trkpt lat="50.02549" lon="4.29536">
        <ele>270.6</ele>
        <time>2024-04-01T10:40:42Z</time>
      </trkpt>
      <trkpt lat="50.02545" lon="4.29537">
        <ele>270.8</ele>
        <time>2024-04-01T10:40:43Z</time>
      </trkpt>
      <trkpt lat="50.0254" lon="4.29536">
        <ele>270.8</ele>
        <time>2024-04-01T10:40:44Z</time>
      </trkpt>
      <trkpt lat="50.02536" lon="4.29536">
        <ele>270.8</ele>
        <time>2024-04-01T10:40:45Z</time>
      </trkpt>
      <trkpt lat="50.02531" lon="4.29536">
        <ele>271</ele>
        <time>2024-04-01T10:40:46Z</time>
      </trkpt>
      <trkpt lat="50.02526" lon="4.29536">
        <ele>271</ele>
        <time>2024-04-01T10:40:47Z</time>
      </trkpt>
      <trkpt lat="50.02522" lon="4.29535">
        <ele>271</ele>
        <time>2024-04-01T10:40:48Z</time>
      </trkpt>
      <trkpt lat="50.02517" lon="4.29536">
        <ele>271</ele>
        <time>2024-04-01T10:40:49Z</time>
      </trkpt>
      <trkpt lat="50.02512" lon="4.29536">
        <ele>271.2</ele>
        <time>2024-04-01T10:40:50Z</time>
      </trkpt>
      <trkpt lat="50.02508" lon="4.29537">
        <ele>271.2</ele>
        <time>2024-04-01T10:40:51Z</time>
      </trkpt>
      <trkpt lat="50.02504" lon="4.29537">
        <ele>271.4</ele>
        <time>2024-04-01T10:40:52Z</time>
      </trkpt>
      <trkpt lat="50.02499" lon="4.29538">
        <ele>271.4</ele>
        <time>2024-04-01T10:40:53Z</time>
      </trkpt>
      <trkpt lat="50.02495" lon="4.29538">
        <ele>271.4</ele>
        <time>2024-04-01T10:40:54Z</time>
      </trkpt>
      <trkpt lat="50.02491" lon="4.29538">
        <ele>271.6</ele>
        <time>2024-04-01T10:40:55Z</time>
      </trkpt>
      <trkpt lat="50.02486" lon="4.29539">
        <ele>271.6</ele>
        <time>2024-04-01T10:40:56Z</time>
      </trkpt>
      <trkpt lat="50.02481" lon="4.2954">
        <ele>271.8</ele>
        <time>2024-04-01T10:40:57Z</time>
      </trkpt>
      <trkpt lat="50.02476" lon="4.2954">
        <ele>271.8</ele>
        <time>2024-04-01T10:40:58Z</time>
      </trkpt>
      <trkpt lat="50.02471" lon="4.2954">
        <ele>271.8</ele>
        <time>2024-04-01T10:40:59Z</time>
      </trkpt>
      <trkpt lat="50.02466" lon="4.2954">
        <ele>272</ele>
        <time>2024-04-01T10:41:00Z</time>
      </trkpt>
      <trkpt lat="50.02461" lon="4.29541">
        <ele>271.8</ele>
        <time>2024-04-01T10:41:01Z</time>
      </trkpt>
      <trkpt lat="50.02455" lon="4.29541">
        <ele>271.8</ele>
        <time>2024-04-01T10:41:02Z</time>
      </trkpt>
      <trkpt lat="50.0245" lon="4.29541">
        <ele>272</ele>
        <time>2024-04-01T10:41:03Z</time>
      </trkpt>
      <trkpt lat="50.02444" lon="4.29541">
        <ele>272</ele>
        <time>2024-04-01T10:41:04Z</time>
      </trkpt>
      <trkpt lat="50.02439" lon="4.29542">
        <ele>272</ele>
        <time>2024-04-01T10:41:05Z</time>
      </trkpt>
      <trkpt lat="50.02434" lon="4.29543">
        <ele>272</ele>
        <time>2024-04-01T10:41:06Z</time>
      </trkpt>
      <trkpt lat="50.02428" lon="4.29543">
        <ele>272</ele>
        <time>2024-04-01T10:41:07Z</time>
      </trkpt>
      <trkpt lat="50.02423" lon="4.29544">
        <ele>272</ele>
        <time>2024-04-01T10:41:08Z</time>
      </trkpt>
      <trkpt lat="50.02418" lon="4.29545">
        <ele>272.2</ele>
        <time>2024-04-01T10:41:09Z</time>
      </trkpt>
      <trkpt lat="50.02413" lon="4.29545">
        <ele>272</ele>
        <time>2024-04-01T10:41:10Z</time>
      </trkpt>
      <trkpt lat="50.02409" lon="4.29545">
        <ele>272.2</ele>
        <time>2024-04-01T10:41:11Z</time>
      </trkpt>
      <trkpt lat="50.02404" lon="4.29545">
        <ele>272</ele>
        <time>2024-04-01T10:41:12Z</time>
      </trkpt>
      <trkpt lat="50.02399" lon="4.29545">
        <ele>272.2</ele>
        <time>2024-04-01T10:41:13Z</time>
      </trkpt>
      <trkpt lat="50.02393" lon="4.29545">
        <ele>272.2</ele>
        <time>2024-04-01T10:41:14Z</time>
      </trkpt>
      <trkpt lat="50.02387" lon="4.29545">
        <ele>272</ele>
        <time>2024-04-01T10:41:15Z</time>
      </trkpt>
      <trkpt lat="50.02381" lon="4.29545">
        <ele>272</ele>
        <time>2024-04-01T10:41:16Z</time>
      </trkpt>
      <trkpt lat="50.02375" lon="4.29546">
        <ele>272</ele>
        <time>2024-04-01T10:41:17Z</time>
      </trkpt>
      <trkpt lat="50.02369" lon="4.29546">
        <ele>271.8</ele>
        <time>2024-04-01T10:41:18Z</time>
      </trkpt>
      <trkpt lat="50.02362" lon="4.29546">
        <ele>271.8</ele>
        <time>2024-04-01T10:41:19Z</time>
      </trkpt>
      <trkpt lat="50.02355" lon="4.29546">
        <ele>271.8</ele>
        <time>2024-04-01T10:41:20Z</time>
      </trkpt>
      <trkpt lat="50.02348" lon="4.29547">
        <ele>271.8</ele>
        <time>2024-04-01T10:41:21Z</time>
      </trkpt>
      <trkpt lat="50.02341" lon="4.29547">
        <ele>271.6</ele>
        <time>2024-04-01T10:41:22Z</time>
      </trkpt>
      <trkpt lat="50.02334" lon="4.29547">
        <ele>271.6</ele>
        <time>2024-04-01T10:41:23Z</time>
      </trkpt>
      <trkpt lat="50.02327" lon="4.29548">
        <ele>271.6</ele>
        <time>2024-04-01T10:41:24Z</time>
      </trkpt>
      <trkpt lat="50.0232" lon="4.29548">
        <ele>271</ele>
        <time>2024-04-01T10:41:25Z</time>
      </trkpt>
      <trkpt lat="50.02313" lon="4.29549">
        <ele>270.2</ele>
        <time>2024-04-01T10:41:26Z</time>
      </trkpt>
      <trkpt lat="50.02305" lon="4.2955">
        <ele>269.6</ele>
        <time>2024-04-01T10:41:27Z</time>
      </trkpt>
      <trkpt lat="50.02298" lon="4.29551">
        <ele>269</ele>
        <time>2024-04-01T10:41:28Z</time>
      </trkpt>
      <trkpt lat="50.0229" lon="4.29552">
        <ele>268.6</ele>
        <time>2024-04-01T10:41:29Z</time>
      </trkpt>
      <trkpt lat="50.02282" lon="4.29553">
        <ele>268.2</ele>
        <time>2024-04-01T10:41:30Z</time>
      </trkpt>
      <trkpt lat="50.02274" lon="4.29553">
        <ele>267.6</ele>
        <time>2024-04-01T10:41:31Z</time>
      </trkpt>
      <trkpt lat="50.02266" lon="4.29553">
        <ele>267.2</ele>
        <time>2024-04-01T10:41:32Z</time>
      </trkpt>
      <trkpt lat="50.02257" lon="4.29553">
        <ele>267</ele>
        <time>2024-04-01T10:41:33Z</time>
      </trkpt>
      <trkpt lat="50.02249" lon="4.29554">
        <ele>266.8</ele>
        <time>2024-04-01T10:41:34Z</time>
      </trkpt>
      <trkpt lat="50.0224" lon="4.29554">
        <ele>266.6</ele>
        <time>2024-04-01T10:41:35Z</time>
      </trkpt>
      <trkpt lat="50.02231" lon="4.29554">
        <ele>266.6</ele>
        <time>2024-04-01T10:41:36Z</time>
      </trkpt>
      <trkpt lat="50.02222" lon="4.29555">
        <ele>266.4</ele>
        <time>2024-04-01T10:41:37Z</time>
      </trkpt>
      <trkpt lat="50.02213" lon="4.29555">
        <ele>266.4</ele>
        <time>2024-04-01T10:41:38Z</time>
      </trkpt>
      <trkpt lat="50.02204" lon="4.29556">
        <ele>266.4</ele>
        <time>2024-04-01T10:41:39Z</time>
      </trkpt>
      <trkpt lat="50.02195" lon="4.29557">
        <ele>266</ele>
        <time>2024-04-01T10:41:40Z</time>
      </trkpt>
      <trkpt lat="50.02186" lon="4.29557">
        <ele>265.8</ele>
        <time>2024-04-01T10:41:41Z</time>
      </trkpt>
      <trkpt lat="50.02178" lon="4.29557">
        <ele>265.6</ele>
        <time>2024-04-01T10:41:42Z</time>
      </trkpt>
      <trkpt lat="50.0217" lon="4.29557">
        <ele>265.4</ele>
        <time>2024-04-01T10:41:43Z</time>
      </trkpt>
      <trkpt lat="50.02162" lon="4.29558">
        <ele>265.2</ele>
        <time>2024-04-01T10:41:44Z</time>
      </trkpt>
      <trkpt lat="50.02153" lon="4.29559">
        <ele>264.6</ele>
        <time>2024-04-01T10:41:45Z</time>
      </trkpt>
      <trkpt lat="50.02146" lon="4.29559">
        <ele>263.8</ele>
        <time>2024-04-01T10:41:46Z</time>
      </trkpt>
      <trkpt lat="50.02138" lon="4.29559">
        <ele>263.2</ele>
        <time>2024-04-01T10:41:47Z</time>
      </trkpt>
      <trkpt lat="50.02131" lon="4.2956">
        <ele>262.8</ele>
        <time>2024-04-01T10:41:48Z</time>
      </trkpt>
      <trkpt lat="50.02124" lon="4.2956">
        <ele>262.8</ele>
        <time>2024-04-01T10:41:49Z</time>
      </trkpt>
      <trkpt lat="50.02118" lon="4.2956">
        <ele>262.6</ele>
        <time>2024-04-01T10:41:50Z</time>
      </trkpt>
      <trkpt lat="50.02112" lon="4.2956">
        <ele>262.6</ele>
        <time>2024-04-01T10:41:51Z</time>
      </trkpt>
      <trkpt lat="50.02106" lon="4.2956">
        <ele>262.6</ele>
        <time>2024-04-01T10:41:52Z</time>
      </trkpt>
      <trkpt lat="50.02101" lon="4.2956">
        <ele>262.6</ele>
        <time>2024-04-01T10:41:53Z</time>
      </trkpt>
      <trkpt lat="50.02096" lon="4.29561">
        <ele>262.6</ele>
        <time>2024-04-01T10:41:54Z</time>
      </trkpt>
      <trkpt lat="50.02091" lon="4.29561">
        <ele>262.6</ele>
        <time>2024-04-01T10:41:55Z</time>
      </trkpt>
      <trkpt lat="50.02086" lon="4.29562">
        <ele>262.6</ele>
        <time>2024-04-01T10:41:56Z</time>
      </trkpt>
      <trkpt lat="50.02082" lon="4.29562">
        <ele>263</ele>
        <time>2024-04-01T10:41:57Z</time>
      </trkpt>
      <trkpt lat="50.02078" lon="4.29563">
        <ele>263</ele>
        <time>2024-04-01T10:41:58Z</time>
      </trkpt>
      <trkpt lat="50.02074" lon="4.29564">
        <ele>263.8</ele>
        <time>2024-04-01T10:41:59Z</time>
      </trkpt>
      <trkpt lat="50.02069" lon="4.29564">
        <ele>264.8</ele>
        <time>2024-04-01T10:42:00Z</time>
      </trkpt>
      <trkpt lat="50.02065" lon="4.29564">
        <ele>265.4</ele>
        <time>2024-04-01T10:42:01Z</time>
      </trkpt>
      <trkpt lat="50.0206" lon="4.29564">
        <ele>266</ele>
        <time>2024-04-01T10:42:02Z</time>
      </trkpt>
      <trkpt lat="50.02056" lon="4.29564">
        <ele>266.4</ele>
        <time>2024-04-01T10:42:03Z</time>
      </trkpt>
      <trkpt lat="50.02051" lon="4.29564">
        <ele>266.8</ele>
        <time>2024-04-01T10:42:04Z</time>
      </trkpt>
      <trkpt lat="50.02047" lon="4.29564">
        <ele>266.8</ele>
        <time>2024-04-01T10:42:05Z</time>
      </trkpt>
      <trkpt lat="50.02043" lon="4.29563">
        <ele>267</ele>
        <time>2024-04-01T10:42:06Z</time>
      </trkpt>
      <trkpt lat="50.02039" lon="4.29563">
        <ele>267.2</ele>
        <time>2024-04-01T10:42:07Z</time>
      </trkpt>
      <trkpt lat="50.02034" lon="4.29563">
        <ele>267.4</ele>
        <time>2024-04-01T10:42:08Z</time>
      </trkpt>
      <trkpt lat="50.0203" lon="4.29563">
        <ele>267.6</ele>
        <time>2024-04-01T10:42:09Z</time>
      </trkpt>
      <trkpt lat="50.02026" lon="4.29563">
        <ele>267.8</ele>
        <time>2024-04-01T10:42:10Z</time>
      </trkpt>
      <trkpt lat="50.02022" lon="4.29563">
        <ele>268</ele>
        <time>2024-04-01T10:42:11Z</time>
      </trkpt>
      <trkpt lat="50.02018" lon="4.29563">
        <ele>268.4</ele>
        <time>2024-04-01T10:42:12Z</time>
      </trkpt>
      <trkpt lat="50.02013" lon="4.29564">
        <ele>268.6</ele>
        <time>2024-04-01T10:42:13Z</time>
      </trkpt>
      <trkpt lat="50.02009" lon="4.29564">
        <ele>269</ele>
        <time>2024-04-01T10:42:14Z</time>
      </trkpt>
      <trkpt lat="50.02005" lon="4.29565">
        <ele>269</ele>
        <time>2024-04-01T10:42:15Z</time>
      </trkpt>
      <trkpt lat="50.02001" lon="4.29565">
        <ele>269</ele>
        <time>2024-04-01T10:42:16Z</time>
      </trkpt>
      <trkpt lat="50.01997" lon="4.29565">
        <ele>269</ele>
        <time>2024-04-01T10:42:17Z</time>
      </trkpt>
      <trkpt lat="50.01993" lon="4.29565">
        <ele>269.4</ele>
        <time>2024-04-01T10:42:18Z</time>
      </trkpt>
      <trkpt lat="50.0199" lon="4.29565">
        <ele>269.4</ele>
        <time>2024-04-01T10:42:19Z</time>
      </trkpt>
      <trkpt lat="50.01985" lon="4.29566">
        <ele>269.4</ele>
        <time>2024-04-01T10:42:20Z</time>
      </trkpt>
      <trkpt lat="50.01981" lon="4.29567">
        <ele>269.8</ele>
        <time>2024-04-01T10:42:21Z</time>
      </trkpt>
      <trkpt lat="50.01977" lon="4.29567">
        <ele>270</ele>
        <time>2024-04-01T10:42:22Z</time>
      </trkpt>
      <trkpt lat="50.01973" lon="4.29567">
        <ele>270</ele>
        <time>2024-04-01T10:42:23Z</time>
      </trkpt>
      <trkpt lat="50.0197" lon="4.29568">
        <ele>270.2</ele>
        <time>2024-04-01T10:42:24Z</time>
      </trkpt>
      <trkpt lat="50.01967" lon="4.29567">
        <ele>270.6</ele>
        <time>2024-04-01T10:42:25Z</time>
      </trkpt>
      <trkpt lat="50.01964" lon="4.29567">
        <ele>271</ele>
        <time>2024-04-01T10:42:26Z</time>
      </trkpt>
      <trkpt lat="50.0196" lon="4.29567">
        <ele>271.6</ele>
        <time>2024-04-01T10:42:27Z</time>
      </trkpt>
      <trkpt lat="50.01956" lon="4.29568">
        <ele>271.8</ele>
        <time>2024-04-01T10:42:28Z</time>
      </trkpt>
      <trkpt lat="50.01953" lon="4.29567">
        <ele>272.4</ele>
        <time>2024-04-01T10:42:29Z</time>
      </trkpt>
      <trkpt lat="50.01949" lon="4.29567">
        <ele>272.6</ele>
        <time>2024-04-01T10:42:30Z</time>
      </trkpt>
      <trkpt lat="50.01946" lon="4.29567">
        <ele>273.2</ele>
        <time>2024-04-01T10:42:31Z</time>
      </trkpt>
      <trkpt lat="50.01942" lon="4.29566">
        <ele>273.2</ele>
        <time>2024-04-01T10:42:32Z</time>
      </trkpt>
      <trkpt lat="50.01938" lon="4.29567">
        <ele>273.2</ele>
        <time>2024-04-01T10:42:33Z</time>
      </trkpt>
      <trkpt lat="50.01933" lon="4.29567">
        <ele>273.4</ele>
        <time>2024-04-01T10:42:34Z</time>
      </trkpt>
      <trkpt lat="50.01929" lon="4.29567">
        <ele>273.6</ele>
        <time>2024-04-01T10:42:35Z</time>
      </trkpt>
      <trkpt lat="50.01925" lon="4.29567">
        <ele>274</ele>
        <time>2024-04-01T10:42:36Z</time>
      </trkpt>
      <trkpt lat="50.0192" lon="4.29567">
        <ele>274</ele>
        <time>2024-04-01T10:42:37Z</time>
      </trkpt>
      <trkpt lat="50.01916" lon="4.29567">
        <ele>274.4</ele>
        <time>2024-04-01T10:42:38Z</time>
      </trkpt>
      <trkpt lat="50.01912" lon="4.29567">
        <ele>274.8</ele>
        <time>2024-04-01T10:42:39Z</time>
      </trkpt>
      <trkpt lat="50.01908" lon="4.29567">
        <ele>274.8</ele>
        <time>2024-04-01T10:42:40Z</time>
      </trkpt>
      <trkpt lat="50.01904" lon="4.29568">
        <ele>275.2</ele>
        <time>2024-04-01T10:42:41Z</time>
      </trkpt>
      <trkpt lat="50.01899" lon="4.29568">
        <ele>275.2</ele>
        <time>2024-04-01T10:42:42Z</time>
      </trkpt>
      <trkpt lat="50.01896" lon="4.29568">
        <ele>275.2</ele>
        <time>2024-04-01T10:42:43Z</time>
      </trkpt>
      <trkpt lat="50.01893" lon="4.29568">
        <ele>275.8</ele>
        <time>2024-04-01T10:42:44Z</time>
      </trkpt>
      <trkpt lat="50.01889" lon="4.29568">
        <ele>276</ele>
        <time>2024-04-01T10:42:45Z</time>
      </trkpt>
      <trkpt lat="50.01885" lon="4.29568">
        <ele>276.2</ele>
        <time>2024-04-01T10:42:46Z</time>
      </trkpt>
      <trkpt lat="50.01881" lon="4.29568">
        <ele>276.6</ele>
        <time>2024-04-01T10:42:47Z</time>
      </trkpt>
      <trkpt lat="50.01876" lon="4.29568">
        <ele>276.6</ele>
        <time>2024-04-01T10:42:48Z</time>
      </trkpt>
      <trkpt lat="50.01872" lon="4.29569">
        <ele>276.6</ele>
        <time>2024-04-01T10:42:49Z</time>
      </trkpt>
      <trkpt lat="50.01867" lon="4.29569">
        <ele>276.8</ele>
        <time>2024-04-01T10:42:50Z</time>
      </trkpt>
      <trkpt lat="50.01863" lon="4.2957">
        <ele>277</ele>
        <time>2024-04-01T10:42:51Z</time>
      </trkpt>
      <trkpt lat="50.01859" lon="4.2957">
        <ele>277</ele>
        <time>2024-04-01T10:42:52Z</time>
      </trkpt>
      <trkpt lat="50.01855" lon="4.2957">
        <ele>277.2</ele>
        <time>2024-04-01T10:42:53Z</time>
      </trkpt>
      <trkpt lat="50.01851" lon="4.2957">
        <ele>277.4</ele>
        <time>2024-04-01T10:42:54Z</time>
      </trkpt>
      <trkpt lat="50.01846" lon="4.2957">
        <ele>277.6</ele>
        <time>2024-04-01T10:42:55Z</time>
      </trkpt>
      <trkpt lat="50.01843" lon="4.2957">
        <ele>277.8</ele>
        <time>2024-04-01T10:42:56Z</time>
      </trkpt>
      <trkpt lat="50.01839" lon="4.2957">
        <ele>277.8</ele>
        <time>2024-04-01T10:42:57Z</time>
      </trkpt>
      <trkpt lat="50.01834" lon="4.2957">
        <ele>278</ele>
        <time>2024-04-01T10:42:58Z</time>
      </trkpt>
      <trkpt lat="50.01831" lon="4.2957">
        <ele>278.2</ele>
        <time>2024-04-01T10:42:59Z</time>
      </trkpt>
      <trkpt lat="50.01827" lon="4.2957">
        <ele>278.4</ele>
        <time>2024-04-01T10:43:00Z</time>
      </trkpt>
      <trkpt lat="50.01824" lon="4.2957">
        <ele>278.6</ele>
        <time>2024-04-01T10:43:01Z</time>
      </trkpt>
      <trkpt lat="50.0182" lon="4.2957">
        <ele>278.6</ele>
        <time>2024-04-01T10:43:02Z</time>
      </trkpt>
      <trkpt lat="50.01816" lon="4.2957">
        <ele>279</ele>
        <time>2024-04-01T10:43:03Z</time>
      </trkpt>
      <trkpt lat="50.01813" lon="4.29571">
        <ele>279</ele>
        <time>2024-04-01T10:43:04Z</time>
      </trkpt>
      <trkpt lat="50.01809" lon="4.29571">
        <ele>279.2</ele>
        <time>2024-04-01T10:43:05Z</time>
      </trkpt>
      <trkpt lat="50.01805" lon="4.29572">
        <ele>279.2</ele>
        <time>2024-04-01T10:43:06Z</time>
      </trkpt>
      <trkpt lat="50.01802" lon="4.29572">
        <ele>279.6</ele>
        <time>2024-04-01T10:43:07Z</time>
      </trkpt>
      <trkpt lat="50.01799" lon="4.29573">
        <ele>279.8</ele>
        <time>2024-04-01T10:43:08Z</time>
      </trkpt>
      <trkpt lat="50.01795" lon="4.29574">
        <ele>280</ele>
        <time>2024-04-01T10:43:09Z</time>
      </trkpt>
      <trkpt lat="50.0179" lon="4.29575">
        <ele>280</ele>
        <time>2024-04-01T10:43:10Z</time>
      </trkpt>
      <trkpt lat="50.01786" lon="4.29575">
        <ele>280.4</ele>
        <time>2024-04-01T10:43:11Z</time>
      </trkpt>
      <trkpt lat="50.01783" lon="4.29575">
        <ele>280.4</ele>
        <time>2024-04-01T10:43:12Z</time>
      </trkpt>
      <trkpt lat="50.01779" lon="4.29575">
        <ele>280.8</ele>
        <time>2024-04-01T10:43:13Z</time>
      </trkpt>
      <trkpt lat="50.01775" lon="4.29575">
        <ele>281</ele>
        <time>2024-04-01T10:43:14Z</time>
      </trkpt>
      <trkpt lat="50.01771" lon="4.29575">
        <ele>281</ele>
        <time>2024-04-01T10:43:15Z</time>
      </trkpt>
      <trkpt lat="50.01768" lon="4.29576">
        <ele>281</ele>
        <time>2024-04-01T10:43:16Z</time>
      </trkpt>
      <trkpt lat="50.01764" lon="4.29576">
        <ele>281.2</ele>
        <time>2024-04-01T10:43:17Z</time>
      </trkpt>
      <trkpt lat="50.01759" lon="4.29577">
        <ele>281.2</ele>
        <time>2024-04-01T10:43:18Z</time>
      </trkpt>
      <trkpt lat="50.01755" lon="4.29577">
        <ele>281.2</ele>
        <time>2024-04-01T10:43:19Z</time>
      </trkpt>
      <trkpt lat="50.01751" lon="4.29577">
        <ele>281.4</ele>
        <time>2024-04-01T10:43:20Z</time>
      </trkpt>
      <trkpt lat="50.01747" lon="4.29577">
        <ele>281.4</ele>
        <time>2024-04-01T10:43:21Z</time>
      </trkpt>
      <trkpt lat="50.01743" lon="4.29577">
        <ele>281.4</ele>
        <time>2024-04-01T10:43:22Z</time>
      </trkpt>
      <trkpt lat="50.01738" lon="4.29577">
        <ele>281.4</ele>
        <time>2024-04-01T10:43:23Z</time>
      </trkpt>
      <trkpt lat="50.01734" lon="4.29577">
        <ele>281.6</ele>
        <time>2024-04-01T10:43:24Z</time>
      </trkpt>
      <trkpt lat="50.01729" lon="4.29577">
        <ele>282</ele>
        <time>2024-04-01T10:43:25Z</time>
      </trkpt>
      <trkpt lat="50.01725" lon="4.29577">
        <ele>282.2</ele>
        <time>2024-04-01T10:43:26Z</time>
      </trkpt>
      <trkpt lat="50.01721" lon="4.29577">
        <ele>282.4</ele>
        <time>2024-04-01T10:43:27Z</time>
      </trkpt>
      <trkpt lat="50.01717" lon="4.29577">
        <ele>282.4</ele>
        <time>2024-04-01T10:43:28Z</time>
      </trkpt>
      <trkpt lat="50.01713" lon="4.29577">
        <ele>282.6</ele>
        <time>2024-04-01T10:43:29Z</time>
      </trkpt>
      <trkpt lat="50.01708" lon="4.29577">
        <ele>282.8</ele>
        <time>2024-04-01T10:43:30Z</time>
      </trkpt>
      <trkpt lat="50.01703" lon="4.29577">
        <ele>282.8</ele>
        <time>2024-04-01T10:43:31Z</time>
      </trkpt>
      <trkpt lat="50.01698" lon="4.29577">
        <ele>282.8</ele>
        <time>2024-04-01T10:43:32Z</time>
      </trkpt>
      <trkpt lat="50.01694" lon="4.29578">
        <ele>282.8</ele>
        <time>2024-04-01T10:43:33Z</time>
      </trkpt>
      <trkpt lat="50.01689" lon="4.29578">
        <ele>283</ele>
        <time>2024-04-01T10:43:34Z</time>
      </trkpt>
      <trkpt lat="50.01685" lon="4.29578">
        <ele>283</ele>
        <time>2024-04-01T10:43:35Z</time>
      </trkpt>
      <trkpt lat="50.0168" lon="4.29577">
        <ele>283.2</ele>
        <time>2024-04-01T10:43:36Z</time>
      </trkpt>
      <trkpt lat="50.01675" lon="4.29578">
        <ele>283.2</ele>
        <time>2024-04-01T10:43:37Z</time>
      </trkpt>
      <trkpt lat="50.01671" lon="4.29578">
        <ele>283.2</ele>
        <time>2024-04-01T10:43:38Z</time>
      </trkpt>
      <trkpt lat="50.01666" lon="4.29578">
        <ele>283.2</ele>
        <time>2024-04-01T10:43:39Z</time>
      </trkpt>
      <trkpt lat="50.01661" lon="4.29578">
        <ele>283.2</ele>
        <time>2024-04-01T10:43:40Z</time>
      </trkpt>
      <trkpt lat="50.01657" lon="4.29578">
        <ele>283.2</ele>
        <time>2024-04-01T10:43:41Z</time>
      </trkpt>
      <trkpt lat="50.01652" lon="4.29578">
        <ele>283</ele>
        <time>2024-04-01T10:43:42Z</time>
      </trkpt>
      <trkpt lat="50.01648" lon="4.29578">
        <ele>283.2</ele>
        <time>2024-04-01T10:43:43Z</time>
      </trkpt>
      <trkpt lat="50.01643" lon="4.29579">
        <ele>283</ele>
        <time>2024-04-01T10:43:44Z</time>
      </trkpt>
      <trkpt lat="50.01639" lon="4.2958">
        <ele>283</ele>
        <time>2024-04-01T10:43:45Z</time>
      </trkpt>
      <trkpt lat="50.01635" lon="4.29581">
        <ele>283.2</ele>
        <time>2024-04-01T10:43:46Z</time>
      </trkpt>
      <trkpt lat="50.01632" lon="4.29581">
        <ele>283.2</ele>
        <time>2024-04-01T10:43:47Z</time>
      </trkpt>
      <trkpt lat="50.01628" lon="4.29582">
        <ele>283.2</ele>
        <time>2024-04-01T10:43:48Z</time>
      </trkpt>
      <trkpt lat="50.01624" lon="4.29582">
        <ele>283.2</ele>
        <time>2024-04-01T10:43:49Z</time>
      </trkpt>
      <trkpt lat="50.01621" lon="4.29582">
        <ele>283.4</ele>
        <time>2024-04-01T10:43:50Z</time>
      </trkpt>
      <trkpt lat="50.01618" lon="4.29582">
        <ele>283.6</ele>
        <time>2024-04-01T10:43:51Z</time>
      </trkpt>
      <trkpt lat="50.01615" lon="4.29582">
        <ele>283.4</ele>
        <time>2024-04-01T10:43:52Z</time>
      </trkpt>
      <trkpt lat="50.01613" lon="4.29581">
        <ele>283.6</ele>
        <time>2024-04-01T10:43:53Z</time>
      </trkpt>
      <trkpt lat="50.0161" lon="4.29581">
        <ele>283.6</ele>
        <time>2024-04-01T10:43:54Z</time>
      </trkpt>
      <trkpt lat="50.01608" lon="4.2958">
        <ele>283.6</ele>
        <time>2024-04-01T10:43:55Z</time>
      </trkpt>
      <trkpt lat="50.01607" lon="4.2958">
        <ele>283.4</ele>
        <time>2024-04-01T10:43:56Z</time>
      </trkpt>
      <trkpt lat="50.01606" lon="4.29579">
        <ele>283.6</ele>
        <time>2024-04-01T10:43:57Z</time>
      </trkpt>
      <trkpt lat="50.01605" lon="4.29579">
        <ele>283.6</ele>
        <time>2024-04-01T10:43:58Z</time>
      </trkpt>
      <trkpt lat="50.01604" lon="4.29579">
        <ele>283.4</ele>
        <time>2024-04-01T10:43:59Z</time>
      </trkpt>
      <trkpt lat="50.01587" lon="4.2959">
        <ele>284.6</ele>
        <time>2024-04-01T10:49:36Z</time>
      </trkpt>
      <trkpt lat="50.01588" lon="4.29593">
        <ele>284.6</ele>
        <time>2024-04-01T10:49:37Z</time>
      </trkpt>
      <trkpt lat="50.01588" lon="4.29596">
        <ele>284.6</ele>
        <time>2024-04-01T10:49:38Z</time>
      </trkpt>
      <trkpt lat="50.01589" lon="4.296">
        <ele>284.8</ele>
        <time>2024-04-01T10:49:39Z</time>
      </trkpt>
      <trkpt lat="50.0159" lon="4.29603">
        <ele>284.8</ele>
        <time>2024-04-01T10:49:40Z</time>
      </trkpt>
      <trkpt lat="50.01591" lon="4.29607">
        <ele>284.8</ele>
        <time>2024-04-01T10:49:41Z</time>
      </trkpt>
      <trkpt lat="50.01592" lon="4.29611">
        <ele>285</ele>
        <time>2024-04-01T10:49:42Z</time>
      </trkpt>
      <trkpt lat="50.01592" lon="4.29616">
        <ele>284.8</ele>
        <time>2024-04-01T10:49:43Z</time>
      </trkpt>
      <trkpt lat="50.01593" lon="4.2962">
        <ele>284.8</ele>
        <time>2024-04-01T10:49:44Z</time>
      </trkpt>
      <trkpt lat="50.01595" lon="4.29625">
        <ele>285</ele>
        <time>2024-04-01T10:49:45Z</time>
      </trkpt>
      <trkpt lat="50.01596" lon="4.29629">
        <ele>285</ele>
        <time>2024-04-01T10:49:46Z</time>
      </trkpt>
      <trkpt lat="50.01597" lon="4.29635">
        <ele>284.8</ele>
        <time>2024-04-01T10:49:47Z</time>
      </trkpt>
      <trkpt lat="50.01598" lon="4.2964">
        <ele>284.8</ele>
        <time>2024-04-01T10:49:48Z</time>
      </trkpt>
      <trkpt lat="50.01599" lon="4.29646">
        <ele>285</ele>
        <time>2024-04-01T10:49:49Z</time>
      </trkpt>
      <trkpt lat="50.016" lon="4.29652">
        <ele>285</ele>
        <time>2024-04-01T10:49:50Z</time>
      </trkpt>
      <trkpt lat="50.01601" lon="4.29657">
        <ele>285</ele>
        <time>2024-04-01T10:49:51Z</time>
      </trkpt>
      <trkpt lat="50.01601" lon="4.29663">
        <ele>285</ele>
        <time>2024-04-01T10:49:52Z</time>
      </trkpt>
      <trkpt lat="50.01602" lon="4.29669">
        <ele>284.8</ele>
        <time>2024-04-01T10:49:53Z</time>
      </trkpt>
      <trkpt lat="50.01603" lon="4.29676">
        <ele>284.8</ele>
        <time>2024-04-01T10:49:54Z</time>
      </trkpt>
      <trkpt lat="50.01604" lon="4.29682">
        <ele>285</ele>
        <time>2024-04-01T10:49:55Z</time>
      </trkpt>
      <trkpt lat="50.01605" lon="4.29688">
        <ele>284.8</ele>
        <time>2024-04-01T10:49:56Z</time>
      </trkpt>
      <trkpt lat="50.01606" lon="4.29695">
        <ele>284.8</ele>
        <time>2024-04-01T10:49:57Z</time>
      </trkpt>
      <trkpt lat="50.01608" lon="4.29701">
        <ele>285</ele>
        <time>2024-04-01T10:49:58Z</time>
      </trkpt>
      <trkpt lat="50.01609" lon="4.29707">
        <ele>285</ele>
        <time>2024-04-01T10:49:59Z</time>
      </trkpt>
      <trkpt lat="50.0161" lon="4.29714">
        <ele>284.8</ele>
        <time>2024-04-01T10:50:00Z</time>
      </trkpt>
      <trkpt lat="50.01612" lon="4.29721">
        <ele>285</ele>
        <time>2024-04-01T10:50:01Z</time>
      </trkpt>
      <trkpt lat="50.01613" lon="4.29728">
        <ele>284.8</ele>
        <time>2024-04-01T10:50:02Z</time>
      </trkpt>
      <trkpt lat="50.01614" lon="4.29735">
        <ele>284.8</ele>
        <time>2024-04-01T10:50:03Z</time>
      </trkpt>
      <trkpt lat="50.01616" lon="4.29741">
        <ele>284.8</ele>
        <time>2024-04-01T10:50:04Z</time>
      </trkpt>
      <trkpt lat="50.01618" lon="4.29748">
        <ele>284.6</ele>
        <time>2024-04-01T10:50:05Z</time>
      </trkpt>
      <trkpt lat="50.0162" lon="4.29755">
        <ele>284.8</ele>
        <time>2024-04-01T10:50:06Z</time>
      </trkpt>
      <trkpt lat="50.01621" lon="4.29762">
        <ele>284.8</ele>
        <time>2024-04-01T10:50:07Z</time>
      </trkpt>
      <trkpt lat="50.01623" lon="4.2977">
        <ele>284.8</ele>
        <time>2024-04-01T10:50:08Z</time>
      </trkpt>
      <trkpt lat="50.01625" lon="4.29777">
        <ele>284.8</ele>
        <time>2024-04-01T10:50:09Z</time>
      </trkpt>
      <trkpt lat="50.01626" lon="4.29785">
        <ele>284.6</ele>
        <time>2024-04-01T10:50:10Z</time>
      </trkpt>
      <trkpt lat="50.01627" lon="4.29793">
        <ele>284.8</ele>
        <time>2024-04-01T10:50:11Z</time>
      </trkpt>
      <trkpt lat="50.01629" lon="4.298">
        <ele>284.6</ele>
        <time>2024-04-01T10:50:12Z</time>
      </trkpt>
      <trkpt lat="50.01631" lon="4.29808">
        <ele>284.8</ele>
        <time>2024-04-01T10:50:13Z</time>
      </trkpt>
      <trkpt lat="50.01633" lon="4.29816">
        <ele>284.8</ele>
        <time>2024-04-01T10:50:14Z</time>
      </trkpt>
      <trkpt lat="50.01635" lon="4.29823">
        <ele>284.8</ele>
        <time>2024-04-01T10:50:15Z</time>
      </trkpt>
      <trkpt lat="50.01637" lon="4.29831">
        <ele>284.8</ele>
        <time>2024-04-01T10:50:16Z</time>
      </trkpt>
      <trkpt lat="50.01638" lon="4.29839">
        <ele>284.8</ele>
        <time>2024-04-01T10:50:17Z</time>
      </trkpt>
      <trkpt lat="50.0164" lon="4.29847">
        <ele>284.8</ele>
        <time>2024-04-01T10:50:18Z</time>
      </trkpt>
      <trkpt lat="50.01642" lon="4.29855">
        <ele>284.8</ele>
        <time>2024-04-01T10:50:19Z</time>
      </trkpt>
      <trkpt lat="50.01644" lon="4.29863">
        <ele>284.8</ele>
        <time>2024-04-01T10:50:20Z</time>
      </trkpt>
      <trkpt lat="50.01646" lon="4.29871">
        <ele>284.8</ele>
        <time>2024-04-01T10:50:21Z</time>
      </trkpt>
      <trkpt lat="50.01648" lon="4.29879">
        <ele>284.6</ele>
        <time>2024-04-01T10:50:22Z</time>
      </trkpt>
      <trkpt lat="50.01649" lon="4.29888">
        <ele>284.6</ele>
        <time>2024-04-01T10:50:23Z</time>
      </trkpt>
      <trkpt lat="50.01651" lon="4.29896">
        <ele>284.8</ele>
        <time>2024-04-01T10:50:24Z</time>
      </trkpt>
      <trkpt lat="50.01652" lon="4.29904">
        <ele>284.6</ele>
        <time>2024-04-01T10:50:25Z</time>
      </trkpt>
      <trkpt lat="50.01654" lon="4.29912">
        <ele>284.8</ele>
        <time>2024-04-01T10:50:26Z</time>
      </trkpt>
      <trkpt lat="50.01655" lon="4.29919">
        <ele>284.8</ele>
        <time>2024-04-01T10:50:27Z</time>
      </trkpt>
      <trkpt lat="50.01656" lon="4.29926">
        <ele>284.8</ele>
        <time>2024-04-01T10:50:28Z</time>
      </trkpt>
      <trkpt lat="50.01657" lon="4.29934">
        <ele>285</ele>
        <time>2024-04-01T10:50:29Z</time>
      </trkpt>
      <trkpt lat="50.01658" lon="4.29941">
        <ele>285</ele>
        <time>2024-04-01T10:50:30Z</time>
      </trkpt>
      <trkpt lat="50.01659" lon="4.29949">
        <ele>284.8</ele>
        <time>2024-04-01T10:50:31Z</time>
      </trkpt>
      <trkpt lat="50.0166" lon="4.29956">
        <ele>284.8</ele>
        <time>2024-04-01T10:50:32Z</time>
      </trkpt>
      <trkpt lat="50.01662" lon="4.29964">
        <ele>284.8</ele>
        <time>2024-04-01T10:50:33Z</time>
      </trkpt>
      <trkpt lat="50.01664" lon="4.29972">
        <ele>284.8</ele>
        <time>2024-04-01T10:50:34Z</time>
      </trkpt>
      <trkpt lat="50.01667" lon="4.2998">
        <ele>285</ele>
        <time>2024-04-01T10:50:35Z</time>
      </trkpt>
      <trkpt lat="50.01669" lon="4.29988">
        <ele>284.8</ele>
        <time>2024-04-01T10:50:36Z</time>
      </trkpt>
      <trkpt lat="50.0167" lon="4.29996">
        <ele>285</ele>
        <time>2024-04-01T10:50:37Z</time>
      </trkpt>
      <trkpt lat="50.01672" lon="4.30004">
        <ele>285</ele>
        <time>2024-04-01T10:50:38Z</time>
      </trkpt>
      <trkpt lat="50.01674" lon="4.30012">
        <ele>285</ele>
        <time>2024-04-01T10:50:39Z</time>
      </trkpt>
      <trkpt lat="50.01675" lon="4.3002">
        <ele>285</ele>
        <time>2024-04-01T10:50:40Z</time>
      </trkpt>
      <trkpt lat="50.01678" lon="4.30028">
        <ele>285</ele>
        <time>2024-04-01T10:50:41Z</time>
      </trkpt>
      <trkpt lat="50.0168" lon="4.30036">
        <ele>285</ele>
        <time>2024-04-01T10:50:42Z</time>
      </trkpt>
      <trkpt lat="50.01682" lon="4.30043">
        <ele>285</ele>
        <time>2024-04-01T10:50:43Z</time>
      </trkpt>
      <trkpt lat="50.01684" lon="4.3005">
        <ele>285</ele>
        <time>2024-04-01T10:50:44Z</time>
      </trkpt>
      <trkpt lat="50.01685" lon="4.30058">
        <ele>285</ele>
        <time>2024-04-01T10:50:45Z</time>
      </trkpt>
      <trkpt lat="50.01686" lon="4.30066">
        <ele>285.2</ele>
        <time>2024-04-01T10:50:46Z</time>
      </trkpt>
      <trkpt lat="50.01688" lon="4.30075">
        <ele>285.2</ele>
        <time>2024-04-01T10:50:47Z</time>
      </trkpt>
      <trkpt lat="50.0169" lon="4.30085">
        <ele>285</ele>
        <time>2024-04-01T10:50:48Z</time>
      </trkpt>
      <trkpt lat="50.01692" lon="4.30094">
        <ele>285.2</ele>
        <time>2024-04-01T10:50:49Z</time>
      </trkpt>
      <trkpt lat="50.01693" lon="4.30104">
        <ele>285.2</ele>
        <time>2024-04-01T10:50:50Z</time>
      </trkpt>
      <trkpt lat="50.01695" lon="4.30112">
        <ele>285</ele>
        <time>2024-04-01T10:50:51Z</time>
      </trkpt>
      <trkpt lat="50.01697" lon="4.30121">
        <ele>285.2</ele>
        <time>2024-04-01T10:50:52Z</time>
      </trkpt>
      <trkpt lat="50.01699" lon="4.3013">
        <ele>285.2</ele>
        <time>2024-04-01T10:50:53Z</time>
      </trkpt>
      <trkpt lat="50.01701" lon="4.30138">
        <ele>285.2</ele>
        <time>2024-04-01T10:50:54Z</time>
      </trkpt>
      <trkpt lat="50.01704" lon="4.30147">
        <ele>285.2</ele>
        <time>2024-04-01T10:50:55Z</time>
      </trkpt>
      <trkpt lat="50.01706" lon="4.30155">
        <ele>285.4</ele>
        <time>2024-04-01T10:50:56Z</time>
      </trkpt>
      <trkpt lat="50.01708" lon="4.30163">
        <ele>285.2</ele>
        <time>2024-04-01T10:50:57Z</time>
      </trkpt>
      <trkpt lat="50.0171" lon="4.30171">
        <ele>285.4</ele>
        <time>2024-04-01T10:50:58Z</time>
      </trkpt>
      <trkpt lat="50.01712" lon="4.30179">
        <ele>285.4</ele>
        <time>2024-04-01T10:50:59Z</time>
      </trkpt>
      <trkpt lat="50.01713" lon="4.30188">
        <ele>285.4</ele>
        <time>2024-04-01T10:51:00Z</time>
      </trkpt>
      <trkpt lat="50.01715" lon="4.30196">
        <ele>285.4</ele>
        <time>2024-04-01T10:51:01Z</time>
      </trkpt>
      <trkpt lat="50.01717" lon="4.30204">
        <ele>285.6</ele>
        <time>2024-04-01T10:51:02Z</time>
      </trkpt>
      <trkpt lat="50.01719" lon="4.30212">
        <ele>285.6</ele>
        <time>2024-04-01T10:51:03Z</time>
      </trkpt>
      <trkpt lat="50.01721" lon="4.3022">
        <ele>285.6</ele>
        <time>2024-04-01T10:51:04Z</time>
      </trkpt>
      <trkpt lat="50.01723" lon="4.30228">
        <ele>285.6</ele>
        <time>2024-04-01T10:51:05Z</time>
      </trkpt>
      <trkpt lat="50.01724" lon="4.30236">
        <ele>285.6</ele>
        <time>2024-04-01T10:51:06Z</time>
      </trkpt>
      <trkpt lat="50.01726" lon="4.30244">
        <ele>285.6</ele>
        <time>2024-04-01T10:51:07Z</time>
      </trkpt>
      <trkpt lat="50.01728" lon="4.30253">
        <ele>285.6</ele>
        <time>2024-04-01T10:51:08Z</time>
      </trkpt>
      <trkpt lat="50.0173" lon="4.30262">
        <ele>285.4</ele>
        <time>2024-04-01T10:51:09Z</time>
      </trkpt>
      <trkpt lat="50.01732" lon="4.30272">
        <ele>285.6</ele>
        <time>2024-04-01T10:51:10Z</time>
      </trkpt>
      <trkpt lat="50.01733" lon="4.30281">
        <ele>285.4</ele>
        <time>2024-04-01T10:51:11Z</time>
      </trkpt>
      <trkpt lat="50.01734" lon="4.3029">
        <ele>285.4</ele>
        <time>2024-04-01T10:51:12Z</time>
      </trkpt>
      <trkpt lat="50.01736" lon="4.30299">
        <ele>285.4</ele>
        <time>2024-04-01T10:51:13Z</time>
      </trkpt>
      <trkpt lat="50.01738" lon="4.30308">
        <ele>285.4</ele>
        <time>2024-04-01T10:51:14Z</time>
      </trkpt>
      <trkpt lat="50.01741" lon="4.30317">
        <ele>285.4</ele>
        <time>2024-04-01T10:51:15Z</time>
      </trkpt>
      <trkpt lat="50.01743" lon="4.30326">
        <ele>285.2</ele>
        <time>2024-04-01T10:51:16Z</time>
      </trkpt>
      <trkpt lat="50.01747" lon="4.30335">
        <ele>285.2</ele>
        <time>2024-04-01T10:51:17Z</time>
      </trkpt>
      <trkpt lat="50.01749" lon="4.30344">
        <ele>285.2</ele>
        <time>2024-04-01T10:51:18Z</time>
      </trkpt>
      <trkpt lat="50.01752" lon="4.30354">
        <ele>285</ele>
        <time>2024-04-01T10:51:19Z</time>
      </trkpt>
      <trkpt lat="50.01756" lon="4.30364">
        <ele>284.4</ele>
        <time>2024-04-01T10:51:20Z</time>
      </trkpt>
      <trkpt lat="50.01761" lon="4.30374">
        <ele>284.2</ele>
        <time>2024-04-01T10:51:21Z</time>
      </trkpt>
      <trkpt lat="50.01766" lon="4.30384">
        <ele>284.2</ele>
        <time>2024-04-01T10:51:22Z</time>
      </trkpt>
      <trkpt lat="50.01771" lon="4.30393">
        <ele>284</ele>
        <time>2024-04-01T10:51:23Z</time>
      </trkpt>
      <trkpt lat="50.01777" lon="4.30402">
        <ele>284</ele>
        <time>2024-04-01T10:51:24Z</time>
      </trkpt>
      <trkpt lat="50.01783" lon="4.3041">
        <ele>284</ele>
        <time>2024-04-01T10:51:25Z</time>
      </trkpt>
      <trkpt lat="50.0179" lon="4.30417">
        <ele>283.8</ele>
        <time>2024-04-01T10:51:26Z</time>
      </trkpt>
      <trkpt lat="50.01797" lon="4.30423">
        <ele>283.8</ele>
        <time>2024-04-01T10:51:27Z</time>
      </trkpt>
      <trkpt lat="50.01804" lon="4.3043">
        <ele>283.6</ele>
        <time>2024-04-01T10:51:28Z</time>
      </trkpt>
      <trkpt lat="50.01811" lon="4.30437">
        <ele>283.6</ele>
        <time>2024-04-01T10:51:29Z</time>
      </trkpt>
      <trkpt lat="50.01818" lon="4.30443">
        <ele>283.6</ele>
        <time>2024-04-01T10:51:30Z</time>
      </trkpt>
      <trkpt lat="50.01825" lon="4.30449">
        <ele>283.6</ele>
        <time>2024-04-01T10:51:31Z</time>
      </trkpt>
      <trkpt lat="50.01832" lon="4.30456">
        <ele>283.6</ele>
        <time>2024-04-01T10:51:32Z</time>
      </trkpt>
      <trkpt lat="50.01839" lon="4.30463">
        <ele>283.6</ele>
        <time>2024-04-01T10:51:33Z</time>
      </trkpt>
      <trkpt lat="50.01846" lon="4.3047">
        <ele>283.6</ele>
        <time>2024-04-01T10:51:34Z</time>
      </trkpt>
      <trkpt lat="50.01853" lon="4.30478">
        <ele>283.4</ele>
        <time>2024-04-01T10:51:35Z</time>
      </trkpt>
      <trkpt lat="50.01861" lon="4.30484">
        <ele>282.8</ele>
        <time>2024-04-01T10:51:36Z</time>
      </trkpt>
      <trkpt lat="50.01868" lon="4.30491">
        <ele>282.4</ele>
        <time>2024-04-01T10:51:37Z</time>
      </trkpt>
      <trkpt lat="50.01875" lon="4.30498">
        <ele>281.8</ele>
        <time>2024-04-01T10:51:38Z</time>
      </trkpt>
      <trkpt lat="50.01882" lon="4.30504">
        <ele>281.4</ele>
        <time>2024-04-01T10:51:39Z</time>
      </trkpt>
      <trkpt lat="50.01889" lon="4.30511">
        <ele>281.2</ele>
        <time>2024-04-01T10:51:40Z</time>
      </trkpt>
      <trkpt lat="50.01896" lon="4.30518">
        <ele>281</ele>
        <time>2024-04-01T10:51:41Z</time>
      </trkpt>
      <trkpt lat="50.01903" lon="4.30525">
        <ele>281</ele>
        <time>2024-04-01T10:51:42Z</time>
      </trkpt>
      <trkpt lat="50.01911" lon="4.30531">
        <ele>280.8</ele>
        <time>2024-04-01T10:51:43Z</time>
      </trkpt>
      <trkpt lat="50.01918" lon="4.30538">
        <ele>280.6</ele>
        <time>2024-04-01T10:51:44Z</time>
      </trkpt>
      <trkpt lat="50.01925" lon="4.30545">
        <ele>280.6</ele>
        <time>2024-04-01T10:51:45Z</time>
      </trkpt>
      <trkpt lat="50.01932" lon="4.30552">
        <ele>280.4</ele>
        <time>2024-04-01T10:51:46Z</time>
      </trkpt>
      <trkpt lat="50.01939" lon="4.30559">
        <ele>280.6</ele>
        <time>2024-04-01T10:51:47Z</time>
      </trkpt>
      <trkpt lat="50.01946" lon="4.30566">
        <ele>280</ele>
        <time>2024-04-01T10:51:48Z</time>
      </trkpt>
      <trkpt lat="50.01954" lon="4.30572">
        <ele>279.4</ele>
        <time>2024-04-01T10:51:49Z</time>
      </trkpt>
      <trkpt lat="50.01961" lon="4.30579">
        <ele>279.2</ele>
        <time>2024-04-01T10:51:50Z</time>
      </trkpt>
      <trkpt lat="50.01968" lon="4.30586">
        <ele>279.2</ele>
        <time>2024-04-01T10:51:51Z</time>
      </trkpt>
      <trkpt lat="50.01976" lon="4.30593">
        <ele>279</ele>
        <time>2024-04-01T10:51:52Z</time>
      </trkpt>
      <trkpt lat="50.01983" lon="4.306">
        <ele>278.6</ele>
        <time>2024-04-01T10:51:53Z</time>
      </trkpt>
      <trkpt lat="50.01991" lon="4.30607">
        <ele>278.4</ele>
        <time>2024-04-01T10:51:54Z</time>
      </trkpt>
      <trkpt lat="50.01999" lon="4.30613">
        <ele>278.2</ele>
        <time>2024-04-01T10:51:55Z</time>
      </trkpt>
      <trkpt lat="50.02006" lon="4.3062">
        <ele>278.2</ele>
        <time>2024-04-01T10:51:56Z</time>
      </trkpt>
      <trkpt lat="50.02014" lon="4.30627">
        <ele>277.8</ele>
        <time>2024-04-01T10:51:57Z</time>
      </trkpt>
      <trkpt lat="50.02022" lon="4.30635">
        <ele>277.4</ele>
        <time>2024-04-01T10:51:58Z</time>
      </trkpt>
      <trkpt lat="50.02029" lon="4.30643">
        <ele>277.2</ele>
        <time>2024-04-01T10:51:59Z</time>
      </trkpt>
      <trkpt lat="50.02036" lon="4.30651">
        <ele>277.2</ele>
        <time>2024-04-01T10:52:00Z</time>
      </trkpt>
      <trkpt lat="50.02044" lon="4.30658">
        <ele>277</ele>
        <time>2024-04-01T10:52:01Z</time>
      </trkpt>
      <trkpt lat="50.02053" lon="4.30665">
        <ele>276.8</ele>
        <time>2024-04-01T10:52:02Z</time>
      </trkpt>
      <trkpt lat="50.02061" lon="4.30671">
        <ele>276.6</ele>
        <time>2024-04-01T10:52:03Z</time>
      </trkpt>
      <trkpt lat="50.02069" lon="4.30679">
        <ele>275.6</ele>
        <time>2024-04-01T10:52:04Z</time>
      </trkpt>
      <trkpt lat="50.02076" lon="4.30687">
        <ele>275.2</ele>
        <time>2024-04-01T10:52:05Z</time>
      </trkpt>
      <trkpt lat="50.02084" lon="4.30695">
        <ele>275</ele>
        <time>2024-04-01T10:52:06Z</time>
      </trkpt>
      <trkpt lat="50.02092" lon="4.30704">
        <ele>274.6</ele>
        <time>2024-04-01T10:52:07Z</time>
      </trkpt>
      <trkpt lat="50.021" lon="4.30712">
        <ele>274.2</ele>
        <time>2024-04-01T10:52:08Z</time>
      </trkpt>
      <trkpt lat="50.02108" lon="4.3072">
        <ele>274</ele>
        <time>2024-04-01T10:52:09Z</time>
      </trkpt>
      <trkpt lat="50.02115" lon="4.30729">
        <ele>273.6</ele>
        <time>2024-04-01T10:52:10Z</time>
      </trkpt>
      <trkpt lat="50.02123" lon="4.30738">
        <ele>273.6</ele>
        <time>2024-04-01T10:52:11Z</time>
      </trkpt>
      <trkpt lat="50.02131" lon="4.30746">
        <ele>273.6</ele>
        <time>2024-04-01T10:52:12Z</time>
      </trkpt>
      <trkpt lat="50.02139" lon="4.30755">
        <ele>273.6</ele>
        <time>2024-04-01T10:52:13Z</time>
      </trkpt>
      <trkpt lat="50.02147" lon="4.30764">
        <ele>273</ele>
        <time>2024-04-01T10:52:14Z</time>
      </trkpt>
      <trkpt lat="50.02154" lon="4.30774">
        <ele>272.4</ele>
        <time>2024-04-01T10:52:15Z</time>
      </trkpt>
      <trkpt lat="50.02161" lon="4.30784">
        <ele>272.2</ele>
        <time>2024-04-01T10:52:16Z</time>
      </trkpt>
      <trkpt lat="50.02169" lon="4.30795">
        <ele>271.8</ele>
        <time>2024-04-01T10:52:17Z</time>
      </trkpt>
      <trkpt lat="50.02175" lon="4.30806">
        <ele>271.8</ele>
        <time>2024-04-01T10:52:18Z</time>
      </trkpt>
      <trkpt lat="50.02181" lon="4.30819">
        <ele>271.6</ele>
        <time>2024-04-01T10:52:19Z</time>
      </trkpt>
      <trkpt lat="50.02187" lon="4.30832">
        <ele>271.6</ele>
        <time>2024-04-01T10:52:20Z</time>
      </trkpt>
      <trkpt lat="50.02192" lon="4.30846">
        <ele>271.4</ele>
        <time>2024-04-01T10:52:21Z</time>
      </trkpt>
      <trkpt lat="50.02196" lon="4.3086">
        <ele>271.4</ele>
        <time>2024-04-01T10:52:22Z</time>
      </trkpt>
      <trkpt lat="50.022" lon="4.30875">
        <ele>271.2</ele>
        <time>2024-04-01T10:52:23Z</time>
      </trkpt>
      <trkpt lat="50.02203" lon="4.3089">
        <ele>271</ele>
        <time>2024-04-01T10:52:24Z</time>
      </trkpt>
      <trkpt lat="50.02206" lon="4.30905">
        <ele>270.8</ele>
        <time>2024-04-01T10:52:25Z</time>
      </trkpt>
      <trkpt lat="50.02209" lon="4.30921">
        <ele>270</ele>
        <time>2024-04-01T10:52:26Z</time>
      </trkpt>
      <trkpt lat="50.02212" lon="4.30937">
        <ele>269.2</ele>
        <time>2024-04-01T10:52:27Z</time>
      </trkpt>
      <trkpt lat="50.02216" lon="4.30952">
        <ele>268.6</ele>
        <time>2024-04-01T10:52:28Z</time>
      </trkpt>
      <trkpt lat="50.02219" lon="4.30968">
        <ele>268.6</ele>
        <time>2024-04-01T10:52:29Z</time>
      </trkpt>
      <trkpt lat="50.02222" lon="4.30984">
        <ele>268</ele>
        <time>2024-04-01T10:52:30Z</time>
      </trkpt>
      <trkpt lat="50.02225" lon="4.31">
        <ele>267.6</ele>
        <time>2024-04-01T10:52:31Z</time>
      </trkpt>
      <trkpt lat="50.02229" lon="4.31016">
        <ele>267.4</ele>
        <time>2024-04-01T10:52:32Z</time>
      </trkpt>
      <trkpt lat="50.02233" lon="4.31032">
        <ele>266.6</ele>
        <time>2024-04-01T10:52:33Z</time>
      </trkpt>
      <trkpt lat="50.02239" lon="4.31047">
        <ele>266.4</ele>
        <time>2024-04-01T10:52:34Z</time>
      </trkpt>
      <trkpt lat="50.02245" lon="4.31061">
        <ele>266</ele>
        <time>2024-04-01T10:52:35Z</time>
      </trkpt>
      <trkpt lat="50.02252" lon="4.31074">
        <ele>265.8</ele>
        <time>2024-04-01T10:52:36Z</time>
      </trkpt>
      <trkpt lat="50.02259" lon="4.31088">
        <ele>265.4</ele>
        <time>2024-04-01T10:52:37Z</time>
      </trkpt>
      <trkpt lat="50.02267" lon="4.311">
        <ele>265</ele>
        <time>2024-04-01T10:52:38Z</time>
      </trkpt>
      <trkpt lat="50.02276" lon="4.31112">
        <ele>264.2</ele>
        <time>2024-04-01T10:52:39Z</time>
      </trkpt>
      <trkpt lat="50.02285" lon="4.31123">
        <ele>264.2</ele>
        <time>2024-04-01T10:52:40Z</time>
      </trkpt>
      <trkpt lat="50.02295" lon="4.31132">
        <ele>263</ele>
        <time>2024-04-01T10:52:41Z</time>
      </trkpt>
      <trkpt lat="50.02305" lon="4.31141">
        <ele>262.6</ele>
        <time>2024-04-01T10:52:42Z</time>
      </trkpt>
      <trkpt lat="50.02315" lon="4.31149">
        <ele>262</ele>
        <time>2024-04-01T10:52:43Z</time>
      </trkpt>
      <trkpt lat="50.02325" lon="4.31158">
        <ele>261.4</ele>
        <time>2024-04-01T10:52:44Z</time>
      </trkpt>
      <trkpt lat="50.02335" lon="4.31166">
        <ele>261</ele>
        <time>2024-04-01T10:52:45Z</time>
      </trkpt>
      <trkpt lat="50.02345" lon="4.31174">
        <ele>260.8</ele>
        <time>2024-04-01T10:52:46Z</time>
      </trkpt>
      <trkpt lat="50.02355" lon="4.31183">
        <ele>260.6</ele>
        <time>2024-04-01T10:52:47Z</time>
      </trkpt>
      <trkpt lat="50.02365" lon="4.31192">
        <ele>260.6</ele>
        <time>2024-04-01T10:52:48Z</time>
      </trkpt>
      <trkpt lat="50.02375" lon="4.312">
        <ele>259.8</ele>
        <time>2024-04-01T10:52:49Z</time>
      </trkpt>
      <trkpt lat="50.02385" lon="4.31207">
        <ele>259</ele>
        <time>2024-04-01T10:52:50Z</time>
      </trkpt>
      <trkpt lat="50.02394" lon="4.31215">
        <ele>258.2</ele>
        <time>2024-04-01T10:52:51Z</time>
      </trkpt>
      <trkpt lat="50.02404" lon="4.31223">
        <ele>258</ele>
        <time>2024-04-01T10:52:52Z</time>
      </trkpt>
      <trkpt lat="50.02413" lon="4.3123">
        <ele>258</ele>
        <time>2024-04-01T10:52:53Z</time>
      </trkpt>
      <trkpt lat="50.02422" lon="4.31238">
        <ele>257.8</ele>
        <time>2024-04-01T10:52:54Z</time>
      </trkpt>
      <trkpt lat="50.02431" lon="4.31245">
        <ele>257.6</ele>
        <time>2024-04-01T10:52:55Z</time>
      </trkpt>
      <trkpt lat="50.0244" lon="4.31253">
        <ele>257.4</ele>
        <time>2024-04-01T10:52:56Z</time>
      </trkpt>
      <trkpt lat="50.02448" lon="4.3126">
        <ele>257.4</ele>
        <time>2024-04-01T10:52:57Z</time>
      </trkpt>
      <trkpt lat="50.02457" lon="4.31267">
        <ele>257.4</ele>
        <time>2024-04-01T10:52:58Z</time>
      </trkpt>
      <trkpt lat="50.02465" lon="4.31274">
        <ele>257.2</ele>
        <time>2024-04-01T10:52:59Z</time>
      </trkpt>
      <trkpt lat="50.02473" lon="4.31281">
        <ele>257.2</ele>
        <time>2024-04-01T10:53:00Z</time>
      </trkpt>
      <trkpt lat="50.02481" lon="4.31288">
        <ele>257.2</ele>
        <time>2024-04-01T10:53:01Z</time>
      </trkpt>
      <trkpt lat="50.02489" lon="4.31295">
        <ele>257.2</ele>
        <time>2024-04-01T10:53:02Z</time>
      </trkpt>
      <trkpt lat="50.02497" lon="4.31301">
        <ele>257.4</ele>
        <time>2024-04-01T10:53:03Z</time>
      </trkpt>
      <trkpt lat="50.02505" lon="4.31307">
        <ele>257.6</ele>
        <time>2024-04-01T10:53:04Z</time>
      </trkpt>
      <trkpt lat="50.02513" lon="4.31314">
        <ele>257.4</ele>
        <time>2024-04-01T10:53:05Z</time>
      </trkpt>
      <trkpt lat="50.0252" lon="4.3132">
        <ele>257.4</ele>
        <time>2024-04-01T10:53:06Z</time>
      </trkpt>
      <trkpt lat="50.02528" lon="4.31326">
        <ele>257.6</ele>
        <time>2024-04-01T10:53:07Z</time>
      </trkpt>
      <trkpt lat="50.02535" lon="4.31333">
        <ele>257.6</ele>
        <time>2024-04-01T10:53:08Z</time>
      </trkpt>
      <trkpt lat="50.02542" lon="4.31339">
        <ele>257.8</ele>
        <time>2024-04-01T10:53:09Z</time>
      </trkpt>
      <trkpt lat="50.02549" lon="4.31345">
        <ele>257.8</ele>
        <time>2024-04-01T10:53:10Z</time>
      </trkpt>
      <trkpt lat="50.02557" lon="4.3135">
        <ele>257.8</ele>
        <time>2024-04-01T10:53:11Z</time>
      </trkpt>
      <trkpt lat="50.02564" lon="4.31357">
        <ele>258.2</ele>
        <time>2024-04-01T10:53:12Z</time>
      </trkpt>
      <trkpt lat="50.02571" lon="4.31363">
        <ele>258.2</ele>
        <time>2024-04-01T10:53:13Z</time>
      </trkpt>
      <trkpt lat="50.02578" lon="4.31369">
        <ele>258.2</ele>
        <time>2024-04-01T10:53:14Z</time>
      </trkpt>
      <trkpt lat="50.02584" lon="4.31376">
        <ele>258.2</ele>
        <time>2024-04-01T10:53:15Z</time>
      </trkpt>
      <trkpt lat="50.02591" lon="4.31382">
        <ele>258.4</ele>
        <time>2024-04-01T10:53:16Z</time>
      </trkpt>
      <trkpt lat="50.02597" lon="4.31389">
        <ele>258.4</ele>
        <time>2024-04-01T10:53:17Z</time>
      </trkpt>
      <trkpt lat="50.02603" lon="4.31397">
        <ele>258.4</ele>
        <time>2024-04-01T10:53:18Z</time>
      </trkpt>
      <trkpt lat="50.02609" lon="4.31405">
        <ele>258.4</ele>
        <time>2024-04-01T10:53:19Z</time>
      </trkpt>
      <trkpt lat="50.02614" lon="4.31415">
        <ele>258.6</ele>
        <time>2024-04-01T10:53:20Z</time>
      </trkpt>
      <trkpt lat="50.02619" lon="4.31424">
        <ele>258.6</ele>
        <time>2024-04-01T10:53:21Z</time>
      </trkpt>
      <trkpt lat="50.02624" lon="4.31434">
        <ele>258.6</ele>
        <time>2024-04-01T10:53:22Z</time>
      </trkpt>
      <trkpt lat="50.02629" lon="4.31445">
        <ele>258.4</ele>
        <time>2024-04-01T10:53:23Z</time>
      </trkpt>
      <trkpt lat="50.02633" lon="4.31456">
        <ele>258.4</ele>
        <time>2024-04-01T10:53:24Z</time>
      </trkpt>
      <trkpt lat="50.02637" lon="4.31468">
        <ele>258.4</ele>
        <time>2024-04-01T10:53:25Z</time>
      </trkpt>
      <trkpt lat="50.02641" lon="4.3148">
        <ele>258.2</ele>
        <time>2024-04-01T10:53:26Z</time>
      </trkpt>
      <trkpt lat="50.02644" lon="4.31492">
        <ele>258.4</ele>
        <time>2024-04-01T10:53:27Z</time>
      </trkpt>
      <trkpt lat="50.02648" lon="4.31504">
        <ele>258.2</ele>
        <time>2024-04-01T10:53:28Z</time>
      </trkpt>
      <trkpt lat="50.02651" lon="4.31517">
        <ele>258.2</ele>
        <time>2024-04-01T10:53:29Z</time>
      </trkpt>
      <trkpt lat="50.02654" lon="4.31529">
        <ele>258.2</ele>
        <time>2024-04-01T10:53:30Z</time>
      </trkpt>
      <trkpt lat="50.02657" lon="4.31542">
        <ele>258</ele>
        <time>2024-04-01T10:53:31Z</time>
      </trkpt>
      <trkpt lat="50.02661" lon="4.31555">
        <ele>258</ele>
        <time>2024-04-01T10:53:32Z</time>
      </trkpt>
      <trkpt lat="50.02664" lon="4.31568">
        <ele>258</ele>
        <time>2024-04-01T10:53:33Z</time>
      </trkpt>
      <trkpt lat="50.02667" lon="4.31581">
        <ele>258</ele>
        <time>2024-04-01T10:53:34Z</time>
      </trkpt>
      <trkpt lat="50.0267" lon="4.31594">
        <ele>257.8</ele>
        <time>2024-04-01T10:53:35Z</time>
      </trkpt>
      <trkpt lat="50.02674" lon="4.31608">
        <ele>257.6</ele>
        <time>2024-04-01T10:53:36Z</time>
      </trkpt>
      <trkpt lat="50.02677" lon="4.31621">
        <ele>257.6</ele>
        <time>2024-04-01T10:53:37Z</time>
      </trkpt>
      <trkpt lat="50.02681" lon="4.31635">
        <ele>257.2</ele>
        <time>2024-04-01T10:53:38Z</time>
      </trkpt>
      <trkpt lat="50.02685" lon="4.31649">
        <ele>257</ele>
        <time>2024-04-01T10:53:39Z</time>
      </trkpt>
      <trkpt lat="50.02688" lon="4.31663">
        <ele>257</ele>
        <time>2024-04-01T10:53:40Z</time>
      </trkpt>
      <trkpt lat="50.02692" lon="4.31677">
        <ele>256.4</ele>
        <time>2024-04-01T10:53:41Z</time>
      </trkpt>
      <trkpt lat="50.02696" lon="4.31692">
        <ele>256</ele>
        <time>2024-04-01T10:53:42Z</time>
      </trkpt>
      <trkpt lat="50.027" lon="4.31707">
        <ele>255.6</ele>
        <time>2024-04-01T10:53:43Z</time>
      </trkpt>
      <trkpt lat="50.02704" lon="4.31722">
        <ele>255.4</ele>
        <time>2024-04-01T10:53:44Z</time>
      </trkpt>
      <trkpt lat="50.02709" lon="4.31738">
        <ele>254.6</ele>
        <time>2024-04-01T10:53:45Z</time>
      </trkpt>
      <trkpt lat="50.02714" lon="4.31753">
        <ele>254</ele>
        <time>2024-04-01T10:53:46Z</time>
      </trkpt>
      <trkpt lat="50.0272" lon="4.31769">
        <ele>253.6</ele>
        <time>2024-04-01T10:53:47Z</time>
      </trkpt>
      <trkpt lat="50.02725" lon="4.31784">
        <ele>253.2</ele>
        <time>2024-04-01T10:53:48Z</time>
      </trkpt>
      <trkpt lat="50.02731" lon="4.318">
        <ele>252.8</ele>
        <time>2024-04-01T10:53:49Z</time>
      </trkpt>
      <trkpt lat="50.02736" lon="4.31816">
        <ele>252</ele>
        <time>2024-04-01T10:53:50Z</time>
      </trkpt>
      <trkpt lat="50.02742" lon="4.31831">
        <ele>251</ele>
        <time>2024-04-01T10:53:51Z</time>
      </trkpt>
      <trkpt lat="50.02748" lon="4.31847">
        <ele>250.6</ele>
        <time>2024-04-01T10:53:52Z</time>
      </trkpt>
      <trkpt lat="50.02752" lon="4.31863">
        <ele>250.2</ele>
        <time>2024-04-01T10:53:53Z</time>
      </trkpt>
      <trkpt lat="50.02757" lon="4.31879">
        <ele>249.2</ele>
        <time>2024-04-01T10:53:54Z</time>
      </trkpt>
      <trkpt lat="50.0276" lon="4.31896">
        <ele>248.6</ele>
        <time>2024-04-01T10:53:55Z</time>
      </trkpt>
      <trkpt lat="50.02763" lon="4.31912">
        <ele>247.6</ele>
        <time>2024-04-01T10:53:56Z</time>
      </trkpt>
      <trkpt lat="50.02766" lon="4.31928">
        <ele>247.6</ele>
        <time>2024-04-01T10:53:57Z</time>
      </trkpt>
      <trkpt lat="50.02768" lon="4.31945">
        <ele>246.8</ele>
        <time>2024-04-01T10:53:58Z</time>
      </trkpt>
      <trkpt lat="50.02771" lon="4.31961">
        <ele>245.6</ele>
        <time>2024-04-01T10:53:59Z</time>
      </trkpt>
      <trkpt lat="50.02774" lon="4.31978">
        <ele>244.6</ele>
        <time>2024-04-01T10:54:00Z</time>
      </trkpt>
      <trkpt lat="50.02776" lon="4.31995">
        <ele>243.8</ele>
        <time>2024-04-01T10:54:01Z</time>
      </trkpt>
      <trkpt lat="50.02779" lon="4.32012">
        <ele>243.2</ele>
        <time>2024-04-01T10:54:02Z</time>
      </trkpt>
      <trkpt lat="50.02782" lon="4.32029">
        <ele>242.8</ele>
        <time>2024-04-01T10:54:03Z</time>
      </trkpt>
      <trkpt lat="50.02784" lon="4.32047">
        <ele>242.6</ele>
        <time>2024-04-01T10:54:04Z</time>
      </trkpt>
      <trkpt lat="50.02786" lon="4.32065">
        <ele>242.4</ele>
        <time>2024-04-01T10:54:05Z</time>
      </trkpt>
      <trkpt lat="50.02787" lon="4.32084">
        <ele>242.2</ele>
        <time>2024-04-01T10:54:06Z</time>
      </trkpt>
      <trkpt lat="50.02789" lon="4.32103">
        <ele>241</ele>
        <time>2024-04-01T10:54:07Z</time>
      </trkpt>
      <trkpt lat="50.0279" lon="4.32122">
        <ele>240</ele>
        <time>2024-04-01T10:54:08Z</time>
      </trkpt>
      <trkpt lat="50.02791" lon="4.32142">
        <ele>238.6</ele>
        <time>2024-04-01T10:54:09Z</time>
      </trkpt>
      <trkpt lat="50.02792" lon="4.32162">
        <ele>237.2</ele>
        <time>2024-04-01T10:54:10Z</time>
      </trkpt>
      <trkpt lat="50.02792" lon="4.32182">
        <ele>236.4</ele>
        <time>2024-04-01T10:54:11Z</time>
      </trkpt>
      <trkpt lat="50.02793" lon="4.32202">
        <ele>236</ele>
        <time>2024-04-01T10:54:12Z</time>
      </trkpt>
      <trkpt lat="50.02794" lon="4.32222">
        <ele>236</ele>
        <time>2024-04-01T10:54:13Z</time>
      </trkpt>
      <trkpt lat="50.02795" lon="4.32242">
        <ele>235.6</ele>
        <time>2024-04-01T10:54:14Z</time>
      </trkpt>
      <trkpt lat="50.02796" lon="4.32263">
        <ele>235</ele>
        <time>2024-04-01T10:54:15Z</time>
      </trkpt>
      <trkpt lat="50.02796" lon="4.32283">
        <ele>234</ele>
        <time>2024-04-01T10:54:16Z</time>
      </trkpt>
      <trkpt lat="50.02796" lon="4.32303">
        <ele>233.2</ele>
        <time>2024-04-01T10:54:17Z</time>
      </trkpt>
      <trkpt lat="50.02797" lon="4.32323">
        <ele>232.8</ele>
        <time>2024-04-01T10:54:18Z</time>
      </trkpt>
      <trkpt lat="50.02796" lon="4.32343">
        <ele>232</ele>
        <time>2024-04-01T10:54:19Z</time>
      </trkpt>
      <trkpt lat="50.02795" lon="4.32362">
        <ele>230.6</ele>
        <time>2024-04-01T10:54:20Z</time>
      </trkpt>
      <trkpt lat="50.02794" lon="4.3238">
        <ele>230</ele>
        <time>2024-04-01T10:54:21Z</time>
      </trkpt>
      <trkpt lat="50.02792" lon="4.32398">
        <ele>228.8</ele>
        <time>2024-04-01T10:54:22Z</time>
      </trkpt>
      <trkpt lat="50.0279" lon="4.32415">
        <ele>227.6</ele>
        <time>2024-04-01T10:54:23Z</time>
      </trkpt>
      <trkpt lat="50.02788" lon="4.32432">
        <ele>227</ele>
        <time>2024-04-01T10:54:24Z</time>
      </trkpt>
      <trkpt lat="50.02787" lon="4.32448">
        <ele>226.4</ele>
        <time>2024-04-01T10:54:25Z</time>
      </trkpt>
      <trkpt lat="50.02785" lon="4.32463">
        <ele>226</ele>
        <time>2024-04-01T10:54:26Z</time>
      </trkpt>
      <trkpt lat="50.02783" lon="4.32478">
        <ele>225.8</ele>
        <time>2024-04-01T10:54:27Z</time>
      </trkpt>
      <trkpt lat="50.02779" lon="4.32491">
        <ele>225.8</ele>
        <time>2024-04-01T10:54:28Z</time>
      </trkpt>
      <trkpt lat="50.02774" lon="4.32503">
        <ele>225.8</ele>
        <time>2024-04-01T10:54:29Z</time>
      </trkpt>
      <trkpt lat="50.02769" lon="4.32513">
        <ele>225.8</ele>
        <time>2024-04-01T10:54:30Z</time>
      </trkpt>
      <trkpt lat="50.02764" lon="4.32522">
        <ele>225.8</ele>
        <time>2024-04-01T10:54:31Z</time>
      </trkpt>
      <trkpt lat="50.02758" lon="4.3253">
        <ele>225.8</ele>
        <time>2024-04-01T10:54:32Z</time>
      </trkpt>
      <trkpt lat="50.02753" lon="4.32538">
        <ele>225.8</ele>
        <time>2024-04-01T10:54:33Z</time>
      </trkpt>
      <trkpt lat="50.02748" lon="4.32545">
        <ele>225.8</ele>
        <time>2024-04-01T10:54:34Z</time>
      </trkpt>
      <trkpt lat="50.02744" lon="4.32552">
        <ele>225.8</ele>
        <time>2024-04-01T10:54:35Z</time>
      </trkpt>
      <trkpt lat="50.02739" lon="4.3256">
        <ele>226.4</ele>
        <time>2024-04-01T10:54:36Z</time>
      </trkpt>
      <trkpt lat="50.02735" lon="4.32566">
        <ele>227</ele>
        <time>2024-04-01T10:54:37Z</time>
      </trkpt>
      <trkpt lat="50.02731" lon="4.32573">
        <ele>227.8</ele>
        <time>2024-04-01T10:54:38Z</time>
      </trkpt>
      <trkpt lat="50.02726" lon="4.32579">
        <ele>228.8</ele>
        <time>2024-04-01T10:54:39Z</time>
      </trkpt>
      <trkpt lat="50.02723" lon="4.32585">
        <ele>229.4</ele>
        <time>2024-04-01T10:54:40Z</time>
      </trkpt>
      <trkpt lat="50.02719" lon="4.3259">
        <ele>229.6</ele>
        <time>2024-04-01T10:54:41Z</time>
      </trkpt>
      <trkpt lat="50.02715" lon="4.32595">
        <ele>230</ele>
        <time>2024-04-01T10:54:42Z</time>
      </trkpt>
      <trkpt lat="50.02711" lon="4.326">
        <ele>230.8</ele>
        <time>2024-04-01T10:54:43Z</time>
      </trkpt>
      <trkpt lat="50.02708" lon="4.32605">
        <ele>231.6</ele>
        <time>2024-04-01T10:54:44Z</time>
      </trkpt>
      <trkpt lat="50.02704" lon="4.3261">
        <ele>231.6</ele>
        <time>2024-04-01T10:54:45Z</time>
      </trkpt>
      <trkpt lat="50.027" lon="4.32615">
        <ele>232.6</ele>
        <time>2024-04-01T10:54:46Z</time>
      </trkpt>
      <trkpt lat="50.02696" lon="4.3262">
        <ele>233</ele>
        <time>2024-04-01T10:54:47Z</time>
      </trkpt>
      <trkpt lat="50.02692" lon="4.32625">
        <ele>233.4</ele>
        <time>2024-04-01T10:54:48Z</time>
      </trkpt>
      <trkpt lat="50.02689" lon="4.3263">
        <ele>234</ele>
        <time>2024-04-01T10:54:49Z</time>
      </trkpt>
      <trkpt lat="50.02685" lon="4.32635">
        <ele>234.6</ele>
        <time>2024-04-01T10:54:50Z</time>
      </trkpt>
      <trkpt lat="50.02681" lon="4.32639">
        <ele>234.8</ele>
        <time>2024-04-01T10:54:51Z</time>
      </trkpt>
      <trkpt lat="50.02677" lon="4.32644">
        <ele>235</ele>
        <time>2024-04-01T10:54:52Z</time>
      </trkpt>
      <trkpt lat="50.02674" lon="4.32648">
        <ele>235.6</ele>
        <time>2024-04-01T10:54:53Z</time>
      </trkpt>
      <trkpt lat="50.0267" lon="4.32652">
        <ele>236</ele>
        <time>2024-04-01T10:54:54Z</time>
      </trkpt>
      <trkpt lat="50.02667" lon="4.32655">
        <ele>236</ele>
        <time>2024-04-01T10:54:55Z</time>
      </trkpt>
      <trkpt lat="50.02664" lon="4.32658">
        <ele>236.4</ele>
        <time>2024-04-01T10:54:56Z</time>
      </trkpt>
      <trkpt lat="50.02661" lon="4.32662">
        <ele>236.6</ele>
        <time>2024-04-01T10:54:57Z</time>
      </trkpt>
      <trkpt lat="50.02658" lon="4.32665">
        <ele>237</ele>
        <time>2024-04-01T10:54:58Z</time>
      </trkpt>
      <trkpt lat="50.02654" lon="4.32669">
        <ele>237.2</ele>
        <time>2024-04-01T10:54:59Z</time>
      </trkpt>
      <trkpt lat="50.02651" lon="4.32672">
        <ele>237.6</ele>
        <time>2024-04-01T10:55:00Z</time>
      </trkpt>
      <trkpt lat="50.02647" lon="4.32676">
        <ele>237.6</ele>
        <time>2024-04-01T10:55:01Z</time>
      </trkpt>
      <trkpt lat="50.02644" lon="4.32679">
        <ele>237.8</ele>
        <time>2024-04-01T10:55:02Z</time>
      </trkpt>
      <trkpt lat="50.02641" lon="4.32683">
        <ele>237.8</ele>
        <time>2024-04-01T10:55:03Z</time>
      </trkpt>
      <trkpt lat="50.02637" lon="4.32686">
        <ele>238.2</ele>
        <time>2024-04-01T10:55:04Z</time>
      </trkpt>
      <trkpt lat="50.02634" lon="4.3269">
        <ele>238.4</ele>
        <time>2024-04-01T10:55:05Z</time>
      </trkpt>
      <trkpt lat="50.02631" lon="4.32693">
        <ele>238.4</ele>
        <time>2024-04-01T10:55:06Z</time>
      </trkpt>
      <trkpt lat="50.02628" lon="4.32696">
        <ele>238.6</ele>
        <time>2024-04-01T10:55:07Z</time>
      </trkpt>
      <trkpt lat="50.02626" lon="4.32699">
        <ele>238.8</ele>
        <time>2024-04-01T10:55:08Z</time>
      </trkpt>
      <trkpt lat="50.02624" lon="4.327">
        <ele>239</ele>
        <time>2024-04-01T10:55:09Z</time>
      </trkpt>
      <trkpt lat="50.02622" lon="4.327">
        <ele>239.2</ele>
        <time>2024-04-01T10:55:10Z</time>
      </trkpt>
      <trkpt lat="50.0262" lon="4.327">
        <ele>240</ele>
        <time>2024-04-01T10:55:11Z</time>
      </trkpt>
      <trkpt lat="50.02618" lon="4.32699">
        <ele>240.4</ele>
        <time>2024-04-01T10:55:12Z</time>
      </trkpt>
      <trkpt lat="50.02618" lon="4.32699">
        <ele>240.6</ele>
        <time>2024-04-01T10:55:13Z</time>
      </trkpt>
      <trkpt lat="50.02617" lon="4.32699">
        <ele>241.2</ele>
        <time>2024-04-01T10:55:14Z</time>
      </trkpt>
      <trkpt lat="50.02617" lon="4.32699">
        <ele>241.4</ele>
        <time>2024-04-01T10:55:15Z</time>
      </trkpt>
      <trkpt lat="50.02607" lon="4.32707">
        <ele>243</ele>
        <time>2024-04-01T10:55:52Z</time>
      </trkpt>
      <trkpt lat="50.02606" lon="4.32708">
        <ele>243</ele>
        <time>2024-04-01T10:55:53Z</time>
      </trkpt>
      <trkpt lat="50.02604" lon="4.3271">
        <ele>243</ele>
        <time>2024-04-01T10:55:54Z</time>
      </trkpt>
      <trkpt lat="50.02602" lon="4.32711">
        <ele>243.2</ele>
        <time>2024-04-01T10:55:55Z</time>
      </trkpt>
      <trkpt lat="50.02599" lon="4.32711">
        <ele>243.2</ele>
        <time>2024-04-01T10:55:56Z</time>
      </trkpt>
      <trkpt lat="50.02596" lon="4.32711">
        <ele>243.4</ele>
        <time>2024-04-01T10:55:57Z</time>
      </trkpt>
      <trkpt lat="50.02593" lon="4.32709">
        <ele>243.2</ele>
        <time>2024-04-01T10:55:58Z</time>
      </trkpt>
      <trkpt lat="50.02591" lon="4.32706">
        <ele>243.2</ele>
        <time>2024-04-01T10:55:59Z</time>
      </trkpt>
      <trkpt lat="50.02588" lon="4.32701">
        <ele>243.4</ele>
        <time>2024-04-01T10:56:00Z</time>
      </trkpt>
      <trkpt lat="50.02585" lon="4.32696">
        <ele>243.2</ele>
        <time>2024-04-01T10:56:01Z</time>
      </trkpt>
      <trkpt lat="50.02582" lon="4.32691">
        <ele>243.4</ele>
        <time>2024-04-01T10:56:02Z</time>
      </trkpt>
      <trkpt lat="50.02578" lon="4.32686">
        <ele>243.4</ele>
        <time>2024-04-01T10:56:03Z</time>
      </trkpt>
      <trkpt lat="50.02574" lon="4.32681">
        <ele>243.4</ele>
        <time>2024-04-01T10:56:04Z</time>
      </trkpt>
      <trkpt lat="50.02571" lon="4.32675">
        <ele>243.2</ele>
        <time>2024-04-01T10:56:05Z</time>
      </trkpt>
      <trkpt lat="50.02567" lon="4.3267">
        <ele>243</ele>
        <time>2024-04-01T10:56:06Z</time>
      </trkpt>
      <trkpt lat="50.02563" lon="4.32664">
        <ele>242.8</ele>
        <time>2024-04-01T10:56:07Z</time>
      </trkpt>
      <trkpt lat="50.0256" lon="4.32658">
        <ele>242.6</ele>
        <time>2024-04-01T10:56:08Z</time>
      </trkpt>
      <trkpt lat="50.02556" lon="4.32652">
        <ele>242.2</ele>
        <time>2024-04-01T10:56:09Z</time>
      </trkpt>
      <trkpt lat="50.02552" lon="4.32646">
        <ele>241.6</ele>
        <time>2024-04-01T10:56:10Z</time>
      </trkpt>
      <trkpt lat="50.02548" lon="4.3264">
        <ele>241.6</ele>
        <time>2024-04-01T10:56:11Z</time>
      </trkpt>
      <trkpt lat="50.02545" lon="4.32634">
        <ele>241.4</ele>
        <time>2024-04-01T10:56:12Z</time>
      </trkpt>
      <trkpt lat="50.02542" lon="4.32628">
        <ele>241.4</ele>
        <time>2024-04-01T10:56:13Z</time>
      </trkpt>
      <trkpt lat="50.02538" lon="4.32621">
        <ele>241.2</ele>
        <time>2024-04-01T10:56:14Z</time>
      </trkpt>
      <trkpt lat="50.02535" lon="4.32615">
        <ele>241.2</ele>
        <time>2024-04-01T10:56:15Z</time>
      </trkpt>
      <trkpt lat="50.02532" lon="4.32609">
        <ele>241</ele>
        <time>2024-04-01T10:56:16Z</time>
      </trkpt>
      <trkpt lat="50.02528" lon="4.32604">
        <ele>241</ele>
        <time>2024-04-01T10:56:17Z</time>
      </trkpt>
      <trkpt lat="50.02525" lon="4.32598">
        <ele>240.8</ele>
        <time>2024-04-01T10:56:18Z</time>
      </trkpt>
      <trkpt lat="50.02523" lon="4.32594">
        <ele>240.8</ele>
        <time>2024-04-01T10:56:19Z</time>
      </trkpt>
      <trkpt lat="50.02521" lon="4.32592">
        <ele>240.6</ele>
        <time>2024-04-01T10:56:20Z</time>
      </trkpt>
      <trkpt lat="50.0252" lon="4.32592">
        <ele>240.4</ele>
        <time>2024-04-01T10:56:21Z</time>
      </trkpt>
      <trkpt lat="50.0252" lon="4.32595">
        <ele>240.4</ele>
        <time>2024-04-01T10:56:22Z</time>
      </trkpt>
      <trkpt lat="50.02521" lon="4.32597">
        <ele>240.2</ele>
        <time>2024-04-01T10:56:23Z</time>
      </trkpt>
      <trkpt lat="50.02522" lon="4.326">
        <ele>240.4</ele>
        <time>2024-04-01T10:56:24Z</time>
      </trkpt>
      <trkpt lat="50.02524" lon="4.32604">
        <ele>240.4</ele>
        <time>2024-04-01T10:56:25Z</time>
      </trkpt>
      <trkpt lat="50.02526" lon="4.32608">
        <ele>240.4</ele>
        <time>2024-04-01T10:56:26Z</time>
      </trkpt>
      <trkpt lat="50.02529" lon="4.32613">
        <ele>240.4</ele>
        <time>2024-04-01T10:56:27Z</time>
      </trkpt>
      <trkpt lat="50.02531" lon="4.32618">
        <ele>240.4</ele>
        <time>2024-04-01T10:56:28Z</time>
      </trkpt>
      <trkpt lat="50.02534" lon="4.32624">
        <ele>240.4</ele>
        <time>2024-04-01T10:56:29Z</time>
      </trkpt>
      <trkpt lat="50.02538" lon="4.32629">
        <ele>240.4</ele>
        <time>2024-04-01T10:56:30Z</time>
      </trkpt>
      <trkpt lat="50.02541" lon="4.32635">
        <ele>241</ele>
        <time>2024-04-01T10:56:31Z</time>
      </trkpt>
      <trkpt lat="50.02544" lon="4.32641">
        <ele>241.2</ele>
        <time>2024-04-01T10:56:32Z</time>
      </trkpt>
      <trkpt lat="50.02548" lon="4.32647">
        <ele>241.6</ele>
        <time>2024-04-01T10:56:33Z</time>
      </trkpt>
      <trkpt lat="50.02551" lon="4.32653">
        <ele>241.8</ele>
        <time>2024-04-01T10:56:34Z</time>
      </trkpt>
      <trkpt lat="50.02554" lon="4.32659">
        <ele>241.8</ele>
        <time>2024-04-01T10:56:35Z</time>
      </trkpt>
      <trkpt lat="50.02557" lon="4.32665">
        <ele>241.8</ele>
        <time>2024-04-01T10:56:36Z</time>
      </trkpt>
      <trkpt lat="50.0256" lon="4.32671">
        <ele>242</ele>
        <time>2024-04-01T10:56:37Z</time>
      </trkpt>
      <trkpt lat="50.02564" lon="4.32677">
        <ele>242</ele>
        <time>2024-04-01T10:56:38Z</time>
      </trkpt>
      <trkpt lat="50.02567" lon="4.32683">
        <ele>242.2</ele>
        <time>2024-04-01T10:56:39Z</time>
      </trkpt>
      <trkpt lat="50.0257" lon="4.3269">
        <ele>242</ele>
        <time>2024-04-01T10:56:40Z</time>
      </trkpt>
      <trkpt lat="50.02573" lon="4.32696">
        <ele>242.2</ele>
        <time>2024-04-01T10:56:41Z</time>
      </trkpt>
      <trkpt lat="50.02576" lon="4.32703">
        <ele>242.2</ele>
        <time>2024-04-01T10:56:42Z</time>
      </trkpt>
      <trkpt lat="50.02579" lon="4.32709">
        <ele>242.2</ele>
        <time>2024-04-01T10:56:43Z</time>
      </trkpt>
      <trkpt lat="50.02582" lon="4.32715">
        <ele>242.2</ele>
        <time>2024-04-01T10:56:44Z</time>
      </trkpt>
      <trkpt lat="50.02584" lon="4.32722">
        <ele>242.2</ele>
        <time>2024-04-01T10:56:45Z</time>
      </trkpt>
      <trkpt lat="50.02583" lon="4.32729">
        <ele>242.4</ele>
        <time>2024-04-01T10:56:46Z</time>
      </trkpt>
      <trkpt lat="50.02581" lon="4.32734">
        <ele>242.4</ele>
        <time>2024-04-01T10:56:47Z</time>
      </trkpt>
      <trkpt lat="50.02577" lon="4.32739">
        <ele>242.4</ele>
        <time>2024-04-01T10:56:48Z</time>
      </trkpt>
      <trkpt lat="50.02573" lon="4.32743">
        <ele>242.4</ele>
        <time>2024-04-01T10:56:49Z</time>
      </trkpt>
      <trkpt lat="50.02568" lon="4.32745">
        <ele>242.4</ele>
        <time>2024-04-01T10:56:50Z</time>
      </trkpt>
      <trkpt lat="50.02563" lon="4.32746">
        <ele>243</ele>
        <time>2024-04-01T10:56:51Z</time>
      </trkpt>
      <trkpt lat="50.02557" lon="4.32747">
        <ele>243.2</ele>
        <time>2024-04-01T10:56:52Z</time>
      </trkpt>
      <trkpt lat="50.02552" lon="4.32747">
        <ele>243.6</ele>
        <time>2024-04-01T10:56:53Z</time>
      </trkpt>
      <trkpt lat="50.02547" lon="4.32748">
        <ele>243.8</ele>
        <time>2024-04-01T10:56:54Z</time>
      </trkpt>
      <trkpt lat="50.02542" lon="4.32748">
        <ele>243.8</ele>
        <time>2024-04-01T10:56:55Z</time>
      </trkpt>
      <trkpt lat="50.02537" lon="4.32748">
        <ele>243.8</ele>
        <time>2024-04-01T10:56:56Z</time>
      </trkpt>
      <trkpt lat="50.02532" lon="4.32747">
        <ele>243.8</ele>
        <time>2024-04-01T10:56:57Z</time>
      </trkpt>
      <trkpt lat="50.02526" lon="4.32746">
        <ele>243.8</ele>
        <time>2024-04-01T10:56:58Z</time>
      </trkpt>
      <trkpt lat="50.02521" lon="4.32745">
        <ele>243.8</ele>
        <time>2024-04-01T10:56:59Z</time>
      </trkpt>
      <trkpt lat="50.02516" lon="4.32744">
        <ele>243.8</ele>
        <time>2024-04-01T10:57:00Z</time>
      </trkpt>
      <trkpt lat="50.02511" lon="4.32744">
        <ele>244</ele>
        <time>2024-04-01T10:57:01Z</time>
      </trkpt>
      <trkpt lat="50.02506" lon="4.32743">
        <ele>243.8</ele>
        <time>2024-04-01T10:57:02Z</time>
      </trkpt>
      <trkpt lat="50.02501" lon="4.32742">
        <ele>244</ele>
        <time>2024-04-01T10:57:03Z</time>
      </trkpt>
      <trkpt lat="50.02496" lon="4.32742">
        <ele>244</ele>
        <time>2024-04-01T10:57:04Z</time>
      </trkpt>
      <trkpt lat="50.02491" lon="4.32741">
        <ele>244.2</ele>
        <time>2024-04-01T10:57:05Z</time>
      </trkpt>
      <trkpt lat="50.02486" lon="4.32741">
        <ele>244.2</ele>
        <time>2024-04-01T10:57:06Z</time>
      </trkpt>
      <trkpt lat="50.0248" lon="4.3274">
        <ele>244.4</ele>
        <time>2024-04-01T10:57:07Z</time>
      </trkpt>
      <trkpt lat="50.02475" lon="4.32739">
        <ele>244.2</ele>
        <time>2024-04-01T10:57:08Z</time>
      </trkpt>
      <trkpt lat="50.0247" lon="4.32739">
        <ele>244.4</ele>
        <time>2024-04-01T10:57:09Z</time>
      </trkpt>
      <trkpt lat="50.02465" lon="4.32738">
        <ele>244.2</ele>
        <time>2024-04-01T10:57:10Z</time>
      </trkpt>
      <trkpt lat="50.0246" lon="4.32737">
        <ele>244.2</ele>
        <time>2024-04-01T10:57:11Z</time>
      </trkpt>
      <trkpt lat="50.02455" lon="4.32737">
        <ele>244.6</ele>
        <time>2024-04-01T10:57:12Z</time>
      </trkpt>
      <trkpt lat="50.0245" lon="4.32736">
        <ele>244.8</ele>
        <time>2024-04-01T10:57:13Z</time>
      </trkpt>
      <trkpt lat="50.02445" lon="4.32735">
        <ele>244.8</ele>
        <time>2024-04-01T10:57:14Z</time>
      </trkpt>
      <trkpt lat="50.0244" lon="4.32734">
        <ele>244.8</ele>
        <time>2024-04-01T10:57:15Z</time>
      </trkpt>
      <trkpt lat="50.02435" lon="4.32733">
        <ele>245</ele>
        <time>2024-04-01T10:57:16Z</time>
      </trkpt>
      <trkpt lat="50.02431" lon="4.32732">
        <ele>245</ele>
        <time>2024-04-01T10:57:17Z</time>
      </trkpt>
      <trkpt lat="50.02426" lon="4.32731">
        <ele>245</ele>
        <time>2024-04-01T10:57:18Z</time>
      </trkpt>
      <trkpt lat="50.02422" lon="4.3273">
        <ele>245.2</ele>
        <time>2024-04-01T10:57:19Z</time>
      </trkpt>
      <trkpt lat="50.02418" lon="4.32728">
        <ele>245.4</ele>
        <time>2024-04-01T10:57:20Z</time>
      </trkpt>
      <trkpt lat="50.02416" lon="4.32725">
        <ele>245.2</ele>
        <time>2024-04-01T10:57:21Z</time>
      </trkpt>
      <trkpt lat="50.02414" lon="4.3272">
        <ele>245.2</ele>
        <time>2024-04-01T10:57:22Z</time>
      </trkpt>
      <trkpt lat="50.02413" lon="4.32714">
        <ele>245.2</ele>
        <time>2024-04-01T10:57:23Z</time>
      </trkpt>
      <trkpt lat="50.02413" lon="4.32709">
        <ele>245.4</ele>
        <time>2024-04-01T10:57:24Z</time>
      </trkpt>
      <trkpt lat="50.02412" lon="4.32703">
        <ele>245.4</ele>
        <time>2024-04-01T10:57:25Z</time>
      </trkpt>
      <trkpt lat="50.0241" lon="4.32696">
        <ele>245.4</ele>
        <time>2024-04-01T10:57:26Z</time>
      </trkpt>
      <trkpt lat="50.0241" lon="4.32689">
        <ele>245.6</ele>
        <time>2024-04-01T10:57:27Z</time>
      </trkpt>
      <trkpt lat="50.02413" lon="4.32682">
        <ele>245.6</ele>
        <time>2024-04-01T10:57:28Z</time>
      </trkpt>
      <trkpt lat="50.02418" lon="4.32679">
        <ele>245.4</ele>
        <time>2024-04-01T10:57:29Z</time>
      </trkpt>
      <trkpt lat="50.02423" lon="4.32678">
        <ele>245.6</ele>
        <time>2024-04-01T10:57:30Z</time>
      </trkpt>
      <trkpt lat="50.02428" lon="4.3268">
        <ele>245.4</ele>
        <time>2024-04-01T10:57:31Z</time>
      </trkpt>
      <trkpt lat="50.02433" lon="4.32681">
        <ele>245.4</ele>
        <time>2024-04-01T10:57:32Z</time>
      </trkpt>
      <trkpt lat="50.02437" lon="4.32682">
        <ele>245.2</ele>
        <time>2024-04-01T10:57:33Z</time>
      </trkpt>
      <trkpt lat="50.0244" lon="4.32682">
        <ele>245</ele>
        <time>2024-04-01T10:57:34Z</time>
      </trkpt>
      <trkpt lat="50.02441" lon="4.32682">
        <ele>244.4</ele>
        <time>2024-04-01T10:57:35Z</time>
      </trkpt>
      <trkpt lat="50.02442" lon="4.32682">
        <ele>244.2</ele>
        <time>2024-04-01T10:57:36Z</time>
      </trkpt>
      <trkpt lat="50.02443" lon="4.32682">
        <ele>244</ele>
        <time>2024-04-01T10:57:37Z</time>
      </trkpt>
      <trkpt lat="50.02443" lon="4.32682">
        <ele>244</ele>
        <time>2024-04-01T10:57:38Z</time>
      </trkpt>
      <trkpt lat="50.02446" lon="4.32681">
        <ele>244.6</ele>
        <time>2024-04-01T11:02:19Z</time>
      </trkpt>
      <trkpt lat="50.02448" lon="4.32682">
        <ele>244.6</ele>
        <time>2024-04-01T11:02:20Z</time>
      </trkpt>
      <trkpt lat="50.02451" lon="4.32682">
        <ele>244.6</ele>
        <time>2024-04-01T11:02:21Z</time>
      </trkpt>
      <trkpt lat="50.02453" lon="4.32683">
        <ele>244.6</ele>
        <time>2024-04-01T11:02:22Z</time>
      </trkpt>
      <trkpt lat="50.02457" lon="4.32684">
        <ele>244.2</ele>
        <time>2024-04-01T11:02:23Z</time>
      </trkpt>
      <trkpt lat="50.0246" lon="4.32682">
        <ele>243.8</ele>
        <time>2024-04-01T11:02:24Z</time>
      </trkpt>
      <trkpt lat="50.02462" lon="4.32678">
        <ele>243.8</ele>
        <time>2024-04-01T11:02:25Z</time>
      </trkpt>
      <trkpt lat="50.02464" lon="4.32673">
        <ele>243.8</ele>
        <time>2024-04-01T11:02:26Z</time>
      </trkpt>
      <trkpt lat="50.02464" lon="4.32666">
        <ele>243.6</ele>
        <time>2024-04-01T11:02:27Z</time>
      </trkpt>
      <trkpt lat="50.02463" lon="4.32658">
        <ele>243.6</ele>
        <time>2024-04-01T11:02:28Z</time>
      </trkpt>
      <trkpt lat="50.02462" lon="4.3265">
        <ele>243.4</ele>
        <time>2024-04-01T11:02:29Z</time>
      </trkpt>
      <trkpt lat="50.02462" lon="4.32642">
        <ele>243.4</ele>
        <time>2024-04-01T11:02:30Z</time>
      </trkpt>
      <trkpt lat="50.02461" lon="4.32634">
        <ele>243.2</ele>
        <time>2024-04-01T11:02:31Z</time>
      </trkpt>
      <trkpt lat="50.0246" lon="4.32625">
        <ele>243.2</ele>
        <time>2024-04-01T11:02:32Z</time>
      </trkpt>
      <trkpt lat="50.02459" lon="4.32616">
        <ele>243</ele>
        <time>2024-04-01T11:02:33Z</time>
      </trkpt>
      <trkpt lat="50.02458" lon="4.32607">
        <ele>242.8</ele>
        <time>2024-04-01T11:02:34Z</time>
      </trkpt>
      <trkpt lat="50.02458" lon="4.32598">
        <ele>242.6</ele>
        <time>2024-04-01T11:02:35Z</time>
      </trkpt>
      <trkpt lat="50.02457" lon="4.32589">
        <ele>242.2</ele>
        <time>2024-04-01T11:02:36Z</time>
      </trkpt>
      <trkpt lat="50.02456" lon="4.3258">
        <ele>241.8</ele>
        <time>2024-04-01T11:02:37Z</time>
      </trkpt>
      <trkpt lat="50.02455" lon="4.32571">
        <ele>241.6</ele>
        <time>2024-04-01T11:02:38Z</time>
      </trkpt>
      <trkpt lat="50.02453" lon="4.32562">
        <ele>241.4</ele>
        <time>2024-04-01T11:02:39Z</time>
      </trkpt>
      <trkpt lat="50.02449" lon="4.32554">
        <ele>241.2</ele>
        <time>2024-04-01T11:02:40Z</time>
      </trkpt>
      <trkpt lat="50.02446" lon="4.32546">
        <ele>241</ele>
        <time>2024-04-01T11:02:41Z</time>
      </trkpt>
      <trkpt lat="50.02442" lon="4.32539">
        <ele>240.6</ele>
        <time>2024-04-01T11:02:42Z</time>
      </trkpt>
      <trkpt lat="50.02439" lon="4.32531">
        <ele>240.6</ele>
        <time>2024-04-01T11:02:43Z</time>
      </trkpt>
      <trkpt lat="50.02435" lon="4.32525">
        <ele>240.2</ele>
        <time>2024-04-01T11:02:44Z</time>
      </trkpt>
      <trkpt lat="50.0243" lon="4.32519">
        <ele>240.2</ele>
        <time>2024-04-01T11:02:45Z</time>
      </trkpt>
      <trkpt lat="50.02425" lon="4.32513">
        <ele>240.2</ele>
        <time>2024-04-01T11:02:46Z</time>
      </trkpt>
      <trkpt lat="50.02421" lon="4.32507">
        <ele>240</ele>
        <time>2024-04-01T11:02:47Z</time>
      </trkpt>
      <trkpt lat="50.02416" lon="4.32501">
        <ele>239.8</ele>
        <time>2024-04-01T11:02:48Z</time>
      </trkpt>
      <trkpt lat="50.0241" lon="4.32496">
        <ele>239.6</ele>
        <time>2024-04-01T11:02:49Z</time>
      </trkpt>
      <trkpt lat="50.02405" lon="4.32491">
        <ele>239.4</ele>
        <time>2024-04-01T11:02:50Z</time>
      </trkpt>
      <trkpt lat="50.02401" lon="4.32485">
        <ele>239.4</ele>
        <time>2024-04-01T11:02:51Z</time>
      </trkpt>
      <trkpt lat="50.02397" lon="4.32477">
        <ele>239.2</ele>
        <time>2024-04-01T11:02:52Z</time>
      </trkpt>
      <trkpt lat="50.02396" lon="4.32468">
        <ele>239.2</ele>
        <time>2024-04-01T11:02:53Z</time>
      </trkpt>
      <trkpt lat="50.02397" lon="4.3246">
        <ele>239.2</ele>
        <time>2024-04-01T11:02:54Z</time>
      </trkpt>
      <trkpt lat="50.02401" lon="4.32454">
        <ele>239.2</ele>
        <time>2024-04-01T11:02:55Z</time>
      </trkpt>
      <trkpt lat="50.02405" lon="4.32448">
        <ele>239.2</ele>
        <time>2024-04-01T11:02:56Z</time>
      </trkpt>
      <trkpt lat="50.02409" lon="4.32441">
        <ele>239.2</ele>
        <time>2024-04-01T11:02:57Z</time>
      </trkpt>
      <trkpt lat="50.02412" lon="4.32435">
        <ele>239.2</ele>
        <time>2024-04-01T11:02:58Z</time>
      </trkpt>
      <trkpt lat="50.02416" lon="4.3243">
        <ele>239</ele>
        <time>2024-04-01T11:02:59Z</time>
      </trkpt>
      <trkpt lat="50.02417" lon="4.32425">
        <ele>239</ele>
        <time>2024-04-01T11:03:00Z</time>
      </trkpt>
      <trkpt lat="50.02418" lon="4.3242">
        <ele>239</ele>
        <time>2024-04-01T11:03:01Z</time>
      </trkpt>
      <trkpt lat="50.02417" lon="4.32414">
        <ele>239.2</ele>
        <time>2024-04-01T11:03:02Z</time>
      </trkpt>
      <trkpt lat="50.02415" lon="4.32409">
        <ele>239.2</ele>
        <time>2024-04-01T11:03:03Z</time>
      </trkpt>
      <trkpt lat="50.02413" lon="4.32403">
        <ele>239.2</ele>
        <time>2024-04-01T11:03:04Z</time>
      </trkpt>
      <trkpt lat="50.0241" lon="4.32398">
        <ele>239.6</ele>
        <time>2024-04-01T11:03:05Z</time>
      </trkpt>
      <trkpt lat="50.02406" lon="4.32392">
        <ele>240</ele>
        <time>2024-04-01T11:03:06Z</time>
      </trkpt>
      <trkpt lat="50.02403" lon="4.32386">
        <ele>239.8</ele>
        <time>2024-04-01T11:03:07Z</time>
      </trkpt>
      <trkpt lat="50.02399" lon="4.32381">
        <ele>240</ele>
        <time>2024-04-01T11:03:08Z</time>
      </trkpt>
      <trkpt lat="50.02395" lon="4.32376">
        <ele>240</ele>
        <time>2024-04-01T11:03:09Z</time>
      </trkpt>
      <trkpt lat="50.02391" lon="4.3237">
        <ele>240</ele>
        <time>2024-04-01T11:03:10Z</time>
      </trkpt>
      <trkpt lat="50.02388" lon="4.32364">
        <ele>240</ele>
        <time>2024-04-01T11:03:11Z</time>
      </trkpt>
      <trkpt lat="50.02384" lon="4.32359">
        <ele>240.2</ele>
        <time>2024-04-01T11:03:12Z</time>
      </trkpt>
      <trkpt lat="50.0238" lon="4.32353">
        <ele>240.2</ele>
        <time>2024-04-01T11:03:13Z</time>
      </trkpt>
      <trkpt lat="50.02376" lon="4.32348">
        <ele>240.6</ele>
        <time>2024-04-01T11:03:14Z</time>
      </trkpt>
      <trkpt lat="50.02371" lon="4.32342">
        <ele>240.6</ele>
        <time>2024-04-01T11:03:15Z</time>
      </trkpt>
      <trkpt lat="50.02367" lon="4.32337">
        <ele>240.6</ele>
        <time>2024-04-01T11:03:16Z</time>
      </trkpt>
      <trkpt lat="50.02363" lon="4.32332">
        <ele>240.6</ele>
        <time>2024-04-01T11:03:17Z</time>
      </trkpt>
      <trkpt lat="50.02359" lon="4.32326">
        <ele>240.6</ele>
        <time>2024-04-01T11:03:18Z</time>
      </trkpt>
      <trkpt lat="50.02355" lon="4.32321">
        <ele>240.6</ele>
        <time>2024-04-01T11:03:19Z</time>
      </trkpt>
      <trkpt lat="50.0235" lon="4.32315">
        <ele>240.8</ele>
        <time>2024-04-01T11:03:20Z</time>
      </trkpt>
      <trkpt lat="50.02346" lon="4.32311">
        <ele>240.8</ele>
        <time>2024-04-01T11:03:21Z</time>
      </trkpt>
      <trkpt lat="50.02341" lon="4.32306">
        <ele>240.6</ele>
        <time>2024-04-01T11:03:22Z</time>
      </trkpt>
      <trkpt lat="50.02336" lon="4.32304">
        <ele>240.4</ele>
        <time>2024-04-01T11:03:23Z</time>
      </trkpt>
      <trkpt lat="50.02332" lon="4.32305">
        <ele>240.4</ele>
        <time>2024-04-01T11:03:24Z</time>
      </trkpt>
      <trkpt lat="50.02328" lon="4.32308">
        <ele>240.4</ele>
        <time>2024-04-01T11:03:25Z</time>
      </trkpt>
      <trkpt lat="50.02325" lon="4.32312">
        <ele>240.4</ele>
        <time>2024-04-01T11:03:26Z</time>
      </trkpt>
      <trkpt lat="50.02323" lon="4.32318">
        <ele>240.6</ele>
        <time>2024-04-01T11:03:27Z</time>
      </trkpt>
      <trkpt lat="50.02322" lon="4.32325">
        <ele>240.6</ele>
        <time>2024-04-01T11:03:28Z</time>
      </trkpt>
      <trkpt lat="50.02321" lon="4.32332">
        <ele>240.8</ele>
        <time>2024-04-01T11:03:29Z</time>
      </trkpt>
      <trkpt lat="50.02319" lon="4.32339">
        <ele>241</ele>
        <time>2024-04-01T11:03:30Z</time>
      </trkpt>
      <trkpt lat="50.02317" lon="4.32344">
        <ele>241</ele>
        <time>2024-04-01T11:03:31Z</time>
      </trkpt>
      <trkpt lat="50.02314" lon="4.32349">
        <ele>241</ele>
        <time>2024-04-01T11:03:32Z</time>
      </trkpt>
      <trkpt lat="50.02311" lon="4.32354">
        <ele>241.2</ele>
        <time>2024-04-01T11:03:33Z</time>
      </trkpt>
      <trkpt lat="50.02308" lon="4.32358">
        <ele>241.2</ele>
        <time>2024-04-01T11:03:34Z</time>
      </trkpt>
      <trkpt lat="50.02305" lon="4.32362">
        <ele>241.6</ele>
        <time>2024-04-01T11:03:35Z</time>
      </trkpt>
      <trkpt lat="50.02301" lon="4.32365">
        <ele>242</ele>
        <time>2024-04-01T11:03:36Z</time>
      </trkpt>
      <trkpt lat="50.02297" lon="4.32368">
        <ele>242.2</ele>
        <time>2024-04-01T11:03:37Z</time>
      </trkpt>
      <trkpt lat="50.02293" lon="4.32369">
        <ele>242.6</ele>
        <time>2024-04-01T11:03:38Z</time>
      </trkpt>
      <trkpt lat="50.02289" lon="4.3237">
        <ele>242.6</ele>
        <time>2024-04-01T11:03:39Z</time>
      </trkpt>
      <trkpt lat="50.02284" lon="4.3237">
        <ele>243.2</ele>
        <time>2024-04-01T11:03:40Z</time>
      </trkpt>
      <trkpt lat="50.0228" lon="4.32369">
        <ele>243.2</ele>
        <time>2024-04-01T11:03:41Z</time>
      </trkpt>
      <trkpt lat="50.02276" lon="4.32368">
        <ele>243.4</ele>
        <time>2024-04-01T11:03:42Z</time>
      </trkpt>
      <trkpt lat="50.02273" lon="4.32367">
        <ele>243.6</ele>
        <time>2024-04-01T11:03:43Z</time>
      </trkpt>
      <trkpt lat="50.02269" lon="4.32365">
        <ele>243.8</ele>
        <time>2024-04-01T11:03:44Z</time>
      </trkpt>
      <trkpt lat="50.02266" lon="4.32363">
        <ele>244</ele>
        <time>2024-04-01T11:03:45Z</time>
      </trkpt>
      <trkpt lat="50.02264" lon="4.3236">
        <ele>244</ele>
        <time>2024-04-01T11:03:46Z</time>
      </trkpt>
      <trkpt lat="50.02262" lon="4.32356">
        <ele>244.4</ele>
        <time>2024-04-01T11:03:47Z</time>
      </trkpt>
      <trkpt lat="50.02261" lon="4.32352">
        <ele>244.6</ele>
        <time>2024-04-01T11:03:48Z</time>
      </trkpt>
      <trkpt lat="50.02261" lon="4.32347">
        <ele>244.8</ele>
        <time>2024-04-01T11:03:49Z</time>
      </trkpt>
      <trkpt lat="50.02263" lon="4.32342">
        <ele>244.8</ele>
        <time>2024-04-01T11:03:50Z</time>
      </trkpt>
      <trkpt lat="50.02264" lon="4.32336">
        <ele>245</ele>
        <time>2024-04-01T11:03:51Z</time>
      </trkpt>
      <trkpt lat="50.02266" lon="4.32329">
        <ele>245.2</ele>
        <time>2024-04-01T11:03:52Z</time>
      </trkpt>
      <trkpt lat="50.02266" lon="4.32321">
        <ele>246</ele>
        <time>2024-04-01T11:03:53Z</time>
      </trkpt>
      <trkpt lat="50.02267" lon="4.32312">
        <ele>246.2</ele>
        <time>2024-04-01T11:03:54Z</time>
      </trkpt>
      <trkpt lat="50.02266" lon="4.32302">
        <ele>246.4</ele>
        <time>2024-04-01T11:03:55Z</time>
      </trkpt>
      <trkpt lat="50.02265" lon="4.32293">
        <ele>246.4</ele>
        <time>2024-04-01T11:03:56Z</time>
      </trkpt>
      <trkpt lat="50.02263" lon="4.32283">
        <ele>246.6</ele>
        <time>2024-04-01T11:03:57Z</time>
      </trkpt>
      <trkpt lat="50.0226" lon="4.32272">
        <ele>246.6</ele>
        <time>2024-04-01T11:03:58Z</time>
      </trkpt>
      <trkpt lat="50.02257" lon="4.32262">
        <ele>246.6</ele>
        <time>2024-04-01T11:03:59Z</time>
      </trkpt>
      <trkpt lat="50.02253" lon="4.32251">
        <ele>246.6</ele>
        <time>2024-04-01T11:04:00Z</time>
      </trkpt>
      <trkpt lat="50.0225" lon="4.3224">
        <ele>246.6</ele>
        <time>2024-04-01T11:04:01Z</time>
      </trkpt>
      <trkpt lat="50.02246" lon="4.32229">
        <ele>246.4</ele>
        <time>2024-04-01T11:04:02Z</time>
      </trkpt>
      <trkpt lat="50.02242" lon="4.32218">
        <ele>246.6</ele>
        <time>2024-04-01T11:04:03Z</time>
      </trkpt>
      <trkpt lat="50.02239" lon="4.32205">
        <ele>246.2</ele>
        <time>2024-04-01T11:04:04Z</time>
      </trkpt>
      <trkpt lat="50.02236" lon="4.32192">
        <ele>244.8</ele>
        <time>2024-04-01T11:04:05Z</time>
      </trkpt>
      <trkpt lat="50.02235" lon="4.32178">
        <ele>244</ele>
        <time>2024-04-01T11:04:06Z</time>
      </trkpt>
      <trkpt lat="50.02236" lon="4.32164">
        <ele>242.6</ele>
        <time>2024-04-01T11:04:07Z</time>
      </trkpt>
      <trkpt lat="50.0224" lon="4.32154">
        <ele>241.8</ele>
        <time>2024-04-01T11:04:08Z</time>
      </trkpt>
      <trkpt lat="50.02246" lon="4.32146">
        <ele>241</ele>
        <time>2024-04-01T11:04:09Z</time>
      </trkpt>
      <trkpt lat="50.02251" lon="4.32141">
        <ele>240</ele>
        <time>2024-04-01T11:04:10Z</time>
      </trkpt>
      <trkpt lat="50.02257" lon="4.32138">
        <ele>239.8</ele>
        <time>2024-04-01T11:04:11Z</time>
      </trkpt>
      <trkpt lat="50.02263" lon="4.32135">
        <ele>239.4</ele>
        <time>2024-04-01T11:04:12Z</time>
      </trkpt>
      <trkpt lat="50.02269" lon="4.32133">
        <ele>239.4</ele>
        <time>2024-04-01T11:04:13Z</time>
      </trkpt>
      <trkpt lat="50.02274" lon="4.32133">
        <ele>239.2</ele>
        <time>2024-04-01T11:04:14Z</time>
      </trkpt>
      <trkpt lat="50.02279" lon="4.32133">
        <ele>239.2</ele>
        <time>2024-04-01T11:04:15Z</time>
      </trkpt>
      <trkpt lat="50.02283" lon="4.32133">
        <ele>239.4</ele>
        <time>2024-04-01T11:04:16Z</time>
      </trkpt>
      <trkpt lat="50.02286" lon="4.32131">
        <ele>239.2</ele>
        <time>2024-04-01T11:04:17Z</time>
      </trkpt>
      <trkpt lat="50.02288" lon="4.32128">
        <ele>239.2</ele>
        <time>2024-04-01T11:04:18Z</time>
      </trkpt>
      <trkpt lat="50.02288" lon="4.32123">
        <ele>239.2</ele>
        <time>2024-04-01T11:04:19Z</time>
      </trkpt>
      <trkpt lat="50.02287" lon="4.32119">
        <ele>239</ele>
        <time>2024-04-01T11:04:20Z</time>
      </trkpt>
      <trkpt lat="50.02285" lon="4.32115">
        <ele>239.2</ele>
        <time>2024-04-01T11:04:21Z</time>
      </trkpt>
      <trkpt lat="50.02283" lon="4.32112">
        <ele>239.2</ele>
        <time>2024-04-01T11:04:22Z</time>
      </trkpt>
      <trkpt lat="50.02281" lon="4.3211">
        <ele>239.6</ele>
        <time>2024-04-01T11:04:23Z</time>
      </trkpt>
      <trkpt lat="50.0228" lon="4.32108">
        <ele>239.8</ele>
        <time>2024-04-01T11:04:24Z</time>
      </trkpt>
      <trkpt lat="50.02278" lon="4.32105">
        <ele>240</ele>
        <time>2024-04-01T11:04:25Z</time>
      </trkpt>
      <trkpt lat="50.02277" lon="4.32102">
        <ele>240.4</ele>
        <time>2024-04-01T11:04:26Z</time>
      </trkpt>
      <trkpt lat="50.02277" lon="4.32098">
        <ele>240.6</ele>
        <time>2024-04-01T11:04:27Z</time>
      </trkpt>
      <trkpt lat="50.02277" lon="4.32094">
        <ele>240.8</ele>
        <time>2024-04-01T11:04:28Z</time>
      </trkpt>
      <trkpt lat="50.02277" lon="4.32091">
        <ele>241</ele>
        <time>2024-04-01T11:04:29Z</time>
      </trkpt>
      <trkpt lat="50.02276" lon="4.32088">
        <ele>241</ele>
        <time>2024-04-01T11:04:30Z</time>
      </trkpt>
      <trkpt lat="50.02276" lon="4.32084">
        <ele>241</ele>
        <time>2024-04-01T11:04:31Z</time>
      </trkpt>
      <trkpt lat="50.02275" lon="4.32081">
        <ele>241.2</ele>
        <time>2024-04-01T11:04:32Z</time>
      </trkpt>
      <trkpt lat="50.02274" lon="4.32078">
        <ele>241.6</ele>
        <time>2024-04-01T11:04:33Z</time>
      </trkpt>
      <trkpt lat="50.02273" lon="4.32075">
        <ele>241.8</ele>
        <time>2024-04-01T11:04:34Z</time>
      </trkpt>
      <trkpt lat="50.02272" lon="4.32072">
        <ele>242</ele>
        <time>2024-04-01T11:04:35Z</time>
      </trkpt>
    </trkseg>
  </trk>
</gpx>